<?xml version="1.0" encoding="UTF-8" standalone="no" ?>
<gpx xmlns="http://www.topografix.com/GPX/1/1" xmlns:xsi="http://www.w3.org/2001/XMLSchema-instance" xsi:schemaLocation="http://www.topografix.com/GPX/1/1 http://www.topografix.com/GPX/1/1/gpx.xsd" version="1.1" creator="VisuGPX - https://www.visugpx.com">
  <metadata>
    <name>SCROFF</name>
  </metadata>
  <trk>
    <name><![CDATA[8 Pont Scorff]]></name>
    <trkseg>
      <trkpt lat="47.7727" lon="-3.551">
        <ele>45</ele>
        <time>2019-07-17T13:22:00Z</time>
      </trkpt>
      <trkpt lat="47.7727" lon="-3.551">
        <ele>45</ele>
        <time>2019-07-17T13:22:01Z</time>
      </trkpt>
      <trkpt lat="47.7727" lon="-3.551">
        <ele>45</ele>
        <time>2019-07-17T13:22:02Z</time>
      </trkpt>
      <trkpt lat="47.7727" lon="-3.551">
        <ele>44</ele>
        <time>2019-07-17T13:22:03Z</time>
      </trkpt>
      <trkpt lat="47.77271" lon="-3.551">
        <ele>44</ele>
        <time>2019-07-17T13:22:04Z</time>
      </trkpt>
      <trkpt lat="47.77271" lon="-3.551">
        <ele>43</ele>
        <time>2019-07-17T13:22:05Z</time>
      </trkpt>
      <trkpt lat="47.7727" lon="-3.55099">
        <ele>43</ele>
        <time>2019-07-17T13:22:06Z</time>
      </trkpt>
      <trkpt lat="47.7727" lon="-3.55099">
        <ele>43</ele>
        <time>2019-07-17T13:22:07Z</time>
      </trkpt>
      <trkpt lat="47.7727" lon="-3.55098">
        <ele>42</ele>
        <time>2019-07-17T13:22:08Z</time>
      </trkpt>
      <trkpt lat="47.77271" lon="-3.55097">
        <ele>42</ele>
        <time>2019-07-17T13:22:09Z</time>
      </trkpt>
      <trkpt lat="47.77272" lon="-3.55096">
        <ele>41</ele>
        <time>2019-07-17T13:22:10Z</time>
      </trkpt>
      <trkpt lat="47.77273" lon="-3.55094">
        <ele>41</ele>
        <time>2019-07-17T13:22:11Z</time>
      </trkpt>
      <trkpt lat="47.77274" lon="-3.55093">
        <ele>41</ele>
        <time>2019-07-17T13:22:12Z</time>
      </trkpt>
      <trkpt lat="47.77275" lon="-3.55091">
        <ele>41</ele>
        <time>2019-07-17T13:22:13Z</time>
      </trkpt>
      <trkpt lat="47.77276" lon="-3.55088">
        <ele>40</ele>
        <time>2019-07-17T13:22:14Z</time>
      </trkpt>
      <trkpt lat="47.77277" lon="-3.55085">
        <ele>40</ele>
        <time>2019-07-17T13:22:15Z</time>
      </trkpt>
      <trkpt lat="47.77278" lon="-3.55084">
        <ele>40</ele>
        <time>2019-07-17T13:22:16Z</time>
      </trkpt>
      <trkpt lat="47.77279" lon="-3.55082">
        <ele>40</ele>
        <time>2019-07-17T13:22:17Z</time>
      </trkpt>
      <trkpt lat="47.7728" lon="-3.55081">
        <ele>40</ele>
        <time>2019-07-17T13:22:18Z</time>
      </trkpt>
      <trkpt lat="47.7728" lon="-3.55081">
        <ele>40</ele>
        <time>2019-07-17T13:22:19Z</time>
      </trkpt>
      <trkpt lat="47.77282" lon="-3.55081">
        <ele>40</ele>
        <time>2019-07-17T13:22:20Z</time>
      </trkpt>
      <trkpt lat="47.77283" lon="-3.55081">
        <ele>40</ele>
        <time>2019-07-17T13:22:21Z</time>
      </trkpt>
      <trkpt lat="47.77284" lon="-3.55082">
        <ele>40</ele>
        <time>2019-07-17T13:22:22Z</time>
      </trkpt>
      <trkpt lat="47.77285" lon="-3.55082">
        <ele>40</ele>
        <time>2019-07-17T13:22:23Z</time>
      </trkpt>
      <trkpt lat="47.77286" lon="-3.55082">
        <ele>40</ele>
        <time>2019-07-17T13:22:24Z</time>
      </trkpt>
      <trkpt lat="47.77286" lon="-3.55082">
        <ele>39</ele>
        <time>2019-07-17T13:22:25Z</time>
      </trkpt>
      <trkpt lat="47.77287" lon="-3.55082">
        <ele>39</ele>
        <time>2019-07-17T13:22:26Z</time>
      </trkpt>
      <trkpt lat="47.77287" lon="-3.55082">
        <ele>39</ele>
        <time>2019-07-17T13:22:27Z</time>
      </trkpt>
      <trkpt lat="47.77287" lon="-3.55082">
        <ele>39</ele>
        <time>2019-07-17T13:22:28Z</time>
      </trkpt>
      <trkpt lat="47.77287" lon="-3.55082">
        <ele>38</ele>
        <time>2019-07-17T13:22:29Z</time>
      </trkpt>
      <trkpt lat="47.77287" lon="-3.55082">
        <ele>38</ele>
        <time>2019-07-17T13:22:30Z</time>
      </trkpt>
      <trkpt lat="47.77283" lon="-3.55085">
        <ele>38</ele>
        <time>2019-07-17T13:22:31Z</time>
      </trkpt>
      <trkpt lat="47.77282" lon="-3.55087">
        <ele>37</ele>
        <time>2019-07-17T13:22:32Z</time>
      </trkpt>
      <trkpt lat="47.77281" lon="-3.55091">
        <ele>37</ele>
        <time>2019-07-17T13:22:33Z</time>
      </trkpt>
      <trkpt lat="47.7728" lon="-3.55094">
        <ele>37</ele>
        <time>2019-07-17T13:22:34Z</time>
      </trkpt>
      <trkpt lat="47.7728" lon="-3.55098">
        <ele>37</ele>
        <time>2019-07-17T13:22:35Z</time>
      </trkpt>
      <trkpt lat="47.7728" lon="-3.55102">
        <ele>37</ele>
        <time>2019-07-17T13:22:36Z</time>
      </trkpt>
      <trkpt lat="47.7728" lon="-3.55106">
        <ele>37</ele>
        <time>2019-07-17T13:22:37Z</time>
      </trkpt>
      <trkpt lat="47.7728" lon="-3.5511">
        <ele>36</ele>
        <time>2019-07-17T13:22:38Z</time>
      </trkpt>
      <trkpt lat="47.7728" lon="-3.55114">
        <ele>36</ele>
        <time>2019-07-17T13:22:39Z</time>
      </trkpt>
      <trkpt lat="47.7728" lon="-3.55117">
        <ele>36</ele>
        <time>2019-07-17T13:22:40Z</time>
      </trkpt>
      <trkpt lat="47.7728" lon="-3.55121">
        <ele>36</ele>
        <time>2019-07-17T13:22:41Z</time>
      </trkpt>
      <trkpt lat="47.77279" lon="-3.55124">
        <ele>36</ele>
        <time>2019-07-17T13:22:42Z</time>
      </trkpt>
      <trkpt lat="47.77279" lon="-3.55127">
        <ele>36</ele>
        <time>2019-07-17T13:22:43Z</time>
      </trkpt>
      <trkpt lat="47.77279" lon="-3.55131">
        <ele>36</ele>
        <time>2019-07-17T13:22:44Z</time>
      </trkpt>
      <trkpt lat="47.77279" lon="-3.55134">
        <ele>36</ele>
        <time>2019-07-17T13:22:45Z</time>
      </trkpt>
      <trkpt lat="47.77278" lon="-3.55137">
        <ele>35</ele>
        <time>2019-07-17T13:22:46Z</time>
      </trkpt>
      <trkpt lat="47.77278" lon="-3.55141">
        <ele>35</ele>
        <time>2019-07-17T13:22:47Z</time>
      </trkpt>
      <trkpt lat="47.77278" lon="-3.55144">
        <ele>35</ele>
        <time>2019-07-17T13:22:48Z</time>
      </trkpt>
      <trkpt lat="47.77278" lon="-3.55148">
        <ele>35</ele>
        <time>2019-07-17T13:22:49Z</time>
      </trkpt>
      <trkpt lat="47.77278" lon="-3.55153">
        <ele>35</ele>
        <time>2019-07-17T13:22:50Z</time>
      </trkpt>
      <trkpt lat="47.77278" lon="-3.55157">
        <ele>35</ele>
        <time>2019-07-17T13:22:51Z</time>
      </trkpt>
      <trkpt lat="47.77278" lon="-3.5516">
        <ele>35</ele>
        <time>2019-07-17T13:22:52Z</time>
      </trkpt>
      <trkpt lat="47.77278" lon="-3.55164">
        <ele>35</ele>
        <time>2019-07-17T13:22:53Z</time>
      </trkpt>
      <trkpt lat="47.77279" lon="-3.55169">
        <ele>35</ele>
        <time>2019-07-17T13:22:54Z</time>
      </trkpt>
      <trkpt lat="47.7728" lon="-3.55173">
        <ele>35</ele>
        <time>2019-07-17T13:22:55Z</time>
      </trkpt>
      <trkpt lat="47.7728" lon="-3.55177">
        <ele>35</ele>
        <time>2019-07-17T13:22:56Z</time>
      </trkpt>
      <trkpt lat="47.77282" lon="-3.5518">
        <ele>35</ele>
        <time>2019-07-17T13:22:57Z</time>
      </trkpt>
      <trkpt lat="47.77283" lon="-3.55183">
        <ele>35</ele>
        <time>2019-07-17T13:22:58Z</time>
      </trkpt>
      <trkpt lat="47.77284" lon="-3.55184">
        <ele>35</ele>
        <time>2019-07-17T13:22:59Z</time>
      </trkpt>
      <trkpt lat="47.77286" lon="-3.55186">
        <ele>35</ele>
        <time>2019-07-17T13:23:00Z</time>
      </trkpt>
      <trkpt lat="47.77287" lon="-3.55187">
        <ele>35</ele>
        <time>2019-07-17T13:23:01Z</time>
      </trkpt>
      <trkpt lat="47.7729" lon="-3.55189">
        <ele>36</ele>
        <time>2019-07-17T13:23:02Z</time>
      </trkpt>
      <trkpt lat="47.77292" lon="-3.55191">
        <ele>36</ele>
        <time>2019-07-17T13:23:03Z</time>
      </trkpt>
      <trkpt lat="47.77295" lon="-3.55192">
        <ele>36</ele>
        <time>2019-07-17T13:23:04Z</time>
      </trkpt>
      <trkpt lat="47.77297" lon="-3.55193">
        <ele>36</ele>
        <time>2019-07-17T13:23:05Z</time>
      </trkpt>
      <trkpt lat="47.77299" lon="-3.55195">
        <ele>36</ele>
        <time>2019-07-17T13:23:06Z</time>
      </trkpt>
      <trkpt lat="47.77301" lon="-3.55196">
        <ele>36</ele>
        <time>2019-07-17T13:23:07Z</time>
      </trkpt>
      <trkpt lat="47.77304" lon="-3.55198">
        <ele>37</ele>
        <time>2019-07-17T13:23:08Z</time>
      </trkpt>
      <trkpt lat="47.77306" lon="-3.552">
        <ele>37</ele>
        <time>2019-07-17T13:23:09Z</time>
      </trkpt>
      <trkpt lat="47.77308" lon="-3.55201">
        <ele>37</ele>
        <time>2019-07-17T13:23:10Z</time>
      </trkpt>
      <trkpt lat="47.7731" lon="-3.55203">
        <ele>37</ele>
        <time>2019-07-17T13:23:11Z</time>
      </trkpt>
      <trkpt lat="47.77313" lon="-3.55204">
        <ele>37</ele>
        <time>2019-07-17T13:23:12Z</time>
      </trkpt>
      <trkpt lat="47.77316" lon="-3.55206">
        <ele>37</ele>
        <time>2019-07-17T13:23:13Z</time>
      </trkpt>
      <trkpt lat="47.77319" lon="-3.55208">
        <ele>37</ele>
        <time>2019-07-17T13:23:14Z</time>
      </trkpt>
      <trkpt lat="47.77322" lon="-3.5521">
        <ele>38</ele>
        <time>2019-07-17T13:23:15Z</time>
      </trkpt>
      <trkpt lat="47.77324" lon="-3.55212">
        <ele>38</ele>
        <time>2019-07-17T13:23:16Z</time>
      </trkpt>
      <trkpt lat="47.77327" lon="-3.55214">
        <ele>38</ele>
        <time>2019-07-17T13:23:17Z</time>
      </trkpt>
      <trkpt lat="47.7733" lon="-3.55216">
        <ele>38</ele>
        <time>2019-07-17T13:23:18Z</time>
      </trkpt>
      <trkpt lat="47.77333" lon="-3.55219">
        <ele>38</ele>
        <time>2019-07-17T13:23:19Z</time>
      </trkpt>
      <trkpt lat="47.77337" lon="-3.55221">
        <ele>38</ele>
        <time>2019-07-17T13:23:20Z</time>
      </trkpt>
      <trkpt lat="47.77341" lon="-3.55224">
        <ele>38</ele>
        <time>2019-07-17T13:23:21Z</time>
      </trkpt>
      <trkpt lat="47.77344" lon="-3.55227">
        <ele>38</ele>
        <time>2019-07-17T13:23:22Z</time>
      </trkpt>
      <trkpt lat="47.77348" lon="-3.5523">
        <ele>38</ele>
        <time>2019-07-17T13:23:23Z</time>
      </trkpt>
      <trkpt lat="47.77352" lon="-3.55234">
        <ele>38</ele>
        <time>2019-07-17T13:23:24Z</time>
      </trkpt>
      <trkpt lat="47.77355" lon="-3.55238">
        <ele>38</ele>
        <time>2019-07-17T13:23:25Z</time>
      </trkpt>
      <trkpt lat="47.77359" lon="-3.55241">
        <ele>38</ele>
        <time>2019-07-17T13:23:26Z</time>
      </trkpt>
      <trkpt lat="47.77363" lon="-3.55245">
        <ele>38</ele>
        <time>2019-07-17T13:23:27Z</time>
      </trkpt>
      <trkpt lat="47.77366" lon="-3.55248">
        <ele>38</ele>
        <time>2019-07-17T13:23:28Z</time>
      </trkpt>
      <trkpt lat="47.77371" lon="-3.55252">
        <ele>38</ele>
        <time>2019-07-17T13:23:29Z</time>
      </trkpt>
      <trkpt lat="47.77375" lon="-3.55256">
        <ele>38</ele>
        <time>2019-07-17T13:23:30Z</time>
      </trkpt>
      <trkpt lat="47.77379" lon="-3.5526">
        <ele>38</ele>
        <time>2019-07-17T13:23:31Z</time>
      </trkpt>
      <trkpt lat="47.77383" lon="-3.55264">
        <ele>38</ele>
        <time>2019-07-17T13:23:32Z</time>
      </trkpt>
      <trkpt lat="47.77387" lon="-3.55267">
        <ele>38</ele>
        <time>2019-07-17T13:23:33Z</time>
      </trkpt>
      <trkpt lat="47.77391" lon="-3.55271">
        <ele>38</ele>
        <time>2019-07-17T13:23:34Z</time>
      </trkpt>
      <trkpt lat="47.77395" lon="-3.55274">
        <ele>38</ele>
        <time>2019-07-17T13:23:35Z</time>
      </trkpt>
      <trkpt lat="47.77399" lon="-3.55278">
        <ele>38</ele>
        <time>2019-07-17T13:23:36Z</time>
      </trkpt>
      <trkpt lat="47.77403" lon="-3.55281">
        <ele>38</ele>
        <time>2019-07-17T13:23:37Z</time>
      </trkpt>
      <trkpt lat="47.77407" lon="-3.55284">
        <ele>38</ele>
        <time>2019-07-17T13:23:38Z</time>
      </trkpt>
      <trkpt lat="47.77411" lon="-3.55288">
        <ele>38</ele>
        <time>2019-07-17T13:23:39Z</time>
      </trkpt>
      <trkpt lat="47.77414" lon="-3.55291">
        <ele>38</ele>
        <time>2019-07-17T13:23:40Z</time>
      </trkpt>
      <trkpt lat="47.77418" lon="-3.55295">
        <ele>38</ele>
        <time>2019-07-17T13:23:41Z</time>
      </trkpt>
      <trkpt lat="47.77422" lon="-3.55299">
        <ele>38</ele>
        <time>2019-07-17T13:23:42Z</time>
      </trkpt>
      <trkpt lat="47.77427" lon="-3.55303">
        <ele>38</ele>
        <time>2019-07-17T13:23:43Z</time>
      </trkpt>
      <trkpt lat="47.77431" lon="-3.55307">
        <ele>38</ele>
        <time>2019-07-17T13:23:44Z</time>
      </trkpt>
      <trkpt lat="47.77435" lon="-3.55311">
        <ele>38</ele>
        <time>2019-07-17T13:23:45Z</time>
      </trkpt>
      <trkpt lat="47.7744" lon="-3.55315">
        <ele>38</ele>
        <time>2019-07-17T13:23:46Z</time>
      </trkpt>
      <trkpt lat="47.77444" lon="-3.55319">
        <ele>38</ele>
        <time>2019-07-17T13:23:47Z</time>
      </trkpt>
      <trkpt lat="47.77449" lon="-3.55323">
        <ele>38</ele>
        <time>2019-07-17T13:23:48Z</time>
      </trkpt>
      <trkpt lat="47.77453" lon="-3.55327">
        <ele>38</ele>
        <time>2019-07-17T13:23:49Z</time>
      </trkpt>
      <trkpt lat="47.77458" lon="-3.55332">
        <ele>38</ele>
        <time>2019-07-17T13:23:50Z</time>
      </trkpt>
      <trkpt lat="47.77463" lon="-3.55336">
        <ele>38</ele>
        <time>2019-07-17T13:23:51Z</time>
      </trkpt>
      <trkpt lat="47.77467" lon="-3.55341">
        <ele>38</ele>
        <time>2019-07-17T13:23:52Z</time>
      </trkpt>
      <trkpt lat="47.77472" lon="-3.55345">
        <ele>38</ele>
        <time>2019-07-17T13:23:53Z</time>
      </trkpt>
      <trkpt lat="47.77476" lon="-3.55348">
        <ele>37</ele>
        <time>2019-07-17T13:23:54Z</time>
      </trkpt>
      <trkpt lat="47.7748" lon="-3.55352">
        <ele>37</ele>
        <time>2019-07-17T13:23:55Z</time>
      </trkpt>
      <trkpt lat="47.77484" lon="-3.55356">
        <ele>37</ele>
        <time>2019-07-17T13:23:56Z</time>
      </trkpt>
      <trkpt lat="47.77488" lon="-3.5536">
        <ele>37</ele>
        <time>2019-07-17T13:23:57Z</time>
      </trkpt>
      <trkpt lat="47.77492" lon="-3.55364">
        <ele>37</ele>
        <time>2019-07-17T13:23:58Z</time>
      </trkpt>
      <trkpt lat="47.77496" lon="-3.55368">
        <ele>37</ele>
        <time>2019-07-17T13:23:59Z</time>
      </trkpt>
      <trkpt lat="47.77499" lon="-3.55371">
        <ele>37</ele>
        <time>2019-07-17T13:24:00Z</time>
      </trkpt>
      <trkpt lat="47.77503" lon="-3.55375">
        <ele>37</ele>
        <time>2019-07-17T13:24:01Z</time>
      </trkpt>
      <trkpt lat="47.77509" lon="-3.55379">
        <ele>37</ele>
        <time>2019-07-17T13:24:02Z</time>
      </trkpt>
      <trkpt lat="47.77514" lon="-3.55383">
        <ele>37</ele>
        <time>2019-07-17T13:24:03Z</time>
      </trkpt>
      <trkpt lat="47.77521" lon="-3.55386">
        <ele>37</ele>
        <time>2019-07-17T13:24:04Z</time>
      </trkpt>
      <trkpt lat="47.77527" lon="-3.55387">
        <ele>37</ele>
        <time>2019-07-17T13:24:05Z</time>
      </trkpt>
      <trkpt lat="47.77533" lon="-3.55387">
        <ele>37</ele>
        <time>2019-07-17T13:24:06Z</time>
      </trkpt>
      <trkpt lat="47.77539" lon="-3.55386">
        <ele>38</ele>
        <time>2019-07-17T13:24:07Z</time>
      </trkpt>
      <trkpt lat="47.77545" lon="-3.55386">
        <ele>38</ele>
        <time>2019-07-17T13:24:08Z</time>
      </trkpt>
      <trkpt lat="47.7755" lon="-3.55384">
        <ele>38</ele>
        <time>2019-07-17T13:24:09Z</time>
      </trkpt>
      <trkpt lat="47.77556" lon="-3.55383">
        <ele>38</ele>
        <time>2019-07-17T13:24:10Z</time>
      </trkpt>
      <trkpt lat="47.77561" lon="-3.55382">
        <ele>38</ele>
        <time>2019-07-17T13:24:11Z</time>
      </trkpt>
      <trkpt lat="47.77566" lon="-3.55382">
        <ele>39</ele>
        <time>2019-07-17T13:24:12Z</time>
      </trkpt>
      <trkpt lat="47.77572" lon="-3.55381">
        <ele>39</ele>
        <time>2019-07-17T13:24:13Z</time>
      </trkpt>
      <trkpt lat="47.77577" lon="-3.55381">
        <ele>39</ele>
        <time>2019-07-17T13:24:14Z</time>
      </trkpt>
      <trkpt lat="47.77582" lon="-3.55381">
        <ele>39</ele>
        <time>2019-07-17T13:24:15Z</time>
      </trkpt>
      <trkpt lat="47.77588" lon="-3.5538">
        <ele>39</ele>
        <time>2019-07-17T13:24:16Z</time>
      </trkpt>
      <trkpt lat="47.77593" lon="-3.5538">
        <ele>39</ele>
        <time>2019-07-17T13:24:17Z</time>
      </trkpt>
      <trkpt lat="47.77598" lon="-3.55379">
        <ele>39</ele>
        <time>2019-07-17T13:24:18Z</time>
      </trkpt>
      <trkpt lat="47.77604" lon="-3.55377">
        <ele>40</ele>
        <time>2019-07-17T13:24:19Z</time>
      </trkpt>
      <trkpt lat="47.77608" lon="-3.55376">
        <ele>40</ele>
        <time>2019-07-17T13:24:20Z</time>
      </trkpt>
      <trkpt lat="47.77614" lon="-3.55374">
        <ele>40</ele>
        <time>2019-07-17T13:24:21Z</time>
      </trkpt>
      <trkpt lat="47.77618" lon="-3.55373">
        <ele>40</ele>
        <time>2019-07-17T13:24:22Z</time>
      </trkpt>
      <trkpt lat="47.77624" lon="-3.55371">
        <ele>40</ele>
        <time>2019-07-17T13:24:23Z</time>
      </trkpt>
      <trkpt lat="47.77628" lon="-3.55369">
        <ele>40</ele>
        <time>2019-07-17T13:24:24Z</time>
      </trkpt>
      <trkpt lat="47.77633" lon="-3.55367">
        <ele>40</ele>
        <time>2019-07-17T13:24:25Z</time>
      </trkpt>
      <trkpt lat="47.77638" lon="-3.55365">
        <ele>40</ele>
        <time>2019-07-17T13:24:26Z</time>
      </trkpt>
      <trkpt lat="47.77643" lon="-3.55363">
        <ele>40</ele>
        <time>2019-07-17T13:24:27Z</time>
      </trkpt>
      <trkpt lat="47.77648" lon="-3.5536">
        <ele>40</ele>
        <time>2019-07-17T13:24:28Z</time>
      </trkpt>
      <trkpt lat="47.77653" lon="-3.55358">
        <ele>40</ele>
        <time>2019-07-17T13:24:29Z</time>
      </trkpt>
      <trkpt lat="47.77657" lon="-3.55357">
        <ele>40</ele>
        <time>2019-07-17T13:24:30Z</time>
      </trkpt>
      <trkpt lat="47.77662" lon="-3.55357">
        <ele>39</ele>
        <time>2019-07-17T13:24:31Z</time>
      </trkpt>
      <trkpt lat="47.77666" lon="-3.55357">
        <ele>39</ele>
        <time>2019-07-17T13:24:32Z</time>
      </trkpt>
      <trkpt lat="47.7767" lon="-3.55358">
        <ele>39</ele>
        <time>2019-07-17T13:24:33Z</time>
      </trkpt>
      <trkpt lat="47.77674" lon="-3.55358">
        <ele>39</ele>
        <time>2019-07-17T13:24:34Z</time>
      </trkpt>
      <trkpt lat="47.77679" lon="-3.55358">
        <ele>38</ele>
        <time>2019-07-17T13:24:35Z</time>
      </trkpt>
      <trkpt lat="47.77684" lon="-3.55357">
        <ele>38</ele>
        <time>2019-07-17T13:24:36Z</time>
      </trkpt>
      <trkpt lat="47.77688" lon="-3.55357">
        <ele>38</ele>
        <time>2019-07-17T13:24:37Z</time>
      </trkpt>
      <trkpt lat="47.77693" lon="-3.55356">
        <ele>38</ele>
        <time>2019-07-17T13:24:38Z</time>
      </trkpt>
      <trkpt lat="47.77698" lon="-3.55355">
        <ele>38</ele>
        <time>2019-07-17T13:24:39Z</time>
      </trkpt>
      <trkpt lat="47.77702" lon="-3.55354">
        <ele>38</ele>
        <time>2019-07-17T13:24:40Z</time>
      </trkpt>
      <trkpt lat="47.77707" lon="-3.55354">
        <ele>38</ele>
        <time>2019-07-17T13:24:41Z</time>
      </trkpt>
      <trkpt lat="47.77712" lon="-3.55353">
        <ele>38</ele>
        <time>2019-07-17T13:24:42Z</time>
      </trkpt>
      <trkpt lat="47.77716" lon="-3.55353">
        <ele>38</ele>
        <time>2019-07-17T13:24:43Z</time>
      </trkpt>
      <trkpt lat="47.77721" lon="-3.55352">
        <ele>37</ele>
        <time>2019-07-17T13:24:44Z</time>
      </trkpt>
      <trkpt lat="47.77726" lon="-3.55351">
        <ele>37</ele>
        <time>2019-07-17T13:24:45Z</time>
      </trkpt>
      <trkpt lat="47.7773" lon="-3.55349">
        <ele>37</ele>
        <time>2019-07-17T13:24:46Z</time>
      </trkpt>
      <trkpt lat="47.77735" lon="-3.55347">
        <ele>37</ele>
        <time>2019-07-17T13:24:47Z</time>
      </trkpt>
      <trkpt lat="47.77739" lon="-3.55344">
        <ele>37</ele>
        <time>2019-07-17T13:24:48Z</time>
      </trkpt>
      <trkpt lat="47.77743" lon="-3.5534">
        <ele>37</ele>
        <time>2019-07-17T13:24:49Z</time>
      </trkpt>
      <trkpt lat="47.77747" lon="-3.55335">
        <ele>38</ele>
        <time>2019-07-17T13:24:50Z</time>
      </trkpt>
      <trkpt lat="47.77751" lon="-3.55331">
        <ele>38</ele>
        <time>2019-07-17T13:24:51Z</time>
      </trkpt>
      <trkpt lat="47.77755" lon="-3.55327">
        <ele>38</ele>
        <time>2019-07-17T13:24:52Z</time>
      </trkpt>
      <trkpt lat="47.77759" lon="-3.55322">
        <ele>38</ele>
        <time>2019-07-17T13:24:53Z</time>
      </trkpt>
      <trkpt lat="47.77762" lon="-3.55319">
        <ele>38</ele>
        <time>2019-07-17T13:24:54Z</time>
      </trkpt>
      <trkpt lat="47.77766" lon="-3.55316">
        <ele>38</ele>
        <time>2019-07-17T13:24:55Z</time>
      </trkpt>
      <trkpt lat="47.77771" lon="-3.55314">
        <ele>38</ele>
        <time>2019-07-17T13:24:56Z</time>
      </trkpt>
      <trkpt lat="47.77776" lon="-3.55312">
        <ele>38</ele>
        <time>2019-07-17T13:24:57Z</time>
      </trkpt>
      <trkpt lat="47.77781" lon="-3.55311">
        <ele>38</ele>
        <time>2019-07-17T13:24:58Z</time>
      </trkpt>
      <trkpt lat="47.77786" lon="-3.5531">
        <ele>38</ele>
        <time>2019-07-17T13:24:59Z</time>
      </trkpt>
      <trkpt lat="47.77792" lon="-3.5531">
        <ele>38</ele>
        <time>2019-07-17T13:25:00Z</time>
      </trkpt>
      <trkpt lat="47.77797" lon="-3.55312">
        <ele>38</ele>
        <time>2019-07-17T13:25:01Z</time>
      </trkpt>
      <trkpt lat="47.77801" lon="-3.55317">
        <ele>38</ele>
        <time>2019-07-17T13:25:02Z</time>
      </trkpt>
      <trkpt lat="47.77805" lon="-3.5532">
        <ele>38</ele>
        <time>2019-07-17T13:25:03Z</time>
      </trkpt>
      <trkpt lat="47.7781" lon="-3.55322">
        <ele>38</ele>
        <time>2019-07-17T13:25:04Z</time>
      </trkpt>
      <trkpt lat="47.77815" lon="-3.55324">
        <ele>38</ele>
        <time>2019-07-17T13:25:05Z</time>
      </trkpt>
      <trkpt lat="47.77819" lon="-3.55325">
        <ele>38</ele>
        <time>2019-07-17T13:25:06Z</time>
      </trkpt>
      <trkpt lat="47.77824" lon="-3.55326">
        <ele>38</ele>
        <time>2019-07-17T13:25:07Z</time>
      </trkpt>
      <trkpt lat="47.77829" lon="-3.55327">
        <ele>38</ele>
        <time>2019-07-17T13:25:08Z</time>
      </trkpt>
      <trkpt lat="47.77834" lon="-3.55328">
        <ele>38</ele>
        <time>2019-07-17T13:25:09Z</time>
      </trkpt>
      <trkpt lat="47.77839" lon="-3.55329">
        <ele>38</ele>
        <time>2019-07-17T13:25:10Z</time>
      </trkpt>
      <trkpt lat="47.77844" lon="-3.5533">
        <ele>38</ele>
        <time>2019-07-17T13:25:11Z</time>
      </trkpt>
      <trkpt lat="47.77849" lon="-3.5533">
        <ele>38</ele>
        <time>2019-07-17T13:25:12Z</time>
      </trkpt>
      <trkpt lat="47.77854" lon="-3.55331">
        <ele>38</ele>
        <time>2019-07-17T13:25:13Z</time>
      </trkpt>
      <trkpt lat="47.77859" lon="-3.55331">
        <ele>38</ele>
        <time>2019-07-17T13:25:14Z</time>
      </trkpt>
      <trkpt lat="47.77864" lon="-3.55331">
        <ele>38</ele>
        <time>2019-07-17T13:25:15Z</time>
      </trkpt>
      <trkpt lat="47.77869" lon="-3.55332">
        <ele>38</ele>
        <time>2019-07-17T13:25:16Z</time>
      </trkpt>
      <trkpt lat="47.77875" lon="-3.55332">
        <ele>38</ele>
        <time>2019-07-17T13:25:17Z</time>
      </trkpt>
      <trkpt lat="47.7788" lon="-3.55331">
        <ele>38</ele>
        <time>2019-07-17T13:25:18Z</time>
      </trkpt>
      <trkpt lat="47.77885" lon="-3.55331">
        <ele>38</ele>
        <time>2019-07-17T13:25:19Z</time>
      </trkpt>
      <trkpt lat="47.7789" lon="-3.5533">
        <ele>37</ele>
        <time>2019-07-17T13:25:20Z</time>
      </trkpt>
      <trkpt lat="47.77895" lon="-3.5533">
        <ele>37</ele>
        <time>2019-07-17T13:25:21Z</time>
      </trkpt>
      <trkpt lat="47.779" lon="-3.55329">
        <ele>37</ele>
        <time>2019-07-17T13:25:22Z</time>
      </trkpt>
      <trkpt lat="47.77905" lon="-3.55328">
        <ele>38</ele>
        <time>2019-07-17T13:25:23Z</time>
      </trkpt>
      <trkpt lat="47.7791" lon="-3.55328">
        <ele>38</ele>
        <time>2019-07-17T13:25:24Z</time>
      </trkpt>
      <trkpt lat="47.77915" lon="-3.55326">
        <ele>38</ele>
        <time>2019-07-17T13:25:25Z</time>
      </trkpt>
      <trkpt lat="47.7792" lon="-3.55325">
        <ele>38</ele>
        <time>2019-07-17T13:25:26Z</time>
      </trkpt>
      <trkpt lat="47.77926" lon="-3.55325">
        <ele>38</ele>
        <time>2019-07-17T13:25:27Z</time>
      </trkpt>
      <trkpt lat="47.77931" lon="-3.55325">
        <ele>38</ele>
        <time>2019-07-17T13:25:28Z</time>
      </trkpt>
      <trkpt lat="47.77936" lon="-3.55325">
        <ele>38</ele>
        <time>2019-07-17T13:25:29Z</time>
      </trkpt>
      <trkpt lat="47.77941" lon="-3.55326">
        <ele>38</ele>
        <time>2019-07-17T13:25:30Z</time>
      </trkpt>
      <trkpt lat="47.77946" lon="-3.55326">
        <ele>38</ele>
        <time>2019-07-17T13:25:31Z</time>
      </trkpt>
      <trkpt lat="47.77951" lon="-3.55327">
        <ele>38</ele>
        <time>2019-07-17T13:25:32Z</time>
      </trkpt>
      <trkpt lat="47.77956" lon="-3.55327">
        <ele>38</ele>
        <time>2019-07-17T13:25:33Z</time>
      </trkpt>
      <trkpt lat="47.77961" lon="-3.55328">
        <ele>38</ele>
        <time>2019-07-17T13:25:34Z</time>
      </trkpt>
      <trkpt lat="47.77966" lon="-3.55329">
        <ele>38</ele>
        <time>2019-07-17T13:25:35Z</time>
      </trkpt>
      <trkpt lat="47.77971" lon="-3.5533">
        <ele>38</ele>
        <time>2019-07-17T13:25:36Z</time>
      </trkpt>
      <trkpt lat="47.77976" lon="-3.55331">
        <ele>39</ele>
        <time>2019-07-17T13:25:37Z</time>
      </trkpt>
      <trkpt lat="47.7798" lon="-3.55331">
        <ele>39</ele>
        <time>2019-07-17T13:25:38Z</time>
      </trkpt>
      <trkpt lat="47.77985" lon="-3.55331">
        <ele>39</ele>
        <time>2019-07-17T13:25:39Z</time>
      </trkpt>
      <trkpt lat="47.77989" lon="-3.55331">
        <ele>39</ele>
        <time>2019-07-17T13:25:40Z</time>
      </trkpt>
      <trkpt lat="47.77992" lon="-3.55331">
        <ele>39</ele>
        <time>2019-07-17T13:25:41Z</time>
      </trkpt>
      <trkpt lat="47.77995" lon="-3.55332">
        <ele>39</ele>
        <time>2019-07-17T13:25:42Z</time>
      </trkpt>
      <trkpt lat="47.77995" lon="-3.55331">
        <ele>39</ele>
        <time>2019-07-17T13:25:43Z</time>
      </trkpt>
      <trkpt lat="47.77995" lon="-3.55331">
        <ele>39</ele>
        <time>2019-07-17T13:25:44Z</time>
      </trkpt>
      <trkpt lat="47.77995" lon="-3.55331">
        <ele>39</ele>
        <time>2019-07-17T13:25:45Z</time>
      </trkpt>
      <trkpt lat="47.77994" lon="-3.55331">
        <ele>39</ele>
        <time>2019-07-17T13:25:46Z</time>
      </trkpt>
      <trkpt lat="47.77997" lon="-3.55331">
        <ele>39</ele>
        <time>2019-07-17T13:25:47Z</time>
      </trkpt>
      <trkpt lat="47.77999" lon="-3.55331">
        <ele>39</ele>
        <time>2019-07-17T13:25:48Z</time>
      </trkpt>
      <trkpt lat="47.78002" lon="-3.55332">
        <ele>39</ele>
        <time>2019-07-17T13:25:49Z</time>
      </trkpt>
      <trkpt lat="47.78004" lon="-3.55332">
        <ele>39</ele>
        <time>2019-07-17T13:25:50Z</time>
      </trkpt>
      <trkpt lat="47.78007" lon="-3.55332">
        <ele>39</ele>
        <time>2019-07-17T13:25:51Z</time>
      </trkpt>
      <trkpt lat="47.78009" lon="-3.55333">
        <ele>39</ele>
        <time>2019-07-17T13:25:52Z</time>
      </trkpt>
      <trkpt lat="47.78012" lon="-3.55333">
        <ele>39</ele>
        <time>2019-07-17T13:25:53Z</time>
      </trkpt>
      <trkpt lat="47.78015" lon="-3.55333">
        <ele>39</ele>
        <time>2019-07-17T13:25:54Z</time>
      </trkpt>
      <trkpt lat="47.78018" lon="-3.55333">
        <ele>39</ele>
        <time>2019-07-17T13:25:55Z</time>
      </trkpt>
      <trkpt lat="47.78022" lon="-3.55334">
        <ele>39</ele>
        <time>2019-07-17T13:25:56Z</time>
      </trkpt>
      <trkpt lat="47.78025" lon="-3.55334">
        <ele>39</ele>
        <time>2019-07-17T13:25:57Z</time>
      </trkpt>
      <trkpt lat="47.78028" lon="-3.55334">
        <ele>39</ele>
        <time>2019-07-17T13:25:58Z</time>
      </trkpt>
      <trkpt lat="47.78032" lon="-3.55334">
        <ele>39</ele>
        <time>2019-07-17T13:25:59Z</time>
      </trkpt>
      <trkpt lat="47.78035" lon="-3.55334">
        <ele>39</ele>
        <time>2019-07-17T13:26:00Z</time>
      </trkpt>
      <trkpt lat="47.78039" lon="-3.55333">
        <ele>39</ele>
        <time>2019-07-17T13:26:01Z</time>
      </trkpt>
      <trkpt lat="47.78043" lon="-3.55333">
        <ele>40</ele>
        <time>2019-07-17T13:26:02Z</time>
      </trkpt>
      <trkpt lat="47.78048" lon="-3.55333">
        <ele>40</ele>
        <time>2019-07-17T13:26:03Z</time>
      </trkpt>
      <trkpt lat="47.78052" lon="-3.55332">
        <ele>40</ele>
        <time>2019-07-17T13:26:04Z</time>
      </trkpt>
      <trkpt lat="47.78057" lon="-3.55331">
        <ele>40</ele>
        <time>2019-07-17T13:26:05Z</time>
      </trkpt>
      <trkpt lat="47.78061" lon="-3.5533">
        <ele>40</ele>
        <time>2019-07-17T13:26:06Z</time>
      </trkpt>
      <trkpt lat="47.78066" lon="-3.55329">
        <ele>40</ele>
        <time>2019-07-17T13:26:07Z</time>
      </trkpt>
      <trkpt lat="47.78071" lon="-3.55328">
        <ele>40</ele>
        <time>2019-07-17T13:26:08Z</time>
      </trkpt>
      <trkpt lat="47.78076" lon="-3.55327">
        <ele>40</ele>
        <time>2019-07-17T13:26:09Z</time>
      </trkpt>
      <trkpt lat="47.78081" lon="-3.55325">
        <ele>40</ele>
        <time>2019-07-17T13:26:10Z</time>
      </trkpt>
      <trkpt lat="47.78087" lon="-3.55323">
        <ele>40</ele>
        <time>2019-07-17T13:26:11Z</time>
      </trkpt>
      <trkpt lat="47.78093" lon="-3.55322">
        <ele>40</ele>
        <time>2019-07-17T13:26:12Z</time>
      </trkpt>
      <trkpt lat="47.78098" lon="-3.5532">
        <ele>40</ele>
        <time>2019-07-17T13:26:13Z</time>
      </trkpt>
      <trkpt lat="47.78104" lon="-3.55317">
        <ele>40</ele>
        <time>2019-07-17T13:26:14Z</time>
      </trkpt>
      <trkpt lat="47.7811" lon="-3.55314">
        <ele>41</ele>
        <time>2019-07-17T13:26:15Z</time>
      </trkpt>
      <trkpt lat="47.78117" lon="-3.5531">
        <ele>41</ele>
        <time>2019-07-17T13:26:16Z</time>
      </trkpt>
      <trkpt lat="47.78123" lon="-3.55307">
        <ele>41</ele>
        <time>2019-07-17T13:26:17Z</time>
      </trkpt>
      <trkpt lat="47.7813" lon="-3.55304">
        <ele>41</ele>
        <time>2019-07-17T13:26:18Z</time>
      </trkpt>
      <trkpt lat="47.78137" lon="-3.55301">
        <ele>41</ele>
        <time>2019-07-17T13:26:19Z</time>
      </trkpt>
      <trkpt lat="47.78144" lon="-3.55299">
        <ele>40</ele>
        <time>2019-07-17T13:26:20Z</time>
      </trkpt>
      <trkpt lat="47.78152" lon="-3.55298">
        <ele>40</ele>
        <time>2019-07-17T13:26:21Z</time>
      </trkpt>
      <trkpt lat="47.78159" lon="-3.55295">
        <ele>40</ele>
        <time>2019-07-17T13:26:22Z</time>
      </trkpt>
      <trkpt lat="47.78167" lon="-3.55291">
        <ele>40</ele>
        <time>2019-07-17T13:26:23Z</time>
      </trkpt>
      <trkpt lat="47.78175" lon="-3.55288">
        <ele>40</ele>
        <time>2019-07-17T13:26:24Z</time>
      </trkpt>
      <trkpt lat="47.78183" lon="-3.55284">
        <ele>40</ele>
        <time>2019-07-17T13:26:25Z</time>
      </trkpt>
      <trkpt lat="47.7819" lon="-3.55281">
        <ele>40</ele>
        <time>2019-07-17T13:26:26Z</time>
      </trkpt>
      <trkpt lat="47.78198" lon="-3.55277">
        <ele>40</ele>
        <time>2019-07-17T13:26:27Z</time>
      </trkpt>
      <trkpt lat="47.78206" lon="-3.55273">
        <ele>40</ele>
        <time>2019-07-17T13:26:28Z</time>
      </trkpt>
      <trkpt lat="47.78214" lon="-3.55269">
        <ele>39</ele>
        <time>2019-07-17T13:26:29Z</time>
      </trkpt>
      <trkpt lat="47.78222" lon="-3.55263">
        <ele>39</ele>
        <time>2019-07-17T13:26:30Z</time>
      </trkpt>
      <trkpt lat="47.78229" lon="-3.55257">
        <ele>39</ele>
        <time>2019-07-17T13:26:31Z</time>
      </trkpt>
      <trkpt lat="47.78236" lon="-3.55251">
        <ele>39</ele>
        <time>2019-07-17T13:26:32Z</time>
      </trkpt>
      <trkpt lat="47.78243" lon="-3.55243">
        <ele>38</ele>
        <time>2019-07-17T13:26:33Z</time>
      </trkpt>
      <trkpt lat="47.78251" lon="-3.55237">
        <ele>38</ele>
        <time>2019-07-17T13:26:34Z</time>
      </trkpt>
      <trkpt lat="47.78258" lon="-3.5523">
        <ele>38</ele>
        <time>2019-07-17T13:26:35Z</time>
      </trkpt>
      <trkpt lat="47.78265" lon="-3.55223">
        <ele>37</ele>
        <time>2019-07-17T13:26:36Z</time>
      </trkpt>
      <trkpt lat="47.78272" lon="-3.55215">
        <ele>37</ele>
        <time>2019-07-17T13:26:37Z</time>
      </trkpt>
      <trkpt lat="47.78279" lon="-3.55209">
        <ele>36</ele>
        <time>2019-07-17T13:26:38Z</time>
      </trkpt>
      <trkpt lat="47.78287" lon="-3.55204">
        <ele>36</ele>
        <time>2019-07-17T13:26:39Z</time>
      </trkpt>
      <trkpt lat="47.78294" lon="-3.55199">
        <ele>35</ele>
        <time>2019-07-17T13:26:40Z</time>
      </trkpt>
      <trkpt lat="47.78302" lon="-3.55194">
        <ele>35</ele>
        <time>2019-07-17T13:26:41Z</time>
      </trkpt>
      <trkpt lat="47.7831" lon="-3.55189">
        <ele>34</ele>
        <time>2019-07-17T13:26:42Z</time>
      </trkpt>
      <trkpt lat="47.78317" lon="-3.55183">
        <ele>34</ele>
        <time>2019-07-17T13:26:43Z</time>
      </trkpt>
      <trkpt lat="47.78324" lon="-3.55178">
        <ele>34</ele>
        <time>2019-07-17T13:26:44Z</time>
      </trkpt>
      <trkpt lat="47.78329" lon="-3.55172">
        <ele>33</ele>
        <time>2019-07-17T13:26:45Z</time>
      </trkpt>
      <trkpt lat="47.78334" lon="-3.55167">
        <ele>33</ele>
        <time>2019-07-17T13:26:46Z</time>
      </trkpt>
      <trkpt lat="47.78337" lon="-3.55163">
        <ele>32</ele>
        <time>2019-07-17T13:26:47Z</time>
      </trkpt>
      <trkpt lat="47.78338" lon="-3.55158">
        <ele>32</ele>
        <time>2019-07-17T13:26:48Z</time>
      </trkpt>
      <trkpt lat="47.7834" lon="-3.55154">
        <ele>31</ele>
        <time>2019-07-17T13:26:49Z</time>
      </trkpt>
      <trkpt lat="47.78342" lon="-3.5515">
        <ele>31</ele>
        <time>2019-07-17T13:26:50Z</time>
      </trkpt>
      <trkpt lat="47.78343" lon="-3.55146">
        <ele>30</ele>
        <time>2019-07-17T13:26:51Z</time>
      </trkpt>
      <trkpt lat="47.78344" lon="-3.55141">
        <ele>30</ele>
        <time>2019-07-17T13:26:52Z</time>
      </trkpt>
      <trkpt lat="47.78346" lon="-3.55138">
        <ele>30</ele>
        <time>2019-07-17T13:26:53Z</time>
      </trkpt>
      <trkpt lat="47.78347" lon="-3.55134">
        <ele>29</ele>
        <time>2019-07-17T13:26:54Z</time>
      </trkpt>
      <trkpt lat="47.78349" lon="-3.55131">
        <ele>29</ele>
        <time>2019-07-17T13:26:55Z</time>
      </trkpt>
      <trkpt lat="47.7835" lon="-3.55129">
        <ele>29</ele>
        <time>2019-07-17T13:26:56Z</time>
      </trkpt>
      <trkpt lat="47.78352" lon="-3.55126">
        <ele>28</ele>
        <time>2019-07-17T13:26:57Z</time>
      </trkpt>
      <trkpt lat="47.78355" lon="-3.55123">
        <ele>28</ele>
        <time>2019-07-17T13:26:58Z</time>
      </trkpt>
      <trkpt lat="47.78358" lon="-3.55118">
        <ele>28</ele>
        <time>2019-07-17T13:26:59Z</time>
      </trkpt>
      <trkpt lat="47.78361" lon="-3.55112">
        <ele>28</ele>
        <time>2019-07-17T13:27:00Z</time>
      </trkpt>
      <trkpt lat="47.78363" lon="-3.55107">
        <ele>27</ele>
        <time>2019-07-17T13:27:01Z</time>
      </trkpt>
      <trkpt lat="47.78365" lon="-3.55102">
        <ele>27</ele>
        <time>2019-07-17T13:27:02Z</time>
      </trkpt>
      <trkpt lat="47.78367" lon="-3.55098">
        <ele>27</ele>
        <time>2019-07-17T13:27:03Z</time>
      </trkpt>
      <trkpt lat="47.78369" lon="-3.55093">
        <ele>27</ele>
        <time>2019-07-17T13:27:04Z</time>
      </trkpt>
      <trkpt lat="47.78371" lon="-3.55088">
        <ele>27</ele>
        <time>2019-07-17T13:27:05Z</time>
      </trkpt>
      <trkpt lat="47.78373" lon="-3.55084">
        <ele>27</ele>
        <time>2019-07-17T13:27:06Z</time>
      </trkpt>
      <trkpt lat="47.78375" lon="-3.55079">
        <ele>27</ele>
        <time>2019-07-17T13:27:07Z</time>
      </trkpt>
      <trkpt lat="47.78377" lon="-3.55075">
        <ele>27</ele>
        <time>2019-07-17T13:27:08Z</time>
      </trkpt>
      <trkpt lat="47.78379" lon="-3.55072">
        <ele>27</ele>
        <time>2019-07-17T13:27:09Z</time>
      </trkpt>
      <trkpt lat="47.78382" lon="-3.55068">
        <ele>27</ele>
        <time>2019-07-17T13:27:10Z</time>
      </trkpt>
      <trkpt lat="47.78385" lon="-3.55065">
        <ele>27</ele>
        <time>2019-07-17T13:27:11Z</time>
      </trkpt>
      <trkpt lat="47.78388" lon="-3.55062">
        <ele>27</ele>
        <time>2019-07-17T13:27:12Z</time>
      </trkpt>
      <trkpt lat="47.78391" lon="-3.55058">
        <ele>27</ele>
        <time>2019-07-17T13:27:13Z</time>
      </trkpt>
      <trkpt lat="47.78394" lon="-3.55056">
        <ele>27</ele>
        <time>2019-07-17T13:27:14Z</time>
      </trkpt>
      <trkpt lat="47.78397" lon="-3.55054">
        <ele>27</ele>
        <time>2019-07-17T13:27:15Z</time>
      </trkpt>
      <trkpt lat="47.784" lon="-3.55051">
        <ele>27</ele>
        <time>2019-07-17T13:27:16Z</time>
      </trkpt>
      <trkpt lat="47.78403" lon="-3.55048">
        <ele>27</ele>
        <time>2019-07-17T13:27:17Z</time>
      </trkpt>
      <trkpt lat="47.78406" lon="-3.55045">
        <ele>27</ele>
        <time>2019-07-17T13:27:18Z</time>
      </trkpt>
      <trkpt lat="47.78408" lon="-3.55042">
        <ele>28</ele>
        <time>2019-07-17T13:27:19Z</time>
      </trkpt>
      <trkpt lat="47.78409" lon="-3.5504">
        <ele>28</ele>
        <time>2019-07-17T13:27:20Z</time>
      </trkpt>
      <trkpt lat="47.78411" lon="-3.55036">
        <ele>28</ele>
        <time>2019-07-17T13:27:21Z</time>
      </trkpt>
      <trkpt lat="47.78414" lon="-3.55032">
        <ele>28</ele>
        <time>2019-07-17T13:27:22Z</time>
      </trkpt>
      <trkpt lat="47.78416" lon="-3.55029">
        <ele>28</ele>
        <time>2019-07-17T13:27:23Z</time>
      </trkpt>
      <trkpt lat="47.78419" lon="-3.55025">
        <ele>29</ele>
        <time>2019-07-17T13:27:24Z</time>
      </trkpt>
      <trkpt lat="47.7842" lon="-3.55022">
        <ele>29</ele>
        <time>2019-07-17T13:27:25Z</time>
      </trkpt>
      <trkpt lat="47.78421" lon="-3.55018">
        <ele>29</ele>
        <time>2019-07-17T13:27:26Z</time>
      </trkpt>
      <trkpt lat="47.78421" lon="-3.55015">
        <ele>29</ele>
        <time>2019-07-17T13:27:27Z</time>
      </trkpt>
      <trkpt lat="47.78421" lon="-3.55011">
        <ele>29</ele>
        <time>2019-07-17T13:27:28Z</time>
      </trkpt>
      <trkpt lat="47.78421" lon="-3.55007">
        <ele>29</ele>
        <time>2019-07-17T13:27:29Z</time>
      </trkpt>
      <trkpt lat="47.78421" lon="-3.55002">
        <ele>30</ele>
        <time>2019-07-17T13:27:30Z</time>
      </trkpt>
      <trkpt lat="47.78421" lon="-3.54997">
        <ele>30</ele>
        <time>2019-07-17T13:27:31Z</time>
      </trkpt>
      <trkpt lat="47.78421" lon="-3.54992">
        <ele>30</ele>
        <time>2019-07-17T13:27:32Z</time>
      </trkpt>
      <trkpt lat="47.78421" lon="-3.54988">
        <ele>30</ele>
        <time>2019-07-17T13:27:33Z</time>
      </trkpt>
      <trkpt lat="47.78421" lon="-3.54984">
        <ele>30</ele>
        <time>2019-07-17T13:27:34Z</time>
      </trkpt>
      <trkpt lat="47.78422" lon="-3.5498">
        <ele>30</ele>
        <time>2019-07-17T13:27:35Z</time>
      </trkpt>
      <trkpt lat="47.78423" lon="-3.54976">
        <ele>30</ele>
        <time>2019-07-17T13:27:36Z</time>
      </trkpt>
      <trkpt lat="47.78425" lon="-3.54971">
        <ele>30</ele>
        <time>2019-07-17T13:27:37Z</time>
      </trkpt>
      <trkpt lat="47.78427" lon="-3.54966">
        <ele>30</ele>
        <time>2019-07-17T13:27:38Z</time>
      </trkpt>
      <trkpt lat="47.78428" lon="-3.5496">
        <ele>30</ele>
        <time>2019-07-17T13:27:39Z</time>
      </trkpt>
      <trkpt lat="47.7843" lon="-3.54955">
        <ele>30</ele>
        <time>2019-07-17T13:27:40Z</time>
      </trkpt>
      <trkpt lat="47.78432" lon="-3.5495">
        <ele>30</ele>
        <time>2019-07-17T13:27:41Z</time>
      </trkpt>
      <trkpt lat="47.78434" lon="-3.54945">
        <ele>30</ele>
        <time>2019-07-17T13:27:42Z</time>
      </trkpt>
      <trkpt lat="47.78436" lon="-3.5494">
        <ele>30</ele>
        <time>2019-07-17T13:27:43Z</time>
      </trkpt>
      <trkpt lat="47.78438" lon="-3.54934">
        <ele>30</ele>
        <time>2019-07-17T13:27:44Z</time>
      </trkpt>
      <trkpt lat="47.78439" lon="-3.5493">
        <ele>30</ele>
        <time>2019-07-17T13:27:45Z</time>
      </trkpt>
      <trkpt lat="47.78439" lon="-3.54924">
        <ele>31</ele>
        <time>2019-07-17T13:27:46Z</time>
      </trkpt>
      <trkpt lat="47.78439" lon="-3.54919">
        <ele>31</ele>
        <time>2019-07-17T13:27:47Z</time>
      </trkpt>
      <trkpt lat="47.7844" lon="-3.54913">
        <ele>31</ele>
        <time>2019-07-17T13:27:48Z</time>
      </trkpt>
      <trkpt lat="47.78442" lon="-3.54907">
        <ele>31</ele>
        <time>2019-07-17T13:27:49Z</time>
      </trkpt>
      <trkpt lat="47.78445" lon="-3.54901">
        <ele>31</ele>
        <time>2019-07-17T13:27:50Z</time>
      </trkpt>
      <trkpt lat="47.78446" lon="-3.54896">
        <ele>31</ele>
        <time>2019-07-17T13:27:51Z</time>
      </trkpt>
      <trkpt lat="47.78447" lon="-3.54891">
        <ele>31</ele>
        <time>2019-07-17T13:27:52Z</time>
      </trkpt>
      <trkpt lat="47.78448" lon="-3.54885">
        <ele>31</ele>
        <time>2019-07-17T13:27:53Z</time>
      </trkpt>
      <trkpt lat="47.78448" lon="-3.54878">
        <ele>31</ele>
        <time>2019-07-17T13:27:54Z</time>
      </trkpt>
      <trkpt lat="47.78449" lon="-3.54872">
        <ele>31</ele>
        <time>2019-07-17T13:27:55Z</time>
      </trkpt>
      <trkpt lat="47.78451" lon="-3.54867">
        <ele>31</ele>
        <time>2019-07-17T13:27:56Z</time>
      </trkpt>
      <trkpt lat="47.78452" lon="-3.54861">
        <ele>31</ele>
        <time>2019-07-17T13:27:57Z</time>
      </trkpt>
      <trkpt lat="47.78455" lon="-3.54855">
        <ele>31</ele>
        <time>2019-07-17T13:27:58Z</time>
      </trkpt>
      <trkpt lat="47.78456" lon="-3.54848">
        <ele>31</ele>
        <time>2019-07-17T13:27:59Z</time>
      </trkpt>
      <trkpt lat="47.78458" lon="-3.54841">
        <ele>31</ele>
        <time>2019-07-17T13:28:00Z</time>
      </trkpt>
      <trkpt lat="47.78461" lon="-3.54834">
        <ele>31</ele>
        <time>2019-07-17T13:28:01Z</time>
      </trkpt>
      <trkpt lat="47.78463" lon="-3.54827">
        <ele>31</ele>
        <time>2019-07-17T13:28:02Z</time>
      </trkpt>
      <trkpt lat="47.78464" lon="-3.5482">
        <ele>30</ele>
        <time>2019-07-17T13:28:03Z</time>
      </trkpt>
      <trkpt lat="47.78466" lon="-3.54813">
        <ele>30</ele>
        <time>2019-07-17T13:28:04Z</time>
      </trkpt>
      <trkpt lat="47.78468" lon="-3.54806">
        <ele>30</ele>
        <time>2019-07-17T13:28:05Z</time>
      </trkpt>
      <trkpt lat="47.7847" lon="-3.548">
        <ele>30</ele>
        <time>2019-07-17T13:28:06Z</time>
      </trkpt>
      <trkpt lat="47.78472" lon="-3.54794">
        <ele>30</ele>
        <time>2019-07-17T13:28:07Z</time>
      </trkpt>
      <trkpt lat="47.78474" lon="-3.54788">
        <ele>30</ele>
        <time>2019-07-17T13:28:08Z</time>
      </trkpt>
      <trkpt lat="47.78476" lon="-3.54783">
        <ele>30</ele>
        <time>2019-07-17T13:28:09Z</time>
      </trkpt>
      <trkpt lat="47.78478" lon="-3.54778">
        <ele>30</ele>
        <time>2019-07-17T13:28:10Z</time>
      </trkpt>
      <trkpt lat="47.7848" lon="-3.54773">
        <ele>30</ele>
        <time>2019-07-17T13:28:11Z</time>
      </trkpt>
      <trkpt lat="47.78483" lon="-3.54768">
        <ele>31</ele>
        <time>2019-07-17T13:28:12Z</time>
      </trkpt>
      <trkpt lat="47.78485" lon="-3.54762">
        <ele>31</ele>
        <time>2019-07-17T13:28:13Z</time>
      </trkpt>
      <trkpt lat="47.78486" lon="-3.54756">
        <ele>31</ele>
        <time>2019-07-17T13:28:14Z</time>
      </trkpt>
      <trkpt lat="47.78488" lon="-3.5475">
        <ele>31</ele>
        <time>2019-07-17T13:28:15Z</time>
      </trkpt>
      <trkpt lat="47.78489" lon="-3.54744">
        <ele>31</ele>
        <time>2019-07-17T13:28:16Z</time>
      </trkpt>
      <trkpt lat="47.78491" lon="-3.54738">
        <ele>31</ele>
        <time>2019-07-17T13:28:17Z</time>
      </trkpt>
      <trkpt lat="47.78492" lon="-3.54731">
        <ele>31</ele>
        <time>2019-07-17T13:28:18Z</time>
      </trkpt>
      <trkpt lat="47.78494" lon="-3.54725">
        <ele>31</ele>
        <time>2019-07-17T13:28:19Z</time>
      </trkpt>
      <trkpt lat="47.78496" lon="-3.54718">
        <ele>31</ele>
        <time>2019-07-17T13:28:20Z</time>
      </trkpt>
      <trkpt lat="47.78497" lon="-3.54711">
        <ele>31</ele>
        <time>2019-07-17T13:28:21Z</time>
      </trkpt>
      <trkpt lat="47.78499" lon="-3.54704">
        <ele>31</ele>
        <time>2019-07-17T13:28:22Z</time>
      </trkpt>
      <trkpt lat="47.78501" lon="-3.54698">
        <ele>31</ele>
        <time>2019-07-17T13:28:23Z</time>
      </trkpt>
      <trkpt lat="47.78503" lon="-3.54691">
        <ele>31</ele>
        <time>2019-07-17T13:28:24Z</time>
      </trkpt>
      <trkpt lat="47.78504" lon="-3.54683">
        <ele>31</ele>
        <time>2019-07-17T13:28:25Z</time>
      </trkpt>
      <trkpt lat="47.78503" lon="-3.54676">
        <ele>31</ele>
        <time>2019-07-17T13:28:26Z</time>
      </trkpt>
      <trkpt lat="47.785" lon="-3.5467">
        <ele>31</ele>
        <time>2019-07-17T13:28:27Z</time>
      </trkpt>
      <trkpt lat="47.78497" lon="-3.54664">
        <ele>31</ele>
        <time>2019-07-17T13:28:28Z</time>
      </trkpt>
      <trkpt lat="47.78494" lon="-3.54661">
        <ele>32</ele>
        <time>2019-07-17T13:28:29Z</time>
      </trkpt>
      <trkpt lat="47.78491" lon="-3.54658">
        <ele>32</ele>
        <time>2019-07-17T13:28:30Z</time>
      </trkpt>
      <trkpt lat="47.78488" lon="-3.54655">
        <ele>32</ele>
        <time>2019-07-17T13:28:31Z</time>
      </trkpt>
      <trkpt lat="47.78484" lon="-3.54652">
        <ele>32</ele>
        <time>2019-07-17T13:28:32Z</time>
      </trkpt>
      <trkpt lat="47.7848" lon="-3.5465">
        <ele>32</ele>
        <time>2019-07-17T13:28:33Z</time>
      </trkpt>
      <trkpt lat="47.78476" lon="-3.54647">
        <ele>32</ele>
        <time>2019-07-17T13:28:34Z</time>
      </trkpt>
      <trkpt lat="47.78472" lon="-3.54645">
        <ele>32</ele>
        <time>2019-07-17T13:28:35Z</time>
      </trkpt>
      <trkpt lat="47.78468" lon="-3.54642">
        <ele>32</ele>
        <time>2019-07-17T13:28:36Z</time>
      </trkpt>
      <trkpt lat="47.78463" lon="-3.5464">
        <ele>32</ele>
        <time>2019-07-17T13:28:37Z</time>
      </trkpt>
      <trkpt lat="47.78459" lon="-3.54638">
        <ele>32</ele>
        <time>2019-07-17T13:28:38Z</time>
      </trkpt>
      <trkpt lat="47.78455" lon="-3.54635">
        <ele>32</ele>
        <time>2019-07-17T13:28:39Z</time>
      </trkpt>
      <trkpt lat="47.78451" lon="-3.54633">
        <ele>33</ele>
        <time>2019-07-17T13:28:40Z</time>
      </trkpt>
      <trkpt lat="47.78446" lon="-3.54632">
        <ele>33</ele>
        <time>2019-07-17T13:28:41Z</time>
      </trkpt>
      <trkpt lat="47.78442" lon="-3.5463">
        <ele>33</ele>
        <time>2019-07-17T13:28:42Z</time>
      </trkpt>
      <trkpt lat="47.78437" lon="-3.54628">
        <ele>33</ele>
        <time>2019-07-17T13:28:43Z</time>
      </trkpt>
      <trkpt lat="47.78433" lon="-3.54627">
        <ele>33</ele>
        <time>2019-07-17T13:28:44Z</time>
      </trkpt>
      <trkpt lat="47.78428" lon="-3.54625">
        <ele>33</ele>
        <time>2019-07-17T13:28:45Z</time>
      </trkpt>
      <trkpt lat="47.78423" lon="-3.54624">
        <ele>33</ele>
        <time>2019-07-17T13:28:46Z</time>
      </trkpt>
      <trkpt lat="47.78419" lon="-3.54623">
        <ele>33</ele>
        <time>2019-07-17T13:28:47Z</time>
      </trkpt>
      <trkpt lat="47.78414" lon="-3.54622">
        <ele>33</ele>
        <time>2019-07-17T13:28:48Z</time>
      </trkpt>
      <trkpt lat="47.7841" lon="-3.5462">
        <ele>33</ele>
        <time>2019-07-17T13:28:49Z</time>
      </trkpt>
      <trkpt lat="47.78406" lon="-3.54618">
        <ele>34</ele>
        <time>2019-07-17T13:28:50Z</time>
      </trkpt>
      <trkpt lat="47.78402" lon="-3.54613">
        <ele>34</ele>
        <time>2019-07-17T13:28:51Z</time>
      </trkpt>
      <trkpt lat="47.78399" lon="-3.54609">
        <ele>34</ele>
        <time>2019-07-17T13:28:52Z</time>
      </trkpt>
      <trkpt lat="47.78398" lon="-3.54603">
        <ele>34</ele>
        <time>2019-07-17T13:28:53Z</time>
      </trkpt>
      <trkpt lat="47.78396" lon="-3.54597">
        <ele>34</ele>
        <time>2019-07-17T13:28:54Z</time>
      </trkpt>
      <trkpt lat="47.78396" lon="-3.5459">
        <ele>34</ele>
        <time>2019-07-17T13:28:55Z</time>
      </trkpt>
      <trkpt lat="47.78395" lon="-3.54583">
        <ele>34</ele>
        <time>2019-07-17T13:28:56Z</time>
      </trkpt>
      <trkpt lat="47.78394" lon="-3.54576">
        <ele>34</ele>
        <time>2019-07-17T13:28:57Z</time>
      </trkpt>
      <trkpt lat="47.78394" lon="-3.5457">
        <ele>34</ele>
        <time>2019-07-17T13:28:58Z</time>
      </trkpt>
      <trkpt lat="47.78394" lon="-3.54563">
        <ele>34</ele>
        <time>2019-07-17T13:28:59Z</time>
      </trkpt>
      <trkpt lat="47.78393" lon="-3.54556">
        <ele>34</ele>
        <time>2019-07-17T13:29:00Z</time>
      </trkpt>
      <trkpt lat="47.78393" lon="-3.54549">
        <ele>34</ele>
        <time>2019-07-17T13:29:01Z</time>
      </trkpt>
      <trkpt lat="47.78393" lon="-3.54543">
        <ele>34</ele>
        <time>2019-07-17T13:29:02Z</time>
      </trkpt>
      <trkpt lat="47.78393" lon="-3.54536">
        <ele>34</ele>
        <time>2019-07-17T13:29:03Z</time>
      </trkpt>
      <trkpt lat="47.78393" lon="-3.5453">
        <ele>34</ele>
        <time>2019-07-17T13:29:04Z</time>
      </trkpt>
      <trkpt lat="47.78392" lon="-3.54523">
        <ele>34</ele>
        <time>2019-07-17T13:29:05Z</time>
      </trkpt>
      <trkpt lat="47.78392" lon="-3.54516">
        <ele>34</ele>
        <time>2019-07-17T13:29:06Z</time>
      </trkpt>
      <trkpt lat="47.78392" lon="-3.54509">
        <ele>34</ele>
        <time>2019-07-17T13:29:07Z</time>
      </trkpt>
      <trkpt lat="47.78392" lon="-3.54503">
        <ele>34</ele>
        <time>2019-07-17T13:29:08Z</time>
      </trkpt>
      <trkpt lat="47.78392" lon="-3.54497">
        <ele>34</ele>
        <time>2019-07-17T13:29:09Z</time>
      </trkpt>
      <trkpt lat="47.78392" lon="-3.54491">
        <ele>34</ele>
        <time>2019-07-17T13:29:10Z</time>
      </trkpt>
      <trkpt lat="47.78392" lon="-3.54485">
        <ele>34</ele>
        <time>2019-07-17T13:29:11Z</time>
      </trkpt>
      <trkpt lat="47.78392" lon="-3.5448">
        <ele>34</ele>
        <time>2019-07-17T13:29:12Z</time>
      </trkpt>
      <trkpt lat="47.78392" lon="-3.54474">
        <ele>34</ele>
        <time>2019-07-17T13:29:13Z</time>
      </trkpt>
      <trkpt lat="47.78392" lon="-3.54467">
        <ele>34</ele>
        <time>2019-07-17T13:29:14Z</time>
      </trkpt>
      <trkpt lat="47.78392" lon="-3.54461">
        <ele>34</ele>
        <time>2019-07-17T13:29:15Z</time>
      </trkpt>
      <trkpt lat="47.78393" lon="-3.54454">
        <ele>34</ele>
        <time>2019-07-17T13:29:16Z</time>
      </trkpt>
      <trkpt lat="47.78393" lon="-3.54448">
        <ele>34</ele>
        <time>2019-07-17T13:29:17Z</time>
      </trkpt>
      <trkpt lat="47.78393" lon="-3.54441">
        <ele>34</ele>
        <time>2019-07-17T13:29:18Z</time>
      </trkpt>
      <trkpt lat="47.78393" lon="-3.54433">
        <ele>34</ele>
        <time>2019-07-17T13:29:19Z</time>
      </trkpt>
      <trkpt lat="47.78393" lon="-3.54426">
        <ele>34</ele>
        <time>2019-07-17T13:29:20Z</time>
      </trkpt>
      <trkpt lat="47.78393" lon="-3.54418">
        <ele>34</ele>
        <time>2019-07-17T13:29:21Z</time>
      </trkpt>
      <trkpt lat="47.78393" lon="-3.54411">
        <ele>34</ele>
        <time>2019-07-17T13:29:22Z</time>
      </trkpt>
      <trkpt lat="47.78394" lon="-3.54403">
        <ele>34</ele>
        <time>2019-07-17T13:29:23Z</time>
      </trkpt>
      <trkpt lat="47.78395" lon="-3.54395">
        <ele>34</ele>
        <time>2019-07-17T13:29:24Z</time>
      </trkpt>
      <trkpt lat="47.78395" lon="-3.54387">
        <ele>34</ele>
        <time>2019-07-17T13:29:25Z</time>
      </trkpt>
      <trkpt lat="47.78396" lon="-3.54378">
        <ele>34</ele>
        <time>2019-07-17T13:29:26Z</time>
      </trkpt>
      <trkpt lat="47.78396" lon="-3.5437">
        <ele>34</ele>
        <time>2019-07-17T13:29:27Z</time>
      </trkpt>
      <trkpt lat="47.78397" lon="-3.54362">
        <ele>34</ele>
        <time>2019-07-17T13:29:28Z</time>
      </trkpt>
      <trkpt lat="47.78399" lon="-3.54354">
        <ele>35</ele>
        <time>2019-07-17T13:29:29Z</time>
      </trkpt>
      <trkpt lat="47.78401" lon="-3.54346">
        <ele>35</ele>
        <time>2019-07-17T13:29:30Z</time>
      </trkpt>
      <trkpt lat="47.78403" lon="-3.54339">
        <ele>35</ele>
        <time>2019-07-17T13:29:31Z</time>
      </trkpt>
      <trkpt lat="47.78406" lon="-3.54331">
        <ele>35</ele>
        <time>2019-07-17T13:29:32Z</time>
      </trkpt>
      <trkpt lat="47.78409" lon="-3.54325">
        <ele>35</ele>
        <time>2019-07-17T13:29:33Z</time>
      </trkpt>
      <trkpt lat="47.78412" lon="-3.54318">
        <ele>35</ele>
        <time>2019-07-17T13:29:34Z</time>
      </trkpt>
      <trkpt lat="47.78416" lon="-3.54312">
        <ele>35</ele>
        <time>2019-07-17T13:29:35Z</time>
      </trkpt>
      <trkpt lat="47.7842" lon="-3.54305">
        <ele>35</ele>
        <time>2019-07-17T13:29:36Z</time>
      </trkpt>
      <trkpt lat="47.78424" lon="-3.54298">
        <ele>35</ele>
        <time>2019-07-17T13:29:37Z</time>
      </trkpt>
      <trkpt lat="47.78428" lon="-3.54291">
        <ele>35</ele>
        <time>2019-07-17T13:29:38Z</time>
      </trkpt>
      <trkpt lat="47.78432" lon="-3.54283">
        <ele>35</ele>
        <time>2019-07-17T13:29:39Z</time>
      </trkpt>
      <trkpt lat="47.78436" lon="-3.54276">
        <ele>35</ele>
        <time>2019-07-17T13:29:40Z</time>
      </trkpt>
      <trkpt lat="47.7844" lon="-3.54268">
        <ele>35</ele>
        <time>2019-07-17T13:29:41Z</time>
      </trkpt>
      <trkpt lat="47.78444" lon="-3.54259">
        <ele>35</ele>
        <time>2019-07-17T13:29:42Z</time>
      </trkpt>
      <trkpt lat="47.78449" lon="-3.54251">
        <ele>34</ele>
        <time>2019-07-17T13:29:43Z</time>
      </trkpt>
      <trkpt lat="47.78453" lon="-3.54242">
        <ele>34</ele>
        <time>2019-07-17T13:29:44Z</time>
      </trkpt>
      <trkpt lat="47.78458" lon="-3.54234">
        <ele>34</ele>
        <time>2019-07-17T13:29:45Z</time>
      </trkpt>
      <trkpt lat="47.78463" lon="-3.54224">
        <ele>34</ele>
        <time>2019-07-17T13:29:46Z</time>
      </trkpt>
      <trkpt lat="47.78468" lon="-3.54215">
        <ele>33</ele>
        <time>2019-07-17T13:29:47Z</time>
      </trkpt>
      <trkpt lat="47.78472" lon="-3.54205">
        <ele>33</ele>
        <time>2019-07-17T13:29:48Z</time>
      </trkpt>
      <trkpt lat="47.78478" lon="-3.54195">
        <ele>33</ele>
        <time>2019-07-17T13:29:49Z</time>
      </trkpt>
      <trkpt lat="47.78483" lon="-3.54185">
        <ele>32</ele>
        <time>2019-07-17T13:29:50Z</time>
      </trkpt>
      <trkpt lat="47.78489" lon="-3.54174">
        <ele>32</ele>
        <time>2019-07-17T13:29:51Z</time>
      </trkpt>
      <trkpt lat="47.78495" lon="-3.54164">
        <ele>31</ele>
        <time>2019-07-17T13:29:52Z</time>
      </trkpt>
      <trkpt lat="47.78501" lon="-3.54153">
        <ele>31</ele>
        <time>2019-07-17T13:29:53Z</time>
      </trkpt>
      <trkpt lat="47.78508" lon="-3.54143">
        <ele>31</ele>
        <time>2019-07-17T13:29:54Z</time>
      </trkpt>
      <trkpt lat="47.78515" lon="-3.54134">
        <ele>30</ele>
        <time>2019-07-17T13:29:55Z</time>
      </trkpt>
      <trkpt lat="47.78523" lon="-3.54125">
        <ele>30</ele>
        <time>2019-07-17T13:29:56Z</time>
      </trkpt>
      <trkpt lat="47.78531" lon="-3.54116">
        <ele>30</ele>
        <time>2019-07-17T13:29:57Z</time>
      </trkpt>
      <trkpt lat="47.78539" lon="-3.54107">
        <ele>30</ele>
        <time>2019-07-17T13:29:58Z</time>
      </trkpt>
      <trkpt lat="47.78547" lon="-3.54099">
        <ele>29</ele>
        <time>2019-07-17T13:29:59Z</time>
      </trkpt>
      <trkpt lat="47.78554" lon="-3.5409">
        <ele>29</ele>
        <time>2019-07-17T13:30:00Z</time>
      </trkpt>
      <trkpt lat="47.78562" lon="-3.54082">
        <ele>29</ele>
        <time>2019-07-17T13:30:01Z</time>
      </trkpt>
      <trkpt lat="47.7857" lon="-3.54074">
        <ele>29</ele>
        <time>2019-07-17T13:30:02Z</time>
      </trkpt>
      <trkpt lat="47.78577" lon="-3.54065">
        <ele>29</ele>
        <time>2019-07-17T13:30:03Z</time>
      </trkpt>
      <trkpt lat="47.78584" lon="-3.54057">
        <ele>29</ele>
        <time>2019-07-17T13:30:04Z</time>
      </trkpt>
      <trkpt lat="47.78592" lon="-3.5405">
        <ele>29</ele>
        <time>2019-07-17T13:30:05Z</time>
      </trkpt>
      <trkpt lat="47.78599" lon="-3.54044">
        <ele>29</ele>
        <time>2019-07-17T13:30:06Z</time>
      </trkpt>
      <trkpt lat="47.78606" lon="-3.54037">
        <ele>29</ele>
        <time>2019-07-17T13:30:07Z</time>
      </trkpt>
      <trkpt lat="47.78612" lon="-3.54028">
        <ele>29</ele>
        <time>2019-07-17T13:30:08Z</time>
      </trkpt>
      <trkpt lat="47.78617" lon="-3.54019">
        <ele>29</ele>
        <time>2019-07-17T13:30:09Z</time>
      </trkpt>
      <trkpt lat="47.7862" lon="-3.54008">
        <ele>29</ele>
        <time>2019-07-17T13:30:10Z</time>
      </trkpt>
      <trkpt lat="47.78621" lon="-3.53998">
        <ele>29</ele>
        <time>2019-07-17T13:30:11Z</time>
      </trkpt>
      <trkpt lat="47.78622" lon="-3.53988">
        <ele>29</ele>
        <time>2019-07-17T13:30:12Z</time>
      </trkpt>
      <trkpt lat="47.78622" lon="-3.53978">
        <ele>29</ele>
        <time>2019-07-17T13:30:13Z</time>
      </trkpt>
      <trkpt lat="47.78623" lon="-3.53969">
        <ele>29</ele>
        <time>2019-07-17T13:30:14Z</time>
      </trkpt>
      <trkpt lat="47.78623" lon="-3.53961">
        <ele>29</ele>
        <time>2019-07-17T13:30:15Z</time>
      </trkpt>
      <trkpt lat="47.78624" lon="-3.53952">
        <ele>29</ele>
        <time>2019-07-17T13:30:16Z</time>
      </trkpt>
      <trkpt lat="47.78625" lon="-3.53944">
        <ele>29</ele>
        <time>2019-07-17T13:30:17Z</time>
      </trkpt>
      <trkpt lat="47.78625" lon="-3.53936">
        <ele>29</ele>
        <time>2019-07-17T13:30:18Z</time>
      </trkpt>
      <trkpt lat="47.78626" lon="-3.53927">
        <ele>29</ele>
        <time>2019-07-17T13:30:19Z</time>
      </trkpt>
      <trkpt lat="47.78627" lon="-3.53919">
        <ele>30</ele>
        <time>2019-07-17T13:30:20Z</time>
      </trkpt>
      <trkpt lat="47.78628" lon="-3.53911">
        <ele>30</ele>
        <time>2019-07-17T13:30:21Z</time>
      </trkpt>
      <trkpt lat="47.78628" lon="-3.53903">
        <ele>30</ele>
        <time>2019-07-17T13:30:22Z</time>
      </trkpt>
      <trkpt lat="47.78629" lon="-3.53894">
        <ele>30</ele>
        <time>2019-07-17T13:30:23Z</time>
      </trkpt>
      <trkpt lat="47.78629" lon="-3.53886">
        <ele>30</ele>
        <time>2019-07-17T13:30:24Z</time>
      </trkpt>
      <trkpt lat="47.7863" lon="-3.53878">
        <ele>30</ele>
        <time>2019-07-17T13:30:25Z</time>
      </trkpt>
      <trkpt lat="47.78631" lon="-3.5387">
        <ele>30</ele>
        <time>2019-07-17T13:30:26Z</time>
      </trkpt>
      <trkpt lat="47.78632" lon="-3.53862">
        <ele>30</ele>
        <time>2019-07-17T13:30:27Z</time>
      </trkpt>
      <trkpt lat="47.78633" lon="-3.53854">
        <ele>31</ele>
        <time>2019-07-17T13:30:28Z</time>
      </trkpt>
      <trkpt lat="47.78634" lon="-3.53847">
        <ele>31</ele>
        <time>2019-07-17T13:30:29Z</time>
      </trkpt>
      <trkpt lat="47.78635" lon="-3.53839">
        <ele>31</ele>
        <time>2019-07-17T13:30:30Z</time>
      </trkpt>
      <trkpt lat="47.78636" lon="-3.53831">
        <ele>31</ele>
        <time>2019-07-17T13:30:31Z</time>
      </trkpt>
      <trkpt lat="47.78638" lon="-3.53824">
        <ele>32</ele>
        <time>2019-07-17T13:30:32Z</time>
      </trkpt>
      <trkpt lat="47.78639" lon="-3.53816">
        <ele>32</ele>
        <time>2019-07-17T13:30:33Z</time>
      </trkpt>
      <trkpt lat="47.78641" lon="-3.53809">
        <ele>32</ele>
        <time>2019-07-17T13:30:34Z</time>
      </trkpt>
      <trkpt lat="47.78642" lon="-3.53802">
        <ele>32</ele>
        <time>2019-07-17T13:30:35Z</time>
      </trkpt>
      <trkpt lat="47.78643" lon="-3.53796">
        <ele>33</ele>
        <time>2019-07-17T13:30:36Z</time>
      </trkpt>
      <trkpt lat="47.78643" lon="-3.5379">
        <ele>33</ele>
        <time>2019-07-17T13:30:37Z</time>
      </trkpt>
      <trkpt lat="47.78644" lon="-3.53784">
        <ele>33</ele>
        <time>2019-07-17T13:30:38Z</time>
      </trkpt>
      <trkpt lat="47.78644" lon="-3.53778">
        <ele>33</ele>
        <time>2019-07-17T13:30:39Z</time>
      </trkpt>
      <trkpt lat="47.78645" lon="-3.53771">
        <ele>33</ele>
        <time>2019-07-17T13:30:40Z</time>
      </trkpt>
      <trkpt lat="47.78645" lon="-3.53765">
        <ele>33</ele>
        <time>2019-07-17T13:30:41Z</time>
      </trkpt>
      <trkpt lat="47.78646" lon="-3.53758">
        <ele>33</ele>
        <time>2019-07-17T13:30:42Z</time>
      </trkpt>
      <trkpt lat="47.78646" lon="-3.53751">
        <ele>34</ele>
        <time>2019-07-17T13:30:43Z</time>
      </trkpt>
      <trkpt lat="47.78647" lon="-3.53743">
        <ele>34</ele>
        <time>2019-07-17T13:30:44Z</time>
      </trkpt>
      <trkpt lat="47.78647" lon="-3.53736">
        <ele>34</ele>
        <time>2019-07-17T13:30:45Z</time>
      </trkpt>
      <trkpt lat="47.78648" lon="-3.53729">
        <ele>34</ele>
        <time>2019-07-17T13:30:46Z</time>
      </trkpt>
      <trkpt lat="47.78649" lon="-3.53722">
        <ele>34</ele>
        <time>2019-07-17T13:30:47Z</time>
      </trkpt>
      <trkpt lat="47.78649" lon="-3.53714">
        <ele>34</ele>
        <time>2019-07-17T13:30:48Z</time>
      </trkpt>
      <trkpt lat="47.7865" lon="-3.53707">
        <ele>35</ele>
        <time>2019-07-17T13:30:49Z</time>
      </trkpt>
      <trkpt lat="47.78651" lon="-3.537">
        <ele>35</ele>
        <time>2019-07-17T13:30:50Z</time>
      </trkpt>
      <trkpt lat="47.78651" lon="-3.53693">
        <ele>35</ele>
        <time>2019-07-17T13:30:51Z</time>
      </trkpt>
      <trkpt lat="47.78651" lon="-3.53686">
        <ele>35</ele>
        <time>2019-07-17T13:30:52Z</time>
      </trkpt>
      <trkpt lat="47.78651" lon="-3.5368">
        <ele>35</ele>
        <time>2019-07-17T13:30:53Z</time>
      </trkpt>
      <trkpt lat="47.78652" lon="-3.53675">
        <ele>35</ele>
        <time>2019-07-17T13:30:54Z</time>
      </trkpt>
      <trkpt lat="47.78651" lon="-3.5367">
        <ele>35</ele>
        <time>2019-07-17T13:30:55Z</time>
      </trkpt>
      <trkpt lat="47.78651" lon="-3.53665">
        <ele>35</ele>
        <time>2019-07-17T13:30:56Z</time>
      </trkpt>
      <trkpt lat="47.78651" lon="-3.5366">
        <ele>35</ele>
        <time>2019-07-17T13:30:57Z</time>
      </trkpt>
      <trkpt lat="47.78652" lon="-3.53654">
        <ele>35</ele>
        <time>2019-07-17T13:30:58Z</time>
      </trkpt>
      <trkpt lat="47.78652" lon="-3.53649">
        <ele>35</ele>
        <time>2019-07-17T13:30:59Z</time>
      </trkpt>
      <trkpt lat="47.78653" lon="-3.53644">
        <ele>35</ele>
        <time>2019-07-17T13:31:00Z</time>
      </trkpt>
      <trkpt lat="47.78653" lon="-3.53638">
        <ele>35</ele>
        <time>2019-07-17T13:31:01Z</time>
      </trkpt>
      <trkpt lat="47.78655" lon="-3.53632">
        <ele>36</ele>
        <time>2019-07-17T13:31:02Z</time>
      </trkpt>
      <trkpt lat="47.78656" lon="-3.53627">
        <ele>36</ele>
        <time>2019-07-17T13:31:03Z</time>
      </trkpt>
      <trkpt lat="47.78658" lon="-3.53621">
        <ele>36</ele>
        <time>2019-07-17T13:31:04Z</time>
      </trkpt>
      <trkpt lat="47.7866" lon="-3.53618">
        <ele>36</ele>
        <time>2019-07-17T13:31:05Z</time>
      </trkpt>
      <trkpt lat="47.78663" lon="-3.53617">
        <ele>36</ele>
        <time>2019-07-17T13:31:06Z</time>
      </trkpt>
      <trkpt lat="47.78665" lon="-3.53615">
        <ele>36</ele>
        <time>2019-07-17T13:31:07Z</time>
      </trkpt>
      <trkpt lat="47.78666" lon="-3.53615">
        <ele>36</ele>
        <time>2019-07-17T13:31:08Z</time>
      </trkpt>
      <trkpt lat="47.78667" lon="-3.53614">
        <ele>36</ele>
        <time>2019-07-17T13:31:09Z</time>
      </trkpt>
      <trkpt lat="47.78667" lon="-3.53614">
        <ele>36</ele>
        <time>2019-07-17T13:31:10Z</time>
      </trkpt>
      <trkpt lat="47.78666" lon="-3.53617">
        <ele>36</ele>
        <time>2019-07-17T13:31:11Z</time>
      </trkpt>
      <trkpt lat="47.78664" lon="-3.53618">
        <ele>36</ele>
        <time>2019-07-17T13:31:12Z</time>
      </trkpt>
      <trkpt lat="47.78662" lon="-3.53619">
        <ele>36</ele>
        <time>2019-07-17T13:31:13Z</time>
      </trkpt>
      <trkpt lat="47.78659" lon="-3.53622">
        <ele>36</ele>
        <time>2019-07-17T13:31:14Z</time>
      </trkpt>
      <trkpt lat="47.78658" lon="-3.53626">
        <ele>36</ele>
        <time>2019-07-17T13:31:15Z</time>
      </trkpt>
      <trkpt lat="47.78656" lon="-3.5363">
        <ele>36</ele>
        <time>2019-07-17T13:31:16Z</time>
      </trkpt>
      <trkpt lat="47.78655" lon="-3.53635">
        <ele>36</ele>
        <time>2019-07-17T13:31:17Z</time>
      </trkpt>
      <trkpt lat="47.78655" lon="-3.5364">
        <ele>36</ele>
        <time>2019-07-17T13:31:18Z</time>
      </trkpt>
      <trkpt lat="47.78654" lon="-3.53645">
        <ele>36</ele>
        <time>2019-07-17T13:31:19Z</time>
      </trkpt>
      <trkpt lat="47.78654" lon="-3.5365">
        <ele>36</ele>
        <time>2019-07-17T13:31:20Z</time>
      </trkpt>
      <trkpt lat="47.78654" lon="-3.53657">
        <ele>36</ele>
        <time>2019-07-17T13:31:21Z</time>
      </trkpt>
      <trkpt lat="47.78653" lon="-3.53663">
        <ele>36</ele>
        <time>2019-07-17T13:31:22Z</time>
      </trkpt>
      <trkpt lat="47.78653" lon="-3.5367">
        <ele>36</ele>
        <time>2019-07-17T13:31:23Z</time>
      </trkpt>
      <trkpt lat="47.78653" lon="-3.53678">
        <ele>36</ele>
        <time>2019-07-17T13:31:24Z</time>
      </trkpt>
      <trkpt lat="47.78652" lon="-3.53685">
        <ele>36</ele>
        <time>2019-07-17T13:31:25Z</time>
      </trkpt>
      <trkpt lat="47.78651" lon="-3.53693">
        <ele>36</ele>
        <time>2019-07-17T13:31:26Z</time>
      </trkpt>
      <trkpt lat="47.78651" lon="-3.53701">
        <ele>36</ele>
        <time>2019-07-17T13:31:27Z</time>
      </trkpt>
      <trkpt lat="47.7865" lon="-3.53709">
        <ele>36</ele>
        <time>2019-07-17T13:31:28Z</time>
      </trkpt>
      <trkpt lat="47.7865" lon="-3.53717">
        <ele>36</ele>
        <time>2019-07-17T13:31:29Z</time>
      </trkpt>
      <trkpt lat="47.78649" lon="-3.53725">
        <ele>36</ele>
        <time>2019-07-17T13:31:30Z</time>
      </trkpt>
      <trkpt lat="47.78648" lon="-3.53733">
        <ele>36</ele>
        <time>2019-07-17T13:31:31Z</time>
      </trkpt>
      <trkpt lat="47.78647" lon="-3.53741">
        <ele>36</ele>
        <time>2019-07-17T13:31:32Z</time>
      </trkpt>
      <trkpt lat="47.78646" lon="-3.53749">
        <ele>36</ele>
        <time>2019-07-17T13:31:33Z</time>
      </trkpt>
      <trkpt lat="47.78645" lon="-3.53756">
        <ele>36</ele>
        <time>2019-07-17T13:31:34Z</time>
      </trkpt>
      <trkpt lat="47.78644" lon="-3.53764">
        <ele>35</ele>
        <time>2019-07-17T13:31:35Z</time>
      </trkpt>
      <trkpt lat="47.78643" lon="-3.53772">
        <ele>35</ele>
        <time>2019-07-17T13:31:36Z</time>
      </trkpt>
      <trkpt lat="47.78642" lon="-3.53779">
        <ele>35</ele>
        <time>2019-07-17T13:31:37Z</time>
      </trkpt>
      <trkpt lat="47.78642" lon="-3.53786">
        <ele>35</ele>
        <time>2019-07-17T13:31:38Z</time>
      </trkpt>
      <trkpt lat="47.78645" lon="-3.5379">
        <ele>35</ele>
        <time>2019-07-17T13:31:39Z</time>
      </trkpt>
      <trkpt lat="47.78648" lon="-3.53791">
        <ele>35</ele>
        <time>2019-07-17T13:31:40Z</time>
      </trkpt>
      <trkpt lat="47.78651" lon="-3.5379">
        <ele>35</ele>
        <time>2019-07-17T13:31:41Z</time>
      </trkpt>
      <trkpt lat="47.78653" lon="-3.53787">
        <ele>35</ele>
        <time>2019-07-17T13:31:42Z</time>
      </trkpt>
      <trkpt lat="47.78656" lon="-3.53785">
        <ele>35</ele>
        <time>2019-07-17T13:31:43Z</time>
      </trkpt>
      <trkpt lat="47.78659" lon="-3.53782">
        <ele>35</ele>
        <time>2019-07-17T13:31:44Z</time>
      </trkpt>
      <trkpt lat="47.78662" lon="-3.53779">
        <ele>35</ele>
        <time>2019-07-17T13:31:45Z</time>
      </trkpt>
      <trkpt lat="47.78665" lon="-3.53777">
        <ele>35</ele>
        <time>2019-07-17T13:31:46Z</time>
      </trkpt>
      <trkpt lat="47.78668" lon="-3.53774">
        <ele>35</ele>
        <time>2019-07-17T13:31:47Z</time>
      </trkpt>
      <trkpt lat="47.78672" lon="-3.53772">
        <ele>35</ele>
        <time>2019-07-17T13:31:48Z</time>
      </trkpt>
      <trkpt lat="47.78675" lon="-3.53772">
        <ele>35</ele>
        <time>2019-07-17T13:31:49Z</time>
      </trkpt>
      <trkpt lat="47.78679" lon="-3.53773">
        <ele>35</ele>
        <time>2019-07-17T13:31:50Z</time>
      </trkpt>
      <trkpt lat="47.78682" lon="-3.53774">
        <ele>35</ele>
        <time>2019-07-17T13:31:51Z</time>
      </trkpt>
      <trkpt lat="47.78686" lon="-3.53774">
        <ele>35</ele>
        <time>2019-07-17T13:31:52Z</time>
      </trkpt>
      <trkpt lat="47.7869" lon="-3.53774">
        <ele>35</ele>
        <time>2019-07-17T13:31:53Z</time>
      </trkpt>
      <trkpt lat="47.78695" lon="-3.53774">
        <ele>35</ele>
        <time>2019-07-17T13:31:54Z</time>
      </trkpt>
      <trkpt lat="47.78699" lon="-3.53775">
        <ele>35</ele>
        <time>2019-07-17T13:31:55Z</time>
      </trkpt>
      <trkpt lat="47.78703" lon="-3.53775">
        <ele>35</ele>
        <time>2019-07-17T13:31:56Z</time>
      </trkpt>
      <trkpt lat="47.78707" lon="-3.53774">
        <ele>35</ele>
        <time>2019-07-17T13:31:57Z</time>
      </trkpt>
      <trkpt lat="47.78711" lon="-3.53771">
        <ele>35</ele>
        <time>2019-07-17T13:31:58Z</time>
      </trkpt>
      <trkpt lat="47.78713" lon="-3.53768">
        <ele>35</ele>
        <time>2019-07-17T13:31:59Z</time>
      </trkpt>
      <trkpt lat="47.78716" lon="-3.53764">
        <ele>35</ele>
        <time>2019-07-17T13:32:00Z</time>
      </trkpt>
      <trkpt lat="47.78719" lon="-3.5376">
        <ele>35</ele>
        <time>2019-07-17T13:32:01Z</time>
      </trkpt>
      <trkpt lat="47.78722" lon="-3.53756">
        <ele>35</ele>
        <time>2019-07-17T13:32:02Z</time>
      </trkpt>
      <trkpt lat="47.78726" lon="-3.53753">
        <ele>35</ele>
        <time>2019-07-17T13:32:03Z</time>
      </trkpt>
      <trkpt lat="47.7873" lon="-3.53749">
        <ele>35</ele>
        <time>2019-07-17T13:32:04Z</time>
      </trkpt>
      <trkpt lat="47.78733" lon="-3.53746">
        <ele>35</ele>
        <time>2019-07-17T13:32:05Z</time>
      </trkpt>
      <trkpt lat="47.78737" lon="-3.53744">
        <ele>35</ele>
        <time>2019-07-17T13:32:06Z</time>
      </trkpt>
      <trkpt lat="47.78741" lon="-3.53742">
        <ele>35</ele>
        <time>2019-07-17T13:32:07Z</time>
      </trkpt>
      <trkpt lat="47.78744" lon="-3.53741">
        <ele>35</ele>
        <time>2019-07-17T13:32:08Z</time>
      </trkpt>
      <trkpt lat="47.78748" lon="-3.53741">
        <ele>35</ele>
        <time>2019-07-17T13:32:09Z</time>
      </trkpt>
      <trkpt lat="47.78752" lon="-3.53742">
        <ele>35</ele>
        <time>2019-07-17T13:32:10Z</time>
      </trkpt>
      <trkpt lat="47.78756" lon="-3.53744">
        <ele>35</ele>
        <time>2019-07-17T13:32:11Z</time>
      </trkpt>
      <trkpt lat="47.78761" lon="-3.53746">
        <ele>35</ele>
        <time>2019-07-17T13:32:12Z</time>
      </trkpt>
      <trkpt lat="47.78765" lon="-3.53748">
        <ele>35</ele>
        <time>2019-07-17T13:32:13Z</time>
      </trkpt>
      <trkpt lat="47.78769" lon="-3.53751">
        <ele>35</ele>
        <time>2019-07-17T13:32:14Z</time>
      </trkpt>
      <trkpt lat="47.78773" lon="-3.53754">
        <ele>35</ele>
        <time>2019-07-17T13:32:15Z</time>
      </trkpt>
      <trkpt lat="47.78777" lon="-3.53757">
        <ele>35</ele>
        <time>2019-07-17T13:32:16Z</time>
      </trkpt>
      <trkpt lat="47.78781" lon="-3.53759">
        <ele>35</ele>
        <time>2019-07-17T13:32:17Z</time>
      </trkpt>
      <trkpt lat="47.78784" lon="-3.53761">
        <ele>34</ele>
        <time>2019-07-17T13:32:18Z</time>
      </trkpt>
      <trkpt lat="47.78785" lon="-3.53761">
        <ele>34</ele>
        <time>2019-07-17T13:32:19Z</time>
      </trkpt>
      <trkpt lat="47.78785" lon="-3.53761">
        <ele>34</ele>
        <time>2019-07-17T13:32:20Z</time>
      </trkpt>
      <trkpt lat="47.78785" lon="-3.53761">
        <ele>34</ele>
        <time>2019-07-17T13:32:21Z</time>
      </trkpt>
      <trkpt lat="47.78785" lon="-3.53761">
        <ele>34</ele>
        <time>2019-07-17T13:32:22Z</time>
      </trkpt>
      <trkpt lat="47.78788" lon="-3.53758">
        <ele>33</ele>
        <time>2019-07-17T13:32:23Z</time>
      </trkpt>
      <trkpt lat="47.78788" lon="-3.53758">
        <ele>33</ele>
        <time>2019-07-17T13:32:24Z</time>
      </trkpt>
      <trkpt lat="47.78789" lon="-3.53753">
        <ele>33</ele>
        <time>2019-07-17T13:32:25Z</time>
      </trkpt>
      <trkpt lat="47.7879" lon="-3.5375">
        <ele>33</ele>
        <time>2019-07-17T13:32:26Z</time>
      </trkpt>
      <trkpt lat="47.7879" lon="-3.53747">
        <ele>33</ele>
        <time>2019-07-17T13:32:27Z</time>
      </trkpt>
      <trkpt lat="47.78791" lon="-3.53744">
        <ele>33</ele>
        <time>2019-07-17T13:32:28Z</time>
      </trkpt>
      <trkpt lat="47.78792" lon="-3.5374">
        <ele>33</ele>
        <time>2019-07-17T13:32:29Z</time>
      </trkpt>
      <trkpt lat="47.78793" lon="-3.53736">
        <ele>34</ele>
        <time>2019-07-17T13:32:30Z</time>
      </trkpt>
      <trkpt lat="47.78794" lon="-3.53733">
        <ele>34</ele>
        <time>2019-07-17T13:32:31Z</time>
      </trkpt>
      <trkpt lat="47.78794" lon="-3.53729">
        <ele>34</ele>
        <time>2019-07-17T13:32:32Z</time>
      </trkpt>
      <trkpt lat="47.78796" lon="-3.53725">
        <ele>34</ele>
        <time>2019-07-17T13:32:33Z</time>
      </trkpt>
      <trkpt lat="47.78796" lon="-3.5372">
        <ele>34</ele>
        <time>2019-07-17T13:32:34Z</time>
      </trkpt>
      <trkpt lat="47.78797" lon="-3.53716">
        <ele>35</ele>
        <time>2019-07-17T13:32:35Z</time>
      </trkpt>
      <trkpt lat="47.78798" lon="-3.53712">
        <ele>35</ele>
        <time>2019-07-17T13:32:36Z</time>
      </trkpt>
      <trkpt lat="47.78799" lon="-3.53707">
        <ele>35</ele>
        <time>2019-07-17T13:32:37Z</time>
      </trkpt>
      <trkpt lat="47.788" lon="-3.53703">
        <ele>35</ele>
        <time>2019-07-17T13:32:38Z</time>
      </trkpt>
      <trkpt lat="47.788" lon="-3.53699">
        <ele>35</ele>
        <time>2019-07-17T13:32:39Z</time>
      </trkpt>
      <trkpt lat="47.78801" lon="-3.53695">
        <ele>36</ele>
        <time>2019-07-17T13:32:40Z</time>
      </trkpt>
      <trkpt lat="47.78802" lon="-3.5369">
        <ele>36</ele>
        <time>2019-07-17T13:32:41Z</time>
      </trkpt>
      <trkpt lat="47.78802" lon="-3.53686">
        <ele>36</ele>
        <time>2019-07-17T13:32:42Z</time>
      </trkpt>
      <trkpt lat="47.78803" lon="-3.53682">
        <ele>36</ele>
        <time>2019-07-17T13:32:43Z</time>
      </trkpt>
      <trkpt lat="47.78803" lon="-3.53677">
        <ele>37</ele>
        <time>2019-07-17T13:32:44Z</time>
      </trkpt>
      <trkpt lat="47.78803" lon="-3.53672">
        <ele>37</ele>
        <time>2019-07-17T13:32:45Z</time>
      </trkpt>
      <trkpt lat="47.78804" lon="-3.53667">
        <ele>37</ele>
        <time>2019-07-17T13:32:46Z</time>
      </trkpt>
      <trkpt lat="47.78804" lon="-3.53662">
        <ele>37</ele>
        <time>2019-07-17T13:32:47Z</time>
      </trkpt>
      <trkpt lat="47.78804" lon="-3.53658">
        <ele>38</ele>
        <time>2019-07-17T13:32:48Z</time>
      </trkpt>
      <trkpt lat="47.78804" lon="-3.53653">
        <ele>38</ele>
        <time>2019-07-17T13:32:49Z</time>
      </trkpt>
      <trkpt lat="47.78804" lon="-3.53648">
        <ele>38</ele>
        <time>2019-07-17T13:32:50Z</time>
      </trkpt>
      <trkpt lat="47.78805" lon="-3.53643">
        <ele>38</ele>
        <time>2019-07-17T13:32:51Z</time>
      </trkpt>
      <trkpt lat="47.78805" lon="-3.53639">
        <ele>38</ele>
        <time>2019-07-17T13:32:52Z</time>
      </trkpt>
      <trkpt lat="47.78805" lon="-3.53634">
        <ele>39</ele>
        <time>2019-07-17T13:32:53Z</time>
      </trkpt>
      <trkpt lat="47.78805" lon="-3.53629">
        <ele>39</ele>
        <time>2019-07-17T13:32:54Z</time>
      </trkpt>
      <trkpt lat="47.78806" lon="-3.53625">
        <ele>39</ele>
        <time>2019-07-17T13:32:55Z</time>
      </trkpt>
      <trkpt lat="47.78806" lon="-3.5362">
        <ele>39</ele>
        <time>2019-07-17T13:32:56Z</time>
      </trkpt>
      <trkpt lat="47.78806" lon="-3.53615">
        <ele>40</ele>
        <time>2019-07-17T13:32:57Z</time>
      </trkpt>
      <trkpt lat="47.78806" lon="-3.5361">
        <ele>40</ele>
        <time>2019-07-17T13:32:58Z</time>
      </trkpt>
      <trkpt lat="47.78806" lon="-3.53605">
        <ele>40</ele>
        <time>2019-07-17T13:32:59Z</time>
      </trkpt>
      <trkpt lat="47.78807" lon="-3.53599">
        <ele>40</ele>
        <time>2019-07-17T13:33:00Z</time>
      </trkpt>
      <trkpt lat="47.78807" lon="-3.53594">
        <ele>40</ele>
        <time>2019-07-17T13:33:01Z</time>
      </trkpt>
      <trkpt lat="47.78807" lon="-3.53589">
        <ele>40</ele>
        <time>2019-07-17T13:33:02Z</time>
      </trkpt>
      <trkpt lat="47.78807" lon="-3.53584">
        <ele>40</ele>
        <time>2019-07-17T13:33:03Z</time>
      </trkpt>
      <trkpt lat="47.78807" lon="-3.53578">
        <ele>41</ele>
        <time>2019-07-17T13:33:04Z</time>
      </trkpt>
      <trkpt lat="47.78808" lon="-3.53573">
        <ele>41</ele>
        <time>2019-07-17T13:33:05Z</time>
      </trkpt>
      <trkpt lat="47.78808" lon="-3.53568">
        <ele>41</ele>
        <time>2019-07-17T13:33:06Z</time>
      </trkpt>
      <trkpt lat="47.78808" lon="-3.53563">
        <ele>41</ele>
        <time>2019-07-17T13:33:07Z</time>
      </trkpt>
      <trkpt lat="47.78809" lon="-3.53558">
        <ele>41</ele>
        <time>2019-07-17T13:33:08Z</time>
      </trkpt>
      <trkpt lat="47.78809" lon="-3.53554">
        <ele>41</ele>
        <time>2019-07-17T13:33:09Z</time>
      </trkpt>
      <trkpt lat="47.78809" lon="-3.53549">
        <ele>41</ele>
        <time>2019-07-17T13:33:10Z</time>
      </trkpt>
      <trkpt lat="47.78809" lon="-3.53545">
        <ele>41</ele>
        <time>2019-07-17T13:33:11Z</time>
      </trkpt>
      <trkpt lat="47.78809" lon="-3.5354">
        <ele>41</ele>
        <time>2019-07-17T13:33:12Z</time>
      </trkpt>
      <trkpt lat="47.7881" lon="-3.53535">
        <ele>42</ele>
        <time>2019-07-17T13:33:13Z</time>
      </trkpt>
      <trkpt lat="47.78811" lon="-3.5353">
        <ele>42</ele>
        <time>2019-07-17T13:33:14Z</time>
      </trkpt>
      <trkpt lat="47.78811" lon="-3.53525">
        <ele>42</ele>
        <time>2019-07-17T13:33:15Z</time>
      </trkpt>
      <trkpt lat="47.78812" lon="-3.53521">
        <ele>42</ele>
        <time>2019-07-17T13:33:16Z</time>
      </trkpt>
      <trkpt lat="47.78812" lon="-3.53517">
        <ele>42</ele>
        <time>2019-07-17T13:33:17Z</time>
      </trkpt>
      <trkpt lat="47.78812" lon="-3.53514">
        <ele>42</ele>
        <time>2019-07-17T13:33:18Z</time>
      </trkpt>
      <trkpt lat="47.78812" lon="-3.53513">
        <ele>42</ele>
        <time>2019-07-17T13:33:19Z</time>
      </trkpt>
      <trkpt lat="47.78812" lon="-3.53513">
        <ele>42</ele>
        <time>2019-07-17T13:33:20Z</time>
      </trkpt>
      <trkpt lat="47.78812" lon="-3.53513">
        <ele>42</ele>
        <time>2019-07-17T13:33:21Z</time>
      </trkpt>
      <trkpt lat="47.78812" lon="-3.53519">
        <ele>42</ele>
        <time>2019-07-17T13:33:22Z</time>
      </trkpt>
      <trkpt lat="47.78811" lon="-3.53521">
        <ele>42</ele>
        <time>2019-07-17T13:33:23Z</time>
      </trkpt>
      <trkpt lat="47.78811" lon="-3.53525">
        <ele>42</ele>
        <time>2019-07-17T13:33:24Z</time>
      </trkpt>
      <trkpt lat="47.78811" lon="-3.53529">
        <ele>42</ele>
        <time>2019-07-17T13:33:25Z</time>
      </trkpt>
      <trkpt lat="47.78811" lon="-3.53535">
        <ele>41</ele>
        <time>2019-07-17T13:33:26Z</time>
      </trkpt>
      <trkpt lat="47.7881" lon="-3.5354">
        <ele>41</ele>
        <time>2019-07-17T13:33:27Z</time>
      </trkpt>
      <trkpt lat="47.7881" lon="-3.53546">
        <ele>41</ele>
        <time>2019-07-17T13:33:28Z</time>
      </trkpt>
      <trkpt lat="47.7881" lon="-3.53553">
        <ele>41</ele>
        <time>2019-07-17T13:33:29Z</time>
      </trkpt>
      <trkpt lat="47.7881" lon="-3.5356">
        <ele>41</ele>
        <time>2019-07-17T13:33:30Z</time>
      </trkpt>
      <trkpt lat="47.7881" lon="-3.53567">
        <ele>41</ele>
        <time>2019-07-17T13:33:31Z</time>
      </trkpt>
      <trkpt lat="47.78809" lon="-3.53573">
        <ele>40</ele>
        <time>2019-07-17T13:33:32Z</time>
      </trkpt>
      <trkpt lat="47.78809" lon="-3.53579">
        <ele>40</ele>
        <time>2019-07-17T13:33:33Z</time>
      </trkpt>
      <trkpt lat="47.78809" lon="-3.53586">
        <ele>40</ele>
        <time>2019-07-17T13:33:34Z</time>
      </trkpt>
      <trkpt lat="47.78809" lon="-3.53592">
        <ele>40</ele>
        <time>2019-07-17T13:33:35Z</time>
      </trkpt>
      <trkpt lat="47.78809" lon="-3.53598">
        <ele>40</ele>
        <time>2019-07-17T13:33:36Z</time>
      </trkpt>
      <trkpt lat="47.78809" lon="-3.53605">
        <ele>40</ele>
        <time>2019-07-17T13:33:37Z</time>
      </trkpt>
      <trkpt lat="47.78809" lon="-3.53612">
        <ele>39</ele>
        <time>2019-07-17T13:33:38Z</time>
      </trkpt>
      <trkpt lat="47.78808" lon="-3.53619">
        <ele>39</ele>
        <time>2019-07-17T13:33:39Z</time>
      </trkpt>
      <trkpt lat="47.78808" lon="-3.53626">
        <ele>39</ele>
        <time>2019-07-17T13:33:40Z</time>
      </trkpt>
      <trkpt lat="47.78808" lon="-3.53633">
        <ele>39</ele>
        <time>2019-07-17T13:33:41Z</time>
      </trkpt>
      <trkpt lat="47.78807" lon="-3.53641">
        <ele>39</ele>
        <time>2019-07-17T13:33:42Z</time>
      </trkpt>
      <trkpt lat="47.78807" lon="-3.53649">
        <ele>38</ele>
        <time>2019-07-17T13:33:43Z</time>
      </trkpt>
      <trkpt lat="47.78807" lon="-3.53657">
        <ele>38</ele>
        <time>2019-07-17T13:33:44Z</time>
      </trkpt>
      <trkpt lat="47.78807" lon="-3.53664">
        <ele>38</ele>
        <time>2019-07-17T13:33:45Z</time>
      </trkpt>
      <trkpt lat="47.78806" lon="-3.53672">
        <ele>37</ele>
        <time>2019-07-17T13:33:46Z</time>
      </trkpt>
      <trkpt lat="47.78806" lon="-3.53678">
        <ele>37</ele>
        <time>2019-07-17T13:33:47Z</time>
      </trkpt>
      <trkpt lat="47.78806" lon="-3.53684">
        <ele>37</ele>
        <time>2019-07-17T13:33:48Z</time>
      </trkpt>
      <trkpt lat="47.78805" lon="-3.5369">
        <ele>36</ele>
        <time>2019-07-17T13:33:49Z</time>
      </trkpt>
      <trkpt lat="47.78803" lon="-3.53697">
        <ele>36</ele>
        <time>2019-07-17T13:33:50Z</time>
      </trkpt>
      <trkpt lat="47.78802" lon="-3.53705">
        <ele>36</ele>
        <time>2019-07-17T13:33:51Z</time>
      </trkpt>
      <trkpt lat="47.788" lon="-3.53712">
        <ele>35</ele>
        <time>2019-07-17T13:33:52Z</time>
      </trkpt>
      <trkpt lat="47.78798" lon="-3.5372">
        <ele>35</ele>
        <time>2019-07-17T13:33:53Z</time>
      </trkpt>
      <trkpt lat="47.78796" lon="-3.53728">
        <ele>35</ele>
        <time>2019-07-17T13:33:54Z</time>
      </trkpt>
      <trkpt lat="47.78794" lon="-3.53736">
        <ele>35</ele>
        <time>2019-07-17T13:33:55Z</time>
      </trkpt>
      <trkpt lat="47.78793" lon="-3.53743">
        <ele>34</ele>
        <time>2019-07-17T13:33:56Z</time>
      </trkpt>
      <trkpt lat="47.78791" lon="-3.53749">
        <ele>34</ele>
        <time>2019-07-17T13:33:57Z</time>
      </trkpt>
      <trkpt lat="47.7879" lon="-3.53755">
        <ele>34</ele>
        <time>2019-07-17T13:33:58Z</time>
      </trkpt>
      <trkpt lat="47.78789" lon="-3.53759">
        <ele>33</ele>
        <time>2019-07-17T13:33:59Z</time>
      </trkpt>
      <trkpt lat="47.78789" lon="-3.5376">
        <ele>33</ele>
        <time>2019-07-17T13:34:00Z</time>
      </trkpt>
      <trkpt lat="47.78789" lon="-3.53761">
        <ele>33</ele>
        <time>2019-07-17T13:34:01Z</time>
      </trkpt>
      <trkpt lat="47.78789" lon="-3.53761">
        <ele>33</ele>
        <time>2019-07-17T13:34:02Z</time>
      </trkpt>
      <trkpt lat="47.78789" lon="-3.53761">
        <ele>33</ele>
        <time>2019-07-17T13:34:03Z</time>
      </trkpt>
      <trkpt lat="47.78789" lon="-3.53762">
        <ele>33</ele>
        <time>2019-07-17T13:34:04Z</time>
      </trkpt>
      <trkpt lat="47.78794" lon="-3.53758">
        <ele>33</ele>
        <time>2019-07-17T13:34:05Z</time>
      </trkpt>
      <trkpt lat="47.78797" lon="-3.53756">
        <ele>32</ele>
        <time>2019-07-17T13:34:06Z</time>
      </trkpt>
      <trkpt lat="47.788" lon="-3.53753">
        <ele>32</ele>
        <time>2019-07-17T13:34:07Z</time>
      </trkpt>
      <trkpt lat="47.78804" lon="-3.53751">
        <ele>32</ele>
        <time>2019-07-17T13:34:08Z</time>
      </trkpt>
      <trkpt lat="47.78808" lon="-3.53748">
        <ele>32</ele>
        <time>2019-07-17T13:34:09Z</time>
      </trkpt>
      <trkpt lat="47.78811" lon="-3.53745">
        <ele>31</ele>
        <time>2019-07-17T13:34:10Z</time>
      </trkpt>
      <trkpt lat="47.78815" lon="-3.53742">
        <ele>31</ele>
        <time>2019-07-17T13:34:11Z</time>
      </trkpt>
      <trkpt lat="47.78819" lon="-3.5374">
        <ele>31</ele>
        <time>2019-07-17T13:34:12Z</time>
      </trkpt>
      <trkpt lat="47.78822" lon="-3.53737">
        <ele>31</ele>
        <time>2019-07-17T13:34:13Z</time>
      </trkpt>
      <trkpt lat="47.78826" lon="-3.53734">
        <ele>31</ele>
        <time>2019-07-17T13:34:14Z</time>
      </trkpt>
      <trkpt lat="47.78829" lon="-3.53732">
        <ele>30</ele>
        <time>2019-07-17T13:34:15Z</time>
      </trkpt>
      <trkpt lat="47.78833" lon="-3.53729">
        <ele>30</ele>
        <time>2019-07-17T13:34:16Z</time>
      </trkpt>
      <trkpt lat="47.78836" lon="-3.53725">
        <ele>30</ele>
        <time>2019-07-17T13:34:17Z</time>
      </trkpt>
      <trkpt lat="47.78839" lon="-3.53722">
        <ele>30</ele>
        <time>2019-07-17T13:34:18Z</time>
      </trkpt>
      <trkpt lat="47.78843" lon="-3.5372">
        <ele>30</ele>
        <time>2019-07-17T13:34:19Z</time>
      </trkpt>
      <trkpt lat="47.78846" lon="-3.53717">
        <ele>30</ele>
        <time>2019-07-17T13:34:20Z</time>
      </trkpt>
      <trkpt lat="47.78849" lon="-3.53715">
        <ele>30</ele>
        <time>2019-07-17T13:34:21Z</time>
      </trkpt>
      <trkpt lat="47.78852" lon="-3.53712">
        <ele>30</ele>
        <time>2019-07-17T13:34:22Z</time>
      </trkpt>
      <trkpt lat="47.78855" lon="-3.53709">
        <ele>29</ele>
        <time>2019-07-17T13:34:23Z</time>
      </trkpt>
      <trkpt lat="47.78858" lon="-3.53706">
        <ele>29</ele>
        <time>2019-07-17T13:34:24Z</time>
      </trkpt>
      <trkpt lat="47.78861" lon="-3.53703">
        <ele>29</ele>
        <time>2019-07-17T13:34:25Z</time>
      </trkpt>
      <trkpt lat="47.78865" lon="-3.53701">
        <ele>29</ele>
        <time>2019-07-17T13:34:26Z</time>
      </trkpt>
      <trkpt lat="47.78868" lon="-3.53699">
        <ele>30</ele>
        <time>2019-07-17T13:34:27Z</time>
      </trkpt>
      <trkpt lat="47.78872" lon="-3.53696">
        <ele>29</ele>
        <time>2019-07-17T13:34:28Z</time>
      </trkpt>
      <trkpt lat="47.78876" lon="-3.53695">
        <ele>29</ele>
        <time>2019-07-17T13:34:29Z</time>
      </trkpt>
      <trkpt lat="47.7888" lon="-3.53693">
        <ele>29</ele>
        <time>2019-07-17T13:34:30Z</time>
      </trkpt>
      <trkpt lat="47.78884" lon="-3.53693">
        <ele>29</ele>
        <time>2019-07-17T13:34:31Z</time>
      </trkpt>
      <trkpt lat="47.78888" lon="-3.53693">
        <ele>29</ele>
        <time>2019-07-17T13:34:32Z</time>
      </trkpt>
      <trkpt lat="47.78893" lon="-3.53693">
        <ele>29</ele>
        <time>2019-07-17T13:34:33Z</time>
      </trkpt>
      <trkpt lat="47.78897" lon="-3.53693">
        <ele>29</ele>
        <time>2019-07-17T13:34:34Z</time>
      </trkpt>
      <trkpt lat="47.78901" lon="-3.53693">
        <ele>29</ele>
        <time>2019-07-17T13:34:35Z</time>
      </trkpt>
      <trkpt lat="47.78906" lon="-3.53693">
        <ele>29</ele>
        <time>2019-07-17T13:34:36Z</time>
      </trkpt>
      <trkpt lat="47.78911" lon="-3.53693">
        <ele>29</ele>
        <time>2019-07-17T13:34:37Z</time>
      </trkpt>
      <trkpt lat="47.78916" lon="-3.53693">
        <ele>29</ele>
        <time>2019-07-17T13:34:38Z</time>
      </trkpt>
      <trkpt lat="47.78921" lon="-3.53693">
        <ele>28</ele>
        <time>2019-07-17T13:34:39Z</time>
      </trkpt>
      <trkpt lat="47.78927" lon="-3.53694">
        <ele>28</ele>
        <time>2019-07-17T13:34:40Z</time>
      </trkpt>
      <trkpt lat="47.78932" lon="-3.53694">
        <ele>28</ele>
        <time>2019-07-17T13:34:41Z</time>
      </trkpt>
      <trkpt lat="47.78937" lon="-3.53693">
        <ele>28</ele>
        <time>2019-07-17T13:34:42Z</time>
      </trkpt>
      <trkpt lat="47.78942" lon="-3.53693">
        <ele>27</ele>
        <time>2019-07-17T13:34:43Z</time>
      </trkpt>
      <trkpt lat="47.78947" lon="-3.53693">
        <ele>27</ele>
        <time>2019-07-17T13:34:44Z</time>
      </trkpt>
      <trkpt lat="47.78953" lon="-3.53694">
        <ele>27</ele>
        <time>2019-07-17T13:34:45Z</time>
      </trkpt>
      <trkpt lat="47.78958" lon="-3.53695">
        <ele>27</ele>
        <time>2019-07-17T13:34:46Z</time>
      </trkpt>
      <trkpt lat="47.78964" lon="-3.53696">
        <ele>27</ele>
        <time>2019-07-17T13:34:47Z</time>
      </trkpt>
      <trkpt lat="47.78968" lon="-3.53696">
        <ele>27</ele>
        <time>2019-07-17T13:34:48Z</time>
      </trkpt>
      <trkpt lat="47.78972" lon="-3.53694">
        <ele>27</ele>
        <time>2019-07-17T13:34:49Z</time>
      </trkpt>
      <trkpt lat="47.78976" lon="-3.5369">
        <ele>27</ele>
        <time>2019-07-17T13:34:50Z</time>
      </trkpt>
      <trkpt lat="47.78978" lon="-3.53687">
        <ele>27</ele>
        <time>2019-07-17T13:34:51Z</time>
      </trkpt>
      <trkpt lat="47.7898" lon="-3.53682">
        <ele>27</ele>
        <time>2019-07-17T13:34:52Z</time>
      </trkpt>
      <trkpt lat="47.78981" lon="-3.53678">
        <ele>27</ele>
        <time>2019-07-17T13:34:53Z</time>
      </trkpt>
      <trkpt lat="47.78983" lon="-3.53673">
        <ele>28</ele>
        <time>2019-07-17T13:34:54Z</time>
      </trkpt>
      <trkpt lat="47.78984" lon="-3.53667">
        <ele>28</ele>
        <time>2019-07-17T13:34:55Z</time>
      </trkpt>
      <trkpt lat="47.78985" lon="-3.53662">
        <ele>28</ele>
        <time>2019-07-17T13:34:56Z</time>
      </trkpt>
      <trkpt lat="47.78986" lon="-3.53656">
        <ele>28</ele>
        <time>2019-07-17T13:34:57Z</time>
      </trkpt>
      <trkpt lat="47.78987" lon="-3.5365">
        <ele>28</ele>
        <time>2019-07-17T13:34:58Z</time>
      </trkpt>
      <trkpt lat="47.78988" lon="-3.53645">
        <ele>28</ele>
        <time>2019-07-17T13:34:59Z</time>
      </trkpt>
      <trkpt lat="47.78989" lon="-3.5364">
        <ele>28</ele>
        <time>2019-07-17T13:35:00Z</time>
      </trkpt>
      <trkpt lat="47.78989" lon="-3.53634">
        <ele>28</ele>
        <time>2019-07-17T13:35:01Z</time>
      </trkpt>
      <trkpt lat="47.78989" lon="-3.53628">
        <ele>28</ele>
        <time>2019-07-17T13:35:02Z</time>
      </trkpt>
      <trkpt lat="47.78989" lon="-3.53623">
        <ele>28</ele>
        <time>2019-07-17T13:35:03Z</time>
      </trkpt>
      <trkpt lat="47.7899" lon="-3.53617">
        <ele>28</ele>
        <time>2019-07-17T13:35:04Z</time>
      </trkpt>
      <trkpt lat="47.78991" lon="-3.53612">
        <ele>28</ele>
        <time>2019-07-17T13:35:05Z</time>
      </trkpt>
      <trkpt lat="47.78992" lon="-3.53607">
        <ele>28</ele>
        <time>2019-07-17T13:35:06Z</time>
      </trkpt>
      <trkpt lat="47.78992" lon="-3.53602">
        <ele>28</ele>
        <time>2019-07-17T13:35:07Z</time>
      </trkpt>
      <trkpt lat="47.78993" lon="-3.53597">
        <ele>28</ele>
        <time>2019-07-17T13:35:08Z</time>
      </trkpt>
      <trkpt lat="47.78994" lon="-3.53591">
        <ele>27</ele>
        <time>2019-07-17T13:35:09Z</time>
      </trkpt>
      <trkpt lat="47.78994" lon="-3.53585">
        <ele>27</ele>
        <time>2019-07-17T13:35:10Z</time>
      </trkpt>
      <trkpt lat="47.78995" lon="-3.53579">
        <ele>27</ele>
        <time>2019-07-17T13:35:11Z</time>
      </trkpt>
      <trkpt lat="47.78995" lon="-3.53573">
        <ele>27</ele>
        <time>2019-07-17T13:35:12Z</time>
      </trkpt>
      <trkpt lat="47.78995" lon="-3.53567">
        <ele>27</ele>
        <time>2019-07-17T13:35:13Z</time>
      </trkpt>
      <trkpt lat="47.78995" lon="-3.53561">
        <ele>27</ele>
        <time>2019-07-17T13:35:14Z</time>
      </trkpt>
      <trkpt lat="47.78995" lon="-3.53555">
        <ele>27</ele>
        <time>2019-07-17T13:35:15Z</time>
      </trkpt>
      <trkpt lat="47.78996" lon="-3.53549">
        <ele>27</ele>
        <time>2019-07-17T13:35:16Z</time>
      </trkpt>
      <trkpt lat="47.78997" lon="-3.53542">
        <ele>27</ele>
        <time>2019-07-17T13:35:17Z</time>
      </trkpt>
      <trkpt lat="47.79" lon="-3.53535">
        <ele>26</ele>
        <time>2019-07-17T13:35:18Z</time>
      </trkpt>
      <trkpt lat="47.79001" lon="-3.53528">
        <ele>26</ele>
        <time>2019-07-17T13:35:19Z</time>
      </trkpt>
      <trkpt lat="47.79003" lon="-3.5352">
        <ele>26</ele>
        <time>2019-07-17T13:35:20Z</time>
      </trkpt>
      <trkpt lat="47.79005" lon="-3.53512">
        <ele>26</ele>
        <time>2019-07-17T13:35:21Z</time>
      </trkpt>
      <trkpt lat="47.79007" lon="-3.53504">
        <ele>26</ele>
        <time>2019-07-17T13:35:22Z</time>
      </trkpt>
      <trkpt lat="47.79009" lon="-3.53496">
        <ele>26</ele>
        <time>2019-07-17T13:35:23Z</time>
      </trkpt>
      <trkpt lat="47.79012" lon="-3.53487">
        <ele>26</ele>
        <time>2019-07-17T13:35:24Z</time>
      </trkpt>
      <trkpt lat="47.79014" lon="-3.53479">
        <ele>26</ele>
        <time>2019-07-17T13:35:25Z</time>
      </trkpt>
      <trkpt lat="47.79016" lon="-3.53469">
        <ele>26</ele>
        <time>2019-07-17T13:35:26Z</time>
      </trkpt>
      <trkpt lat="47.79016" lon="-3.5346">
        <ele>26</ele>
        <time>2019-07-17T13:35:27Z</time>
      </trkpt>
      <trkpt lat="47.79017" lon="-3.5345">
        <ele>26</ele>
        <time>2019-07-17T13:35:28Z</time>
      </trkpt>
      <trkpt lat="47.79018" lon="-3.53439">
        <ele>26</ele>
        <time>2019-07-17T13:35:29Z</time>
      </trkpt>
      <trkpt lat="47.7902" lon="-3.53429">
        <ele>26</ele>
        <time>2019-07-17T13:35:30Z</time>
      </trkpt>
      <trkpt lat="47.79023" lon="-3.53419">
        <ele>26</ele>
        <time>2019-07-17T13:35:31Z</time>
      </trkpt>
      <trkpt lat="47.79026" lon="-3.53408">
        <ele>26</ele>
        <time>2019-07-17T13:35:32Z</time>
      </trkpt>
      <trkpt lat="47.79029" lon="-3.53397">
        <ele>26</ele>
        <time>2019-07-17T13:35:33Z</time>
      </trkpt>
      <trkpt lat="47.79031" lon="-3.53386">
        <ele>26</ele>
        <time>2019-07-17T13:35:34Z</time>
      </trkpt>
      <trkpt lat="47.79033" lon="-3.53375">
        <ele>26</ele>
        <time>2019-07-17T13:35:35Z</time>
      </trkpt>
      <trkpt lat="47.79036" lon="-3.53364">
        <ele>26</ele>
        <time>2019-07-17T13:35:36Z</time>
      </trkpt>
      <trkpt lat="47.79039" lon="-3.53354">
        <ele>26</ele>
        <time>2019-07-17T13:35:37Z</time>
      </trkpt>
      <trkpt lat="47.79042" lon="-3.53344">
        <ele>26</ele>
        <time>2019-07-17T13:35:38Z</time>
      </trkpt>
      <trkpt lat="47.79045" lon="-3.53333">
        <ele>26</ele>
        <time>2019-07-17T13:35:39Z</time>
      </trkpt>
      <trkpt lat="47.79048" lon="-3.53322">
        <ele>26</ele>
        <time>2019-07-17T13:35:40Z</time>
      </trkpt>
      <trkpt lat="47.79049" lon="-3.53311">
        <ele>25</ele>
        <time>2019-07-17T13:35:41Z</time>
      </trkpt>
      <trkpt lat="47.79051" lon="-3.53299">
        <ele>25</ele>
        <time>2019-07-17T13:35:42Z</time>
      </trkpt>
      <trkpt lat="47.79053" lon="-3.53289">
        <ele>25</ele>
        <time>2019-07-17T13:35:43Z</time>
      </trkpt>
      <trkpt lat="47.79055" lon="-3.53278">
        <ele>25</ele>
        <time>2019-07-17T13:35:44Z</time>
      </trkpt>
      <trkpt lat="47.79056" lon="-3.53267">
        <ele>24</ele>
        <time>2019-07-17T13:35:45Z</time>
      </trkpt>
      <trkpt lat="47.79058" lon="-3.53258">
        <ele>24</ele>
        <time>2019-07-17T13:35:46Z</time>
      </trkpt>
      <trkpt lat="47.7906" lon="-3.53249">
        <ele>24</ele>
        <time>2019-07-17T13:35:47Z</time>
      </trkpt>
      <trkpt lat="47.79062" lon="-3.53242">
        <ele>23</ele>
        <time>2019-07-17T13:35:48Z</time>
      </trkpt>
      <trkpt lat="47.79063" lon="-3.53236">
        <ele>23</ele>
        <time>2019-07-17T13:35:49Z</time>
      </trkpt>
      <trkpt lat="47.79063" lon="-3.53233">
        <ele>22</ele>
        <time>2019-07-17T13:35:50Z</time>
      </trkpt>
      <trkpt lat="47.79062" lon="-3.53232">
        <ele>22</ele>
        <time>2019-07-17T13:35:51Z</time>
      </trkpt>
      <trkpt lat="47.79061" lon="-3.53231">
        <ele>22</ele>
        <time>2019-07-17T13:35:52Z</time>
      </trkpt>
      <trkpt lat="47.79061" lon="-3.5323">
        <ele>21</ele>
        <time>2019-07-17T13:35:53Z</time>
      </trkpt>
      <trkpt lat="47.7906" lon="-3.53229">
        <ele>21</ele>
        <time>2019-07-17T13:35:54Z</time>
      </trkpt>
      <trkpt lat="47.79059" lon="-3.53229">
        <ele>21</ele>
        <time>2019-07-17T13:35:55Z</time>
      </trkpt>
      <trkpt lat="47.79058" lon="-3.53228">
        <ele>20</ele>
        <time>2019-07-17T13:35:56Z</time>
      </trkpt>
      <trkpt lat="47.79058" lon="-3.53227">
        <ele>20</ele>
        <time>2019-07-17T13:35:57Z</time>
      </trkpt>
      <trkpt lat="47.79057" lon="-3.53227">
        <ele>20</ele>
        <time>2019-07-17T13:35:58Z</time>
      </trkpt>
      <trkpt lat="47.79056" lon="-3.53226">
        <ele>20</ele>
        <time>2019-07-17T13:35:59Z</time>
      </trkpt>
      <trkpt lat="47.79056" lon="-3.53224">
        <ele>19</ele>
        <time>2019-07-17T13:36:00Z</time>
      </trkpt>
      <trkpt lat="47.79057" lon="-3.53222">
        <ele>19</ele>
        <time>2019-07-17T13:36:01Z</time>
      </trkpt>
      <trkpt lat="47.79057" lon="-3.53219">
        <ele>19</ele>
        <time>2019-07-17T13:36:02Z</time>
      </trkpt>
      <trkpt lat="47.79058" lon="-3.53216">
        <ele>19</ele>
        <time>2019-07-17T13:36:03Z</time>
      </trkpt>
      <trkpt lat="47.7906" lon="-3.53213">
        <ele>18</ele>
        <time>2019-07-17T13:36:04Z</time>
      </trkpt>
      <trkpt lat="47.79062" lon="-3.53209">
        <ele>18</ele>
        <time>2019-07-17T13:36:05Z</time>
      </trkpt>
      <trkpt lat="47.79065" lon="-3.53206">
        <ele>17</ele>
        <time>2019-07-17T13:36:06Z</time>
      </trkpt>
      <trkpt lat="47.79069" lon="-3.53204">
        <ele>16</ele>
        <time>2019-07-17T13:36:07Z</time>
      </trkpt>
      <trkpt lat="47.79072" lon="-3.53201">
        <ele>15</ele>
        <time>2019-07-17T13:36:08Z</time>
      </trkpt>
      <trkpt lat="47.79076" lon="-3.53198">
        <ele>14</ele>
        <time>2019-07-17T13:36:09Z</time>
      </trkpt>
      <trkpt lat="47.79079" lon="-3.53195">
        <ele>14</ele>
        <time>2019-07-17T13:36:10Z</time>
      </trkpt>
      <trkpt lat="47.79083" lon="-3.53192">
        <ele>13</ele>
        <time>2019-07-17T13:36:11Z</time>
      </trkpt>
      <trkpt lat="47.79086" lon="-3.5319">
        <ele>12</ele>
        <time>2019-07-17T13:36:12Z</time>
      </trkpt>
      <trkpt lat="47.7909" lon="-3.53187">
        <ele>11</ele>
        <time>2019-07-17T13:36:13Z</time>
      </trkpt>
      <trkpt lat="47.79094" lon="-3.53184">
        <ele>11</ele>
        <time>2019-07-17T13:36:14Z</time>
      </trkpt>
      <trkpt lat="47.79097" lon="-3.53181">
        <ele>10</ele>
        <time>2019-07-17T13:36:15Z</time>
      </trkpt>
      <trkpt lat="47.79101" lon="-3.53178">
        <ele>10</ele>
        <time>2019-07-17T13:36:16Z</time>
      </trkpt>
      <trkpt lat="47.79104" lon="-3.53175">
        <ele>9</ele>
        <time>2019-07-17T13:36:17Z</time>
      </trkpt>
      <trkpt lat="47.79107" lon="-3.53172">
        <ele>8</ele>
        <time>2019-07-17T13:36:18Z</time>
      </trkpt>
      <trkpt lat="47.79111" lon="-3.5317">
        <ele>8</ele>
        <time>2019-07-17T13:36:19Z</time>
      </trkpt>
      <trkpt lat="47.79114" lon="-3.53167">
        <ele>7</ele>
        <time>2019-07-17T13:36:20Z</time>
      </trkpt>
      <trkpt lat="47.79118" lon="-3.53164">
        <ele>7</ele>
        <time>2019-07-17T13:36:21Z</time>
      </trkpt>
      <trkpt lat="47.79121" lon="-3.53162">
        <ele>6</ele>
        <time>2019-07-17T13:36:22Z</time>
      </trkpt>
      <trkpt lat="47.79125" lon="-3.5316">
        <ele>6</ele>
        <time>2019-07-17T13:36:23Z</time>
      </trkpt>
      <trkpt lat="47.79129" lon="-3.53158">
        <ele>5</ele>
        <time>2019-07-17T13:36:24Z</time>
      </trkpt>
      <trkpt lat="47.79133" lon="-3.53155">
        <ele>5</ele>
        <time>2019-07-17T13:36:25Z</time>
      </trkpt>
      <trkpt lat="47.79137" lon="-3.53152">
        <ele>5</ele>
        <time>2019-07-17T13:36:26Z</time>
      </trkpt>
      <trkpt lat="47.79141" lon="-3.53149">
        <ele>5</ele>
        <time>2019-07-17T13:36:27Z</time>
      </trkpt>
      <trkpt lat="47.79145" lon="-3.53146">
        <ele>4</ele>
        <time>2019-07-17T13:36:28Z</time>
      </trkpt>
      <trkpt lat="47.79149" lon="-3.53142">
        <ele>4</ele>
        <time>2019-07-17T13:36:29Z</time>
      </trkpt>
      <trkpt lat="47.79152" lon="-3.53138">
        <ele>4</ele>
        <time>2019-07-17T13:36:30Z</time>
      </trkpt>
      <trkpt lat="47.79153" lon="-3.53135">
        <ele>4</ele>
        <time>2019-07-17T13:36:31Z</time>
      </trkpt>
      <trkpt lat="47.79153" lon="-3.53131">
        <ele>4</ele>
        <time>2019-07-17T13:36:32Z</time>
      </trkpt>
      <trkpt lat="47.79153" lon="-3.53128">
        <ele>4</ele>
        <time>2019-07-17T13:36:33Z</time>
      </trkpt>
      <trkpt lat="47.79152" lon="-3.53123">
        <ele>3</ele>
        <time>2019-07-17T13:36:34Z</time>
      </trkpt>
      <trkpt lat="47.79151" lon="-3.53119">
        <ele>3</ele>
        <time>2019-07-17T13:36:35Z</time>
      </trkpt>
      <trkpt lat="47.7915" lon="-3.53115">
        <ele>3</ele>
        <time>2019-07-17T13:36:36Z</time>
      </trkpt>
      <trkpt lat="47.79148" lon="-3.5311">
        <ele>3</ele>
        <time>2019-07-17T13:36:37Z</time>
      </trkpt>
      <trkpt lat="47.79147" lon="-3.53104">
        <ele>3</ele>
        <time>2019-07-17T13:36:38Z</time>
      </trkpt>
      <trkpt lat="47.79146" lon="-3.53099">
        <ele>3</ele>
        <time>2019-07-17T13:36:39Z</time>
      </trkpt>
      <trkpt lat="47.79144" lon="-3.53093">
        <ele>3</ele>
        <time>2019-07-17T13:36:40Z</time>
      </trkpt>
      <trkpt lat="47.79143" lon="-3.53087">
        <ele>3</ele>
        <time>2019-07-17T13:36:41Z</time>
      </trkpt>
      <trkpt lat="47.79142" lon="-3.53081">
        <ele>3</ele>
        <time>2019-07-17T13:36:42Z</time>
      </trkpt>
      <trkpt lat="47.79141" lon="-3.53075">
        <ele>3</ele>
        <time>2019-07-17T13:36:43Z</time>
      </trkpt>
      <trkpt lat="47.79142" lon="-3.53068">
        <ele>3</ele>
        <time>2019-07-17T13:36:44Z</time>
      </trkpt>
      <trkpt lat="47.79143" lon="-3.53061">
        <ele>3</ele>
        <time>2019-07-17T13:36:45Z</time>
      </trkpt>
      <trkpt lat="47.79144" lon="-3.53055">
        <ele>3</ele>
        <time>2019-07-17T13:36:46Z</time>
      </trkpt>
      <trkpt lat="47.79147" lon="-3.5305">
        <ele>2</ele>
        <time>2019-07-17T13:36:47Z</time>
      </trkpt>
      <trkpt lat="47.7915" lon="-3.53045">
        <ele>2</ele>
        <time>2019-07-17T13:36:48Z</time>
      </trkpt>
      <trkpt lat="47.79153" lon="-3.53041">
        <ele>2</ele>
        <time>2019-07-17T13:36:49Z</time>
      </trkpt>
      <trkpt lat="47.79157" lon="-3.53038">
        <ele>2</ele>
        <time>2019-07-17T13:36:50Z</time>
      </trkpt>
      <trkpt lat="47.79161" lon="-3.53036">
        <ele>2</ele>
        <time>2019-07-17T13:36:51Z</time>
      </trkpt>
      <trkpt lat="47.79164" lon="-3.53034">
        <ele>3</ele>
        <time>2019-07-17T13:36:52Z</time>
      </trkpt>
      <trkpt lat="47.79168" lon="-3.53032">
        <ele>3</ele>
        <time>2019-07-17T13:36:53Z</time>
      </trkpt>
      <trkpt lat="47.79173" lon="-3.5303">
        <ele>3</ele>
        <time>2019-07-17T13:36:54Z</time>
      </trkpt>
      <trkpt lat="47.79177" lon="-3.53029">
        <ele>3</ele>
        <time>2019-07-17T13:36:55Z</time>
      </trkpt>
      <trkpt lat="47.7918" lon="-3.53027">
        <ele>3</ele>
        <time>2019-07-17T13:36:56Z</time>
      </trkpt>
      <trkpt lat="47.79184" lon="-3.53025">
        <ele>3</ele>
        <time>2019-07-17T13:36:57Z</time>
      </trkpt>
      <trkpt lat="47.79187" lon="-3.53023">
        <ele>3</ele>
        <time>2019-07-17T13:36:58Z</time>
      </trkpt>
      <trkpt lat="47.7919" lon="-3.53019">
        <ele>2</ele>
        <time>2019-07-17T13:36:59Z</time>
      </trkpt>
      <trkpt lat="47.79193" lon="-3.53013">
        <ele>2</ele>
        <time>2019-07-17T13:37:00Z</time>
      </trkpt>
      <trkpt lat="47.79196" lon="-3.53007">
        <ele>2</ele>
        <time>2019-07-17T13:37:01Z</time>
      </trkpt>
      <trkpt lat="47.79197" lon="-3.52999">
        <ele>2</ele>
        <time>2019-07-17T13:37:02Z</time>
      </trkpt>
      <trkpt lat="47.79198" lon="-3.52992">
        <ele>2</ele>
        <time>2019-07-17T13:37:03Z</time>
      </trkpt>
      <trkpt lat="47.79199" lon="-3.52986">
        <ele>2</ele>
        <time>2019-07-17T13:37:04Z</time>
      </trkpt>
      <trkpt lat="47.79199" lon="-3.5298">
        <ele>2</ele>
        <time>2019-07-17T13:37:05Z</time>
      </trkpt>
      <trkpt lat="47.792" lon="-3.52974">
        <ele>2</ele>
        <time>2019-07-17T13:37:06Z</time>
      </trkpt>
      <trkpt lat="47.79201" lon="-3.52968">
        <ele>2</ele>
        <time>2019-07-17T13:37:07Z</time>
      </trkpt>
      <trkpt lat="47.79202" lon="-3.52961">
        <ele>2</ele>
        <time>2019-07-17T13:37:08Z</time>
      </trkpt>
      <trkpt lat="47.79204" lon="-3.52954">
        <ele>2</ele>
        <time>2019-07-17T13:37:09Z</time>
      </trkpt>
      <trkpt lat="47.79206" lon="-3.52947">
        <ele>1</ele>
        <time>2019-07-17T13:37:10Z</time>
      </trkpt>
      <trkpt lat="47.79207" lon="-3.52941">
        <ele>1</ele>
        <time>2019-07-17T13:37:11Z</time>
      </trkpt>
      <trkpt lat="47.79209" lon="-3.52935">
        <ele>2</ele>
        <time>2019-07-17T13:37:12Z</time>
      </trkpt>
      <trkpt lat="47.79211" lon="-3.5293">
        <ele>2</ele>
        <time>2019-07-17T13:37:13Z</time>
      </trkpt>
      <trkpt lat="47.79213" lon="-3.52925">
        <ele>2</ele>
        <time>2019-07-17T13:37:14Z</time>
      </trkpt>
      <trkpt lat="47.79215" lon="-3.5292">
        <ele>2</ele>
        <time>2019-07-17T13:37:15Z</time>
      </trkpt>
      <trkpt lat="47.79218" lon="-3.52916">
        <ele>2</ele>
        <time>2019-07-17T13:37:16Z</time>
      </trkpt>
      <trkpt lat="47.79222" lon="-3.52912">
        <ele>2</ele>
        <time>2019-07-17T13:37:17Z</time>
      </trkpt>
      <trkpt lat="47.79226" lon="-3.52907">
        <ele>2</ele>
        <time>2019-07-17T13:37:18Z</time>
      </trkpt>
      <trkpt lat="47.79229" lon="-3.52903">
        <ele>2</ele>
        <time>2019-07-17T13:37:19Z</time>
      </trkpt>
      <trkpt lat="47.79233" lon="-3.529">
        <ele>2</ele>
        <time>2019-07-17T13:37:20Z</time>
      </trkpt>
      <trkpt lat="47.79238" lon="-3.52896">
        <ele>2</ele>
        <time>2019-07-17T13:37:21Z</time>
      </trkpt>
      <trkpt lat="47.79242" lon="-3.52892">
        <ele>3</ele>
        <time>2019-07-17T13:37:22Z</time>
      </trkpt>
      <trkpt lat="47.79245" lon="-3.52888">
        <ele>3</ele>
        <time>2019-07-17T13:37:23Z</time>
      </trkpt>
      <trkpt lat="47.79247" lon="-3.52883">
        <ele>3</ele>
        <time>2019-07-17T13:37:24Z</time>
      </trkpt>
      <trkpt lat="47.7925" lon="-3.5288">
        <ele>3</ele>
        <time>2019-07-17T13:37:25Z</time>
      </trkpt>
      <trkpt lat="47.79254" lon="-3.52877">
        <ele>3</ele>
        <time>2019-07-17T13:37:26Z</time>
      </trkpt>
      <trkpt lat="47.79258" lon="-3.52873">
        <ele>3</ele>
        <time>2019-07-17T13:37:27Z</time>
      </trkpt>
      <trkpt lat="47.79261" lon="-3.52871">
        <ele>3</ele>
        <time>2019-07-17T13:37:28Z</time>
      </trkpt>
      <trkpt lat="47.79265" lon="-3.52869">
        <ele>3</ele>
        <time>2019-07-17T13:37:29Z</time>
      </trkpt>
      <trkpt lat="47.79269" lon="-3.52867">
        <ele>3</ele>
        <time>2019-07-17T13:37:30Z</time>
      </trkpt>
      <trkpt lat="47.79273" lon="-3.52866">
        <ele>3</ele>
        <time>2019-07-17T13:37:31Z</time>
      </trkpt>
      <trkpt lat="47.79277" lon="-3.52866">
        <ele>3</ele>
        <time>2019-07-17T13:37:32Z</time>
      </trkpt>
      <trkpt lat="47.79282" lon="-3.52865">
        <ele>4</ele>
        <time>2019-07-17T13:37:33Z</time>
      </trkpt>
      <trkpt lat="47.79286" lon="-3.52865">
        <ele>4</ele>
        <time>2019-07-17T13:37:34Z</time>
      </trkpt>
      <trkpt lat="47.7929" lon="-3.52863">
        <ele>4</ele>
        <time>2019-07-17T13:37:35Z</time>
      </trkpt>
      <trkpt lat="47.79294" lon="-3.52862">
        <ele>4</ele>
        <time>2019-07-17T13:37:36Z</time>
      </trkpt>
      <trkpt lat="47.79297" lon="-3.5286">
        <ele>4</ele>
        <time>2019-07-17T13:37:37Z</time>
      </trkpt>
      <trkpt lat="47.793" lon="-3.52857">
        <ele>4</ele>
        <time>2019-07-17T13:37:38Z</time>
      </trkpt>
      <trkpt lat="47.79304" lon="-3.52854">
        <ele>4</ele>
        <time>2019-07-17T13:37:39Z</time>
      </trkpt>
      <trkpt lat="47.79308" lon="-3.52852">
        <ele>5</ele>
        <time>2019-07-17T13:37:40Z</time>
      </trkpt>
      <trkpt lat="47.79311" lon="-3.52849">
        <ele>5</ele>
        <time>2019-07-17T13:37:41Z</time>
      </trkpt>
      <trkpt lat="47.79315" lon="-3.52845">
        <ele>5</ele>
        <time>2019-07-17T13:37:42Z</time>
      </trkpt>
      <trkpt lat="47.79318" lon="-3.52841">
        <ele>5</ele>
        <time>2019-07-17T13:37:43Z</time>
      </trkpt>
      <trkpt lat="47.79321" lon="-3.52839">
        <ele>5</ele>
        <time>2019-07-17T13:37:44Z</time>
      </trkpt>
      <trkpt lat="47.79325" lon="-3.52837">
        <ele>5</ele>
        <time>2019-07-17T13:37:45Z</time>
      </trkpt>
      <trkpt lat="47.7933" lon="-3.52836">
        <ele>5</ele>
        <time>2019-07-17T13:37:46Z</time>
      </trkpt>
      <trkpt lat="47.79334" lon="-3.52833">
        <ele>5</ele>
        <time>2019-07-17T13:37:47Z</time>
      </trkpt>
      <trkpt lat="47.79337" lon="-3.5283">
        <ele>5</ele>
        <time>2019-07-17T13:37:48Z</time>
      </trkpt>
      <trkpt lat="47.7934" lon="-3.52828">
        <ele>5</ele>
        <time>2019-07-17T13:37:49Z</time>
      </trkpt>
      <trkpt lat="47.79342" lon="-3.52827">
        <ele>5</ele>
        <time>2019-07-17T13:37:50Z</time>
      </trkpt>
      <trkpt lat="47.79345" lon="-3.52826">
        <ele>5</ele>
        <time>2019-07-17T13:37:51Z</time>
      </trkpt>
      <trkpt lat="47.79348" lon="-3.52826">
        <ele>6</ele>
        <time>2019-07-17T13:37:52Z</time>
      </trkpt>
      <trkpt lat="47.79351" lon="-3.52827">
        <ele>6</ele>
        <time>2019-07-17T13:37:53Z</time>
      </trkpt>
      <trkpt lat="47.79354" lon="-3.52827">
        <ele>6</ele>
        <time>2019-07-17T13:37:54Z</time>
      </trkpt>
      <trkpt lat="47.79356" lon="-3.52826">
        <ele>6</ele>
        <time>2019-07-17T13:37:55Z</time>
      </trkpt>
      <trkpt lat="47.7936" lon="-3.52824">
        <ele>6</ele>
        <time>2019-07-17T13:37:56Z</time>
      </trkpt>
      <trkpt lat="47.79363" lon="-3.52821">
        <ele>6</ele>
        <time>2019-07-17T13:37:57Z</time>
      </trkpt>
      <trkpt lat="47.79367" lon="-3.52816">
        <ele>6</ele>
        <time>2019-07-17T13:37:58Z</time>
      </trkpt>
      <trkpt lat="47.7937" lon="-3.52811">
        <ele>6</ele>
        <time>2019-07-17T13:37:59Z</time>
      </trkpt>
      <trkpt lat="47.79373" lon="-3.52806">
        <ele>7</ele>
        <time>2019-07-17T13:38:00Z</time>
      </trkpt>
      <trkpt lat="47.79376" lon="-3.52801">
        <ele>7</ele>
        <time>2019-07-17T13:38:01Z</time>
      </trkpt>
      <trkpt lat="47.79378" lon="-3.52799">
        <ele>7</ele>
        <time>2019-07-17T13:38:02Z</time>
      </trkpt>
      <trkpt lat="47.7938" lon="-3.52797">
        <ele>7</ele>
        <time>2019-07-17T13:38:03Z</time>
      </trkpt>
      <trkpt lat="47.79382" lon="-3.52795">
        <ele>7</ele>
        <time>2019-07-17T13:38:04Z</time>
      </trkpt>
      <trkpt lat="47.79384" lon="-3.52793">
        <ele>7</ele>
        <time>2019-07-17T13:38:05Z</time>
      </trkpt>
      <trkpt lat="47.79385" lon="-3.52793">
        <ele>7</ele>
        <time>2019-07-17T13:38:06Z</time>
      </trkpt>
      <trkpt lat="47.79385" lon="-3.52791">
        <ele>7</ele>
        <time>2019-07-17T13:38:07Z</time>
      </trkpt>
      <trkpt lat="47.79387" lon="-3.5279">
        <ele>7</ele>
        <time>2019-07-17T13:38:08Z</time>
      </trkpt>
      <trkpt lat="47.79387" lon="-3.52789">
        <ele>7</ele>
        <time>2019-07-17T13:38:09Z</time>
      </trkpt>
      <trkpt lat="47.79389" lon="-3.52787">
        <ele>8</ele>
        <time>2019-07-17T13:38:10Z</time>
      </trkpt>
      <trkpt lat="47.79391" lon="-3.52786">
        <ele>8</ele>
        <time>2019-07-17T13:38:11Z</time>
      </trkpt>
      <trkpt lat="47.79393" lon="-3.52784">
        <ele>8</ele>
        <time>2019-07-17T13:38:12Z</time>
      </trkpt>
      <trkpt lat="47.79394" lon="-3.52783">
        <ele>8</ele>
        <time>2019-07-17T13:38:13Z</time>
      </trkpt>
      <trkpt lat="47.79396" lon="-3.52781">
        <ele>8</ele>
        <time>2019-07-17T13:38:14Z</time>
      </trkpt>
      <trkpt lat="47.79398" lon="-3.5278">
        <ele>8</ele>
        <time>2019-07-17T13:38:15Z</time>
      </trkpt>
      <trkpt lat="47.794" lon="-3.52779">
        <ele>8</ele>
        <time>2019-07-17T13:38:16Z</time>
      </trkpt>
      <trkpt lat="47.79402" lon="-3.52778">
        <ele>8</ele>
        <time>2019-07-17T13:38:17Z</time>
      </trkpt>
      <trkpt lat="47.79404" lon="-3.52777">
        <ele>8</ele>
        <time>2019-07-17T13:38:18Z</time>
      </trkpt>
      <trkpt lat="47.79406" lon="-3.52776">
        <ele>8</ele>
        <time>2019-07-17T13:38:19Z</time>
      </trkpt>
      <trkpt lat="47.79408" lon="-3.52776">
        <ele>8</ele>
        <time>2019-07-17T13:38:20Z</time>
      </trkpt>
      <trkpt lat="47.7941" lon="-3.52775">
        <ele>8</ele>
        <time>2019-07-17T13:38:21Z</time>
      </trkpt>
      <trkpt lat="47.79411" lon="-3.52774">
        <ele>8</ele>
        <time>2019-07-17T13:38:22Z</time>
      </trkpt>
      <trkpt lat="47.79413" lon="-3.52774">
        <ele>8</ele>
        <time>2019-07-17T13:38:23Z</time>
      </trkpt>
      <trkpt lat="47.79414" lon="-3.52774">
        <ele>8</ele>
        <time>2019-07-17T13:38:24Z</time>
      </trkpt>
      <trkpt lat="47.79416" lon="-3.52775">
        <ele>8</ele>
        <time>2019-07-17T13:38:25Z</time>
      </trkpt>
      <trkpt lat="47.79418" lon="-3.52776">
        <ele>8</ele>
        <time>2019-07-17T13:38:26Z</time>
      </trkpt>
      <trkpt lat="47.79419" lon="-3.52778">
        <ele>8</ele>
        <time>2019-07-17T13:38:27Z</time>
      </trkpt>
      <trkpt lat="47.7942" lon="-3.52781">
        <ele>9</ele>
        <time>2019-07-17T13:38:28Z</time>
      </trkpt>
      <trkpt lat="47.7942" lon="-3.52783">
        <ele>9</ele>
        <time>2019-07-17T13:38:29Z</time>
      </trkpt>
      <trkpt lat="47.79421" lon="-3.52786">
        <ele>9</ele>
        <time>2019-07-17T13:38:30Z</time>
      </trkpt>
      <trkpt lat="47.79421" lon="-3.52789">
        <ele>9</ele>
        <time>2019-07-17T13:38:31Z</time>
      </trkpt>
      <trkpt lat="47.79422" lon="-3.52792">
        <ele>9</ele>
        <time>2019-07-17T13:38:32Z</time>
      </trkpt>
      <trkpt lat="47.79423" lon="-3.52795">
        <ele>9</ele>
        <time>2019-07-17T13:38:33Z</time>
      </trkpt>
      <trkpt lat="47.79424" lon="-3.52797">
        <ele>9</ele>
        <time>2019-07-17T13:38:34Z</time>
      </trkpt>
      <trkpt lat="47.79424" lon="-3.52799">
        <ele>9</ele>
        <time>2019-07-17T13:38:35Z</time>
      </trkpt>
      <trkpt lat="47.79426" lon="-3.52801">
        <ele>9</ele>
        <time>2019-07-17T13:38:36Z</time>
      </trkpt>
      <trkpt lat="47.79427" lon="-3.52803">
        <ele>9</ele>
        <time>2019-07-17T13:38:37Z</time>
      </trkpt>
      <trkpt lat="47.79428" lon="-3.52805">
        <ele>9</ele>
        <time>2019-07-17T13:38:38Z</time>
      </trkpt>
      <trkpt lat="47.7943" lon="-3.52807">
        <ele>10</ele>
        <time>2019-07-17T13:38:39Z</time>
      </trkpt>
      <trkpt lat="47.79433" lon="-3.52809">
        <ele>10</ele>
        <time>2019-07-17T13:38:40Z</time>
      </trkpt>
      <trkpt lat="47.79434" lon="-3.5281">
        <ele>10</ele>
        <time>2019-07-17T13:38:41Z</time>
      </trkpt>
      <trkpt lat="47.79435" lon="-3.52812">
        <ele>10</ele>
        <time>2019-07-17T13:38:42Z</time>
      </trkpt>
      <trkpt lat="47.79437" lon="-3.52813">
        <ele>10</ele>
        <time>2019-07-17T13:38:43Z</time>
      </trkpt>
      <trkpt lat="47.79439" lon="-3.52814">
        <ele>11</ele>
        <time>2019-07-17T13:38:44Z</time>
      </trkpt>
      <trkpt lat="47.7944" lon="-3.52815">
        <ele>11</ele>
        <time>2019-07-17T13:38:45Z</time>
      </trkpt>
      <trkpt lat="47.79442" lon="-3.52815">
        <ele>11</ele>
        <time>2019-07-17T13:38:46Z</time>
      </trkpt>
      <trkpt lat="47.79443" lon="-3.52815">
        <ele>12</ele>
        <time>2019-07-17T13:38:47Z</time>
      </trkpt>
      <trkpt lat="47.79444" lon="-3.52816">
        <ele>12</ele>
        <time>2019-07-17T13:38:48Z</time>
      </trkpt>
      <trkpt lat="47.79445" lon="-3.52817">
        <ele>12</ele>
        <time>2019-07-17T13:38:49Z</time>
      </trkpt>
      <trkpt lat="47.79446" lon="-3.52817">
        <ele>12</ele>
        <time>2019-07-17T13:38:50Z</time>
      </trkpt>
      <trkpt lat="47.79448" lon="-3.52817">
        <ele>12</ele>
        <time>2019-07-17T13:38:51Z</time>
      </trkpt>
      <trkpt lat="47.7945" lon="-3.52817">
        <ele>13</ele>
        <time>2019-07-17T13:38:52Z</time>
      </trkpt>
      <trkpt lat="47.79453" lon="-3.52819">
        <ele>13</ele>
        <time>2019-07-17T13:38:53Z</time>
      </trkpt>
      <trkpt lat="47.79456" lon="-3.52821">
        <ele>13</ele>
        <time>2019-07-17T13:38:54Z</time>
      </trkpt>
      <trkpt lat="47.79458" lon="-3.52824">
        <ele>13</ele>
        <time>2019-07-17T13:38:55Z</time>
      </trkpt>
      <trkpt lat="47.79461" lon="-3.52827">
        <ele>13</ele>
        <time>2019-07-17T13:38:56Z</time>
      </trkpt>
      <trkpt lat="47.79464" lon="-3.52831">
        <ele>13</ele>
        <time>2019-07-17T13:38:57Z</time>
      </trkpt>
      <trkpt lat="47.79467" lon="-3.52836">
        <ele>13</ele>
        <time>2019-07-17T13:38:58Z</time>
      </trkpt>
      <trkpt lat="47.79471" lon="-3.52839">
        <ele>13</ele>
        <time>2019-07-17T13:38:59Z</time>
      </trkpt>
      <trkpt lat="47.79475" lon="-3.5284">
        <ele>13</ele>
        <time>2019-07-17T13:39:00Z</time>
      </trkpt>
      <trkpt lat="47.79477" lon="-3.52841">
        <ele>13</ele>
        <time>2019-07-17T13:39:01Z</time>
      </trkpt>
      <trkpt lat="47.7948" lon="-3.52841">
        <ele>13</ele>
        <time>2019-07-17T13:39:02Z</time>
      </trkpt>
      <trkpt lat="47.79483" lon="-3.52842">
        <ele>13</ele>
        <time>2019-07-17T13:39:03Z</time>
      </trkpt>
      <trkpt lat="47.79487" lon="-3.52842">
        <ele>13</ele>
        <time>2019-07-17T13:39:04Z</time>
      </trkpt>
      <trkpt lat="47.7949" lon="-3.52843">
        <ele>13</ele>
        <time>2019-07-17T13:39:05Z</time>
      </trkpt>
      <trkpt lat="47.79492" lon="-3.52845">
        <ele>14</ele>
        <time>2019-07-17T13:39:06Z</time>
      </trkpt>
      <trkpt lat="47.79495" lon="-3.52847">
        <ele>14</ele>
        <time>2019-07-17T13:39:07Z</time>
      </trkpt>
      <trkpt lat="47.79497" lon="-3.5285">
        <ele>14</ele>
        <time>2019-07-17T13:39:08Z</time>
      </trkpt>
      <trkpt lat="47.79499" lon="-3.52854">
        <ele>14</ele>
        <time>2019-07-17T13:39:09Z</time>
      </trkpt>
      <trkpt lat="47.79502" lon="-3.52858">
        <ele>14</ele>
        <time>2019-07-17T13:39:10Z</time>
      </trkpt>
      <trkpt lat="47.79503" lon="-3.52861">
        <ele>15</ele>
        <time>2019-07-17T13:39:11Z</time>
      </trkpt>
      <trkpt lat="47.79506" lon="-3.52865">
        <ele>15</ele>
        <time>2019-07-17T13:39:12Z</time>
      </trkpt>
      <trkpt lat="47.79508" lon="-3.52868">
        <ele>15</ele>
        <time>2019-07-17T13:39:13Z</time>
      </trkpt>
      <trkpt lat="47.79512" lon="-3.5287">
        <ele>15</ele>
        <time>2019-07-17T13:39:14Z</time>
      </trkpt>
      <trkpt lat="47.79516" lon="-3.52871">
        <ele>15</ele>
        <time>2019-07-17T13:39:15Z</time>
      </trkpt>
      <trkpt lat="47.79521" lon="-3.52872">
        <ele>15</ele>
        <time>2019-07-17T13:39:16Z</time>
      </trkpt>
      <trkpt lat="47.79526" lon="-3.52872">
        <ele>14</ele>
        <time>2019-07-17T13:39:17Z</time>
      </trkpt>
      <trkpt lat="47.7953" lon="-3.52873">
        <ele>14</ele>
        <time>2019-07-17T13:39:18Z</time>
      </trkpt>
      <trkpt lat="47.79533" lon="-3.52875">
        <ele>14</ele>
        <time>2019-07-17T13:39:19Z</time>
      </trkpt>
      <trkpt lat="47.79535" lon="-3.52877">
        <ele>14</ele>
        <time>2019-07-17T13:39:20Z</time>
      </trkpt>
      <trkpt lat="47.79537" lon="-3.52879">
        <ele>14</ele>
        <time>2019-07-17T13:39:21Z</time>
      </trkpt>
      <trkpt lat="47.79539" lon="-3.5288">
        <ele>14</ele>
        <time>2019-07-17T13:39:22Z</time>
      </trkpt>
      <trkpt lat="47.7954" lon="-3.52881">
        <ele>15</ele>
        <time>2019-07-17T13:39:23Z</time>
      </trkpt>
      <trkpt lat="47.79541" lon="-3.52882">
        <ele>15</ele>
        <time>2019-07-17T13:39:24Z</time>
      </trkpt>
      <trkpt lat="47.79543" lon="-3.52883">
        <ele>15</ele>
        <time>2019-07-17T13:39:25Z</time>
      </trkpt>
      <trkpt lat="47.79544" lon="-3.52884">
        <ele>15</ele>
        <time>2019-07-17T13:39:26Z</time>
      </trkpt>
      <trkpt lat="47.79545" lon="-3.52885">
        <ele>15</ele>
        <time>2019-07-17T13:39:27Z</time>
      </trkpt>
      <trkpt lat="47.79546" lon="-3.52885">
        <ele>15</ele>
        <time>2019-07-17T13:39:28Z</time>
      </trkpt>
      <trkpt lat="47.79547" lon="-3.52887">
        <ele>15</ele>
        <time>2019-07-17T13:39:29Z</time>
      </trkpt>
      <trkpt lat="47.79548" lon="-3.52888">
        <ele>15</ele>
        <time>2019-07-17T13:39:30Z</time>
      </trkpt>
      <trkpt lat="47.79549" lon="-3.52889">
        <ele>15</ele>
        <time>2019-07-17T13:39:31Z</time>
      </trkpt>
      <trkpt lat="47.7955" lon="-3.5289">
        <ele>15</ele>
        <time>2019-07-17T13:39:32Z</time>
      </trkpt>
      <trkpt lat="47.79551" lon="-3.52892">
        <ele>16</ele>
        <time>2019-07-17T13:39:33Z</time>
      </trkpt>
      <trkpt lat="47.79552" lon="-3.52893">
        <ele>16</ele>
        <time>2019-07-17T13:39:34Z</time>
      </trkpt>
      <trkpt lat="47.79553" lon="-3.52894">
        <ele>16</ele>
        <time>2019-07-17T13:39:35Z</time>
      </trkpt>
      <trkpt lat="47.79554" lon="-3.52895">
        <ele>16</ele>
        <time>2019-07-17T13:39:36Z</time>
      </trkpt>
      <trkpt lat="47.79554" lon="-3.52896">
        <ele>16</ele>
        <time>2019-07-17T13:39:37Z</time>
      </trkpt>
      <trkpt lat="47.79555" lon="-3.52897">
        <ele>16</ele>
        <time>2019-07-17T13:39:38Z</time>
      </trkpt>
      <trkpt lat="47.79556" lon="-3.52898">
        <ele>16</ele>
        <time>2019-07-17T13:39:39Z</time>
      </trkpt>
      <trkpt lat="47.79556" lon="-3.52898">
        <ele>16</ele>
        <time>2019-07-17T13:39:40Z</time>
      </trkpt>
      <trkpt lat="47.79557" lon="-3.52899">
        <ele>16</ele>
        <time>2019-07-17T13:39:41Z</time>
      </trkpt>
      <trkpt lat="47.79558" lon="-3.529">
        <ele>16</ele>
        <time>2019-07-17T13:39:42Z</time>
      </trkpt>
      <trkpt lat="47.79558" lon="-3.52902">
        <ele>16</ele>
        <time>2019-07-17T13:39:43Z</time>
      </trkpt>
      <trkpt lat="47.79559" lon="-3.52903">
        <ele>16</ele>
        <time>2019-07-17T13:39:44Z</time>
      </trkpt>
      <trkpt lat="47.79559" lon="-3.52904">
        <ele>16</ele>
        <time>2019-07-17T13:39:45Z</time>
      </trkpt>
      <trkpt lat="47.7956" lon="-3.52905">
        <ele>16</ele>
        <time>2019-07-17T13:39:46Z</time>
      </trkpt>
      <trkpt lat="47.79561" lon="-3.52906">
        <ele>16</ele>
        <time>2019-07-17T13:39:47Z</time>
      </trkpt>
      <trkpt lat="47.79562" lon="-3.52907">
        <ele>17</ele>
        <time>2019-07-17T13:39:48Z</time>
      </trkpt>
      <trkpt lat="47.79562" lon="-3.52908">
        <ele>17</ele>
        <time>2019-07-17T13:39:49Z</time>
      </trkpt>
      <trkpt lat="47.79563" lon="-3.52909">
        <ele>17</ele>
        <time>2019-07-17T13:39:50Z</time>
      </trkpt>
      <trkpt lat="47.79564" lon="-3.5291">
        <ele>17</ele>
        <time>2019-07-17T13:39:51Z</time>
      </trkpt>
      <trkpt lat="47.79564" lon="-3.5291">
        <ele>17</ele>
        <time>2019-07-17T13:39:52Z</time>
      </trkpt>
      <trkpt lat="47.79565" lon="-3.5291">
        <ele>17</ele>
        <time>2019-07-17T13:39:53Z</time>
      </trkpt>
      <trkpt lat="47.79565" lon="-3.5291">
        <ele>17</ele>
        <time>2019-07-17T13:39:54Z</time>
      </trkpt>
      <trkpt lat="47.79565" lon="-3.5291">
        <ele>17</ele>
        <time>2019-07-17T13:39:55Z</time>
      </trkpt>
      <trkpt lat="47.79565" lon="-3.52909">
        <ele>17</ele>
        <time>2019-07-17T13:39:56Z</time>
      </trkpt>
      <trkpt lat="47.79566" lon="-3.52909">
        <ele>17</ele>
        <time>2019-07-17T13:39:57Z</time>
      </trkpt>
      <trkpt lat="47.79566" lon="-3.52909">
        <ele>17</ele>
        <time>2019-07-17T13:39:58Z</time>
      </trkpt>
      <trkpt lat="47.79571" lon="-3.52889">
        <ele>19</ele>
        <time>2019-07-17T13:39:59Z</time>
      </trkpt>
      <trkpt lat="47.79571" lon="-3.52885">
        <ele>19</ele>
        <time>2019-07-17T13:40:00Z</time>
      </trkpt>
      <trkpt lat="47.79571" lon="-3.52882">
        <ele>19</ele>
        <time>2019-07-17T13:40:01Z</time>
      </trkpt>
      <trkpt lat="47.79571" lon="-3.5288">
        <ele>19</ele>
        <time>2019-07-17T13:40:02Z</time>
      </trkpt>
      <trkpt lat="47.79572" lon="-3.52877">
        <ele>19</ele>
        <time>2019-07-17T13:40:03Z</time>
      </trkpt>
      <trkpt lat="47.79571" lon="-3.52874">
        <ele>20</ele>
        <time>2019-07-17T13:40:04Z</time>
      </trkpt>
      <trkpt lat="47.79572" lon="-3.52871">
        <ele>20</ele>
        <time>2019-07-17T13:40:05Z</time>
      </trkpt>
      <trkpt lat="47.79573" lon="-3.52868">
        <ele>20</ele>
        <time>2019-07-17T13:40:06Z</time>
      </trkpt>
      <trkpt lat="47.79574" lon="-3.52864">
        <ele>20</ele>
        <time>2019-07-17T13:40:07Z</time>
      </trkpt>
      <trkpt lat="47.79576" lon="-3.52859">
        <ele>20</ele>
        <time>2019-07-17T13:40:08Z</time>
      </trkpt>
      <trkpt lat="47.79577" lon="-3.52855">
        <ele>19</ele>
        <time>2019-07-17T13:40:09Z</time>
      </trkpt>
      <trkpt lat="47.79579" lon="-3.5285">
        <ele>19</ele>
        <time>2019-07-17T13:40:10Z</time>
      </trkpt>
      <trkpt lat="47.79581" lon="-3.52845">
        <ele>19</ele>
        <time>2019-07-17T13:40:11Z</time>
      </trkpt>
      <trkpt lat="47.79584" lon="-3.52839">
        <ele>19</ele>
        <time>2019-07-17T13:40:12Z</time>
      </trkpt>
      <trkpt lat="47.79587" lon="-3.52836">
        <ele>19</ele>
        <time>2019-07-17T13:40:13Z</time>
      </trkpt>
      <trkpt lat="47.79591" lon="-3.52834">
        <ele>19</ele>
        <time>2019-07-17T13:40:14Z</time>
      </trkpt>
      <trkpt lat="47.79595" lon="-3.52832">
        <ele>19</ele>
        <time>2019-07-17T13:40:15Z</time>
      </trkpt>
      <trkpt lat="47.796" lon="-3.5283">
        <ele>18</ele>
        <time>2019-07-17T13:40:16Z</time>
      </trkpt>
      <trkpt lat="47.79607" lon="-3.52827">
        <ele>18</ele>
        <time>2019-07-17T13:40:17Z</time>
      </trkpt>
      <trkpt lat="47.79613" lon="-3.52823">
        <ele>18</ele>
        <time>2019-07-17T13:40:18Z</time>
      </trkpt>
      <trkpt lat="47.7962" lon="-3.52817">
        <ele>18</ele>
        <time>2019-07-17T13:40:19Z</time>
      </trkpt>
      <trkpt lat="47.79626" lon="-3.52811">
        <ele>18</ele>
        <time>2019-07-17T13:40:20Z</time>
      </trkpt>
      <trkpt lat="47.79633" lon="-3.52806">
        <ele>17</ele>
        <time>2019-07-17T13:40:21Z</time>
      </trkpt>
      <trkpt lat="47.79639" lon="-3.52801">
        <ele>17</ele>
        <time>2019-07-17T13:40:22Z</time>
      </trkpt>
      <trkpt lat="47.79644" lon="-3.52797">
        <ele>17</ele>
        <time>2019-07-17T13:40:23Z</time>
      </trkpt>
      <trkpt lat="47.79649" lon="-3.52794">
        <ele>17</ele>
        <time>2019-07-17T13:40:24Z</time>
      </trkpt>
      <trkpt lat="47.79654" lon="-3.52792">
        <ele>17</ele>
        <time>2019-07-17T13:40:25Z</time>
      </trkpt>
      <trkpt lat="47.79657" lon="-3.5279">
        <ele>16</ele>
        <time>2019-07-17T13:40:26Z</time>
      </trkpt>
      <trkpt lat="47.7966" lon="-3.52789">
        <ele>16</ele>
        <time>2019-07-17T13:40:27Z</time>
      </trkpt>
      <trkpt lat="47.79662" lon="-3.52789">
        <ele>16</ele>
        <time>2019-07-17T13:40:28Z</time>
      </trkpt>
      <trkpt lat="47.79665" lon="-3.52789">
        <ele>16</ele>
        <time>2019-07-17T13:40:29Z</time>
      </trkpt>
      <trkpt lat="47.79667" lon="-3.52788">
        <ele>17</ele>
        <time>2019-07-17T13:40:30Z</time>
      </trkpt>
      <trkpt lat="47.79668" lon="-3.52788">
        <ele>17</ele>
        <time>2019-07-17T13:40:31Z</time>
      </trkpt>
      <trkpt lat="47.79669" lon="-3.52788">
        <ele>17</ele>
        <time>2019-07-17T13:40:32Z</time>
      </trkpt>
      <trkpt lat="47.79671" lon="-3.52788">
        <ele>17</ele>
        <time>2019-07-17T13:40:33Z</time>
      </trkpt>
      <trkpt lat="47.79672" lon="-3.52788">
        <ele>17</ele>
        <time>2019-07-17T13:40:34Z</time>
      </trkpt>
      <trkpt lat="47.79673" lon="-3.52787">
        <ele>17</ele>
        <time>2019-07-17T13:40:35Z</time>
      </trkpt>
      <trkpt lat="47.79673" lon="-3.52787">
        <ele>17</ele>
        <time>2019-07-17T13:40:36Z</time>
      </trkpt>
      <trkpt lat="47.79675" lon="-3.52784">
        <ele>17</ele>
        <time>2019-07-17T13:40:37Z</time>
      </trkpt>
      <trkpt lat="47.79676" lon="-3.52782">
        <ele>17</ele>
        <time>2019-07-17T13:40:38Z</time>
      </trkpt>
      <trkpt lat="47.79677" lon="-3.52782">
        <ele>17</ele>
        <time>2019-07-17T13:40:39Z</time>
      </trkpt>
      <trkpt lat="47.79678" lon="-3.52781">
        <ele>17</ele>
        <time>2019-07-17T13:40:40Z</time>
      </trkpt>
      <trkpt lat="47.79678" lon="-3.52781">
        <ele>17</ele>
        <time>2019-07-17T13:40:41Z</time>
      </trkpt>
      <trkpt lat="47.79679" lon="-3.52782">
        <ele>17</ele>
        <time>2019-07-17T13:40:42Z</time>
      </trkpt>
      <trkpt lat="47.79679" lon="-3.52781">
        <ele>18</ele>
        <time>2019-07-17T13:40:43Z</time>
      </trkpt>
      <trkpt lat="47.7968" lon="-3.52781">
        <ele>18</ele>
        <time>2019-07-17T13:40:44Z</time>
      </trkpt>
      <trkpt lat="47.79694" lon="-3.52779">
        <ele>20</ele>
        <time>2019-07-17T13:40:45Z</time>
      </trkpt>
      <trkpt lat="47.79695" lon="-3.52779">
        <ele>21</ele>
        <time>2019-07-17T13:40:46Z</time>
      </trkpt>
      <trkpt lat="47.79695" lon="-3.52779">
        <ele>21</ele>
        <time>2019-07-17T13:40:47Z</time>
      </trkpt>
      <trkpt lat="47.79696" lon="-3.52779">
        <ele>21</ele>
        <time>2019-07-17T13:40:48Z</time>
      </trkpt>
      <trkpt lat="47.797" lon="-3.52776">
        <ele>22</ele>
        <time>2019-07-17T13:40:49Z</time>
      </trkpt>
      <trkpt lat="47.79701" lon="-3.52775">
        <ele>22</ele>
        <time>2019-07-17T13:40:50Z</time>
      </trkpt>
      <trkpt lat="47.79702" lon="-3.52773">
        <ele>22</ele>
        <time>2019-07-17T13:40:51Z</time>
      </trkpt>
      <trkpt lat="47.79705" lon="-3.52771">
        <ele>23</ele>
        <time>2019-07-17T13:40:52Z</time>
      </trkpt>
      <trkpt lat="47.79707" lon="-3.52768">
        <ele>23</ele>
        <time>2019-07-17T13:40:53Z</time>
      </trkpt>
      <trkpt lat="47.7971" lon="-3.52765">
        <ele>23</ele>
        <time>2019-07-17T13:40:54Z</time>
      </trkpt>
      <trkpt lat="47.79712" lon="-3.52761">
        <ele>23</ele>
        <time>2019-07-17T13:40:55Z</time>
      </trkpt>
      <trkpt lat="47.79713" lon="-3.52758">
        <ele>23</ele>
        <time>2019-07-17T13:40:56Z</time>
      </trkpt>
      <trkpt lat="47.79715" lon="-3.52754">
        <ele>23</ele>
        <time>2019-07-17T13:40:57Z</time>
      </trkpt>
      <trkpt lat="47.79717" lon="-3.52751">
        <ele>22</ele>
        <time>2019-07-17T13:40:58Z</time>
      </trkpt>
      <trkpt lat="47.79718" lon="-3.52747">
        <ele>22</ele>
        <time>2019-07-17T13:40:59Z</time>
      </trkpt>
      <trkpt lat="47.7972" lon="-3.52743">
        <ele>22</ele>
        <time>2019-07-17T13:41:00Z</time>
      </trkpt>
      <trkpt lat="47.79721" lon="-3.52739">
        <ele>22</ele>
        <time>2019-07-17T13:41:01Z</time>
      </trkpt>
      <trkpt lat="47.79721" lon="-3.52735">
        <ele>22</ele>
        <time>2019-07-17T13:41:02Z</time>
      </trkpt>
      <trkpt lat="47.79722" lon="-3.52732">
        <ele>22</ele>
        <time>2019-07-17T13:41:03Z</time>
      </trkpt>
      <trkpt lat="47.79723" lon="-3.52728">
        <ele>22</ele>
        <time>2019-07-17T13:41:04Z</time>
      </trkpt>
      <trkpt lat="47.79724" lon="-3.52722">
        <ele>22</ele>
        <time>2019-07-17T13:41:05Z</time>
      </trkpt>
      <trkpt lat="47.79725" lon="-3.52716">
        <ele>22</ele>
        <time>2019-07-17T13:41:06Z</time>
      </trkpt>
      <trkpt lat="47.79727" lon="-3.52709">
        <ele>22</ele>
        <time>2019-07-17T13:41:07Z</time>
      </trkpt>
      <trkpt lat="47.79729" lon="-3.52702">
        <ele>21</ele>
        <time>2019-07-17T13:41:08Z</time>
      </trkpt>
      <trkpt lat="47.79732" lon="-3.52695">
        <ele>21</ele>
        <time>2019-07-17T13:41:09Z</time>
      </trkpt>
      <trkpt lat="47.79734" lon="-3.52688">
        <ele>21</ele>
        <time>2019-07-17T13:41:10Z</time>
      </trkpt>
      <trkpt lat="47.79736" lon="-3.52683">
        <ele>21</ele>
        <time>2019-07-17T13:41:11Z</time>
      </trkpt>
      <trkpt lat="47.79737" lon="-3.52677">
        <ele>21</ele>
        <time>2019-07-17T13:41:12Z</time>
      </trkpt>
      <trkpt lat="47.79739" lon="-3.52672">
        <ele>21</ele>
        <time>2019-07-17T13:41:13Z</time>
      </trkpt>
      <trkpt lat="47.79742" lon="-3.52666">
        <ele>20</ele>
        <time>2019-07-17T13:41:14Z</time>
      </trkpt>
      <trkpt lat="47.79745" lon="-3.52658">
        <ele>20</ele>
        <time>2019-07-17T13:41:15Z</time>
      </trkpt>
      <trkpt lat="47.79748" lon="-3.5265">
        <ele>20</ele>
        <time>2019-07-17T13:41:16Z</time>
      </trkpt>
      <trkpt lat="47.79752" lon="-3.5264">
        <ele>20</ele>
        <time>2019-07-17T13:41:17Z</time>
      </trkpt>
      <trkpt lat="47.79756" lon="-3.52631">
        <ele>19</ele>
        <time>2019-07-17T13:41:18Z</time>
      </trkpt>
      <trkpt lat="47.79758" lon="-3.52622">
        <ele>19</ele>
        <time>2019-07-17T13:41:19Z</time>
      </trkpt>
      <trkpt lat="47.79759" lon="-3.52612">
        <ele>19</ele>
        <time>2019-07-17T13:41:20Z</time>
      </trkpt>
      <trkpt lat="47.79758" lon="-3.52603">
        <ele>18</ele>
        <time>2019-07-17T13:41:21Z</time>
      </trkpt>
      <trkpt lat="47.79756" lon="-3.52593">
        <ele>18</ele>
        <time>2019-07-17T13:41:22Z</time>
      </trkpt>
      <trkpt lat="47.79756" lon="-3.52584">
        <ele>18</ele>
        <time>2019-07-17T13:41:23Z</time>
      </trkpt>
      <trkpt lat="47.79757" lon="-3.52574">
        <ele>17</ele>
        <time>2019-07-17T13:41:24Z</time>
      </trkpt>
      <trkpt lat="47.79758" lon="-3.52564">
        <ele>17</ele>
        <time>2019-07-17T13:41:25Z</time>
      </trkpt>
      <trkpt lat="47.7976" lon="-3.52554">
        <ele>16</ele>
        <time>2019-07-17T13:41:26Z</time>
      </trkpt>
      <trkpt lat="47.79763" lon="-3.52544">
        <ele>16</ele>
        <time>2019-07-17T13:41:27Z</time>
      </trkpt>
      <trkpt lat="47.79765" lon="-3.52535">
        <ele>15</ele>
        <time>2019-07-17T13:41:28Z</time>
      </trkpt>
      <trkpt lat="47.79768" lon="-3.52527">
        <ele>15</ele>
        <time>2019-07-17T13:41:29Z</time>
      </trkpt>
      <trkpt lat="47.79769" lon="-3.52518">
        <ele>15</ele>
        <time>2019-07-17T13:41:30Z</time>
      </trkpt>
      <trkpt lat="47.79771" lon="-3.5251">
        <ele>14</ele>
        <time>2019-07-17T13:41:31Z</time>
      </trkpt>
      <trkpt lat="47.79773" lon="-3.52501">
        <ele>14</ele>
        <time>2019-07-17T13:41:32Z</time>
      </trkpt>
      <trkpt lat="47.79774" lon="-3.52493">
        <ele>14</ele>
        <time>2019-07-17T13:41:33Z</time>
      </trkpt>
      <trkpt lat="47.79776" lon="-3.52485">
        <ele>14</ele>
        <time>2019-07-17T13:41:34Z</time>
      </trkpt>
      <trkpt lat="47.79777" lon="-3.52478">
        <ele>14</ele>
        <time>2019-07-17T13:41:35Z</time>
      </trkpt>
      <trkpt lat="47.79779" lon="-3.52471">
        <ele>14</ele>
        <time>2019-07-17T13:41:36Z</time>
      </trkpt>
      <trkpt lat="47.7978" lon="-3.52465">
        <ele>14</ele>
        <time>2019-07-17T13:41:37Z</time>
      </trkpt>
      <trkpt lat="47.79782" lon="-3.52461">
        <ele>13</ele>
        <time>2019-07-17T13:41:38Z</time>
      </trkpt>
      <trkpt lat="47.79783" lon="-3.52456">
        <ele>13</ele>
        <time>2019-07-17T13:41:39Z</time>
      </trkpt>
      <trkpt lat="47.79784" lon="-3.52451">
        <ele>13</ele>
        <time>2019-07-17T13:41:40Z</time>
      </trkpt>
      <trkpt lat="47.79786" lon="-3.52446">
        <ele>13</ele>
        <time>2019-07-17T13:41:41Z</time>
      </trkpt>
      <trkpt lat="47.79788" lon="-3.5244">
        <ele>13</ele>
        <time>2019-07-17T13:41:42Z</time>
      </trkpt>
      <trkpt lat="47.79789" lon="-3.52435">
        <ele>13</ele>
        <time>2019-07-17T13:41:43Z</time>
      </trkpt>
      <trkpt lat="47.79791" lon="-3.5243">
        <ele>13</ele>
        <time>2019-07-17T13:41:44Z</time>
      </trkpt>
      <trkpt lat="47.79792" lon="-3.52425">
        <ele>13</ele>
        <time>2019-07-17T13:41:45Z</time>
      </trkpt>
      <trkpt lat="47.79794" lon="-3.5242">
        <ele>13</ele>
        <time>2019-07-17T13:41:46Z</time>
      </trkpt>
      <trkpt lat="47.79795" lon="-3.52415">
        <ele>13</ele>
        <time>2019-07-17T13:41:47Z</time>
      </trkpt>
      <trkpt lat="47.79797" lon="-3.5241">
        <ele>13</ele>
        <time>2019-07-17T13:41:48Z</time>
      </trkpt>
      <trkpt lat="47.79799" lon="-3.52406">
        <ele>13</ele>
        <time>2019-07-17T13:41:49Z</time>
      </trkpt>
      <trkpt lat="47.798" lon="-3.52403">
        <ele>13</ele>
        <time>2019-07-17T13:41:50Z</time>
      </trkpt>
      <trkpt lat="47.798" lon="-3.52402">
        <ele>13</ele>
        <time>2019-07-17T13:41:51Z</time>
      </trkpt>
      <trkpt lat="47.798" lon="-3.52402">
        <ele>13</ele>
        <time>2019-07-17T13:41:52Z</time>
      </trkpt>
      <trkpt lat="47.798" lon="-3.52401">
        <ele>13</ele>
        <time>2019-07-17T13:41:53Z</time>
      </trkpt>
      <trkpt lat="47.798" lon="-3.52393">
        <ele>13</ele>
        <time>2019-07-17T13:41:54Z</time>
      </trkpt>
      <trkpt lat="47.798" lon="-3.52391">
        <ele>13</ele>
        <time>2019-07-17T13:41:55Z</time>
      </trkpt>
      <trkpt lat="47.79801" lon="-3.52387">
        <ele>13</ele>
        <time>2019-07-17T13:41:56Z</time>
      </trkpt>
      <trkpt lat="47.79801" lon="-3.52384">
        <ele>13</ele>
        <time>2019-07-17T13:41:57Z</time>
      </trkpt>
      <trkpt lat="47.79802" lon="-3.5238">
        <ele>13</ele>
        <time>2019-07-17T13:41:58Z</time>
      </trkpt>
      <trkpt lat="47.79804" lon="-3.52376">
        <ele>13</ele>
        <time>2019-07-17T13:41:59Z</time>
      </trkpt>
      <trkpt lat="47.79805" lon="-3.52371">
        <ele>13</ele>
        <time>2019-07-17T13:42:00Z</time>
      </trkpt>
      <trkpt lat="47.79807" lon="-3.52367">
        <ele>13</ele>
        <time>2019-07-17T13:42:01Z</time>
      </trkpt>
      <trkpt lat="47.79809" lon="-3.52363">
        <ele>13</ele>
        <time>2019-07-17T13:42:02Z</time>
      </trkpt>
      <trkpt lat="47.79811" lon="-3.52358">
        <ele>13</ele>
        <time>2019-07-17T13:42:03Z</time>
      </trkpt>
      <trkpt lat="47.79813" lon="-3.52354">
        <ele>13</ele>
        <time>2019-07-17T13:42:04Z</time>
      </trkpt>
      <trkpt lat="47.79815" lon="-3.52349">
        <ele>13</ele>
        <time>2019-07-17T13:42:05Z</time>
      </trkpt>
      <trkpt lat="47.79817" lon="-3.52345">
        <ele>12</ele>
        <time>2019-07-17T13:42:06Z</time>
      </trkpt>
      <trkpt lat="47.7982" lon="-3.52341">
        <ele>12</ele>
        <time>2019-07-17T13:42:07Z</time>
      </trkpt>
      <trkpt lat="47.79822" lon="-3.52337">
        <ele>12</ele>
        <time>2019-07-17T13:42:08Z</time>
      </trkpt>
      <trkpt lat="47.79824" lon="-3.52333">
        <ele>12</ele>
        <time>2019-07-17T13:42:09Z</time>
      </trkpt>
      <trkpt lat="47.79826" lon="-3.52329">
        <ele>12</ele>
        <time>2019-07-17T13:42:10Z</time>
      </trkpt>
      <trkpt lat="47.79828" lon="-3.52325">
        <ele>12</ele>
        <time>2019-07-17T13:42:11Z</time>
      </trkpt>
      <trkpt lat="47.79831" lon="-3.52321">
        <ele>13</ele>
        <time>2019-07-17T13:42:12Z</time>
      </trkpt>
      <trkpt lat="47.79834" lon="-3.52318">
        <ele>13</ele>
        <time>2019-07-17T13:42:13Z</time>
      </trkpt>
      <trkpt lat="47.79837" lon="-3.52314">
        <ele>13</ele>
        <time>2019-07-17T13:42:14Z</time>
      </trkpt>
      <trkpt lat="47.79839" lon="-3.5231">
        <ele>13</ele>
        <time>2019-07-17T13:42:15Z</time>
      </trkpt>
      <trkpt lat="47.7984" lon="-3.52305">
        <ele>13</ele>
        <time>2019-07-17T13:42:16Z</time>
      </trkpt>
      <trkpt lat="47.7984" lon="-3.523">
        <ele>13</ele>
        <time>2019-07-17T13:42:17Z</time>
      </trkpt>
      <trkpt lat="47.79837" lon="-3.52298">
        <ele>13</ele>
        <time>2019-07-17T13:42:18Z</time>
      </trkpt>
      <trkpt lat="47.79834" lon="-3.52298">
        <ele>13</ele>
        <time>2019-07-17T13:42:19Z</time>
      </trkpt>
      <trkpt lat="47.7983" lon="-3.52299">
        <ele>13</ele>
        <time>2019-07-17T13:42:20Z</time>
      </trkpt>
      <trkpt lat="47.79826" lon="-3.523">
        <ele>13</ele>
        <time>2019-07-17T13:42:21Z</time>
      </trkpt>
      <trkpt lat="47.79822" lon="-3.52301">
        <ele>13</ele>
        <time>2019-07-17T13:42:22Z</time>
      </trkpt>
      <trkpt lat="47.79817" lon="-3.52302">
        <ele>13</ele>
        <time>2019-07-17T13:42:23Z</time>
      </trkpt>
      <trkpt lat="47.79813" lon="-3.52304">
        <ele>14</ele>
        <time>2019-07-17T13:42:24Z</time>
      </trkpt>
      <trkpt lat="47.79808" lon="-3.52305">
        <ele>14</ele>
        <time>2019-07-17T13:42:25Z</time>
      </trkpt>
      <trkpt lat="47.79804" lon="-3.52306">
        <ele>14</ele>
        <time>2019-07-17T13:42:26Z</time>
      </trkpt>
      <trkpt lat="47.79799" lon="-3.52308">
        <ele>14</ele>
        <time>2019-07-17T13:42:27Z</time>
      </trkpt>
      <trkpt lat="47.79794" lon="-3.5231">
        <ele>14</ele>
        <time>2019-07-17T13:42:28Z</time>
      </trkpt>
      <trkpt lat="47.7979" lon="-3.52311">
        <ele>14</ele>
        <time>2019-07-17T13:42:29Z</time>
      </trkpt>
      <trkpt lat="47.79786" lon="-3.52313">
        <ele>15</ele>
        <time>2019-07-17T13:42:30Z</time>
      </trkpt>
      <trkpt lat="47.79782" lon="-3.52314">
        <ele>15</ele>
        <time>2019-07-17T13:42:31Z</time>
      </trkpt>
      <trkpt lat="47.79777" lon="-3.52316">
        <ele>15</ele>
        <time>2019-07-17T13:42:32Z</time>
      </trkpt>
      <trkpt lat="47.79773" lon="-3.52318">
        <ele>15</ele>
        <time>2019-07-17T13:42:33Z</time>
      </trkpt>
      <trkpt lat="47.79768" lon="-3.5232">
        <ele>15</ele>
        <time>2019-07-17T13:42:34Z</time>
      </trkpt>
      <trkpt lat="47.79764" lon="-3.52321">
        <ele>16</ele>
        <time>2019-07-17T13:42:35Z</time>
      </trkpt>
      <trkpt lat="47.79759" lon="-3.52323">
        <ele>16</ele>
        <time>2019-07-17T13:42:36Z</time>
      </trkpt>
      <trkpt lat="47.79754" lon="-3.52325">
        <ele>16</ele>
        <time>2019-07-17T13:42:37Z</time>
      </trkpt>
      <trkpt lat="47.79749" lon="-3.52327">
        <ele>16</ele>
        <time>2019-07-17T13:42:38Z</time>
      </trkpt>
      <trkpt lat="47.79745" lon="-3.52328">
        <ele>16</ele>
        <time>2019-07-17T13:42:39Z</time>
      </trkpt>
      <trkpt lat="47.7974" lon="-3.5233">
        <ele>17</ele>
        <time>2019-07-17T13:42:40Z</time>
      </trkpt>
      <trkpt lat="47.79735" lon="-3.52331">
        <ele>17</ele>
        <time>2019-07-17T13:42:41Z</time>
      </trkpt>
      <trkpt lat="47.7973" lon="-3.52333">
        <ele>17</ele>
        <time>2019-07-17T13:42:42Z</time>
      </trkpt>
      <trkpt lat="47.79725" lon="-3.52335">
        <ele>17</ele>
        <time>2019-07-17T13:42:43Z</time>
      </trkpt>
      <trkpt lat="47.79721" lon="-3.52337">
        <ele>17</ele>
        <time>2019-07-17T13:42:44Z</time>
      </trkpt>
      <trkpt lat="47.79716" lon="-3.52338">
        <ele>17</ele>
        <time>2019-07-17T13:42:45Z</time>
      </trkpt>
      <trkpt lat="47.7971" lon="-3.5234">
        <ele>18</ele>
        <time>2019-07-17T13:42:46Z</time>
      </trkpt>
      <trkpt lat="47.79705" lon="-3.52342">
        <ele>18</ele>
        <time>2019-07-17T13:42:47Z</time>
      </trkpt>
      <trkpt lat="47.797" lon="-3.52344">
        <ele>18</ele>
        <time>2019-07-17T13:42:48Z</time>
      </trkpt>
      <trkpt lat="47.79695" lon="-3.52346">
        <ele>18</ele>
        <time>2019-07-17T13:42:49Z</time>
      </trkpt>
      <trkpt lat="47.7969" lon="-3.52348">
        <ele>18</ele>
        <time>2019-07-17T13:42:50Z</time>
      </trkpt>
      <trkpt lat="47.79685" lon="-3.5235">
        <ele>18</ele>
        <time>2019-07-17T13:42:51Z</time>
      </trkpt>
      <trkpt lat="47.7968" lon="-3.52352">
        <ele>18</ele>
        <time>2019-07-17T13:42:52Z</time>
      </trkpt>
      <trkpt lat="47.79675" lon="-3.52354">
        <ele>18</ele>
        <time>2019-07-17T13:42:53Z</time>
      </trkpt>
      <trkpt lat="47.79669" lon="-3.52356">
        <ele>18</ele>
        <time>2019-07-17T13:42:54Z</time>
      </trkpt>
      <trkpt lat="47.79664" lon="-3.52358">
        <ele>19</ele>
        <time>2019-07-17T13:42:55Z</time>
      </trkpt>
      <trkpt lat="47.79658" lon="-3.5236">
        <ele>19</ele>
        <time>2019-07-17T13:42:56Z</time>
      </trkpt>
      <trkpt lat="47.79653" lon="-3.52362">
        <ele>19</ele>
        <time>2019-07-17T13:42:57Z</time>
      </trkpt>
      <trkpt lat="47.79647" lon="-3.52364">
        <ele>19</ele>
        <time>2019-07-17T13:42:58Z</time>
      </trkpt>
      <trkpt lat="47.79641" lon="-3.52366">
        <ele>19</ele>
        <time>2019-07-17T13:42:59Z</time>
      </trkpt>
      <trkpt lat="47.79636" lon="-3.52368">
        <ele>19</ele>
        <time>2019-07-17T13:43:00Z</time>
      </trkpt>
      <trkpt lat="47.7963" lon="-3.5237">
        <ele>19</ele>
        <time>2019-07-17T13:43:01Z</time>
      </trkpt>
      <trkpt lat="47.79625" lon="-3.52372">
        <ele>19</ele>
        <time>2019-07-17T13:43:02Z</time>
      </trkpt>
      <trkpt lat="47.79619" lon="-3.52374">
        <ele>19</ele>
        <time>2019-07-17T13:43:03Z</time>
      </trkpt>
      <trkpt lat="47.79613" lon="-3.52376">
        <ele>19</ele>
        <time>2019-07-17T13:43:04Z</time>
      </trkpt>
      <trkpt lat="47.79608" lon="-3.52378">
        <ele>19</ele>
        <time>2019-07-17T13:43:05Z</time>
      </trkpt>
      <trkpt lat="47.79602" lon="-3.5238">
        <ele>19</ele>
        <time>2019-07-17T13:43:06Z</time>
      </trkpt>
      <trkpt lat="47.79597" lon="-3.52382">
        <ele>19</ele>
        <time>2019-07-17T13:43:07Z</time>
      </trkpt>
      <trkpt lat="47.79592" lon="-3.52384">
        <ele>19</ele>
        <time>2019-07-17T13:43:08Z</time>
      </trkpt>
      <trkpt lat="47.79587" lon="-3.52386">
        <ele>20</ele>
        <time>2019-07-17T13:43:09Z</time>
      </trkpt>
      <trkpt lat="47.79581" lon="-3.52388">
        <ele>20</ele>
        <time>2019-07-17T13:43:10Z</time>
      </trkpt>
      <trkpt lat="47.79577" lon="-3.5239">
        <ele>20</ele>
        <time>2019-07-17T13:43:11Z</time>
      </trkpt>
      <trkpt lat="47.79571" lon="-3.52391">
        <ele>20</ele>
        <time>2019-07-17T13:43:12Z</time>
      </trkpt>
      <trkpt lat="47.79567" lon="-3.52393">
        <ele>20</ele>
        <time>2019-07-17T13:43:13Z</time>
      </trkpt>
      <trkpt lat="47.79562" lon="-3.52395">
        <ele>21</ele>
        <time>2019-07-17T13:43:14Z</time>
      </trkpt>
      <trkpt lat="47.79557" lon="-3.52396">
        <ele>21</ele>
        <time>2019-07-17T13:43:15Z</time>
      </trkpt>
      <trkpt lat="47.79553" lon="-3.52398">
        <ele>21</ele>
        <time>2019-07-17T13:43:16Z</time>
      </trkpt>
      <trkpt lat="47.79548" lon="-3.524">
        <ele>21</ele>
        <time>2019-07-17T13:43:17Z</time>
      </trkpt>
      <trkpt lat="47.79544" lon="-3.52402">
        <ele>21</ele>
        <time>2019-07-17T13:43:18Z</time>
      </trkpt>
      <trkpt lat="47.79539" lon="-3.52403">
        <ele>21</ele>
        <time>2019-07-17T13:43:19Z</time>
      </trkpt>
      <trkpt lat="47.79535" lon="-3.52405">
        <ele>22</ele>
        <time>2019-07-17T13:43:20Z</time>
      </trkpt>
      <trkpt lat="47.7953" lon="-3.52406">
        <ele>22</ele>
        <time>2019-07-17T13:43:21Z</time>
      </trkpt>
      <trkpt lat="47.79526" lon="-3.52408">
        <ele>22</ele>
        <time>2019-07-17T13:43:22Z</time>
      </trkpt>
      <trkpt lat="47.79522" lon="-3.52409">
        <ele>22</ele>
        <time>2019-07-17T13:43:23Z</time>
      </trkpt>
      <trkpt lat="47.79517" lon="-3.5241">
        <ele>22</ele>
        <time>2019-07-17T13:43:24Z</time>
      </trkpt>
      <trkpt lat="47.79513" lon="-3.52412">
        <ele>22</ele>
        <time>2019-07-17T13:43:25Z</time>
      </trkpt>
      <trkpt lat="47.79509" lon="-3.52413">
        <ele>23</ele>
        <time>2019-07-17T13:43:26Z</time>
      </trkpt>
      <trkpt lat="47.79505" lon="-3.52415">
        <ele>23</ele>
        <time>2019-07-17T13:43:27Z</time>
      </trkpt>
      <trkpt lat="47.79501" lon="-3.52416">
        <ele>23</ele>
        <time>2019-07-17T13:43:28Z</time>
      </trkpt>
      <trkpt lat="47.79496" lon="-3.52417">
        <ele>23</ele>
        <time>2019-07-17T13:43:29Z</time>
      </trkpt>
      <trkpt lat="47.79492" lon="-3.52419">
        <ele>24</ele>
        <time>2019-07-17T13:43:30Z</time>
      </trkpt>
      <trkpt lat="47.79488" lon="-3.5242">
        <ele>24</ele>
        <time>2019-07-17T13:43:31Z</time>
      </trkpt>
      <trkpt lat="47.79484" lon="-3.52421">
        <ele>24</ele>
        <time>2019-07-17T13:43:32Z</time>
      </trkpt>
      <trkpt lat="47.7948" lon="-3.52423">
        <ele>24</ele>
        <time>2019-07-17T13:43:33Z</time>
      </trkpt>
      <trkpt lat="47.79476" lon="-3.52424">
        <ele>25</ele>
        <time>2019-07-17T13:43:34Z</time>
      </trkpt>
      <trkpt lat="47.79472" lon="-3.52425">
        <ele>25</ele>
        <time>2019-07-17T13:43:35Z</time>
      </trkpt>
      <trkpt lat="47.79467" lon="-3.52425">
        <ele>25</ele>
        <time>2019-07-17T13:43:36Z</time>
      </trkpt>
      <trkpt lat="47.79463" lon="-3.52426">
        <ele>26</ele>
        <time>2019-07-17T13:43:37Z</time>
      </trkpt>
      <trkpt lat="47.79459" lon="-3.52427">
        <ele>26</ele>
        <time>2019-07-17T13:43:38Z</time>
      </trkpt>
      <trkpt lat="47.79455" lon="-3.52428">
        <ele>27</ele>
        <time>2019-07-17T13:43:39Z</time>
      </trkpt>
      <trkpt lat="47.79451" lon="-3.52428">
        <ele>27</ele>
        <time>2019-07-17T13:43:40Z</time>
      </trkpt>
      <trkpt lat="47.79447" lon="-3.52429">
        <ele>28</ele>
        <time>2019-07-17T13:43:41Z</time>
      </trkpt>
      <trkpt lat="47.79444" lon="-3.52429">
        <ele>28</ele>
        <time>2019-07-17T13:43:42Z</time>
      </trkpt>
      <trkpt lat="47.7944" lon="-3.52429">
        <ele>29</ele>
        <time>2019-07-17T13:43:43Z</time>
      </trkpt>
      <trkpt lat="47.79436" lon="-3.5243">
        <ele>29</ele>
        <time>2019-07-17T13:43:44Z</time>
      </trkpt>
      <trkpt lat="47.79432" lon="-3.5243">
        <ele>30</ele>
        <time>2019-07-17T13:43:45Z</time>
      </trkpt>
      <trkpt lat="47.79428" lon="-3.5243">
        <ele>30</ele>
        <time>2019-07-17T13:43:46Z</time>
      </trkpt>
      <trkpt lat="47.79424" lon="-3.5243">
        <ele>30</ele>
        <time>2019-07-17T13:43:47Z</time>
      </trkpt>
      <trkpt lat="47.7942" lon="-3.5243">
        <ele>31</ele>
        <time>2019-07-17T13:43:48Z</time>
      </trkpt>
      <trkpt lat="47.79417" lon="-3.5243">
        <ele>31</ele>
        <time>2019-07-17T13:43:49Z</time>
      </trkpt>
      <trkpt lat="47.79413" lon="-3.5243">
        <ele>32</ele>
        <time>2019-07-17T13:43:50Z</time>
      </trkpt>
      <trkpt lat="47.79409" lon="-3.5243">
        <ele>32</ele>
        <time>2019-07-17T13:43:51Z</time>
      </trkpt>
      <trkpt lat="47.79405" lon="-3.5243">
        <ele>32</ele>
        <time>2019-07-17T13:43:52Z</time>
      </trkpt>
      <trkpt lat="47.79401" lon="-3.5243">
        <ele>33</ele>
        <time>2019-07-17T13:43:53Z</time>
      </trkpt>
      <trkpt lat="47.79397" lon="-3.52429">
        <ele>33</ele>
        <time>2019-07-17T13:43:54Z</time>
      </trkpt>
      <trkpt lat="47.79394" lon="-3.52429">
        <ele>34</ele>
        <time>2019-07-17T13:43:55Z</time>
      </trkpt>
      <trkpt lat="47.7939" lon="-3.52429">
        <ele>34</ele>
        <time>2019-07-17T13:43:56Z</time>
      </trkpt>
      <trkpt lat="47.79386" lon="-3.52429">
        <ele>34</ele>
        <time>2019-07-17T13:43:57Z</time>
      </trkpt>
      <trkpt lat="47.79382" lon="-3.52428">
        <ele>35</ele>
        <time>2019-07-17T13:43:58Z</time>
      </trkpt>
      <trkpt lat="47.79378" lon="-3.52428">
        <ele>35</ele>
        <time>2019-07-17T13:43:59Z</time>
      </trkpt>
      <trkpt lat="47.79374" lon="-3.52427">
        <ele>35</ele>
        <time>2019-07-17T13:44:00Z</time>
      </trkpt>
      <trkpt lat="47.7937" lon="-3.52426">
        <ele>35</ele>
        <time>2019-07-17T13:44:01Z</time>
      </trkpt>
      <trkpt lat="47.79366" lon="-3.52425">
        <ele>36</ele>
        <time>2019-07-17T13:44:02Z</time>
      </trkpt>
      <trkpt lat="47.79362" lon="-3.52424">
        <ele>36</ele>
        <time>2019-07-17T13:44:03Z</time>
      </trkpt>
      <trkpt lat="47.79358" lon="-3.52423">
        <ele>36</ele>
        <time>2019-07-17T13:44:04Z</time>
      </trkpt>
      <trkpt lat="47.79354" lon="-3.52422">
        <ele>36</ele>
        <time>2019-07-17T13:44:05Z</time>
      </trkpt>
      <trkpt lat="47.7935" lon="-3.5242">
        <ele>36</ele>
        <time>2019-07-17T13:44:06Z</time>
      </trkpt>
      <trkpt lat="47.79346" lon="-3.52419">
        <ele>37</ele>
        <time>2019-07-17T13:44:07Z</time>
      </trkpt>
      <trkpt lat="47.79342" lon="-3.52417">
        <ele>37</ele>
        <time>2019-07-17T13:44:08Z</time>
      </trkpt>
      <trkpt lat="47.79338" lon="-3.52415">
        <ele>37</ele>
        <time>2019-07-17T13:44:09Z</time>
      </trkpt>
      <trkpt lat="47.79334" lon="-3.52413">
        <ele>37</ele>
        <time>2019-07-17T13:44:10Z</time>
      </trkpt>
      <trkpt lat="47.7933" lon="-3.52411">
        <ele>37</ele>
        <time>2019-07-17T13:44:11Z</time>
      </trkpt>
      <trkpt lat="47.79326" lon="-3.52409">
        <ele>38</ele>
        <time>2019-07-17T13:44:12Z</time>
      </trkpt>
      <trkpt lat="47.79322" lon="-3.52406">
        <ele>38</ele>
        <time>2019-07-17T13:44:13Z</time>
      </trkpt>
      <trkpt lat="47.79318" lon="-3.52403">
        <ele>38</ele>
        <time>2019-07-17T13:44:14Z</time>
      </trkpt>
      <trkpt lat="47.79314" lon="-3.524">
        <ele>39</ele>
        <time>2019-07-17T13:44:15Z</time>
      </trkpt>
      <trkpt lat="47.7931" lon="-3.52397">
        <ele>39</ele>
        <time>2019-07-17T13:44:16Z</time>
      </trkpt>
      <trkpt lat="47.79306" lon="-3.52394">
        <ele>39</ele>
        <time>2019-07-17T13:44:17Z</time>
      </trkpt>
      <trkpt lat="47.79302" lon="-3.52391">
        <ele>39</ele>
        <time>2019-07-17T13:44:18Z</time>
      </trkpt>
      <trkpt lat="47.79298" lon="-3.52388">
        <ele>39</ele>
        <time>2019-07-17T13:44:19Z</time>
      </trkpt>
      <trkpt lat="47.79295" lon="-3.52384">
        <ele>39</ele>
        <time>2019-07-17T13:44:20Z</time>
      </trkpt>
      <trkpt lat="47.79291" lon="-3.5238">
        <ele>39</ele>
        <time>2019-07-17T13:44:21Z</time>
      </trkpt>
      <trkpt lat="47.79287" lon="-3.52377">
        <ele>39</ele>
        <time>2019-07-17T13:44:22Z</time>
      </trkpt>
      <trkpt lat="47.79283" lon="-3.52373">
        <ele>40</ele>
        <time>2019-07-17T13:44:23Z</time>
      </trkpt>
      <trkpt lat="47.79279" lon="-3.52369">
        <ele>40</ele>
        <time>2019-07-17T13:44:24Z</time>
      </trkpt>
      <trkpt lat="47.79276" lon="-3.52364">
        <ele>40</ele>
        <time>2019-07-17T13:44:25Z</time>
      </trkpt>
      <trkpt lat="47.79272" lon="-3.52359">
        <ele>40</ele>
        <time>2019-07-17T13:44:26Z</time>
      </trkpt>
      <trkpt lat="47.79268" lon="-3.52354">
        <ele>40</ele>
        <time>2019-07-17T13:44:27Z</time>
      </trkpt>
      <trkpt lat="47.79265" lon="-3.52349">
        <ele>40</ele>
        <time>2019-07-17T13:44:28Z</time>
      </trkpt>
      <trkpt lat="47.79261" lon="-3.52344">
        <ele>40</ele>
        <time>2019-07-17T13:44:29Z</time>
      </trkpt>
      <trkpt lat="47.79258" lon="-3.52338">
        <ele>40</ele>
        <time>2019-07-17T13:44:30Z</time>
      </trkpt>
      <trkpt lat="47.79254" lon="-3.52333">
        <ele>40</ele>
        <time>2019-07-17T13:44:31Z</time>
      </trkpt>
      <trkpt lat="47.79251" lon="-3.52327">
        <ele>40</ele>
        <time>2019-07-17T13:44:32Z</time>
      </trkpt>
      <trkpt lat="47.79247" lon="-3.52321">
        <ele>40</ele>
        <time>2019-07-17T13:44:33Z</time>
      </trkpt>
      <trkpt lat="47.79245" lon="-3.52315">
        <ele>40</ele>
        <time>2019-07-17T13:44:34Z</time>
      </trkpt>
      <trkpt lat="47.79242" lon="-3.52309">
        <ele>40</ele>
        <time>2019-07-17T13:44:35Z</time>
      </trkpt>
      <trkpt lat="47.79239" lon="-3.52302">
        <ele>40</ele>
        <time>2019-07-17T13:44:36Z</time>
      </trkpt>
      <trkpt lat="47.79236" lon="-3.52296">
        <ele>40</ele>
        <time>2019-07-17T13:44:37Z</time>
      </trkpt>
      <trkpt lat="47.79233" lon="-3.52289">
        <ele>40</ele>
        <time>2019-07-17T13:44:38Z</time>
      </trkpt>
      <trkpt lat="47.7923" lon="-3.52282">
        <ele>39</ele>
        <time>2019-07-17T13:44:39Z</time>
      </trkpt>
      <trkpt lat="47.79228" lon="-3.52275">
        <ele>39</ele>
        <time>2019-07-17T13:44:40Z</time>
      </trkpt>
      <trkpt lat="47.79225" lon="-3.52268">
        <ele>39</ele>
        <time>2019-07-17T13:44:41Z</time>
      </trkpt>
      <trkpt lat="47.79223" lon="-3.52261">
        <ele>38</ele>
        <time>2019-07-17T13:44:42Z</time>
      </trkpt>
      <trkpt lat="47.79221" lon="-3.52253">
        <ele>38</ele>
        <time>2019-07-17T13:44:43Z</time>
      </trkpt>
      <trkpt lat="47.79219" lon="-3.52245">
        <ele>38</ele>
        <time>2019-07-17T13:44:44Z</time>
      </trkpt>
      <trkpt lat="47.79217" lon="-3.52237">
        <ele>38</ele>
        <time>2019-07-17T13:44:45Z</time>
      </trkpt>
      <trkpt lat="47.79216" lon="-3.52229">
        <ele>37</ele>
        <time>2019-07-17T13:44:46Z</time>
      </trkpt>
      <trkpt lat="47.79214" lon="-3.5222">
        <ele>37</ele>
        <time>2019-07-17T13:44:47Z</time>
      </trkpt>
      <trkpt lat="47.79213" lon="-3.52212">
        <ele>37</ele>
        <time>2019-07-17T13:44:48Z</time>
      </trkpt>
      <trkpt lat="47.79212" lon="-3.52204">
        <ele>37</ele>
        <time>2019-07-17T13:44:49Z</time>
      </trkpt>
      <trkpt lat="47.7921" lon="-3.52195">
        <ele>37</ele>
        <time>2019-07-17T13:44:50Z</time>
      </trkpt>
      <trkpt lat="47.7921" lon="-3.52187">
        <ele>36</ele>
        <time>2019-07-17T13:44:51Z</time>
      </trkpt>
      <trkpt lat="47.79209" lon="-3.52178">
        <ele>36</ele>
        <time>2019-07-17T13:44:52Z</time>
      </trkpt>
      <trkpt lat="47.79208" lon="-3.5217">
        <ele>36</ele>
        <time>2019-07-17T13:44:53Z</time>
      </trkpt>
      <trkpt lat="47.79207" lon="-3.5216">
        <ele>36</ele>
        <time>2019-07-17T13:44:54Z</time>
      </trkpt>
      <trkpt lat="47.79207" lon="-3.52152">
        <ele>35</ele>
        <time>2019-07-17T13:44:55Z</time>
      </trkpt>
      <trkpt lat="47.79207" lon="-3.52143">
        <ele>35</ele>
        <time>2019-07-17T13:44:56Z</time>
      </trkpt>
      <trkpt lat="47.79207" lon="-3.52134">
        <ele>35</ele>
        <time>2019-07-17T13:44:57Z</time>
      </trkpt>
      <trkpt lat="47.79207" lon="-3.52125">
        <ele>35</ele>
        <time>2019-07-17T13:44:58Z</time>
      </trkpt>
      <trkpt lat="47.79207" lon="-3.52116">
        <ele>35</ele>
        <time>2019-07-17T13:44:59Z</time>
      </trkpt>
      <trkpt lat="47.79207" lon="-3.52107">
        <ele>35</ele>
        <time>2019-07-17T13:45:00Z</time>
      </trkpt>
      <trkpt lat="47.79207" lon="-3.52098">
        <ele>35</ele>
        <time>2019-07-17T13:45:01Z</time>
      </trkpt>
      <trkpt lat="47.79207" lon="-3.52089">
        <ele>34</ele>
        <time>2019-07-17T13:45:02Z</time>
      </trkpt>
      <trkpt lat="47.79207" lon="-3.52081">
        <ele>34</ele>
        <time>2019-07-17T13:45:03Z</time>
      </trkpt>
      <trkpt lat="47.79207" lon="-3.52072">
        <ele>34</ele>
        <time>2019-07-17T13:45:04Z</time>
      </trkpt>
      <trkpt lat="47.79207" lon="-3.52063">
        <ele>34</ele>
        <time>2019-07-17T13:45:05Z</time>
      </trkpt>
      <trkpt lat="47.79207" lon="-3.52054">
        <ele>34</ele>
        <time>2019-07-17T13:45:06Z</time>
      </trkpt>
      <trkpt lat="47.79207" lon="-3.52045">
        <ele>34</ele>
        <time>2019-07-17T13:45:07Z</time>
      </trkpt>
      <trkpt lat="47.79208" lon="-3.52036">
        <ele>34</ele>
        <time>2019-07-17T13:45:08Z</time>
      </trkpt>
      <trkpt lat="47.79208" lon="-3.52028">
        <ele>34</ele>
        <time>2019-07-17T13:45:09Z</time>
      </trkpt>
      <trkpt lat="47.79209" lon="-3.52019">
        <ele>34</ele>
        <time>2019-07-17T13:45:10Z</time>
      </trkpt>
      <trkpt lat="47.79209" lon="-3.5201">
        <ele>34</ele>
        <time>2019-07-17T13:45:11Z</time>
      </trkpt>
      <trkpt lat="47.79209" lon="-3.52002">
        <ele>35</ele>
        <time>2019-07-17T13:45:12Z</time>
      </trkpt>
      <trkpt lat="47.79209" lon="-3.51993">
        <ele>35</ele>
        <time>2019-07-17T13:45:13Z</time>
      </trkpt>
      <trkpt lat="47.7921" lon="-3.51984">
        <ele>35</ele>
        <time>2019-07-17T13:45:14Z</time>
      </trkpt>
      <trkpt lat="47.7921" lon="-3.51975">
        <ele>35</ele>
        <time>2019-07-17T13:45:15Z</time>
      </trkpt>
      <trkpt lat="47.7921" lon="-3.51967">
        <ele>35</ele>
        <time>2019-07-17T13:45:16Z</time>
      </trkpt>
      <trkpt lat="47.79211" lon="-3.51958">
        <ele>35</ele>
        <time>2019-07-17T13:45:17Z</time>
      </trkpt>
      <trkpt lat="47.79211" lon="-3.51949">
        <ele>35</ele>
        <time>2019-07-17T13:45:18Z</time>
      </trkpt>
      <trkpt lat="47.79212" lon="-3.5194">
        <ele>35</ele>
        <time>2019-07-17T13:45:19Z</time>
      </trkpt>
      <trkpt lat="47.79213" lon="-3.51931">
        <ele>35</ele>
        <time>2019-07-17T13:45:20Z</time>
      </trkpt>
      <trkpt lat="47.79214" lon="-3.51922">
        <ele>35</ele>
        <time>2019-07-17T13:45:21Z</time>
      </trkpt>
      <trkpt lat="47.79215" lon="-3.51914">
        <ele>35</ele>
        <time>2019-07-17T13:45:22Z</time>
      </trkpt>
      <trkpt lat="47.79216" lon="-3.51905">
        <ele>35</ele>
        <time>2019-07-17T13:45:23Z</time>
      </trkpt>
      <trkpt lat="47.79218" lon="-3.51896">
        <ele>35</ele>
        <time>2019-07-17T13:45:24Z</time>
      </trkpt>
      <trkpt lat="47.79219" lon="-3.51888">
        <ele>35</ele>
        <time>2019-07-17T13:45:25Z</time>
      </trkpt>
      <trkpt lat="47.79221" lon="-3.5188">
        <ele>35</ele>
        <time>2019-07-17T13:45:26Z</time>
      </trkpt>
      <trkpt lat="47.79224" lon="-3.51872">
        <ele>35</ele>
        <time>2019-07-17T13:45:27Z</time>
      </trkpt>
      <trkpt lat="47.79226" lon="-3.51864">
        <ele>36</ele>
        <time>2019-07-17T13:45:28Z</time>
      </trkpt>
      <trkpt lat="47.79229" lon="-3.51856">
        <ele>36</ele>
        <time>2019-07-17T13:45:29Z</time>
      </trkpt>
      <trkpt lat="47.79231" lon="-3.51849">
        <ele>36</ele>
        <time>2019-07-17T13:45:30Z</time>
      </trkpt>
      <trkpt lat="47.79235" lon="-3.51842">
        <ele>36</ele>
        <time>2019-07-17T13:45:31Z</time>
      </trkpt>
      <trkpt lat="47.79238" lon="-3.51835">
        <ele>36</ele>
        <time>2019-07-17T13:45:32Z</time>
      </trkpt>
      <trkpt lat="47.79242" lon="-3.51829">
        <ele>36</ele>
        <time>2019-07-17T13:45:33Z</time>
      </trkpt>
      <trkpt lat="47.79246" lon="-3.51822">
        <ele>36</ele>
        <time>2019-07-17T13:45:34Z</time>
      </trkpt>
      <trkpt lat="47.79249" lon="-3.51816">
        <ele>36</ele>
        <time>2019-07-17T13:45:35Z</time>
      </trkpt>
      <trkpt lat="47.79253" lon="-3.51809">
        <ele>37</ele>
        <time>2019-07-17T13:45:36Z</time>
      </trkpt>
      <trkpt lat="47.79257" lon="-3.51803">
        <ele>37</ele>
        <time>2019-07-17T13:45:37Z</time>
      </trkpt>
      <trkpt lat="47.79261" lon="-3.51797">
        <ele>37</ele>
        <time>2019-07-17T13:45:38Z</time>
      </trkpt>
      <trkpt lat="47.79265" lon="-3.51791">
        <ele>37</ele>
        <time>2019-07-17T13:45:39Z</time>
      </trkpt>
      <trkpt lat="47.79269" lon="-3.51785">
        <ele>37</ele>
        <time>2019-07-17T13:45:40Z</time>
      </trkpt>
      <trkpt lat="47.79272" lon="-3.51779">
        <ele>37</ele>
        <time>2019-07-17T13:45:41Z</time>
      </trkpt>
      <trkpt lat="47.79276" lon="-3.51773">
        <ele>37</ele>
        <time>2019-07-17T13:45:42Z</time>
      </trkpt>
      <trkpt lat="47.7928" lon="-3.51767">
        <ele>37</ele>
        <time>2019-07-17T13:45:43Z</time>
      </trkpt>
      <trkpt lat="47.79284" lon="-3.51761">
        <ele>37</ele>
        <time>2019-07-17T13:45:44Z</time>
      </trkpt>
      <trkpt lat="47.79288" lon="-3.51755">
        <ele>37</ele>
        <time>2019-07-17T13:45:45Z</time>
      </trkpt>
      <trkpt lat="47.79292" lon="-3.51749">
        <ele>37</ele>
        <time>2019-07-17T13:45:46Z</time>
      </trkpt>
      <trkpt lat="47.79297" lon="-3.51743">
        <ele>37</ele>
        <time>2019-07-17T13:45:47Z</time>
      </trkpt>
      <trkpt lat="47.79301" lon="-3.51736">
        <ele>37</ele>
        <time>2019-07-17T13:45:48Z</time>
      </trkpt>
      <trkpt lat="47.79305" lon="-3.5173">
        <ele>37</ele>
        <time>2019-07-17T13:45:49Z</time>
      </trkpt>
      <trkpt lat="47.79309" lon="-3.51724">
        <ele>37</ele>
        <time>2019-07-17T13:45:50Z</time>
      </trkpt>
      <trkpt lat="47.79313" lon="-3.51719">
        <ele>37</ele>
        <time>2019-07-17T13:45:51Z</time>
      </trkpt>
      <trkpt lat="47.79317" lon="-3.51713">
        <ele>37</ele>
        <time>2019-07-17T13:45:52Z</time>
      </trkpt>
      <trkpt lat="47.79321" lon="-3.51706">
        <ele>36</ele>
        <time>2019-07-17T13:45:53Z</time>
      </trkpt>
      <trkpt lat="47.79325" lon="-3.517">
        <ele>36</ele>
        <time>2019-07-17T13:45:54Z</time>
      </trkpt>
      <trkpt lat="47.79329" lon="-3.51694">
        <ele>36</ele>
        <time>2019-07-17T13:45:55Z</time>
      </trkpt>
      <trkpt lat="47.79333" lon="-3.51688">
        <ele>36</ele>
        <time>2019-07-17T13:45:56Z</time>
      </trkpt>
      <trkpt lat="47.79338" lon="-3.51681">
        <ele>36</ele>
        <time>2019-07-17T13:45:57Z</time>
      </trkpt>
      <trkpt lat="47.79342" lon="-3.51675">
        <ele>36</ele>
        <time>2019-07-17T13:45:58Z</time>
      </trkpt>
      <trkpt lat="47.79347" lon="-3.51668">
        <ele>36</ele>
        <time>2019-07-17T13:45:59Z</time>
      </trkpt>
      <trkpt lat="47.79351" lon="-3.51661">
        <ele>36</ele>
        <time>2019-07-17T13:46:00Z</time>
      </trkpt>
      <trkpt lat="47.79356" lon="-3.51655">
        <ele>36</ele>
        <time>2019-07-17T13:46:01Z</time>
      </trkpt>
      <trkpt lat="47.7936" lon="-3.51648">
        <ele>36</ele>
        <time>2019-07-17T13:46:02Z</time>
      </trkpt>
      <trkpt lat="47.79365" lon="-3.51641">
        <ele>36</ele>
        <time>2019-07-17T13:46:03Z</time>
      </trkpt>
      <trkpt lat="47.7937" lon="-3.51634">
        <ele>36</ele>
        <time>2019-07-17T13:46:04Z</time>
      </trkpt>
      <trkpt lat="47.79374" lon="-3.51627">
        <ele>36</ele>
        <time>2019-07-17T13:46:05Z</time>
      </trkpt>
      <trkpt lat="47.79378" lon="-3.5162">
        <ele>37</ele>
        <time>2019-07-17T13:46:06Z</time>
      </trkpt>
      <trkpt lat="47.79383" lon="-3.51613">
        <ele>37</ele>
        <time>2019-07-17T13:46:07Z</time>
      </trkpt>
      <trkpt lat="47.79387" lon="-3.51606">
        <ele>37</ele>
        <time>2019-07-17T13:46:08Z</time>
      </trkpt>
      <trkpt lat="47.79391" lon="-3.51599">
        <ele>37</ele>
        <time>2019-07-17T13:46:09Z</time>
      </trkpt>
      <trkpt lat="47.79396" lon="-3.51592">
        <ele>37</ele>
        <time>2019-07-17T13:46:10Z</time>
      </trkpt>
      <trkpt lat="47.794" lon="-3.51584">
        <ele>38</ele>
        <time>2019-07-17T13:46:11Z</time>
      </trkpt>
      <trkpt lat="47.79403" lon="-3.51577">
        <ele>38</ele>
        <time>2019-07-17T13:46:12Z</time>
      </trkpt>
      <trkpt lat="47.79407" lon="-3.51569">
        <ele>38</ele>
        <time>2019-07-17T13:46:13Z</time>
      </trkpt>
      <trkpt lat="47.7941" lon="-3.51562">
        <ele>38</ele>
        <time>2019-07-17T13:46:14Z</time>
      </trkpt>
      <trkpt lat="47.79414" lon="-3.51555">
        <ele>39</ele>
        <time>2019-07-17T13:46:15Z</time>
      </trkpt>
      <trkpt lat="47.79417" lon="-3.51548">
        <ele>39</ele>
        <time>2019-07-17T13:46:16Z</time>
      </trkpt>
      <trkpt lat="47.7942" lon="-3.51541">
        <ele>39</ele>
        <time>2019-07-17T13:46:17Z</time>
      </trkpt>
      <trkpt lat="47.79423" lon="-3.51533">
        <ele>40</ele>
        <time>2019-07-17T13:46:18Z</time>
      </trkpt>
      <trkpt lat="47.79425" lon="-3.51526">
        <ele>40</ele>
        <time>2019-07-17T13:46:19Z</time>
      </trkpt>
      <trkpt lat="47.79428" lon="-3.51519">
        <ele>40</ele>
        <time>2019-07-17T13:46:20Z</time>
      </trkpt>
      <trkpt lat="47.7943" lon="-3.51511">
        <ele>40</ele>
        <time>2019-07-17T13:46:21Z</time>
      </trkpt>
      <trkpt lat="47.79433" lon="-3.51504">
        <ele>41</ele>
        <time>2019-07-17T13:46:22Z</time>
      </trkpt>
      <trkpt lat="47.79435" lon="-3.51497">
        <ele>41</ele>
        <time>2019-07-17T13:46:23Z</time>
      </trkpt>
      <trkpt lat="47.79437" lon="-3.5149">
        <ele>41</ele>
        <time>2019-07-17T13:46:24Z</time>
      </trkpt>
      <trkpt lat="47.7944" lon="-3.51483">
        <ele>41</ele>
        <time>2019-07-17T13:46:25Z</time>
      </trkpt>
      <trkpt lat="47.79441" lon="-3.51475">
        <ele>42</ele>
        <time>2019-07-17T13:46:26Z</time>
      </trkpt>
      <trkpt lat="47.79443" lon="-3.51468">
        <ele>42</ele>
        <time>2019-07-17T13:46:27Z</time>
      </trkpt>
      <trkpt lat="47.79444" lon="-3.5146">
        <ele>42</ele>
        <time>2019-07-17T13:46:28Z</time>
      </trkpt>
      <trkpt lat="47.79445" lon="-3.51452">
        <ele>42</ele>
        <time>2019-07-17T13:46:29Z</time>
      </trkpt>
      <trkpt lat="47.79446" lon="-3.51444">
        <ele>43</ele>
        <time>2019-07-17T13:46:30Z</time>
      </trkpt>
      <trkpt lat="47.79447" lon="-3.51436">
        <ele>43</ele>
        <time>2019-07-17T13:46:31Z</time>
      </trkpt>
      <trkpt lat="47.79449" lon="-3.51428">
        <ele>43</ele>
        <time>2019-07-17T13:46:32Z</time>
      </trkpt>
      <trkpt lat="47.7945" lon="-3.5142">
        <ele>43</ele>
        <time>2019-07-17T13:46:33Z</time>
      </trkpt>
      <trkpt lat="47.7945" lon="-3.51411">
        <ele>43</ele>
        <time>2019-07-17T13:46:34Z</time>
      </trkpt>
      <trkpt lat="47.79451" lon="-3.51402">
        <ele>44</ele>
        <time>2019-07-17T13:46:35Z</time>
      </trkpt>
      <trkpt lat="47.79452" lon="-3.51394">
        <ele>44</ele>
        <time>2019-07-17T13:46:36Z</time>
      </trkpt>
      <trkpt lat="47.79453" lon="-3.51385">
        <ele>44</ele>
        <time>2019-07-17T13:46:37Z</time>
      </trkpt>
      <trkpt lat="47.79454" lon="-3.51376">
        <ele>44</ele>
        <time>2019-07-17T13:46:38Z</time>
      </trkpt>
      <trkpt lat="47.79455" lon="-3.51368">
        <ele>44</ele>
        <time>2019-07-17T13:46:39Z</time>
      </trkpt>
      <trkpt lat="47.79455" lon="-3.51359">
        <ele>44</ele>
        <time>2019-07-17T13:46:40Z</time>
      </trkpt>
      <trkpt lat="47.79456" lon="-3.5135">
        <ele>44</ele>
        <time>2019-07-17T13:46:41Z</time>
      </trkpt>
      <trkpt lat="47.79457" lon="-3.51341">
        <ele>44</ele>
        <time>2019-07-17T13:46:42Z</time>
      </trkpt>
      <trkpt lat="47.79458" lon="-3.51332">
        <ele>44</ele>
        <time>2019-07-17T13:46:43Z</time>
      </trkpt>
      <trkpt lat="47.79459" lon="-3.51324">
        <ele>44</ele>
        <time>2019-07-17T13:46:44Z</time>
      </trkpt>
      <trkpt lat="47.79459" lon="-3.51315">
        <ele>44</ele>
        <time>2019-07-17T13:46:45Z</time>
      </trkpt>
      <trkpt lat="47.7946" lon="-3.51306">
        <ele>44</ele>
        <time>2019-07-17T13:46:46Z</time>
      </trkpt>
      <trkpt lat="47.79461" lon="-3.51298">
        <ele>44</ele>
        <time>2019-07-17T13:46:47Z</time>
      </trkpt>
      <trkpt lat="47.79462" lon="-3.51289">
        <ele>45</ele>
        <time>2019-07-17T13:46:48Z</time>
      </trkpt>
      <trkpt lat="47.79463" lon="-3.51281">
        <ele>45</ele>
        <time>2019-07-17T13:46:49Z</time>
      </trkpt>
      <trkpt lat="47.79463" lon="-3.51272">
        <ele>45</ele>
        <time>2019-07-17T13:46:50Z</time>
      </trkpt>
      <trkpt lat="47.79464" lon="-3.51263">
        <ele>45</ele>
        <time>2019-07-17T13:46:51Z</time>
      </trkpt>
      <trkpt lat="47.79465" lon="-3.51255">
        <ele>45</ele>
        <time>2019-07-17T13:46:52Z</time>
      </trkpt>
      <trkpt lat="47.79466" lon="-3.51246">
        <ele>45</ele>
        <time>2019-07-17T13:46:53Z</time>
      </trkpt>
      <trkpt lat="47.79466" lon="-3.51237">
        <ele>46</ele>
        <time>2019-07-17T13:46:54Z</time>
      </trkpt>
      <trkpt lat="47.79467" lon="-3.51228">
        <ele>46</ele>
        <time>2019-07-17T13:46:55Z</time>
      </trkpt>
      <trkpt lat="47.79468" lon="-3.51219">
        <ele>46</ele>
        <time>2019-07-17T13:46:56Z</time>
      </trkpt>
      <trkpt lat="47.79468" lon="-3.51211">
        <ele>46</ele>
        <time>2019-07-17T13:46:57Z</time>
      </trkpt>
      <trkpt lat="47.79469" lon="-3.51201">
        <ele>46</ele>
        <time>2019-07-17T13:46:58Z</time>
      </trkpt>
      <trkpt lat="47.79469" lon="-3.51193">
        <ele>47</ele>
        <time>2019-07-17T13:46:59Z</time>
      </trkpt>
      <trkpt lat="47.79469" lon="-3.51184">
        <ele>47</ele>
        <time>2019-07-17T13:47:00Z</time>
      </trkpt>
      <trkpt lat="47.7947" lon="-3.51175">
        <ele>47</ele>
        <time>2019-07-17T13:47:01Z</time>
      </trkpt>
      <trkpt lat="47.7947" lon="-3.51165">
        <ele>47</ele>
        <time>2019-07-17T13:47:02Z</time>
      </trkpt>
      <trkpt lat="47.7947" lon="-3.51156">
        <ele>47</ele>
        <time>2019-07-17T13:47:03Z</time>
      </trkpt>
      <trkpt lat="47.7947" lon="-3.51147">
        <ele>48</ele>
        <time>2019-07-17T13:47:04Z</time>
      </trkpt>
      <trkpt lat="47.79471" lon="-3.51138">
        <ele>48</ele>
        <time>2019-07-17T13:47:05Z</time>
      </trkpt>
      <trkpt lat="47.79471" lon="-3.51128">
        <ele>48</ele>
        <time>2019-07-17T13:47:06Z</time>
      </trkpt>
      <trkpt lat="47.79471" lon="-3.51119">
        <ele>48</ele>
        <time>2019-07-17T13:47:07Z</time>
      </trkpt>
      <trkpt lat="47.79472" lon="-3.5111">
        <ele>48</ele>
        <time>2019-07-17T13:47:08Z</time>
      </trkpt>
      <trkpt lat="47.79472" lon="-3.51101">
        <ele>49</ele>
        <time>2019-07-17T13:47:09Z</time>
      </trkpt>
      <trkpt lat="47.79473" lon="-3.51092">
        <ele>49</ele>
        <time>2019-07-17T13:47:10Z</time>
      </trkpt>
      <trkpt lat="47.79473" lon="-3.51083">
        <ele>49</ele>
        <time>2019-07-17T13:47:11Z</time>
      </trkpt>
      <trkpt lat="47.79473" lon="-3.51074">
        <ele>49</ele>
        <time>2019-07-17T13:47:12Z</time>
      </trkpt>
      <trkpt lat="47.79474" lon="-3.51065">
        <ele>49</ele>
        <time>2019-07-17T13:47:13Z</time>
      </trkpt>
      <trkpt lat="47.79475" lon="-3.51056">
        <ele>50</ele>
        <time>2019-07-17T13:47:14Z</time>
      </trkpt>
      <trkpt lat="47.79476" lon="-3.51047">
        <ele>50</ele>
        <time>2019-07-17T13:47:15Z</time>
      </trkpt>
      <trkpt lat="47.79476" lon="-3.51037">
        <ele>50</ele>
        <time>2019-07-17T13:47:16Z</time>
      </trkpt>
      <trkpt lat="47.79477" lon="-3.51028">
        <ele>50</ele>
        <time>2019-07-17T13:47:17Z</time>
      </trkpt>
      <trkpt lat="47.79478" lon="-3.51019">
        <ele>50</ele>
        <time>2019-07-17T13:47:18Z</time>
      </trkpt>
      <trkpt lat="47.79479" lon="-3.5101">
        <ele>51</ele>
        <time>2019-07-17T13:47:19Z</time>
      </trkpt>
      <trkpt lat="47.79479" lon="-3.51001">
        <ele>51</ele>
        <time>2019-07-17T13:47:20Z</time>
      </trkpt>
      <trkpt lat="47.7948" lon="-3.50991">
        <ele>51</ele>
        <time>2019-07-17T13:47:21Z</time>
      </trkpt>
      <trkpt lat="47.79481" lon="-3.50982">
        <ele>51</ele>
        <time>2019-07-17T13:47:22Z</time>
      </trkpt>
      <trkpt lat="47.79482" lon="-3.50973">
        <ele>51</ele>
        <time>2019-07-17T13:47:23Z</time>
      </trkpt>
      <trkpt lat="47.79482" lon="-3.50964">
        <ele>52</ele>
        <time>2019-07-17T13:47:24Z</time>
      </trkpt>
      <trkpt lat="47.79483" lon="-3.50955">
        <ele>52</ele>
        <time>2019-07-17T13:47:25Z</time>
      </trkpt>
      <trkpt lat="47.79484" lon="-3.50946">
        <ele>52</ele>
        <time>2019-07-17T13:47:26Z</time>
      </trkpt>
      <trkpt lat="47.79485" lon="-3.50937">
        <ele>52</ele>
        <time>2019-07-17T13:47:27Z</time>
      </trkpt>
      <trkpt lat="47.79486" lon="-3.50928">
        <ele>52</ele>
        <time>2019-07-17T13:47:28Z</time>
      </trkpt>
      <trkpt lat="47.79486" lon="-3.50918">
        <ele>52</ele>
        <time>2019-07-17T13:47:29Z</time>
      </trkpt>
      <trkpt lat="47.79487" lon="-3.50909">
        <ele>53</ele>
        <time>2019-07-17T13:47:30Z</time>
      </trkpt>
      <trkpt lat="47.79488" lon="-3.509">
        <ele>53</ele>
        <time>2019-07-17T13:47:31Z</time>
      </trkpt>
      <trkpt lat="47.79488" lon="-3.50891">
        <ele>53</ele>
        <time>2019-07-17T13:47:32Z</time>
      </trkpt>
      <trkpt lat="47.79489" lon="-3.50882">
        <ele>53</ele>
        <time>2019-07-17T13:47:33Z</time>
      </trkpt>
      <trkpt lat="47.79489" lon="-3.50872">
        <ele>53</ele>
        <time>2019-07-17T13:47:34Z</time>
      </trkpt>
      <trkpt lat="47.7949" lon="-3.50863">
        <ele>53</ele>
        <time>2019-07-17T13:47:35Z</time>
      </trkpt>
      <trkpt lat="47.7949" lon="-3.50854">
        <ele>53</ele>
        <time>2019-07-17T13:47:36Z</time>
      </trkpt>
      <trkpt lat="47.7949" lon="-3.50844">
        <ele>53</ele>
        <time>2019-07-17T13:47:37Z</time>
      </trkpt>
      <trkpt lat="47.7949" lon="-3.50835">
        <ele>53</ele>
        <time>2019-07-17T13:47:38Z</time>
      </trkpt>
      <trkpt lat="47.79491" lon="-3.50825">
        <ele>53</ele>
        <time>2019-07-17T13:47:39Z</time>
      </trkpt>
      <trkpt lat="47.79491" lon="-3.50816">
        <ele>53</ele>
        <time>2019-07-17T13:47:40Z</time>
      </trkpt>
      <trkpt lat="47.79491" lon="-3.50806">
        <ele>53</ele>
        <time>2019-07-17T13:47:41Z</time>
      </trkpt>
      <trkpt lat="47.79491" lon="-3.50797">
        <ele>53</ele>
        <time>2019-07-17T13:47:42Z</time>
      </trkpt>
      <trkpt lat="47.79491" lon="-3.50787">
        <ele>53</ele>
        <time>2019-07-17T13:47:43Z</time>
      </trkpt>
      <trkpt lat="47.79492" lon="-3.50777">
        <ele>53</ele>
        <time>2019-07-17T13:47:44Z</time>
      </trkpt>
      <trkpt lat="47.79492" lon="-3.50768">
        <ele>53</ele>
        <time>2019-07-17T13:47:45Z</time>
      </trkpt>
      <trkpt lat="47.79492" lon="-3.50758">
        <ele>53</ele>
        <time>2019-07-17T13:47:46Z</time>
      </trkpt>
      <trkpt lat="47.79492" lon="-3.50748">
        <ele>52</ele>
        <time>2019-07-17T13:47:47Z</time>
      </trkpt>
      <trkpt lat="47.79492" lon="-3.50738">
        <ele>52</ele>
        <time>2019-07-17T13:47:48Z</time>
      </trkpt>
      <trkpt lat="47.79492" lon="-3.50727">
        <ele>52</ele>
        <time>2019-07-17T13:47:49Z</time>
      </trkpt>
      <trkpt lat="47.79492" lon="-3.50717">
        <ele>52</ele>
        <time>2019-07-17T13:47:50Z</time>
      </trkpt>
      <trkpt lat="47.79492" lon="-3.50706">
        <ele>52</ele>
        <time>2019-07-17T13:47:51Z</time>
      </trkpt>
      <trkpt lat="47.79492" lon="-3.50696">
        <ele>52</ele>
        <time>2019-07-17T13:47:52Z</time>
      </trkpt>
      <trkpt lat="47.79492" lon="-3.50686">
        <ele>52</ele>
        <time>2019-07-17T13:47:53Z</time>
      </trkpt>
      <trkpt lat="47.79492" lon="-3.50675">
        <ele>52</ele>
        <time>2019-07-17T13:47:54Z</time>
      </trkpt>
      <trkpt lat="47.79492" lon="-3.50664">
        <ele>51</ele>
        <time>2019-07-17T13:47:55Z</time>
      </trkpt>
      <trkpt lat="47.79492" lon="-3.50653">
        <ele>51</ele>
        <time>2019-07-17T13:47:56Z</time>
      </trkpt>
      <trkpt lat="47.79492" lon="-3.50642">
        <ele>51</ele>
        <time>2019-07-17T13:47:57Z</time>
      </trkpt>
      <trkpt lat="47.79492" lon="-3.5063">
        <ele>50</ele>
        <time>2019-07-17T13:47:58Z</time>
      </trkpt>
      <trkpt lat="47.79491" lon="-3.50618">
        <ele>50</ele>
        <time>2019-07-17T13:47:59Z</time>
      </trkpt>
      <trkpt lat="47.79489" lon="-3.50605">
        <ele>49</ele>
        <time>2019-07-17T13:48:00Z</time>
      </trkpt>
      <trkpt lat="47.79487" lon="-3.50592">
        <ele>49</ele>
        <time>2019-07-17T13:48:01Z</time>
      </trkpt>
      <trkpt lat="47.79484" lon="-3.50579">
        <ele>48</ele>
        <time>2019-07-17T13:48:02Z</time>
      </trkpt>
      <trkpt lat="47.7948" lon="-3.50565">
        <ele>48</ele>
        <time>2019-07-17T13:48:03Z</time>
      </trkpt>
      <trkpt lat="47.79477" lon="-3.50552">
        <ele>47</ele>
        <time>2019-07-17T13:48:04Z</time>
      </trkpt>
      <trkpt lat="47.79473" lon="-3.50538">
        <ele>46</ele>
        <time>2019-07-17T13:48:05Z</time>
      </trkpt>
      <trkpt lat="47.79468" lon="-3.50523">
        <ele>45</ele>
        <time>2019-07-17T13:48:06Z</time>
      </trkpt>
      <trkpt lat="47.79463" lon="-3.50509">
        <ele>45</ele>
        <time>2019-07-17T13:48:07Z</time>
      </trkpt>
      <trkpt lat="47.79458" lon="-3.50495">
        <ele>44</ele>
        <time>2019-07-17T13:48:08Z</time>
      </trkpt>
      <trkpt lat="47.79453" lon="-3.50481">
        <ele>43</ele>
        <time>2019-07-17T13:48:09Z</time>
      </trkpt>
      <trkpt lat="47.79447" lon="-3.50467">
        <ele>42</ele>
        <time>2019-07-17T13:48:10Z</time>
      </trkpt>
      <trkpt lat="47.79442" lon="-3.50452">
        <ele>41</ele>
        <time>2019-07-17T13:48:11Z</time>
      </trkpt>
      <trkpt lat="47.79436" lon="-3.50436">
        <ele>40</ele>
        <time>2019-07-17T13:48:12Z</time>
      </trkpt>
      <trkpt lat="47.79431" lon="-3.5042">
        <ele>40</ele>
        <time>2019-07-17T13:48:13Z</time>
      </trkpt>
      <trkpt lat="47.79425" lon="-3.50404">
        <ele>39</ele>
        <time>2019-07-17T13:48:14Z</time>
      </trkpt>
      <trkpt lat="47.79419" lon="-3.50388">
        <ele>38</ele>
        <time>2019-07-17T13:48:15Z</time>
      </trkpt>
      <trkpt lat="47.79413" lon="-3.50372">
        <ele>37</ele>
        <time>2019-07-17T13:48:16Z</time>
      </trkpt>
      <trkpt lat="47.79408" lon="-3.50355">
        <ele>36</ele>
        <time>2019-07-17T13:48:17Z</time>
      </trkpt>
      <trkpt lat="47.79403" lon="-3.50339">
        <ele>35</ele>
        <time>2019-07-17T13:48:18Z</time>
      </trkpt>
      <trkpt lat="47.79399" lon="-3.50322">
        <ele>35</ele>
        <time>2019-07-17T13:48:19Z</time>
      </trkpt>
      <trkpt lat="47.79396" lon="-3.50306">
        <ele>34</ele>
        <time>2019-07-17T13:48:20Z</time>
      </trkpt>
      <trkpt lat="47.79394" lon="-3.5029">
        <ele>33</ele>
        <time>2019-07-17T13:48:21Z</time>
      </trkpt>
      <trkpt lat="47.79391" lon="-3.50274">
        <ele>33</ele>
        <time>2019-07-17T13:48:22Z</time>
      </trkpt>
      <trkpt lat="47.79389" lon="-3.5026">
        <ele>33</ele>
        <time>2019-07-17T13:48:23Z</time>
      </trkpt>
      <trkpt lat="47.79387" lon="-3.50245">
        <ele>33</ele>
        <time>2019-07-17T13:48:24Z</time>
      </trkpt>
      <trkpt lat="47.79385" lon="-3.50232">
        <ele>32</ele>
        <time>2019-07-17T13:48:25Z</time>
      </trkpt>
      <trkpt lat="47.79383" lon="-3.50219">
        <ele>32</ele>
        <time>2019-07-17T13:48:26Z</time>
      </trkpt>
      <trkpt lat="47.79382" lon="-3.50207">
        <ele>32</ele>
        <time>2019-07-17T13:48:27Z</time>
      </trkpt>
      <trkpt lat="47.79381" lon="-3.50195">
        <ele>32</ele>
        <time>2019-07-17T13:48:28Z</time>
      </trkpt>
      <trkpt lat="47.79379" lon="-3.50184">
        <ele>33</ele>
        <time>2019-07-17T13:48:29Z</time>
      </trkpt>
      <trkpt lat="47.79378" lon="-3.50174">
        <ele>33</ele>
        <time>2019-07-17T13:48:30Z</time>
      </trkpt>
      <trkpt lat="47.79377" lon="-3.50164">
        <ele>33</ele>
        <time>2019-07-17T13:48:31Z</time>
      </trkpt>
      <trkpt lat="47.79375" lon="-3.50155">
        <ele>33</ele>
        <time>2019-07-17T13:48:32Z</time>
      </trkpt>
      <trkpt lat="47.79374" lon="-3.50146">
        <ele>33</ele>
        <time>2019-07-17T13:48:33Z</time>
      </trkpt>
      <trkpt lat="47.79374" lon="-3.50138">
        <ele>33</ele>
        <time>2019-07-17T13:48:34Z</time>
      </trkpt>
      <trkpt lat="47.79374" lon="-3.5013">
        <ele>33</ele>
        <time>2019-07-17T13:48:35Z</time>
      </trkpt>
      <trkpt lat="47.79373" lon="-3.50122">
        <ele>34</ele>
        <time>2019-07-17T13:48:36Z</time>
      </trkpt>
      <trkpt lat="47.79372" lon="-3.50116">
        <ele>34</ele>
        <time>2019-07-17T13:48:37Z</time>
      </trkpt>
      <trkpt lat="47.79371" lon="-3.50109">
        <ele>34</ele>
        <time>2019-07-17T13:48:38Z</time>
      </trkpt>
      <trkpt lat="47.79369" lon="-3.50103">
        <ele>34</ele>
        <time>2019-07-17T13:48:39Z</time>
      </trkpt>
      <trkpt lat="47.7937" lon="-3.50096">
        <ele>34</ele>
        <time>2019-07-17T13:48:40Z</time>
      </trkpt>
      <trkpt lat="47.79372" lon="-3.50091">
        <ele>35</ele>
        <time>2019-07-17T13:48:41Z</time>
      </trkpt>
      <trkpt lat="47.79375" lon="-3.50088">
        <ele>35</ele>
        <time>2019-07-17T13:48:42Z</time>
      </trkpt>
      <trkpt lat="47.7938" lon="-3.50084">
        <ele>35</ele>
        <time>2019-07-17T13:48:43Z</time>
      </trkpt>
      <trkpt lat="47.79384" lon="-3.50081">
        <ele>35</ele>
        <time>2019-07-17T13:48:44Z</time>
      </trkpt>
      <trkpt lat="47.79388" lon="-3.50077">
        <ele>35</ele>
        <time>2019-07-17T13:48:45Z</time>
      </trkpt>
      <trkpt lat="47.79392" lon="-3.50074">
        <ele>35</ele>
        <time>2019-07-17T13:48:46Z</time>
      </trkpt>
      <trkpt lat="47.79396" lon="-3.5007">
        <ele>36</ele>
        <time>2019-07-17T13:48:47Z</time>
      </trkpt>
      <trkpt lat="47.79399" lon="-3.50067">
        <ele>36</ele>
        <time>2019-07-17T13:48:48Z</time>
      </trkpt>
      <trkpt lat="47.79402" lon="-3.50063">
        <ele>37</ele>
        <time>2019-07-17T13:48:49Z</time>
      </trkpt>
      <trkpt lat="47.79405" lon="-3.50059">
        <ele>37</ele>
        <time>2019-07-17T13:48:50Z</time>
      </trkpt>
      <trkpt lat="47.79407" lon="-3.50056">
        <ele>37</ele>
        <time>2019-07-17T13:48:51Z</time>
      </trkpt>
      <trkpt lat="47.7941" lon="-3.50054">
        <ele>38</ele>
        <time>2019-07-17T13:48:52Z</time>
      </trkpt>
      <trkpt lat="47.79413" lon="-3.50051">
        <ele>38</ele>
        <time>2019-07-17T13:48:53Z</time>
      </trkpt>
      <trkpt lat="47.79415" lon="-3.50047">
        <ele>38</ele>
        <time>2019-07-17T13:48:54Z</time>
      </trkpt>
      <trkpt lat="47.79417" lon="-3.50043">
        <ele>39</ele>
        <time>2019-07-17T13:48:55Z</time>
      </trkpt>
      <trkpt lat="47.79419" lon="-3.50039">
        <ele>39</ele>
        <time>2019-07-17T13:48:56Z</time>
      </trkpt>
      <trkpt lat="47.7942" lon="-3.50035">
        <ele>39</ele>
        <time>2019-07-17T13:48:57Z</time>
      </trkpt>
      <trkpt lat="47.79421" lon="-3.5003">
        <ele>40</ele>
        <time>2019-07-17T13:48:58Z</time>
      </trkpt>
      <trkpt lat="47.79422" lon="-3.50026">
        <ele>40</ele>
        <time>2019-07-17T13:48:59Z</time>
      </trkpt>
      <trkpt lat="47.79423" lon="-3.50022">
        <ele>40</ele>
        <time>2019-07-17T13:49:00Z</time>
      </trkpt>
      <trkpt lat="47.79424" lon="-3.50018">
        <ele>40</ele>
        <time>2019-07-17T13:49:01Z</time>
      </trkpt>
      <trkpt lat="47.79425" lon="-3.50014">
        <ele>41</ele>
        <time>2019-07-17T13:49:02Z</time>
      </trkpt>
      <trkpt lat="47.79426" lon="-3.5001">
        <ele>41</ele>
        <time>2019-07-17T13:49:03Z</time>
      </trkpt>
      <trkpt lat="47.79427" lon="-3.50006">
        <ele>41</ele>
        <time>2019-07-17T13:49:04Z</time>
      </trkpt>
      <trkpt lat="47.79428" lon="-3.50002">
        <ele>41</ele>
        <time>2019-07-17T13:49:05Z</time>
      </trkpt>
      <trkpt lat="47.79429" lon="-3.49998">
        <ele>42</ele>
        <time>2019-07-17T13:49:06Z</time>
      </trkpt>
      <trkpt lat="47.7943" lon="-3.49994">
        <ele>42</ele>
        <time>2019-07-17T13:49:07Z</time>
      </trkpt>
      <trkpt lat="47.7943" lon="-3.49991">
        <ele>42</ele>
        <time>2019-07-17T13:49:08Z</time>
      </trkpt>
      <trkpt lat="47.79431" lon="-3.49987">
        <ele>42</ele>
        <time>2019-07-17T13:49:09Z</time>
      </trkpt>
      <trkpt lat="47.79433" lon="-3.49984">
        <ele>42</ele>
        <time>2019-07-17T13:49:10Z</time>
      </trkpt>
      <trkpt lat="47.79434" lon="-3.49981">
        <ele>42</ele>
        <time>2019-07-17T13:49:11Z</time>
      </trkpt>
      <trkpt lat="47.79436" lon="-3.49977">
        <ele>43</ele>
        <time>2019-07-17T13:49:12Z</time>
      </trkpt>
      <trkpt lat="47.79438" lon="-3.49974">
        <ele>43</ele>
        <time>2019-07-17T13:49:13Z</time>
      </trkpt>
      <trkpt lat="47.79439" lon="-3.4997">
        <ele>43</ele>
        <time>2019-07-17T13:49:14Z</time>
      </trkpt>
      <trkpt lat="47.7944" lon="-3.49966">
        <ele>43</ele>
        <time>2019-07-17T13:49:15Z</time>
      </trkpt>
      <trkpt lat="47.79441" lon="-3.49962">
        <ele>43</ele>
        <time>2019-07-17T13:49:16Z</time>
      </trkpt>
      <trkpt lat="47.79443" lon="-3.49958">
        <ele>43</ele>
        <time>2019-07-17T13:49:17Z</time>
      </trkpt>
      <trkpt lat="47.79444" lon="-3.49955">
        <ele>43</ele>
        <time>2019-07-17T13:49:18Z</time>
      </trkpt>
      <trkpt lat="47.79446" lon="-3.49951">
        <ele>43</ele>
        <time>2019-07-17T13:49:19Z</time>
      </trkpt>
      <trkpt lat="47.79448" lon="-3.49948">
        <ele>43</ele>
        <time>2019-07-17T13:49:20Z</time>
      </trkpt>
      <trkpt lat="47.7945" lon="-3.49944">
        <ele>43</ele>
        <time>2019-07-17T13:49:21Z</time>
      </trkpt>
      <trkpt lat="47.7945" lon="-3.4994">
        <ele>43</ele>
        <time>2019-07-17T13:49:22Z</time>
      </trkpt>
      <trkpt lat="47.79451" lon="-3.49935">
        <ele>43</ele>
        <time>2019-07-17T13:49:23Z</time>
      </trkpt>
      <trkpt lat="47.79453" lon="-3.49932">
        <ele>44</ele>
        <time>2019-07-17T13:49:24Z</time>
      </trkpt>
      <trkpt lat="47.79454" lon="-3.49928">
        <ele>44</ele>
        <time>2019-07-17T13:49:25Z</time>
      </trkpt>
      <trkpt lat="47.79456" lon="-3.49924">
        <ele>44</ele>
        <time>2019-07-17T13:49:26Z</time>
      </trkpt>
      <trkpt lat="47.79457" lon="-3.4992">
        <ele>44</ele>
        <time>2019-07-17T13:49:27Z</time>
      </trkpt>
      <trkpt lat="47.79458" lon="-3.49916">
        <ele>44</ele>
        <time>2019-07-17T13:49:28Z</time>
      </trkpt>
      <trkpt lat="47.79459" lon="-3.49912">
        <ele>45</ele>
        <time>2019-07-17T13:49:29Z</time>
      </trkpt>
      <trkpt lat="47.7946" lon="-3.49908">
        <ele>45</ele>
        <time>2019-07-17T13:49:30Z</time>
      </trkpt>
      <trkpt lat="47.79461" lon="-3.49903">
        <ele>45</ele>
        <time>2019-07-17T13:49:31Z</time>
      </trkpt>
      <trkpt lat="47.79462" lon="-3.49898">
        <ele>45</ele>
        <time>2019-07-17T13:49:32Z</time>
      </trkpt>
      <trkpt lat="47.79462" lon="-3.49893">
        <ele>46</ele>
        <time>2019-07-17T13:49:33Z</time>
      </trkpt>
      <trkpt lat="47.79462" lon="-3.49888">
        <ele>46</ele>
        <time>2019-07-17T13:49:34Z</time>
      </trkpt>
      <trkpt lat="47.79462" lon="-3.49882">
        <ele>46</ele>
        <time>2019-07-17T13:49:35Z</time>
      </trkpt>
      <trkpt lat="47.79463" lon="-3.49878">
        <ele>47</ele>
        <time>2019-07-17T13:49:36Z</time>
      </trkpt>
      <trkpt lat="47.79463" lon="-3.49874">
        <ele>47</ele>
        <time>2019-07-17T13:49:37Z</time>
      </trkpt>
      <trkpt lat="47.79464" lon="-3.49869">
        <ele>47</ele>
        <time>2019-07-17T13:49:38Z</time>
      </trkpt>
      <trkpt lat="47.79465" lon="-3.49863">
        <ele>47</ele>
        <time>2019-07-17T13:49:39Z</time>
      </trkpt>
      <trkpt lat="47.79465" lon="-3.49858">
        <ele>47</ele>
        <time>2019-07-17T13:49:40Z</time>
      </trkpt>
      <trkpt lat="47.79466" lon="-3.49853">
        <ele>47</ele>
        <time>2019-07-17T13:49:41Z</time>
      </trkpt>
      <trkpt lat="47.79467" lon="-3.49848">
        <ele>47</ele>
        <time>2019-07-17T13:49:42Z</time>
      </trkpt>
      <trkpt lat="47.79468" lon="-3.49842">
        <ele>47</ele>
        <time>2019-07-17T13:49:43Z</time>
      </trkpt>
      <trkpt lat="47.79469" lon="-3.49836">
        <ele>47</ele>
        <time>2019-07-17T13:49:44Z</time>
      </trkpt>
      <trkpt lat="47.7947" lon="-3.49831">
        <ele>47</ele>
        <time>2019-07-17T13:49:45Z</time>
      </trkpt>
      <trkpt lat="47.79471" lon="-3.49825">
        <ele>47</ele>
        <time>2019-07-17T13:49:46Z</time>
      </trkpt>
      <trkpt lat="47.79473" lon="-3.49819">
        <ele>47</ele>
        <time>2019-07-17T13:49:47Z</time>
      </trkpt>
      <trkpt lat="47.79475" lon="-3.49813">
        <ele>47</ele>
        <time>2019-07-17T13:49:48Z</time>
      </trkpt>
      <trkpt lat="47.79477" lon="-3.49808">
        <ele>47</ele>
        <time>2019-07-17T13:49:49Z</time>
      </trkpt>
      <trkpt lat="47.79479" lon="-3.49802">
        <ele>47</ele>
        <time>2019-07-17T13:49:50Z</time>
      </trkpt>
      <trkpt lat="47.79481" lon="-3.49794">
        <ele>48</ele>
        <time>2019-07-17T13:49:51Z</time>
      </trkpt>
      <trkpt lat="47.79483" lon="-3.49787">
        <ele>48</ele>
        <time>2019-07-17T13:49:52Z</time>
      </trkpt>
      <trkpt lat="47.79484" lon="-3.4978">
        <ele>48</ele>
        <time>2019-07-17T13:49:53Z</time>
      </trkpt>
      <trkpt lat="47.79485" lon="-3.49772">
        <ele>48</ele>
        <time>2019-07-17T13:49:54Z</time>
      </trkpt>
      <trkpt lat="47.79485" lon="-3.49765">
        <ele>48</ele>
        <time>2019-07-17T13:49:55Z</time>
      </trkpt>
      <trkpt lat="47.79486" lon="-3.49757">
        <ele>48</ele>
        <time>2019-07-17T13:49:56Z</time>
      </trkpt>
      <trkpt lat="47.79486" lon="-3.49749">
        <ele>48</ele>
        <time>2019-07-17T13:49:57Z</time>
      </trkpt>
      <trkpt lat="47.79486" lon="-3.49741">
        <ele>49</ele>
        <time>2019-07-17T13:49:58Z</time>
      </trkpt>
      <trkpt lat="47.79486" lon="-3.49734">
        <ele>49</ele>
        <time>2019-07-17T13:49:59Z</time>
      </trkpt>
      <trkpt lat="47.79486" lon="-3.49728">
        <ele>49</ele>
        <time>2019-07-17T13:50:00Z</time>
      </trkpt>
      <trkpt lat="47.79486" lon="-3.49721">
        <ele>49</ele>
        <time>2019-07-17T13:50:01Z</time>
      </trkpt>
      <trkpt lat="47.79485" lon="-3.49714">
        <ele>49</ele>
        <time>2019-07-17T13:50:02Z</time>
      </trkpt>
      <trkpt lat="47.79484" lon="-3.49707">
        <ele>49</ele>
        <time>2019-07-17T13:50:03Z</time>
      </trkpt>
      <trkpt lat="47.79482" lon="-3.49701">
        <ele>49</ele>
        <time>2019-07-17T13:50:04Z</time>
      </trkpt>
      <trkpt lat="47.79482" lon="-3.49693">
        <ele>50</ele>
        <time>2019-07-17T13:50:05Z</time>
      </trkpt>
      <trkpt lat="47.7948" lon="-3.49686">
        <ele>50</ele>
        <time>2019-07-17T13:50:06Z</time>
      </trkpt>
      <trkpt lat="47.79481" lon="-3.4968">
        <ele>50</ele>
        <time>2019-07-17T13:50:07Z</time>
      </trkpt>
      <trkpt lat="47.79482" lon="-3.49675">
        <ele>50</ele>
        <time>2019-07-17T13:50:08Z</time>
      </trkpt>
      <trkpt lat="47.79485" lon="-3.49671">
        <ele>50</ele>
        <time>2019-07-17T13:50:09Z</time>
      </trkpt>
      <trkpt lat="47.79488" lon="-3.49665">
        <ele>50</ele>
        <time>2019-07-17T13:50:10Z</time>
      </trkpt>
      <trkpt lat="47.79492" lon="-3.49659">
        <ele>50</ele>
        <time>2019-07-17T13:50:11Z</time>
      </trkpt>
      <trkpt lat="47.79496" lon="-3.49652">
        <ele>50</ele>
        <time>2019-07-17T13:50:12Z</time>
      </trkpt>
      <trkpt lat="47.79498" lon="-3.49645">
        <ele>51</ele>
        <time>2019-07-17T13:50:13Z</time>
      </trkpt>
      <trkpt lat="47.79499" lon="-3.49638">
        <ele>51</ele>
        <time>2019-07-17T13:50:14Z</time>
      </trkpt>
      <trkpt lat="47.795" lon="-3.4963">
        <ele>51</ele>
        <time>2019-07-17T13:50:15Z</time>
      </trkpt>
      <trkpt lat="47.79501" lon="-3.49622">
        <ele>51</ele>
        <time>2019-07-17T13:50:16Z</time>
      </trkpt>
      <trkpt lat="47.79501" lon="-3.49613">
        <ele>51</ele>
        <time>2019-07-17T13:50:17Z</time>
      </trkpt>
      <trkpt lat="47.79501" lon="-3.49605">
        <ele>51</ele>
        <time>2019-07-17T13:50:18Z</time>
      </trkpt>
      <trkpt lat="47.79501" lon="-3.49596">
        <ele>51</ele>
        <time>2019-07-17T13:50:19Z</time>
      </trkpt>
      <trkpt lat="47.79501" lon="-3.49587">
        <ele>51</ele>
        <time>2019-07-17T13:50:20Z</time>
      </trkpt>
      <trkpt lat="47.79501" lon="-3.49579">
        <ele>51</ele>
        <time>2019-07-17T13:50:21Z</time>
      </trkpt>
      <trkpt lat="47.79502" lon="-3.4957">
        <ele>51</ele>
        <time>2019-07-17T13:50:22Z</time>
      </trkpt>
      <trkpt lat="47.79503" lon="-3.49562">
        <ele>51</ele>
        <time>2019-07-17T13:50:23Z</time>
      </trkpt>
      <trkpt lat="47.79503" lon="-3.49553">
        <ele>51</ele>
        <time>2019-07-17T13:50:24Z</time>
      </trkpt>
      <trkpt lat="47.79505" lon="-3.49545">
        <ele>51</ele>
        <time>2019-07-17T13:50:25Z</time>
      </trkpt>
      <trkpt lat="47.79506" lon="-3.49536">
        <ele>51</ele>
        <time>2019-07-17T13:50:26Z</time>
      </trkpt>
      <trkpt lat="47.79507" lon="-3.49528">
        <ele>51</ele>
        <time>2019-07-17T13:50:27Z</time>
      </trkpt>
      <trkpt lat="47.79507" lon="-3.49519">
        <ele>51</ele>
        <time>2019-07-17T13:50:28Z</time>
      </trkpt>
      <trkpt lat="47.79508" lon="-3.49511">
        <ele>50</ele>
        <time>2019-07-17T13:50:29Z</time>
      </trkpt>
      <trkpt lat="47.79508" lon="-3.49502">
        <ele>50</ele>
        <time>2019-07-17T13:50:30Z</time>
      </trkpt>
      <trkpt lat="47.79509" lon="-3.49494">
        <ele>50</ele>
        <time>2019-07-17T13:50:31Z</time>
      </trkpt>
      <trkpt lat="47.79509" lon="-3.49485">
        <ele>50</ele>
        <time>2019-07-17T13:50:32Z</time>
      </trkpt>
      <trkpt lat="47.79509" lon="-3.49477">
        <ele>50</ele>
        <time>2019-07-17T13:50:33Z</time>
      </trkpt>
      <trkpt lat="47.79511" lon="-3.49468">
        <ele>50</ele>
        <time>2019-07-17T13:50:34Z</time>
      </trkpt>
      <trkpt lat="47.79512" lon="-3.4946">
        <ele>50</ele>
        <time>2019-07-17T13:50:35Z</time>
      </trkpt>
      <trkpt lat="47.79513" lon="-3.4945">
        <ele>50</ele>
        <time>2019-07-17T13:50:36Z</time>
      </trkpt>
      <trkpt lat="47.79514" lon="-3.49441">
        <ele>50</ele>
        <time>2019-07-17T13:50:37Z</time>
      </trkpt>
      <trkpt lat="47.79515" lon="-3.49431">
        <ele>50</ele>
        <time>2019-07-17T13:50:38Z</time>
      </trkpt>
      <trkpt lat="47.79515" lon="-3.49422">
        <ele>49</ele>
        <time>2019-07-17T13:50:39Z</time>
      </trkpt>
      <trkpt lat="47.79515" lon="-3.49412">
        <ele>49</ele>
        <time>2019-07-17T13:50:40Z</time>
      </trkpt>
      <trkpt lat="47.79514" lon="-3.49402">
        <ele>49</ele>
        <time>2019-07-17T13:50:41Z</time>
      </trkpt>
      <trkpt lat="47.79513" lon="-3.49392">
        <ele>49</ele>
        <time>2019-07-17T13:50:42Z</time>
      </trkpt>
      <trkpt lat="47.79513" lon="-3.49382">
        <ele>48</ele>
        <time>2019-07-17T13:50:43Z</time>
      </trkpt>
      <trkpt lat="47.79514" lon="-3.49371">
        <ele>48</ele>
        <time>2019-07-17T13:50:44Z</time>
      </trkpt>
      <trkpt lat="47.79515" lon="-3.49361">
        <ele>48</ele>
        <time>2019-07-17T13:50:45Z</time>
      </trkpt>
      <trkpt lat="47.79517" lon="-3.4935">
        <ele>47</ele>
        <time>2019-07-17T13:50:46Z</time>
      </trkpt>
      <trkpt lat="47.79516" lon="-3.4934">
        <ele>47</ele>
        <time>2019-07-17T13:50:47Z</time>
      </trkpt>
      <trkpt lat="47.79513" lon="-3.4933">
        <ele>47</ele>
        <time>2019-07-17T13:50:48Z</time>
      </trkpt>
      <trkpt lat="47.79509" lon="-3.49321">
        <ele>46</ele>
        <time>2019-07-17T13:50:49Z</time>
      </trkpt>
      <trkpt lat="47.79507" lon="-3.49313">
        <ele>46</ele>
        <time>2019-07-17T13:50:50Z</time>
      </trkpt>
      <trkpt lat="47.79506" lon="-3.49305">
        <ele>46</ele>
        <time>2019-07-17T13:50:51Z</time>
      </trkpt>
      <trkpt lat="47.79505" lon="-3.493">
        <ele>46</ele>
        <time>2019-07-17T13:50:52Z</time>
      </trkpt>
      <trkpt lat="47.79506" lon="-3.49294">
        <ele>45</ele>
        <time>2019-07-17T13:50:53Z</time>
      </trkpt>
      <trkpt lat="47.79507" lon="-3.49288">
        <ele>45</ele>
        <time>2019-07-17T13:50:54Z</time>
      </trkpt>
      <trkpt lat="47.7951" lon="-3.49282">
        <ele>45</ele>
        <time>2019-07-17T13:50:55Z</time>
      </trkpt>
      <trkpt lat="47.79513" lon="-3.49277">
        <ele>45</ele>
        <time>2019-07-17T13:50:56Z</time>
      </trkpt>
      <trkpt lat="47.79517" lon="-3.49272">
        <ele>45</ele>
        <time>2019-07-17T13:50:57Z</time>
      </trkpt>
      <trkpt lat="47.79521" lon="-3.49267">
        <ele>45</ele>
        <time>2019-07-17T13:50:58Z</time>
      </trkpt>
      <trkpt lat="47.79524" lon="-3.4926">
        <ele>45</ele>
        <time>2019-07-17T13:50:59Z</time>
      </trkpt>
      <trkpt lat="47.79526" lon="-3.49252">
        <ele>45</ele>
        <time>2019-07-17T13:51:00Z</time>
      </trkpt>
      <trkpt lat="47.79526" lon="-3.49243">
        <ele>44</ele>
        <time>2019-07-17T13:51:01Z</time>
      </trkpt>
      <trkpt lat="47.79527" lon="-3.49234">
        <ele>44</ele>
        <time>2019-07-17T13:51:02Z</time>
      </trkpt>
      <trkpt lat="47.79526" lon="-3.49224">
        <ele>44</ele>
        <time>2019-07-17T13:51:03Z</time>
      </trkpt>
      <trkpt lat="47.79526" lon="-3.49215">
        <ele>44</ele>
        <time>2019-07-17T13:51:04Z</time>
      </trkpt>
      <trkpt lat="47.79525" lon="-3.49206">
        <ele>44</ele>
        <time>2019-07-17T13:51:05Z</time>
      </trkpt>
      <trkpt lat="47.79525" lon="-3.49196">
        <ele>44</ele>
        <time>2019-07-17T13:51:06Z</time>
      </trkpt>
      <trkpt lat="47.79524" lon="-3.49186">
        <ele>43</ele>
        <time>2019-07-17T13:51:07Z</time>
      </trkpt>
      <trkpt lat="47.79525" lon="-3.49176">
        <ele>43</ele>
        <time>2019-07-17T13:51:08Z</time>
      </trkpt>
      <trkpt lat="47.79527" lon="-3.49166">
        <ele>42</ele>
        <time>2019-07-17T13:51:09Z</time>
      </trkpt>
      <trkpt lat="47.7953" lon="-3.49157">
        <ele>42</ele>
        <time>2019-07-17T13:51:10Z</time>
      </trkpt>
      <trkpt lat="47.79533" lon="-3.49147">
        <ele>42</ele>
        <time>2019-07-17T13:51:11Z</time>
      </trkpt>
      <trkpt lat="47.79534" lon="-3.49137">
        <ele>41</ele>
        <time>2019-07-17T13:51:12Z</time>
      </trkpt>
      <trkpt lat="47.79534" lon="-3.49127">
        <ele>41</ele>
        <time>2019-07-17T13:51:13Z</time>
      </trkpt>
      <trkpt lat="47.79534" lon="-3.49118">
        <ele>40</ele>
        <time>2019-07-17T13:51:14Z</time>
      </trkpt>
      <trkpt lat="47.79534" lon="-3.4911">
        <ele>40</ele>
        <time>2019-07-17T13:51:15Z</time>
      </trkpt>
      <trkpt lat="47.79534" lon="-3.49101">
        <ele>40</ele>
        <time>2019-07-17T13:51:16Z</time>
      </trkpt>
      <trkpt lat="47.79534" lon="-3.49093">
        <ele>40</ele>
        <time>2019-07-17T13:51:17Z</time>
      </trkpt>
      <trkpt lat="47.79534" lon="-3.49086">
        <ele>40</ele>
        <time>2019-07-17T13:51:18Z</time>
      </trkpt>
      <trkpt lat="47.79534" lon="-3.49078">
        <ele>40</ele>
        <time>2019-07-17T13:51:19Z</time>
      </trkpt>
      <trkpt lat="47.79534" lon="-3.49071">
        <ele>40</ele>
        <time>2019-07-17T13:51:20Z</time>
      </trkpt>
      <trkpt lat="47.79534" lon="-3.49064">
        <ele>40</ele>
        <time>2019-07-17T13:51:21Z</time>
      </trkpt>
      <trkpt lat="47.79534" lon="-3.49057">
        <ele>40</ele>
        <time>2019-07-17T13:51:22Z</time>
      </trkpt>
      <trkpt lat="47.79533" lon="-3.4905">
        <ele>40</ele>
        <time>2019-07-17T13:51:23Z</time>
      </trkpt>
      <trkpt lat="47.79532" lon="-3.49042">
        <ele>40</ele>
        <time>2019-07-17T13:51:24Z</time>
      </trkpt>
      <trkpt lat="47.79532" lon="-3.49035">
        <ele>40</ele>
        <time>2019-07-17T13:51:25Z</time>
      </trkpt>
      <trkpt lat="47.79533" lon="-3.49028">
        <ele>40</ele>
        <time>2019-07-17T13:51:26Z</time>
      </trkpt>
      <trkpt lat="47.79534" lon="-3.49021">
        <ele>40</ele>
        <time>2019-07-17T13:51:27Z</time>
      </trkpt>
      <trkpt lat="47.79534" lon="-3.49013">
        <ele>40</ele>
        <time>2019-07-17T13:51:28Z</time>
      </trkpt>
      <trkpt lat="47.79535" lon="-3.49005">
        <ele>41</ele>
        <time>2019-07-17T13:51:29Z</time>
      </trkpt>
      <trkpt lat="47.79535" lon="-3.48996">
        <ele>41</ele>
        <time>2019-07-17T13:51:30Z</time>
      </trkpt>
      <trkpt lat="47.79534" lon="-3.48988">
        <ele>41</ele>
        <time>2019-07-17T13:51:31Z</time>
      </trkpt>
      <trkpt lat="47.79534" lon="-3.4898">
        <ele>41</ele>
        <time>2019-07-17T13:51:32Z</time>
      </trkpt>
      <trkpt lat="47.79533" lon="-3.48972">
        <ele>41</ele>
        <time>2019-07-17T13:51:33Z</time>
      </trkpt>
      <trkpt lat="47.79532" lon="-3.48964">
        <ele>41</ele>
        <time>2019-07-17T13:51:34Z</time>
      </trkpt>
      <trkpt lat="47.79531" lon="-3.48957">
        <ele>41</ele>
        <time>2019-07-17T13:51:35Z</time>
      </trkpt>
      <trkpt lat="47.79531" lon="-3.48949">
        <ele>41</ele>
        <time>2019-07-17T13:51:36Z</time>
      </trkpt>
      <trkpt lat="47.79532" lon="-3.48942">
        <ele>41</ele>
        <time>2019-07-17T13:51:37Z</time>
      </trkpt>
      <trkpt lat="47.79532" lon="-3.48934">
        <ele>42</ele>
        <time>2019-07-17T13:51:38Z</time>
      </trkpt>
      <trkpt lat="47.79532" lon="-3.48927">
        <ele>42</ele>
        <time>2019-07-17T13:51:39Z</time>
      </trkpt>
      <trkpt lat="47.79532" lon="-3.4892">
        <ele>42</ele>
        <time>2019-07-17T13:51:40Z</time>
      </trkpt>
      <trkpt lat="47.79531" lon="-3.48913">
        <ele>43</ele>
        <time>2019-07-17T13:51:41Z</time>
      </trkpt>
      <trkpt lat="47.79531" lon="-3.48906">
        <ele>43</ele>
        <time>2019-07-17T13:51:42Z</time>
      </trkpt>
      <trkpt lat="47.79532" lon="-3.489">
        <ele>43</ele>
        <time>2019-07-17T13:51:43Z</time>
      </trkpt>
      <trkpt lat="47.79533" lon="-3.48894">
        <ele>44</ele>
        <time>2019-07-17T13:51:44Z</time>
      </trkpt>
      <trkpt lat="47.79534" lon="-3.48888">
        <ele>44</ele>
        <time>2019-07-17T13:51:45Z</time>
      </trkpt>
      <trkpt lat="47.79536" lon="-3.48882">
        <ele>44</ele>
        <time>2019-07-17T13:51:46Z</time>
      </trkpt>
      <trkpt lat="47.79538" lon="-3.48878">
        <ele>45</ele>
        <time>2019-07-17T13:51:47Z</time>
      </trkpt>
      <trkpt lat="47.79541" lon="-3.48874">
        <ele>45</ele>
        <time>2019-07-17T13:51:48Z</time>
      </trkpt>
      <trkpt lat="47.79543" lon="-3.4887">
        <ele>45</ele>
        <time>2019-07-17T13:51:49Z</time>
      </trkpt>
      <trkpt lat="47.79545" lon="-3.48865">
        <ele>45</ele>
        <time>2019-07-17T13:51:50Z</time>
      </trkpt>
      <trkpt lat="47.79545" lon="-3.48861">
        <ele>45</ele>
        <time>2019-07-17T13:51:51Z</time>
      </trkpt>
      <trkpt lat="47.79546" lon="-3.48856">
        <ele>45</ele>
        <time>2019-07-17T13:51:52Z</time>
      </trkpt>
      <trkpt lat="47.79546" lon="-3.48851">
        <ele>45</ele>
        <time>2019-07-17T13:51:53Z</time>
      </trkpt>
      <trkpt lat="47.79545" lon="-3.48846">
        <ele>45</ele>
        <time>2019-07-17T13:51:54Z</time>
      </trkpt>
      <trkpt lat="47.79543" lon="-3.48843">
        <ele>46</ele>
        <time>2019-07-17T13:51:55Z</time>
      </trkpt>
      <trkpt lat="47.79541" lon="-3.4884">
        <ele>46</ele>
        <time>2019-07-17T13:51:56Z</time>
      </trkpt>
      <trkpt lat="47.79538" lon="-3.48837">
        <ele>46</ele>
        <time>2019-07-17T13:51:57Z</time>
      </trkpt>
      <trkpt lat="47.79535" lon="-3.48832">
        <ele>46</ele>
        <time>2019-07-17T13:51:58Z</time>
      </trkpt>
      <trkpt lat="47.79534" lon="-3.48827">
        <ele>46</ele>
        <time>2019-07-17T13:51:59Z</time>
      </trkpt>
      <trkpt lat="47.79533" lon="-3.48822">
        <ele>46</ele>
        <time>2019-07-17T13:52:00Z</time>
      </trkpt>
      <trkpt lat="47.79533" lon="-3.48816">
        <ele>46</ele>
        <time>2019-07-17T13:52:01Z</time>
      </trkpt>
      <trkpt lat="47.79534" lon="-3.48811">
        <ele>47</ele>
        <time>2019-07-17T13:52:02Z</time>
      </trkpt>
      <trkpt lat="47.79534" lon="-3.48805">
        <ele>47</ele>
        <time>2019-07-17T13:52:03Z</time>
      </trkpt>
      <trkpt lat="47.79534" lon="-3.48801">
        <ele>47</ele>
        <time>2019-07-17T13:52:04Z</time>
      </trkpt>
      <trkpt lat="47.79534" lon="-3.48797">
        <ele>47</ele>
        <time>2019-07-17T13:52:05Z</time>
      </trkpt>
      <trkpt lat="47.79532" lon="-3.48792">
        <ele>47</ele>
        <time>2019-07-17T13:52:06Z</time>
      </trkpt>
      <trkpt lat="47.79532" lon="-3.48788">
        <ele>47</ele>
        <time>2019-07-17T13:52:07Z</time>
      </trkpt>
      <trkpt lat="47.79532" lon="-3.48783">
        <ele>48</ele>
        <time>2019-07-17T13:52:08Z</time>
      </trkpt>
      <trkpt lat="47.79532" lon="-3.48778">
        <ele>48</ele>
        <time>2019-07-17T13:52:09Z</time>
      </trkpt>
      <trkpt lat="47.79532" lon="-3.48774">
        <ele>48</ele>
        <time>2019-07-17T13:52:10Z</time>
      </trkpt>
      <trkpt lat="47.79532" lon="-3.4877">
        <ele>48</ele>
        <time>2019-07-17T13:52:11Z</time>
      </trkpt>
      <trkpt lat="47.79533" lon="-3.48766">
        <ele>48</ele>
        <time>2019-07-17T13:52:12Z</time>
      </trkpt>
      <trkpt lat="47.79533" lon="-3.48761">
        <ele>48</ele>
        <time>2019-07-17T13:52:13Z</time>
      </trkpt>
      <trkpt lat="47.79533" lon="-3.48757">
        <ele>48</ele>
        <time>2019-07-17T13:52:14Z</time>
      </trkpt>
      <trkpt lat="47.79533" lon="-3.48752">
        <ele>48</ele>
        <time>2019-07-17T13:52:15Z</time>
      </trkpt>
      <trkpt lat="47.79533" lon="-3.48747">
        <ele>48</ele>
        <time>2019-07-17T13:52:16Z</time>
      </trkpt>
      <trkpt lat="47.79533" lon="-3.48742">
        <ele>48</ele>
        <time>2019-07-17T13:52:17Z</time>
      </trkpt>
      <trkpt lat="47.79533" lon="-3.48737">
        <ele>48</ele>
        <time>2019-07-17T13:52:18Z</time>
      </trkpt>
      <trkpt lat="47.79532" lon="-3.48731">
        <ele>48</ele>
        <time>2019-07-17T13:52:19Z</time>
      </trkpt>
      <trkpt lat="47.79533" lon="-3.48726">
        <ele>48</ele>
        <time>2019-07-17T13:52:20Z</time>
      </trkpt>
      <trkpt lat="47.79534" lon="-3.4872">
        <ele>48</ele>
        <time>2019-07-17T13:52:21Z</time>
      </trkpt>
      <trkpt lat="47.79535" lon="-3.48713">
        <ele>49</ele>
        <time>2019-07-17T13:52:22Z</time>
      </trkpt>
      <trkpt lat="47.79536" lon="-3.48704">
        <ele>49</ele>
        <time>2019-07-17T13:52:23Z</time>
      </trkpt>
      <trkpt lat="47.79536" lon="-3.48696">
        <ele>49</ele>
        <time>2019-07-17T13:52:24Z</time>
      </trkpt>
      <trkpt lat="47.79536" lon="-3.48686">
        <ele>49</ele>
        <time>2019-07-17T13:52:25Z</time>
      </trkpt>
      <trkpt lat="47.79536" lon="-3.48676">
        <ele>49</ele>
        <time>2019-07-17T13:52:26Z</time>
      </trkpt>
      <trkpt lat="47.79537" lon="-3.48666">
        <ele>48</ele>
        <time>2019-07-17T13:52:27Z</time>
      </trkpt>
      <trkpt lat="47.79536" lon="-3.48655">
        <ele>48</ele>
        <time>2019-07-17T13:52:28Z</time>
      </trkpt>
      <trkpt lat="47.79537" lon="-3.48644">
        <ele>48</ele>
        <time>2019-07-17T13:52:29Z</time>
      </trkpt>
      <trkpt lat="47.79537" lon="-3.48635">
        <ele>48</ele>
        <time>2019-07-17T13:52:30Z</time>
      </trkpt>
      <trkpt lat="47.79537" lon="-3.48627">
        <ele>48</ele>
        <time>2019-07-17T13:52:31Z</time>
      </trkpt>
      <trkpt lat="47.79536" lon="-3.4862">
        <ele>48</ele>
        <time>2019-07-17T13:52:32Z</time>
      </trkpt>
      <trkpt lat="47.79535" lon="-3.48613">
        <ele>48</ele>
        <time>2019-07-17T13:52:33Z</time>
      </trkpt>
      <trkpt lat="47.79534" lon="-3.48605">
        <ele>48</ele>
        <time>2019-07-17T13:52:34Z</time>
      </trkpt>
      <trkpt lat="47.79534" lon="-3.48597">
        <ele>48</ele>
        <time>2019-07-17T13:52:35Z</time>
      </trkpt>
      <trkpt lat="47.79532" lon="-3.48589">
        <ele>48</ele>
        <time>2019-07-17T13:52:36Z</time>
      </trkpt>
      <trkpt lat="47.79529" lon="-3.48581">
        <ele>48</ele>
        <time>2019-07-17T13:52:37Z</time>
      </trkpt>
      <trkpt lat="47.79528" lon="-3.48572">
        <ele>47</ele>
        <time>2019-07-17T13:52:38Z</time>
      </trkpt>
      <trkpt lat="47.79527" lon="-3.48564">
        <ele>47</ele>
        <time>2019-07-17T13:52:39Z</time>
      </trkpt>
      <trkpt lat="47.79528" lon="-3.48555">
        <ele>47</ele>
        <time>2019-07-17T13:52:40Z</time>
      </trkpt>
      <trkpt lat="47.79529" lon="-3.48546">
        <ele>47</ele>
        <time>2019-07-17T13:52:41Z</time>
      </trkpt>
      <trkpt lat="47.79529" lon="-3.48537">
        <ele>47</ele>
        <time>2019-07-17T13:52:42Z</time>
      </trkpt>
      <trkpt lat="47.79528" lon="-3.48529">
        <ele>47</ele>
        <time>2019-07-17T13:52:43Z</time>
      </trkpt>
      <trkpt lat="47.79527" lon="-3.4852">
        <ele>47</ele>
        <time>2019-07-17T13:52:44Z</time>
      </trkpt>
      <trkpt lat="47.79525" lon="-3.48512">
        <ele>46</ele>
        <time>2019-07-17T13:52:45Z</time>
      </trkpt>
      <trkpt lat="47.79524" lon="-3.48504">
        <ele>46</ele>
        <time>2019-07-17T13:52:46Z</time>
      </trkpt>
      <trkpt lat="47.79524" lon="-3.48495">
        <ele>46</ele>
        <time>2019-07-17T13:52:47Z</time>
      </trkpt>
      <trkpt lat="47.79524" lon="-3.48487">
        <ele>46</ele>
        <time>2019-07-17T13:52:48Z</time>
      </trkpt>
      <trkpt lat="47.79523" lon="-3.48478">
        <ele>46</ele>
        <time>2019-07-17T13:52:49Z</time>
      </trkpt>
      <trkpt lat="47.79524" lon="-3.4847">
        <ele>46</ele>
        <time>2019-07-17T13:52:50Z</time>
      </trkpt>
      <trkpt lat="47.79525" lon="-3.48462">
        <ele>45</ele>
        <time>2019-07-17T13:52:51Z</time>
      </trkpt>
      <trkpt lat="47.79524" lon="-3.48455">
        <ele>45</ele>
        <time>2019-07-17T13:52:52Z</time>
      </trkpt>
      <trkpt lat="47.79523" lon="-3.48448">
        <ele>45</ele>
        <time>2019-07-17T13:52:53Z</time>
      </trkpt>
      <trkpt lat="47.79522" lon="-3.48442">
        <ele>45</ele>
        <time>2019-07-17T13:52:54Z</time>
      </trkpt>
      <trkpt lat="47.79521" lon="-3.48436">
        <ele>45</ele>
        <time>2019-07-17T13:52:55Z</time>
      </trkpt>
      <trkpt lat="47.79521" lon="-3.4843">
        <ele>45</ele>
        <time>2019-07-17T13:52:56Z</time>
      </trkpt>
      <trkpt lat="47.79522" lon="-3.48424">
        <ele>45</ele>
        <time>2019-07-17T13:52:57Z</time>
      </trkpt>
      <trkpt lat="47.79522" lon="-3.48418">
        <ele>45</ele>
        <time>2019-07-17T13:52:58Z</time>
      </trkpt>
      <trkpt lat="47.79521" lon="-3.48412">
        <ele>45</ele>
        <time>2019-07-17T13:52:59Z</time>
      </trkpt>
      <trkpt lat="47.79521" lon="-3.48405">
        <ele>45</ele>
        <time>2019-07-17T13:53:00Z</time>
      </trkpt>
      <trkpt lat="47.79519" lon="-3.48397">
        <ele>46</ele>
        <time>2019-07-17T13:53:01Z</time>
      </trkpt>
      <trkpt lat="47.79518" lon="-3.48391">
        <ele>46</ele>
        <time>2019-07-17T13:53:02Z</time>
      </trkpt>
      <trkpt lat="47.79516" lon="-3.48383">
        <ele>46</ele>
        <time>2019-07-17T13:53:03Z</time>
      </trkpt>
      <trkpt lat="47.79517" lon="-3.48376">
        <ele>46</ele>
        <time>2019-07-17T13:53:04Z</time>
      </trkpt>
      <trkpt lat="47.79518" lon="-3.48368">
        <ele>46</ele>
        <time>2019-07-17T13:53:05Z</time>
      </trkpt>
      <trkpt lat="47.7952" lon="-3.48362">
        <ele>46</ele>
        <time>2019-07-17T13:53:06Z</time>
      </trkpt>
      <trkpt lat="47.79521" lon="-3.48356">
        <ele>47</ele>
        <time>2019-07-17T13:53:07Z</time>
      </trkpt>
      <trkpt lat="47.79523" lon="-3.48352">
        <ele>47</ele>
        <time>2019-07-17T13:53:08Z</time>
      </trkpt>
      <trkpt lat="47.79526" lon="-3.48347">
        <ele>47</ele>
        <time>2019-07-17T13:53:09Z</time>
      </trkpt>
      <trkpt lat="47.7953" lon="-3.48341">
        <ele>47</ele>
        <time>2019-07-17T13:53:10Z</time>
      </trkpt>
      <trkpt lat="47.79535" lon="-3.48336">
        <ele>47</ele>
        <time>2019-07-17T13:53:11Z</time>
      </trkpt>
      <trkpt lat="47.7954" lon="-3.48331">
        <ele>48</ele>
        <time>2019-07-17T13:53:12Z</time>
      </trkpt>
      <trkpt lat="47.79545" lon="-3.48327">
        <ele>48</ele>
        <time>2019-07-17T13:53:13Z</time>
      </trkpt>
      <trkpt lat="47.7955" lon="-3.48324">
        <ele>48</ele>
        <time>2019-07-17T13:53:14Z</time>
      </trkpt>
      <trkpt lat="47.79556" lon="-3.4832">
        <ele>48</ele>
        <time>2019-07-17T13:53:15Z</time>
      </trkpt>
      <trkpt lat="47.79561" lon="-3.48317">
        <ele>48</ele>
        <time>2019-07-17T13:53:16Z</time>
      </trkpt>
      <trkpt lat="47.79567" lon="-3.48313">
        <ele>48</ele>
        <time>2019-07-17T13:53:17Z</time>
      </trkpt>
      <trkpt lat="47.79573" lon="-3.48309">
        <ele>48</ele>
        <time>2019-07-17T13:53:18Z</time>
      </trkpt>
      <trkpt lat="47.79579" lon="-3.48307">
        <ele>48</ele>
        <time>2019-07-17T13:53:19Z</time>
      </trkpt>
      <trkpt lat="47.79585" lon="-3.48308">
        <ele>48</ele>
        <time>2019-07-17T13:53:20Z</time>
      </trkpt>
      <trkpt lat="47.79591" lon="-3.48311">
        <ele>48</ele>
        <time>2019-07-17T13:53:21Z</time>
      </trkpt>
      <trkpt lat="47.79596" lon="-3.48312">
        <ele>48</ele>
        <time>2019-07-17T13:53:22Z</time>
      </trkpt>
      <trkpt lat="47.79601" lon="-3.4831">
        <ele>48</ele>
        <time>2019-07-17T13:53:23Z</time>
      </trkpt>
      <trkpt lat="47.79604" lon="-3.48307">
        <ele>48</ele>
        <time>2019-07-17T13:53:24Z</time>
      </trkpt>
      <trkpt lat="47.79608" lon="-3.48304">
        <ele>48</ele>
        <time>2019-07-17T13:53:25Z</time>
      </trkpt>
      <trkpt lat="47.7961" lon="-3.483">
        <ele>48</ele>
        <time>2019-07-17T13:53:26Z</time>
      </trkpt>
      <trkpt lat="47.7961" lon="-3.48296">
        <ele>48</ele>
        <time>2019-07-17T13:53:27Z</time>
      </trkpt>
      <trkpt lat="47.7961" lon="-3.48292">
        <ele>48</ele>
        <time>2019-07-17T13:53:28Z</time>
      </trkpt>
      <trkpt lat="47.7961" lon="-3.48288">
        <ele>48</ele>
        <time>2019-07-17T13:53:29Z</time>
      </trkpt>
      <trkpt lat="47.7961" lon="-3.48283">
        <ele>48</ele>
        <time>2019-07-17T13:53:30Z</time>
      </trkpt>
      <trkpt lat="47.79611" lon="-3.48279">
        <ele>48</ele>
        <time>2019-07-17T13:53:31Z</time>
      </trkpt>
      <trkpt lat="47.79611" lon="-3.48273">
        <ele>48</ele>
        <time>2019-07-17T13:53:32Z</time>
      </trkpt>
      <trkpt lat="47.79612" lon="-3.48267">
        <ele>48</ele>
        <time>2019-07-17T13:53:33Z</time>
      </trkpt>
      <trkpt lat="47.79614" lon="-3.48261">
        <ele>47</ele>
        <time>2019-07-17T13:53:34Z</time>
      </trkpt>
      <trkpt lat="47.79617" lon="-3.48256">
        <ele>47</ele>
        <time>2019-07-17T13:53:35Z</time>
      </trkpt>
      <trkpt lat="47.7962" lon="-3.48251">
        <ele>47</ele>
        <time>2019-07-17T13:53:36Z</time>
      </trkpt>
      <trkpt lat="47.79623" lon="-3.48248">
        <ele>47</ele>
        <time>2019-07-17T13:53:37Z</time>
      </trkpt>
      <trkpt lat="47.79627" lon="-3.48246">
        <ele>47</ele>
        <time>2019-07-17T13:53:38Z</time>
      </trkpt>
      <trkpt lat="47.79631" lon="-3.48245">
        <ele>47</ele>
        <time>2019-07-17T13:53:39Z</time>
      </trkpt>
      <trkpt lat="47.79634" lon="-3.48246">
        <ele>47</ele>
        <time>2019-07-17T13:53:40Z</time>
      </trkpt>
      <trkpt lat="47.79639" lon="-3.48247">
        <ele>47</ele>
        <time>2019-07-17T13:53:41Z</time>
      </trkpt>
      <trkpt lat="47.79643" lon="-3.48247">
        <ele>47</ele>
        <time>2019-07-17T13:53:42Z</time>
      </trkpt>
      <trkpt lat="47.79647" lon="-3.48247">
        <ele>47</ele>
        <time>2019-07-17T13:53:43Z</time>
      </trkpt>
      <trkpt lat="47.79651" lon="-3.48249">
        <ele>46</ele>
        <time>2019-07-17T13:53:44Z</time>
      </trkpt>
      <trkpt lat="47.79655" lon="-3.48252">
        <ele>46</ele>
        <time>2019-07-17T13:53:45Z</time>
      </trkpt>
      <trkpt lat="47.79659" lon="-3.48253">
        <ele>46</ele>
        <time>2019-07-17T13:53:46Z</time>
      </trkpt>
      <trkpt lat="47.79664" lon="-3.48252">
        <ele>46</ele>
        <time>2019-07-17T13:53:47Z</time>
      </trkpt>
      <trkpt lat="47.79669" lon="-3.48249">
        <ele>46</ele>
        <time>2019-07-17T13:53:48Z</time>
      </trkpt>
      <trkpt lat="47.79673" lon="-3.48245">
        <ele>46</ele>
        <time>2019-07-17T13:53:49Z</time>
      </trkpt>
      <trkpt lat="47.79677" lon="-3.4824">
        <ele>46</ele>
        <time>2019-07-17T13:53:50Z</time>
      </trkpt>
      <trkpt lat="47.79681" lon="-3.48234">
        <ele>46</ele>
        <time>2019-07-17T13:53:51Z</time>
      </trkpt>
      <trkpt lat="47.79685" lon="-3.48227">
        <ele>46</ele>
        <time>2019-07-17T13:53:52Z</time>
      </trkpt>
      <trkpt lat="47.79687" lon="-3.48219">
        <ele>46</ele>
        <time>2019-07-17T13:53:53Z</time>
      </trkpt>
      <trkpt lat="47.7969" lon="-3.48211">
        <ele>46</ele>
        <time>2019-07-17T13:53:54Z</time>
      </trkpt>
      <trkpt lat="47.79692" lon="-3.48203">
        <ele>46</ele>
        <time>2019-07-17T13:53:55Z</time>
      </trkpt>
      <trkpt lat="47.79694" lon="-3.48195">
        <ele>45</ele>
        <time>2019-07-17T13:53:56Z</time>
      </trkpt>
      <trkpt lat="47.79696" lon="-3.48187">
        <ele>45</ele>
        <time>2019-07-17T13:53:57Z</time>
      </trkpt>
      <trkpt lat="47.79698" lon="-3.48178">
        <ele>45</ele>
        <time>2019-07-17T13:53:58Z</time>
      </trkpt>
      <trkpt lat="47.797" lon="-3.48169">
        <ele>45</ele>
        <time>2019-07-17T13:53:59Z</time>
      </trkpt>
      <trkpt lat="47.79702" lon="-3.48161">
        <ele>45</ele>
        <time>2019-07-17T13:54:00Z</time>
      </trkpt>
      <trkpt lat="47.79705" lon="-3.48152">
        <ele>45</ele>
        <time>2019-07-17T13:54:01Z</time>
      </trkpt>
      <trkpt lat="47.79707" lon="-3.48143">
        <ele>44</ele>
        <time>2019-07-17T13:54:02Z</time>
      </trkpt>
      <trkpt lat="47.79709" lon="-3.48134">
        <ele>44</ele>
        <time>2019-07-17T13:54:03Z</time>
      </trkpt>
      <trkpt lat="47.7971" lon="-3.48126">
        <ele>44</ele>
        <time>2019-07-17T13:54:04Z</time>
      </trkpt>
      <trkpt lat="47.79712" lon="-3.48118">
        <ele>44</ele>
        <time>2019-07-17T13:54:05Z</time>
      </trkpt>
      <trkpt lat="47.79715" lon="-3.4811">
        <ele>44</ele>
        <time>2019-07-17T13:54:06Z</time>
      </trkpt>
      <trkpt lat="47.79716" lon="-3.48102">
        <ele>44</ele>
        <time>2019-07-17T13:54:07Z</time>
      </trkpt>
      <trkpt lat="47.79719" lon="-3.48095">
        <ele>44</ele>
        <time>2019-07-17T13:54:08Z</time>
      </trkpt>
      <trkpt lat="47.79721" lon="-3.48087">
        <ele>44</ele>
        <time>2019-07-17T13:54:09Z</time>
      </trkpt>
      <trkpt lat="47.79724" lon="-3.4808">
        <ele>44</ele>
        <time>2019-07-17T13:54:10Z</time>
      </trkpt>
      <trkpt lat="47.79727" lon="-3.48074">
        <ele>44</ele>
        <time>2019-07-17T13:54:11Z</time>
      </trkpt>
      <trkpt lat="47.7973" lon="-3.48068">
        <ele>44</ele>
        <time>2019-07-17T13:54:12Z</time>
      </trkpt>
      <trkpt lat="47.79734" lon="-3.48063">
        <ele>44</ele>
        <time>2019-07-17T13:54:13Z</time>
      </trkpt>
      <trkpt lat="47.79738" lon="-3.48059">
        <ele>44</ele>
        <time>2019-07-17T13:54:14Z</time>
      </trkpt>
      <trkpt lat="47.79742" lon="-3.48054">
        <ele>44</ele>
        <time>2019-07-17T13:54:15Z</time>
      </trkpt>
      <trkpt lat="47.79746" lon="-3.4805">
        <ele>44</ele>
        <time>2019-07-17T13:54:16Z</time>
      </trkpt>
      <trkpt lat="47.79751" lon="-3.48046">
        <ele>44</ele>
        <time>2019-07-17T13:54:17Z</time>
      </trkpt>
      <trkpt lat="47.79756" lon="-3.48042">
        <ele>44</ele>
        <time>2019-07-17T13:54:18Z</time>
      </trkpt>
      <trkpt lat="47.79761" lon="-3.48038">
        <ele>44</ele>
        <time>2019-07-17T13:54:19Z</time>
      </trkpt>
      <trkpt lat="47.79765" lon="-3.48033">
        <ele>44</ele>
        <time>2019-07-17T13:54:20Z</time>
      </trkpt>
      <trkpt lat="47.7977" lon="-3.48029">
        <ele>44</ele>
        <time>2019-07-17T13:54:21Z</time>
      </trkpt>
      <trkpt lat="47.79775" lon="-3.48024">
        <ele>44</ele>
        <time>2019-07-17T13:54:22Z</time>
      </trkpt>
      <trkpt lat="47.79779" lon="-3.4802">
        <ele>45</ele>
        <time>2019-07-17T13:54:23Z</time>
      </trkpt>
      <trkpt lat="47.79783" lon="-3.48015">
        <ele>45</ele>
        <time>2019-07-17T13:54:24Z</time>
      </trkpt>
      <trkpt lat="47.79787" lon="-3.4801">
        <ele>45</ele>
        <time>2019-07-17T13:54:25Z</time>
      </trkpt>
      <trkpt lat="47.7979" lon="-3.48005">
        <ele>45</ele>
        <time>2019-07-17T13:54:26Z</time>
      </trkpt>
      <trkpt lat="47.79794" lon="-3.48001">
        <ele>44</ele>
        <time>2019-07-17T13:54:27Z</time>
      </trkpt>
      <trkpt lat="47.79798" lon="-3.47998">
        <ele>45</ele>
        <time>2019-07-17T13:54:28Z</time>
      </trkpt>
      <trkpt lat="47.79803" lon="-3.47994">
        <ele>45</ele>
        <time>2019-07-17T13:54:29Z</time>
      </trkpt>
      <trkpt lat="47.79808" lon="-3.47991">
        <ele>45</ele>
        <time>2019-07-17T13:54:30Z</time>
      </trkpt>
      <trkpt lat="47.79813" lon="-3.47987">
        <ele>45</ele>
        <time>2019-07-17T13:54:31Z</time>
      </trkpt>
      <trkpt lat="47.79817" lon="-3.47984">
        <ele>45</ele>
        <time>2019-07-17T13:54:32Z</time>
      </trkpt>
      <trkpt lat="47.7982" lon="-3.4798">
        <ele>45</ele>
        <time>2019-07-17T13:54:33Z</time>
      </trkpt>
      <trkpt lat="47.79824" lon="-3.47978">
        <ele>45</ele>
        <time>2019-07-17T13:54:34Z</time>
      </trkpt>
      <trkpt lat="47.79827" lon="-3.47975">
        <ele>45</ele>
        <time>2019-07-17T13:54:35Z</time>
      </trkpt>
      <trkpt lat="47.79831" lon="-3.47971">
        <ele>45</ele>
        <time>2019-07-17T13:54:36Z</time>
      </trkpt>
      <trkpt lat="47.79835" lon="-3.47968">
        <ele>45</ele>
        <time>2019-07-17T13:54:37Z</time>
      </trkpt>
      <trkpt lat="47.79839" lon="-3.47964">
        <ele>45</ele>
        <time>2019-07-17T13:54:38Z</time>
      </trkpt>
      <trkpt lat="47.79843" lon="-3.4796">
        <ele>45</ele>
        <time>2019-07-17T13:54:39Z</time>
      </trkpt>
      <trkpt lat="47.79847" lon="-3.47957">
        <ele>45</ele>
        <time>2019-07-17T13:54:40Z</time>
      </trkpt>
      <trkpt lat="47.79852" lon="-3.47953">
        <ele>45</ele>
        <time>2019-07-17T13:54:41Z</time>
      </trkpt>
      <trkpt lat="47.79856" lon="-3.47949">
        <ele>45</ele>
        <time>2019-07-17T13:54:42Z</time>
      </trkpt>
      <trkpt lat="47.79861" lon="-3.47945">
        <ele>45</ele>
        <time>2019-07-17T13:54:43Z</time>
      </trkpt>
      <trkpt lat="47.79866" lon="-3.47941">
        <ele>45</ele>
        <time>2019-07-17T13:54:44Z</time>
      </trkpt>
      <trkpt lat="47.79871" lon="-3.47937">
        <ele>45</ele>
        <time>2019-07-17T13:54:45Z</time>
      </trkpt>
      <trkpt lat="47.79876" lon="-3.47933">
        <ele>45</ele>
        <time>2019-07-17T13:54:46Z</time>
      </trkpt>
      <trkpt lat="47.79881" lon="-3.47929">
        <ele>45</ele>
        <time>2019-07-17T13:54:47Z</time>
      </trkpt>
      <trkpt lat="47.79886" lon="-3.47926">
        <ele>45</ele>
        <time>2019-07-17T13:54:48Z</time>
      </trkpt>
      <trkpt lat="47.7989" lon="-3.47922">
        <ele>45</ele>
        <time>2019-07-17T13:54:49Z</time>
      </trkpt>
      <trkpt lat="47.79895" lon="-3.47917">
        <ele>45</ele>
        <time>2019-07-17T13:54:50Z</time>
      </trkpt>
      <trkpt lat="47.799" lon="-3.47914">
        <ele>45</ele>
        <time>2019-07-17T13:54:51Z</time>
      </trkpt>
      <trkpt lat="47.79905" lon="-3.4791">
        <ele>45</ele>
        <time>2019-07-17T13:54:52Z</time>
      </trkpt>
      <trkpt lat="47.7991" lon="-3.47905">
        <ele>45</ele>
        <time>2019-07-17T13:54:53Z</time>
      </trkpt>
      <trkpt lat="47.79914" lon="-3.479">
        <ele>45</ele>
        <time>2019-07-17T13:54:54Z</time>
      </trkpt>
      <trkpt lat="47.79918" lon="-3.47895">
        <ele>45</ele>
        <time>2019-07-17T13:54:55Z</time>
      </trkpt>
      <trkpt lat="47.7992" lon="-3.47888">
        <ele>45</ele>
        <time>2019-07-17T13:54:56Z</time>
      </trkpt>
      <trkpt lat="47.79922" lon="-3.47882">
        <ele>45</ele>
        <time>2019-07-17T13:54:57Z</time>
      </trkpt>
      <trkpt lat="47.79924" lon="-3.47875">
        <ele>45</ele>
        <time>2019-07-17T13:54:58Z</time>
      </trkpt>
      <trkpt lat="47.79925" lon="-3.47867">
        <ele>45</ele>
        <time>2019-07-17T13:54:59Z</time>
      </trkpt>
      <trkpt lat="47.79926" lon="-3.4786">
        <ele>45</ele>
        <time>2019-07-17T13:55:00Z</time>
      </trkpt>
      <trkpt lat="47.79927" lon="-3.47852">
        <ele>45</ele>
        <time>2019-07-17T13:55:01Z</time>
      </trkpt>
      <trkpt lat="47.79928" lon="-3.47844">
        <ele>45</ele>
        <time>2019-07-17T13:55:02Z</time>
      </trkpt>
      <trkpt lat="47.79928" lon="-3.47837">
        <ele>45</ele>
        <time>2019-07-17T13:55:03Z</time>
      </trkpt>
      <trkpt lat="47.79928" lon="-3.47829">
        <ele>45</ele>
        <time>2019-07-17T13:55:04Z</time>
      </trkpt>
      <trkpt lat="47.79929" lon="-3.47821">
        <ele>45</ele>
        <time>2019-07-17T13:55:05Z</time>
      </trkpt>
      <trkpt lat="47.79929" lon="-3.47813">
        <ele>45</ele>
        <time>2019-07-17T13:55:06Z</time>
      </trkpt>
      <trkpt lat="47.79929" lon="-3.47806">
        <ele>46</ele>
        <time>2019-07-17T13:55:07Z</time>
      </trkpt>
      <trkpt lat="47.7993" lon="-3.47798">
        <ele>46</ele>
        <time>2019-07-17T13:55:08Z</time>
      </trkpt>
      <trkpt lat="47.79931" lon="-3.47792">
        <ele>46</ele>
        <time>2019-07-17T13:55:09Z</time>
      </trkpt>
      <trkpt lat="47.79932" lon="-3.47785">
        <ele>46</ele>
        <time>2019-07-17T13:55:10Z</time>
      </trkpt>
      <trkpt lat="47.79933" lon="-3.47778">
        <ele>46</ele>
        <time>2019-07-17T13:55:11Z</time>
      </trkpt>
      <trkpt lat="47.79933" lon="-3.47771">
        <ele>46</ele>
        <time>2019-07-17T13:55:12Z</time>
      </trkpt>
      <trkpt lat="47.79933" lon="-3.47763">
        <ele>46</ele>
        <time>2019-07-17T13:55:13Z</time>
      </trkpt>
      <trkpt lat="47.79934" lon="-3.47756">
        <ele>46</ele>
        <time>2019-07-17T13:55:14Z</time>
      </trkpt>
      <trkpt lat="47.79935" lon="-3.47749">
        <ele>46</ele>
        <time>2019-07-17T13:55:15Z</time>
      </trkpt>
      <trkpt lat="47.79936" lon="-3.47742">
        <ele>46</ele>
        <time>2019-07-17T13:55:16Z</time>
      </trkpt>
      <trkpt lat="47.79938" lon="-3.47735">
        <ele>46</ele>
        <time>2019-07-17T13:55:17Z</time>
      </trkpt>
      <trkpt lat="47.7994" lon="-3.47729">
        <ele>46</ele>
        <time>2019-07-17T13:55:18Z</time>
      </trkpt>
      <trkpt lat="47.79942" lon="-3.47722">
        <ele>46</ele>
        <time>2019-07-17T13:55:19Z</time>
      </trkpt>
      <trkpt lat="47.79945" lon="-3.47716">
        <ele>46</ele>
        <time>2019-07-17T13:55:20Z</time>
      </trkpt>
      <trkpt lat="47.79947" lon="-3.4771">
        <ele>46</ele>
        <time>2019-07-17T13:55:21Z</time>
      </trkpt>
      <trkpt lat="47.79949" lon="-3.47705">
        <ele>46</ele>
        <time>2019-07-17T13:55:22Z</time>
      </trkpt>
      <trkpt lat="47.79953" lon="-3.47701">
        <ele>46</ele>
        <time>2019-07-17T13:55:23Z</time>
      </trkpt>
      <trkpt lat="47.79957" lon="-3.47699">
        <ele>47</ele>
        <time>2019-07-17T13:55:24Z</time>
      </trkpt>
      <trkpt lat="47.79961" lon="-3.477">
        <ele>47</ele>
        <time>2019-07-17T13:55:25Z</time>
      </trkpt>
      <trkpt lat="47.79964" lon="-3.47704">
        <ele>47</ele>
        <time>2019-07-17T13:55:26Z</time>
      </trkpt>
      <trkpt lat="47.79966" lon="-3.4771">
        <ele>47</ele>
        <time>2019-07-17T13:55:27Z</time>
      </trkpt>
      <trkpt lat="47.79968" lon="-3.47716">
        <ele>47</ele>
        <time>2019-07-17T13:55:28Z</time>
      </trkpt>
      <trkpt lat="47.79969" lon="-3.47723">
        <ele>47</ele>
        <time>2019-07-17T13:55:29Z</time>
      </trkpt>
      <trkpt lat="47.79971" lon="-3.4773">
        <ele>47</ele>
        <time>2019-07-17T13:55:30Z</time>
      </trkpt>
      <trkpt lat="47.79973" lon="-3.47737">
        <ele>47</ele>
        <time>2019-07-17T13:55:31Z</time>
      </trkpt>
      <trkpt lat="47.79976" lon="-3.47744">
        <ele>47</ele>
        <time>2019-07-17T13:55:32Z</time>
      </trkpt>
      <trkpt lat="47.79978" lon="-3.47751">
        <ele>47</ele>
        <time>2019-07-17T13:55:33Z</time>
      </trkpt>
      <trkpt lat="47.79981" lon="-3.47758">
        <ele>47</ele>
        <time>2019-07-17T13:55:34Z</time>
      </trkpt>
      <trkpt lat="47.79984" lon="-3.47764">
        <ele>47</ele>
        <time>2019-07-17T13:55:35Z</time>
      </trkpt>
      <trkpt lat="47.79987" lon="-3.47771">
        <ele>47</ele>
        <time>2019-07-17T13:55:36Z</time>
      </trkpt>
      <trkpt lat="47.79991" lon="-3.47777">
        <ele>47</ele>
        <time>2019-07-17T13:55:37Z</time>
      </trkpt>
      <trkpt lat="47.79994" lon="-3.47783">
        <ele>47</ele>
        <time>2019-07-17T13:55:38Z</time>
      </trkpt>
      <trkpt lat="47.79998" lon="-3.47789">
        <ele>47</ele>
        <time>2019-07-17T13:55:39Z</time>
      </trkpt>
      <trkpt lat="47.80003" lon="-3.47794">
        <ele>47</ele>
        <time>2019-07-17T13:55:40Z</time>
      </trkpt>
      <trkpt lat="47.80008" lon="-3.478">
        <ele>47</ele>
        <time>2019-07-17T13:55:41Z</time>
      </trkpt>
      <trkpt lat="47.80013" lon="-3.47804">
        <ele>47</ele>
        <time>2019-07-17T13:55:42Z</time>
      </trkpt>
      <trkpt lat="47.80018" lon="-3.47809">
        <ele>47</ele>
        <time>2019-07-17T13:55:43Z</time>
      </trkpt>
      <trkpt lat="47.80024" lon="-3.47813">
        <ele>47</ele>
        <time>2019-07-17T13:55:44Z</time>
      </trkpt>
      <trkpt lat="47.80029" lon="-3.47817">
        <ele>47</ele>
        <time>2019-07-17T13:55:45Z</time>
      </trkpt>
      <trkpt lat="47.80035" lon="-3.4782">
        <ele>47</ele>
        <time>2019-07-17T13:55:46Z</time>
      </trkpt>
      <trkpt lat="47.80041" lon="-3.47821">
        <ele>46</ele>
        <time>2019-07-17T13:55:47Z</time>
      </trkpt>
      <trkpt lat="47.80047" lon="-3.47823">
        <ele>46</ele>
        <time>2019-07-17T13:55:48Z</time>
      </trkpt>
      <trkpt lat="47.80054" lon="-3.47824">
        <ele>46</ele>
        <time>2019-07-17T13:55:49Z</time>
      </trkpt>
      <trkpt lat="47.80061" lon="-3.47825">
        <ele>46</ele>
        <time>2019-07-17T13:55:50Z</time>
      </trkpt>
      <trkpt lat="47.80067" lon="-3.47826">
        <ele>46</ele>
        <time>2019-07-17T13:55:51Z</time>
      </trkpt>
      <trkpt lat="47.80074" lon="-3.47827">
        <ele>45</ele>
        <time>2019-07-17T13:55:52Z</time>
      </trkpt>
      <trkpt lat="47.80081" lon="-3.47828">
        <ele>45</ele>
        <time>2019-07-17T13:55:53Z</time>
      </trkpt>
      <trkpt lat="47.80087" lon="-3.47829">
        <ele>45</ele>
        <time>2019-07-17T13:55:54Z</time>
      </trkpt>
      <trkpt lat="47.80093" lon="-3.47829">
        <ele>45</ele>
        <time>2019-07-17T13:55:55Z</time>
      </trkpt>
      <trkpt lat="47.80099" lon="-3.4783">
        <ele>45</ele>
        <time>2019-07-17T13:55:56Z</time>
      </trkpt>
      <trkpt lat="47.80106" lon="-3.4783">
        <ele>45</ele>
        <time>2019-07-17T13:55:57Z</time>
      </trkpt>
      <trkpt lat="47.80112" lon="-3.47831">
        <ele>45</ele>
        <time>2019-07-17T13:55:58Z</time>
      </trkpt>
      <trkpt lat="47.80119" lon="-3.47832">
        <ele>45</ele>
        <time>2019-07-17T13:55:59Z</time>
      </trkpt>
      <trkpt lat="47.80125" lon="-3.47833">
        <ele>45</ele>
        <time>2019-07-17T13:56:00Z</time>
      </trkpt>
      <trkpt lat="47.80132" lon="-3.47834">
        <ele>44</ele>
        <time>2019-07-17T13:56:01Z</time>
      </trkpt>
      <trkpt lat="47.80138" lon="-3.47834">
        <ele>45</ele>
        <time>2019-07-17T13:56:02Z</time>
      </trkpt>
      <trkpt lat="47.80144" lon="-3.47835">
        <ele>44</ele>
        <time>2019-07-17T13:56:03Z</time>
      </trkpt>
      <trkpt lat="47.80151" lon="-3.47836">
        <ele>44</ele>
        <time>2019-07-17T13:56:04Z</time>
      </trkpt>
      <trkpt lat="47.80157" lon="-3.47837">
        <ele>44</ele>
        <time>2019-07-17T13:56:05Z</time>
      </trkpt>
      <trkpt lat="47.80164" lon="-3.47837">
        <ele>44</ele>
        <time>2019-07-17T13:56:06Z</time>
      </trkpt>
      <trkpt lat="47.8017" lon="-3.47838">
        <ele>44</ele>
        <time>2019-07-17T13:56:07Z</time>
      </trkpt>
      <trkpt lat="47.80176" lon="-3.47837">
        <ele>44</ele>
        <time>2019-07-17T13:56:08Z</time>
      </trkpt>
      <trkpt lat="47.80181" lon="-3.47834">
        <ele>44</ele>
        <time>2019-07-17T13:56:09Z</time>
      </trkpt>
      <trkpt lat="47.80186" lon="-3.4783">
        <ele>45</ele>
        <time>2019-07-17T13:56:10Z</time>
      </trkpt>
      <trkpt lat="47.80191" lon="-3.47826">
        <ele>45</ele>
        <time>2019-07-17T13:56:11Z</time>
      </trkpt>
      <trkpt lat="47.80195" lon="-3.47822">
        <ele>45</ele>
        <time>2019-07-17T13:56:12Z</time>
      </trkpt>
      <trkpt lat="47.802" lon="-3.47817">
        <ele>45</ele>
        <time>2019-07-17T13:56:13Z</time>
      </trkpt>
      <trkpt lat="47.80205" lon="-3.47812">
        <ele>45</ele>
        <time>2019-07-17T13:56:14Z</time>
      </trkpt>
      <trkpt lat="47.8021" lon="-3.47806">
        <ele>45</ele>
        <time>2019-07-17T13:56:15Z</time>
      </trkpt>
      <trkpt lat="47.80214" lon="-3.47799">
        <ele>44</ele>
        <time>2019-07-17T13:56:16Z</time>
      </trkpt>
      <trkpt lat="47.80219" lon="-3.47792">
        <ele>44</ele>
        <time>2019-07-17T13:56:17Z</time>
      </trkpt>
      <trkpt lat="47.80224" lon="-3.47785">
        <ele>44</ele>
        <time>2019-07-17T13:56:18Z</time>
      </trkpt>
      <trkpt lat="47.80229" lon="-3.47777">
        <ele>44</ele>
        <time>2019-07-17T13:56:19Z</time>
      </trkpt>
      <trkpt lat="47.80234" lon="-3.47769">
        <ele>44</ele>
        <time>2019-07-17T13:56:20Z</time>
      </trkpt>
      <trkpt lat="47.8024" lon="-3.47762">
        <ele>44</ele>
        <time>2019-07-17T13:56:21Z</time>
      </trkpt>
      <trkpt lat="47.80245" lon="-3.47755">
        <ele>43</ele>
        <time>2019-07-17T13:56:22Z</time>
      </trkpt>
      <trkpt lat="47.80251" lon="-3.47747">
        <ele>43</ele>
        <time>2019-07-17T13:56:23Z</time>
      </trkpt>
      <trkpt lat="47.80256" lon="-3.47739">
        <ele>43</ele>
        <time>2019-07-17T13:56:24Z</time>
      </trkpt>
      <trkpt lat="47.80262" lon="-3.47732">
        <ele>43</ele>
        <time>2019-07-17T13:56:25Z</time>
      </trkpt>
      <trkpt lat="47.80267" lon="-3.47724">
        <ele>43</ele>
        <time>2019-07-17T13:56:26Z</time>
      </trkpt>
      <trkpt lat="47.80272" lon="-3.47716">
        <ele>43</ele>
        <time>2019-07-17T13:56:27Z</time>
      </trkpt>
      <trkpt lat="47.80276" lon="-3.47709">
        <ele>43</ele>
        <time>2019-07-17T13:56:28Z</time>
      </trkpt>
      <trkpt lat="47.80281" lon="-3.47701">
        <ele>43</ele>
        <time>2019-07-17T13:56:29Z</time>
      </trkpt>
      <trkpt lat="47.80285" lon="-3.47694">
        <ele>42</ele>
        <time>2019-07-17T13:56:30Z</time>
      </trkpt>
      <trkpt lat="47.8029" lon="-3.47687">
        <ele>42</ele>
        <time>2019-07-17T13:56:31Z</time>
      </trkpt>
      <trkpt lat="47.80294" lon="-3.47679">
        <ele>42</ele>
        <time>2019-07-17T13:56:32Z</time>
      </trkpt>
      <trkpt lat="47.80298" lon="-3.47673">
        <ele>42</ele>
        <time>2019-07-17T13:56:33Z</time>
      </trkpt>
      <trkpt lat="47.80302" lon="-3.47666">
        <ele>42</ele>
        <time>2019-07-17T13:56:34Z</time>
      </trkpt>
      <trkpt lat="47.80306" lon="-3.4766">
        <ele>42</ele>
        <time>2019-07-17T13:56:35Z</time>
      </trkpt>
      <trkpt lat="47.8031" lon="-3.47653">
        <ele>42</ele>
        <time>2019-07-17T13:56:36Z</time>
      </trkpt>
      <trkpt lat="47.80314" lon="-3.47646">
        <ele>42</ele>
        <time>2019-07-17T13:56:37Z</time>
      </trkpt>
      <trkpt lat="47.80318" lon="-3.47639">
        <ele>42</ele>
        <time>2019-07-17T13:56:38Z</time>
      </trkpt>
      <trkpt lat="47.80322" lon="-3.47633">
        <ele>43</ele>
        <time>2019-07-17T13:56:39Z</time>
      </trkpt>
      <trkpt lat="47.80326" lon="-3.47627">
        <ele>43</ele>
        <time>2019-07-17T13:56:40Z</time>
      </trkpt>
      <trkpt lat="47.80329" lon="-3.4762">
        <ele>43</ele>
        <time>2019-07-17T13:56:41Z</time>
      </trkpt>
      <trkpt lat="47.80334" lon="-3.47614">
        <ele>43</ele>
        <time>2019-07-17T13:56:42Z</time>
      </trkpt>
      <trkpt lat="47.80338" lon="-3.47607">
        <ele>43</ele>
        <time>2019-07-17T13:56:43Z</time>
      </trkpt>
      <trkpt lat="47.80342" lon="-3.476">
        <ele>43</ele>
        <time>2019-07-17T13:56:44Z</time>
      </trkpt>
      <trkpt lat="47.80346" lon="-3.47593">
        <ele>43</ele>
        <time>2019-07-17T13:56:45Z</time>
      </trkpt>
      <trkpt lat="47.80351" lon="-3.47586">
        <ele>43</ele>
        <time>2019-07-17T13:56:46Z</time>
      </trkpt>
      <trkpt lat="47.80355" lon="-3.47579">
        <ele>43</ele>
        <time>2019-07-17T13:56:47Z</time>
      </trkpt>
      <trkpt lat="47.80359" lon="-3.47572">
        <ele>43</ele>
        <time>2019-07-17T13:56:48Z</time>
      </trkpt>
      <trkpt lat="47.80364" lon="-3.47565">
        <ele>43</ele>
        <time>2019-07-17T13:56:49Z</time>
      </trkpt>
      <trkpt lat="47.80368" lon="-3.47559">
        <ele>43</ele>
        <time>2019-07-17T13:56:50Z</time>
      </trkpt>
      <trkpt lat="47.80373" lon="-3.47552">
        <ele>43</ele>
        <time>2019-07-17T13:56:51Z</time>
      </trkpt>
      <trkpt lat="47.80377" lon="-3.47545">
        <ele>44</ele>
        <time>2019-07-17T13:56:52Z</time>
      </trkpt>
      <trkpt lat="47.80381" lon="-3.47538">
        <ele>44</ele>
        <time>2019-07-17T13:56:53Z</time>
      </trkpt>
      <trkpt lat="47.80385" lon="-3.47531">
        <ele>44</ele>
        <time>2019-07-17T13:56:54Z</time>
      </trkpt>
      <trkpt lat="47.80389" lon="-3.47524">
        <ele>44</ele>
        <time>2019-07-17T13:56:55Z</time>
      </trkpt>
      <trkpt lat="47.80394" lon="-3.47517">
        <ele>44</ele>
        <time>2019-07-17T13:56:56Z</time>
      </trkpt>
      <trkpt lat="47.80398" lon="-3.4751">
        <ele>44</ele>
        <time>2019-07-17T13:56:57Z</time>
      </trkpt>
      <trkpt lat="47.80402" lon="-3.47502">
        <ele>44</ele>
        <time>2019-07-17T13:56:58Z</time>
      </trkpt>
      <trkpt lat="47.80406" lon="-3.47495">
        <ele>44</ele>
        <time>2019-07-17T13:56:59Z</time>
      </trkpt>
      <trkpt lat="47.8041" lon="-3.47488">
        <ele>44</ele>
        <time>2019-07-17T13:57:00Z</time>
      </trkpt>
      <trkpt lat="47.80414" lon="-3.47481">
        <ele>44</ele>
        <time>2019-07-17T13:57:01Z</time>
      </trkpt>
      <trkpt lat="47.80418" lon="-3.47474">
        <ele>44</ele>
        <time>2019-07-17T13:57:02Z</time>
      </trkpt>
      <trkpt lat="47.80421" lon="-3.47467">
        <ele>44</ele>
        <time>2019-07-17T13:57:03Z</time>
      </trkpt>
      <trkpt lat="47.80425" lon="-3.4746">
        <ele>44</ele>
        <time>2019-07-17T13:57:04Z</time>
      </trkpt>
      <trkpt lat="47.80429" lon="-3.47453">
        <ele>45</ele>
        <time>2019-07-17T13:57:05Z</time>
      </trkpt>
      <trkpt lat="47.80433" lon="-3.47445">
        <ele>45</ele>
        <time>2019-07-17T13:57:06Z</time>
      </trkpt>
      <trkpt lat="47.80437" lon="-3.47438">
        <ele>45</ele>
        <time>2019-07-17T13:57:07Z</time>
      </trkpt>
      <trkpt lat="47.80441" lon="-3.4743">
        <ele>45</ele>
        <time>2019-07-17T13:57:08Z</time>
      </trkpt>
      <trkpt lat="47.80445" lon="-3.47423">
        <ele>45</ele>
        <time>2019-07-17T13:57:09Z</time>
      </trkpt>
      <trkpt lat="47.80449" lon="-3.47416">
        <ele>45</ele>
        <time>2019-07-17T13:57:10Z</time>
      </trkpt>
      <trkpt lat="47.80453" lon="-3.47408">
        <ele>45</ele>
        <time>2019-07-17T13:57:11Z</time>
      </trkpt>
      <trkpt lat="47.80457" lon="-3.47401">
        <ele>45</ele>
        <time>2019-07-17T13:57:12Z</time>
      </trkpt>
      <trkpt lat="47.80461" lon="-3.47393">
        <ele>45</ele>
        <time>2019-07-17T13:57:13Z</time>
      </trkpt>
      <trkpt lat="47.80465" lon="-3.47385">
        <ele>45</ele>
        <time>2019-07-17T13:57:14Z</time>
      </trkpt>
      <trkpt lat="47.80469" lon="-3.47378">
        <ele>45</ele>
        <time>2019-07-17T13:57:15Z</time>
      </trkpt>
      <trkpt lat="47.80473" lon="-3.4737">
        <ele>45</ele>
        <time>2019-07-17T13:57:16Z</time>
      </trkpt>
      <trkpt lat="47.80477" lon="-3.47362">
        <ele>45</ele>
        <time>2019-07-17T13:57:17Z</time>
      </trkpt>
      <trkpt lat="47.80481" lon="-3.47354">
        <ele>45</ele>
        <time>2019-07-17T13:57:18Z</time>
      </trkpt>
      <trkpt lat="47.80486" lon="-3.47346">
        <ele>45</ele>
        <time>2019-07-17T13:57:19Z</time>
      </trkpt>
      <trkpt lat="47.8049" lon="-3.47338">
        <ele>45</ele>
        <time>2019-07-17T13:57:20Z</time>
      </trkpt>
      <trkpt lat="47.80494" lon="-3.47329">
        <ele>44</ele>
        <time>2019-07-17T13:57:21Z</time>
      </trkpt>
      <trkpt lat="47.80498" lon="-3.47321">
        <ele>44</ele>
        <time>2019-07-17T13:57:22Z</time>
      </trkpt>
      <trkpt lat="47.80501" lon="-3.47312">
        <ele>44</ele>
        <time>2019-07-17T13:57:23Z</time>
      </trkpt>
      <trkpt lat="47.80505" lon="-3.47303">
        <ele>44</ele>
        <time>2019-07-17T13:57:24Z</time>
      </trkpt>
      <trkpt lat="47.80508" lon="-3.47294">
        <ele>44</ele>
        <time>2019-07-17T13:57:25Z</time>
      </trkpt>
      <trkpt lat="47.80512" lon="-3.47285">
        <ele>43</ele>
        <time>2019-07-17T13:57:26Z</time>
      </trkpt>
      <trkpt lat="47.80514" lon="-3.47275">
        <ele>43</ele>
        <time>2019-07-17T13:57:27Z</time>
      </trkpt>
      <trkpt lat="47.80517" lon="-3.47265">
        <ele>43</ele>
        <time>2019-07-17T13:57:28Z</time>
      </trkpt>
      <trkpt lat="47.8052" lon="-3.47255">
        <ele>43</ele>
        <time>2019-07-17T13:57:29Z</time>
      </trkpt>
      <trkpt lat="47.80522" lon="-3.47245">
        <ele>43</ele>
        <time>2019-07-17T13:57:30Z</time>
      </trkpt>
      <trkpt lat="47.80524" lon="-3.47234">
        <ele>42</ele>
        <time>2019-07-17T13:57:31Z</time>
      </trkpt>
      <trkpt lat="47.80526" lon="-3.47224">
        <ele>42</ele>
        <time>2019-07-17T13:57:32Z</time>
      </trkpt>
      <trkpt lat="47.80528" lon="-3.47214">
        <ele>42</ele>
        <time>2019-07-17T13:57:33Z</time>
      </trkpt>
      <trkpt lat="47.8053" lon="-3.47203">
        <ele>42</ele>
        <time>2019-07-17T13:57:34Z</time>
      </trkpt>
      <trkpt lat="47.80532" lon="-3.47193">
        <ele>42</ele>
        <time>2019-07-17T13:57:35Z</time>
      </trkpt>
      <trkpt lat="47.80533" lon="-3.47183">
        <ele>42</ele>
        <time>2019-07-17T13:57:36Z</time>
      </trkpt>
      <trkpt lat="47.80535" lon="-3.47173">
        <ele>42</ele>
        <time>2019-07-17T13:57:37Z</time>
      </trkpt>
      <trkpt lat="47.80537" lon="-3.47163">
        <ele>42</ele>
        <time>2019-07-17T13:57:38Z</time>
      </trkpt>
      <trkpt lat="47.80539" lon="-3.47152">
        <ele>42</ele>
        <time>2019-07-17T13:57:39Z</time>
      </trkpt>
      <trkpt lat="47.8054" lon="-3.47142">
        <ele>42</ele>
        <time>2019-07-17T13:57:40Z</time>
      </trkpt>
      <trkpt lat="47.80542" lon="-3.47132">
        <ele>42</ele>
        <time>2019-07-17T13:57:41Z</time>
      </trkpt>
      <trkpt lat="47.80544" lon="-3.47121">
        <ele>42</ele>
        <time>2019-07-17T13:57:42Z</time>
      </trkpt>
      <trkpt lat="47.80546" lon="-3.47111">
        <ele>42</ele>
        <time>2019-07-17T13:57:43Z</time>
      </trkpt>
      <trkpt lat="47.80547" lon="-3.47101">
        <ele>42</ele>
        <time>2019-07-17T13:57:44Z</time>
      </trkpt>
      <trkpt lat="47.80549" lon="-3.47091">
        <ele>42</ele>
        <time>2019-07-17T13:57:45Z</time>
      </trkpt>
      <trkpt lat="47.80551" lon="-3.47081">
        <ele>42</ele>
        <time>2019-07-17T13:57:46Z</time>
      </trkpt>
      <trkpt lat="47.80552" lon="-3.47071">
        <ele>42</ele>
        <time>2019-07-17T13:57:47Z</time>
      </trkpt>
      <trkpt lat="47.80554" lon="-3.47061">
        <ele>42</ele>
        <time>2019-07-17T13:57:48Z</time>
      </trkpt>
      <trkpt lat="47.80556" lon="-3.47051">
        <ele>43</ele>
        <time>2019-07-17T13:57:49Z</time>
      </trkpt>
      <trkpt lat="47.80558" lon="-3.47041">
        <ele>43</ele>
        <time>2019-07-17T13:57:50Z</time>
      </trkpt>
      <trkpt lat="47.80559" lon="-3.47032">
        <ele>43</ele>
        <time>2019-07-17T13:57:51Z</time>
      </trkpt>
      <trkpt lat="47.80561" lon="-3.47022">
        <ele>43</ele>
        <time>2019-07-17T13:57:52Z</time>
      </trkpt>
      <trkpt lat="47.80562" lon="-3.47013">
        <ele>43</ele>
        <time>2019-07-17T13:57:53Z</time>
      </trkpt>
      <trkpt lat="47.80564" lon="-3.47004">
        <ele>43</ele>
        <time>2019-07-17T13:57:54Z</time>
      </trkpt>
      <trkpt lat="47.80565" lon="-3.46994">
        <ele>43</ele>
        <time>2019-07-17T13:57:55Z</time>
      </trkpt>
      <trkpt lat="47.80567" lon="-3.46986">
        <ele>44</ele>
        <time>2019-07-17T13:57:56Z</time>
      </trkpt>
      <trkpt lat="47.80569" lon="-3.46977">
        <ele>44</ele>
        <time>2019-07-17T13:57:57Z</time>
      </trkpt>
      <trkpt lat="47.8057" lon="-3.46968">
        <ele>44</ele>
        <time>2019-07-17T13:57:58Z</time>
      </trkpt>
      <trkpt lat="47.80572" lon="-3.46959">
        <ele>44</ele>
        <time>2019-07-17T13:57:59Z</time>
      </trkpt>
      <trkpt lat="47.80573" lon="-3.46951">
        <ele>45</ele>
        <time>2019-07-17T13:58:00Z</time>
      </trkpt>
      <trkpt lat="47.80575" lon="-3.46942">
        <ele>45</ele>
        <time>2019-07-17T13:58:01Z</time>
      </trkpt>
      <trkpt lat="47.80577" lon="-3.46933">
        <ele>45</ele>
        <time>2019-07-17T13:58:02Z</time>
      </trkpt>
      <trkpt lat="47.80579" lon="-3.46924">
        <ele>45</ele>
        <time>2019-07-17T13:58:03Z</time>
      </trkpt>
      <trkpt lat="47.80581" lon="-3.46916">
        <ele>46</ele>
        <time>2019-07-17T13:58:04Z</time>
      </trkpt>
      <trkpt lat="47.80582" lon="-3.46907">
        <ele>46</ele>
        <time>2019-07-17T13:58:05Z</time>
      </trkpt>
      <trkpt lat="47.80584" lon="-3.46898">
        <ele>46</ele>
        <time>2019-07-17T13:58:06Z</time>
      </trkpt>
      <trkpt lat="47.80586" lon="-3.46889">
        <ele>46</ele>
        <time>2019-07-17T13:58:07Z</time>
      </trkpt>
      <trkpt lat="47.80588" lon="-3.46881">
        <ele>46</ele>
        <time>2019-07-17T13:58:08Z</time>
      </trkpt>
      <trkpt lat="47.80591" lon="-3.46872">
        <ele>47</ele>
        <time>2019-07-17T13:58:09Z</time>
      </trkpt>
      <trkpt lat="47.80593" lon="-3.46863">
        <ele>47</ele>
        <time>2019-07-17T13:58:10Z</time>
      </trkpt>
      <trkpt lat="47.80595" lon="-3.46855">
        <ele>47</ele>
        <time>2019-07-17T13:58:11Z</time>
      </trkpt>
      <trkpt lat="47.80598" lon="-3.46846">
        <ele>47</ele>
        <time>2019-07-17T13:58:12Z</time>
      </trkpt>
      <trkpt lat="47.806" lon="-3.46836">
        <ele>47</ele>
        <time>2019-07-17T13:58:13Z</time>
      </trkpt>
      <trkpt lat="47.80603" lon="-3.46828">
        <ele>47</ele>
        <time>2019-07-17T13:58:14Z</time>
      </trkpt>
      <trkpt lat="47.80605" lon="-3.46819">
        <ele>47</ele>
        <time>2019-07-17T13:58:15Z</time>
      </trkpt>
      <trkpt lat="47.80608" lon="-3.4681">
        <ele>47</ele>
        <time>2019-07-17T13:58:16Z</time>
      </trkpt>
      <trkpt lat="47.80611" lon="-3.46801">
        <ele>47</ele>
        <time>2019-07-17T13:58:17Z</time>
      </trkpt>
      <trkpt lat="47.80613" lon="-3.46792">
        <ele>48</ele>
        <time>2019-07-17T13:58:18Z</time>
      </trkpt>
      <trkpt lat="47.80616" lon="-3.46782">
        <ele>48</ele>
        <time>2019-07-17T13:58:19Z</time>
      </trkpt>
      <trkpt lat="47.80618" lon="-3.46773">
        <ele>48</ele>
        <time>2019-07-17T13:58:20Z</time>
      </trkpt>
      <trkpt lat="47.80621" lon="-3.46764">
        <ele>48</ele>
        <time>2019-07-17T13:58:21Z</time>
      </trkpt>
      <trkpt lat="47.80623" lon="-3.46754">
        <ele>48</ele>
        <time>2019-07-17T13:58:22Z</time>
      </trkpt>
      <trkpt lat="47.80626" lon="-3.46745">
        <ele>47</ele>
        <time>2019-07-17T13:58:23Z</time>
      </trkpt>
      <trkpt lat="47.80629" lon="-3.46736">
        <ele>47</ele>
        <time>2019-07-17T13:58:24Z</time>
      </trkpt>
      <trkpt lat="47.80631" lon="-3.46726">
        <ele>47</ele>
        <time>2019-07-17T13:58:25Z</time>
      </trkpt>
      <trkpt lat="47.80634" lon="-3.46717">
        <ele>47</ele>
        <time>2019-07-17T13:58:26Z</time>
      </trkpt>
      <trkpt lat="47.80637" lon="-3.46707">
        <ele>47</ele>
        <time>2019-07-17T13:58:27Z</time>
      </trkpt>
      <trkpt lat="47.80639" lon="-3.46698">
        <ele>47</ele>
        <time>2019-07-17T13:58:28Z</time>
      </trkpt>
      <trkpt lat="47.80642" lon="-3.46688">
        <ele>47</ele>
        <time>2019-07-17T13:58:29Z</time>
      </trkpt>
      <trkpt lat="47.80645" lon="-3.46678">
        <ele>47</ele>
        <time>2019-07-17T13:58:30Z</time>
      </trkpt>
      <trkpt lat="47.80647" lon="-3.46669">
        <ele>47</ele>
        <time>2019-07-17T13:58:31Z</time>
      </trkpt>
      <trkpt lat="47.8065" lon="-3.4666">
        <ele>47</ele>
        <time>2019-07-17T13:58:32Z</time>
      </trkpt>
      <trkpt lat="47.80652" lon="-3.4665">
        <ele>47</ele>
        <time>2019-07-17T13:58:33Z</time>
      </trkpt>
      <trkpt lat="47.80655" lon="-3.46641">
        <ele>47</ele>
        <time>2019-07-17T13:58:34Z</time>
      </trkpt>
      <trkpt lat="47.80658" lon="-3.46631">
        <ele>47</ele>
        <time>2019-07-17T13:58:35Z</time>
      </trkpt>
      <trkpt lat="47.8066" lon="-3.46621">
        <ele>46</ele>
        <time>2019-07-17T13:58:36Z</time>
      </trkpt>
      <trkpt lat="47.80663" lon="-3.46611">
        <ele>46</ele>
        <time>2019-07-17T13:58:37Z</time>
      </trkpt>
      <trkpt lat="47.80665" lon="-3.46601">
        <ele>46</ele>
        <time>2019-07-17T13:58:38Z</time>
      </trkpt>
      <trkpt lat="47.80667" lon="-3.4659">
        <ele>46</ele>
        <time>2019-07-17T13:58:39Z</time>
      </trkpt>
      <trkpt lat="47.80669" lon="-3.46579">
        <ele>46</ele>
        <time>2019-07-17T13:58:40Z</time>
      </trkpt>
      <trkpt lat="47.80671" lon="-3.46567">
        <ele>45</ele>
        <time>2019-07-17T13:58:41Z</time>
      </trkpt>
      <trkpt lat="47.80672" lon="-3.46556">
        <ele>45</ele>
        <time>2019-07-17T13:58:42Z</time>
      </trkpt>
      <trkpt lat="47.80674" lon="-3.46544">
        <ele>45</ele>
        <time>2019-07-17T13:58:43Z</time>
      </trkpt>
      <trkpt lat="47.80674" lon="-3.46531">
        <ele>44</ele>
        <time>2019-07-17T13:58:44Z</time>
      </trkpt>
      <trkpt lat="47.80675" lon="-3.46518">
        <ele>44</ele>
        <time>2019-07-17T13:58:45Z</time>
      </trkpt>
      <trkpt lat="47.80674" lon="-3.46505">
        <ele>43</ele>
        <time>2019-07-17T13:58:46Z</time>
      </trkpt>
      <trkpt lat="47.80673" lon="-3.46492">
        <ele>43</ele>
        <time>2019-07-17T13:58:47Z</time>
      </trkpt>
      <trkpt lat="47.8067" lon="-3.46481">
        <ele>43</ele>
        <time>2019-07-17T13:58:48Z</time>
      </trkpt>
      <trkpt lat="47.80665" lon="-3.46471">
        <ele>43</ele>
        <time>2019-07-17T13:58:49Z</time>
      </trkpt>
      <trkpt lat="47.80661" lon="-3.4646">
        <ele>43</ele>
        <time>2019-07-17T13:58:50Z</time>
      </trkpt>
      <trkpt lat="47.80658" lon="-3.46449">
        <ele>42</ele>
        <time>2019-07-17T13:58:51Z</time>
      </trkpt>
      <trkpt lat="47.80657" lon="-3.46436">
        <ele>42</ele>
        <time>2019-07-17T13:58:52Z</time>
      </trkpt>
      <trkpt lat="47.80658" lon="-3.46425">
        <ele>42</ele>
        <time>2019-07-17T13:58:53Z</time>
      </trkpt>
      <trkpt lat="47.80661" lon="-3.46413">
        <ele>42</ele>
        <time>2019-07-17T13:58:54Z</time>
      </trkpt>
      <trkpt lat="47.80664" lon="-3.46403">
        <ele>41</ele>
        <time>2019-07-17T13:58:55Z</time>
      </trkpt>
      <trkpt lat="47.80668" lon="-3.46392">
        <ele>41</ele>
        <time>2019-07-17T13:58:56Z</time>
      </trkpt>
      <trkpt lat="47.80669" lon="-3.4638">
        <ele>41</ele>
        <time>2019-07-17T13:58:57Z</time>
      </trkpt>
      <trkpt lat="47.8067" lon="-3.46369">
        <ele>41</ele>
        <time>2019-07-17T13:58:58Z</time>
      </trkpt>
      <trkpt lat="47.80669" lon="-3.46357">
        <ele>41</ele>
        <time>2019-07-17T13:58:59Z</time>
      </trkpt>
      <trkpt lat="47.80669" lon="-3.46346">
        <ele>41</ele>
        <time>2019-07-17T13:59:00Z</time>
      </trkpt>
      <trkpt lat="47.80669" lon="-3.46336">
        <ele>41</ele>
        <time>2019-07-17T13:59:01Z</time>
      </trkpt>
      <trkpt lat="47.80668" lon="-3.46325">
        <ele>41</ele>
        <time>2019-07-17T13:59:02Z</time>
      </trkpt>
      <trkpt lat="47.80668" lon="-3.46315">
        <ele>41</ele>
        <time>2019-07-17T13:59:03Z</time>
      </trkpt>
      <trkpt lat="47.80668" lon="-3.46305">
        <ele>41</ele>
        <time>2019-07-17T13:59:04Z</time>
      </trkpt>
      <trkpt lat="47.80668" lon="-3.46296">
        <ele>41</ele>
        <time>2019-07-17T13:59:05Z</time>
      </trkpt>
      <trkpt lat="47.80668" lon="-3.46286">
        <ele>42</ele>
        <time>2019-07-17T13:59:06Z</time>
      </trkpt>
      <trkpt lat="47.80668" lon="-3.46277">
        <ele>42</ele>
        <time>2019-07-17T13:59:07Z</time>
      </trkpt>
      <trkpt lat="47.80667" lon="-3.46267">
        <ele>42</ele>
        <time>2019-07-17T13:59:08Z</time>
      </trkpt>
      <trkpt lat="47.80667" lon="-3.46257">
        <ele>42</ele>
        <time>2019-07-17T13:59:09Z</time>
      </trkpt>
      <trkpt lat="47.80666" lon="-3.46248">
        <ele>42</ele>
        <time>2019-07-17T13:59:10Z</time>
      </trkpt>
      <trkpt lat="47.80665" lon="-3.46238">
        <ele>42</ele>
        <time>2019-07-17T13:59:11Z</time>
      </trkpt>
      <trkpt lat="47.80664" lon="-3.46229">
        <ele>42</ele>
        <time>2019-07-17T13:59:12Z</time>
      </trkpt>
      <trkpt lat="47.80663" lon="-3.46219">
        <ele>42</ele>
        <time>2019-07-17T13:59:13Z</time>
      </trkpt>
      <trkpt lat="47.80662" lon="-3.46209">
        <ele>43</ele>
        <time>2019-07-17T13:59:14Z</time>
      </trkpt>
      <trkpt lat="47.80661" lon="-3.462">
        <ele>43</ele>
        <time>2019-07-17T13:59:15Z</time>
      </trkpt>
      <trkpt lat="47.8066" lon="-3.46191">
        <ele>43</ele>
        <time>2019-07-17T13:59:16Z</time>
      </trkpt>
      <trkpt lat="47.80659" lon="-3.46181">
        <ele>43</ele>
        <time>2019-07-17T13:59:17Z</time>
      </trkpt>
      <trkpt lat="47.80658" lon="-3.46172">
        <ele>43</ele>
        <time>2019-07-17T13:59:18Z</time>
      </trkpt>
      <trkpt lat="47.80656" lon="-3.46163">
        <ele>43</ele>
        <time>2019-07-17T13:59:19Z</time>
      </trkpt>
      <trkpt lat="47.80654" lon="-3.46153">
        <ele>43</ele>
        <time>2019-07-17T13:59:20Z</time>
      </trkpt>
      <trkpt lat="47.80653" lon="-3.46144">
        <ele>43</ele>
        <time>2019-07-17T13:59:21Z</time>
      </trkpt>
      <trkpt lat="47.80651" lon="-3.46135">
        <ele>43</ele>
        <time>2019-07-17T13:59:22Z</time>
      </trkpt>
      <trkpt lat="47.8065" lon="-3.46126">
        <ele>43</ele>
        <time>2019-07-17T13:59:23Z</time>
      </trkpt>
      <trkpt lat="47.80648" lon="-3.46116">
        <ele>44</ele>
        <time>2019-07-17T13:59:24Z</time>
      </trkpt>
      <trkpt lat="47.80647" lon="-3.46107">
        <ele>44</ele>
        <time>2019-07-17T13:59:25Z</time>
      </trkpt>
      <trkpt lat="47.80645" lon="-3.46098">
        <ele>44</ele>
        <time>2019-07-17T13:59:26Z</time>
      </trkpt>
      <trkpt lat="47.80643" lon="-3.46088">
        <ele>44</ele>
        <time>2019-07-17T13:59:27Z</time>
      </trkpt>
      <trkpt lat="47.80642" lon="-3.46079">
        <ele>43</ele>
        <time>2019-07-17T13:59:28Z</time>
      </trkpt>
      <trkpt lat="47.8064" lon="-3.4607">
        <ele>43</ele>
        <time>2019-07-17T13:59:29Z</time>
      </trkpt>
      <trkpt lat="47.80638" lon="-3.46061">
        <ele>44</ele>
        <time>2019-07-17T13:59:30Z</time>
      </trkpt>
      <trkpt lat="47.80637" lon="-3.46051">
        <ele>44</ele>
        <time>2019-07-17T13:59:31Z</time>
      </trkpt>
      <trkpt lat="47.80635" lon="-3.46042">
        <ele>44</ele>
        <time>2019-07-17T13:59:32Z</time>
      </trkpt>
      <trkpt lat="47.80634" lon="-3.46033">
        <ele>44</ele>
        <time>2019-07-17T13:59:33Z</time>
      </trkpt>
      <trkpt lat="47.80632" lon="-3.46024">
        <ele>44</ele>
        <time>2019-07-17T13:59:34Z</time>
      </trkpt>
      <trkpt lat="47.80631" lon="-3.46015">
        <ele>44</ele>
        <time>2019-07-17T13:59:35Z</time>
      </trkpt>
      <trkpt lat="47.80629" lon="-3.46006">
        <ele>44</ele>
        <time>2019-07-17T13:59:36Z</time>
      </trkpt>
      <trkpt lat="47.80627" lon="-3.45997">
        <ele>44</ele>
        <time>2019-07-17T13:59:37Z</time>
      </trkpt>
      <trkpt lat="47.80625" lon="-3.45987">
        <ele>44</ele>
        <time>2019-07-17T13:59:38Z</time>
      </trkpt>
      <trkpt lat="47.80624" lon="-3.45978">
        <ele>44</ele>
        <time>2019-07-17T13:59:39Z</time>
      </trkpt>
      <trkpt lat="47.80622" lon="-3.45968">
        <ele>44</ele>
        <time>2019-07-17T13:59:40Z</time>
      </trkpt>
      <trkpt lat="47.8062" lon="-3.45959">
        <ele>43</ele>
        <time>2019-07-17T13:59:41Z</time>
      </trkpt>
      <trkpt lat="47.80618" lon="-3.45949">
        <ele>43</ele>
        <time>2019-07-17T13:59:42Z</time>
      </trkpt>
      <trkpt lat="47.80617" lon="-3.4594">
        <ele>43</ele>
        <time>2019-07-17T13:59:43Z</time>
      </trkpt>
      <trkpt lat="47.80615" lon="-3.45931">
        <ele>43</ele>
        <time>2019-07-17T13:59:44Z</time>
      </trkpt>
      <trkpt lat="47.80613" lon="-3.45922">
        <ele>43</ele>
        <time>2019-07-17T13:59:45Z</time>
      </trkpt>
      <trkpt lat="47.80612" lon="-3.45914">
        <ele>43</ele>
        <time>2019-07-17T13:59:46Z</time>
      </trkpt>
      <trkpt lat="47.8061" lon="-3.45906">
        <ele>43</ele>
        <time>2019-07-17T13:59:47Z</time>
      </trkpt>
      <trkpt lat="47.80608" lon="-3.45897">
        <ele>43</ele>
        <time>2019-07-17T13:59:48Z</time>
      </trkpt>
      <trkpt lat="47.80606" lon="-3.45889">
        <ele>43</ele>
        <time>2019-07-17T13:59:49Z</time>
      </trkpt>
      <trkpt lat="47.80605" lon="-3.4588">
        <ele>43</ele>
        <time>2019-07-17T13:59:50Z</time>
      </trkpt>
      <trkpt lat="47.80603" lon="-3.45872">
        <ele>43</ele>
        <time>2019-07-17T13:59:51Z</time>
      </trkpt>
      <trkpt lat="47.80602" lon="-3.45863">
        <ele>43</ele>
        <time>2019-07-17T13:59:52Z</time>
      </trkpt>
      <trkpt lat="47.80601" lon="-3.45854">
        <ele>43</ele>
        <time>2019-07-17T13:59:53Z</time>
      </trkpt>
      <trkpt lat="47.80599" lon="-3.45844">
        <ele>43</ele>
        <time>2019-07-17T13:59:54Z</time>
      </trkpt>
      <trkpt lat="47.80598" lon="-3.45835">
        <ele>43</ele>
        <time>2019-07-17T13:59:55Z</time>
      </trkpt>
      <trkpt lat="47.80596" lon="-3.45826">
        <ele>43</ele>
        <time>2019-07-17T13:59:56Z</time>
      </trkpt>
      <trkpt lat="47.80594" lon="-3.45818">
        <ele>43</ele>
        <time>2019-07-17T13:59:57Z</time>
      </trkpt>
      <trkpt lat="47.80592" lon="-3.45809">
        <ele>43</ele>
        <time>2019-07-17T13:59:58Z</time>
      </trkpt>
      <trkpt lat="47.80591" lon="-3.45801">
        <ele>43</ele>
        <time>2019-07-17T13:59:59Z</time>
      </trkpt>
      <trkpt lat="47.80589" lon="-3.45792">
        <ele>42</ele>
        <time>2019-07-17T14:00:00Z</time>
      </trkpt>
      <trkpt lat="47.80588" lon="-3.45784">
        <ele>42</ele>
        <time>2019-07-17T14:00:01Z</time>
      </trkpt>
      <trkpt lat="47.80586" lon="-3.45775">
        <ele>42</ele>
        <time>2019-07-17T14:00:02Z</time>
      </trkpt>
      <trkpt lat="47.80584" lon="-3.45766">
        <ele>42</ele>
        <time>2019-07-17T14:00:03Z</time>
      </trkpt>
      <trkpt lat="47.80582" lon="-3.45757">
        <ele>42</ele>
        <time>2019-07-17T14:00:04Z</time>
      </trkpt>
      <trkpt lat="47.8058" lon="-3.45747">
        <ele>42</ele>
        <time>2019-07-17T14:00:05Z</time>
      </trkpt>
      <trkpt lat="47.80579" lon="-3.45738">
        <ele>42</ele>
        <time>2019-07-17T14:00:06Z</time>
      </trkpt>
      <trkpt lat="47.80577" lon="-3.45728">
        <ele>42</ele>
        <time>2019-07-17T14:00:07Z</time>
      </trkpt>
      <trkpt lat="47.80575" lon="-3.45718">
        <ele>42</ele>
        <time>2019-07-17T14:00:08Z</time>
      </trkpt>
      <trkpt lat="47.80573" lon="-3.45708">
        <ele>42</ele>
        <time>2019-07-17T14:00:09Z</time>
      </trkpt>
      <trkpt lat="47.80572" lon="-3.45698">
        <ele>42</ele>
        <time>2019-07-17T14:00:10Z</time>
      </trkpt>
      <trkpt lat="47.8057" lon="-3.45688">
        <ele>42</ele>
        <time>2019-07-17T14:00:11Z</time>
      </trkpt>
      <trkpt lat="47.80568" lon="-3.45677">
        <ele>42</ele>
        <time>2019-07-17T14:00:12Z</time>
      </trkpt>
      <trkpt lat="47.80566" lon="-3.45667">
        <ele>42</ele>
        <time>2019-07-17T14:00:13Z</time>
      </trkpt>
      <trkpt lat="47.80565" lon="-3.45657">
        <ele>42</ele>
        <time>2019-07-17T14:00:14Z</time>
      </trkpt>
      <trkpt lat="47.80563" lon="-3.45646">
        <ele>42</ele>
        <time>2019-07-17T14:00:15Z</time>
      </trkpt>
      <trkpt lat="47.80561" lon="-3.45636">
        <ele>42</ele>
        <time>2019-07-17T14:00:16Z</time>
      </trkpt>
      <trkpt lat="47.80559" lon="-3.45625">
        <ele>42</ele>
        <time>2019-07-17T14:00:17Z</time>
      </trkpt>
      <trkpt lat="47.80558" lon="-3.45614">
        <ele>42</ele>
        <time>2019-07-17T14:00:18Z</time>
      </trkpt>
      <trkpt lat="47.80556" lon="-3.45603">
        <ele>42</ele>
        <time>2019-07-17T14:00:19Z</time>
      </trkpt>
      <trkpt lat="47.80555" lon="-3.45592">
        <ele>42</ele>
        <time>2019-07-17T14:00:20Z</time>
      </trkpt>
      <trkpt lat="47.80553" lon="-3.45582">
        <ele>42</ele>
        <time>2019-07-17T14:00:21Z</time>
      </trkpt>
      <trkpt lat="47.80552" lon="-3.45571">
        <ele>42</ele>
        <time>2019-07-17T14:00:22Z</time>
      </trkpt>
      <trkpt lat="47.80551" lon="-3.4556">
        <ele>42</ele>
        <time>2019-07-17T14:00:23Z</time>
      </trkpt>
      <trkpt lat="47.8055" lon="-3.45549">
        <ele>42</ele>
        <time>2019-07-17T14:00:24Z</time>
      </trkpt>
      <trkpt lat="47.80549" lon="-3.45538">
        <ele>42</ele>
        <time>2019-07-17T14:00:25Z</time>
      </trkpt>
      <trkpt lat="47.80547" lon="-3.45527">
        <ele>42</ele>
        <time>2019-07-17T14:00:26Z</time>
      </trkpt>
      <trkpt lat="47.80546" lon="-3.45516">
        <ele>42</ele>
        <time>2019-07-17T14:00:27Z</time>
      </trkpt>
      <trkpt lat="47.80545" lon="-3.45506">
        <ele>42</ele>
        <time>2019-07-17T14:00:28Z</time>
      </trkpt>
      <trkpt lat="47.80544" lon="-3.45495">
        <ele>42</ele>
        <time>2019-07-17T14:00:29Z</time>
      </trkpt>
      <trkpt lat="47.80543" lon="-3.45485">
        <ele>42</ele>
        <time>2019-07-17T14:00:30Z</time>
      </trkpt>
      <trkpt lat="47.80542" lon="-3.45474">
        <ele>41</ele>
        <time>2019-07-17T14:00:31Z</time>
      </trkpt>
      <trkpt lat="47.80541" lon="-3.45464">
        <ele>41</ele>
        <time>2019-07-17T14:00:32Z</time>
      </trkpt>
      <trkpt lat="47.8054" lon="-3.45454">
        <ele>41</ele>
        <time>2019-07-17T14:00:33Z</time>
      </trkpt>
      <trkpt lat="47.80539" lon="-3.45444">
        <ele>41</ele>
        <time>2019-07-17T14:00:34Z</time>
      </trkpt>
      <trkpt lat="47.80537" lon="-3.45434">
        <ele>41</ele>
        <time>2019-07-17T14:00:35Z</time>
      </trkpt>
      <trkpt lat="47.80536" lon="-3.45424">
        <ele>41</ele>
        <time>2019-07-17T14:00:36Z</time>
      </trkpt>
      <trkpt lat="47.80535" lon="-3.45414">
        <ele>41</ele>
        <time>2019-07-17T14:00:37Z</time>
      </trkpt>
      <trkpt lat="47.80533" lon="-3.45405">
        <ele>41</ele>
        <time>2019-07-17T14:00:38Z</time>
      </trkpt>
      <trkpt lat="47.80532" lon="-3.45395">
        <ele>41</ele>
        <time>2019-07-17T14:00:39Z</time>
      </trkpt>
      <trkpt lat="47.80531" lon="-3.45384">
        <ele>41</ele>
        <time>2019-07-17T14:00:40Z</time>
      </trkpt>
      <trkpt lat="47.80529" lon="-3.45373">
        <ele>40</ele>
        <time>2019-07-17T14:00:41Z</time>
      </trkpt>
      <trkpt lat="47.80528" lon="-3.45362">
        <ele>40</ele>
        <time>2019-07-17T14:00:42Z</time>
      </trkpt>
      <trkpt lat="47.80526" lon="-3.45351">
        <ele>40</ele>
        <time>2019-07-17T14:00:43Z</time>
      </trkpt>
      <trkpt lat="47.80524" lon="-3.4534">
        <ele>40</ele>
        <time>2019-07-17T14:00:44Z</time>
      </trkpt>
      <trkpt lat="47.80522" lon="-3.45329">
        <ele>40</ele>
        <time>2019-07-17T14:00:45Z</time>
      </trkpt>
      <trkpt lat="47.8052" lon="-3.45318">
        <ele>39</ele>
        <time>2019-07-17T14:00:46Z</time>
      </trkpt>
      <trkpt lat="47.80518" lon="-3.45307">
        <ele>39</ele>
        <time>2019-07-17T14:00:47Z</time>
      </trkpt>
      <trkpt lat="47.80517" lon="-3.45296">
        <ele>39</ele>
        <time>2019-07-17T14:00:48Z</time>
      </trkpt>
      <trkpt lat="47.80514" lon="-3.45286">
        <ele>39</ele>
        <time>2019-07-17T14:00:49Z</time>
      </trkpt>
      <trkpt lat="47.80512" lon="-3.45275">
        <ele>39</ele>
        <time>2019-07-17T14:00:50Z</time>
      </trkpt>
      <trkpt lat="47.80509" lon="-3.45264">
        <ele>39</ele>
        <time>2019-07-17T14:00:51Z</time>
      </trkpt>
      <trkpt lat="47.80506" lon="-3.45254">
        <ele>38</ele>
        <time>2019-07-17T14:00:52Z</time>
      </trkpt>
      <trkpt lat="47.80503" lon="-3.45244">
        <ele>38</ele>
        <time>2019-07-17T14:00:53Z</time>
      </trkpt>
      <trkpt lat="47.805" lon="-3.45234">
        <ele>38</ele>
        <time>2019-07-17T14:00:54Z</time>
      </trkpt>
      <trkpt lat="47.80496" lon="-3.45224">
        <ele>38</ele>
        <time>2019-07-17T14:00:55Z</time>
      </trkpt>
      <trkpt lat="47.80493" lon="-3.45215">
        <ele>38</ele>
        <time>2019-07-17T14:00:56Z</time>
      </trkpt>
      <trkpt lat="47.8049" lon="-3.45206">
        <ele>38</ele>
        <time>2019-07-17T14:00:57Z</time>
      </trkpt>
      <trkpt lat="47.80488" lon="-3.45196">
        <ele>38</ele>
        <time>2019-07-17T14:00:58Z</time>
      </trkpt>
      <trkpt lat="47.80486" lon="-3.45186">
        <ele>38</ele>
        <time>2019-07-17T14:00:59Z</time>
      </trkpt>
      <trkpt lat="47.80483" lon="-3.45176">
        <ele>38</ele>
        <time>2019-07-17T14:01:00Z</time>
      </trkpt>
      <trkpt lat="47.80481" lon="-3.45166">
        <ele>38</ele>
        <time>2019-07-17T14:01:01Z</time>
      </trkpt>
      <trkpt lat="47.80478" lon="-3.45156">
        <ele>37</ele>
        <time>2019-07-17T14:01:02Z</time>
      </trkpt>
      <trkpt lat="47.80475" lon="-3.45145">
        <ele>37</ele>
        <time>2019-07-17T14:01:03Z</time>
      </trkpt>
      <trkpt lat="47.80473" lon="-3.45135">
        <ele>37</ele>
        <time>2019-07-17T14:01:04Z</time>
      </trkpt>
      <trkpt lat="47.8047" lon="-3.45124">
        <ele>37</ele>
        <time>2019-07-17T14:01:05Z</time>
      </trkpt>
      <trkpt lat="47.80467" lon="-3.45113">
        <ele>37</ele>
        <time>2019-07-17T14:01:06Z</time>
      </trkpt>
      <trkpt lat="47.80464" lon="-3.45103">
        <ele>37</ele>
        <time>2019-07-17T14:01:07Z</time>
      </trkpt>
      <trkpt lat="47.80462" lon="-3.45092">
        <ele>37</ele>
        <time>2019-07-17T14:01:08Z</time>
      </trkpt>
      <trkpt lat="47.80459" lon="-3.45081">
        <ele>37</ele>
        <time>2019-07-17T14:01:09Z</time>
      </trkpt>
      <trkpt lat="47.80456" lon="-3.45071">
        <ele>37</ele>
        <time>2019-07-17T14:01:10Z</time>
      </trkpt>
      <trkpt lat="47.80453" lon="-3.4506">
        <ele>37</ele>
        <time>2019-07-17T14:01:11Z</time>
      </trkpt>
      <trkpt lat="47.80451" lon="-3.45049">
        <ele>36</ele>
        <time>2019-07-17T14:01:12Z</time>
      </trkpt>
      <trkpt lat="47.80448" lon="-3.45038">
        <ele>36</ele>
        <time>2019-07-17T14:01:13Z</time>
      </trkpt>
      <trkpt lat="47.80446" lon="-3.45027">
        <ele>36</ele>
        <time>2019-07-17T14:01:14Z</time>
      </trkpt>
      <trkpt lat="47.80444" lon="-3.45016">
        <ele>36</ele>
        <time>2019-07-17T14:01:15Z</time>
      </trkpt>
      <trkpt lat="47.80442" lon="-3.45004">
        <ele>36</ele>
        <time>2019-07-17T14:01:16Z</time>
      </trkpt>
      <trkpt lat="47.8044" lon="-3.44993">
        <ele>36</ele>
        <time>2019-07-17T14:01:17Z</time>
      </trkpt>
      <trkpt lat="47.80438" lon="-3.44981">
        <ele>36</ele>
        <time>2019-07-17T14:01:18Z</time>
      </trkpt>
      <trkpt lat="47.80437" lon="-3.44969">
        <ele>36</ele>
        <time>2019-07-17T14:01:19Z</time>
      </trkpt>
      <trkpt lat="47.80435" lon="-3.44958">
        <ele>36</ele>
        <time>2019-07-17T14:01:20Z</time>
      </trkpt>
      <trkpt lat="47.80434" lon="-3.44946">
        <ele>36</ele>
        <time>2019-07-17T14:01:21Z</time>
      </trkpt>
      <trkpt lat="47.80432" lon="-3.44935">
        <ele>36</ele>
        <time>2019-07-17T14:01:22Z</time>
      </trkpt>
      <trkpt lat="47.80431" lon="-3.44923">
        <ele>36</ele>
        <time>2019-07-17T14:01:23Z</time>
      </trkpt>
      <trkpt lat="47.8043" lon="-3.44912">
        <ele>36</ele>
        <time>2019-07-17T14:01:24Z</time>
      </trkpt>
      <trkpt lat="47.80429" lon="-3.44901">
        <ele>35</ele>
        <time>2019-07-17T14:01:25Z</time>
      </trkpt>
      <trkpt lat="47.80428" lon="-3.44889">
        <ele>36</ele>
        <time>2019-07-17T14:01:26Z</time>
      </trkpt>
      <trkpt lat="47.80427" lon="-3.44878">
        <ele>36</ele>
        <time>2019-07-17T14:01:27Z</time>
      </trkpt>
      <trkpt lat="47.80427" lon="-3.44867">
        <ele>36</ele>
        <time>2019-07-17T14:01:28Z</time>
      </trkpt>
      <trkpt lat="47.80426" lon="-3.44856">
        <ele>36</ele>
        <time>2019-07-17T14:01:29Z</time>
      </trkpt>
      <trkpt lat="47.80425" lon="-3.44845">
        <ele>36</ele>
        <time>2019-07-17T14:01:30Z</time>
      </trkpt>
      <trkpt lat="47.80424" lon="-3.44835">
        <ele>36</ele>
        <time>2019-07-17T14:01:31Z</time>
      </trkpt>
      <trkpt lat="47.80423" lon="-3.44824">
        <ele>37</ele>
        <time>2019-07-17T14:01:32Z</time>
      </trkpt>
      <trkpt lat="47.80422" lon="-3.44814">
        <ele>37</ele>
        <time>2019-07-17T14:01:33Z</time>
      </trkpt>
      <trkpt lat="47.80421" lon="-3.44804">
        <ele>37</ele>
        <time>2019-07-17T14:01:34Z</time>
      </trkpt>
      <trkpt lat="47.8042" lon="-3.44794">
        <ele>37</ele>
        <time>2019-07-17T14:01:35Z</time>
      </trkpt>
      <trkpt lat="47.80419" lon="-3.44785">
        <ele>38</ele>
        <time>2019-07-17T14:01:36Z</time>
      </trkpt>
      <trkpt lat="47.80419" lon="-3.44776">
        <ele>38</ele>
        <time>2019-07-17T14:01:37Z</time>
      </trkpt>
      <trkpt lat="47.80418" lon="-3.44767">
        <ele>38</ele>
        <time>2019-07-17T14:01:38Z</time>
      </trkpt>
      <trkpt lat="47.80418" lon="-3.44758">
        <ele>38</ele>
        <time>2019-07-17T14:01:39Z</time>
      </trkpt>
      <trkpt lat="47.80417" lon="-3.44749">
        <ele>39</ele>
        <time>2019-07-17T14:01:40Z</time>
      </trkpt>
      <trkpt lat="47.80416" lon="-3.44739">
        <ele>39</ele>
        <time>2019-07-17T14:01:41Z</time>
      </trkpt>
      <trkpt lat="47.80415" lon="-3.44731">
        <ele>39</ele>
        <time>2019-07-17T14:01:42Z</time>
      </trkpt>
      <trkpt lat="47.80414" lon="-3.44722">
        <ele>39</ele>
        <time>2019-07-17T14:01:43Z</time>
      </trkpt>
      <trkpt lat="47.80413" lon="-3.44713">
        <ele>40</ele>
        <time>2019-07-17T14:01:44Z</time>
      </trkpt>
      <trkpt lat="47.80413" lon="-3.44704">
        <ele>40</ele>
        <time>2019-07-17T14:01:45Z</time>
      </trkpt>
      <trkpt lat="47.80412" lon="-3.44696">
        <ele>40</ele>
        <time>2019-07-17T14:01:46Z</time>
      </trkpt>
      <trkpt lat="47.80412" lon="-3.44688">
        <ele>41</ele>
        <time>2019-07-17T14:01:47Z</time>
      </trkpt>
      <trkpt lat="47.80411" lon="-3.44679">
        <ele>41</ele>
        <time>2019-07-17T14:01:48Z</time>
      </trkpt>
      <trkpt lat="47.80411" lon="-3.44671">
        <ele>41</ele>
        <time>2019-07-17T14:01:49Z</time>
      </trkpt>
      <trkpt lat="47.8041" lon="-3.44662">
        <ele>41</ele>
        <time>2019-07-17T14:01:50Z</time>
      </trkpt>
      <trkpt lat="47.80409" lon="-3.44654">
        <ele>41</ele>
        <time>2019-07-17T14:01:51Z</time>
      </trkpt>
      <trkpt lat="47.80408" lon="-3.44646">
        <ele>42</ele>
        <time>2019-07-17T14:01:52Z</time>
      </trkpt>
      <trkpt lat="47.80408" lon="-3.44637">
        <ele>42</ele>
        <time>2019-07-17T14:01:53Z</time>
      </trkpt>
      <trkpt lat="47.80407" lon="-3.44629">
        <ele>42</ele>
        <time>2019-07-17T14:01:54Z</time>
      </trkpt>
      <trkpt lat="47.80406" lon="-3.44621">
        <ele>42</ele>
        <time>2019-07-17T14:01:55Z</time>
      </trkpt>
      <trkpt lat="47.80406" lon="-3.44612">
        <ele>42</ele>
        <time>2019-07-17T14:01:56Z</time>
      </trkpt>
      <trkpt lat="47.80405" lon="-3.44604">
        <ele>42</ele>
        <time>2019-07-17T14:01:57Z</time>
      </trkpt>
      <trkpt lat="47.80404" lon="-3.44595">
        <ele>42</ele>
        <time>2019-07-17T14:01:58Z</time>
      </trkpt>
      <trkpt lat="47.80404" lon="-3.44587">
        <ele>43</ele>
        <time>2019-07-17T14:01:59Z</time>
      </trkpt>
      <trkpt lat="47.80403" lon="-3.44578">
        <ele>43</ele>
        <time>2019-07-17T14:02:00Z</time>
      </trkpt>
      <trkpt lat="47.80402" lon="-3.4457">
        <ele>43</ele>
        <time>2019-07-17T14:02:01Z</time>
      </trkpt>
      <trkpt lat="47.80401" lon="-3.44561">
        <ele>43</ele>
        <time>2019-07-17T14:02:02Z</time>
      </trkpt>
      <trkpt lat="47.80401" lon="-3.44552">
        <ele>43</ele>
        <time>2019-07-17T14:02:03Z</time>
      </trkpt>
      <trkpt lat="47.804" lon="-3.44544">
        <ele>43</ele>
        <time>2019-07-17T14:02:04Z</time>
      </trkpt>
      <trkpt lat="47.80399" lon="-3.44536">
        <ele>43</ele>
        <time>2019-07-17T14:02:05Z</time>
      </trkpt>
      <trkpt lat="47.80398" lon="-3.44527">
        <ele>43</ele>
        <time>2019-07-17T14:02:06Z</time>
      </trkpt>
      <trkpt lat="47.80397" lon="-3.44519">
        <ele>43</ele>
        <time>2019-07-17T14:02:07Z</time>
      </trkpt>
      <trkpt lat="47.80396" lon="-3.44511">
        <ele>43</ele>
        <time>2019-07-17T14:02:08Z</time>
      </trkpt>
      <trkpt lat="47.80395" lon="-3.44502">
        <ele>43</ele>
        <time>2019-07-17T14:02:09Z</time>
      </trkpt>
      <trkpt lat="47.80393" lon="-3.44494">
        <ele>43</ele>
        <time>2019-07-17T14:02:10Z</time>
      </trkpt>
      <trkpt lat="47.80392" lon="-3.44486">
        <ele>43</ele>
        <time>2019-07-17T14:02:11Z</time>
      </trkpt>
      <trkpt lat="47.80391" lon="-3.44478">
        <ele>43</ele>
        <time>2019-07-17T14:02:12Z</time>
      </trkpt>
      <trkpt lat="47.80389" lon="-3.4447">
        <ele>43</ele>
        <time>2019-07-17T14:02:13Z</time>
      </trkpt>
      <trkpt lat="47.80387" lon="-3.44462">
        <ele>43</ele>
        <time>2019-07-17T14:02:14Z</time>
      </trkpt>
      <trkpt lat="47.80385" lon="-3.44453">
        <ele>43</ele>
        <time>2019-07-17T14:02:15Z</time>
      </trkpt>
      <trkpt lat="47.80382" lon="-3.44445">
        <ele>43</ele>
        <time>2019-07-17T14:02:16Z</time>
      </trkpt>
      <trkpt lat="47.80381" lon="-3.44437">
        <ele>43</ele>
        <time>2019-07-17T14:02:17Z</time>
      </trkpt>
      <trkpt lat="47.80379" lon="-3.44428">
        <ele>43</ele>
        <time>2019-07-17T14:02:18Z</time>
      </trkpt>
      <trkpt lat="47.80377" lon="-3.4442">
        <ele>43</ele>
        <time>2019-07-17T14:02:19Z</time>
      </trkpt>
      <trkpt lat="47.80375" lon="-3.44412">
        <ele>43</ele>
        <time>2019-07-17T14:02:20Z</time>
      </trkpt>
      <trkpt lat="47.80373" lon="-3.44404">
        <ele>43</ele>
        <time>2019-07-17T14:02:21Z</time>
      </trkpt>
      <trkpt lat="47.80371" lon="-3.44396">
        <ele>42</ele>
        <time>2019-07-17T14:02:22Z</time>
      </trkpt>
      <trkpt lat="47.80369" lon="-3.44388">
        <ele>42</ele>
        <time>2019-07-17T14:02:23Z</time>
      </trkpt>
      <trkpt lat="47.80367" lon="-3.4438">
        <ele>42</ele>
        <time>2019-07-17T14:02:24Z</time>
      </trkpt>
      <trkpt lat="47.80366" lon="-3.44371">
        <ele>42</ele>
        <time>2019-07-17T14:02:25Z</time>
      </trkpt>
      <trkpt lat="47.80366" lon="-3.44363">
        <ele>42</ele>
        <time>2019-07-17T14:02:26Z</time>
      </trkpt>
      <trkpt lat="47.80367" lon="-3.44354">
        <ele>42</ele>
        <time>2019-07-17T14:02:27Z</time>
      </trkpt>
      <trkpt lat="47.80368" lon="-3.44345">
        <ele>42</ele>
        <time>2019-07-17T14:02:28Z</time>
      </trkpt>
      <trkpt lat="47.80369" lon="-3.44337">
        <ele>42</ele>
        <time>2019-07-17T14:02:29Z</time>
      </trkpt>
      <trkpt lat="47.80371" lon="-3.44329">
        <ele>42</ele>
        <time>2019-07-17T14:02:30Z</time>
      </trkpt>
      <trkpt lat="47.80372" lon="-3.44321">
        <ele>42</ele>
        <time>2019-07-17T14:02:31Z</time>
      </trkpt>
      <trkpt lat="47.80373" lon="-3.44313">
        <ele>42</ele>
        <time>2019-07-17T14:02:32Z</time>
      </trkpt>
      <trkpt lat="47.80373" lon="-3.44305">
        <ele>42</ele>
        <time>2019-07-17T14:02:33Z</time>
      </trkpt>
      <trkpt lat="47.80371" lon="-3.44297">
        <ele>42</ele>
        <time>2019-07-17T14:02:34Z</time>
      </trkpt>
      <trkpt lat="47.80368" lon="-3.44291">
        <ele>42</ele>
        <time>2019-07-17T14:02:35Z</time>
      </trkpt>
      <trkpt lat="47.80364" lon="-3.44285">
        <ele>42</ele>
        <time>2019-07-17T14:02:36Z</time>
      </trkpt>
      <trkpt lat="47.80359" lon="-3.4428">
        <ele>42</ele>
        <time>2019-07-17T14:02:37Z</time>
      </trkpt>
      <trkpt lat="47.80354" lon="-3.44276">
        <ele>42</ele>
        <time>2019-07-17T14:02:38Z</time>
      </trkpt>
      <trkpt lat="47.80348" lon="-3.44273">
        <ele>42</ele>
        <time>2019-07-17T14:02:39Z</time>
      </trkpt>
      <trkpt lat="47.80342" lon="-3.44271">
        <ele>42</ele>
        <time>2019-07-17T14:02:40Z</time>
      </trkpt>
      <trkpt lat="47.80336" lon="-3.44268">
        <ele>42</ele>
        <time>2019-07-17T14:02:41Z</time>
      </trkpt>
      <trkpt lat="47.80329" lon="-3.44265">
        <ele>41</ele>
        <time>2019-07-17T14:02:42Z</time>
      </trkpt>
      <trkpt lat="47.80323" lon="-3.44262">
        <ele>41</ele>
        <time>2019-07-17T14:02:43Z</time>
      </trkpt>
      <trkpt lat="47.80317" lon="-3.44259">
        <ele>41</ele>
        <time>2019-07-17T14:02:44Z</time>
      </trkpt>
      <trkpt lat="47.8031" lon="-3.44256">
        <ele>41</ele>
        <time>2019-07-17T14:02:45Z</time>
      </trkpt>
      <trkpt lat="47.80304" lon="-3.44254">
        <ele>41</ele>
        <time>2019-07-17T14:02:46Z</time>
      </trkpt>
      <trkpt lat="47.80298" lon="-3.44251">
        <ele>41</ele>
        <time>2019-07-17T14:02:47Z</time>
      </trkpt>
      <trkpt lat="47.80291" lon="-3.44248">
        <ele>41</ele>
        <time>2019-07-17T14:02:48Z</time>
      </trkpt>
      <trkpt lat="47.80285" lon="-3.44246">
        <ele>41</ele>
        <time>2019-07-17T14:02:49Z</time>
      </trkpt>
      <trkpt lat="47.80278" lon="-3.44243">
        <ele>41</ele>
        <time>2019-07-17T14:02:50Z</time>
      </trkpt>
      <trkpt lat="47.80271" lon="-3.4424">
        <ele>41</ele>
        <time>2019-07-17T14:02:51Z</time>
      </trkpt>
      <trkpt lat="47.80265" lon="-3.44237">
        <ele>41</ele>
        <time>2019-07-17T14:02:52Z</time>
      </trkpt>
      <trkpt lat="47.80258" lon="-3.44234">
        <ele>41</ele>
        <time>2019-07-17T14:02:53Z</time>
      </trkpt>
      <trkpt lat="47.80252" lon="-3.44231">
        <ele>40</ele>
        <time>2019-07-17T14:02:54Z</time>
      </trkpt>
      <trkpt lat="47.80245" lon="-3.44228">
        <ele>40</ele>
        <time>2019-07-17T14:02:55Z</time>
      </trkpt>
      <trkpt lat="47.80238" lon="-3.44225">
        <ele>40</ele>
        <time>2019-07-17T14:02:56Z</time>
      </trkpt>
      <trkpt lat="47.80231" lon="-3.44223">
        <ele>40</ele>
        <time>2019-07-17T14:02:57Z</time>
      </trkpt>
      <trkpt lat="47.80224" lon="-3.4422">
        <ele>40</ele>
        <time>2019-07-17T14:02:58Z</time>
      </trkpt>
      <trkpt lat="47.80217" lon="-3.44218">
        <ele>40</ele>
        <time>2019-07-17T14:02:59Z</time>
      </trkpt>
      <trkpt lat="47.8021" lon="-3.44216">
        <ele>40</ele>
        <time>2019-07-17T14:03:00Z</time>
      </trkpt>
      <trkpt lat="47.80202" lon="-3.44215">
        <ele>40</ele>
        <time>2019-07-17T14:03:01Z</time>
      </trkpt>
      <trkpt lat="47.80195" lon="-3.44213">
        <ele>40</ele>
        <time>2019-07-17T14:03:02Z</time>
      </trkpt>
      <trkpt lat="47.80187" lon="-3.44211">
        <ele>40</ele>
        <time>2019-07-17T14:03:03Z</time>
      </trkpt>
      <trkpt lat="47.8018" lon="-3.4421">
        <ele>40</ele>
        <time>2019-07-17T14:03:04Z</time>
      </trkpt>
      <trkpt lat="47.80172" lon="-3.44208">
        <ele>40</ele>
        <time>2019-07-17T14:03:05Z</time>
      </trkpt>
      <trkpt lat="47.80165" lon="-3.44206">
        <ele>39</ele>
        <time>2019-07-17T14:03:06Z</time>
      </trkpt>
      <trkpt lat="47.80159" lon="-3.44203">
        <ele>39</ele>
        <time>2019-07-17T14:03:07Z</time>
      </trkpt>
      <trkpt lat="47.80152" lon="-3.44199">
        <ele>39</ele>
        <time>2019-07-17T14:03:08Z</time>
      </trkpt>
      <trkpt lat="47.80146" lon="-3.44195">
        <ele>40</ele>
        <time>2019-07-17T14:03:09Z</time>
      </trkpt>
      <trkpt lat="47.8014" lon="-3.4419">
        <ele>40</ele>
        <time>2019-07-17T14:03:10Z</time>
      </trkpt>
      <trkpt lat="47.80134" lon="-3.44184">
        <ele>40</ele>
        <time>2019-07-17T14:03:11Z</time>
      </trkpt>
      <trkpt lat="47.80128" lon="-3.44178">
        <ele>40</ele>
        <time>2019-07-17T14:03:12Z</time>
      </trkpt>
      <trkpt lat="47.80122" lon="-3.44171">
        <ele>39</ele>
        <time>2019-07-17T14:03:13Z</time>
      </trkpt>
      <trkpt lat="47.80117" lon="-3.44164">
        <ele>39</ele>
        <time>2019-07-17T14:03:14Z</time>
      </trkpt>
      <trkpt lat="47.80111" lon="-3.44157">
        <ele>39</ele>
        <time>2019-07-17T14:03:15Z</time>
      </trkpt>
      <trkpt lat="47.80105" lon="-3.44149">
        <ele>39</ele>
        <time>2019-07-17T14:03:16Z</time>
      </trkpt>
      <trkpt lat="47.80099" lon="-3.44141">
        <ele>39</ele>
        <time>2019-07-17T14:03:17Z</time>
      </trkpt>
      <trkpt lat="47.80093" lon="-3.44134">
        <ele>39</ele>
        <time>2019-07-17T14:03:18Z</time>
      </trkpt>
      <trkpt lat="47.80088" lon="-3.44125">
        <ele>39</ele>
        <time>2019-07-17T14:03:19Z</time>
      </trkpt>
      <trkpt lat="47.80083" lon="-3.44116">
        <ele>39</ele>
        <time>2019-07-17T14:03:20Z</time>
      </trkpt>
      <trkpt lat="47.80077" lon="-3.44107">
        <ele>39</ele>
        <time>2019-07-17T14:03:21Z</time>
      </trkpt>
      <trkpt lat="47.80073" lon="-3.44097">
        <ele>39</ele>
        <time>2019-07-17T14:03:22Z</time>
      </trkpt>
      <trkpt lat="47.8007" lon="-3.44088">
        <ele>39</ele>
        <time>2019-07-17T14:03:23Z</time>
      </trkpt>
      <trkpt lat="47.80067" lon="-3.44077">
        <ele>38</ele>
        <time>2019-07-17T14:03:24Z</time>
      </trkpt>
      <trkpt lat="47.80065" lon="-3.44066">
        <ele>38</ele>
        <time>2019-07-17T14:03:25Z</time>
      </trkpt>
      <trkpt lat="47.80063" lon="-3.44055">
        <ele>38</ele>
        <time>2019-07-17T14:03:26Z</time>
      </trkpt>
      <trkpt lat="47.80061" lon="-3.44045">
        <ele>38</ele>
        <time>2019-07-17T14:03:27Z</time>
      </trkpt>
      <trkpt lat="47.80061" lon="-3.44034">
        <ele>38</ele>
        <time>2019-07-17T14:03:28Z</time>
      </trkpt>
      <trkpt lat="47.8006" lon="-3.44023">
        <ele>38</ele>
        <time>2019-07-17T14:03:29Z</time>
      </trkpt>
      <trkpt lat="47.80061" lon="-3.44014">
        <ele>38</ele>
        <time>2019-07-17T14:03:30Z</time>
      </trkpt>
      <trkpt lat="47.80062" lon="-3.44004">
        <ele>37</ele>
        <time>2019-07-17T14:03:31Z</time>
      </trkpt>
      <trkpt lat="47.80063" lon="-3.43994">
        <ele>37</ele>
        <time>2019-07-17T14:03:32Z</time>
      </trkpt>
      <trkpt lat="47.80064" lon="-3.43984">
        <ele>37</ele>
        <time>2019-07-17T14:03:33Z</time>
      </trkpt>
      <trkpt lat="47.80066" lon="-3.43974">
        <ele>37</ele>
        <time>2019-07-17T14:03:34Z</time>
      </trkpt>
      <trkpt lat="47.80067" lon="-3.43965">
        <ele>37</ele>
        <time>2019-07-17T14:03:35Z</time>
      </trkpt>
      <trkpt lat="47.80068" lon="-3.43956">
        <ele>37</ele>
        <time>2019-07-17T14:03:36Z</time>
      </trkpt>
      <trkpt lat="47.80069" lon="-3.43947">
        <ele>37</ele>
        <time>2019-07-17T14:03:37Z</time>
      </trkpt>
      <trkpt lat="47.8007" lon="-3.43938">
        <ele>38</ele>
        <time>2019-07-17T14:03:38Z</time>
      </trkpt>
      <trkpt lat="47.80072" lon="-3.43929">
        <ele>38</ele>
        <time>2019-07-17T14:03:39Z</time>
      </trkpt>
      <trkpt lat="47.80073" lon="-3.4392">
        <ele>38</ele>
        <time>2019-07-17T14:03:40Z</time>
      </trkpt>
      <trkpt lat="47.80074" lon="-3.43911">
        <ele>38</ele>
        <time>2019-07-17T14:03:41Z</time>
      </trkpt>
      <trkpt lat="47.80075" lon="-3.43902">
        <ele>39</ele>
        <time>2019-07-17T14:03:42Z</time>
      </trkpt>
      <trkpt lat="47.80076" lon="-3.43894">
        <ele>39</ele>
        <time>2019-07-17T14:03:43Z</time>
      </trkpt>
      <trkpt lat="47.80077" lon="-3.43885">
        <ele>39</ele>
        <time>2019-07-17T14:03:44Z</time>
      </trkpt>
      <trkpt lat="47.80078" lon="-3.43876">
        <ele>39</ele>
        <time>2019-07-17T14:03:45Z</time>
      </trkpt>
      <trkpt lat="47.8008" lon="-3.43867">
        <ele>39</ele>
        <time>2019-07-17T14:03:46Z</time>
      </trkpt>
      <trkpt lat="47.80081" lon="-3.43858">
        <ele>39</ele>
        <time>2019-07-17T14:03:47Z</time>
      </trkpt>
      <trkpt lat="47.80082" lon="-3.43849">
        <ele>39</ele>
        <time>2019-07-17T14:03:48Z</time>
      </trkpt>
      <trkpt lat="47.80082" lon="-3.4384">
        <ele>39</ele>
        <time>2019-07-17T14:03:49Z</time>
      </trkpt>
      <trkpt lat="47.80082" lon="-3.43831">
        <ele>39</ele>
        <time>2019-07-17T14:03:50Z</time>
      </trkpt>
      <trkpt lat="47.80083" lon="-3.43822">
        <ele>39</ele>
        <time>2019-07-17T14:03:51Z</time>
      </trkpt>
      <trkpt lat="47.80082" lon="-3.43812">
        <ele>40</ele>
        <time>2019-07-17T14:03:52Z</time>
      </trkpt>
      <trkpt lat="47.80082" lon="-3.43802">
        <ele>40</ele>
        <time>2019-07-17T14:03:53Z</time>
      </trkpt>
      <trkpt lat="47.80081" lon="-3.43793">
        <ele>40</ele>
        <time>2019-07-17T14:03:54Z</time>
      </trkpt>
      <trkpt lat="47.80079" lon="-3.43784">
        <ele>40</ele>
        <time>2019-07-17T14:03:55Z</time>
      </trkpt>
      <trkpt lat="47.80077" lon="-3.43775">
        <ele>40</ele>
        <time>2019-07-17T14:03:56Z</time>
      </trkpt>
      <trkpt lat="47.80075" lon="-3.43767">
        <ele>40</ele>
        <time>2019-07-17T14:03:57Z</time>
      </trkpt>
      <trkpt lat="47.80073" lon="-3.43758">
        <ele>40</ele>
        <time>2019-07-17T14:03:58Z</time>
      </trkpt>
      <trkpt lat="47.80071" lon="-3.43749">
        <ele>40</ele>
        <time>2019-07-17T14:03:59Z</time>
      </trkpt>
      <trkpt lat="47.80069" lon="-3.4374">
        <ele>40</ele>
        <time>2019-07-17T14:04:00Z</time>
      </trkpt>
      <trkpt lat="47.80066" lon="-3.43731">
        <ele>40</ele>
        <time>2019-07-17T14:04:01Z</time>
      </trkpt>
      <trkpt lat="47.80063" lon="-3.43722">
        <ele>39</ele>
        <time>2019-07-17T14:04:02Z</time>
      </trkpt>
      <trkpt lat="47.8006" lon="-3.43712">
        <ele>39</ele>
        <time>2019-07-17T14:04:03Z</time>
      </trkpt>
      <trkpt lat="47.80057" lon="-3.43703">
        <ele>39</ele>
        <time>2019-07-17T14:04:04Z</time>
      </trkpt>
      <trkpt lat="47.80054" lon="-3.43693">
        <ele>39</ele>
        <time>2019-07-17T14:04:05Z</time>
      </trkpt>
      <trkpt lat="47.80051" lon="-3.43684">
        <ele>39</ele>
        <time>2019-07-17T14:04:06Z</time>
      </trkpt>
      <trkpt lat="47.80048" lon="-3.43674">
        <ele>39</ele>
        <time>2019-07-17T14:04:07Z</time>
      </trkpt>
      <trkpt lat="47.80045" lon="-3.43665">
        <ele>39</ele>
        <time>2019-07-17T14:04:08Z</time>
      </trkpt>
      <trkpt lat="47.80042" lon="-3.43656">
        <ele>39</ele>
        <time>2019-07-17T14:04:09Z</time>
      </trkpt>
      <trkpt lat="47.80039" lon="-3.43647">
        <ele>39</ele>
        <time>2019-07-17T14:04:10Z</time>
      </trkpt>
      <trkpt lat="47.80036" lon="-3.43639">
        <ele>39</ele>
        <time>2019-07-17T14:04:11Z</time>
      </trkpt>
      <trkpt lat="47.80033" lon="-3.4363">
        <ele>39</ele>
        <time>2019-07-17T14:04:12Z</time>
      </trkpt>
      <trkpt lat="47.8003" lon="-3.43621">
        <ele>39</ele>
        <time>2019-07-17T14:04:13Z</time>
      </trkpt>
      <trkpt lat="47.80027" lon="-3.43612">
        <ele>39</ele>
        <time>2019-07-17T14:04:14Z</time>
      </trkpt>
      <trkpt lat="47.80024" lon="-3.43604">
        <ele>39</ele>
        <time>2019-07-17T14:04:15Z</time>
      </trkpt>
      <trkpt lat="47.80021" lon="-3.43596">
        <ele>39</ele>
        <time>2019-07-17T14:04:16Z</time>
      </trkpt>
      <trkpt lat="47.80018" lon="-3.43588">
        <ele>39</ele>
        <time>2019-07-17T14:04:17Z</time>
      </trkpt>
      <trkpt lat="47.80015" lon="-3.4358">
        <ele>39</ele>
        <time>2019-07-17T14:04:18Z</time>
      </trkpt>
      <trkpt lat="47.80012" lon="-3.43572">
        <ele>40</ele>
        <time>2019-07-17T14:04:19Z</time>
      </trkpt>
      <trkpt lat="47.80009" lon="-3.43564">
        <ele>40</ele>
        <time>2019-07-17T14:04:20Z</time>
      </trkpt>
      <trkpt lat="47.80005" lon="-3.43557">
        <ele>40</ele>
        <time>2019-07-17T14:04:21Z</time>
      </trkpt>
      <trkpt lat="47.80002" lon="-3.4355">
        <ele>40</ele>
        <time>2019-07-17T14:04:22Z</time>
      </trkpt>
      <trkpt lat="47.79999" lon="-3.43542">
        <ele>40</ele>
        <time>2019-07-17T14:04:23Z</time>
      </trkpt>
      <trkpt lat="47.79995" lon="-3.43535">
        <ele>40</ele>
        <time>2019-07-17T14:04:24Z</time>
      </trkpt>
      <trkpt lat="47.79992" lon="-3.43528">
        <ele>40</ele>
        <time>2019-07-17T14:04:25Z</time>
      </trkpt>
      <trkpt lat="47.79988" lon="-3.43521">
        <ele>40</ele>
        <time>2019-07-17T14:04:26Z</time>
      </trkpt>
      <trkpt lat="47.79984" lon="-3.43515">
        <ele>40</ele>
        <time>2019-07-17T14:04:27Z</time>
      </trkpt>
      <trkpt lat="47.7998" lon="-3.4351">
        <ele>40</ele>
        <time>2019-07-17T14:04:28Z</time>
      </trkpt>
      <trkpt lat="47.79975" lon="-3.43504">
        <ele>41</ele>
        <time>2019-07-17T14:04:29Z</time>
      </trkpt>
      <trkpt lat="47.79971" lon="-3.43499">
        <ele>41</ele>
        <time>2019-07-17T14:04:30Z</time>
      </trkpt>
      <trkpt lat="47.79967" lon="-3.43495">
        <ele>41</ele>
        <time>2019-07-17T14:04:31Z</time>
      </trkpt>
      <trkpt lat="47.79962" lon="-3.43496">
        <ele>41</ele>
        <time>2019-07-17T14:04:32Z</time>
      </trkpt>
      <trkpt lat="47.79958" lon="-3.43497">
        <ele>40</ele>
        <time>2019-07-17T14:04:33Z</time>
      </trkpt>
      <trkpt lat="47.79955" lon="-3.43495">
        <ele>40</ele>
        <time>2019-07-17T14:04:34Z</time>
      </trkpt>
      <trkpt lat="47.79954" lon="-3.4349">
        <ele>40</ele>
        <time>2019-07-17T14:04:35Z</time>
      </trkpt>
      <trkpt lat="47.79952" lon="-3.43484">
        <ele>40</ele>
        <time>2019-07-17T14:04:36Z</time>
      </trkpt>
      <trkpt lat="47.7995" lon="-3.43477">
        <ele>40</ele>
        <time>2019-07-17T14:04:37Z</time>
      </trkpt>
      <trkpt lat="47.79947" lon="-3.43469">
        <ele>40</ele>
        <time>2019-07-17T14:04:38Z</time>
      </trkpt>
      <trkpt lat="47.79943" lon="-3.43461">
        <ele>39</ele>
        <time>2019-07-17T14:04:39Z</time>
      </trkpt>
      <trkpt lat="47.79939" lon="-3.43454">
        <ele>39</ele>
        <time>2019-07-17T14:04:40Z</time>
      </trkpt>
      <trkpt lat="47.79934" lon="-3.43447">
        <ele>39</ele>
        <time>2019-07-17T14:04:41Z</time>
      </trkpt>
      <trkpt lat="47.79929" lon="-3.4344">
        <ele>39</ele>
        <time>2019-07-17T14:04:42Z</time>
      </trkpt>
      <trkpt lat="47.79923" lon="-3.43433">
        <ele>38</ele>
        <time>2019-07-17T14:04:43Z</time>
      </trkpt>
      <trkpt lat="47.79917" lon="-3.43426">
        <ele>38</ele>
        <time>2019-07-17T14:04:44Z</time>
      </trkpt>
      <trkpt lat="47.79911" lon="-3.43419">
        <ele>38</ele>
        <time>2019-07-17T14:04:45Z</time>
      </trkpt>
      <trkpt lat="47.79905" lon="-3.43412">
        <ele>38</ele>
        <time>2019-07-17T14:04:46Z</time>
      </trkpt>
      <trkpt lat="47.79899" lon="-3.43406">
        <ele>38</ele>
        <time>2019-07-17T14:04:47Z</time>
      </trkpt>
      <trkpt lat="47.79892" lon="-3.434">
        <ele>38</ele>
        <time>2019-07-17T14:04:48Z</time>
      </trkpt>
      <trkpt lat="47.79886" lon="-3.43395">
        <ele>38</ele>
        <time>2019-07-17T14:04:49Z</time>
      </trkpt>
      <trkpt lat="47.79879" lon="-3.4339">
        <ele>39</ele>
        <time>2019-07-17T14:04:50Z</time>
      </trkpt>
      <trkpt lat="47.79873" lon="-3.43385">
        <ele>39</ele>
        <time>2019-07-17T14:04:51Z</time>
      </trkpt>
      <trkpt lat="47.79866" lon="-3.4338">
        <ele>39</ele>
        <time>2019-07-17T14:04:52Z</time>
      </trkpt>
      <trkpt lat="47.7986" lon="-3.43376">
        <ele>39</ele>
        <time>2019-07-17T14:04:53Z</time>
      </trkpt>
      <trkpt lat="47.79853" lon="-3.43372">
        <ele>39</ele>
        <time>2019-07-17T14:04:54Z</time>
      </trkpt>
      <trkpt lat="47.79847" lon="-3.43367">
        <ele>39</ele>
        <time>2019-07-17T14:04:55Z</time>
      </trkpt>
      <trkpt lat="47.7984" lon="-3.43363">
        <ele>39</ele>
        <time>2019-07-17T14:04:56Z</time>
      </trkpt>
      <trkpt lat="47.79833" lon="-3.43359">
        <ele>38</ele>
        <time>2019-07-17T14:04:57Z</time>
      </trkpt>
      <trkpt lat="47.79826" lon="-3.43355">
        <ele>38</ele>
        <time>2019-07-17T14:04:58Z</time>
      </trkpt>
      <trkpt lat="47.79819" lon="-3.4335">
        <ele>38</ele>
        <time>2019-07-17T14:04:59Z</time>
      </trkpt>
      <trkpt lat="47.79811" lon="-3.43346">
        <ele>38</ele>
        <time>2019-07-17T14:05:00Z</time>
      </trkpt>
      <trkpt lat="47.79804" lon="-3.43341">
        <ele>37</ele>
        <time>2019-07-17T14:05:01Z</time>
      </trkpt>
      <trkpt lat="47.79797" lon="-3.43337">
        <ele>37</ele>
        <time>2019-07-17T14:05:02Z</time>
      </trkpt>
      <trkpt lat="47.79789" lon="-3.43333">
        <ele>37</ele>
        <time>2019-07-17T14:05:03Z</time>
      </trkpt>
      <trkpt lat="47.79782" lon="-3.43329">
        <ele>37</ele>
        <time>2019-07-17T14:05:04Z</time>
      </trkpt>
      <trkpt lat="47.79775" lon="-3.43324">
        <ele>37</ele>
        <time>2019-07-17T14:05:05Z</time>
      </trkpt>
      <trkpt lat="47.79768" lon="-3.4332">
        <ele>37</ele>
        <time>2019-07-17T14:05:06Z</time>
      </trkpt>
      <trkpt lat="47.79761" lon="-3.43317">
        <ele>37</ele>
        <time>2019-07-17T14:05:07Z</time>
      </trkpt>
      <trkpt lat="47.79754" lon="-3.43314">
        <ele>37</ele>
        <time>2019-07-17T14:05:08Z</time>
      </trkpt>
      <trkpt lat="47.79747" lon="-3.4331">
        <ele>37</ele>
        <time>2019-07-17T14:05:09Z</time>
      </trkpt>
      <trkpt lat="47.79741" lon="-3.43306">
        <ele>37</ele>
        <time>2019-07-17T14:05:10Z</time>
      </trkpt>
      <trkpt lat="47.79736" lon="-3.433">
        <ele>37</ele>
        <time>2019-07-17T14:05:11Z</time>
      </trkpt>
      <trkpt lat="47.79731" lon="-3.43294">
        <ele>37</ele>
        <time>2019-07-17T14:05:12Z</time>
      </trkpt>
      <trkpt lat="47.79726" lon="-3.43287">
        <ele>37</ele>
        <time>2019-07-17T14:05:13Z</time>
      </trkpt>
      <trkpt lat="47.79722" lon="-3.4328">
        <ele>37</ele>
        <time>2019-07-17T14:05:14Z</time>
      </trkpt>
      <trkpt lat="47.79716" lon="-3.43272">
        <ele>37</ele>
        <time>2019-07-17T14:05:15Z</time>
      </trkpt>
      <trkpt lat="47.7971" lon="-3.43264">
        <ele>37</ele>
        <time>2019-07-17T14:05:16Z</time>
      </trkpt>
      <trkpt lat="47.79705" lon="-3.43256">
        <ele>37</ele>
        <time>2019-07-17T14:05:17Z</time>
      </trkpt>
      <trkpt lat="47.79699" lon="-3.43247">
        <ele>37</ele>
        <time>2019-07-17T14:05:18Z</time>
      </trkpt>
      <trkpt lat="47.79693" lon="-3.43238">
        <ele>37</ele>
        <time>2019-07-17T14:05:19Z</time>
      </trkpt>
      <trkpt lat="47.79688" lon="-3.4323">
        <ele>37</ele>
        <time>2019-07-17T14:05:20Z</time>
      </trkpt>
      <trkpt lat="47.79682" lon="-3.43221">
        <ele>38</ele>
        <time>2019-07-17T14:05:21Z</time>
      </trkpt>
      <trkpt lat="47.79676" lon="-3.43212">
        <ele>38</ele>
        <time>2019-07-17T14:05:22Z</time>
      </trkpt>
      <trkpt lat="47.79671" lon="-3.43204">
        <ele>38</ele>
        <time>2019-07-17T14:05:23Z</time>
      </trkpt>
      <trkpt lat="47.79665" lon="-3.43196">
        <ele>38</ele>
        <time>2019-07-17T14:05:24Z</time>
      </trkpt>
      <trkpt lat="47.79659" lon="-3.43189">
        <ele>38</ele>
        <time>2019-07-17T14:05:25Z</time>
      </trkpt>
      <trkpt lat="47.79653" lon="-3.4318">
        <ele>38</ele>
        <time>2019-07-17T14:05:26Z</time>
      </trkpt>
      <trkpt lat="47.79647" lon="-3.43172">
        <ele>38</ele>
        <time>2019-07-17T14:05:27Z</time>
      </trkpt>
      <trkpt lat="47.79642" lon="-3.43165">
        <ele>39</ele>
        <time>2019-07-17T14:05:28Z</time>
      </trkpt>
      <trkpt lat="47.79636" lon="-3.43158">
        <ele>39</ele>
        <time>2019-07-17T14:05:29Z</time>
      </trkpt>
      <trkpt lat="47.79631" lon="-3.43152">
        <ele>39</ele>
        <time>2019-07-17T14:05:30Z</time>
      </trkpt>
      <trkpt lat="47.79625" lon="-3.43146">
        <ele>40</ele>
        <time>2019-07-17T14:05:31Z</time>
      </trkpt>
      <trkpt lat="47.79619" lon="-3.43142">
        <ele>40</ele>
        <time>2019-07-17T14:05:32Z</time>
      </trkpt>
      <trkpt lat="47.79613" lon="-3.43138">
        <ele>40</ele>
        <time>2019-07-17T14:05:33Z</time>
      </trkpt>
      <trkpt lat="47.79607" lon="-3.43135">
        <ele>40</ele>
        <time>2019-07-17T14:05:34Z</time>
      </trkpt>
      <trkpt lat="47.79601" lon="-3.43133">
        <ele>40</ele>
        <time>2019-07-17T14:05:35Z</time>
      </trkpt>
      <trkpt lat="47.79595" lon="-3.43131">
        <ele>40</ele>
        <time>2019-07-17T14:05:36Z</time>
      </trkpt>
      <trkpt lat="47.79589" lon="-3.43129">
        <ele>41</ele>
        <time>2019-07-17T14:05:37Z</time>
      </trkpt>
      <trkpt lat="47.79583" lon="-3.43128">
        <ele>41</ele>
        <time>2019-07-17T14:05:38Z</time>
      </trkpt>
      <trkpt lat="47.79578" lon="-3.43128">
        <ele>41</ele>
        <time>2019-07-17T14:05:39Z</time>
      </trkpt>
      <trkpt lat="47.79572" lon="-3.43127">
        <ele>42</ele>
        <time>2019-07-17T14:05:40Z</time>
      </trkpt>
      <trkpt lat="47.79567" lon="-3.43128">
        <ele>42</ele>
        <time>2019-07-17T14:05:41Z</time>
      </trkpt>
      <trkpt lat="47.79561" lon="-3.43129">
        <ele>42</ele>
        <time>2019-07-17T14:05:42Z</time>
      </trkpt>
      <trkpt lat="47.79556" lon="-3.43129">
        <ele>43</ele>
        <time>2019-07-17T14:05:43Z</time>
      </trkpt>
      <trkpt lat="47.79551" lon="-3.43129">
        <ele>43</ele>
        <time>2019-07-17T14:05:44Z</time>
      </trkpt>
      <trkpt lat="47.79545" lon="-3.43129">
        <ele>43</ele>
        <time>2019-07-17T14:05:45Z</time>
      </trkpt>
      <trkpt lat="47.7954" lon="-3.4313">
        <ele>43</ele>
        <time>2019-07-17T14:05:46Z</time>
      </trkpt>
      <trkpt lat="47.79535" lon="-3.4313">
        <ele>44</ele>
        <time>2019-07-17T14:05:47Z</time>
      </trkpt>
      <trkpt lat="47.79529" lon="-3.4313">
        <ele>44</ele>
        <time>2019-07-17T14:05:48Z</time>
      </trkpt>
      <trkpt lat="47.79523" lon="-3.43131">
        <ele>44</ele>
        <time>2019-07-17T14:05:49Z</time>
      </trkpt>
      <trkpt lat="47.79518" lon="-3.43131">
        <ele>44</ele>
        <time>2019-07-17T14:05:50Z</time>
      </trkpt>
      <trkpt lat="47.79512" lon="-3.43131">
        <ele>44</ele>
        <time>2019-07-17T14:05:51Z</time>
      </trkpt>
      <trkpt lat="47.79506" lon="-3.43131">
        <ele>44</ele>
        <time>2019-07-17T14:05:52Z</time>
      </trkpt>
      <trkpt lat="47.795" lon="-3.43131">
        <ele>44</ele>
        <time>2019-07-17T14:05:53Z</time>
      </trkpt>
      <trkpt lat="47.79494" lon="-3.4313">
        <ele>44</ele>
        <time>2019-07-17T14:05:54Z</time>
      </trkpt>
      <trkpt lat="47.79488" lon="-3.43129">
        <ele>45</ele>
        <time>2019-07-17T14:05:55Z</time>
      </trkpt>
      <trkpt lat="47.79482" lon="-3.43129">
        <ele>45</ele>
        <time>2019-07-17T14:05:56Z</time>
      </trkpt>
      <trkpt lat="47.79477" lon="-3.43128">
        <ele>45</ele>
        <time>2019-07-17T14:05:57Z</time>
      </trkpt>
      <trkpt lat="47.79471" lon="-3.43127">
        <ele>45</ele>
        <time>2019-07-17T14:05:58Z</time>
      </trkpt>
      <trkpt lat="47.79466" lon="-3.43126">
        <ele>45</ele>
        <time>2019-07-17T14:05:59Z</time>
      </trkpt>
      <trkpt lat="47.79461" lon="-3.43124">
        <ele>45</ele>
        <time>2019-07-17T14:06:00Z</time>
      </trkpt>
      <trkpt lat="47.79457" lon="-3.43119">
        <ele>45</ele>
        <time>2019-07-17T14:06:01Z</time>
      </trkpt>
      <trkpt lat="47.79454" lon="-3.43113">
        <ele>45</ele>
        <time>2019-07-17T14:06:02Z</time>
      </trkpt>
      <trkpt lat="47.79451" lon="-3.43107">
        <ele>45</ele>
        <time>2019-07-17T14:06:03Z</time>
      </trkpt>
      <trkpt lat="47.79448" lon="-3.431">
        <ele>45</ele>
        <time>2019-07-17T14:06:04Z</time>
      </trkpt>
      <trkpt lat="47.79444" lon="-3.43094">
        <ele>45</ele>
        <time>2019-07-17T14:06:05Z</time>
      </trkpt>
      <trkpt lat="47.7944" lon="-3.43088">
        <ele>46</ele>
        <time>2019-07-17T14:06:06Z</time>
      </trkpt>
      <trkpt lat="47.79436" lon="-3.43082">
        <ele>46</ele>
        <time>2019-07-17T14:06:07Z</time>
      </trkpt>
      <trkpt lat="47.79432" lon="-3.43075">
        <ele>46</ele>
        <time>2019-07-17T14:06:08Z</time>
      </trkpt>
      <trkpt lat="47.79428" lon="-3.43068">
        <ele>45</ele>
        <time>2019-07-17T14:06:09Z</time>
      </trkpt>
      <trkpt lat="47.79424" lon="-3.43061">
        <ele>45</ele>
        <time>2019-07-17T14:06:10Z</time>
      </trkpt>
      <trkpt lat="47.7942" lon="-3.43054">
        <ele>45</ele>
        <time>2019-07-17T14:06:11Z</time>
      </trkpt>
      <trkpt lat="47.79416" lon="-3.43046">
        <ele>45</ele>
        <time>2019-07-17T14:06:12Z</time>
      </trkpt>
      <trkpt lat="47.79412" lon="-3.43038">
        <ele>45</ele>
        <time>2019-07-17T14:06:13Z</time>
      </trkpt>
      <trkpt lat="47.79408" lon="-3.4303">
        <ele>45</ele>
        <time>2019-07-17T14:06:14Z</time>
      </trkpt>
      <trkpt lat="47.79404" lon="-3.43022">
        <ele>45</ele>
        <time>2019-07-17T14:06:15Z</time>
      </trkpt>
      <trkpt lat="47.79401" lon="-3.43014">
        <ele>45</ele>
        <time>2019-07-17T14:06:16Z</time>
      </trkpt>
      <trkpt lat="47.79398" lon="-3.43007">
        <ele>45</ele>
        <time>2019-07-17T14:06:17Z</time>
      </trkpt>
      <trkpt lat="47.79395" lon="-3.42999">
        <ele>45</ele>
        <time>2019-07-17T14:06:18Z</time>
      </trkpt>
      <trkpt lat="47.79391" lon="-3.42992">
        <ele>45</ele>
        <time>2019-07-17T14:06:19Z</time>
      </trkpt>
      <trkpt lat="47.79388" lon="-3.42985">
        <ele>45</ele>
        <time>2019-07-17T14:06:20Z</time>
      </trkpt>
      <trkpt lat="47.79385" lon="-3.42978">
        <ele>45</ele>
        <time>2019-07-17T14:06:21Z</time>
      </trkpt>
      <trkpt lat="47.79383" lon="-3.42971">
        <ele>46</ele>
        <time>2019-07-17T14:06:22Z</time>
      </trkpt>
      <trkpt lat="47.7938" lon="-3.42964">
        <ele>46</ele>
        <time>2019-07-17T14:06:23Z</time>
      </trkpt>
      <trkpt lat="47.79377" lon="-3.42958">
        <ele>46</ele>
        <time>2019-07-17T14:06:24Z</time>
      </trkpt>
      <trkpt lat="47.79374" lon="-3.42951">
        <ele>46</ele>
        <time>2019-07-17T14:06:25Z</time>
      </trkpt>
      <trkpt lat="47.79371" lon="-3.42945">
        <ele>47</ele>
        <time>2019-07-17T14:06:26Z</time>
      </trkpt>
      <trkpt lat="47.79369" lon="-3.42938">
        <ele>47</ele>
        <time>2019-07-17T14:06:27Z</time>
      </trkpt>
      <trkpt lat="47.79366" lon="-3.42932">
        <ele>47</ele>
        <time>2019-07-17T14:06:28Z</time>
      </trkpt>
      <trkpt lat="47.79363" lon="-3.42925">
        <ele>47</ele>
        <time>2019-07-17T14:06:29Z</time>
      </trkpt>
      <trkpt lat="47.7936" lon="-3.42919">
        <ele>48</ele>
        <time>2019-07-17T14:06:30Z</time>
      </trkpt>
      <trkpt lat="47.79356" lon="-3.42914">
        <ele>48</ele>
        <time>2019-07-17T14:06:31Z</time>
      </trkpt>
      <trkpt lat="47.79352" lon="-3.4291">
        <ele>48</ele>
        <time>2019-07-17T14:06:32Z</time>
      </trkpt>
      <trkpt lat="47.79349" lon="-3.42906">
        <ele>48</ele>
        <time>2019-07-17T14:06:33Z</time>
      </trkpt>
      <trkpt lat="47.79345" lon="-3.42901">
        <ele>48</ele>
        <time>2019-07-17T14:06:34Z</time>
      </trkpt>
      <trkpt lat="47.79342" lon="-3.42896">
        <ele>48</ele>
        <time>2019-07-17T14:06:35Z</time>
      </trkpt>
      <trkpt lat="47.79339" lon="-3.4289">
        <ele>48</ele>
        <time>2019-07-17T14:06:36Z</time>
      </trkpt>
      <trkpt lat="47.79337" lon="-3.42883">
        <ele>48</ele>
        <time>2019-07-17T14:06:37Z</time>
      </trkpt>
      <trkpt lat="47.79336" lon="-3.42876">
        <ele>48</ele>
        <time>2019-07-17T14:06:38Z</time>
      </trkpt>
      <trkpt lat="47.79336" lon="-3.42867">
        <ele>48</ele>
        <time>2019-07-17T14:06:39Z</time>
      </trkpt>
      <trkpt lat="47.79335" lon="-3.4286">
        <ele>48</ele>
        <time>2019-07-17T14:06:40Z</time>
      </trkpt>
      <trkpt lat="47.79333" lon="-3.42852">
        <ele>48</ele>
        <time>2019-07-17T14:06:41Z</time>
      </trkpt>
      <trkpt lat="47.79329" lon="-3.42845">
        <ele>48</ele>
        <time>2019-07-17T14:06:42Z</time>
      </trkpt>
      <trkpt lat="47.79326" lon="-3.42838">
        <ele>48</ele>
        <time>2019-07-17T14:06:43Z</time>
      </trkpt>
      <trkpt lat="47.79322" lon="-3.4283">
        <ele>48</ele>
        <time>2019-07-17T14:06:44Z</time>
      </trkpt>
      <trkpt lat="47.79318" lon="-3.42823">
        <ele>48</ele>
        <time>2019-07-17T14:06:45Z</time>
      </trkpt>
      <trkpt lat="47.79314" lon="-3.42816">
        <ele>48</ele>
        <time>2019-07-17T14:06:46Z</time>
      </trkpt>
      <trkpt lat="47.79309" lon="-3.42809">
        <ele>47</ele>
        <time>2019-07-17T14:06:47Z</time>
      </trkpt>
      <trkpt lat="47.79305" lon="-3.42802">
        <ele>47</ele>
        <time>2019-07-17T14:06:48Z</time>
      </trkpt>
      <trkpt lat="47.79301" lon="-3.42795">
        <ele>47</ele>
        <time>2019-07-17T14:06:49Z</time>
      </trkpt>
      <trkpt lat="47.79297" lon="-3.42789">
        <ele>47</ele>
        <time>2019-07-17T14:06:50Z</time>
      </trkpt>
      <trkpt lat="47.79293" lon="-3.42782">
        <ele>47</ele>
        <time>2019-07-17T14:06:51Z</time>
      </trkpt>
      <trkpt lat="47.79289" lon="-3.42776">
        <ele>47</ele>
        <time>2019-07-17T14:06:52Z</time>
      </trkpt>
      <trkpt lat="47.79285" lon="-3.42769">
        <ele>47</ele>
        <time>2019-07-17T14:06:53Z</time>
      </trkpt>
      <trkpt lat="47.79281" lon="-3.42764">
        <ele>47</ele>
        <time>2019-07-17T14:06:54Z</time>
      </trkpt>
      <trkpt lat="47.79277" lon="-3.42758">
        <ele>47</ele>
        <time>2019-07-17T14:06:55Z</time>
      </trkpt>
      <trkpt lat="47.79273" lon="-3.42751">
        <ele>47</ele>
        <time>2019-07-17T14:06:56Z</time>
      </trkpt>
      <trkpt lat="47.79269" lon="-3.42745">
        <ele>47</ele>
        <time>2019-07-17T14:06:57Z</time>
      </trkpt>
      <trkpt lat="47.79266" lon="-3.42739">
        <ele>47</ele>
        <time>2019-07-17T14:06:58Z</time>
      </trkpt>
      <trkpt lat="47.79261" lon="-3.42732">
        <ele>47</ele>
        <time>2019-07-17T14:06:59Z</time>
      </trkpt>
      <trkpt lat="47.79257" lon="-3.42726">
        <ele>47</ele>
        <time>2019-07-17T14:07:00Z</time>
      </trkpt>
      <trkpt lat="47.79253" lon="-3.42719">
        <ele>47</ele>
        <time>2019-07-17T14:07:01Z</time>
      </trkpt>
      <trkpt lat="47.79248" lon="-3.42712">
        <ele>47</ele>
        <time>2019-07-17T14:07:02Z</time>
      </trkpt>
      <trkpt lat="47.79243" lon="-3.42706">
        <ele>47</ele>
        <time>2019-07-17T14:07:03Z</time>
      </trkpt>
      <trkpt lat="47.79239" lon="-3.42699">
        <ele>47</ele>
        <time>2019-07-17T14:07:04Z</time>
      </trkpt>
      <trkpt lat="47.79234" lon="-3.42693">
        <ele>47</ele>
        <time>2019-07-17T14:07:05Z</time>
      </trkpt>
      <trkpt lat="47.79229" lon="-3.42687">
        <ele>47</ele>
        <time>2019-07-17T14:07:06Z</time>
      </trkpt>
      <trkpt lat="47.79223" lon="-3.4268">
        <ele>47</ele>
        <time>2019-07-17T14:07:07Z</time>
      </trkpt>
      <trkpt lat="47.79218" lon="-3.42675">
        <ele>47</ele>
        <time>2019-07-17T14:07:08Z</time>
      </trkpt>
      <trkpt lat="47.79213" lon="-3.42669">
        <ele>47</ele>
        <time>2019-07-17T14:07:09Z</time>
      </trkpt>
      <trkpt lat="47.79207" lon="-3.42664">
        <ele>47</ele>
        <time>2019-07-17T14:07:10Z</time>
      </trkpt>
      <trkpt lat="47.79201" lon="-3.42658">
        <ele>46</ele>
        <time>2019-07-17T14:07:11Z</time>
      </trkpt>
      <trkpt lat="47.79196" lon="-3.42652">
        <ele>46</ele>
        <time>2019-07-17T14:07:12Z</time>
      </trkpt>
      <trkpt lat="47.7919" lon="-3.42647">
        <ele>46</ele>
        <time>2019-07-17T14:07:13Z</time>
      </trkpt>
      <trkpt lat="47.79184" lon="-3.42641">
        <ele>46</ele>
        <time>2019-07-17T14:07:14Z</time>
      </trkpt>
      <trkpt lat="47.79179" lon="-3.42635">
        <ele>46</ele>
        <time>2019-07-17T14:07:15Z</time>
      </trkpt>
      <trkpt lat="47.79174" lon="-3.42627">
        <ele>45</ele>
        <time>2019-07-17T14:07:16Z</time>
      </trkpt>
      <trkpt lat="47.79169" lon="-3.42621">
        <ele>45</ele>
        <time>2019-07-17T14:07:17Z</time>
      </trkpt>
      <trkpt lat="47.79164" lon="-3.42617">
        <ele>45</ele>
        <time>2019-07-17T14:07:18Z</time>
      </trkpt>
      <trkpt lat="47.79158" lon="-3.42615">
        <ele>45</ele>
        <time>2019-07-17T14:07:19Z</time>
      </trkpt>
      <trkpt lat="47.79152" lon="-3.42612">
        <ele>45</ele>
        <time>2019-07-17T14:07:20Z</time>
      </trkpt>
      <trkpt lat="47.79148" lon="-3.42608">
        <ele>45</ele>
        <time>2019-07-17T14:07:21Z</time>
      </trkpt>
      <trkpt lat="47.79144" lon="-3.42602">
        <ele>45</ele>
        <time>2019-07-17T14:07:22Z</time>
      </trkpt>
      <trkpt lat="47.79143" lon="-3.42595">
        <ele>45</ele>
        <time>2019-07-17T14:07:23Z</time>
      </trkpt>
      <trkpt lat="47.79142" lon="-3.42587">
        <ele>45</ele>
        <time>2019-07-17T14:07:24Z</time>
      </trkpt>
      <trkpt lat="47.79141" lon="-3.42579">
        <ele>44</ele>
        <time>2019-07-17T14:07:25Z</time>
      </trkpt>
      <trkpt lat="47.79138" lon="-3.42572">
        <ele>45</ele>
        <time>2019-07-17T14:07:26Z</time>
      </trkpt>
      <trkpt lat="47.79135" lon="-3.42564">
        <ele>44</ele>
        <time>2019-07-17T14:07:27Z</time>
      </trkpt>
      <trkpt lat="47.79132" lon="-3.42557">
        <ele>44</ele>
        <time>2019-07-17T14:07:28Z</time>
      </trkpt>
      <trkpt lat="47.79129" lon="-3.4255">
        <ele>45</ele>
        <time>2019-07-17T14:07:29Z</time>
      </trkpt>
      <trkpt lat="47.79126" lon="-3.42542">
        <ele>45</ele>
        <time>2019-07-17T14:07:30Z</time>
      </trkpt>
      <trkpt lat="47.79123" lon="-3.42536">
        <ele>45</ele>
        <time>2019-07-17T14:07:31Z</time>
      </trkpt>
      <trkpt lat="47.7912" lon="-3.42529">
        <ele>45</ele>
        <time>2019-07-17T14:07:32Z</time>
      </trkpt>
      <trkpt lat="47.79117" lon="-3.42522">
        <ele>45</ele>
        <time>2019-07-17T14:07:33Z</time>
      </trkpt>
      <trkpt lat="47.79114" lon="-3.42515">
        <ele>45</ele>
        <time>2019-07-17T14:07:34Z</time>
      </trkpt>
      <trkpt lat="47.79111" lon="-3.42508">
        <ele>45</ele>
        <time>2019-07-17T14:07:35Z</time>
      </trkpt>
      <trkpt lat="47.79108" lon="-3.42501">
        <ele>46</ele>
        <time>2019-07-17T14:07:36Z</time>
      </trkpt>
      <trkpt lat="47.79105" lon="-3.42494">
        <ele>46</ele>
        <time>2019-07-17T14:07:37Z</time>
      </trkpt>
      <trkpt lat="47.79102" lon="-3.42487">
        <ele>46</ele>
        <time>2019-07-17T14:07:38Z</time>
      </trkpt>
      <trkpt lat="47.79099" lon="-3.4248">
        <ele>46</ele>
        <time>2019-07-17T14:07:39Z</time>
      </trkpt>
      <trkpt lat="47.79096" lon="-3.42473">
        <ele>46</ele>
        <time>2019-07-17T14:07:40Z</time>
      </trkpt>
      <trkpt lat="47.79093" lon="-3.42466">
        <ele>46</ele>
        <time>2019-07-17T14:07:41Z</time>
      </trkpt>
      <trkpt lat="47.7909" lon="-3.42459">
        <ele>46</ele>
        <time>2019-07-17T14:07:42Z</time>
      </trkpt>
      <trkpt lat="47.79087" lon="-3.42452">
        <ele>46</ele>
        <time>2019-07-17T14:07:43Z</time>
      </trkpt>
      <trkpt lat="47.79084" lon="-3.42445">
        <ele>47</ele>
        <time>2019-07-17T14:07:44Z</time>
      </trkpt>
      <trkpt lat="47.79081" lon="-3.42438">
        <ele>47</ele>
        <time>2019-07-17T14:07:45Z</time>
      </trkpt>
      <trkpt lat="47.79078" lon="-3.42431">
        <ele>47</ele>
        <time>2019-07-17T14:07:46Z</time>
      </trkpt>
      <trkpt lat="47.79074" lon="-3.42424">
        <ele>47</ele>
        <time>2019-07-17T14:07:47Z</time>
      </trkpt>
      <trkpt lat="47.79071" lon="-3.42417">
        <ele>47</ele>
        <time>2019-07-17T14:07:48Z</time>
      </trkpt>
      <trkpt lat="47.79068" lon="-3.42409">
        <ele>48</ele>
        <time>2019-07-17T14:07:49Z</time>
      </trkpt>
      <trkpt lat="47.79065" lon="-3.42402">
        <ele>48</ele>
        <time>2019-07-17T14:07:50Z</time>
      </trkpt>
      <trkpt lat="47.79062" lon="-3.42395">
        <ele>48</ele>
        <time>2019-07-17T14:07:51Z</time>
      </trkpt>
      <trkpt lat="47.79059" lon="-3.42387">
        <ele>48</ele>
        <time>2019-07-17T14:07:52Z</time>
      </trkpt>
      <trkpt lat="47.79056" lon="-3.42379">
        <ele>48</ele>
        <time>2019-07-17T14:07:53Z</time>
      </trkpt>
      <trkpt lat="47.79053" lon="-3.42372">
        <ele>49</ele>
        <time>2019-07-17T14:07:54Z</time>
      </trkpt>
      <trkpt lat="47.7905" lon="-3.42365">
        <ele>49</ele>
        <time>2019-07-17T14:07:55Z</time>
      </trkpt>
      <trkpt lat="47.79047" lon="-3.42358">
        <ele>49</ele>
        <time>2019-07-17T14:07:56Z</time>
      </trkpt>
      <trkpt lat="47.79044" lon="-3.4235">
        <ele>49</ele>
        <time>2019-07-17T14:07:57Z</time>
      </trkpt>
      <trkpt lat="47.79042" lon="-3.42342">
        <ele>49</ele>
        <time>2019-07-17T14:07:58Z</time>
      </trkpt>
      <trkpt lat="47.79039" lon="-3.42334">
        <ele>50</ele>
        <time>2019-07-17T14:07:59Z</time>
      </trkpt>
      <trkpt lat="47.79036" lon="-3.42326">
        <ele>50</ele>
        <time>2019-07-17T14:08:00Z</time>
      </trkpt>
      <trkpt lat="47.79034" lon="-3.42319">
        <ele>50</ele>
        <time>2019-07-17T14:08:01Z</time>
      </trkpt>
      <trkpt lat="47.79032" lon="-3.4231">
        <ele>50</ele>
        <time>2019-07-17T14:08:02Z</time>
      </trkpt>
      <trkpt lat="47.79029" lon="-3.42303">
        <ele>50</ele>
        <time>2019-07-17T14:08:03Z</time>
      </trkpt>
      <trkpt lat="47.79026" lon="-3.42295">
        <ele>50</ele>
        <time>2019-07-17T14:08:04Z</time>
      </trkpt>
      <trkpt lat="47.79023" lon="-3.42287">
        <ele>50</ele>
        <time>2019-07-17T14:08:05Z</time>
      </trkpt>
      <trkpt lat="47.7902" lon="-3.42279">
        <ele>50</ele>
        <time>2019-07-17T14:08:06Z</time>
      </trkpt>
      <trkpt lat="47.79018" lon="-3.4227">
        <ele>51</ele>
        <time>2019-07-17T14:08:07Z</time>
      </trkpt>
      <trkpt lat="47.79015" lon="-3.42262">
        <ele>51</ele>
        <time>2019-07-17T14:08:08Z</time>
      </trkpt>
      <trkpt lat="47.79012" lon="-3.42254">
        <ele>51</ele>
        <time>2019-07-17T14:08:09Z</time>
      </trkpt>
      <trkpt lat="47.79009" lon="-3.42246">
        <ele>51</ele>
        <time>2019-07-17T14:08:10Z</time>
      </trkpt>
      <trkpt lat="47.79006" lon="-3.42237">
        <ele>51</ele>
        <time>2019-07-17T14:08:11Z</time>
      </trkpt>
      <trkpt lat="47.79003" lon="-3.4223">
        <ele>51</ele>
        <time>2019-07-17T14:08:12Z</time>
      </trkpt>
      <trkpt lat="47.78999" lon="-3.42222">
        <ele>50</ele>
        <time>2019-07-17T14:08:13Z</time>
      </trkpt>
      <trkpt lat="47.78996" lon="-3.42214">
        <ele>50</ele>
        <time>2019-07-17T14:08:14Z</time>
      </trkpt>
      <trkpt lat="47.78993" lon="-3.42206">
        <ele>50</ele>
        <time>2019-07-17T14:08:15Z</time>
      </trkpt>
      <trkpt lat="47.78989" lon="-3.42198">
        <ele>50</ele>
        <time>2019-07-17T14:08:16Z</time>
      </trkpt>
      <trkpt lat="47.78985" lon="-3.42191">
        <ele>50</ele>
        <time>2019-07-17T14:08:17Z</time>
      </trkpt>
      <trkpt lat="47.78981" lon="-3.42184">
        <ele>50</ele>
        <time>2019-07-17T14:08:18Z</time>
      </trkpt>
      <trkpt lat="47.78977" lon="-3.42177">
        <ele>50</ele>
        <time>2019-07-17T14:08:19Z</time>
      </trkpt>
      <trkpt lat="47.78973" lon="-3.42169">
        <ele>50</ele>
        <time>2019-07-17T14:08:20Z</time>
      </trkpt>
      <trkpt lat="47.78968" lon="-3.42163">
        <ele>49</ele>
        <time>2019-07-17T14:08:21Z</time>
      </trkpt>
      <trkpt lat="47.78964" lon="-3.42158">
        <ele>49</ele>
        <time>2019-07-17T14:08:22Z</time>
      </trkpt>
      <trkpt lat="47.78959" lon="-3.42154">
        <ele>49</ele>
        <time>2019-07-17T14:08:23Z</time>
      </trkpt>
      <trkpt lat="47.78956" lon="-3.42148">
        <ele>49</ele>
        <time>2019-07-17T14:08:24Z</time>
      </trkpt>
      <trkpt lat="47.78955" lon="-3.42142">
        <ele>49</ele>
        <time>2019-07-17T14:08:25Z</time>
      </trkpt>
      <trkpt lat="47.78956" lon="-3.42135">
        <ele>49</ele>
        <time>2019-07-17T14:08:26Z</time>
      </trkpt>
      <trkpt lat="47.78957" lon="-3.4213">
        <ele>48</ele>
        <time>2019-07-17T14:08:27Z</time>
      </trkpt>
      <trkpt lat="47.7896" lon="-3.42126">
        <ele>48</ele>
        <time>2019-07-17T14:08:28Z</time>
      </trkpt>
      <trkpt lat="47.78964" lon="-3.42122">
        <ele>48</ele>
        <time>2019-07-17T14:08:29Z</time>
      </trkpt>
      <trkpt lat="47.78968" lon="-3.42116">
        <ele>48</ele>
        <time>2019-07-17T14:08:30Z</time>
      </trkpt>
      <trkpt lat="47.78972" lon="-3.4211">
        <ele>48</ele>
        <time>2019-07-17T14:08:31Z</time>
      </trkpt>
      <trkpt lat="47.78976" lon="-3.42103">
        <ele>48</ele>
        <time>2019-07-17T14:08:32Z</time>
      </trkpt>
      <trkpt lat="47.7898" lon="-3.42097">
        <ele>47</ele>
        <time>2019-07-17T14:08:33Z</time>
      </trkpt>
      <trkpt lat="47.78984" lon="-3.4209">
        <ele>47</ele>
        <time>2019-07-17T14:08:34Z</time>
      </trkpt>
      <trkpt lat="47.78988" lon="-3.42084">
        <ele>47</ele>
        <time>2019-07-17T14:08:35Z</time>
      </trkpt>
      <trkpt lat="47.78992" lon="-3.42077">
        <ele>47</ele>
        <time>2019-07-17T14:08:36Z</time>
      </trkpt>
      <trkpt lat="47.78996" lon="-3.42071">
        <ele>47</ele>
        <time>2019-07-17T14:08:37Z</time>
      </trkpt>
      <trkpt lat="47.79" lon="-3.42064">
        <ele>46</ele>
        <time>2019-07-17T14:08:38Z</time>
      </trkpt>
      <trkpt lat="47.79003" lon="-3.42058">
        <ele>46</ele>
        <time>2019-07-17T14:08:39Z</time>
      </trkpt>
      <trkpt lat="47.79007" lon="-3.42052">
        <ele>46</ele>
        <time>2019-07-17T14:08:40Z</time>
      </trkpt>
      <trkpt lat="47.79011" lon="-3.42045">
        <ele>46</ele>
        <time>2019-07-17T14:08:41Z</time>
      </trkpt>
      <trkpt lat="47.79015" lon="-3.42038">
        <ele>46</ele>
        <time>2019-07-17T14:08:42Z</time>
      </trkpt>
      <trkpt lat="47.7902" lon="-3.42031">
        <ele>45</ele>
        <time>2019-07-17T14:08:43Z</time>
      </trkpt>
      <trkpt lat="47.79024" lon="-3.42023">
        <ele>45</ele>
        <time>2019-07-17T14:08:44Z</time>
      </trkpt>
      <trkpt lat="47.79029" lon="-3.42015">
        <ele>45</ele>
        <time>2019-07-17T14:08:45Z</time>
      </trkpt>
      <trkpt lat="47.79034" lon="-3.42007">
        <ele>44</ele>
        <time>2019-07-17T14:08:46Z</time>
      </trkpt>
      <trkpt lat="47.79039" lon="-3.41998">
        <ele>44</ele>
        <time>2019-07-17T14:08:47Z</time>
      </trkpt>
      <trkpt lat="47.79043" lon="-3.4199">
        <ele>44</ele>
        <time>2019-07-17T14:08:48Z</time>
      </trkpt>
      <trkpt lat="47.79048" lon="-3.41981">
        <ele>44</ele>
        <time>2019-07-17T14:08:49Z</time>
      </trkpt>
      <trkpt lat="47.79053" lon="-3.41973">
        <ele>43</ele>
        <time>2019-07-17T14:08:50Z</time>
      </trkpt>
      <trkpt lat="47.79058" lon="-3.41965">
        <ele>43</ele>
        <time>2019-07-17T14:08:51Z</time>
      </trkpt>
      <trkpt lat="47.79063" lon="-3.41957">
        <ele>43</ele>
        <time>2019-07-17T14:08:52Z</time>
      </trkpt>
      <trkpt lat="47.79068" lon="-3.41949">
        <ele>43</ele>
        <time>2019-07-17T14:08:53Z</time>
      </trkpt>
      <trkpt lat="47.79072" lon="-3.41941">
        <ele>43</ele>
        <time>2019-07-17T14:08:54Z</time>
      </trkpt>
      <trkpt lat="47.79077" lon="-3.41933">
        <ele>42</ele>
        <time>2019-07-17T14:08:55Z</time>
      </trkpt>
      <trkpt lat="47.79081" lon="-3.41925">
        <ele>42</ele>
        <time>2019-07-17T14:08:56Z</time>
      </trkpt>
      <trkpt lat="47.79086" lon="-3.41918">
        <ele>42</ele>
        <time>2019-07-17T14:08:57Z</time>
      </trkpt>
      <trkpt lat="47.7909" lon="-3.41911">
        <ele>42</ele>
        <time>2019-07-17T14:08:58Z</time>
      </trkpt>
      <trkpt lat="47.79093" lon="-3.41903">
        <ele>42</ele>
        <time>2019-07-17T14:08:59Z</time>
      </trkpt>
      <trkpt lat="47.79096" lon="-3.41896">
        <ele>42</ele>
        <time>2019-07-17T14:09:00Z</time>
      </trkpt>
      <trkpt lat="47.79099" lon="-3.41889">
        <ele>42</ele>
        <time>2019-07-17T14:09:01Z</time>
      </trkpt>
      <trkpt lat="47.79103" lon="-3.41883">
        <ele>42</ele>
        <time>2019-07-17T14:09:02Z</time>
      </trkpt>
      <trkpt lat="47.79107" lon="-3.41878">
        <ele>42</ele>
        <time>2019-07-17T14:09:03Z</time>
      </trkpt>
      <trkpt lat="47.79112" lon="-3.41872">
        <ele>42</ele>
        <time>2019-07-17T14:09:04Z</time>
      </trkpt>
      <trkpt lat="47.79116" lon="-3.41866">
        <ele>42</ele>
        <time>2019-07-17T14:09:05Z</time>
      </trkpt>
      <trkpt lat="47.7912" lon="-3.4186">
        <ele>42</ele>
        <time>2019-07-17T14:09:06Z</time>
      </trkpt>
      <trkpt lat="47.79124" lon="-3.41853">
        <ele>42</ele>
        <time>2019-07-17T14:09:07Z</time>
      </trkpt>
      <trkpt lat="47.79128" lon="-3.41846">
        <ele>42</ele>
        <time>2019-07-17T14:09:08Z</time>
      </trkpt>
      <trkpt lat="47.79131" lon="-3.41839">
        <ele>42</ele>
        <time>2019-07-17T14:09:09Z</time>
      </trkpt>
      <trkpt lat="47.79135" lon="-3.41831">
        <ele>42</ele>
        <time>2019-07-17T14:09:10Z</time>
      </trkpt>
      <trkpt lat="47.79138" lon="-3.41824">
        <ele>42</ele>
        <time>2019-07-17T14:09:11Z</time>
      </trkpt>
      <trkpt lat="47.79142" lon="-3.41817">
        <ele>42</ele>
        <time>2019-07-17T14:09:12Z</time>
      </trkpt>
      <trkpt lat="47.79144" lon="-3.41808">
        <ele>42</ele>
        <time>2019-07-17T14:09:13Z</time>
      </trkpt>
      <trkpt lat="47.79147" lon="-3.41801">
        <ele>42</ele>
        <time>2019-07-17T14:09:14Z</time>
      </trkpt>
      <trkpt lat="47.7915" lon="-3.41793">
        <ele>42</ele>
        <time>2019-07-17T14:09:15Z</time>
      </trkpt>
      <trkpt lat="47.79152" lon="-3.41784">
        <ele>42</ele>
        <time>2019-07-17T14:09:16Z</time>
      </trkpt>
      <trkpt lat="47.79154" lon="-3.41776">
        <ele>42</ele>
        <time>2019-07-17T14:09:17Z</time>
      </trkpt>
      <trkpt lat="47.79156" lon="-3.41767">
        <ele>42</ele>
        <time>2019-07-17T14:09:18Z</time>
      </trkpt>
      <trkpt lat="47.79157" lon="-3.41758">
        <ele>43</ele>
        <time>2019-07-17T14:09:19Z</time>
      </trkpt>
      <trkpt lat="47.79158" lon="-3.41749">
        <ele>43</ele>
        <time>2019-07-17T14:09:20Z</time>
      </trkpt>
      <trkpt lat="47.7916" lon="-3.4174">
        <ele>43</ele>
        <time>2019-07-17T14:09:21Z</time>
      </trkpt>
      <trkpt lat="47.79161" lon="-3.41732">
        <ele>43</ele>
        <time>2019-07-17T14:09:22Z</time>
      </trkpt>
      <trkpt lat="47.79162" lon="-3.41723">
        <ele>43</ele>
        <time>2019-07-17T14:09:23Z</time>
      </trkpt>
      <trkpt lat="47.79163" lon="-3.41714">
        <ele>43</ele>
        <time>2019-07-17T14:09:24Z</time>
      </trkpt>
      <trkpt lat="47.79164" lon="-3.41705">
        <ele>44</ele>
        <time>2019-07-17T14:09:25Z</time>
      </trkpt>
      <trkpt lat="47.79165" lon="-3.41696">
        <ele>44</ele>
        <time>2019-07-17T14:09:26Z</time>
      </trkpt>
      <trkpt lat="47.79166" lon="-3.41688">
        <ele>44</ele>
        <time>2019-07-17T14:09:27Z</time>
      </trkpt>
      <trkpt lat="47.79167" lon="-3.4168">
        <ele>44</ele>
        <time>2019-07-17T14:09:28Z</time>
      </trkpt>
      <trkpt lat="47.79168" lon="-3.41672">
        <ele>44</ele>
        <time>2019-07-17T14:09:29Z</time>
      </trkpt>
      <trkpt lat="47.79169" lon="-3.41663">
        <ele>45</ele>
        <time>2019-07-17T14:09:30Z</time>
      </trkpt>
      <trkpt lat="47.79171" lon="-3.41655">
        <ele>45</ele>
        <time>2019-07-17T14:09:31Z</time>
      </trkpt>
      <trkpt lat="47.79171" lon="-3.41646">
        <ele>45</ele>
        <time>2019-07-17T14:09:32Z</time>
      </trkpt>
      <trkpt lat="47.79173" lon="-3.41638">
        <ele>45</ele>
        <time>2019-07-17T14:09:33Z</time>
      </trkpt>
      <trkpt lat="47.79174" lon="-3.41629">
        <ele>45</ele>
        <time>2019-07-17T14:09:34Z</time>
      </trkpt>
      <trkpt lat="47.79175" lon="-3.41621">
        <ele>46</ele>
        <time>2019-07-17T14:09:35Z</time>
      </trkpt>
      <trkpt lat="47.79176" lon="-3.41613">
        <ele>46</ele>
        <time>2019-07-17T14:09:36Z</time>
      </trkpt>
      <trkpt lat="47.79177" lon="-3.41604">
        <ele>46</ele>
        <time>2019-07-17T14:09:37Z</time>
      </trkpt>
      <trkpt lat="47.79178" lon="-3.41597">
        <ele>46</ele>
        <time>2019-07-17T14:09:38Z</time>
      </trkpt>
      <trkpt lat="47.79179" lon="-3.41589">
        <ele>47</ele>
        <time>2019-07-17T14:09:39Z</time>
      </trkpt>
      <trkpt lat="47.7918" lon="-3.41582">
        <ele>47</ele>
        <time>2019-07-17T14:09:40Z</time>
      </trkpt>
      <trkpt lat="47.7918" lon="-3.41574">
        <ele>47</ele>
        <time>2019-07-17T14:09:41Z</time>
      </trkpt>
      <trkpt lat="47.79181" lon="-3.41567">
        <ele>47</ele>
        <time>2019-07-17T14:09:42Z</time>
      </trkpt>
      <trkpt lat="47.79181" lon="-3.41561">
        <ele>48</ele>
        <time>2019-07-17T14:09:43Z</time>
      </trkpt>
      <trkpt lat="47.79181" lon="-3.41554">
        <ele>48</ele>
        <time>2019-07-17T14:09:44Z</time>
      </trkpt>
      <trkpt lat="47.7918" lon="-3.41548">
        <ele>48</ele>
        <time>2019-07-17T14:09:45Z</time>
      </trkpt>
      <trkpt lat="47.79179" lon="-3.41542">
        <ele>48</ele>
        <time>2019-07-17T14:09:46Z</time>
      </trkpt>
      <trkpt lat="47.79177" lon="-3.41537">
        <ele>48</ele>
        <time>2019-07-17T14:09:47Z</time>
      </trkpt>
      <trkpt lat="47.79175" lon="-3.41535">
        <ele>48</ele>
        <time>2019-07-17T14:09:48Z</time>
      </trkpt>
      <trkpt lat="47.79174" lon="-3.41534">
        <ele>48</ele>
        <time>2019-07-17T14:09:49Z</time>
      </trkpt>
      <trkpt lat="47.79174" lon="-3.41534">
        <ele>48</ele>
        <time>2019-07-17T14:09:50Z</time>
      </trkpt>
      <trkpt lat="47.79174" lon="-3.41533">
        <ele>48</ele>
        <time>2019-07-17T14:09:51Z</time>
      </trkpt>
      <trkpt lat="47.79175" lon="-3.41525">
        <ele>48</ele>
        <time>2019-07-17T14:09:52Z</time>
      </trkpt>
      <trkpt lat="47.79174" lon="-3.41518">
        <ele>48</ele>
        <time>2019-07-17T14:09:53Z</time>
      </trkpt>
      <trkpt lat="47.79174" lon="-3.41518">
        <ele>48</ele>
        <time>2019-07-17T14:09:54Z</time>
      </trkpt>
      <trkpt lat="47.79173" lon="-3.41514">
        <ele>48</ele>
        <time>2019-07-17T14:09:55Z</time>
      </trkpt>
      <trkpt lat="47.79171" lon="-3.41509">
        <ele>49</ele>
        <time>2019-07-17T14:09:56Z</time>
      </trkpt>
      <trkpt lat="47.7917" lon="-3.41505">
        <ele>49</ele>
        <time>2019-07-17T14:09:57Z</time>
      </trkpt>
      <trkpt lat="47.7917" lon="-3.415">
        <ele>49</ele>
        <time>2019-07-17T14:09:58Z</time>
      </trkpt>
      <trkpt lat="47.79172" lon="-3.41495">
        <ele>49</ele>
        <time>2019-07-17T14:09:59Z</time>
      </trkpt>
      <trkpt lat="47.79175" lon="-3.41492">
        <ele>49</ele>
        <time>2019-07-17T14:10:00Z</time>
      </trkpt>
      <trkpt lat="47.79179" lon="-3.41489">
        <ele>49</ele>
        <time>2019-07-17T14:10:01Z</time>
      </trkpt>
      <trkpt lat="47.79183" lon="-3.41487">
        <ele>49</ele>
        <time>2019-07-17T14:10:02Z</time>
      </trkpt>
      <trkpt lat="47.79188" lon="-3.41485">
        <ele>49</ele>
        <time>2019-07-17T14:10:03Z</time>
      </trkpt>
      <trkpt lat="47.79192" lon="-3.41482">
        <ele>49</ele>
        <time>2019-07-17T14:10:04Z</time>
      </trkpt>
      <trkpt lat="47.79197" lon="-3.41479">
        <ele>49</ele>
        <time>2019-07-17T14:10:05Z</time>
      </trkpt>
      <trkpt lat="47.79207" lon="-3.41473">
        <ele>50</ele>
        <time>2019-07-17T14:10:06Z</time>
      </trkpt>
      <trkpt lat="47.79213" lon="-3.4147">
        <ele>50</ele>
        <time>2019-07-17T14:10:07Z</time>
      </trkpt>
      <trkpt lat="47.79219" lon="-3.41466">
        <ele>49</ele>
        <time>2019-07-17T14:10:08Z</time>
      </trkpt>
      <trkpt lat="47.79224" lon="-3.41463">
        <ele>49</ele>
        <time>2019-07-17T14:10:09Z</time>
      </trkpt>
      <trkpt lat="47.7923" lon="-3.41459">
        <ele>49</ele>
        <time>2019-07-17T14:10:10Z</time>
      </trkpt>
      <trkpt lat="47.7923" lon="-3.41459">
        <ele>49</ele>
        <time>2019-07-17T14:10:11Z</time>
      </trkpt>
      <trkpt lat="47.79241" lon="-3.41451">
        <ele>49</ele>
        <time>2019-07-17T14:10:12Z</time>
      </trkpt>
      <trkpt lat="47.79241" lon="-3.41451">
        <ele>49</ele>
        <time>2019-07-17T14:10:13Z</time>
      </trkpt>
      <trkpt lat="47.79254" lon="-3.41442">
        <ele>49</ele>
        <time>2019-07-17T14:10:14Z</time>
      </trkpt>
      <trkpt lat="47.7926" lon="-3.41439">
        <ele>49</ele>
        <time>2019-07-17T14:10:15Z</time>
      </trkpt>
      <trkpt lat="47.79267" lon="-3.41435">
        <ele>49</ele>
        <time>2019-07-17T14:10:16Z</time>
      </trkpt>
      <trkpt lat="47.79267" lon="-3.41435">
        <ele>49</ele>
        <time>2019-07-17T14:10:17Z</time>
      </trkpt>
      <trkpt lat="47.79273" lon="-3.4143">
        <ele>49</ele>
        <time>2019-07-17T14:10:18Z</time>
      </trkpt>
      <trkpt lat="47.7928" lon="-3.41426">
        <ele>48</ele>
        <time>2019-07-17T14:10:19Z</time>
      </trkpt>
      <trkpt lat="47.79286" lon="-3.41421">
        <ele>48</ele>
        <time>2019-07-17T14:10:20Z</time>
      </trkpt>
      <trkpt lat="47.79292" lon="-3.41404">
        <ele>48</ele>
        <time>2019-07-17T14:10:21Z</time>
      </trkpt>
      <trkpt lat="47.79292" lon="-3.41404">
        <ele>48</ele>
        <time>2019-07-17T14:10:22Z</time>
      </trkpt>
      <trkpt lat="47.79293" lon="-3.41387">
        <ele>47</ele>
        <time>2019-07-17T14:10:23Z</time>
      </trkpt>
      <trkpt lat="47.79293" lon="-3.41387">
        <ele>47</ele>
        <time>2019-07-17T14:10:24Z</time>
      </trkpt>
      <trkpt lat="47.79294" lon="-3.41371">
        <ele>47</ele>
        <time>2019-07-17T14:10:25Z</time>
      </trkpt>
      <trkpt lat="47.79294" lon="-3.41363">
        <ele>47</ele>
        <time>2019-07-17T14:10:26Z</time>
      </trkpt>
      <trkpt lat="47.79294" lon="-3.41363">
        <ele>47</ele>
        <time>2019-07-17T14:10:27Z</time>
      </trkpt>
      <trkpt lat="47.79294" lon="-3.41355">
        <ele>47</ele>
        <time>2019-07-17T14:10:28Z</time>
      </trkpt>
      <trkpt lat="47.79294" lon="-3.4134">
        <ele>47</ele>
        <time>2019-07-17T14:10:29Z</time>
      </trkpt>
      <trkpt lat="47.79294" lon="-3.4134">
        <ele>47</ele>
        <time>2019-07-17T14:10:30Z</time>
      </trkpt>
      <trkpt lat="47.79295" lon="-3.41332">
        <ele>47</ele>
        <time>2019-07-17T14:10:31Z</time>
      </trkpt>
      <trkpt lat="47.79298" lon="-3.41326">
        <ele>47</ele>
        <time>2019-07-17T14:10:32Z</time>
      </trkpt>
      <trkpt lat="47.79302" lon="-3.41322">
        <ele>47</ele>
        <time>2019-07-17T14:10:33Z</time>
      </trkpt>
      <trkpt lat="47.79308" lon="-3.41319">
        <ele>47</ele>
        <time>2019-07-17T14:10:34Z</time>
      </trkpt>
      <trkpt lat="47.79313" lon="-3.41316">
        <ele>46</ele>
        <time>2019-07-17T14:10:35Z</time>
      </trkpt>
      <trkpt lat="47.79319" lon="-3.41313">
        <ele>46</ele>
        <time>2019-07-17T14:10:36Z</time>
      </trkpt>
      <trkpt lat="47.79325" lon="-3.4131">
        <ele>46</ele>
        <time>2019-07-17T14:10:37Z</time>
      </trkpt>
      <trkpt lat="47.79331" lon="-3.41306">
        <ele>46</ele>
        <time>2019-07-17T14:10:38Z</time>
      </trkpt>
      <trkpt lat="47.79338" lon="-3.41303">
        <ele>46</ele>
        <time>2019-07-17T14:10:39Z</time>
      </trkpt>
      <trkpt lat="47.79344" lon="-3.41299">
        <ele>45</ele>
        <time>2019-07-17T14:10:40Z</time>
      </trkpt>
      <trkpt lat="47.7935" lon="-3.41293">
        <ele>45</ele>
        <time>2019-07-17T14:10:41Z</time>
      </trkpt>
      <trkpt lat="47.79354" lon="-3.41285">
        <ele>45</ele>
        <time>2019-07-17T14:10:42Z</time>
      </trkpt>
      <trkpt lat="47.79357" lon="-3.41276">
        <ele>45</ele>
        <time>2019-07-17T14:10:43Z</time>
      </trkpt>
      <trkpt lat="47.79358" lon="-3.41266">
        <ele>45</ele>
        <time>2019-07-17T14:10:44Z</time>
      </trkpt>
      <trkpt lat="47.79358" lon="-3.41256">
        <ele>44</ele>
        <time>2019-07-17T14:10:45Z</time>
      </trkpt>
      <trkpt lat="47.79358" lon="-3.41247">
        <ele>44</ele>
        <time>2019-07-17T14:10:46Z</time>
      </trkpt>
      <trkpt lat="47.79361" lon="-3.41234">
        <ele>44</ele>
        <time>2019-07-17T14:10:47Z</time>
      </trkpt>
      <trkpt lat="47.79361" lon="-3.41234">
        <ele>44</ele>
        <time>2019-07-17T14:10:48Z</time>
      </trkpt>
      <trkpt lat="47.79365" lon="-3.41231">
        <ele>43</ele>
        <time>2019-07-17T14:10:49Z</time>
      </trkpt>
      <trkpt lat="47.79369" lon="-3.41231">
        <ele>43</ele>
        <time>2019-07-17T14:10:50Z</time>
      </trkpt>
      <trkpt lat="47.79374" lon="-3.41232">
        <ele>43</ele>
        <time>2019-07-17T14:10:51Z</time>
      </trkpt>
      <trkpt lat="47.7938" lon="-3.41233">
        <ele>43</ele>
        <time>2019-07-17T14:10:52Z</time>
      </trkpt>
      <trkpt lat="47.79385" lon="-3.41233">
        <ele>42</ele>
        <time>2019-07-17T14:10:53Z</time>
      </trkpt>
      <trkpt lat="47.79392" lon="-3.41232">
        <ele>42</ele>
        <time>2019-07-17T14:10:54Z</time>
      </trkpt>
      <trkpt lat="47.79398" lon="-3.41232">
        <ele>42</ele>
        <time>2019-07-17T14:10:55Z</time>
      </trkpt>
      <trkpt lat="47.79404" lon="-3.41233">
        <ele>41</ele>
        <time>2019-07-17T14:10:56Z</time>
      </trkpt>
      <trkpt lat="47.79411" lon="-3.41233">
        <ele>41</ele>
        <time>2019-07-17T14:10:57Z</time>
      </trkpt>
      <trkpt lat="47.79416" lon="-3.41233">
        <ele>40</ele>
        <time>2019-07-17T14:10:58Z</time>
      </trkpt>
      <trkpt lat="47.79426" lon="-3.41233">
        <ele>40</ele>
        <time>2019-07-17T14:10:59Z</time>
      </trkpt>
      <trkpt lat="47.79426" lon="-3.41233">
        <ele>40</ele>
        <time>2019-07-17T14:11:00Z</time>
      </trkpt>
      <trkpt lat="47.7943" lon="-3.41233">
        <ele>40</ele>
        <time>2019-07-17T14:11:01Z</time>
      </trkpt>
      <trkpt lat="47.79434" lon="-3.4123">
        <ele>39</ele>
        <time>2019-07-17T14:11:02Z</time>
      </trkpt>
      <trkpt lat="47.79436" lon="-3.41225">
        <ele>39</ele>
        <time>2019-07-17T14:11:03Z</time>
      </trkpt>
      <trkpt lat="47.79436" lon="-3.41218">
        <ele>39</ele>
        <time>2019-07-17T14:11:04Z</time>
      </trkpt>
      <trkpt lat="47.79437" lon="-3.41211">
        <ele>39</ele>
        <time>2019-07-17T14:11:05Z</time>
      </trkpt>
      <trkpt lat="47.79436" lon="-3.41204">
        <ele>39</ele>
        <time>2019-07-17T14:11:06Z</time>
      </trkpt>
      <trkpt lat="47.79436" lon="-3.4119">
        <ele>39</ele>
        <time>2019-07-17T14:11:07Z</time>
      </trkpt>
      <trkpt lat="47.79436" lon="-3.4119">
        <ele>39</ele>
        <time>2019-07-17T14:11:08Z</time>
      </trkpt>
      <trkpt lat="47.79437" lon="-3.41183">
        <ele>39</ele>
        <time>2019-07-17T14:11:09Z</time>
      </trkpt>
      <trkpt lat="47.79437" lon="-3.41169">
        <ele>39</ele>
        <time>2019-07-17T14:11:10Z</time>
      </trkpt>
      <trkpt lat="47.79437" lon="-3.41169">
        <ele>39</ele>
        <time>2019-07-17T14:11:11Z</time>
      </trkpt>
      <trkpt lat="47.79436" lon="-3.41161">
        <ele>39</ele>
        <time>2019-07-17T14:11:12Z</time>
      </trkpt>
      <trkpt lat="47.79435" lon="-3.41154">
        <ele>40</ele>
        <time>2019-07-17T14:11:13Z</time>
      </trkpt>
      <trkpt lat="47.79432" lon="-3.41148">
        <ele>40</ele>
        <time>2019-07-17T14:11:14Z</time>
      </trkpt>
      <trkpt lat="47.79429" lon="-3.41143">
        <ele>40</ele>
        <time>2019-07-17T14:11:15Z</time>
      </trkpt>
      <trkpt lat="47.79424" lon="-3.41139">
        <ele>40</ele>
        <time>2019-07-17T14:11:16Z</time>
      </trkpt>
      <trkpt lat="47.7942" lon="-3.41136">
        <ele>40</ele>
        <time>2019-07-17T14:11:17Z</time>
      </trkpt>
      <trkpt lat="47.79415" lon="-3.41133">
        <ele>40</ele>
        <time>2019-07-17T14:11:18Z</time>
      </trkpt>
      <trkpt lat="47.7941" lon="-3.4113">
        <ele>40</ele>
        <time>2019-07-17T14:11:19Z</time>
      </trkpt>
      <trkpt lat="47.79405" lon="-3.41127">
        <ele>40</ele>
        <time>2019-07-17T14:11:20Z</time>
      </trkpt>
      <trkpt lat="47.794" lon="-3.41125">
        <ele>40</ele>
        <time>2019-07-17T14:11:21Z</time>
      </trkpt>
      <trkpt lat="47.79394" lon="-3.41122">
        <ele>40</ele>
        <time>2019-07-17T14:11:22Z</time>
      </trkpt>
      <trkpt lat="47.79389" lon="-3.4112">
        <ele>40</ele>
        <time>2019-07-17T14:11:23Z</time>
      </trkpt>
      <trkpt lat="47.79384" lon="-3.41118">
        <ele>41</ele>
        <time>2019-07-17T14:11:24Z</time>
      </trkpt>
      <trkpt lat="47.79379" lon="-3.41115">
        <ele>41</ele>
        <time>2019-07-17T14:11:25Z</time>
      </trkpt>
      <trkpt lat="47.79374" lon="-3.41113">
        <ele>41</ele>
        <time>2019-07-17T14:11:26Z</time>
      </trkpt>
      <trkpt lat="47.79369" lon="-3.4111">
        <ele>41</ele>
        <time>2019-07-17T14:11:27Z</time>
      </trkpt>
      <trkpt lat="47.79364" lon="-3.41108">
        <ele>41</ele>
        <time>2019-07-17T14:11:28Z</time>
      </trkpt>
      <trkpt lat="47.7936" lon="-3.41106">
        <ele>41</ele>
        <time>2019-07-17T14:11:29Z</time>
      </trkpt>
      <trkpt lat="47.79355" lon="-3.41104">
        <ele>42</ele>
        <time>2019-07-17T14:11:30Z</time>
      </trkpt>
      <trkpt lat="47.7935" lon="-3.41102">
        <ele>42</ele>
        <time>2019-07-17T14:11:31Z</time>
      </trkpt>
      <trkpt lat="47.79345" lon="-3.41099">
        <ele>42</ele>
        <time>2019-07-17T14:11:32Z</time>
      </trkpt>
      <trkpt lat="47.79341" lon="-3.41097">
        <ele>42</ele>
        <time>2019-07-17T14:11:33Z</time>
      </trkpt>
      <trkpt lat="47.79336" lon="-3.41095">
        <ele>42</ele>
        <time>2019-07-17T14:11:34Z</time>
      </trkpt>
      <trkpt lat="47.79331" lon="-3.41093">
        <ele>43</ele>
        <time>2019-07-17T14:11:35Z</time>
      </trkpt>
      <trkpt lat="47.79327" lon="-3.4109">
        <ele>43</ele>
        <time>2019-07-17T14:11:36Z</time>
      </trkpt>
      <trkpt lat="47.79322" lon="-3.41088">
        <ele>43</ele>
        <time>2019-07-17T14:11:37Z</time>
      </trkpt>
      <trkpt lat="47.79317" lon="-3.41087">
        <ele>43</ele>
        <time>2019-07-17T14:11:38Z</time>
      </trkpt>
      <trkpt lat="47.79312" lon="-3.41085">
        <ele>44</ele>
        <time>2019-07-17T14:11:39Z</time>
      </trkpt>
      <trkpt lat="47.79308" lon="-3.41083">
        <ele>44</ele>
        <time>2019-07-17T14:11:40Z</time>
      </trkpt>
      <trkpt lat="47.79303" lon="-3.41081">
        <ele>44</ele>
        <time>2019-07-17T14:11:41Z</time>
      </trkpt>
      <trkpt lat="47.79298" lon="-3.41079">
        <ele>44</ele>
        <time>2019-07-17T14:11:42Z</time>
      </trkpt>
      <trkpt lat="47.79293" lon="-3.41077">
        <ele>45</ele>
        <time>2019-07-17T14:11:43Z</time>
      </trkpt>
      <trkpt lat="47.79288" lon="-3.41075">
        <ele>45</ele>
        <time>2019-07-17T14:11:44Z</time>
      </trkpt>
      <trkpt lat="47.79283" lon="-3.41072">
        <ele>45</ele>
        <time>2019-07-17T14:11:45Z</time>
      </trkpt>
      <trkpt lat="47.79278" lon="-3.4107">
        <ele>45</ele>
        <time>2019-07-17T14:11:46Z</time>
      </trkpt>
      <trkpt lat="47.79273" lon="-3.41068">
        <ele>45</ele>
        <time>2019-07-17T14:11:47Z</time>
      </trkpt>
      <trkpt lat="47.79268" lon="-3.41066">
        <ele>45</ele>
        <time>2019-07-17T14:11:48Z</time>
      </trkpt>
      <trkpt lat="47.79262" lon="-3.41063">
        <ele>45</ele>
        <time>2019-07-17T14:11:49Z</time>
      </trkpt>
      <trkpt lat="47.79256" lon="-3.41061">
        <ele>45</ele>
        <time>2019-07-17T14:11:50Z</time>
      </trkpt>
      <trkpt lat="47.79251" lon="-3.41058">
        <ele>45</ele>
        <time>2019-07-17T14:11:51Z</time>
      </trkpt>
      <trkpt lat="47.79245" lon="-3.41055">
        <ele>45</ele>
        <time>2019-07-17T14:11:52Z</time>
      </trkpt>
      <trkpt lat="47.79239" lon="-3.41052">
        <ele>45</ele>
        <time>2019-07-17T14:11:53Z</time>
      </trkpt>
      <trkpt lat="47.79233" lon="-3.4105">
        <ele>45</ele>
        <time>2019-07-17T14:11:54Z</time>
      </trkpt>
      <trkpt lat="47.79227" lon="-3.41047">
        <ele>45</ele>
        <time>2019-07-17T14:11:55Z</time>
      </trkpt>
      <trkpt lat="47.79221" lon="-3.41045">
        <ele>45</ele>
        <time>2019-07-17T14:11:56Z</time>
      </trkpt>
      <trkpt lat="47.79215" lon="-3.41043">
        <ele>44</ele>
        <time>2019-07-17T14:11:57Z</time>
      </trkpt>
      <trkpt lat="47.79209" lon="-3.41042">
        <ele>45</ele>
        <time>2019-07-17T14:11:58Z</time>
      </trkpt>
      <trkpt lat="47.79202" lon="-3.41042">
        <ele>45</ele>
        <time>2019-07-17T14:11:59Z</time>
      </trkpt>
      <trkpt lat="47.79196" lon="-3.41042">
        <ele>45</ele>
        <time>2019-07-17T14:12:00Z</time>
      </trkpt>
      <trkpt lat="47.7919" lon="-3.4104">
        <ele>45</ele>
        <time>2019-07-17T14:12:01Z</time>
      </trkpt>
      <trkpt lat="47.79184" lon="-3.41038">
        <ele>45</ele>
        <time>2019-07-17T14:12:02Z</time>
      </trkpt>
      <trkpt lat="47.79172" lon="-3.41034">
        <ele>45</ele>
        <time>2019-07-17T14:12:03Z</time>
      </trkpt>
      <trkpt lat="47.79172" lon="-3.41034">
        <ele>45</ele>
        <time>2019-07-17T14:12:04Z</time>
      </trkpt>
      <trkpt lat="47.79166" lon="-3.41036">
        <ele>45</ele>
        <time>2019-07-17T14:12:05Z</time>
      </trkpt>
      <trkpt lat="47.79157" lon="-3.41045">
        <ele>45</ele>
        <time>2019-07-17T14:12:06Z</time>
      </trkpt>
      <trkpt lat="47.79157" lon="-3.41045">
        <ele>45</ele>
        <time>2019-07-17T14:12:07Z</time>
      </trkpt>
      <trkpt lat="47.79155" lon="-3.4105">
        <ele>45</ele>
        <time>2019-07-17T14:12:08Z</time>
      </trkpt>
      <trkpt lat="47.79153" lon="-3.41054">
        <ele>45</ele>
        <time>2019-07-17T14:12:09Z</time>
      </trkpt>
      <trkpt lat="47.7915" lon="-3.41058">
        <ele>45</ele>
        <time>2019-07-17T14:12:10Z</time>
      </trkpt>
      <trkpt lat="47.79147" lon="-3.4106">
        <ele>45</ele>
        <time>2019-07-17T14:12:11Z</time>
      </trkpt>
      <trkpt lat="47.79143" lon="-3.41061">
        <ele>45</ele>
        <time>2019-07-17T14:12:12Z</time>
      </trkpt>
      <trkpt lat="47.7914" lon="-3.4106">
        <ele>45</ele>
        <time>2019-07-17T14:12:13Z</time>
      </trkpt>
      <trkpt lat="47.79137" lon="-3.41057">
        <ele>45</ele>
        <time>2019-07-17T14:12:14Z</time>
      </trkpt>
      <trkpt lat="47.79135" lon="-3.41054">
        <ele>45</ele>
        <time>2019-07-17T14:12:15Z</time>
      </trkpt>
      <trkpt lat="47.79134" lon="-3.4105">
        <ele>45</ele>
        <time>2019-07-17T14:12:16Z</time>
      </trkpt>
      <trkpt lat="47.79133" lon="-3.41048">
        <ele>45</ele>
        <time>2019-07-17T14:12:17Z</time>
      </trkpt>
      <trkpt lat="47.79132" lon="-3.41044">
        <ele>45</ele>
        <time>2019-07-17T14:12:18Z</time>
      </trkpt>
      <trkpt lat="47.79131" lon="-3.4104">
        <ele>45</ele>
        <time>2019-07-17T14:12:19Z</time>
      </trkpt>
      <trkpt lat="47.79129" lon="-3.41036">
        <ele>45</ele>
        <time>2019-07-17T14:12:20Z</time>
      </trkpt>
      <trkpt lat="47.79127" lon="-3.41031">
        <ele>44</ele>
        <time>2019-07-17T14:12:21Z</time>
      </trkpt>
      <trkpt lat="47.79123" lon="-3.41027">
        <ele>44</ele>
        <time>2019-07-17T14:12:22Z</time>
      </trkpt>
      <trkpt lat="47.79119" lon="-3.41024">
        <ele>44</ele>
        <time>2019-07-17T14:12:23Z</time>
      </trkpt>
      <trkpt lat="47.79115" lon="-3.41022">
        <ele>44</ele>
        <time>2019-07-17T14:12:24Z</time>
      </trkpt>
      <trkpt lat="47.7911" lon="-3.4102">
        <ele>44</ele>
        <time>2019-07-17T14:12:25Z</time>
      </trkpt>
      <trkpt lat="47.79106" lon="-3.41018">
        <ele>44</ele>
        <time>2019-07-17T14:12:26Z</time>
      </trkpt>
      <trkpt lat="47.79101" lon="-3.41016">
        <ele>44</ele>
        <time>2019-07-17T14:12:27Z</time>
      </trkpt>
      <trkpt lat="47.79096" lon="-3.41014">
        <ele>44</ele>
        <time>2019-07-17T14:12:28Z</time>
      </trkpt>
      <trkpt lat="47.79092" lon="-3.41012">
        <ele>44</ele>
        <time>2019-07-17T14:12:29Z</time>
      </trkpt>
      <trkpt lat="47.79087" lon="-3.41009">
        <ele>44</ele>
        <time>2019-07-17T14:12:30Z</time>
      </trkpt>
      <trkpt lat="47.79082" lon="-3.41007">
        <ele>44</ele>
        <time>2019-07-17T14:12:31Z</time>
      </trkpt>
      <trkpt lat="47.79076" lon="-3.41005">
        <ele>43</ele>
        <time>2019-07-17T14:12:32Z</time>
      </trkpt>
      <trkpt lat="47.79071" lon="-3.41002">
        <ele>43</ele>
        <time>2019-07-17T14:12:33Z</time>
      </trkpt>
      <trkpt lat="47.79066" lon="-3.41">
        <ele>43</ele>
        <time>2019-07-17T14:12:34Z</time>
      </trkpt>
      <trkpt lat="47.79061" lon="-3.40997">
        <ele>43</ele>
        <time>2019-07-17T14:12:35Z</time>
      </trkpt>
      <trkpt lat="47.79056" lon="-3.40995">
        <ele>43</ele>
        <time>2019-07-17T14:12:36Z</time>
      </trkpt>
      <trkpt lat="47.79051" lon="-3.40993">
        <ele>43</ele>
        <time>2019-07-17T14:12:37Z</time>
      </trkpt>
      <trkpt lat="47.79047" lon="-3.4099">
        <ele>43</ele>
        <time>2019-07-17T14:12:38Z</time>
      </trkpt>
      <trkpt lat="47.79042" lon="-3.40988">
        <ele>42</ele>
        <time>2019-07-17T14:12:39Z</time>
      </trkpt>
      <trkpt lat="47.79037" lon="-3.40986">
        <ele>42</ele>
        <time>2019-07-17T14:12:40Z</time>
      </trkpt>
      <trkpt lat="47.79033" lon="-3.40983">
        <ele>42</ele>
        <time>2019-07-17T14:12:41Z</time>
      </trkpt>
      <trkpt lat="47.79029" lon="-3.40981">
        <ele>42</ele>
        <time>2019-07-17T14:12:42Z</time>
      </trkpt>
      <trkpt lat="47.79024" lon="-3.40979">
        <ele>42</ele>
        <time>2019-07-17T14:12:43Z</time>
      </trkpt>
      <trkpt lat="47.7902" lon="-3.40976">
        <ele>42</ele>
        <time>2019-07-17T14:12:44Z</time>
      </trkpt>
      <trkpt lat="47.79017" lon="-3.40972">
        <ele>42</ele>
        <time>2019-07-17T14:12:45Z</time>
      </trkpt>
      <trkpt lat="47.79014" lon="-3.40967">
        <ele>42</ele>
        <time>2019-07-17T14:12:46Z</time>
      </trkpt>
      <trkpt lat="47.79011" lon="-3.40962">
        <ele>42</ele>
        <time>2019-07-17T14:12:47Z</time>
      </trkpt>
      <trkpt lat="47.79009" lon="-3.40956">
        <ele>42</ele>
        <time>2019-07-17T14:12:48Z</time>
      </trkpt>
      <trkpt lat="47.79006" lon="-3.40951">
        <ele>42</ele>
        <time>2019-07-17T14:12:49Z</time>
      </trkpt>
      <trkpt lat="47.79002" lon="-3.40947">
        <ele>42</ele>
        <time>2019-07-17T14:12:50Z</time>
      </trkpt>
      <trkpt lat="47.78998" lon="-3.40943">
        <ele>42</ele>
        <time>2019-07-17T14:12:51Z</time>
      </trkpt>
      <trkpt lat="47.78993" lon="-3.4094">
        <ele>42</ele>
        <time>2019-07-17T14:12:52Z</time>
      </trkpt>
      <trkpt lat="47.78988" lon="-3.40937">
        <ele>42</ele>
        <time>2019-07-17T14:12:53Z</time>
      </trkpt>
      <trkpt lat="47.78983" lon="-3.40934">
        <ele>41</ele>
        <time>2019-07-17T14:12:54Z</time>
      </trkpt>
      <trkpt lat="47.78977" lon="-3.40931">
        <ele>41</ele>
        <time>2019-07-17T14:12:55Z</time>
      </trkpt>
      <trkpt lat="47.78971" lon="-3.40928">
        <ele>41</ele>
        <time>2019-07-17T14:12:56Z</time>
      </trkpt>
      <trkpt lat="47.78966" lon="-3.40924">
        <ele>40</ele>
        <time>2019-07-17T14:12:57Z</time>
      </trkpt>
      <trkpt lat="47.78961" lon="-3.40918">
        <ele>40</ele>
        <time>2019-07-17T14:12:58Z</time>
      </trkpt>
      <trkpt lat="47.78957" lon="-3.40913">
        <ele>39</ele>
        <time>2019-07-17T14:12:59Z</time>
      </trkpt>
      <trkpt lat="47.78953" lon="-3.40909">
        <ele>39</ele>
        <time>2019-07-17T14:13:00Z</time>
      </trkpt>
      <trkpt lat="47.7895" lon="-3.40906">
        <ele>38</ele>
        <time>2019-07-17T14:13:01Z</time>
      </trkpt>
      <trkpt lat="47.78947" lon="-3.40904">
        <ele>38</ele>
        <time>2019-07-17T14:13:02Z</time>
      </trkpt>
      <trkpt lat="47.78943" lon="-3.40902">
        <ele>38</ele>
        <time>2019-07-17T14:13:03Z</time>
      </trkpt>
      <trkpt lat="47.78939" lon="-3.40899">
        <ele>38</ele>
        <time>2019-07-17T14:13:04Z</time>
      </trkpt>
      <trkpt lat="47.78935" lon="-3.40895">
        <ele>37</ele>
        <time>2019-07-17T14:13:05Z</time>
      </trkpt>
      <trkpt lat="47.78932" lon="-3.4089">
        <ele>37</ele>
        <time>2019-07-17T14:13:06Z</time>
      </trkpt>
      <trkpt lat="47.7893" lon="-3.40885">
        <ele>37</ele>
        <time>2019-07-17T14:13:07Z</time>
      </trkpt>
      <trkpt lat="47.78928" lon="-3.40882">
        <ele>37</ele>
        <time>2019-07-17T14:13:08Z</time>
      </trkpt>
      <trkpt lat="47.78928" lon="-3.40879">
        <ele>37</ele>
        <time>2019-07-17T14:13:09Z</time>
      </trkpt>
      <trkpt lat="47.78927" lon="-3.40875">
        <ele>37</ele>
        <time>2019-07-17T14:13:10Z</time>
      </trkpt>
      <trkpt lat="47.78925" lon="-3.40872">
        <ele>37</ele>
        <time>2019-07-17T14:13:11Z</time>
      </trkpt>
      <trkpt lat="47.78922" lon="-3.40868">
        <ele>37</ele>
        <time>2019-07-17T14:13:12Z</time>
      </trkpt>
      <trkpt lat="47.78918" lon="-3.40864">
        <ele>37</ele>
        <time>2019-07-17T14:13:13Z</time>
      </trkpt>
      <trkpt lat="47.78913" lon="-3.4086">
        <ele>37</ele>
        <time>2019-07-17T14:13:14Z</time>
      </trkpt>
      <trkpt lat="47.78907" lon="-3.40857">
        <ele>37</ele>
        <time>2019-07-17T14:13:15Z</time>
      </trkpt>
      <trkpt lat="47.78901" lon="-3.40855">
        <ele>37</ele>
        <time>2019-07-17T14:13:16Z</time>
      </trkpt>
      <trkpt lat="47.78894" lon="-3.40854">
        <ele>37</ele>
        <time>2019-07-17T14:13:17Z</time>
      </trkpt>
      <trkpt lat="47.78888" lon="-3.40852">
        <ele>37</ele>
        <time>2019-07-17T14:13:18Z</time>
      </trkpt>
      <trkpt lat="47.78881" lon="-3.40849">
        <ele>37</ele>
        <time>2019-07-17T14:13:19Z</time>
      </trkpt>
      <trkpt lat="47.78875" lon="-3.40848">
        <ele>37</ele>
        <time>2019-07-17T14:13:20Z</time>
      </trkpt>
      <trkpt lat="47.78869" lon="-3.40845">
        <ele>37</ele>
        <time>2019-07-17T14:13:21Z</time>
      </trkpt>
      <trkpt lat="47.78863" lon="-3.40843">
        <ele>37</ele>
        <time>2019-07-17T14:13:22Z</time>
      </trkpt>
      <trkpt lat="47.78857" lon="-3.40842">
        <ele>37</ele>
        <time>2019-07-17T14:13:23Z</time>
      </trkpt>
      <trkpt lat="47.7885" lon="-3.40841">
        <ele>37</ele>
        <time>2019-07-17T14:13:24Z</time>
      </trkpt>
      <trkpt lat="47.78842" lon="-3.4084">
        <ele>37</ele>
        <time>2019-07-17T14:13:25Z</time>
      </trkpt>
      <trkpt lat="47.78835" lon="-3.40838">
        <ele>37</ele>
        <time>2019-07-17T14:13:26Z</time>
      </trkpt>
      <trkpt lat="47.78829" lon="-3.40835">
        <ele>37</ele>
        <time>2019-07-17T14:13:27Z</time>
      </trkpt>
      <trkpt lat="47.78824" lon="-3.4083">
        <ele>37</ele>
        <time>2019-07-17T14:13:28Z</time>
      </trkpt>
      <trkpt lat="47.78819" lon="-3.40826">
        <ele>37</ele>
        <time>2019-07-17T14:13:29Z</time>
      </trkpt>
      <trkpt lat="47.78814" lon="-3.40822">
        <ele>37</ele>
        <time>2019-07-17T14:13:30Z</time>
      </trkpt>
      <trkpt lat="47.78809" lon="-3.40818">
        <ele>37</ele>
        <time>2019-07-17T14:13:31Z</time>
      </trkpt>
      <trkpt lat="47.78805" lon="-3.40815">
        <ele>37</ele>
        <time>2019-07-17T14:13:32Z</time>
      </trkpt>
      <trkpt lat="47.788" lon="-3.40814">
        <ele>38</ele>
        <time>2019-07-17T14:13:33Z</time>
      </trkpt>
      <trkpt lat="47.78795" lon="-3.40813">
        <ele>38</ele>
        <time>2019-07-17T14:13:34Z</time>
      </trkpt>
      <trkpt lat="47.7879" lon="-3.40811">
        <ele>38</ele>
        <time>2019-07-17T14:13:35Z</time>
      </trkpt>
      <trkpt lat="47.78786" lon="-3.40809">
        <ele>38</ele>
        <time>2019-07-17T14:13:36Z</time>
      </trkpt>
      <trkpt lat="47.78782" lon="-3.40806">
        <ele>39</ele>
        <time>2019-07-17T14:13:37Z</time>
      </trkpt>
      <trkpt lat="47.78778" lon="-3.40805">
        <ele>39</ele>
        <time>2019-07-17T14:13:38Z</time>
      </trkpt>
      <trkpt lat="47.78774" lon="-3.40803">
        <ele>39</ele>
        <time>2019-07-17T14:13:39Z</time>
      </trkpt>
      <trkpt lat="47.7877" lon="-3.40801">
        <ele>39</ele>
        <time>2019-07-17T14:13:40Z</time>
      </trkpt>
      <trkpt lat="47.78765" lon="-3.408">
        <ele>39</ele>
        <time>2019-07-17T14:13:41Z</time>
      </trkpt>
      <trkpt lat="47.78761" lon="-3.40799">
        <ele>39</ele>
        <time>2019-07-17T14:13:42Z</time>
      </trkpt>
      <trkpt lat="47.78757" lon="-3.40797">
        <ele>39</ele>
        <time>2019-07-17T14:13:43Z</time>
      </trkpt>
      <trkpt lat="47.78753" lon="-3.40796">
        <ele>39</ele>
        <time>2019-07-17T14:13:44Z</time>
      </trkpt>
      <trkpt lat="47.78748" lon="-3.40795">
        <ele>39</ele>
        <time>2019-07-17T14:13:45Z</time>
      </trkpt>
      <trkpt lat="47.78744" lon="-3.40793">
        <ele>39</ele>
        <time>2019-07-17T14:13:46Z</time>
      </trkpt>
      <trkpt lat="47.7874" lon="-3.4079">
        <ele>39</ele>
        <time>2019-07-17T14:13:47Z</time>
      </trkpt>
      <trkpt lat="47.78736" lon="-3.40788">
        <ele>40</ele>
        <time>2019-07-17T14:13:48Z</time>
      </trkpt>
      <trkpt lat="47.78731" lon="-3.40785">
        <ele>40</ele>
        <time>2019-07-17T14:13:49Z</time>
      </trkpt>
      <trkpt lat="47.78727" lon="-3.40782">
        <ele>40</ele>
        <time>2019-07-17T14:13:50Z</time>
      </trkpt>
      <trkpt lat="47.78723" lon="-3.40779">
        <ele>40</ele>
        <time>2019-07-17T14:13:51Z</time>
      </trkpt>
      <trkpt lat="47.78718" lon="-3.40777">
        <ele>40</ele>
        <time>2019-07-17T14:13:52Z</time>
      </trkpt>
      <trkpt lat="47.78713" lon="-3.40775">
        <ele>40</ele>
        <time>2019-07-17T14:13:53Z</time>
      </trkpt>
      <trkpt lat="47.78708" lon="-3.40773">
        <ele>40</ele>
        <time>2019-07-17T14:13:54Z</time>
      </trkpt>
      <trkpt lat="47.78703" lon="-3.40771">
        <ele>40</ele>
        <time>2019-07-17T14:13:55Z</time>
      </trkpt>
      <trkpt lat="47.78698" lon="-3.40768">
        <ele>40</ele>
        <time>2019-07-17T14:13:56Z</time>
      </trkpt>
      <trkpt lat="47.78693" lon="-3.40765">
        <ele>40</ele>
        <time>2019-07-17T14:13:57Z</time>
      </trkpt>
      <trkpt lat="47.78688" lon="-3.40762">
        <ele>40</ele>
        <time>2019-07-17T14:13:58Z</time>
      </trkpt>
      <trkpt lat="47.78683" lon="-3.40758">
        <ele>40</ele>
        <time>2019-07-17T14:13:59Z</time>
      </trkpt>
      <trkpt lat="47.78678" lon="-3.40754">
        <ele>40</ele>
        <time>2019-07-17T14:14:00Z</time>
      </trkpt>
      <trkpt lat="47.78674" lon="-3.4075">
        <ele>40</ele>
        <time>2019-07-17T14:14:01Z</time>
      </trkpt>
      <trkpt lat="47.78669" lon="-3.40747">
        <ele>40</ele>
        <time>2019-07-17T14:14:02Z</time>
      </trkpt>
      <trkpt lat="47.78665" lon="-3.40743">
        <ele>40</ele>
        <time>2019-07-17T14:14:03Z</time>
      </trkpt>
      <trkpt lat="47.7866" lon="-3.40738">
        <ele>40</ele>
        <time>2019-07-17T14:14:04Z</time>
      </trkpt>
      <trkpt lat="47.78655" lon="-3.40733">
        <ele>40</ele>
        <time>2019-07-17T14:14:05Z</time>
      </trkpt>
      <trkpt lat="47.7865" lon="-3.4073">
        <ele>40</ele>
        <time>2019-07-17T14:14:06Z</time>
      </trkpt>
      <trkpt lat="47.78646" lon="-3.40725">
        <ele>40</ele>
        <time>2019-07-17T14:14:07Z</time>
      </trkpt>
      <trkpt lat="47.78642" lon="-3.40721">
        <ele>40</ele>
        <time>2019-07-17T14:14:08Z</time>
      </trkpt>
      <trkpt lat="47.78638" lon="-3.40717">
        <ele>40</ele>
        <time>2019-07-17T14:14:09Z</time>
      </trkpt>
      <trkpt lat="47.78633" lon="-3.40713">
        <ele>40</ele>
        <time>2019-07-17T14:14:10Z</time>
      </trkpt>
      <trkpt lat="47.78629" lon="-3.40708">
        <ele>40</ele>
        <time>2019-07-17T14:14:11Z</time>
      </trkpt>
      <trkpt lat="47.78625" lon="-3.40704">
        <ele>40</ele>
        <time>2019-07-17T14:14:12Z</time>
      </trkpt>
      <trkpt lat="47.78619" lon="-3.40699">
        <ele>40</ele>
        <time>2019-07-17T14:14:13Z</time>
      </trkpt>
      <trkpt lat="47.78614" lon="-3.40694">
        <ele>40</ele>
        <time>2019-07-17T14:14:14Z</time>
      </trkpt>
      <trkpt lat="47.78609" lon="-3.40688">
        <ele>40</ele>
        <time>2019-07-17T14:14:15Z</time>
      </trkpt>
      <trkpt lat="47.78604" lon="-3.40682">
        <ele>40</ele>
        <time>2019-07-17T14:14:16Z</time>
      </trkpt>
      <trkpt lat="47.78599" lon="-3.40677">
        <ele>40</ele>
        <time>2019-07-17T14:14:17Z</time>
      </trkpt>
      <trkpt lat="47.78594" lon="-3.40672">
        <ele>39</ele>
        <time>2019-07-17T14:14:18Z</time>
      </trkpt>
      <trkpt lat="47.7859" lon="-3.40667">
        <ele>39</ele>
        <time>2019-07-17T14:14:19Z</time>
      </trkpt>
      <trkpt lat="47.78587" lon="-3.40663">
        <ele>39</ele>
        <time>2019-07-17T14:14:20Z</time>
      </trkpt>
      <trkpt lat="47.78586" lon="-3.40658">
        <ele>39</ele>
        <time>2019-07-17T14:14:21Z</time>
      </trkpt>
      <trkpt lat="47.78585" lon="-3.40652">
        <ele>38</ele>
        <time>2019-07-17T14:14:22Z</time>
      </trkpt>
      <trkpt lat="47.78587" lon="-3.40646">
        <ele>38</ele>
        <time>2019-07-17T14:14:23Z</time>
      </trkpt>
      <trkpt lat="47.78592" lon="-3.40635">
        <ele>37</ele>
        <time>2019-07-17T14:14:24Z</time>
      </trkpt>
      <trkpt lat="47.78592" lon="-3.40635">
        <ele>37</ele>
        <time>2019-07-17T14:14:25Z</time>
      </trkpt>
      <trkpt lat="47.78595" lon="-3.40629">
        <ele>37</ele>
        <time>2019-07-17T14:14:26Z</time>
      </trkpt>
      <trkpt lat="47.78597" lon="-3.40621">
        <ele>37</ele>
        <time>2019-07-17T14:14:27Z</time>
      </trkpt>
      <trkpt lat="47.786" lon="-3.40613">
        <ele>36</ele>
        <time>2019-07-17T14:14:28Z</time>
      </trkpt>
      <trkpt lat="47.78602" lon="-3.40606">
        <ele>36</ele>
        <time>2019-07-17T14:14:29Z</time>
      </trkpt>
      <trkpt lat="47.78606" lon="-3.40599">
        <ele>36</ele>
        <time>2019-07-17T14:14:30Z</time>
      </trkpt>
      <trkpt lat="47.78609" lon="-3.40594">
        <ele>36</ele>
        <time>2019-07-17T14:14:31Z</time>
      </trkpt>
      <trkpt lat="47.78615" lon="-3.40582">
        <ele>35</ele>
        <time>2019-07-17T14:14:32Z</time>
      </trkpt>
      <trkpt lat="47.78615" lon="-3.40582">
        <ele>35</ele>
        <time>2019-07-17T14:14:33Z</time>
      </trkpt>
      <trkpt lat="47.7862" lon="-3.40572">
        <ele>35</ele>
        <time>2019-07-17T14:14:34Z</time>
      </trkpt>
      <trkpt lat="47.78622" lon="-3.40569">
        <ele>35</ele>
        <time>2019-07-17T14:14:35Z</time>
      </trkpt>
      <trkpt lat="47.78624" lon="-3.40568">
        <ele>35</ele>
        <time>2019-07-17T14:14:36Z</time>
      </trkpt>
      <trkpt lat="47.78626" lon="-3.40566">
        <ele>35</ele>
        <time>2019-07-17T14:14:37Z</time>
      </trkpt>
      <trkpt lat="47.78628" lon="-3.40563">
        <ele>34</ele>
        <time>2019-07-17T14:14:38Z</time>
      </trkpt>
      <trkpt lat="47.7863" lon="-3.40561">
        <ele>34</ele>
        <time>2019-07-17T14:14:39Z</time>
      </trkpt>
      <trkpt lat="47.78631" lon="-3.4056">
        <ele>34</ele>
        <time>2019-07-17T14:14:40Z</time>
      </trkpt>
      <trkpt lat="47.78631" lon="-3.4056">
        <ele>34</ele>
        <time>2019-07-17T14:14:41Z</time>
      </trkpt>
      <trkpt lat="47.78633" lon="-3.40562">
        <ele>34</ele>
        <time>2019-07-17T14:14:42Z</time>
      </trkpt>
      <trkpt lat="47.78635" lon="-3.40563">
        <ele>34</ele>
        <time>2019-07-17T14:14:43Z</time>
      </trkpt>
      <trkpt lat="47.78637" lon="-3.40566">
        <ele>34</ele>
        <time>2019-07-17T14:14:44Z</time>
      </trkpt>
      <trkpt lat="47.78639" lon="-3.40567">
        <ele>34</ele>
        <time>2019-07-17T14:14:45Z</time>
      </trkpt>
      <trkpt lat="47.78641" lon="-3.40566">
        <ele>34</ele>
        <time>2019-07-17T14:14:46Z</time>
      </trkpt>
      <trkpt lat="47.78643" lon="-3.40565">
        <ele>34</ele>
        <time>2019-07-17T14:14:47Z</time>
      </trkpt>
      <trkpt lat="47.78645" lon="-3.40564">
        <ele>34</ele>
        <time>2019-07-17T14:14:48Z</time>
      </trkpt>
      <trkpt lat="47.78647" lon="-3.40563">
        <ele>34</ele>
        <time>2019-07-17T14:14:49Z</time>
      </trkpt>
      <trkpt lat="47.7865" lon="-3.40561">
        <ele>34</ele>
        <time>2019-07-17T14:14:50Z</time>
      </trkpt>
      <trkpt lat="47.78653" lon="-3.40558">
        <ele>34</ele>
        <time>2019-07-17T14:14:51Z</time>
      </trkpt>
      <trkpt lat="47.78655" lon="-3.40555">
        <ele>34</ele>
        <time>2019-07-17T14:14:52Z</time>
      </trkpt>
      <trkpt lat="47.78658" lon="-3.40553">
        <ele>34</ele>
        <time>2019-07-17T14:14:53Z</time>
      </trkpt>
      <trkpt lat="47.7866" lon="-3.40552">
        <ele>34</ele>
        <time>2019-07-17T14:14:54Z</time>
      </trkpt>
      <trkpt lat="47.78662" lon="-3.40551">
        <ele>34</ele>
        <time>2019-07-17T14:14:55Z</time>
      </trkpt>
      <trkpt lat="47.78664" lon="-3.4055">
        <ele>34</ele>
        <time>2019-07-17T14:14:56Z</time>
      </trkpt>
      <trkpt lat="47.78665" lon="-3.40547">
        <ele>34</ele>
        <time>2019-07-17T14:14:57Z</time>
      </trkpt>
      <trkpt lat="47.78668" lon="-3.40544">
        <ele>34</ele>
        <time>2019-07-17T14:14:58Z</time>
      </trkpt>
      <trkpt lat="47.7867" lon="-3.4054">
        <ele>34</ele>
        <time>2019-07-17T14:14:59Z</time>
      </trkpt>
      <trkpt lat="47.78673" lon="-3.40536">
        <ele>34</ele>
        <time>2019-07-17T14:15:00Z</time>
      </trkpt>
      <trkpt lat="47.78676" lon="-3.40531">
        <ele>33</ele>
        <time>2019-07-17T14:15:01Z</time>
      </trkpt>
      <trkpt lat="47.78679" lon="-3.40525">
        <ele>33</ele>
        <time>2019-07-17T14:15:02Z</time>
      </trkpt>
      <trkpt lat="47.78681" lon="-3.40519">
        <ele>33</ele>
        <time>2019-07-17T14:15:03Z</time>
      </trkpt>
      <trkpt lat="47.78684" lon="-3.40513">
        <ele>33</ele>
        <time>2019-07-17T14:15:04Z</time>
      </trkpt>
      <trkpt lat="47.78686" lon="-3.40507">
        <ele>33</ele>
        <time>2019-07-17T14:15:05Z</time>
      </trkpt>
      <trkpt lat="47.78688" lon="-3.40502">
        <ele>33</ele>
        <time>2019-07-17T14:15:06Z</time>
      </trkpt>
      <trkpt lat="47.78689" lon="-3.4049">
        <ele>33</ele>
        <time>2019-07-17T14:15:07Z</time>
      </trkpt>
      <trkpt lat="47.78689" lon="-3.4049">
        <ele>33</ele>
        <time>2019-07-17T14:15:08Z</time>
      </trkpt>
      <trkpt lat="47.78689" lon="-3.40484">
        <ele>33</ele>
        <time>2019-07-17T14:15:09Z</time>
      </trkpt>
      <trkpt lat="47.7869" lon="-3.40479">
        <ele>33</ele>
        <time>2019-07-17T14:15:10Z</time>
      </trkpt>
      <trkpt lat="47.7869" lon="-3.40474">
        <ele>32</ele>
        <time>2019-07-17T14:15:11Z</time>
      </trkpt>
      <trkpt lat="47.78689" lon="-3.40469">
        <ele>32</ele>
        <time>2019-07-17T14:15:12Z</time>
      </trkpt>
      <trkpt lat="47.78689" lon="-3.40463">
        <ele>32</ele>
        <time>2019-07-17T14:15:13Z</time>
      </trkpt>
      <trkpt lat="47.78688" lon="-3.40457">
        <ele>32</ele>
        <time>2019-07-17T14:15:14Z</time>
      </trkpt>
      <trkpt lat="47.78687" lon="-3.40451">
        <ele>32</ele>
        <time>2019-07-17T14:15:15Z</time>
      </trkpt>
      <trkpt lat="47.78686" lon="-3.40445">
        <ele>32</ele>
        <time>2019-07-17T14:15:16Z</time>
      </trkpt>
      <trkpt lat="47.78685" lon="-3.40439">
        <ele>32</ele>
        <time>2019-07-17T14:15:17Z</time>
      </trkpt>
      <trkpt lat="47.78685" lon="-3.40432">
        <ele>32</ele>
        <time>2019-07-17T14:15:18Z</time>
      </trkpt>
      <trkpt lat="47.78685" lon="-3.40426">
        <ele>31</ele>
        <time>2019-07-17T14:15:19Z</time>
      </trkpt>
      <trkpt lat="47.78685" lon="-3.4042">
        <ele>31</ele>
        <time>2019-07-17T14:15:20Z</time>
      </trkpt>
      <trkpt lat="47.78685" lon="-3.40413">
        <ele>31</ele>
        <time>2019-07-17T14:15:21Z</time>
      </trkpt>
      <trkpt lat="47.78684" lon="-3.40407">
        <ele>31</ele>
        <time>2019-07-17T14:15:22Z</time>
      </trkpt>
      <trkpt lat="47.78684" lon="-3.40402">
        <ele>31</ele>
        <time>2019-07-17T14:15:23Z</time>
      </trkpt>
      <trkpt lat="47.78682" lon="-3.40396">
        <ele>31</ele>
        <time>2019-07-17T14:15:24Z</time>
      </trkpt>
      <trkpt lat="47.78681" lon="-3.40389">
        <ele>31</ele>
        <time>2019-07-17T14:15:25Z</time>
      </trkpt>
      <trkpt lat="47.78681" lon="-3.40382">
        <ele>30</ele>
        <time>2019-07-17T14:15:26Z</time>
      </trkpt>
      <trkpt lat="47.78679" lon="-3.40375">
        <ele>30</ele>
        <time>2019-07-17T14:15:27Z</time>
      </trkpt>
      <trkpt lat="47.78679" lon="-3.40367">
        <ele>30</ele>
        <time>2019-07-17T14:15:28Z</time>
      </trkpt>
      <trkpt lat="47.78678" lon="-3.40361">
        <ele>30</ele>
        <time>2019-07-17T14:15:29Z</time>
      </trkpt>
      <trkpt lat="47.78677" lon="-3.40354">
        <ele>30</ele>
        <time>2019-07-17T14:15:30Z</time>
      </trkpt>
      <trkpt lat="47.78676" lon="-3.40347">
        <ele>29</ele>
        <time>2019-07-17T14:15:31Z</time>
      </trkpt>
      <trkpt lat="47.78676" lon="-3.40339">
        <ele>29</ele>
        <time>2019-07-17T14:15:32Z</time>
      </trkpt>
      <trkpt lat="47.78675" lon="-3.40331">
        <ele>29</ele>
        <time>2019-07-17T14:15:33Z</time>
      </trkpt>
      <trkpt lat="47.78673" lon="-3.40323">
        <ele>29</ele>
        <time>2019-07-17T14:15:34Z</time>
      </trkpt>
      <trkpt lat="47.78672" lon="-3.40315">
        <ele>29</ele>
        <time>2019-07-17T14:15:35Z</time>
      </trkpt>
      <trkpt lat="47.7867" lon="-3.40307">
        <ele>28</ele>
        <time>2019-07-17T14:15:36Z</time>
      </trkpt>
      <trkpt lat="47.78668" lon="-3.40298">
        <ele>28</ele>
        <time>2019-07-17T14:15:37Z</time>
      </trkpt>
      <trkpt lat="47.78667" lon="-3.4029">
        <ele>28</ele>
        <time>2019-07-17T14:15:38Z</time>
      </trkpt>
      <trkpt lat="47.78665" lon="-3.40281">
        <ele>28</ele>
        <time>2019-07-17T14:15:39Z</time>
      </trkpt>
      <trkpt lat="47.78664" lon="-3.40273">
        <ele>28</ele>
        <time>2019-07-17T14:15:40Z</time>
      </trkpt>
      <trkpt lat="47.78663" lon="-3.40266">
        <ele>28</ele>
        <time>2019-07-17T14:15:41Z</time>
      </trkpt>
      <trkpt lat="47.78662" lon="-3.40259">
        <ele>27</ele>
        <time>2019-07-17T14:15:42Z</time>
      </trkpt>
      <trkpt lat="47.78662" lon="-3.40253">
        <ele>27</ele>
        <time>2019-07-17T14:15:43Z</time>
      </trkpt>
      <trkpt lat="47.78661" lon="-3.40246">
        <ele>27</ele>
        <time>2019-07-17T14:15:44Z</time>
      </trkpt>
      <trkpt lat="47.7866" lon="-3.4024">
        <ele>27</ele>
        <time>2019-07-17T14:15:45Z</time>
      </trkpt>
      <trkpt lat="47.78659" lon="-3.40232">
        <ele>27</ele>
        <time>2019-07-17T14:15:46Z</time>
      </trkpt>
      <trkpt lat="47.78658" lon="-3.40226">
        <ele>27</ele>
        <time>2019-07-17T14:15:47Z</time>
      </trkpt>
      <trkpt lat="47.78658" lon="-3.40218">
        <ele>27</ele>
        <time>2019-07-17T14:15:48Z</time>
      </trkpt>
      <trkpt lat="47.78657" lon="-3.40211">
        <ele>27</ele>
        <time>2019-07-17T14:15:49Z</time>
      </trkpt>
      <trkpt lat="47.78655" lon="-3.40202">
        <ele>27</ele>
        <time>2019-07-17T14:15:50Z</time>
      </trkpt>
      <trkpt lat="47.78654" lon="-3.40194">
        <ele>27</ele>
        <time>2019-07-17T14:15:51Z</time>
      </trkpt>
      <trkpt lat="47.78653" lon="-3.40186">
        <ele>26</ele>
        <time>2019-07-17T14:15:52Z</time>
      </trkpt>
      <trkpt lat="47.7865" lon="-3.40178">
        <ele>26</ele>
        <time>2019-07-17T14:15:53Z</time>
      </trkpt>
      <trkpt lat="47.78648" lon="-3.40169">
        <ele>26</ele>
        <time>2019-07-17T14:15:54Z</time>
      </trkpt>
      <trkpt lat="47.78646" lon="-3.40161">
        <ele>26</ele>
        <time>2019-07-17T14:15:55Z</time>
      </trkpt>
      <trkpt lat="47.78643" lon="-3.40154">
        <ele>26</ele>
        <time>2019-07-17T14:15:56Z</time>
      </trkpt>
      <trkpt lat="47.78641" lon="-3.40147">
        <ele>26</ele>
        <time>2019-07-17T14:15:57Z</time>
      </trkpt>
      <trkpt lat="47.78638" lon="-3.40139">
        <ele>26</ele>
        <time>2019-07-17T14:15:58Z</time>
      </trkpt>
      <trkpt lat="47.78635" lon="-3.40132">
        <ele>26</ele>
        <time>2019-07-17T14:15:59Z</time>
      </trkpt>
      <trkpt lat="47.78633" lon="-3.40125">
        <ele>26</ele>
        <time>2019-07-17T14:16:00Z</time>
      </trkpt>
      <trkpt lat="47.7863" lon="-3.40118">
        <ele>26</ele>
        <time>2019-07-17T14:16:01Z</time>
      </trkpt>
      <trkpt lat="47.78628" lon="-3.40111">
        <ele>26</ele>
        <time>2019-07-17T14:16:02Z</time>
      </trkpt>
      <trkpt lat="47.78626" lon="-3.40104">
        <ele>26</ele>
        <time>2019-07-17T14:16:03Z</time>
      </trkpt>
      <trkpt lat="47.78624" lon="-3.40097">
        <ele>26</ele>
        <time>2019-07-17T14:16:04Z</time>
      </trkpt>
      <trkpt lat="47.78623" lon="-3.4009">
        <ele>26</ele>
        <time>2019-07-17T14:16:05Z</time>
      </trkpt>
      <trkpt lat="47.78622" lon="-3.40084">
        <ele>26</ele>
        <time>2019-07-17T14:16:06Z</time>
      </trkpt>
      <trkpt lat="47.78622" lon="-3.4008">
        <ele>26</ele>
        <time>2019-07-17T14:16:07Z</time>
      </trkpt>
      <trkpt lat="47.7862" lon="-3.40076">
        <ele>26</ele>
        <time>2019-07-17T14:16:08Z</time>
      </trkpt>
      <trkpt lat="47.78619" lon="-3.40073">
        <ele>26</ele>
        <time>2019-07-17T14:16:09Z</time>
      </trkpt>
      <trkpt lat="47.78616" lon="-3.4007">
        <ele>26</ele>
        <time>2019-07-17T14:16:10Z</time>
      </trkpt>
      <trkpt lat="47.78612" lon="-3.40068">
        <ele>26</ele>
        <time>2019-07-17T14:16:11Z</time>
      </trkpt>
      <trkpt lat="47.78607" lon="-3.40067">
        <ele>26</ele>
        <time>2019-07-17T14:16:12Z</time>
      </trkpt>
      <trkpt lat="47.78603" lon="-3.40068">
        <ele>26</ele>
        <time>2019-07-17T14:16:13Z</time>
      </trkpt>
      <trkpt lat="47.78598" lon="-3.40068">
        <ele>26</ele>
        <time>2019-07-17T14:16:14Z</time>
      </trkpt>
      <trkpt lat="47.78593" lon="-3.40067">
        <ele>26</ele>
        <time>2019-07-17T14:16:15Z</time>
      </trkpt>
      <trkpt lat="47.78589" lon="-3.40065">
        <ele>26</ele>
        <time>2019-07-17T14:16:16Z</time>
      </trkpt>
      <trkpt lat="47.78587" lon="-3.40062">
        <ele>26</ele>
        <time>2019-07-17T14:16:17Z</time>
      </trkpt>
      <trkpt lat="47.78587" lon="-3.40058">
        <ele>26</ele>
        <time>2019-07-17T14:16:18Z</time>
      </trkpt>
      <trkpt lat="47.78586" lon="-3.40054">
        <ele>26</ele>
        <time>2019-07-17T14:16:19Z</time>
      </trkpt>
      <trkpt lat="47.78585" lon="-3.40049">
        <ele>26</ele>
        <time>2019-07-17T14:16:20Z</time>
      </trkpt>
      <trkpt lat="47.78584" lon="-3.40044">
        <ele>27</ele>
        <time>2019-07-17T14:16:21Z</time>
      </trkpt>
      <trkpt lat="47.78583" lon="-3.4004">
        <ele>27</ele>
        <time>2019-07-17T14:16:22Z</time>
      </trkpt>
      <trkpt lat="47.78582" lon="-3.40036">
        <ele>27</ele>
        <time>2019-07-17T14:16:23Z</time>
      </trkpt>
      <trkpt lat="47.78582" lon="-3.40033">
        <ele>27</ele>
        <time>2019-07-17T14:16:24Z</time>
      </trkpt>
      <trkpt lat="47.78581" lon="-3.4003">
        <ele>28</ele>
        <time>2019-07-17T14:16:25Z</time>
      </trkpt>
      <trkpt lat="47.78581" lon="-3.40028">
        <ele>28</ele>
        <time>2019-07-17T14:16:26Z</time>
      </trkpt>
      <trkpt lat="47.78581" lon="-3.40027">
        <ele>28</ele>
        <time>2019-07-17T14:16:27Z</time>
      </trkpt>
      <trkpt lat="47.7858" lon="-3.40025">
        <ele>29</ele>
        <time>2019-07-17T14:16:28Z</time>
      </trkpt>
      <trkpt lat="47.7858" lon="-3.40025">
        <ele>29</ele>
        <time>2019-07-17T14:16:29Z</time>
      </trkpt>
      <trkpt lat="47.7858" lon="-3.40023">
        <ele>29</ele>
        <time>2019-07-17T14:16:30Z</time>
      </trkpt>
      <trkpt lat="47.7858" lon="-3.40022">
        <ele>29</ele>
        <time>2019-07-17T14:16:31Z</time>
      </trkpt>
      <trkpt lat="47.78579" lon="-3.4002">
        <ele>29</ele>
        <time>2019-07-17T14:16:32Z</time>
      </trkpt>
      <trkpt lat="47.78579" lon="-3.40018">
        <ele>30</ele>
        <time>2019-07-17T14:16:33Z</time>
      </trkpt>
      <trkpt lat="47.78579" lon="-3.40016">
        <ele>30</ele>
        <time>2019-07-17T14:16:34Z</time>
      </trkpt>
      <trkpt lat="47.78578" lon="-3.40013">
        <ele>30</ele>
        <time>2019-07-17T14:16:35Z</time>
      </trkpt>
      <trkpt lat="47.78577" lon="-3.4001">
        <ele>31</ele>
        <time>2019-07-17T14:16:36Z</time>
      </trkpt>
      <trkpt lat="47.78577" lon="-3.40006">
        <ele>31</ele>
        <time>2019-07-17T14:16:37Z</time>
      </trkpt>
      <trkpt lat="47.78576" lon="-3.40002">
        <ele>31</ele>
        <time>2019-07-17T14:16:38Z</time>
      </trkpt>
      <trkpt lat="47.78576" lon="-3.39996">
        <ele>31</ele>
        <time>2019-07-17T14:16:39Z</time>
      </trkpt>
      <trkpt lat="47.78576" lon="-3.3999">
        <ele>31</ele>
        <time>2019-07-17T14:16:40Z</time>
      </trkpt>
      <trkpt lat="47.78575" lon="-3.39982">
        <ele>32</ele>
        <time>2019-07-17T14:16:41Z</time>
      </trkpt>
      <trkpt lat="47.78574" lon="-3.39973">
        <ele>32</ele>
        <time>2019-07-17T14:16:42Z</time>
      </trkpt>
      <trkpt lat="47.78573" lon="-3.39965">
        <ele>32</ele>
        <time>2019-07-17T14:16:43Z</time>
      </trkpt>
      <trkpt lat="47.78572" lon="-3.39956">
        <ele>33</ele>
        <time>2019-07-17T14:16:44Z</time>
      </trkpt>
      <trkpt lat="47.7857" lon="-3.39948">
        <ele>33</ele>
        <time>2019-07-17T14:16:45Z</time>
      </trkpt>
      <trkpt lat="47.78569" lon="-3.39939">
        <ele>33</ele>
        <time>2019-07-17T14:16:46Z</time>
      </trkpt>
      <trkpt lat="47.78567" lon="-3.39932">
        <ele>33</ele>
        <time>2019-07-17T14:16:47Z</time>
      </trkpt>
      <trkpt lat="47.78566" lon="-3.39924">
        <ele>33</ele>
        <time>2019-07-17T14:16:48Z</time>
      </trkpt>
      <trkpt lat="47.78565" lon="-3.39917">
        <ele>33</ele>
        <time>2019-07-17T14:16:49Z</time>
      </trkpt>
      <trkpt lat="47.78564" lon="-3.3991">
        <ele>32</ele>
        <time>2019-07-17T14:16:50Z</time>
      </trkpt>
      <trkpt lat="47.78565" lon="-3.39903">
        <ele>32</ele>
        <time>2019-07-17T14:16:51Z</time>
      </trkpt>
      <trkpt lat="47.78565" lon="-3.39896">
        <ele>32</ele>
        <time>2019-07-17T14:16:52Z</time>
      </trkpt>
      <trkpt lat="47.78566" lon="-3.39883">
        <ele>32</ele>
        <time>2019-07-17T14:16:53Z</time>
      </trkpt>
      <trkpt lat="47.78566" lon="-3.39883">
        <ele>32</ele>
        <time>2019-07-17T14:16:54Z</time>
      </trkpt>
      <trkpt lat="47.78567" lon="-3.39876">
        <ele>31</ele>
        <time>2019-07-17T14:16:55Z</time>
      </trkpt>
      <trkpt lat="47.78568" lon="-3.3987">
        <ele>31</ele>
        <time>2019-07-17T14:16:56Z</time>
      </trkpt>
      <trkpt lat="47.7857" lon="-3.39863">
        <ele>31</ele>
        <time>2019-07-17T14:16:57Z</time>
      </trkpt>
      <trkpt lat="47.78571" lon="-3.39857">
        <ele>31</ele>
        <time>2019-07-17T14:16:58Z</time>
      </trkpt>
      <trkpt lat="47.78571" lon="-3.3985">
        <ele>30</ele>
        <time>2019-07-17T14:16:59Z</time>
      </trkpt>
      <trkpt lat="47.7857" lon="-3.39843">
        <ele>30</ele>
        <time>2019-07-17T14:17:00Z</time>
      </trkpt>
      <trkpt lat="47.78569" lon="-3.39839">
        <ele>30</ele>
        <time>2019-07-17T14:17:01Z</time>
      </trkpt>
      <trkpt lat="47.78569" lon="-3.39835">
        <ele>30</ele>
        <time>2019-07-17T14:17:02Z</time>
      </trkpt>
      <trkpt lat="47.7857" lon="-3.39832">
        <ele>30</ele>
        <time>2019-07-17T14:17:03Z</time>
      </trkpt>
      <trkpt lat="47.7857" lon="-3.39828">
        <ele>30</ele>
        <time>2019-07-17T14:17:04Z</time>
      </trkpt>
      <trkpt lat="47.78572" lon="-3.39824">
        <ele>30</ele>
        <time>2019-07-17T14:17:05Z</time>
      </trkpt>
      <trkpt lat="47.78573" lon="-3.39818">
        <ele>30</ele>
        <time>2019-07-17T14:17:06Z</time>
      </trkpt>
      <trkpt lat="47.78575" lon="-3.39814">
        <ele>29</ele>
        <time>2019-07-17T14:17:07Z</time>
      </trkpt>
      <trkpt lat="47.78577" lon="-3.39808">
        <ele>29</ele>
        <time>2019-07-17T14:17:08Z</time>
      </trkpt>
      <trkpt lat="47.78579" lon="-3.39803">
        <ele>29</ele>
        <time>2019-07-17T14:17:09Z</time>
      </trkpt>
      <trkpt lat="47.7858" lon="-3.39797">
        <ele>29</ele>
        <time>2019-07-17T14:17:10Z</time>
      </trkpt>
      <trkpt lat="47.78581" lon="-3.3979">
        <ele>29</ele>
        <time>2019-07-17T14:17:11Z</time>
      </trkpt>
      <trkpt lat="47.78582" lon="-3.39785">
        <ele>29</ele>
        <time>2019-07-17T14:17:12Z</time>
      </trkpt>
      <trkpt lat="47.78583" lon="-3.39781">
        <ele>29</ele>
        <time>2019-07-17T14:17:13Z</time>
      </trkpt>
      <trkpt lat="47.78584" lon="-3.39775">
        <ele>29</ele>
        <time>2019-07-17T14:17:14Z</time>
      </trkpt>
      <trkpt lat="47.78585" lon="-3.3977">
        <ele>29</ele>
        <time>2019-07-17T14:17:15Z</time>
      </trkpt>
      <trkpt lat="47.78584" lon="-3.39764">
        <ele>29</ele>
        <time>2019-07-17T14:17:16Z</time>
      </trkpt>
      <trkpt lat="47.78583" lon="-3.39759">
        <ele>29</ele>
        <time>2019-07-17T14:17:17Z</time>
      </trkpt>
      <trkpt lat="47.78582" lon="-3.39753">
        <ele>29</ele>
        <time>2019-07-17T14:17:18Z</time>
      </trkpt>
      <trkpt lat="47.78582" lon="-3.39748">
        <ele>29</ele>
        <time>2019-07-17T14:17:19Z</time>
      </trkpt>
      <trkpt lat="47.7858" lon="-3.39743">
        <ele>29</ele>
        <time>2019-07-17T14:17:20Z</time>
      </trkpt>
      <trkpt lat="47.78578" lon="-3.39738">
        <ele>29</ele>
        <time>2019-07-17T14:17:21Z</time>
      </trkpt>
      <trkpt lat="47.78576" lon="-3.39733">
        <ele>29</ele>
        <time>2019-07-17T14:17:22Z</time>
      </trkpt>
      <trkpt lat="47.78576" lon="-3.39729">
        <ele>29</ele>
        <time>2019-07-17T14:17:23Z</time>
      </trkpt>
      <trkpt lat="47.78576" lon="-3.39723">
        <ele>29</ele>
        <time>2019-07-17T14:17:24Z</time>
      </trkpt>
      <trkpt lat="47.78574" lon="-3.39718">
        <ele>29</ele>
        <time>2019-07-17T14:17:25Z</time>
      </trkpt>
      <trkpt lat="47.78572" lon="-3.39713">
        <ele>29</ele>
        <time>2019-07-17T14:17:26Z</time>
      </trkpt>
      <trkpt lat="47.78569" lon="-3.39709">
        <ele>29</ele>
        <time>2019-07-17T14:17:27Z</time>
      </trkpt>
      <trkpt lat="47.78565" lon="-3.39706">
        <ele>29</ele>
        <time>2019-07-17T14:17:28Z</time>
      </trkpt>
      <trkpt lat="47.78563" lon="-3.397">
        <ele>29</ele>
        <time>2019-07-17T14:17:29Z</time>
      </trkpt>
      <trkpt lat="47.78561" lon="-3.39695">
        <ele>29</ele>
        <time>2019-07-17T14:17:30Z</time>
      </trkpt>
      <trkpt lat="47.7856" lon="-3.3969">
        <ele>29</ele>
        <time>2019-07-17T14:17:31Z</time>
      </trkpt>
      <trkpt lat="47.78557" lon="-3.39685">
        <ele>29</ele>
        <time>2019-07-17T14:17:32Z</time>
      </trkpt>
      <trkpt lat="47.78555" lon="-3.39679">
        <ele>29</ele>
        <time>2019-07-17T14:17:33Z</time>
      </trkpt>
      <trkpt lat="47.78552" lon="-3.39673">
        <ele>29</ele>
        <time>2019-07-17T14:17:34Z</time>
      </trkpt>
      <trkpt lat="47.7855" lon="-3.39667">
        <ele>29</ele>
        <time>2019-07-17T14:17:35Z</time>
      </trkpt>
      <trkpt lat="47.78549" lon="-3.39662">
        <ele>29</ele>
        <time>2019-07-17T14:17:36Z</time>
      </trkpt>
      <trkpt lat="47.78548" lon="-3.39657">
        <ele>29</ele>
        <time>2019-07-17T14:17:37Z</time>
      </trkpt>
      <trkpt lat="47.78548" lon="-3.39652">
        <ele>29</ele>
        <time>2019-07-17T14:17:38Z</time>
      </trkpt>
      <trkpt lat="47.78549" lon="-3.39647">
        <ele>29</ele>
        <time>2019-07-17T14:17:39Z</time>
      </trkpt>
      <trkpt lat="47.7855" lon="-3.39639">
        <ele>29</ele>
        <time>2019-07-17T14:17:40Z</time>
      </trkpt>
      <trkpt lat="47.7855" lon="-3.3963">
        <ele>29</ele>
        <time>2019-07-17T14:17:41Z</time>
      </trkpt>
      <trkpt lat="47.7855" lon="-3.39621">
        <ele>29</ele>
        <time>2019-07-17T14:17:42Z</time>
      </trkpt>
      <trkpt lat="47.78549" lon="-3.39612">
        <ele>29</ele>
        <time>2019-07-17T14:17:43Z</time>
      </trkpt>
      <trkpt lat="47.78547" lon="-3.39604">
        <ele>29</ele>
        <time>2019-07-17T14:17:44Z</time>
      </trkpt>
      <trkpt lat="47.78545" lon="-3.39595">
        <ele>29</ele>
        <time>2019-07-17T14:17:45Z</time>
      </trkpt>
      <trkpt lat="47.78542" lon="-3.39588">
        <ele>29</ele>
        <time>2019-07-17T14:17:46Z</time>
      </trkpt>
      <trkpt lat="47.7854" lon="-3.39581">
        <ele>29</ele>
        <time>2019-07-17T14:17:47Z</time>
      </trkpt>
      <trkpt lat="47.78538" lon="-3.39574">
        <ele>29</ele>
        <time>2019-07-17T14:17:48Z</time>
      </trkpt>
      <trkpt lat="47.78537" lon="-3.39569">
        <ele>29</ele>
        <time>2019-07-17T14:17:49Z</time>
      </trkpt>
      <trkpt lat="47.78537" lon="-3.39565">
        <ele>29</ele>
        <time>2019-07-17T14:17:50Z</time>
      </trkpt>
      <trkpt lat="47.78536" lon="-3.39562">
        <ele>29</ele>
        <time>2019-07-17T14:17:51Z</time>
      </trkpt>
      <trkpt lat="47.78535" lon="-3.39558">
        <ele>29</ele>
        <time>2019-07-17T14:17:52Z</time>
      </trkpt>
      <trkpt lat="47.78535" lon="-3.39553">
        <ele>29</ele>
        <time>2019-07-17T14:17:53Z</time>
      </trkpt>
      <trkpt lat="47.78536" lon="-3.3955">
        <ele>29</ele>
        <time>2019-07-17T14:17:54Z</time>
      </trkpt>
      <trkpt lat="47.78536" lon="-3.39548">
        <ele>29</ele>
        <time>2019-07-17T14:17:55Z</time>
      </trkpt>
      <trkpt lat="47.78536" lon="-3.39548">
        <ele>29</ele>
        <time>2019-07-17T14:17:56Z</time>
      </trkpt>
      <trkpt lat="47.78536" lon="-3.39547">
        <ele>29</ele>
        <time>2019-07-17T14:17:57Z</time>
      </trkpt>
      <trkpt lat="47.78536" lon="-3.39543">
        <ele>30</ele>
        <time>2019-07-17T14:17:58Z</time>
      </trkpt>
      <trkpt lat="47.78535" lon="-3.3954">
        <ele>31</ele>
        <time>2019-07-17T14:17:59Z</time>
      </trkpt>
      <trkpt lat="47.78534" lon="-3.39537">
        <ele>31</ele>
        <time>2019-07-17T14:18:00Z</time>
      </trkpt>
      <trkpt lat="47.78532" lon="-3.39533">
        <ele>31</ele>
        <time>2019-07-17T14:18:01Z</time>
      </trkpt>
      <trkpt lat="47.78531" lon="-3.39531">
        <ele>31</ele>
        <time>2019-07-17T14:18:02Z</time>
      </trkpt>
      <trkpt lat="47.7853" lon="-3.3953">
        <ele>31</ele>
        <time>2019-07-17T14:18:03Z</time>
      </trkpt>
      <trkpt lat="47.7853" lon="-3.39529">
        <ele>31</ele>
        <time>2019-07-17T14:18:04Z</time>
      </trkpt>
      <trkpt lat="47.7853" lon="-3.39529">
        <ele>31</ele>
        <time>2019-07-17T14:18:05Z</time>
      </trkpt>
      <trkpt lat="47.7853" lon="-3.39528">
        <ele>31</ele>
        <time>2019-07-17T14:18:06Z</time>
      </trkpt>
      <trkpt lat="47.7853" lon="-3.39528">
        <ele>31</ele>
        <time>2019-07-17T14:18:07Z</time>
      </trkpt>
      <trkpt lat="47.78535" lon="-3.39531">
        <ele>32</ele>
        <time>2019-07-17T14:18:08Z</time>
      </trkpt>
      <trkpt lat="47.78537" lon="-3.39533">
        <ele>32</ele>
        <time>2019-07-17T14:18:09Z</time>
      </trkpt>
      <trkpt lat="47.78539" lon="-3.39535">
        <ele>32</ele>
        <time>2019-07-17T14:18:10Z</time>
      </trkpt>
      <trkpt lat="47.7854" lon="-3.39536">
        <ele>32</ele>
        <time>2019-07-17T14:18:11Z</time>
      </trkpt>
      <trkpt lat="47.78543" lon="-3.39536">
        <ele>32</ele>
        <time>2019-07-17T14:18:12Z</time>
      </trkpt>
      <trkpt lat="47.78545" lon="-3.39535">
        <ele>32</ele>
        <time>2019-07-17T14:18:13Z</time>
      </trkpt>
      <trkpt lat="47.78547" lon="-3.39535">
        <ele>32</ele>
        <time>2019-07-17T14:18:14Z</time>
      </trkpt>
      <trkpt lat="47.78549" lon="-3.39534">
        <ele>32</ele>
        <time>2019-07-17T14:18:15Z</time>
      </trkpt>
      <trkpt lat="47.78551" lon="-3.39533">
        <ele>32</ele>
        <time>2019-07-17T14:18:16Z</time>
      </trkpt>
      <trkpt lat="47.78553" lon="-3.39533">
        <ele>32</ele>
        <time>2019-07-17T14:18:17Z</time>
      </trkpt>
      <trkpt lat="47.78555" lon="-3.39532">
        <ele>32</ele>
        <time>2019-07-17T14:18:18Z</time>
      </trkpt>
      <trkpt lat="47.78557" lon="-3.39532">
        <ele>32</ele>
        <time>2019-07-17T14:18:19Z</time>
      </trkpt>
      <trkpt lat="47.78559" lon="-3.39531">
        <ele>32</ele>
        <time>2019-07-17T14:18:20Z</time>
      </trkpt>
      <trkpt lat="47.78561" lon="-3.3953">
        <ele>32</ele>
        <time>2019-07-17T14:18:21Z</time>
      </trkpt>
      <trkpt lat="47.78563" lon="-3.39528">
        <ele>32</ele>
        <time>2019-07-17T14:18:22Z</time>
      </trkpt>
      <trkpt lat="47.78565" lon="-3.39526">
        <ele>32</ele>
        <time>2019-07-17T14:18:23Z</time>
      </trkpt>
      <trkpt lat="47.78567" lon="-3.39523">
        <ele>32</ele>
        <time>2019-07-17T14:18:24Z</time>
      </trkpt>
      <trkpt lat="47.78567" lon="-3.39521">
        <ele>32</ele>
        <time>2019-07-17T14:18:25Z</time>
      </trkpt>
      <trkpt lat="47.78567" lon="-3.39519">
        <ele>33</ele>
        <time>2019-07-17T14:18:26Z</time>
      </trkpt>
      <trkpt lat="47.78566" lon="-3.39517">
        <ele>33</ele>
        <time>2019-07-17T14:18:27Z</time>
      </trkpt>
      <trkpt lat="47.78565" lon="-3.39515">
        <ele>33</ele>
        <time>2019-07-17T14:18:28Z</time>
      </trkpt>
      <trkpt lat="47.78564" lon="-3.39513">
        <ele>33</ele>
        <time>2019-07-17T14:18:29Z</time>
      </trkpt>
      <trkpt lat="47.78563" lon="-3.3951">
        <ele>33</ele>
        <time>2019-07-17T14:18:30Z</time>
      </trkpt>
      <trkpt lat="47.78562" lon="-3.39508">
        <ele>33</ele>
        <time>2019-07-17T14:18:31Z</time>
      </trkpt>
      <trkpt lat="47.78561" lon="-3.39506">
        <ele>33</ele>
        <time>2019-07-17T14:18:32Z</time>
      </trkpt>
      <trkpt lat="47.7856" lon="-3.39503">
        <ele>33</ele>
        <time>2019-07-17T14:18:33Z</time>
      </trkpt>
      <trkpt lat="47.78559" lon="-3.395">
        <ele>33</ele>
        <time>2019-07-17T14:18:34Z</time>
      </trkpt>
      <trkpt lat="47.78558" lon="-3.39496">
        <ele>33</ele>
        <time>2019-07-17T14:18:35Z</time>
      </trkpt>
      <trkpt lat="47.78557" lon="-3.39493">
        <ele>33</ele>
        <time>2019-07-17T14:18:36Z</time>
      </trkpt>
      <trkpt lat="47.78555" lon="-3.3949">
        <ele>33</ele>
        <time>2019-07-17T14:18:37Z</time>
      </trkpt>
      <trkpt lat="47.78553" lon="-3.39486">
        <ele>33</ele>
        <time>2019-07-17T14:18:38Z</time>
      </trkpt>
      <trkpt lat="47.7855" lon="-3.39483">
        <ele>33</ele>
        <time>2019-07-17T14:18:39Z</time>
      </trkpt>
      <trkpt lat="47.78548" lon="-3.39479">
        <ele>33</ele>
        <time>2019-07-17T14:18:40Z</time>
      </trkpt>
      <trkpt lat="47.78546" lon="-3.39474">
        <ele>33</ele>
        <time>2019-07-17T14:18:41Z</time>
      </trkpt>
      <trkpt lat="47.78544" lon="-3.3947">
        <ele>33</ele>
        <time>2019-07-17T14:18:42Z</time>
      </trkpt>
      <trkpt lat="47.78541" lon="-3.39465">
        <ele>33</ele>
        <time>2019-07-17T14:18:43Z</time>
      </trkpt>
      <trkpt lat="47.7854" lon="-3.3946">
        <ele>33</ele>
        <time>2019-07-17T14:18:44Z</time>
      </trkpt>
      <trkpt lat="47.78537" lon="-3.39454">
        <ele>33</ele>
        <time>2019-07-17T14:18:45Z</time>
      </trkpt>
      <trkpt lat="47.78535" lon="-3.39449">
        <ele>33</ele>
        <time>2019-07-17T14:18:46Z</time>
      </trkpt>
      <trkpt lat="47.78531" lon="-3.39443">
        <ele>32</ele>
        <time>2019-07-17T14:18:47Z</time>
      </trkpt>
      <trkpt lat="47.78528" lon="-3.39437">
        <ele>32</ele>
        <time>2019-07-17T14:18:48Z</time>
      </trkpt>
      <trkpt lat="47.78526" lon="-3.39432">
        <ele>33</ele>
        <time>2019-07-17T14:18:49Z</time>
      </trkpt>
      <trkpt lat="47.78524" lon="-3.39427">
        <ele>33</ele>
        <time>2019-07-17T14:18:50Z</time>
      </trkpt>
      <trkpt lat="47.78523" lon="-3.39424">
        <ele>33</ele>
        <time>2019-07-17T14:18:51Z</time>
      </trkpt>
      <trkpt lat="47.78522" lon="-3.3942">
        <ele>33</ele>
        <time>2019-07-17T14:18:52Z</time>
      </trkpt>
      <trkpt lat="47.78519" lon="-3.39416">
        <ele>33</ele>
        <time>2019-07-17T14:18:53Z</time>
      </trkpt>
      <trkpt lat="47.78517" lon="-3.39412">
        <ele>33</ele>
        <time>2019-07-17T14:18:54Z</time>
      </trkpt>
      <trkpt lat="47.78514" lon="-3.39408">
        <ele>33</ele>
        <time>2019-07-17T14:18:55Z</time>
      </trkpt>
      <trkpt lat="47.7851" lon="-3.39403">
        <ele>33</ele>
        <time>2019-07-17T14:18:56Z</time>
      </trkpt>
      <trkpt lat="47.78507" lon="-3.39397">
        <ele>33</ele>
        <time>2019-07-17T14:18:57Z</time>
      </trkpt>
      <trkpt lat="47.78505" lon="-3.39392">
        <ele>33</ele>
        <time>2019-07-17T14:18:58Z</time>
      </trkpt>
      <trkpt lat="47.78502" lon="-3.39387">
        <ele>33</ele>
        <time>2019-07-17T14:18:59Z</time>
      </trkpt>
      <trkpt lat="47.785" lon="-3.39381">
        <ele>33</ele>
        <time>2019-07-17T14:19:00Z</time>
      </trkpt>
      <trkpt lat="47.78497" lon="-3.39374">
        <ele>33</ele>
        <time>2019-07-17T14:19:01Z</time>
      </trkpt>
      <trkpt lat="47.78495" lon="-3.39367">
        <ele>33</ele>
        <time>2019-07-17T14:19:02Z</time>
      </trkpt>
      <trkpt lat="47.78494" lon="-3.39361">
        <ele>33</ele>
        <time>2019-07-17T14:19:03Z</time>
      </trkpt>
      <trkpt lat="47.78493" lon="-3.39355">
        <ele>33</ele>
        <time>2019-07-17T14:19:04Z</time>
      </trkpt>
      <trkpt lat="47.78492" lon="-3.39347">
        <ele>33</ele>
        <time>2019-07-17T14:19:05Z</time>
      </trkpt>
      <trkpt lat="47.7849" lon="-3.39339">
        <ele>33</ele>
        <time>2019-07-17T14:19:06Z</time>
      </trkpt>
      <trkpt lat="47.78489" lon="-3.39332">
        <ele>33</ele>
        <time>2019-07-17T14:19:07Z</time>
      </trkpt>
      <trkpt lat="47.78487" lon="-3.39323">
        <ele>32</ele>
        <time>2019-07-17T14:19:08Z</time>
      </trkpt>
      <trkpt lat="47.78485" lon="-3.39313">
        <ele>32</ele>
        <time>2019-07-17T14:19:09Z</time>
      </trkpt>
      <trkpt lat="47.78481" lon="-3.39303">
        <ele>32</ele>
        <time>2019-07-17T14:19:10Z</time>
      </trkpt>
      <trkpt lat="47.78478" lon="-3.39293">
        <ele>32</ele>
        <time>2019-07-17T14:19:11Z</time>
      </trkpt>
      <trkpt lat="47.78473" lon="-3.39286">
        <ele>32</ele>
        <time>2019-07-17T14:19:12Z</time>
      </trkpt>
      <trkpt lat="47.78469" lon="-3.39279">
        <ele>32</ele>
        <time>2019-07-17T14:19:13Z</time>
      </trkpt>
      <trkpt lat="47.78466" lon="-3.39273">
        <ele>32</ele>
        <time>2019-07-17T14:19:14Z</time>
      </trkpt>
      <trkpt lat="47.78463" lon="-3.3927">
        <ele>32</ele>
        <time>2019-07-17T14:19:15Z</time>
      </trkpt>
      <trkpt lat="47.78461" lon="-3.39266">
        <ele>32</ele>
        <time>2019-07-17T14:19:16Z</time>
      </trkpt>
      <trkpt lat="47.78455" lon="-3.39259">
        <ele>32</ele>
        <time>2019-07-17T14:19:17Z</time>
      </trkpt>
      <trkpt lat="47.78455" lon="-3.39259">
        <ele>32</ele>
        <time>2019-07-17T14:19:18Z</time>
      </trkpt>
      <trkpt lat="47.7845" lon="-3.39252">
        <ele>31</ele>
        <time>2019-07-17T14:19:19Z</time>
      </trkpt>
      <trkpt lat="47.7845" lon="-3.39252">
        <ele>31</ele>
        <time>2019-07-17T14:19:20Z</time>
      </trkpt>
      <trkpt lat="47.78448" lon="-3.39247">
        <ele>31</ele>
        <time>2019-07-17T14:19:21Z</time>
      </trkpt>
      <trkpt lat="47.78446" lon="-3.39243">
        <ele>31</ele>
        <time>2019-07-17T14:19:22Z</time>
      </trkpt>
      <trkpt lat="47.78444" lon="-3.39238">
        <ele>31</ele>
        <time>2019-07-17T14:19:23Z</time>
      </trkpt>
      <trkpt lat="47.78441" lon="-3.39233">
        <ele>31</ele>
        <time>2019-07-17T14:19:24Z</time>
      </trkpt>
      <trkpt lat="47.78437" lon="-3.39229">
        <ele>31</ele>
        <time>2019-07-17T14:19:25Z</time>
      </trkpt>
      <trkpt lat="47.78433" lon="-3.39225">
        <ele>31</ele>
        <time>2019-07-17T14:19:26Z</time>
      </trkpt>
      <trkpt lat="47.78429" lon="-3.3922">
        <ele>31</ele>
        <time>2019-07-17T14:19:27Z</time>
      </trkpt>
      <trkpt lat="47.78424" lon="-3.39215">
        <ele>31</ele>
        <time>2019-07-17T14:19:28Z</time>
      </trkpt>
      <trkpt lat="47.7842" lon="-3.39209">
        <ele>31</ele>
        <time>2019-07-17T14:19:29Z</time>
      </trkpt>
      <trkpt lat="47.78417" lon="-3.39203">
        <ele>30</ele>
        <time>2019-07-17T14:19:30Z</time>
      </trkpt>
      <trkpt lat="47.78415" lon="-3.39195">
        <ele>30</ele>
        <time>2019-07-17T14:19:31Z</time>
      </trkpt>
      <trkpt lat="47.78414" lon="-3.39187">
        <ele>30</ele>
        <time>2019-07-17T14:19:32Z</time>
      </trkpt>
      <trkpt lat="47.78412" lon="-3.39179">
        <ele>30</ele>
        <time>2019-07-17T14:19:33Z</time>
      </trkpt>
      <trkpt lat="47.78411" lon="-3.39172">
        <ele>30</ele>
        <time>2019-07-17T14:19:34Z</time>
      </trkpt>
      <trkpt lat="47.78411" lon="-3.39165">
        <ele>30</ele>
        <time>2019-07-17T14:19:35Z</time>
      </trkpt>
      <trkpt lat="47.78411" lon="-3.39159">
        <ele>30</ele>
        <time>2019-07-17T14:19:36Z</time>
      </trkpt>
      <trkpt lat="47.7841" lon="-3.39152">
        <ele>30</ele>
        <time>2019-07-17T14:19:37Z</time>
      </trkpt>
      <trkpt lat="47.78411" lon="-3.39143">
        <ele>30</ele>
        <time>2019-07-17T14:19:38Z</time>
      </trkpt>
      <trkpt lat="47.7841" lon="-3.39135">
        <ele>30</ele>
        <time>2019-07-17T14:19:39Z</time>
      </trkpt>
      <trkpt lat="47.7841" lon="-3.39127">
        <ele>30</ele>
        <time>2019-07-17T14:19:40Z</time>
      </trkpt>
      <trkpt lat="47.7841" lon="-3.39119">
        <ele>30</ele>
        <time>2019-07-17T14:19:41Z</time>
      </trkpt>
      <trkpt lat="47.78409" lon="-3.39113">
        <ele>30</ele>
        <time>2019-07-17T14:19:42Z</time>
      </trkpt>
      <trkpt lat="47.78409" lon="-3.39108">
        <ele>30</ele>
        <time>2019-07-17T14:19:43Z</time>
      </trkpt>
      <trkpt lat="47.78409" lon="-3.39102">
        <ele>30</ele>
        <time>2019-07-17T14:19:44Z</time>
      </trkpt>
      <trkpt lat="47.7841" lon="-3.39097">
        <ele>30</ele>
        <time>2019-07-17T14:19:45Z</time>
      </trkpt>
      <trkpt lat="47.7841" lon="-3.39092">
        <ele>30</ele>
        <time>2019-07-17T14:19:46Z</time>
      </trkpt>
      <trkpt lat="47.7841" lon="-3.39086">
        <ele>30</ele>
        <time>2019-07-17T14:19:47Z</time>
      </trkpt>
      <trkpt lat="47.7841" lon="-3.39081">
        <ele>30</ele>
        <time>2019-07-17T14:19:48Z</time>
      </trkpt>
      <trkpt lat="47.7841" lon="-3.39076">
        <ele>30</ele>
        <time>2019-07-17T14:19:49Z</time>
      </trkpt>
      <trkpt lat="47.78411" lon="-3.3907">
        <ele>30</ele>
        <time>2019-07-17T14:19:50Z</time>
      </trkpt>
      <trkpt lat="47.78412" lon="-3.39065">
        <ele>30</ele>
        <time>2019-07-17T14:19:51Z</time>
      </trkpt>
      <trkpt lat="47.78413" lon="-3.3906">
        <ele>30</ele>
        <time>2019-07-17T14:19:52Z</time>
      </trkpt>
      <trkpt lat="47.78415" lon="-3.39056">
        <ele>30</ele>
        <time>2019-07-17T14:19:53Z</time>
      </trkpt>
      <trkpt lat="47.78416" lon="-3.3905">
        <ele>30</ele>
        <time>2019-07-17T14:19:54Z</time>
      </trkpt>
      <trkpt lat="47.78417" lon="-3.39045">
        <ele>30</ele>
        <time>2019-07-17T14:19:55Z</time>
      </trkpt>
      <trkpt lat="47.78418" lon="-3.3904">
        <ele>30</ele>
        <time>2019-07-17T14:19:56Z</time>
      </trkpt>
      <trkpt lat="47.7842" lon="-3.39035">
        <ele>30</ele>
        <time>2019-07-17T14:19:57Z</time>
      </trkpt>
      <trkpt lat="47.78422" lon="-3.39029">
        <ele>30</ele>
        <time>2019-07-17T14:19:58Z</time>
      </trkpt>
      <trkpt lat="47.78424" lon="-3.39022">
        <ele>30</ele>
        <time>2019-07-17T14:19:59Z</time>
      </trkpt>
      <trkpt lat="47.78427" lon="-3.39014">
        <ele>30</ele>
        <time>2019-07-17T14:20:00Z</time>
      </trkpt>
      <trkpt lat="47.7843" lon="-3.39007">
        <ele>30</ele>
        <time>2019-07-17T14:20:01Z</time>
      </trkpt>
      <trkpt lat="47.78432" lon="-3.38999">
        <ele>30</ele>
        <time>2019-07-17T14:20:02Z</time>
      </trkpt>
      <trkpt lat="47.78434" lon="-3.38993">
        <ele>30</ele>
        <time>2019-07-17T14:20:03Z</time>
      </trkpt>
      <trkpt lat="47.78436" lon="-3.38985">
        <ele>30</ele>
        <time>2019-07-17T14:20:04Z</time>
      </trkpt>
      <trkpt lat="47.78437" lon="-3.38976">
        <ele>30</ele>
        <time>2019-07-17T14:20:05Z</time>
      </trkpt>
      <trkpt lat="47.78436" lon="-3.38968">
        <ele>30</ele>
        <time>2019-07-17T14:20:06Z</time>
      </trkpt>
      <trkpt lat="47.78436" lon="-3.38961">
        <ele>30</ele>
        <time>2019-07-17T14:20:07Z</time>
      </trkpt>
      <trkpt lat="47.78434" lon="-3.38955">
        <ele>29</ele>
        <time>2019-07-17T14:20:08Z</time>
      </trkpt>
      <trkpt lat="47.78433" lon="-3.3895">
        <ele>29</ele>
        <time>2019-07-17T14:20:09Z</time>
      </trkpt>
      <trkpt lat="47.78432" lon="-3.38946">
        <ele>29</ele>
        <time>2019-07-17T14:20:10Z</time>
      </trkpt>
      <trkpt lat="47.7843" lon="-3.38941">
        <ele>29</ele>
        <time>2019-07-17T14:20:11Z</time>
      </trkpt>
      <trkpt lat="47.78429" lon="-3.38937">
        <ele>29</ele>
        <time>2019-07-17T14:20:12Z</time>
      </trkpt>
      <trkpt lat="47.78428" lon="-3.38933">
        <ele>29</ele>
        <time>2019-07-17T14:20:13Z</time>
      </trkpt>
      <trkpt lat="47.78426" lon="-3.38929">
        <ele>29</ele>
        <time>2019-07-17T14:20:14Z</time>
      </trkpt>
      <trkpt lat="47.78425" lon="-3.38924">
        <ele>29</ele>
        <time>2019-07-17T14:20:15Z</time>
      </trkpt>
      <trkpt lat="47.78424" lon="-3.38918">
        <ele>29</ele>
        <time>2019-07-17T14:20:16Z</time>
      </trkpt>
      <trkpt lat="47.78424" lon="-3.38913">
        <ele>29</ele>
        <time>2019-07-17T14:20:17Z</time>
      </trkpt>
      <trkpt lat="47.78423" lon="-3.38907">
        <ele>29</ele>
        <time>2019-07-17T14:20:18Z</time>
      </trkpt>
      <trkpt lat="47.78423" lon="-3.38901">
        <ele>29</ele>
        <time>2019-07-17T14:20:19Z</time>
      </trkpt>
      <trkpt lat="47.78423" lon="-3.38895">
        <ele>29</ele>
        <time>2019-07-17T14:20:20Z</time>
      </trkpt>
      <trkpt lat="47.78423" lon="-3.3889">
        <ele>29</ele>
        <time>2019-07-17T14:20:21Z</time>
      </trkpt>
      <trkpt lat="47.78424" lon="-3.38885">
        <ele>29</ele>
        <time>2019-07-17T14:20:22Z</time>
      </trkpt>
      <trkpt lat="47.78424" lon="-3.38881">
        <ele>29</ele>
        <time>2019-07-17T14:20:23Z</time>
      </trkpt>
      <trkpt lat="47.78425" lon="-3.38876">
        <ele>29</ele>
        <time>2019-07-17T14:20:24Z</time>
      </trkpt>
      <trkpt lat="47.78425" lon="-3.38871">
        <ele>29</ele>
        <time>2019-07-17T14:20:25Z</time>
      </trkpt>
      <trkpt lat="47.78426" lon="-3.38865">
        <ele>29</ele>
        <time>2019-07-17T14:20:26Z</time>
      </trkpt>
      <trkpt lat="47.78426" lon="-3.3886">
        <ele>29</ele>
        <time>2019-07-17T14:20:27Z</time>
      </trkpt>
      <trkpt lat="47.78426" lon="-3.38854">
        <ele>29</ele>
        <time>2019-07-17T14:20:28Z</time>
      </trkpt>
      <trkpt lat="47.78426" lon="-3.38848">
        <ele>29</ele>
        <time>2019-07-17T14:20:29Z</time>
      </trkpt>
      <trkpt lat="47.78426" lon="-3.38842">
        <ele>29</ele>
        <time>2019-07-17T14:20:30Z</time>
      </trkpt>
      <trkpt lat="47.78425" lon="-3.38836">
        <ele>29</ele>
        <time>2019-07-17T14:20:31Z</time>
      </trkpt>
      <trkpt lat="47.78424" lon="-3.3883">
        <ele>29</ele>
        <time>2019-07-17T14:20:32Z</time>
      </trkpt>
      <trkpt lat="47.78422" lon="-3.38824">
        <ele>29</ele>
        <time>2019-07-17T14:20:33Z</time>
      </trkpt>
      <trkpt lat="47.78421" lon="-3.38818">
        <ele>29</ele>
        <time>2019-07-17T14:20:34Z</time>
      </trkpt>
      <trkpt lat="47.78419" lon="-3.38811">
        <ele>29</ele>
        <time>2019-07-17T14:20:35Z</time>
      </trkpt>
      <trkpt lat="47.78418" lon="-3.38804">
        <ele>29</ele>
        <time>2019-07-17T14:20:36Z</time>
      </trkpt>
      <trkpt lat="47.78418" lon="-3.38797">
        <ele>30</ele>
        <time>2019-07-17T14:20:37Z</time>
      </trkpt>
      <trkpt lat="47.78417" lon="-3.3879">
        <ele>30</ele>
        <time>2019-07-17T14:20:38Z</time>
      </trkpt>
      <trkpt lat="47.78416" lon="-3.38783">
        <ele>30</ele>
        <time>2019-07-17T14:20:39Z</time>
      </trkpt>
      <trkpt lat="47.78416" lon="-3.38776">
        <ele>30</ele>
        <time>2019-07-17T14:20:40Z</time>
      </trkpt>
      <trkpt lat="47.78416" lon="-3.38769">
        <ele>30</ele>
        <time>2019-07-17T14:20:41Z</time>
      </trkpt>
      <trkpt lat="47.78415" lon="-3.38762">
        <ele>30</ele>
        <time>2019-07-17T14:20:42Z</time>
      </trkpt>
      <trkpt lat="47.78415" lon="-3.38754">
        <ele>30</ele>
        <time>2019-07-17T14:20:43Z</time>
      </trkpt>
      <trkpt lat="47.78415" lon="-3.38745">
        <ele>30</ele>
        <time>2019-07-17T14:20:44Z</time>
      </trkpt>
      <trkpt lat="47.78415" lon="-3.38736">
        <ele>30</ele>
        <time>2019-07-17T14:20:45Z</time>
      </trkpt>
      <trkpt lat="47.78415" lon="-3.38728">
        <ele>30</ele>
        <time>2019-07-17T14:20:46Z</time>
      </trkpt>
      <trkpt lat="47.78415" lon="-3.3872">
        <ele>31</ele>
        <time>2019-07-17T14:20:47Z</time>
      </trkpt>
      <trkpt lat="47.78415" lon="-3.3871">
        <ele>31</ele>
        <time>2019-07-17T14:20:48Z</time>
      </trkpt>
      <trkpt lat="47.78414" lon="-3.38702">
        <ele>31</ele>
        <time>2019-07-17T14:20:49Z</time>
      </trkpt>
      <trkpt lat="47.78413" lon="-3.38693">
        <ele>31</ele>
        <time>2019-07-17T14:20:50Z</time>
      </trkpt>
      <trkpt lat="47.78413" lon="-3.38687">
        <ele>31</ele>
        <time>2019-07-17T14:20:51Z</time>
      </trkpt>
      <trkpt lat="47.78414" lon="-3.38683">
        <ele>30</ele>
        <time>2019-07-17T14:20:52Z</time>
      </trkpt>
      <trkpt lat="47.78416" lon="-3.38681">
        <ele>30</ele>
        <time>2019-07-17T14:20:53Z</time>
      </trkpt>
      <trkpt lat="47.7842" lon="-3.3868">
        <ele>30</ele>
        <time>2019-07-17T14:20:54Z</time>
      </trkpt>
      <trkpt lat="47.78425" lon="-3.38678">
        <ele>30</ele>
        <time>2019-07-17T14:20:55Z</time>
      </trkpt>
      <trkpt lat="47.78429" lon="-3.38677">
        <ele>30</ele>
        <time>2019-07-17T14:20:56Z</time>
      </trkpt>
      <trkpt lat="47.78434" lon="-3.38675">
        <ele>30</ele>
        <time>2019-07-17T14:20:57Z</time>
      </trkpt>
      <trkpt lat="47.78439" lon="-3.38675">
        <ele>30</ele>
        <time>2019-07-17T14:20:58Z</time>
      </trkpt>
      <trkpt lat="47.78444" lon="-3.38674">
        <ele>30</ele>
        <time>2019-07-17T14:20:59Z</time>
      </trkpt>
      <trkpt lat="47.78448" lon="-3.38673">
        <ele>30</ele>
        <time>2019-07-17T14:21:00Z</time>
      </trkpt>
      <trkpt lat="47.78452" lon="-3.38672">
        <ele>30</ele>
        <time>2019-07-17T14:21:01Z</time>
      </trkpt>
      <trkpt lat="47.78455" lon="-3.38671">
        <ele>30</ele>
        <time>2019-07-17T14:21:02Z</time>
      </trkpt>
      <trkpt lat="47.78459" lon="-3.38668">
        <ele>30</ele>
        <time>2019-07-17T14:21:03Z</time>
      </trkpt>
      <trkpt lat="47.78462" lon="-3.38665">
        <ele>30</ele>
        <time>2019-07-17T14:21:04Z</time>
      </trkpt>
      <trkpt lat="47.78464" lon="-3.3866">
        <ele>30</ele>
        <time>2019-07-17T14:21:05Z</time>
      </trkpt>
      <trkpt lat="47.78466" lon="-3.38656">
        <ele>30</ele>
        <time>2019-07-17T14:21:06Z</time>
      </trkpt>
      <trkpt lat="47.78468" lon="-3.38654">
        <ele>30</ele>
        <time>2019-07-17T14:21:07Z</time>
      </trkpt>
      <trkpt lat="47.78468" lon="-3.38653">
        <ele>30</ele>
        <time>2019-07-17T14:21:08Z</time>
      </trkpt>
      <trkpt lat="47.78469" lon="-3.38653">
        <ele>30</ele>
        <time>2019-07-17T14:21:09Z</time>
      </trkpt>
      <trkpt lat="47.78469" lon="-3.38652">
        <ele>30</ele>
        <time>2019-07-17T14:21:10Z</time>
      </trkpt>
      <trkpt lat="47.78474" lon="-3.38649">
        <ele>30</ele>
        <time>2019-07-17T14:21:11Z</time>
      </trkpt>
      <trkpt lat="47.78477" lon="-3.38649">
        <ele>30</ele>
        <time>2019-07-17T14:21:12Z</time>
      </trkpt>
      <trkpt lat="47.7848" lon="-3.3865">
        <ele>30</ele>
        <time>2019-07-17T14:21:13Z</time>
      </trkpt>
      <trkpt lat="47.78484" lon="-3.38651">
        <ele>30</ele>
        <time>2019-07-17T14:21:14Z</time>
      </trkpt>
      <trkpt lat="47.78487" lon="-3.38652">
        <ele>30</ele>
        <time>2019-07-17T14:21:15Z</time>
      </trkpt>
      <trkpt lat="47.7849" lon="-3.38653">
        <ele>30</ele>
        <time>2019-07-17T14:21:16Z</time>
      </trkpt>
      <trkpt lat="47.78494" lon="-3.38654">
        <ele>30</ele>
        <time>2019-07-17T14:21:17Z</time>
      </trkpt>
      <trkpt lat="47.78497" lon="-3.38656">
        <ele>29</ele>
        <time>2019-07-17T14:21:18Z</time>
      </trkpt>
      <trkpt lat="47.78501" lon="-3.38656">
        <ele>29</ele>
        <time>2019-07-17T14:21:19Z</time>
      </trkpt>
      <trkpt lat="47.78505" lon="-3.38657">
        <ele>29</ele>
        <time>2019-07-17T14:21:20Z</time>
      </trkpt>
      <trkpt lat="47.78509" lon="-3.38657">
        <ele>29</ele>
        <time>2019-07-17T14:21:21Z</time>
      </trkpt>
      <trkpt lat="47.78512" lon="-3.38658">
        <ele>29</ele>
        <time>2019-07-17T14:21:22Z</time>
      </trkpt>
      <trkpt lat="47.78515" lon="-3.3866">
        <ele>29</ele>
        <time>2019-07-17T14:21:23Z</time>
      </trkpt>
      <trkpt lat="47.78518" lon="-3.38662">
        <ele>29</ele>
        <time>2019-07-17T14:21:24Z</time>
      </trkpt>
      <trkpt lat="47.78521" lon="-3.38663">
        <ele>29</ele>
        <time>2019-07-17T14:21:25Z</time>
      </trkpt>
      <trkpt lat="47.78523" lon="-3.38666">
        <ele>29</ele>
        <time>2019-07-17T14:21:26Z</time>
      </trkpt>
      <trkpt lat="47.78525" lon="-3.38668">
        <ele>29</ele>
        <time>2019-07-17T14:21:27Z</time>
      </trkpt>
      <trkpt lat="47.78528" lon="-3.3867">
        <ele>29</ele>
        <time>2019-07-17T14:21:28Z</time>
      </trkpt>
      <trkpt lat="47.78531" lon="-3.38673">
        <ele>29</ele>
        <time>2019-07-17T14:21:29Z</time>
      </trkpt>
      <trkpt lat="47.78534" lon="-3.38675">
        <ele>29</ele>
        <time>2019-07-17T14:21:30Z</time>
      </trkpt>
      <trkpt lat="47.78537" lon="-3.38678">
        <ele>29</ele>
        <time>2019-07-17T14:21:31Z</time>
      </trkpt>
      <trkpt lat="47.7854" lon="-3.3868">
        <ele>29</ele>
        <time>2019-07-17T14:21:32Z</time>
      </trkpt>
      <trkpt lat="47.78542" lon="-3.38683">
        <ele>29</ele>
        <time>2019-07-17T14:21:33Z</time>
      </trkpt>
      <trkpt lat="47.78545" lon="-3.38686">
        <ele>29</ele>
        <time>2019-07-17T14:21:34Z</time>
      </trkpt>
      <trkpt lat="47.78548" lon="-3.38689">
        <ele>29</ele>
        <time>2019-07-17T14:21:35Z</time>
      </trkpt>
      <trkpt lat="47.78552" lon="-3.38692">
        <ele>29</ele>
        <time>2019-07-17T14:21:36Z</time>
      </trkpt>
      <trkpt lat="47.78555" lon="-3.38696">
        <ele>29</ele>
        <time>2019-07-17T14:21:37Z</time>
      </trkpt>
      <trkpt lat="47.78558" lon="-3.38699">
        <ele>29</ele>
        <time>2019-07-17T14:21:38Z</time>
      </trkpt>
      <trkpt lat="47.78561" lon="-3.38702">
        <ele>29</ele>
        <time>2019-07-17T14:21:39Z</time>
      </trkpt>
      <trkpt lat="47.78564" lon="-3.38705">
        <ele>28</ele>
        <time>2019-07-17T14:21:40Z</time>
      </trkpt>
      <trkpt lat="47.78568" lon="-3.38709">
        <ele>28</ele>
        <time>2019-07-17T14:21:41Z</time>
      </trkpt>
      <trkpt lat="47.78571" lon="-3.38713">
        <ele>28</ele>
        <time>2019-07-17T14:21:42Z</time>
      </trkpt>
      <trkpt lat="47.78574" lon="-3.38716">
        <ele>28</ele>
        <time>2019-07-17T14:21:43Z</time>
      </trkpt>
      <trkpt lat="47.78577" lon="-3.38719">
        <ele>28</ele>
        <time>2019-07-17T14:21:44Z</time>
      </trkpt>
      <trkpt lat="47.78581" lon="-3.38722">
        <ele>29</ele>
        <time>2019-07-17T14:21:45Z</time>
      </trkpt>
      <trkpt lat="47.78584" lon="-3.38725">
        <ele>29</ele>
        <time>2019-07-17T14:21:46Z</time>
      </trkpt>
      <trkpt lat="47.78588" lon="-3.38728">
        <ele>29</ele>
        <time>2019-07-17T14:21:47Z</time>
      </trkpt>
      <trkpt lat="47.78592" lon="-3.38732">
        <ele>29</ele>
        <time>2019-07-17T14:21:48Z</time>
      </trkpt>
      <trkpt lat="47.78596" lon="-3.38734">
        <ele>29</ele>
        <time>2019-07-17T14:21:49Z</time>
      </trkpt>
      <trkpt lat="47.78599" lon="-3.38737">
        <ele>29</ele>
        <time>2019-07-17T14:21:50Z</time>
      </trkpt>
      <trkpt lat="47.78603" lon="-3.38741">
        <ele>29</ele>
        <time>2019-07-17T14:21:51Z</time>
      </trkpt>
      <trkpt lat="47.78608" lon="-3.38744">
        <ele>29</ele>
        <time>2019-07-17T14:21:52Z</time>
      </trkpt>
      <trkpt lat="47.78612" lon="-3.38747">
        <ele>29</ele>
        <time>2019-07-17T14:21:53Z</time>
      </trkpt>
      <trkpt lat="47.78616" lon="-3.38749">
        <ele>29</ele>
        <time>2019-07-17T14:21:54Z</time>
      </trkpt>
      <trkpt lat="47.78619" lon="-3.38752">
        <ele>29</ele>
        <time>2019-07-17T14:21:55Z</time>
      </trkpt>
      <trkpt lat="47.78623" lon="-3.38755">
        <ele>29</ele>
        <time>2019-07-17T14:21:56Z</time>
      </trkpt>
      <trkpt lat="47.78627" lon="-3.38758">
        <ele>29</ele>
        <time>2019-07-17T14:21:57Z</time>
      </trkpt>
      <trkpt lat="47.78631" lon="-3.38761">
        <ele>29</ele>
        <time>2019-07-17T14:21:58Z</time>
      </trkpt>
      <trkpt lat="47.78635" lon="-3.38763">
        <ele>30</ele>
        <time>2019-07-17T14:21:59Z</time>
      </trkpt>
      <trkpt lat="47.78638" lon="-3.38765">
        <ele>30</ele>
        <time>2019-07-17T14:22:00Z</time>
      </trkpt>
      <trkpt lat="47.78642" lon="-3.38767">
        <ele>30</ele>
        <time>2019-07-17T14:22:01Z</time>
      </trkpt>
      <trkpt lat="47.78645" lon="-3.38768">
        <ele>30</ele>
        <time>2019-07-17T14:22:02Z</time>
      </trkpt>
      <trkpt lat="47.78649" lon="-3.38771">
        <ele>30</ele>
        <time>2019-07-17T14:22:03Z</time>
      </trkpt>
      <trkpt lat="47.78653" lon="-3.38773">
        <ele>30</ele>
        <time>2019-07-17T14:22:04Z</time>
      </trkpt>
      <trkpt lat="47.78656" lon="-3.38776">
        <ele>30</ele>
        <time>2019-07-17T14:22:05Z</time>
      </trkpt>
      <trkpt lat="47.7866" lon="-3.38778">
        <ele>30</ele>
        <time>2019-07-17T14:22:06Z</time>
      </trkpt>
      <trkpt lat="47.78664" lon="-3.3878">
        <ele>30</ele>
        <time>2019-07-17T14:22:07Z</time>
      </trkpt>
      <trkpt lat="47.78666" lon="-3.3878">
        <ele>30</ele>
        <time>2019-07-17T14:22:08Z</time>
      </trkpt>
      <trkpt lat="47.78669" lon="-3.38779">
        <ele>31</ele>
        <time>2019-07-17T14:22:09Z</time>
      </trkpt>
      <trkpt lat="47.78672" lon="-3.38778">
        <ele>30</ele>
        <time>2019-07-17T14:22:10Z</time>
      </trkpt>
      <trkpt lat="47.78675" lon="-3.38777">
        <ele>30</ele>
        <time>2019-07-17T14:22:11Z</time>
      </trkpt>
      <trkpt lat="47.78678" lon="-3.38778">
        <ele>30</ele>
        <time>2019-07-17T14:22:12Z</time>
      </trkpt>
      <trkpt lat="47.78681" lon="-3.38778">
        <ele>30</ele>
        <time>2019-07-17T14:22:13Z</time>
      </trkpt>
      <trkpt lat="47.78684" lon="-3.38778">
        <ele>30</ele>
        <time>2019-07-17T14:22:14Z</time>
      </trkpt>
      <trkpt lat="47.78687" lon="-3.38777">
        <ele>30</ele>
        <time>2019-07-17T14:22:15Z</time>
      </trkpt>
      <trkpt lat="47.7869" lon="-3.38772">
        <ele>30</ele>
        <time>2019-07-17T14:22:16Z</time>
      </trkpt>
      <trkpt lat="47.78692" lon="-3.38766">
        <ele>30</ele>
        <time>2019-07-17T14:22:17Z</time>
      </trkpt>
      <trkpt lat="47.78693" lon="-3.38759">
        <ele>29</ele>
        <time>2019-07-17T14:22:18Z</time>
      </trkpt>
      <trkpt lat="47.78694" lon="-3.38752">
        <ele>29</ele>
        <time>2019-07-17T14:22:19Z</time>
      </trkpt>
      <trkpt lat="47.78695" lon="-3.38747">
        <ele>28</ele>
        <time>2019-07-17T14:22:20Z</time>
      </trkpt>
      <trkpt lat="47.78696" lon="-3.38741">
        <ele>28</ele>
        <time>2019-07-17T14:22:21Z</time>
      </trkpt>
      <trkpt lat="47.78697" lon="-3.38735">
        <ele>27</ele>
        <time>2019-07-17T14:22:22Z</time>
      </trkpt>
      <trkpt lat="47.78698" lon="-3.38729">
        <ele>27</ele>
        <time>2019-07-17T14:22:23Z</time>
      </trkpt>
      <trkpt lat="47.78699" lon="-3.38721">
        <ele>26</ele>
        <time>2019-07-17T14:22:24Z</time>
      </trkpt>
      <trkpt lat="47.787" lon="-3.38712">
        <ele>25</ele>
        <time>2019-07-17T14:22:25Z</time>
      </trkpt>
      <trkpt lat="47.78701" lon="-3.38703">
        <ele>24</ele>
        <time>2019-07-17T14:22:26Z</time>
      </trkpt>
      <trkpt lat="47.78702" lon="-3.38694">
        <ele>24</ele>
        <time>2019-07-17T14:22:27Z</time>
      </trkpt>
      <trkpt lat="47.78704" lon="-3.38685">
        <ele>23</ele>
        <time>2019-07-17T14:22:28Z</time>
      </trkpt>
      <trkpt lat="47.78706" lon="-3.38676">
        <ele>22</ele>
        <time>2019-07-17T14:22:29Z</time>
      </trkpt>
      <trkpt lat="47.78708" lon="-3.38668">
        <ele>22</ele>
        <time>2019-07-17T14:22:30Z</time>
      </trkpt>
      <trkpt lat="47.7871" lon="-3.38659">
        <ele>21</ele>
        <time>2019-07-17T14:22:31Z</time>
      </trkpt>
      <trkpt lat="47.7871" lon="-3.38651">
        <ele>21</ele>
        <time>2019-07-17T14:22:32Z</time>
      </trkpt>
      <trkpt lat="47.7871" lon="-3.38643">
        <ele>20</ele>
        <time>2019-07-17T14:22:33Z</time>
      </trkpt>
      <trkpt lat="47.7871" lon="-3.38635">
        <ele>20</ele>
        <time>2019-07-17T14:22:34Z</time>
      </trkpt>
      <trkpt lat="47.7871" lon="-3.38627">
        <ele>20</ele>
        <time>2019-07-17T14:22:35Z</time>
      </trkpt>
      <trkpt lat="47.7871" lon="-3.38619">
        <ele>20</ele>
        <time>2019-07-17T14:22:36Z</time>
      </trkpt>
      <trkpt lat="47.7871" lon="-3.38612">
        <ele>20</ele>
        <time>2019-07-17T14:22:37Z</time>
      </trkpt>
      <trkpt lat="47.7871" lon="-3.38604">
        <ele>19</ele>
        <time>2019-07-17T14:22:38Z</time>
      </trkpt>
      <trkpt lat="47.7871" lon="-3.38596">
        <ele>19</ele>
        <time>2019-07-17T14:22:39Z</time>
      </trkpt>
      <trkpt lat="47.7871" lon="-3.38587">
        <ele>19</ele>
        <time>2019-07-17T14:22:40Z</time>
      </trkpt>
      <trkpt lat="47.78709" lon="-3.38579">
        <ele>19</ele>
        <time>2019-07-17T14:22:41Z</time>
      </trkpt>
      <trkpt lat="47.78708" lon="-3.3857">
        <ele>19</ele>
        <time>2019-07-17T14:22:42Z</time>
      </trkpt>
      <trkpt lat="47.78707" lon="-3.3856">
        <ele>18</ele>
        <time>2019-07-17T14:22:43Z</time>
      </trkpt>
      <trkpt lat="47.78707" lon="-3.38549">
        <ele>18</ele>
        <time>2019-07-17T14:22:44Z</time>
      </trkpt>
      <trkpt lat="47.78707" lon="-3.3854">
        <ele>18</ele>
        <time>2019-07-17T14:22:45Z</time>
      </trkpt>
      <trkpt lat="47.78707" lon="-3.3853">
        <ele>18</ele>
        <time>2019-07-17T14:22:46Z</time>
      </trkpt>
      <trkpt lat="47.78706" lon="-3.38519">
        <ele>18</ele>
        <time>2019-07-17T14:22:47Z</time>
      </trkpt>
      <trkpt lat="47.78705" lon="-3.38508">
        <ele>17</ele>
        <time>2019-07-17T14:22:48Z</time>
      </trkpt>
      <trkpt lat="47.78705" lon="-3.38497">
        <ele>17</ele>
        <time>2019-07-17T14:22:49Z</time>
      </trkpt>
      <trkpt lat="47.78705" lon="-3.38486">
        <ele>17</ele>
        <time>2019-07-17T14:22:50Z</time>
      </trkpt>
      <trkpt lat="47.78706" lon="-3.38474">
        <ele>17</ele>
        <time>2019-07-17T14:22:51Z</time>
      </trkpt>
      <trkpt lat="47.78705" lon="-3.38462">
        <ele>16</ele>
        <time>2019-07-17T14:22:52Z</time>
      </trkpt>
      <trkpt lat="47.78705" lon="-3.38452">
        <ele>16</ele>
        <time>2019-07-17T14:22:53Z</time>
      </trkpt>
      <trkpt lat="47.78704" lon="-3.38444">
        <ele>16</ele>
        <time>2019-07-17T14:22:54Z</time>
      </trkpt>
      <trkpt lat="47.78704" lon="-3.38437">
        <ele>15</ele>
        <time>2019-07-17T14:22:55Z</time>
      </trkpt>
      <trkpt lat="47.78703" lon="-3.3843">
        <ele>15</ele>
        <time>2019-07-17T14:22:56Z</time>
      </trkpt>
      <trkpt lat="47.78702" lon="-3.38425">
        <ele>15</ele>
        <time>2019-07-17T14:22:57Z</time>
      </trkpt>
      <trkpt lat="47.78699" lon="-3.3842">
        <ele>14</ele>
        <time>2019-07-17T14:22:58Z</time>
      </trkpt>
      <trkpt lat="47.78696" lon="-3.38415">
        <ele>14</ele>
        <time>2019-07-17T14:22:59Z</time>
      </trkpt>
      <trkpt lat="47.78693" lon="-3.38412">
        <ele>14</ele>
        <time>2019-07-17T14:23:00Z</time>
      </trkpt>
      <trkpt lat="47.78691" lon="-3.38407">
        <ele>13</ele>
        <time>2019-07-17T14:23:01Z</time>
      </trkpt>
      <trkpt lat="47.7869" lon="-3.38401">
        <ele>13</ele>
        <time>2019-07-17T14:23:02Z</time>
      </trkpt>
      <trkpt lat="47.78691" lon="-3.38396">
        <ele>13</ele>
        <time>2019-07-17T14:23:03Z</time>
      </trkpt>
      <trkpt lat="47.78693" lon="-3.38393">
        <ele>12</ele>
        <time>2019-07-17T14:23:04Z</time>
      </trkpt>
      <trkpt lat="47.78695" lon="-3.38393">
        <ele>12</ele>
        <time>2019-07-17T14:23:05Z</time>
      </trkpt>
      <trkpt lat="47.78697" lon="-3.38394">
        <ele>12</ele>
        <time>2019-07-17T14:23:06Z</time>
      </trkpt>
      <trkpt lat="47.787" lon="-3.38395">
        <ele>12</ele>
        <time>2019-07-17T14:23:07Z</time>
      </trkpt>
      <trkpt lat="47.78702" lon="-3.38395">
        <ele>11</ele>
        <time>2019-07-17T14:23:08Z</time>
      </trkpt>
      <trkpt lat="47.78705" lon="-3.38395">
        <ele>11</ele>
        <time>2019-07-17T14:23:09Z</time>
      </trkpt>
      <trkpt lat="47.78707" lon="-3.38396">
        <ele>11</ele>
        <time>2019-07-17T14:23:10Z</time>
      </trkpt>
      <trkpt lat="47.78709" lon="-3.38398">
        <ele>10</ele>
        <time>2019-07-17T14:23:11Z</time>
      </trkpt>
      <trkpt lat="47.7871" lon="-3.38398">
        <ele>10</ele>
        <time>2019-07-17T14:23:12Z</time>
      </trkpt>
      <trkpt lat="47.78711" lon="-3.38398">
        <ele>10</ele>
        <time>2019-07-17T14:23:13Z</time>
      </trkpt>
      <trkpt lat="47.78712" lon="-3.38398">
        <ele>10</ele>
        <time>2019-07-17T14:23:14Z</time>
      </trkpt>
      <trkpt lat="47.78713" lon="-3.38398">
        <ele>9</ele>
        <time>2019-07-17T14:23:15Z</time>
      </trkpt>
      <trkpt lat="47.78713" lon="-3.38398">
        <ele>9</ele>
        <time>2019-07-17T14:23:16Z</time>
      </trkpt>
      <trkpt lat="47.78718" lon="-3.38396">
        <ele>8</ele>
        <time>2019-07-17T14:23:17Z</time>
      </trkpt>
      <trkpt lat="47.7872" lon="-3.38396">
        <ele>8</ele>
        <time>2019-07-17T14:23:18Z</time>
      </trkpt>
      <trkpt lat="47.78721" lon="-3.38397">
        <ele>8</ele>
        <time>2019-07-17T14:23:19Z</time>
      </trkpt>
      <trkpt lat="47.78723" lon="-3.384">
        <ele>7</ele>
        <time>2019-07-17T14:23:20Z</time>
      </trkpt>
      <trkpt lat="47.78724" lon="-3.38403">
        <ele>7</ele>
        <time>2019-07-17T14:23:21Z</time>
      </trkpt>
      <trkpt lat="47.78725" lon="-3.38406">
        <ele>7</ele>
        <time>2019-07-17T14:23:22Z</time>
      </trkpt>
      <trkpt lat="47.78725" lon="-3.38408">
        <ele>7</ele>
        <time>2019-07-17T14:23:23Z</time>
      </trkpt>
      <trkpt lat="47.78725" lon="-3.38411">
        <ele>7</ele>
        <time>2019-07-17T14:23:24Z</time>
      </trkpt>
      <trkpt lat="47.78727" lon="-3.38413">
        <ele>7</ele>
        <time>2019-07-17T14:23:25Z</time>
      </trkpt>
      <trkpt lat="47.78727" lon="-3.38416">
        <ele>7</ele>
        <time>2019-07-17T14:23:26Z</time>
      </trkpt>
      <trkpt lat="47.78727" lon="-3.38418">
        <ele>7</ele>
        <time>2019-07-17T14:23:27Z</time>
      </trkpt>
      <trkpt lat="47.78726" lon="-3.3842">
        <ele>7</ele>
        <time>2019-07-17T14:23:28Z</time>
      </trkpt>
      <trkpt lat="47.78725" lon="-3.38422">
        <ele>7</ele>
        <time>2019-07-17T14:23:29Z</time>
      </trkpt>
      <trkpt lat="47.78724" lon="-3.38425">
        <ele>7</ele>
        <time>2019-07-17T14:23:30Z</time>
      </trkpt>
      <trkpt lat="47.78725" lon="-3.38428">
        <ele>6</ele>
        <time>2019-07-17T14:23:31Z</time>
      </trkpt>
      <trkpt lat="47.78725" lon="-3.38431">
        <ele>6</ele>
        <time>2019-07-17T14:23:32Z</time>
      </trkpt>
      <trkpt lat="47.78725" lon="-3.38435">
        <ele>6</ele>
        <time>2019-07-17T14:23:33Z</time>
      </trkpt>
      <trkpt lat="47.78726" lon="-3.38439">
        <ele>6</ele>
        <time>2019-07-17T14:23:34Z</time>
      </trkpt>
      <trkpt lat="47.78726" lon="-3.38442">
        <ele>6</ele>
        <time>2019-07-17T14:23:35Z</time>
      </trkpt>
      <trkpt lat="47.78727" lon="-3.38443">
        <ele>6</ele>
        <time>2019-07-17T14:23:36Z</time>
      </trkpt>
      <trkpt lat="47.78729" lon="-3.38445">
        <ele>6</ele>
        <time>2019-07-17T14:23:37Z</time>
      </trkpt>
      <trkpt lat="47.78732" lon="-3.38448">
        <ele>6</ele>
        <time>2019-07-17T14:23:38Z</time>
      </trkpt>
      <trkpt lat="47.78735" lon="-3.38452">
        <ele>6</ele>
        <time>2019-07-17T14:23:39Z</time>
      </trkpt>
      <trkpt lat="47.78739" lon="-3.38455">
        <ele>6</ele>
        <time>2019-07-17T14:23:40Z</time>
      </trkpt>
      <trkpt lat="47.78742" lon="-3.38457">
        <ele>6</ele>
        <time>2019-07-17T14:23:41Z</time>
      </trkpt>
      <trkpt lat="47.78744" lon="-3.38459">
        <ele>6</ele>
        <time>2019-07-17T14:23:42Z</time>
      </trkpt>
      <trkpt lat="47.78747" lon="-3.38461">
        <ele>7</ele>
        <time>2019-07-17T14:23:43Z</time>
      </trkpt>
      <trkpt lat="47.78749" lon="-3.38461">
        <ele>7</ele>
        <time>2019-07-17T14:23:44Z</time>
      </trkpt>
      <trkpt lat="47.7875" lon="-3.38461">
        <ele>7</ele>
        <time>2019-07-17T14:23:45Z</time>
      </trkpt>
      <trkpt lat="47.78751" lon="-3.38459">
        <ele>7</ele>
        <time>2019-07-17T14:23:46Z</time>
      </trkpt>
      <trkpt lat="47.78753" lon="-3.38458">
        <ele>7</ele>
        <time>2019-07-17T14:23:47Z</time>
      </trkpt>
      <trkpt lat="47.78754" lon="-3.38456">
        <ele>7</ele>
        <time>2019-07-17T14:23:48Z</time>
      </trkpt>
      <trkpt lat="47.78756" lon="-3.38456">
        <ele>7</ele>
        <time>2019-07-17T14:23:49Z</time>
      </trkpt>
      <trkpt lat="47.78758" lon="-3.38457">
        <ele>8</ele>
        <time>2019-07-17T14:23:50Z</time>
      </trkpt>
      <trkpt lat="47.78759" lon="-3.38458">
        <ele>8</ele>
        <time>2019-07-17T14:23:51Z</time>
      </trkpt>
      <trkpt lat="47.7876" lon="-3.38459">
        <ele>8</ele>
        <time>2019-07-17T14:23:52Z</time>
      </trkpt>
      <trkpt lat="47.78762" lon="-3.3846">
        <ele>8</ele>
        <time>2019-07-17T14:23:53Z</time>
      </trkpt>
      <trkpt lat="47.78763" lon="-3.3846">
        <ele>9</ele>
        <time>2019-07-17T14:23:54Z</time>
      </trkpt>
      <trkpt lat="47.78764" lon="-3.3846">
        <ele>9</ele>
        <time>2019-07-17T14:23:55Z</time>
      </trkpt>
      <trkpt lat="47.78766" lon="-3.38461">
        <ele>9</ele>
        <time>2019-07-17T14:23:56Z</time>
      </trkpt>
      <trkpt lat="47.78766" lon="-3.38462">
        <ele>9</ele>
        <time>2019-07-17T14:23:57Z</time>
      </trkpt>
      <trkpt lat="47.78767" lon="-3.38462">
        <ele>9</ele>
        <time>2019-07-17T14:23:58Z</time>
      </trkpt>
      <trkpt lat="47.78767" lon="-3.38462">
        <ele>9</ele>
        <time>2019-07-17T14:23:59Z</time>
      </trkpt>
      <trkpt lat="47.78768" lon="-3.38462">
        <ele>10</ele>
        <time>2019-07-17T14:24:00Z</time>
      </trkpt>
      <trkpt lat="47.78769" lon="-3.38462">
        <ele>10</ele>
        <time>2019-07-17T14:24:01Z</time>
      </trkpt>
      <trkpt lat="47.7877" lon="-3.38462">
        <ele>10</ele>
        <time>2019-07-17T14:24:02Z</time>
      </trkpt>
      <trkpt lat="47.7877" lon="-3.38462">
        <ele>11</ele>
        <time>2019-07-17T14:24:03Z</time>
      </trkpt>
      <trkpt lat="47.78772" lon="-3.38462">
        <ele>11</ele>
        <time>2019-07-17T14:24:04Z</time>
      </trkpt>
      <trkpt lat="47.78773" lon="-3.38461">
        <ele>11</ele>
        <time>2019-07-17T14:24:05Z</time>
      </trkpt>
      <trkpt lat="47.78774" lon="-3.38461">
        <ele>12</ele>
        <time>2019-07-17T14:24:06Z</time>
      </trkpt>
      <trkpt lat="47.78775" lon="-3.3846">
        <ele>12</ele>
        <time>2019-07-17T14:24:07Z</time>
      </trkpt>
      <trkpt lat="47.78776" lon="-3.3846">
        <ele>12</ele>
        <time>2019-07-17T14:24:08Z</time>
      </trkpt>
      <trkpt lat="47.78777" lon="-3.3846">
        <ele>13</ele>
        <time>2019-07-17T14:24:09Z</time>
      </trkpt>
      <trkpt lat="47.78777" lon="-3.38459">
        <ele>13</ele>
        <time>2019-07-17T14:24:10Z</time>
      </trkpt>
      <trkpt lat="47.78779" lon="-3.38457">
        <ele>13</ele>
        <time>2019-07-17T14:24:11Z</time>
      </trkpt>
      <trkpt lat="47.78781" lon="-3.38455">
        <ele>13</ele>
        <time>2019-07-17T14:24:12Z</time>
      </trkpt>
      <trkpt lat="47.78783" lon="-3.38452">
        <ele>13</ele>
        <time>2019-07-17T14:24:13Z</time>
      </trkpt>
      <trkpt lat="47.78785" lon="-3.3845">
        <ele>13</ele>
        <time>2019-07-17T14:24:14Z</time>
      </trkpt>
      <trkpt lat="47.78786" lon="-3.38448">
        <ele>14</ele>
        <time>2019-07-17T14:24:15Z</time>
      </trkpt>
      <trkpt lat="47.78788" lon="-3.38445">
        <ele>14</ele>
        <time>2019-07-17T14:24:16Z</time>
      </trkpt>
      <trkpt lat="47.78789" lon="-3.38442">
        <ele>14</ele>
        <time>2019-07-17T14:24:17Z</time>
      </trkpt>
      <trkpt lat="47.7879" lon="-3.3844">
        <ele>14</ele>
        <time>2019-07-17T14:24:18Z</time>
      </trkpt>
      <trkpt lat="47.7879" lon="-3.38439">
        <ele>14</ele>
        <time>2019-07-17T14:24:19Z</time>
      </trkpt>
      <trkpt lat="47.78791" lon="-3.38437">
        <ele>14</ele>
        <time>2019-07-17T14:24:20Z</time>
      </trkpt>
      <trkpt lat="47.78792" lon="-3.38434">
        <ele>14</ele>
        <time>2019-07-17T14:24:21Z</time>
      </trkpt>
      <trkpt lat="47.78792" lon="-3.38431">
        <ele>14</ele>
        <time>2019-07-17T14:24:22Z</time>
      </trkpt>
      <trkpt lat="47.78793" lon="-3.38427">
        <ele>14</ele>
        <time>2019-07-17T14:24:23Z</time>
      </trkpt>
      <trkpt lat="47.78794" lon="-3.38424">
        <ele>14</ele>
        <time>2019-07-17T14:24:24Z</time>
      </trkpt>
      <trkpt lat="47.78797" lon="-3.38419">
        <ele>14</ele>
        <time>2019-07-17T14:24:25Z</time>
      </trkpt>
      <trkpt lat="47.78799" lon="-3.38414">
        <ele>14</ele>
        <time>2019-07-17T14:24:26Z</time>
      </trkpt>
      <trkpt lat="47.78802" lon="-3.38409">
        <ele>14</ele>
        <time>2019-07-17T14:24:27Z</time>
      </trkpt>
      <trkpt lat="47.78805" lon="-3.38404">
        <ele>14</ele>
        <time>2019-07-17T14:24:28Z</time>
      </trkpt>
      <trkpt lat="47.78807" lon="-3.38399">
        <ele>14</ele>
        <time>2019-07-17T14:24:29Z</time>
      </trkpt>
      <trkpt lat="47.7881" lon="-3.38393">
        <ele>14</ele>
        <time>2019-07-17T14:24:30Z</time>
      </trkpt>
      <trkpt lat="47.78813" lon="-3.38388">
        <ele>15</ele>
        <time>2019-07-17T14:24:31Z</time>
      </trkpt>
      <trkpt lat="47.78815" lon="-3.38383">
        <ele>15</ele>
        <time>2019-07-17T14:24:32Z</time>
      </trkpt>
      <trkpt lat="47.78816" lon="-3.38379">
        <ele>15</ele>
        <time>2019-07-17T14:24:33Z</time>
      </trkpt>
      <trkpt lat="47.78818" lon="-3.38374">
        <ele>15</ele>
        <time>2019-07-17T14:24:34Z</time>
      </trkpt>
      <trkpt lat="47.7882" lon="-3.38371">
        <ele>15</ele>
        <time>2019-07-17T14:24:35Z</time>
      </trkpt>
      <trkpt lat="47.78822" lon="-3.38368">
        <ele>15</ele>
        <time>2019-07-17T14:24:36Z</time>
      </trkpt>
      <trkpt lat="47.78823" lon="-3.38365">
        <ele>15</ele>
        <time>2019-07-17T14:24:37Z</time>
      </trkpt>
      <trkpt lat="47.78823" lon="-3.38362">
        <ele>15</ele>
        <time>2019-07-17T14:24:38Z</time>
      </trkpt>
      <trkpt lat="47.78825" lon="-3.38358">
        <ele>15</ele>
        <time>2019-07-17T14:24:39Z</time>
      </trkpt>
      <trkpt lat="47.78826" lon="-3.38355">
        <ele>15</ele>
        <time>2019-07-17T14:24:40Z</time>
      </trkpt>
      <trkpt lat="47.78828" lon="-3.38352">
        <ele>15</ele>
        <time>2019-07-17T14:24:41Z</time>
      </trkpt>
      <trkpt lat="47.7883" lon="-3.38349">
        <ele>15</ele>
        <time>2019-07-17T14:24:42Z</time>
      </trkpt>
      <trkpt lat="47.78831" lon="-3.38346">
        <ele>15</ele>
        <time>2019-07-17T14:24:43Z</time>
      </trkpt>
      <trkpt lat="47.78832" lon="-3.38343">
        <ele>15</ele>
        <time>2019-07-17T14:24:44Z</time>
      </trkpt>
      <trkpt lat="47.78833" lon="-3.38341">
        <ele>15</ele>
        <time>2019-07-17T14:24:45Z</time>
      </trkpt>
      <trkpt lat="47.78834" lon="-3.3834">
        <ele>15</ele>
        <time>2019-07-17T14:24:46Z</time>
      </trkpt>
      <trkpt lat="47.78834" lon="-3.3834">
        <ele>15</ele>
        <time>2019-07-17T14:24:47Z</time>
      </trkpt>
      <trkpt lat="47.78835" lon="-3.3834">
        <ele>15</ele>
        <time>2019-07-17T14:24:48Z</time>
      </trkpt>
      <trkpt lat="47.78835" lon="-3.38339">
        <ele>15</ele>
        <time>2019-07-17T14:24:49Z</time>
      </trkpt>
      <trkpt lat="47.78841" lon="-3.38335">
        <ele>15</ele>
        <time>2019-07-17T14:24:50Z</time>
      </trkpt>
      <trkpt lat="47.78843" lon="-3.38336">
        <ele>15</ele>
        <time>2019-07-17T14:24:51Z</time>
      </trkpt>
      <trkpt lat="47.78844" lon="-3.38337">
        <ele>15</ele>
        <time>2019-07-17T14:24:52Z</time>
      </trkpt>
      <trkpt lat="47.78846" lon="-3.38337">
        <ele>15</ele>
        <time>2019-07-17T14:24:53Z</time>
      </trkpt>
      <trkpt lat="47.78847" lon="-3.38337">
        <ele>15</ele>
        <time>2019-07-17T14:24:54Z</time>
      </trkpt>
      <trkpt lat="47.78849" lon="-3.38339">
        <ele>15</ele>
        <time>2019-07-17T14:24:55Z</time>
      </trkpt>
      <trkpt lat="47.7885" lon="-3.3834">
        <ele>15</ele>
        <time>2019-07-17T14:24:56Z</time>
      </trkpt>
      <trkpt lat="47.78852" lon="-3.38342">
        <ele>15</ele>
        <time>2019-07-17T14:24:57Z</time>
      </trkpt>
      <trkpt lat="47.78854" lon="-3.38344">
        <ele>15</ele>
        <time>2019-07-17T14:24:58Z</time>
      </trkpt>
      <trkpt lat="47.78855" lon="-3.38345">
        <ele>15</ele>
        <time>2019-07-17T14:24:59Z</time>
      </trkpt>
      <trkpt lat="47.78857" lon="-3.38347">
        <ele>15</ele>
        <time>2019-07-17T14:25:00Z</time>
      </trkpt>
      <trkpt lat="47.78858" lon="-3.38348">
        <ele>15</ele>
        <time>2019-07-17T14:25:01Z</time>
      </trkpt>
      <trkpt lat="47.7886" lon="-3.38349">
        <ele>15</ele>
        <time>2019-07-17T14:25:02Z</time>
      </trkpt>
      <trkpt lat="47.78861" lon="-3.3835">
        <ele>15</ele>
        <time>2019-07-17T14:25:03Z</time>
      </trkpt>
      <trkpt lat="47.78863" lon="-3.38351">
        <ele>15</ele>
        <time>2019-07-17T14:25:04Z</time>
      </trkpt>
      <trkpt lat="47.78864" lon="-3.38352">
        <ele>15</ele>
        <time>2019-07-17T14:25:05Z</time>
      </trkpt>
      <trkpt lat="47.78866" lon="-3.38354">
        <ele>15</ele>
        <time>2019-07-17T14:25:06Z</time>
      </trkpt>
      <trkpt lat="47.78868" lon="-3.38355">
        <ele>15</ele>
        <time>2019-07-17T14:25:07Z</time>
      </trkpt>
      <trkpt lat="47.78869" lon="-3.38356">
        <ele>15</ele>
        <time>2019-07-17T14:25:08Z</time>
      </trkpt>
      <trkpt lat="47.78871" lon="-3.38358">
        <ele>15</ele>
        <time>2019-07-17T14:25:09Z</time>
      </trkpt>
      <trkpt lat="47.78873" lon="-3.38359">
        <ele>15</ele>
        <time>2019-07-17T14:25:10Z</time>
      </trkpt>
      <trkpt lat="47.78875" lon="-3.3836">
        <ele>15</ele>
        <time>2019-07-17T14:25:11Z</time>
      </trkpt>
      <trkpt lat="47.78877" lon="-3.38361">
        <ele>15</ele>
        <time>2019-07-17T14:25:12Z</time>
      </trkpt>
      <trkpt lat="47.78879" lon="-3.38363">
        <ele>15</ele>
        <time>2019-07-17T14:25:13Z</time>
      </trkpt>
      <trkpt lat="47.78881" lon="-3.38366">
        <ele>15</ele>
        <time>2019-07-17T14:25:14Z</time>
      </trkpt>
      <trkpt lat="47.78883" lon="-3.38367">
        <ele>15</ele>
        <time>2019-07-17T14:25:15Z</time>
      </trkpt>
      <trkpt lat="47.78885" lon="-3.3837">
        <ele>15</ele>
        <time>2019-07-17T14:25:16Z</time>
      </trkpt>
      <trkpt lat="47.78887" lon="-3.38371">
        <ele>15</ele>
        <time>2019-07-17T14:25:17Z</time>
      </trkpt>
      <trkpt lat="47.78889" lon="-3.38373">
        <ele>15</ele>
        <time>2019-07-17T14:25:18Z</time>
      </trkpt>
      <trkpt lat="47.78891" lon="-3.38375">
        <ele>15</ele>
        <time>2019-07-17T14:25:19Z</time>
      </trkpt>
      <trkpt lat="47.78893" lon="-3.38378">
        <ele>15</ele>
        <time>2019-07-17T14:25:20Z</time>
      </trkpt>
      <trkpt lat="47.78895" lon="-3.3838">
        <ele>16</ele>
        <time>2019-07-17T14:25:21Z</time>
      </trkpt>
      <trkpt lat="47.78897" lon="-3.38382">
        <ele>16</ele>
        <time>2019-07-17T14:25:22Z</time>
      </trkpt>
      <trkpt lat="47.78899" lon="-3.38385">
        <ele>16</ele>
        <time>2019-07-17T14:25:23Z</time>
      </trkpt>
      <trkpt lat="47.789" lon="-3.38387">
        <ele>16</ele>
        <time>2019-07-17T14:25:24Z</time>
      </trkpt>
      <trkpt lat="47.78902" lon="-3.3839">
        <ele>16</ele>
        <time>2019-07-17T14:25:25Z</time>
      </trkpt>
      <trkpt lat="47.78904" lon="-3.38394">
        <ele>16</ele>
        <time>2019-07-17T14:25:26Z</time>
      </trkpt>
      <trkpt lat="47.78906" lon="-3.38396">
        <ele>16</ele>
        <time>2019-07-17T14:25:27Z</time>
      </trkpt>
      <trkpt lat="47.78907" lon="-3.38397">
        <ele>16</ele>
        <time>2019-07-17T14:25:28Z</time>
      </trkpt>
      <trkpt lat="47.78907" lon="-3.38398">
        <ele>16</ele>
        <time>2019-07-17T14:25:29Z</time>
      </trkpt>
      <trkpt lat="47.78907" lon="-3.38398">
        <ele>16</ele>
        <time>2019-07-17T14:25:30Z</time>
      </trkpt>
      <trkpt lat="47.78907" lon="-3.38397">
        <ele>16</ele>
        <time>2019-07-17T14:25:31Z</time>
      </trkpt>
      <trkpt lat="47.78911" lon="-3.38402">
        <ele>17</ele>
        <time>2019-07-17T14:25:32Z</time>
      </trkpt>
      <trkpt lat="47.78912" lon="-3.38404">
        <ele>17</ele>
        <time>2019-07-17T14:25:33Z</time>
      </trkpt>
      <trkpt lat="47.78914" lon="-3.38407">
        <ele>17</ele>
        <time>2019-07-17T14:25:34Z</time>
      </trkpt>
      <trkpt lat="47.78916" lon="-3.38409">
        <ele>17</ele>
        <time>2019-07-17T14:25:35Z</time>
      </trkpt>
      <trkpt lat="47.78918" lon="-3.3841">
        <ele>17</ele>
        <time>2019-07-17T14:25:36Z</time>
      </trkpt>
      <trkpt lat="47.7892" lon="-3.38412">
        <ele>17</ele>
        <time>2019-07-17T14:25:37Z</time>
      </trkpt>
      <trkpt lat="47.78923" lon="-3.38413">
        <ele>17</ele>
        <time>2019-07-17T14:25:38Z</time>
      </trkpt>
      <trkpt lat="47.78925" lon="-3.38415">
        <ele>18</ele>
        <time>2019-07-17T14:25:39Z</time>
      </trkpt>
      <trkpt lat="47.78928" lon="-3.38417">
        <ele>18</ele>
        <time>2019-07-17T14:25:40Z</time>
      </trkpt>
      <trkpt lat="47.7893" lon="-3.38419">
        <ele>18</ele>
        <time>2019-07-17T14:25:41Z</time>
      </trkpt>
      <trkpt lat="47.78932" lon="-3.3842">
        <ele>18</ele>
        <time>2019-07-17T14:25:42Z</time>
      </trkpt>
      <trkpt lat="47.78934" lon="-3.38422">
        <ele>18</ele>
        <time>2019-07-17T14:25:43Z</time>
      </trkpt>
      <trkpt lat="47.78936" lon="-3.38424">
        <ele>18</ele>
        <time>2019-07-17T14:25:44Z</time>
      </trkpt>
      <trkpt lat="47.78938" lon="-3.38426">
        <ele>19</ele>
        <time>2019-07-17T14:25:45Z</time>
      </trkpt>
      <trkpt lat="47.78941" lon="-3.38428">
        <ele>19</ele>
        <time>2019-07-17T14:25:46Z</time>
      </trkpt>
      <trkpt lat="47.78943" lon="-3.3843">
        <ele>19</ele>
        <time>2019-07-17T14:25:47Z</time>
      </trkpt>
      <trkpt lat="47.78946" lon="-3.38431">
        <ele>19</ele>
        <time>2019-07-17T14:25:48Z</time>
      </trkpt>
      <trkpt lat="47.78949" lon="-3.38433">
        <ele>19</ele>
        <time>2019-07-17T14:25:49Z</time>
      </trkpt>
      <trkpt lat="47.78951" lon="-3.38435">
        <ele>19</ele>
        <time>2019-07-17T14:25:50Z</time>
      </trkpt>
      <trkpt lat="47.78954" lon="-3.38438">
        <ele>20</ele>
        <time>2019-07-17T14:25:51Z</time>
      </trkpt>
      <trkpt lat="47.78957" lon="-3.3844">
        <ele>20</ele>
        <time>2019-07-17T14:25:52Z</time>
      </trkpt>
      <trkpt lat="47.7896" lon="-3.38442">
        <ele>20</ele>
        <time>2019-07-17T14:25:53Z</time>
      </trkpt>
      <trkpt lat="47.78962" lon="-3.38444">
        <ele>20</ele>
        <time>2019-07-17T14:25:54Z</time>
      </trkpt>
      <trkpt lat="47.78965" lon="-3.38446">
        <ele>21</ele>
        <time>2019-07-17T14:25:55Z</time>
      </trkpt>
      <trkpt lat="47.78968" lon="-3.38449">
        <ele>21</ele>
        <time>2019-07-17T14:25:56Z</time>
      </trkpt>
      <trkpt lat="47.78971" lon="-3.38451">
        <ele>21</ele>
        <time>2019-07-17T14:25:57Z</time>
      </trkpt>
      <trkpt lat="47.78974" lon="-3.38453">
        <ele>21</ele>
        <time>2019-07-17T14:25:58Z</time>
      </trkpt>
      <trkpt lat="47.78976" lon="-3.38455">
        <ele>22</ele>
        <time>2019-07-17T14:25:59Z</time>
      </trkpt>
      <trkpt lat="47.78979" lon="-3.38457">
        <ele>22</ele>
        <time>2019-07-17T14:26:00Z</time>
      </trkpt>
      <trkpt lat="47.78982" lon="-3.3846">
        <ele>22</ele>
        <time>2019-07-17T14:26:01Z</time>
      </trkpt>
      <trkpt lat="47.78985" lon="-3.38462">
        <ele>22</ele>
        <time>2019-07-17T14:26:02Z</time>
      </trkpt>
      <trkpt lat="47.78988" lon="-3.38464">
        <ele>22</ele>
        <time>2019-07-17T14:26:03Z</time>
      </trkpt>
      <trkpt lat="47.78991" lon="-3.38466">
        <ele>23</ele>
        <time>2019-07-17T14:26:04Z</time>
      </trkpt>
      <trkpt lat="47.78994" lon="-3.38469">
        <ele>23</ele>
        <time>2019-07-17T14:26:05Z</time>
      </trkpt>
      <trkpt lat="47.78998" lon="-3.3847">
        <ele>23</ele>
        <time>2019-07-17T14:26:06Z</time>
      </trkpt>
      <trkpt lat="47.79002" lon="-3.3847">
        <ele>23</ele>
        <time>2019-07-17T14:26:07Z</time>
      </trkpt>
      <trkpt lat="47.79005" lon="-3.38469">
        <ele>23</ele>
        <time>2019-07-17T14:26:08Z</time>
      </trkpt>
      <trkpt lat="47.79009" lon="-3.38468">
        <ele>23</ele>
        <time>2019-07-17T14:26:09Z</time>
      </trkpt>
      <trkpt lat="47.79012" lon="-3.38466">
        <ele>23</ele>
        <time>2019-07-17T14:26:10Z</time>
      </trkpt>
      <trkpt lat="47.79016" lon="-3.38463">
        <ele>23</ele>
        <time>2019-07-17T14:26:11Z</time>
      </trkpt>
      <trkpt lat="47.79019" lon="-3.38461">
        <ele>24</ele>
        <time>2019-07-17T14:26:12Z</time>
      </trkpt>
      <trkpt lat="47.79023" lon="-3.38459">
        <ele>24</ele>
        <time>2019-07-17T14:26:13Z</time>
      </trkpt>
      <trkpt lat="47.79026" lon="-3.38458">
        <ele>24</ele>
        <time>2019-07-17T14:26:14Z</time>
      </trkpt>
      <trkpt lat="47.79029" lon="-3.38456">
        <ele>24</ele>
        <time>2019-07-17T14:26:15Z</time>
      </trkpt>
      <trkpt lat="47.79033" lon="-3.38455">
        <ele>24</ele>
        <time>2019-07-17T14:26:16Z</time>
      </trkpt>
      <trkpt lat="47.79036" lon="-3.38454">
        <ele>25</ele>
        <time>2019-07-17T14:26:17Z</time>
      </trkpt>
      <trkpt lat="47.7904" lon="-3.38454">
        <ele>25</ele>
        <time>2019-07-17T14:26:18Z</time>
      </trkpt>
      <trkpt lat="47.79044" lon="-3.38453">
        <ele>25</ele>
        <time>2019-07-17T14:26:19Z</time>
      </trkpt>
      <trkpt lat="47.79048" lon="-3.38454">
        <ele>25</ele>
        <time>2019-07-17T14:26:20Z</time>
      </trkpt>
      <trkpt lat="47.79051" lon="-3.38454">
        <ele>25</ele>
        <time>2019-07-17T14:26:21Z</time>
      </trkpt>
      <trkpt lat="47.79055" lon="-3.38454">
        <ele>25</ele>
        <time>2019-07-17T14:26:22Z</time>
      </trkpt>
      <trkpt lat="47.79058" lon="-3.38455">
        <ele>26</ele>
        <time>2019-07-17T14:26:23Z</time>
      </trkpt>
      <trkpt lat="47.79062" lon="-3.38455">
        <ele>26</ele>
        <time>2019-07-17T14:26:24Z</time>
      </trkpt>
      <trkpt lat="47.79066" lon="-3.38456">
        <ele>26</ele>
        <time>2019-07-17T14:26:25Z</time>
      </trkpt>
      <trkpt lat="47.79069" lon="-3.38456">
        <ele>26</ele>
        <time>2019-07-17T14:26:26Z</time>
      </trkpt>
      <trkpt lat="47.79073" lon="-3.38457">
        <ele>26</ele>
        <time>2019-07-17T14:26:27Z</time>
      </trkpt>
      <trkpt lat="47.79077" lon="-3.38457">
        <ele>26</ele>
        <time>2019-07-17T14:26:28Z</time>
      </trkpt>
      <trkpt lat="47.7908" lon="-3.38458">
        <ele>27</ele>
        <time>2019-07-17T14:26:29Z</time>
      </trkpt>
      <trkpt lat="47.79084" lon="-3.38458">
        <ele>27</ele>
        <time>2019-07-17T14:26:30Z</time>
      </trkpt>
      <trkpt lat="47.79088" lon="-3.38459">
        <ele>27</ele>
        <time>2019-07-17T14:26:31Z</time>
      </trkpt>
      <trkpt lat="47.79092" lon="-3.3846">
        <ele>27</ele>
        <time>2019-07-17T14:26:32Z</time>
      </trkpt>
      <trkpt lat="47.79096" lon="-3.38461">
        <ele>28</ele>
        <time>2019-07-17T14:26:33Z</time>
      </trkpt>
      <trkpt lat="47.791" lon="-3.38461">
        <ele>28</ele>
        <time>2019-07-17T14:26:34Z</time>
      </trkpt>
      <trkpt lat="47.79104" lon="-3.38461">
        <ele>28</ele>
        <time>2019-07-17T14:26:35Z</time>
      </trkpt>
      <trkpt lat="47.79108" lon="-3.38461">
        <ele>28</ele>
        <time>2019-07-17T14:26:36Z</time>
      </trkpt>
      <trkpt lat="47.79112" lon="-3.38462">
        <ele>29</ele>
        <time>2019-07-17T14:26:37Z</time>
      </trkpt>
      <trkpt lat="47.79117" lon="-3.38462">
        <ele>29</ele>
        <time>2019-07-17T14:26:38Z</time>
      </trkpt>
      <trkpt lat="47.79121" lon="-3.38461">
        <ele>29</ele>
        <time>2019-07-17T14:26:39Z</time>
      </trkpt>
      <trkpt lat="47.79125" lon="-3.38461">
        <ele>29</ele>
        <time>2019-07-17T14:26:40Z</time>
      </trkpt>
      <trkpt lat="47.79129" lon="-3.3846">
        <ele>29</ele>
        <time>2019-07-17T14:26:41Z</time>
      </trkpt>
      <trkpt lat="47.79133" lon="-3.38459">
        <ele>29</ele>
        <time>2019-07-17T14:26:42Z</time>
      </trkpt>
      <trkpt lat="47.79138" lon="-3.38458">
        <ele>30</ele>
        <time>2019-07-17T14:26:43Z</time>
      </trkpt>
      <trkpt lat="47.79142" lon="-3.38456">
        <ele>30</ele>
        <time>2019-07-17T14:26:44Z</time>
      </trkpt>
      <trkpt lat="47.79146" lon="-3.38455">
        <ele>30</ele>
        <time>2019-07-17T14:26:45Z</time>
      </trkpt>
      <trkpt lat="47.79151" lon="-3.38454">
        <ele>30</ele>
        <time>2019-07-17T14:26:46Z</time>
      </trkpt>
      <trkpt lat="47.79155" lon="-3.38454">
        <ele>30</ele>
        <time>2019-07-17T14:26:47Z</time>
      </trkpt>
      <trkpt lat="47.79159" lon="-3.38454">
        <ele>30</ele>
        <time>2019-07-17T14:26:48Z</time>
      </trkpt>
      <trkpt lat="47.79164" lon="-3.38455">
        <ele>30</ele>
        <time>2019-07-17T14:26:49Z</time>
      </trkpt>
      <trkpt lat="47.79168" lon="-3.38455">
        <ele>30</ele>
        <time>2019-07-17T14:26:50Z</time>
      </trkpt>
      <trkpt lat="47.79173" lon="-3.38454">
        <ele>30</ele>
        <time>2019-07-17T14:26:51Z</time>
      </trkpt>
      <trkpt lat="47.79178" lon="-3.38453">
        <ele>30</ele>
        <time>2019-07-17T14:26:52Z</time>
      </trkpt>
      <trkpt lat="47.79183" lon="-3.38453">
        <ele>30</ele>
        <time>2019-07-17T14:26:53Z</time>
      </trkpt>
      <trkpt lat="47.79188" lon="-3.38453">
        <ele>30</ele>
        <time>2019-07-17T14:26:54Z</time>
      </trkpt>
      <trkpt lat="47.79194" lon="-3.38452">
        <ele>30</ele>
        <time>2019-07-17T14:26:55Z</time>
      </trkpt>
      <trkpt lat="47.792" lon="-3.38452">
        <ele>30</ele>
        <time>2019-07-17T14:26:56Z</time>
      </trkpt>
      <trkpt lat="47.79208" lon="-3.38451">
        <ele>30</ele>
        <time>2019-07-17T14:26:57Z</time>
      </trkpt>
      <trkpt lat="47.79215" lon="-3.38449">
        <ele>30</ele>
        <time>2019-07-17T14:26:58Z</time>
      </trkpt>
      <trkpt lat="47.79223" lon="-3.38449">
        <ele>30</ele>
        <time>2019-07-17T14:26:59Z</time>
      </trkpt>
      <trkpt lat="47.7923" lon="-3.38449">
        <ele>30</ele>
        <time>2019-07-17T14:27:00Z</time>
      </trkpt>
      <trkpt lat="47.79237" lon="-3.3845">
        <ele>30</ele>
        <time>2019-07-17T14:27:01Z</time>
      </trkpt>
      <trkpt lat="47.79244" lon="-3.3845">
        <ele>30</ele>
        <time>2019-07-17T14:27:02Z</time>
      </trkpt>
      <trkpt lat="47.7925" lon="-3.38452">
        <ele>30</ele>
        <time>2019-07-17T14:27:03Z</time>
      </trkpt>
      <trkpt lat="47.79256" lon="-3.38454">
        <ele>30</ele>
        <time>2019-07-17T14:27:04Z</time>
      </trkpt>
      <trkpt lat="47.79262" lon="-3.38455">
        <ele>30</ele>
        <time>2019-07-17T14:27:05Z</time>
      </trkpt>
      <trkpt lat="47.79266" lon="-3.38456">
        <ele>30</ele>
        <time>2019-07-17T14:27:06Z</time>
      </trkpt>
      <trkpt lat="47.79272" lon="-3.38456">
        <ele>30</ele>
        <time>2019-07-17T14:27:07Z</time>
      </trkpt>
      <trkpt lat="47.79276" lon="-3.38457">
        <ele>30</ele>
        <time>2019-07-17T14:27:08Z</time>
      </trkpt>
      <trkpt lat="47.7928" lon="-3.38458">
        <ele>30</ele>
        <time>2019-07-17T14:27:09Z</time>
      </trkpt>
      <trkpt lat="47.79285" lon="-3.38459">
        <ele>30</ele>
        <time>2019-07-17T14:27:10Z</time>
      </trkpt>
      <trkpt lat="47.79289" lon="-3.3846">
        <ele>30</ele>
        <time>2019-07-17T14:27:11Z</time>
      </trkpt>
      <trkpt lat="47.79294" lon="-3.38461">
        <ele>30</ele>
        <time>2019-07-17T14:27:12Z</time>
      </trkpt>
      <trkpt lat="47.79299" lon="-3.38461">
        <ele>30</ele>
        <time>2019-07-17T14:27:13Z</time>
      </trkpt>
      <trkpt lat="47.79303" lon="-3.3846">
        <ele>30</ele>
        <time>2019-07-17T14:27:14Z</time>
      </trkpt>
      <trkpt lat="47.79308" lon="-3.38461">
        <ele>30</ele>
        <time>2019-07-17T14:27:15Z</time>
      </trkpt>
      <trkpt lat="47.79312" lon="-3.3846">
        <ele>30</ele>
        <time>2019-07-17T14:27:16Z</time>
      </trkpt>
      <trkpt lat="47.79317" lon="-3.38459">
        <ele>30</ele>
        <time>2019-07-17T14:27:17Z</time>
      </trkpt>
      <trkpt lat="47.79321" lon="-3.38459">
        <ele>30</ele>
        <time>2019-07-17T14:27:18Z</time>
      </trkpt>
      <trkpt lat="47.79325" lon="-3.38458">
        <ele>30</ele>
        <time>2019-07-17T14:27:19Z</time>
      </trkpt>
      <trkpt lat="47.79328" lon="-3.38457">
        <ele>30</ele>
        <time>2019-07-17T14:27:20Z</time>
      </trkpt>
      <trkpt lat="47.79332" lon="-3.38457">
        <ele>30</ele>
        <time>2019-07-17T14:27:21Z</time>
      </trkpt>
      <trkpt lat="47.79336" lon="-3.38456">
        <ele>29</ele>
        <time>2019-07-17T14:27:22Z</time>
      </trkpt>
      <trkpt lat="47.7934" lon="-3.38455">
        <ele>29</ele>
        <time>2019-07-17T14:27:23Z</time>
      </trkpt>
      <trkpt lat="47.79344" lon="-3.38455">
        <ele>29</ele>
        <time>2019-07-17T14:27:24Z</time>
      </trkpt>
      <trkpt lat="47.79348" lon="-3.38456">
        <ele>29</ele>
        <time>2019-07-17T14:27:25Z</time>
      </trkpt>
      <trkpt lat="47.79352" lon="-3.38456">
        <ele>29</ele>
        <time>2019-07-17T14:27:26Z</time>
      </trkpt>
      <trkpt lat="47.79357" lon="-3.38456">
        <ele>30</ele>
        <time>2019-07-17T14:27:27Z</time>
      </trkpt>
      <trkpt lat="47.79362" lon="-3.38456">
        <ele>30</ele>
        <time>2019-07-17T14:27:28Z</time>
      </trkpt>
      <trkpt lat="47.79367" lon="-3.38456">
        <ele>30</ele>
        <time>2019-07-17T14:27:29Z</time>
      </trkpt>
      <trkpt lat="47.79372" lon="-3.38455">
        <ele>30</ele>
        <time>2019-07-17T14:27:30Z</time>
      </trkpt>
      <trkpt lat="47.79377" lon="-3.38455">
        <ele>30</ele>
        <time>2019-07-17T14:27:31Z</time>
      </trkpt>
      <trkpt lat="47.79381" lon="-3.38453">
        <ele>30</ele>
        <time>2019-07-17T14:27:32Z</time>
      </trkpt>
      <trkpt lat="47.79384" lon="-3.38453">
        <ele>30</ele>
        <time>2019-07-17T14:27:33Z</time>
      </trkpt>
      <trkpt lat="47.79386" lon="-3.38453">
        <ele>30</ele>
        <time>2019-07-17T14:27:34Z</time>
      </trkpt>
      <trkpt lat="47.79387" lon="-3.38454">
        <ele>30</ele>
        <time>2019-07-17T14:27:35Z</time>
      </trkpt>
      <trkpt lat="47.79387" lon="-3.38454">
        <ele>30</ele>
        <time>2019-07-17T14:27:36Z</time>
      </trkpt>
      <trkpt lat="47.79387" lon="-3.38455">
        <ele>30</ele>
        <time>2019-07-17T14:27:37Z</time>
      </trkpt>
      <trkpt lat="47.7939" lon="-3.38453">
        <ele>31</ele>
        <time>2019-07-17T14:27:38Z</time>
      </trkpt>
      <trkpt lat="47.79392" lon="-3.38453">
        <ele>31</ele>
        <time>2019-07-17T14:27:39Z</time>
      </trkpt>
      <trkpt lat="47.79394" lon="-3.38452">
        <ele>31</ele>
        <time>2019-07-17T14:27:40Z</time>
      </trkpt>
      <trkpt lat="47.79397" lon="-3.38452">
        <ele>31</ele>
        <time>2019-07-17T14:27:41Z</time>
      </trkpt>
      <trkpt lat="47.794" lon="-3.38451">
        <ele>31</ele>
        <time>2019-07-17T14:27:42Z</time>
      </trkpt>
      <trkpt lat="47.79403" lon="-3.3845">
        <ele>31</ele>
        <time>2019-07-17T14:27:43Z</time>
      </trkpt>
      <trkpt lat="47.79407" lon="-3.38449">
        <ele>31</ele>
        <time>2019-07-17T14:27:44Z</time>
      </trkpt>
      <trkpt lat="47.7941" lon="-3.38447">
        <ele>31</ele>
        <time>2019-07-17T14:27:45Z</time>
      </trkpt>
      <trkpt lat="47.79414" lon="-3.38446">
        <ele>31</ele>
        <time>2019-07-17T14:27:46Z</time>
      </trkpt>
      <trkpt lat="47.79417" lon="-3.38446">
        <ele>31</ele>
        <time>2019-07-17T14:27:47Z</time>
      </trkpt>
      <trkpt lat="47.7942" lon="-3.38445">
        <ele>31</ele>
        <time>2019-07-17T14:27:48Z</time>
      </trkpt>
      <trkpt lat="47.79422" lon="-3.38445">
        <ele>31</ele>
        <time>2019-07-17T14:27:49Z</time>
      </trkpt>
      <trkpt lat="47.79424" lon="-3.38443">
        <ele>31</ele>
        <time>2019-07-17T14:27:50Z</time>
      </trkpt>
      <trkpt lat="47.79427" lon="-3.38442">
        <ele>31</ele>
        <time>2019-07-17T14:27:51Z</time>
      </trkpt>
      <trkpt lat="47.7943" lon="-3.38443">
        <ele>31</ele>
        <time>2019-07-17T14:27:52Z</time>
      </trkpt>
      <trkpt lat="47.79432" lon="-3.38445">
        <ele>31</ele>
        <time>2019-07-17T14:27:53Z</time>
      </trkpt>
      <trkpt lat="47.79434" lon="-3.38447">
        <ele>31</ele>
        <time>2019-07-17T14:27:54Z</time>
      </trkpt>
      <trkpt lat="47.79437" lon="-3.3845">
        <ele>31</ele>
        <time>2019-07-17T14:27:55Z</time>
      </trkpt>
      <trkpt lat="47.7944" lon="-3.38452">
        <ele>31</ele>
        <time>2019-07-17T14:27:56Z</time>
      </trkpt>
      <trkpt lat="47.79442" lon="-3.38455">
        <ele>31</ele>
        <time>2019-07-17T14:27:57Z</time>
      </trkpt>
      <trkpt lat="47.79444" lon="-3.38458">
        <ele>30</ele>
        <time>2019-07-17T14:27:58Z</time>
      </trkpt>
      <trkpt lat="47.79447" lon="-3.3846">
        <ele>30</ele>
        <time>2019-07-17T14:27:59Z</time>
      </trkpt>
      <trkpt lat="47.79451" lon="-3.38464">
        <ele>30</ele>
        <time>2019-07-17T14:28:00Z</time>
      </trkpt>
      <trkpt lat="47.79456" lon="-3.38468">
        <ele>29</ele>
        <time>2019-07-17T14:28:01Z</time>
      </trkpt>
      <trkpt lat="47.7946" lon="-3.38471">
        <ele>29</ele>
        <time>2019-07-17T14:28:02Z</time>
      </trkpt>
      <trkpt lat="47.79465" lon="-3.38473">
        <ele>29</ele>
        <time>2019-07-17T14:28:03Z</time>
      </trkpt>
      <trkpt lat="47.79469" lon="-3.38478">
        <ele>28</ele>
        <time>2019-07-17T14:28:04Z</time>
      </trkpt>
      <trkpt lat="47.79473" lon="-3.38482">
        <ele>28</ele>
        <time>2019-07-17T14:28:05Z</time>
      </trkpt>
      <trkpt lat="47.79478" lon="-3.38486">
        <ele>28</ele>
        <time>2019-07-17T14:28:06Z</time>
      </trkpt>
      <trkpt lat="47.79482" lon="-3.38491">
        <ele>27</ele>
        <time>2019-07-17T14:28:07Z</time>
      </trkpt>
      <trkpt lat="47.79486" lon="-3.38495">
        <ele>27</ele>
        <time>2019-07-17T14:28:08Z</time>
      </trkpt>
      <trkpt lat="47.79489" lon="-3.38499">
        <ele>27</ele>
        <time>2019-07-17T14:28:09Z</time>
      </trkpt>
      <trkpt lat="47.79493" lon="-3.38504">
        <ele>27</ele>
        <time>2019-07-17T14:28:10Z</time>
      </trkpt>
      <trkpt lat="47.79497" lon="-3.38509">
        <ele>27</ele>
        <time>2019-07-17T14:28:11Z</time>
      </trkpt>
      <trkpt lat="47.79501" lon="-3.38514">
        <ele>27</ele>
        <time>2019-07-17T14:28:12Z</time>
      </trkpt>
      <trkpt lat="47.79505" lon="-3.38518">
        <ele>27</ele>
        <time>2019-07-17T14:28:13Z</time>
      </trkpt>
      <trkpt lat="47.7951" lon="-3.38523">
        <ele>27</ele>
        <time>2019-07-17T14:28:14Z</time>
      </trkpt>
      <trkpt lat="47.79514" lon="-3.38527">
        <ele>27</ele>
        <time>2019-07-17T14:28:15Z</time>
      </trkpt>
      <trkpt lat="47.79518" lon="-3.38531">
        <ele>26</ele>
        <time>2019-07-17T14:28:16Z</time>
      </trkpt>
      <trkpt lat="47.79521" lon="-3.38535">
        <ele>26</ele>
        <time>2019-07-17T14:28:17Z</time>
      </trkpt>
      <trkpt lat="47.79525" lon="-3.3854">
        <ele>26</ele>
        <time>2019-07-17T14:28:18Z</time>
      </trkpt>
      <trkpt lat="47.79529" lon="-3.38545">
        <ele>26</ele>
        <time>2019-07-17T14:28:19Z</time>
      </trkpt>
      <trkpt lat="47.79534" lon="-3.3855">
        <ele>26</ele>
        <time>2019-07-17T14:28:20Z</time>
      </trkpt>
      <trkpt lat="47.79539" lon="-3.38556">
        <ele>26</ele>
        <time>2019-07-17T14:28:21Z</time>
      </trkpt>
      <trkpt lat="47.79543" lon="-3.38561">
        <ele>26</ele>
        <time>2019-07-17T14:28:22Z</time>
      </trkpt>
      <trkpt lat="47.79547" lon="-3.38567">
        <ele>26</ele>
        <time>2019-07-17T14:28:23Z</time>
      </trkpt>
      <trkpt lat="47.7955" lon="-3.38573">
        <ele>26</ele>
        <time>2019-07-17T14:28:24Z</time>
      </trkpt>
      <trkpt lat="47.79554" lon="-3.38577">
        <ele>26</ele>
        <time>2019-07-17T14:28:25Z</time>
      </trkpt>
      <trkpt lat="47.79557" lon="-3.38582">
        <ele>26</ele>
        <time>2019-07-17T14:28:26Z</time>
      </trkpt>
      <trkpt lat="47.7956" lon="-3.38586">
        <ele>26</ele>
        <time>2019-07-17T14:28:27Z</time>
      </trkpt>
      <trkpt lat="47.79563" lon="-3.38591">
        <ele>26</ele>
        <time>2019-07-17T14:28:28Z</time>
      </trkpt>
      <trkpt lat="47.79566" lon="-3.38596">
        <ele>25</ele>
        <time>2019-07-17T14:28:29Z</time>
      </trkpt>
      <trkpt lat="47.79569" lon="-3.386">
        <ele>25</ele>
        <time>2019-07-17T14:28:30Z</time>
      </trkpt>
      <trkpt lat="47.79571" lon="-3.38605">
        <ele>25</ele>
        <time>2019-07-17T14:28:31Z</time>
      </trkpt>
      <trkpt lat="47.79574" lon="-3.38611">
        <ele>25</ele>
        <time>2019-07-17T14:28:32Z</time>
      </trkpt>
      <trkpt lat="47.79577" lon="-3.38619">
        <ele>25</ele>
        <time>2019-07-17T14:28:33Z</time>
      </trkpt>
      <trkpt lat="47.79581" lon="-3.38626">
        <ele>25</ele>
        <time>2019-07-17T14:28:34Z</time>
      </trkpt>
      <trkpt lat="47.79584" lon="-3.38633">
        <ele>25</ele>
        <time>2019-07-17T14:28:35Z</time>
      </trkpt>
      <trkpt lat="47.79587" lon="-3.38639">
        <ele>25</ele>
        <time>2019-07-17T14:28:36Z</time>
      </trkpt>
      <trkpt lat="47.79591" lon="-3.38644">
        <ele>25</ele>
        <time>2019-07-17T14:28:37Z</time>
      </trkpt>
      <trkpt lat="47.79594" lon="-3.38649">
        <ele>25</ele>
        <time>2019-07-17T14:28:38Z</time>
      </trkpt>
      <trkpt lat="47.79598" lon="-3.38654">
        <ele>25</ele>
        <time>2019-07-17T14:28:39Z</time>
      </trkpt>
      <trkpt lat="47.79602" lon="-3.38658">
        <ele>25</ele>
        <time>2019-07-17T14:28:40Z</time>
      </trkpt>
      <trkpt lat="47.79606" lon="-3.38662">
        <ele>25</ele>
        <time>2019-07-17T14:28:41Z</time>
      </trkpt>
      <trkpt lat="47.7961" lon="-3.38666">
        <ele>24</ele>
        <time>2019-07-17T14:28:42Z</time>
      </trkpt>
      <trkpt lat="47.79613" lon="-3.38671">
        <ele>24</ele>
        <time>2019-07-17T14:28:43Z</time>
      </trkpt>
      <trkpt lat="47.79616" lon="-3.38676">
        <ele>24</ele>
        <time>2019-07-17T14:28:44Z</time>
      </trkpt>
      <trkpt lat="47.79618" lon="-3.38682">
        <ele>24</ele>
        <time>2019-07-17T14:28:45Z</time>
      </trkpt>
      <trkpt lat="47.7962" lon="-3.38688">
        <ele>24</ele>
        <time>2019-07-17T14:28:46Z</time>
      </trkpt>
      <trkpt lat="47.79622" lon="-3.38694">
        <ele>24</ele>
        <time>2019-07-17T14:28:47Z</time>
      </trkpt>
      <trkpt lat="47.79623" lon="-3.387">
        <ele>24</ele>
        <time>2019-07-17T14:28:48Z</time>
      </trkpt>
      <trkpt lat="47.79624" lon="-3.38706">
        <ele>24</ele>
        <time>2019-07-17T14:28:49Z</time>
      </trkpt>
      <trkpt lat="47.79627" lon="-3.38713">
        <ele>24</ele>
        <time>2019-07-17T14:28:50Z</time>
      </trkpt>
      <trkpt lat="47.79629" lon="-3.3872">
        <ele>24</ele>
        <time>2019-07-17T14:28:51Z</time>
      </trkpt>
      <trkpt lat="47.79631" lon="-3.38727">
        <ele>23</ele>
        <time>2019-07-17T14:28:52Z</time>
      </trkpt>
      <trkpt lat="47.79634" lon="-3.38734">
        <ele>23</ele>
        <time>2019-07-17T14:28:53Z</time>
      </trkpt>
      <trkpt lat="47.79637" lon="-3.38742">
        <ele>23</ele>
        <time>2019-07-17T14:28:54Z</time>
      </trkpt>
      <trkpt lat="47.7964" lon="-3.38749">
        <ele>23</ele>
        <time>2019-07-17T14:28:55Z</time>
      </trkpt>
      <trkpt lat="47.79642" lon="-3.38756">
        <ele>23</ele>
        <time>2019-07-17T14:28:56Z</time>
      </trkpt>
      <trkpt lat="47.79645" lon="-3.38762">
        <ele>22</ele>
        <time>2019-07-17T14:28:57Z</time>
      </trkpt>
      <trkpt lat="47.79648" lon="-3.38768">
        <ele>22</ele>
        <time>2019-07-17T14:28:58Z</time>
      </trkpt>
      <trkpt lat="47.79651" lon="-3.38774">
        <ele>22</ele>
        <time>2019-07-17T14:28:59Z</time>
      </trkpt>
      <trkpt lat="47.79654" lon="-3.38779">
        <ele>22</ele>
        <time>2019-07-17T14:29:00Z</time>
      </trkpt>
      <trkpt lat="47.79657" lon="-3.38785">
        <ele>22</ele>
        <time>2019-07-17T14:29:01Z</time>
      </trkpt>
      <trkpt lat="47.7966" lon="-3.38791">
        <ele>22</ele>
        <time>2019-07-17T14:29:02Z</time>
      </trkpt>
      <trkpt lat="47.79663" lon="-3.38798">
        <ele>21</ele>
        <time>2019-07-17T14:29:03Z</time>
      </trkpt>
      <trkpt lat="47.79666" lon="-3.38804">
        <ele>21</ele>
        <time>2019-07-17T14:29:04Z</time>
      </trkpt>
      <trkpt lat="47.79668" lon="-3.38811">
        <ele>21</ele>
        <time>2019-07-17T14:29:05Z</time>
      </trkpt>
      <trkpt lat="47.79671" lon="-3.38817">
        <ele>21</ele>
        <time>2019-07-17T14:29:06Z</time>
      </trkpt>
      <trkpt lat="47.79674" lon="-3.38823">
        <ele>21</ele>
        <time>2019-07-17T14:29:07Z</time>
      </trkpt>
      <trkpt lat="47.79677" lon="-3.3883">
        <ele>21</ele>
        <time>2019-07-17T14:29:08Z</time>
      </trkpt>
      <trkpt lat="47.79679" lon="-3.38837">
        <ele>21</ele>
        <time>2019-07-17T14:29:09Z</time>
      </trkpt>
      <trkpt lat="47.79681" lon="-3.38843">
        <ele>21</ele>
        <time>2019-07-17T14:29:10Z</time>
      </trkpt>
      <trkpt lat="47.79684" lon="-3.3885">
        <ele>21</ele>
        <time>2019-07-17T14:29:11Z</time>
      </trkpt>
      <trkpt lat="47.79687" lon="-3.38856">
        <ele>21</ele>
        <time>2019-07-17T14:29:12Z</time>
      </trkpt>
      <trkpt lat="47.79691" lon="-3.38863">
        <ele>21</ele>
        <time>2019-07-17T14:29:13Z</time>
      </trkpt>
      <trkpt lat="47.79695" lon="-3.38868">
        <ele>21</ele>
        <time>2019-07-17T14:29:14Z</time>
      </trkpt>
      <trkpt lat="47.797" lon="-3.38874">
        <ele>21</ele>
        <time>2019-07-17T14:29:15Z</time>
      </trkpt>
      <trkpt lat="47.79704" lon="-3.38879">
        <ele>21</ele>
        <time>2019-07-17T14:29:16Z</time>
      </trkpt>
      <trkpt lat="47.79709" lon="-3.38884">
        <ele>21</ele>
        <time>2019-07-17T14:29:17Z</time>
      </trkpt>
      <trkpt lat="47.79715" lon="-3.38889">
        <ele>21</ele>
        <time>2019-07-17T14:29:18Z</time>
      </trkpt>
      <trkpt lat="47.79719" lon="-3.38894">
        <ele>21</ele>
        <time>2019-07-17T14:29:19Z</time>
      </trkpt>
      <trkpt lat="47.79724" lon="-3.38899">
        <ele>21</ele>
        <time>2019-07-17T14:29:20Z</time>
      </trkpt>
      <trkpt lat="47.79729" lon="-3.38903">
        <ele>21</ele>
        <time>2019-07-17T14:29:21Z</time>
      </trkpt>
      <trkpt lat="47.79734" lon="-3.38907">
        <ele>21</ele>
        <time>2019-07-17T14:29:22Z</time>
      </trkpt>
      <trkpt lat="47.79738" lon="-3.38911">
        <ele>21</ele>
        <time>2019-07-17T14:29:23Z</time>
      </trkpt>
      <trkpt lat="47.79741" lon="-3.38913">
        <ele>21</ele>
        <time>2019-07-17T14:29:24Z</time>
      </trkpt>
      <trkpt lat="47.79745" lon="-3.38917">
        <ele>21</ele>
        <time>2019-07-17T14:29:25Z</time>
      </trkpt>
      <trkpt lat="47.79748" lon="-3.38921">
        <ele>21</ele>
        <time>2019-07-17T14:29:26Z</time>
      </trkpt>
      <trkpt lat="47.79751" lon="-3.38925">
        <ele>21</ele>
        <time>2019-07-17T14:29:27Z</time>
      </trkpt>
      <trkpt lat="47.79754" lon="-3.3893">
        <ele>21</ele>
        <time>2019-07-17T14:29:28Z</time>
      </trkpt>
      <trkpt lat="47.79758" lon="-3.38934">
        <ele>21</ele>
        <time>2019-07-17T14:29:29Z</time>
      </trkpt>
      <trkpt lat="47.79764" lon="-3.38937">
        <ele>21</ele>
        <time>2019-07-17T14:29:30Z</time>
      </trkpt>
      <trkpt lat="47.7977" lon="-3.38941">
        <ele>21</ele>
        <time>2019-07-17T14:29:31Z</time>
      </trkpt>
      <trkpt lat="47.79775" lon="-3.38944">
        <ele>21</ele>
        <time>2019-07-17T14:29:32Z</time>
      </trkpt>
      <trkpt lat="47.79781" lon="-3.38948">
        <ele>21</ele>
        <time>2019-07-17T14:29:33Z</time>
      </trkpt>
      <trkpt lat="47.79787" lon="-3.38952">
        <ele>21</ele>
        <time>2019-07-17T14:29:34Z</time>
      </trkpt>
      <trkpt lat="47.79792" lon="-3.38955">
        <ele>21</ele>
        <time>2019-07-17T14:29:35Z</time>
      </trkpt>
      <trkpt lat="47.79798" lon="-3.38959">
        <ele>21</ele>
        <time>2019-07-17T14:29:36Z</time>
      </trkpt>
      <trkpt lat="47.79804" lon="-3.38963">
        <ele>21</ele>
        <time>2019-07-17T14:29:37Z</time>
      </trkpt>
      <trkpt lat="47.79809" lon="-3.38965">
        <ele>21</ele>
        <time>2019-07-17T14:29:38Z</time>
      </trkpt>
      <trkpt lat="47.79814" lon="-3.38967">
        <ele>21</ele>
        <time>2019-07-17T14:29:39Z</time>
      </trkpt>
      <trkpt lat="47.79818" lon="-3.3897">
        <ele>21</ele>
        <time>2019-07-17T14:29:40Z</time>
      </trkpt>
      <trkpt lat="47.79823" lon="-3.38972">
        <ele>21</ele>
        <time>2019-07-17T14:29:41Z</time>
      </trkpt>
      <trkpt lat="47.79827" lon="-3.38975">
        <ele>21</ele>
        <time>2019-07-17T14:29:42Z</time>
      </trkpt>
      <trkpt lat="47.7983" lon="-3.38978">
        <ele>21</ele>
        <time>2019-07-17T14:29:43Z</time>
      </trkpt>
      <trkpt lat="47.79833" lon="-3.38981">
        <ele>21</ele>
        <time>2019-07-17T14:29:44Z</time>
      </trkpt>
      <trkpt lat="47.79837" lon="-3.38984">
        <ele>22</ele>
        <time>2019-07-17T14:29:45Z</time>
      </trkpt>
      <trkpt lat="47.79841" lon="-3.38986">
        <ele>22</ele>
        <time>2019-07-17T14:29:46Z</time>
      </trkpt>
      <trkpt lat="47.79846" lon="-3.38988">
        <ele>22</ele>
        <time>2019-07-17T14:29:47Z</time>
      </trkpt>
      <trkpt lat="47.7985" lon="-3.38991">
        <ele>22</ele>
        <time>2019-07-17T14:29:48Z</time>
      </trkpt>
      <trkpt lat="47.79855" lon="-3.38994">
        <ele>22</ele>
        <time>2019-07-17T14:29:49Z</time>
      </trkpt>
      <trkpt lat="47.7986" lon="-3.38997">
        <ele>22</ele>
        <time>2019-07-17T14:29:50Z</time>
      </trkpt>
      <trkpt lat="47.79865" lon="-3.39001">
        <ele>22</ele>
        <time>2019-07-17T14:29:51Z</time>
      </trkpt>
      <trkpt lat="47.7987" lon="-3.39004">
        <ele>22</ele>
        <time>2019-07-17T14:29:52Z</time>
      </trkpt>
      <trkpt lat="47.79875" lon="-3.39006">
        <ele>22</ele>
        <time>2019-07-17T14:29:53Z</time>
      </trkpt>
      <trkpt lat="47.79879" lon="-3.3901">
        <ele>23</ele>
        <time>2019-07-17T14:29:54Z</time>
      </trkpt>
      <trkpt lat="47.79883" lon="-3.39014">
        <ele>23</ele>
        <time>2019-07-17T14:29:55Z</time>
      </trkpt>
      <trkpt lat="47.79886" lon="-3.39019">
        <ele>23</ele>
        <time>2019-07-17T14:29:56Z</time>
      </trkpt>
      <trkpt lat="47.7989" lon="-3.39024">
        <ele>23</ele>
        <time>2019-07-17T14:29:57Z</time>
      </trkpt>
      <trkpt lat="47.79893" lon="-3.3903">
        <ele>23</ele>
        <time>2019-07-17T14:29:58Z</time>
      </trkpt>
      <trkpt lat="47.79895" lon="-3.39034">
        <ele>23</ele>
        <time>2019-07-17T14:29:59Z</time>
      </trkpt>
      <trkpt lat="47.79897" lon="-3.39036">
        <ele>23</ele>
        <time>2019-07-17T14:30:00Z</time>
      </trkpt>
      <trkpt lat="47.79899" lon="-3.39036">
        <ele>23</ele>
        <time>2019-07-17T14:30:01Z</time>
      </trkpt>
      <trkpt lat="47.79902" lon="-3.39036">
        <ele>23</ele>
        <time>2019-07-17T14:30:02Z</time>
      </trkpt>
      <trkpt lat="47.79905" lon="-3.39034">
        <ele>23</ele>
        <time>2019-07-17T14:30:03Z</time>
      </trkpt>
      <trkpt lat="47.79908" lon="-3.3903">
        <ele>23</ele>
        <time>2019-07-17T14:30:04Z</time>
      </trkpt>
      <trkpt lat="47.79912" lon="-3.39027">
        <ele>23</ele>
        <time>2019-07-17T14:30:05Z</time>
      </trkpt>
      <trkpt lat="47.79916" lon="-3.39024">
        <ele>23</ele>
        <time>2019-07-17T14:30:06Z</time>
      </trkpt>
      <trkpt lat="47.79919" lon="-3.3902">
        <ele>23</ele>
        <time>2019-07-17T14:30:07Z</time>
      </trkpt>
      <trkpt lat="47.79923" lon="-3.39016">
        <ele>23</ele>
        <time>2019-07-17T14:30:08Z</time>
      </trkpt>
      <trkpt lat="47.79928" lon="-3.39012">
        <ele>24</ele>
        <time>2019-07-17T14:30:09Z</time>
      </trkpt>
      <trkpt lat="47.79932" lon="-3.39008">
        <ele>24</ele>
        <time>2019-07-17T14:30:10Z</time>
      </trkpt>
      <trkpt lat="47.79937" lon="-3.39007">
        <ele>24</ele>
        <time>2019-07-17T14:30:11Z</time>
      </trkpt>
      <trkpt lat="47.79943" lon="-3.39007">
        <ele>24</ele>
        <time>2019-07-17T14:30:12Z</time>
      </trkpt>
      <trkpt lat="47.79948" lon="-3.39007">
        <ele>24</ele>
        <time>2019-07-17T14:30:13Z</time>
      </trkpt>
      <trkpt lat="47.79952" lon="-3.39006">
        <ele>24</ele>
        <time>2019-07-17T14:30:14Z</time>
      </trkpt>
      <trkpt lat="47.79956" lon="-3.39004">
        <ele>24</ele>
        <time>2019-07-17T14:30:15Z</time>
      </trkpt>
      <trkpt lat="47.7996" lon="-3.39">
        <ele>24</ele>
        <time>2019-07-17T14:30:16Z</time>
      </trkpt>
      <trkpt lat="47.79964" lon="-3.38997">
        <ele>24</ele>
        <time>2019-07-17T14:30:17Z</time>
      </trkpt>
      <trkpt lat="47.79967" lon="-3.38993">
        <ele>24</ele>
        <time>2019-07-17T14:30:18Z</time>
      </trkpt>
      <trkpt lat="47.79971" lon="-3.38991">
        <ele>24</ele>
        <time>2019-07-17T14:30:19Z</time>
      </trkpt>
      <trkpt lat="47.79974" lon="-3.38989">
        <ele>23</ele>
        <time>2019-07-17T14:30:20Z</time>
      </trkpt>
      <trkpt lat="47.79975" lon="-3.38988">
        <ele>23</ele>
        <time>2019-07-17T14:30:21Z</time>
      </trkpt>
      <trkpt lat="47.79976" lon="-3.38988">
        <ele>23</ele>
        <time>2019-07-17T14:30:22Z</time>
      </trkpt>
      <trkpt lat="47.79977" lon="-3.38986">
        <ele>23</ele>
        <time>2019-07-17T14:30:23Z</time>
      </trkpt>
      <trkpt lat="47.79979" lon="-3.38983">
        <ele>23</ele>
        <time>2019-07-17T14:30:24Z</time>
      </trkpt>
      <trkpt lat="47.79981" lon="-3.38979">
        <ele>23</ele>
        <time>2019-07-17T14:30:25Z</time>
      </trkpt>
      <trkpt lat="47.79984" lon="-3.38975">
        <ele>23</ele>
        <time>2019-07-17T14:30:26Z</time>
      </trkpt>
      <trkpt lat="47.79987" lon="-3.38973">
        <ele>23</ele>
        <time>2019-07-17T14:30:27Z</time>
      </trkpt>
      <trkpt lat="47.79991" lon="-3.38971">
        <ele>23</ele>
        <time>2019-07-17T14:30:28Z</time>
      </trkpt>
      <trkpt lat="47.79995" lon="-3.3897">
        <ele>23</ele>
        <time>2019-07-17T14:30:29Z</time>
      </trkpt>
      <trkpt lat="47.8" lon="-3.38968">
        <ele>23</ele>
        <time>2019-07-17T14:30:30Z</time>
      </trkpt>
      <trkpt lat="47.80004" lon="-3.38964">
        <ele>23</ele>
        <time>2019-07-17T14:30:31Z</time>
      </trkpt>
      <trkpt lat="47.80008" lon="-3.3896">
        <ele>22</ele>
        <time>2019-07-17T14:30:32Z</time>
      </trkpt>
      <trkpt lat="47.80013" lon="-3.38955">
        <ele>22</ele>
        <time>2019-07-17T14:30:33Z</time>
      </trkpt>
      <trkpt lat="47.80017" lon="-3.3895">
        <ele>22</ele>
        <time>2019-07-17T14:30:34Z</time>
      </trkpt>
      <trkpt lat="47.80022" lon="-3.38946">
        <ele>22</ele>
        <time>2019-07-17T14:30:35Z</time>
      </trkpt>
      <trkpt lat="47.80028" lon="-3.38943">
        <ele>22</ele>
        <time>2019-07-17T14:30:36Z</time>
      </trkpt>
      <trkpt lat="47.80033" lon="-3.38942">
        <ele>21</ele>
        <time>2019-07-17T14:30:37Z</time>
      </trkpt>
      <trkpt lat="47.8004" lon="-3.38942">
        <ele>21</ele>
        <time>2019-07-17T14:30:38Z</time>
      </trkpt>
      <trkpt lat="47.80045" lon="-3.38947">
        <ele>21</ele>
        <time>2019-07-17T14:30:39Z</time>
      </trkpt>
      <trkpt lat="47.80049" lon="-3.38953">
        <ele>20</ele>
        <time>2019-07-17T14:30:40Z</time>
      </trkpt>
      <trkpt lat="47.80053" lon="-3.3896">
        <ele>20</ele>
        <time>2019-07-17T14:30:41Z</time>
      </trkpt>
      <trkpt lat="47.80057" lon="-3.38964">
        <ele>19</ele>
        <time>2019-07-17T14:30:42Z</time>
      </trkpt>
      <trkpt lat="47.80061" lon="-3.38968">
        <ele>18</ele>
        <time>2019-07-17T14:30:43Z</time>
      </trkpt>
      <trkpt lat="47.80065" lon="-3.38972">
        <ele>18</ele>
        <time>2019-07-17T14:30:44Z</time>
      </trkpt>
      <trkpt lat="47.80069" lon="-3.38974">
        <ele>17</ele>
        <time>2019-07-17T14:30:45Z</time>
      </trkpt>
      <trkpt lat="47.80074" lon="-3.38975">
        <ele>16</ele>
        <time>2019-07-17T14:30:46Z</time>
      </trkpt>
      <trkpt lat="47.80079" lon="-3.38974">
        <ele>16</ele>
        <time>2019-07-17T14:30:47Z</time>
      </trkpt>
      <trkpt lat="47.80084" lon="-3.38972">
        <ele>15</ele>
        <time>2019-07-17T14:30:48Z</time>
      </trkpt>
      <trkpt lat="47.80089" lon="-3.38971">
        <ele>15</ele>
        <time>2019-07-17T14:30:49Z</time>
      </trkpt>
      <trkpt lat="47.80094" lon="-3.38969">
        <ele>14</ele>
        <time>2019-07-17T14:30:50Z</time>
      </trkpt>
      <trkpt lat="47.80099" lon="-3.38968">
        <ele>14</ele>
        <time>2019-07-17T14:30:51Z</time>
      </trkpt>
      <trkpt lat="47.80104" lon="-3.38966">
        <ele>13</ele>
        <time>2019-07-17T14:30:52Z</time>
      </trkpt>
      <trkpt lat="47.80109" lon="-3.38964">
        <ele>13</ele>
        <time>2019-07-17T14:30:53Z</time>
      </trkpt>
      <trkpt lat="47.80113" lon="-3.38962">
        <ele>12</ele>
        <time>2019-07-17T14:30:54Z</time>
      </trkpt>
      <trkpt lat="47.80118" lon="-3.38961">
        <ele>12</ele>
        <time>2019-07-17T14:30:55Z</time>
      </trkpt>
      <trkpt lat="47.80123" lon="-3.38959">
        <ele>12</ele>
        <time>2019-07-17T14:30:56Z</time>
      </trkpt>
      <trkpt lat="47.80127" lon="-3.38957">
        <ele>11</ele>
        <time>2019-07-17T14:30:57Z</time>
      </trkpt>
      <trkpt lat="47.80131" lon="-3.38956">
        <ele>11</ele>
        <time>2019-07-17T14:30:58Z</time>
      </trkpt>
      <trkpt lat="47.80135" lon="-3.38955">
        <ele>11</ele>
        <time>2019-07-17T14:30:59Z</time>
      </trkpt>
      <trkpt lat="47.80138" lon="-3.38955">
        <ele>11</ele>
        <time>2019-07-17T14:31:00Z</time>
      </trkpt>
      <trkpt lat="47.8014" lon="-3.38956">
        <ele>10</ele>
        <time>2019-07-17T14:31:01Z</time>
      </trkpt>
      <trkpt lat="47.80142" lon="-3.38956">
        <ele>10</ele>
        <time>2019-07-17T14:31:02Z</time>
      </trkpt>
      <trkpt lat="47.80144" lon="-3.38954">
        <ele>10</ele>
        <time>2019-07-17T14:31:03Z</time>
      </trkpt>
      <trkpt lat="47.80146" lon="-3.38951">
        <ele>9</ele>
        <time>2019-07-17T14:31:04Z</time>
      </trkpt>
      <trkpt lat="47.80148" lon="-3.38947">
        <ele>9</ele>
        <time>2019-07-17T14:31:05Z</time>
      </trkpt>
      <trkpt lat="47.8015" lon="-3.38941">
        <ele>9</ele>
        <time>2019-07-17T14:31:06Z</time>
      </trkpt>
      <trkpt lat="47.80152" lon="-3.38935">
        <ele>8</ele>
        <time>2019-07-17T14:31:07Z</time>
      </trkpt>
      <trkpt lat="47.80155" lon="-3.38929">
        <ele>8</ele>
        <time>2019-07-17T14:31:08Z</time>
      </trkpt>
      <trkpt lat="47.80159" lon="-3.38922">
        <ele>7</ele>
        <time>2019-07-17T14:31:09Z</time>
      </trkpt>
      <trkpt lat="47.80163" lon="-3.38915">
        <ele>7</ele>
        <time>2019-07-17T14:31:10Z</time>
      </trkpt>
      <trkpt lat="47.80167" lon="-3.38908">
        <ele>6</ele>
        <time>2019-07-17T14:31:11Z</time>
      </trkpt>
      <trkpt lat="47.80171" lon="-3.38902">
        <ele>6</ele>
        <time>2019-07-17T14:31:12Z</time>
      </trkpt>
      <trkpt lat="47.80175" lon="-3.38895">
        <ele>5</ele>
        <time>2019-07-17T14:31:13Z</time>
      </trkpt>
      <trkpt lat="47.80179" lon="-3.38888">
        <ele>5</ele>
        <time>2019-07-17T14:31:14Z</time>
      </trkpt>
      <trkpt lat="47.80183" lon="-3.38883">
        <ele>5</ele>
        <time>2019-07-17T14:31:15Z</time>
      </trkpt>
      <trkpt lat="47.80187" lon="-3.38878">
        <ele>5</ele>
        <time>2019-07-17T14:31:16Z</time>
      </trkpt>
      <trkpt lat="47.80191" lon="-3.38875">
        <ele>4</ele>
        <time>2019-07-17T14:31:17Z</time>
      </trkpt>
      <trkpt lat="47.80194" lon="-3.38872">
        <ele>4</ele>
        <time>2019-07-17T14:31:18Z</time>
      </trkpt>
      <trkpt lat="47.80196" lon="-3.3887">
        <ele>4</ele>
        <time>2019-07-17T14:31:19Z</time>
      </trkpt>
      <trkpt lat="47.80198" lon="-3.3887">
        <ele>4</ele>
        <time>2019-07-17T14:31:20Z</time>
      </trkpt>
      <trkpt lat="47.80199" lon="-3.3887">
        <ele>4</ele>
        <time>2019-07-17T14:31:21Z</time>
      </trkpt>
      <trkpt lat="47.80201" lon="-3.38872">
        <ele>4</ele>
        <time>2019-07-17T14:31:22Z</time>
      </trkpt>
      <trkpt lat="47.80203" lon="-3.38873">
        <ele>4</ele>
        <time>2019-07-17T14:31:23Z</time>
      </trkpt>
      <trkpt lat="47.80205" lon="-3.38874">
        <ele>4</ele>
        <time>2019-07-17T14:31:24Z</time>
      </trkpt>
      <trkpt lat="47.80207" lon="-3.38873">
        <ele>5</ele>
        <time>2019-07-17T14:31:25Z</time>
      </trkpt>
      <trkpt lat="47.8021" lon="-3.38873">
        <ele>5</ele>
        <time>2019-07-17T14:31:26Z</time>
      </trkpt>
      <trkpt lat="47.80211" lon="-3.38874">
        <ele>5</ele>
        <time>2019-07-17T14:31:27Z</time>
      </trkpt>
      <trkpt lat="47.80213" lon="-3.38875">
        <ele>5</ele>
        <time>2019-07-17T14:31:28Z</time>
      </trkpt>
      <trkpt lat="47.80215" lon="-3.38876">
        <ele>6</ele>
        <time>2019-07-17T14:31:29Z</time>
      </trkpt>
      <trkpt lat="47.80216" lon="-3.38877">
        <ele>6</ele>
        <time>2019-07-17T14:31:30Z</time>
      </trkpt>
      <trkpt lat="47.80218" lon="-3.38879">
        <ele>6</ele>
        <time>2019-07-17T14:31:31Z</time>
      </trkpt>
      <trkpt lat="47.8022" lon="-3.38881">
        <ele>6</ele>
        <time>2019-07-17T14:31:32Z</time>
      </trkpt>
      <trkpt lat="47.80221" lon="-3.38883">
        <ele>6</ele>
        <time>2019-07-17T14:31:33Z</time>
      </trkpt>
      <trkpt lat="47.80223" lon="-3.38886">
        <ele>7</ele>
        <time>2019-07-17T14:31:34Z</time>
      </trkpt>
      <trkpt lat="47.80224" lon="-3.38888">
        <ele>7</ele>
        <time>2019-07-17T14:31:35Z</time>
      </trkpt>
      <trkpt lat="47.80225" lon="-3.3889">
        <ele>7</ele>
        <time>2019-07-17T14:31:36Z</time>
      </trkpt>
      <trkpt lat="47.80226" lon="-3.38893">
        <ele>7</ele>
        <time>2019-07-17T14:31:37Z</time>
      </trkpt>
      <trkpt lat="47.80228" lon="-3.38895">
        <ele>8</ele>
        <time>2019-07-17T14:31:38Z</time>
      </trkpt>
      <trkpt lat="47.80229" lon="-3.38898">
        <ele>8</ele>
        <time>2019-07-17T14:31:39Z</time>
      </trkpt>
      <trkpt lat="47.8023" lon="-3.38901">
        <ele>8</ele>
        <time>2019-07-17T14:31:40Z</time>
      </trkpt>
      <trkpt lat="47.80231" lon="-3.38904">
        <ele>8</ele>
        <time>2019-07-17T14:31:41Z</time>
      </trkpt>
      <trkpt lat="47.80232" lon="-3.38908">
        <ele>8</ele>
        <time>2019-07-17T14:31:42Z</time>
      </trkpt>
      <trkpt lat="47.80234" lon="-3.38911">
        <ele>8</ele>
        <time>2019-07-17T14:31:43Z</time>
      </trkpt>
      <trkpt lat="47.80234" lon="-3.38914">
        <ele>8</ele>
        <time>2019-07-17T14:31:44Z</time>
      </trkpt>
      <trkpt lat="47.80235" lon="-3.38917">
        <ele>8</ele>
        <time>2019-07-17T14:31:45Z</time>
      </trkpt>
      <trkpt lat="47.80237" lon="-3.38921">
        <ele>9</ele>
        <time>2019-07-17T14:31:46Z</time>
      </trkpt>
      <trkpt lat="47.80238" lon="-3.38924">
        <ele>9</ele>
        <time>2019-07-17T14:31:47Z</time>
      </trkpt>
      <trkpt lat="47.80239" lon="-3.38928">
        <ele>9</ele>
        <time>2019-07-17T14:31:48Z</time>
      </trkpt>
      <trkpt lat="47.8024" lon="-3.3893">
        <ele>9</ele>
        <time>2019-07-17T14:31:49Z</time>
      </trkpt>
      <trkpt lat="47.80242" lon="-3.38934">
        <ele>10</ele>
        <time>2019-07-17T14:31:50Z</time>
      </trkpt>
      <trkpt lat="47.80243" lon="-3.38936">
        <ele>10</ele>
        <time>2019-07-17T14:31:51Z</time>
      </trkpt>
      <trkpt lat="47.80244" lon="-3.38938">
        <ele>10</ele>
        <time>2019-07-17T14:31:52Z</time>
      </trkpt>
      <trkpt lat="47.80245" lon="-3.38941">
        <ele>10</ele>
        <time>2019-07-17T14:31:53Z</time>
      </trkpt>
      <trkpt lat="47.80247" lon="-3.38945">
        <ele>11</ele>
        <time>2019-07-17T14:31:54Z</time>
      </trkpt>
      <trkpt lat="47.80248" lon="-3.38947">
        <ele>11</ele>
        <time>2019-07-17T14:31:55Z</time>
      </trkpt>
      <trkpt lat="47.8025" lon="-3.3895">
        <ele>11</ele>
        <time>2019-07-17T14:31:56Z</time>
      </trkpt>
      <trkpt lat="47.80252" lon="-3.38954">
        <ele>12</ele>
        <time>2019-07-17T14:31:57Z</time>
      </trkpt>
      <trkpt lat="47.80254" lon="-3.38957">
        <ele>12</ele>
        <time>2019-07-17T14:31:58Z</time>
      </trkpt>
      <trkpt lat="47.80256" lon="-3.3896">
        <ele>13</ele>
        <time>2019-07-17T14:31:59Z</time>
      </trkpt>
      <trkpt lat="47.80258" lon="-3.38963">
        <ele>13</ele>
        <time>2019-07-17T14:32:00Z</time>
      </trkpt>
      <trkpt lat="47.8026" lon="-3.38966">
        <ele>13</ele>
        <time>2019-07-17T14:32:01Z</time>
      </trkpt>
      <trkpt lat="47.80262" lon="-3.38969">
        <ele>13</ele>
        <time>2019-07-17T14:32:02Z</time>
      </trkpt>
      <trkpt lat="47.80264" lon="-3.38971">
        <ele>14</ele>
        <time>2019-07-17T14:32:03Z</time>
      </trkpt>
      <trkpt lat="47.80266" lon="-3.38973">
        <ele>14</ele>
        <time>2019-07-17T14:32:04Z</time>
      </trkpt>
      <trkpt lat="47.80268" lon="-3.38974">
        <ele>15</ele>
        <time>2019-07-17T14:32:05Z</time>
      </trkpt>
      <trkpt lat="47.80271" lon="-3.38975">
        <ele>15</ele>
        <time>2019-07-17T14:32:06Z</time>
      </trkpt>
      <trkpt lat="47.80273" lon="-3.38976">
        <ele>15</ele>
        <time>2019-07-17T14:32:07Z</time>
      </trkpt>
      <trkpt lat="47.80276" lon="-3.38976">
        <ele>16</ele>
        <time>2019-07-17T14:32:08Z</time>
      </trkpt>
      <trkpt lat="47.80279" lon="-3.38977">
        <ele>16</ele>
        <time>2019-07-17T14:32:09Z</time>
      </trkpt>
      <trkpt lat="47.80282" lon="-3.38977">
        <ele>16</ele>
        <time>2019-07-17T14:32:10Z</time>
      </trkpt>
      <trkpt lat="47.80284" lon="-3.38978">
        <ele>17</ele>
        <time>2019-07-17T14:32:11Z</time>
      </trkpt>
      <trkpt lat="47.80286" lon="-3.38979">
        <ele>17</ele>
        <time>2019-07-17T14:32:12Z</time>
      </trkpt>
      <trkpt lat="47.80289" lon="-3.3898">
        <ele>18</ele>
        <time>2019-07-17T14:32:13Z</time>
      </trkpt>
      <trkpt lat="47.80291" lon="-3.3898">
        <ele>18</ele>
        <time>2019-07-17T14:32:14Z</time>
      </trkpt>
      <trkpt lat="47.80294" lon="-3.38981">
        <ele>18</ele>
        <time>2019-07-17T14:32:15Z</time>
      </trkpt>
      <trkpt lat="47.80297" lon="-3.38981">
        <ele>19</ele>
        <time>2019-07-17T14:32:16Z</time>
      </trkpt>
      <trkpt lat="47.803" lon="-3.38981">
        <ele>19</ele>
        <time>2019-07-17T14:32:17Z</time>
      </trkpt>
      <trkpt lat="47.80303" lon="-3.38983">
        <ele>19</ele>
        <time>2019-07-17T14:32:18Z</time>
      </trkpt>
      <trkpt lat="47.80306" lon="-3.38985">
        <ele>20</ele>
        <time>2019-07-17T14:32:19Z</time>
      </trkpt>
      <trkpt lat="47.80308" lon="-3.38988">
        <ele>20</ele>
        <time>2019-07-17T14:32:20Z</time>
      </trkpt>
      <trkpt lat="47.8031" lon="-3.38991">
        <ele>20</ele>
        <time>2019-07-17T14:32:21Z</time>
      </trkpt>
      <trkpt lat="47.80312" lon="-3.38994">
        <ele>20</ele>
        <time>2019-07-17T14:32:22Z</time>
      </trkpt>
      <trkpt lat="47.80313" lon="-3.38997">
        <ele>20</ele>
        <time>2019-07-17T14:32:23Z</time>
      </trkpt>
      <trkpt lat="47.80314" lon="-3.39001">
        <ele>21</ele>
        <time>2019-07-17T14:32:24Z</time>
      </trkpt>
      <trkpt lat="47.80315" lon="-3.39006">
        <ele>21</ele>
        <time>2019-07-17T14:32:25Z</time>
      </trkpt>
      <trkpt lat="47.80316" lon="-3.3901">
        <ele>21</ele>
        <time>2019-07-17T14:32:26Z</time>
      </trkpt>
      <trkpt lat="47.80316" lon="-3.39015">
        <ele>22</ele>
        <time>2019-07-17T14:32:27Z</time>
      </trkpt>
      <trkpt lat="47.80316" lon="-3.39019">
        <ele>22</ele>
        <time>2019-07-17T14:32:28Z</time>
      </trkpt>
      <trkpt lat="47.80316" lon="-3.39023">
        <ele>22</ele>
        <time>2019-07-17T14:32:29Z</time>
      </trkpt>
      <trkpt lat="47.80316" lon="-3.39028">
        <ele>23</ele>
        <time>2019-07-17T14:32:30Z</time>
      </trkpt>
      <trkpt lat="47.80316" lon="-3.39033">
        <ele>23</ele>
        <time>2019-07-17T14:32:31Z</time>
      </trkpt>
      <trkpt lat="47.80318" lon="-3.39039">
        <ele>23</ele>
        <time>2019-07-17T14:32:32Z</time>
      </trkpt>
      <trkpt lat="47.80319" lon="-3.39043">
        <ele>23</ele>
        <time>2019-07-17T14:32:33Z</time>
      </trkpt>
      <trkpt lat="47.80322" lon="-3.39048">
        <ele>23</ele>
        <time>2019-07-17T14:32:34Z</time>
      </trkpt>
      <trkpt lat="47.80323" lon="-3.39052">
        <ele>23</ele>
        <time>2019-07-17T14:32:35Z</time>
      </trkpt>
      <trkpt lat="47.80326" lon="-3.39055">
        <ele>23</ele>
        <time>2019-07-17T14:32:36Z</time>
      </trkpt>
      <trkpt lat="47.80329" lon="-3.39057">
        <ele>24</ele>
        <time>2019-07-17T14:32:37Z</time>
      </trkpt>
      <trkpt lat="47.80332" lon="-3.3906">
        <ele>24</ele>
        <time>2019-07-17T14:32:38Z</time>
      </trkpt>
      <trkpt lat="47.80336" lon="-3.39062">
        <ele>24</ele>
        <time>2019-07-17T14:32:39Z</time>
      </trkpt>
      <trkpt lat="47.80339" lon="-3.39065">
        <ele>24</ele>
        <time>2019-07-17T14:32:40Z</time>
      </trkpt>
      <trkpt lat="47.80343" lon="-3.39068">
        <ele>24</ele>
        <time>2019-07-17T14:32:41Z</time>
      </trkpt>
      <trkpt lat="47.80347" lon="-3.39073">
        <ele>25</ele>
        <time>2019-07-17T14:32:42Z</time>
      </trkpt>
      <trkpt lat="47.80349" lon="-3.39078">
        <ele>25</ele>
        <time>2019-07-17T14:32:43Z</time>
      </trkpt>
      <trkpt lat="47.80351" lon="-3.39083">
        <ele>25</ele>
        <time>2019-07-17T14:32:44Z</time>
      </trkpt>
      <trkpt lat="47.80353" lon="-3.39089">
        <ele>25</ele>
        <time>2019-07-17T14:32:45Z</time>
      </trkpt>
      <trkpt lat="47.80355" lon="-3.39093">
        <ele>25</ele>
        <time>2019-07-17T14:32:46Z</time>
      </trkpt>
      <trkpt lat="47.80357" lon="-3.39098">
        <ele>25</ele>
        <time>2019-07-17T14:32:47Z</time>
      </trkpt>
      <trkpt lat="47.80358" lon="-3.39104">
        <ele>25</ele>
        <time>2019-07-17T14:32:48Z</time>
      </trkpt>
      <trkpt lat="47.80357" lon="-3.3911">
        <ele>26</ele>
        <time>2019-07-17T14:32:49Z</time>
      </trkpt>
      <trkpt lat="47.80356" lon="-3.39115">
        <ele>26</ele>
        <time>2019-07-17T14:32:50Z</time>
      </trkpt>
      <trkpt lat="47.80354" lon="-3.39119">
        <ele>26</ele>
        <time>2019-07-17T14:32:51Z</time>
      </trkpt>
      <trkpt lat="47.80352" lon="-3.39125">
        <ele>26</ele>
        <time>2019-07-17T14:32:52Z</time>
      </trkpt>
      <trkpt lat="47.80351" lon="-3.39131">
        <ele>26</ele>
        <time>2019-07-17T14:32:53Z</time>
      </trkpt>
      <trkpt lat="47.80352" lon="-3.39135">
        <ele>26</ele>
        <time>2019-07-17T14:32:54Z</time>
      </trkpt>
      <trkpt lat="47.80353" lon="-3.39141">
        <ele>26</ele>
        <time>2019-07-17T14:32:55Z</time>
      </trkpt>
      <trkpt lat="47.80353" lon="-3.39145">
        <ele>26</ele>
        <time>2019-07-17T14:32:56Z</time>
      </trkpt>
      <trkpt lat="47.80353" lon="-3.39149">
        <ele>26</ele>
        <time>2019-07-17T14:32:57Z</time>
      </trkpt>
      <trkpt lat="47.80353" lon="-3.39152">
        <ele>26</ele>
        <time>2019-07-17T14:32:58Z</time>
      </trkpt>
      <trkpt lat="47.80352" lon="-3.39156">
        <ele>25</ele>
        <time>2019-07-17T14:32:59Z</time>
      </trkpt>
      <trkpt lat="47.80351" lon="-3.3916">
        <ele>25</ele>
        <time>2019-07-17T14:33:00Z</time>
      </trkpt>
      <trkpt lat="47.80349" lon="-3.39165">
        <ele>25</ele>
        <time>2019-07-17T14:33:01Z</time>
      </trkpt>
      <trkpt lat="47.80348" lon="-3.39168">
        <ele>25</ele>
        <time>2019-07-17T14:33:02Z</time>
      </trkpt>
      <trkpt lat="47.80347" lon="-3.39172">
        <ele>24</ele>
        <time>2019-07-17T14:33:03Z</time>
      </trkpt>
      <trkpt lat="47.80346" lon="-3.39175">
        <ele>24</ele>
        <time>2019-07-17T14:33:04Z</time>
      </trkpt>
      <trkpt lat="47.80346" lon="-3.39179">
        <ele>24</ele>
        <time>2019-07-17T14:33:05Z</time>
      </trkpt>
      <trkpt lat="47.80345" lon="-3.39182">
        <ele>24</ele>
        <time>2019-07-17T14:33:06Z</time>
      </trkpt>
      <trkpt lat="47.80343" lon="-3.39184">
        <ele>24</ele>
        <time>2019-07-17T14:33:07Z</time>
      </trkpt>
      <trkpt lat="47.80341" lon="-3.39186">
        <ele>24</ele>
        <time>2019-07-17T14:33:08Z</time>
      </trkpt>
      <trkpt lat="47.80339" lon="-3.39189">
        <ele>24</ele>
        <time>2019-07-17T14:33:09Z</time>
      </trkpt>
      <trkpt lat="47.80337" lon="-3.39194">
        <ele>24</ele>
        <time>2019-07-17T14:33:10Z</time>
      </trkpt>
      <trkpt lat="47.80336" lon="-3.39197">
        <ele>23</ele>
        <time>2019-07-17T14:33:11Z</time>
      </trkpt>
      <trkpt lat="47.80335" lon="-3.39201">
        <ele>23</ele>
        <time>2019-07-17T14:33:12Z</time>
      </trkpt>
      <trkpt lat="47.80335" lon="-3.39205">
        <ele>23</ele>
        <time>2019-07-17T14:33:13Z</time>
      </trkpt>
      <trkpt lat="47.80334" lon="-3.39209">
        <ele>23</ele>
        <time>2019-07-17T14:33:14Z</time>
      </trkpt>
      <trkpt lat="47.80332" lon="-3.39211">
        <ele>23</ele>
        <time>2019-07-17T14:33:15Z</time>
      </trkpt>
      <trkpt lat="47.8033" lon="-3.39214">
        <ele>23</ele>
        <time>2019-07-17T14:33:16Z</time>
      </trkpt>
      <trkpt lat="47.80328" lon="-3.39218">
        <ele>23</ele>
        <time>2019-07-17T14:33:17Z</time>
      </trkpt>
      <trkpt lat="47.80324" lon="-3.39222">
        <ele>23</ele>
        <time>2019-07-17T14:33:18Z</time>
      </trkpt>
      <trkpt lat="47.80322" lon="-3.39226">
        <ele>23</ele>
        <time>2019-07-17T14:33:19Z</time>
      </trkpt>
      <trkpt lat="47.8032" lon="-3.39231">
        <ele>23</ele>
        <time>2019-07-17T14:33:20Z</time>
      </trkpt>
      <trkpt lat="47.80318" lon="-3.39236">
        <ele>23</ele>
        <time>2019-07-17T14:33:21Z</time>
      </trkpt>
      <trkpt lat="47.80317" lon="-3.39241">
        <ele>23</ele>
        <time>2019-07-17T14:33:22Z</time>
      </trkpt>
      <trkpt lat="47.80316" lon="-3.39247">
        <ele>23</ele>
        <time>2019-07-17T14:33:23Z</time>
      </trkpt>
      <trkpt lat="47.80316" lon="-3.39253">
        <ele>23</ele>
        <time>2019-07-17T14:33:24Z</time>
      </trkpt>
      <trkpt lat="47.80316" lon="-3.39259">
        <ele>22</ele>
        <time>2019-07-17T14:33:25Z</time>
      </trkpt>
      <trkpt lat="47.80316" lon="-3.39264">
        <ele>22</ele>
        <time>2019-07-17T14:33:26Z</time>
      </trkpt>
      <trkpt lat="47.80317" lon="-3.39269">
        <ele>22</ele>
        <time>2019-07-17T14:33:27Z</time>
      </trkpt>
      <trkpt lat="47.80317" lon="-3.39273">
        <ele>22</ele>
        <time>2019-07-17T14:33:28Z</time>
      </trkpt>
      <trkpt lat="47.80319" lon="-3.39276">
        <ele>22</ele>
        <time>2019-07-17T14:33:29Z</time>
      </trkpt>
      <trkpt lat="47.80321" lon="-3.39279">
        <ele>22</ele>
        <time>2019-07-17T14:33:30Z</time>
      </trkpt>
      <trkpt lat="47.80323" lon="-3.39282">
        <ele>22</ele>
        <time>2019-07-17T14:33:31Z</time>
      </trkpt>
      <trkpt lat="47.80327" lon="-3.39285">
        <ele>22</ele>
        <time>2019-07-17T14:33:32Z</time>
      </trkpt>
      <trkpt lat="47.8033" lon="-3.39288">
        <ele>22</ele>
        <time>2019-07-17T14:33:33Z</time>
      </trkpt>
      <trkpt lat="47.80333" lon="-3.3929">
        <ele>22</ele>
        <time>2019-07-17T14:33:34Z</time>
      </trkpt>
      <trkpt lat="47.80336" lon="-3.39293">
        <ele>22</ele>
        <time>2019-07-17T14:33:35Z</time>
      </trkpt>
      <trkpt lat="47.80339" lon="-3.39296">
        <ele>22</ele>
        <time>2019-07-17T14:33:36Z</time>
      </trkpt>
      <trkpt lat="47.80342" lon="-3.39299">
        <ele>22</ele>
        <time>2019-07-17T14:33:37Z</time>
      </trkpt>
      <trkpt lat="47.80345" lon="-3.39303">
        <ele>22</ele>
        <time>2019-07-17T14:33:38Z</time>
      </trkpt>
      <trkpt lat="47.80348" lon="-3.39306">
        <ele>22</ele>
        <time>2019-07-17T14:33:39Z</time>
      </trkpt>
      <trkpt lat="47.80351" lon="-3.3931">
        <ele>22</ele>
        <time>2019-07-17T14:33:40Z</time>
      </trkpt>
      <trkpt lat="47.80353" lon="-3.39315">
        <ele>22</ele>
        <time>2019-07-17T14:33:41Z</time>
      </trkpt>
      <trkpt lat="47.80355" lon="-3.39319">
        <ele>22</ele>
        <time>2019-07-17T14:33:42Z</time>
      </trkpt>
      <trkpt lat="47.80358" lon="-3.39324">
        <ele>22</ele>
        <time>2019-07-17T14:33:43Z</time>
      </trkpt>
      <trkpt lat="47.80361" lon="-3.39329">
        <ele>22</ele>
        <time>2019-07-17T14:33:44Z</time>
      </trkpt>
      <trkpt lat="47.80364" lon="-3.39333">
        <ele>21</ele>
        <time>2019-07-17T14:33:45Z</time>
      </trkpt>
      <trkpt lat="47.80367" lon="-3.39336">
        <ele>21</ele>
        <time>2019-07-17T14:33:46Z</time>
      </trkpt>
      <trkpt lat="47.8037" lon="-3.39339">
        <ele>21</ele>
        <time>2019-07-17T14:33:47Z</time>
      </trkpt>
      <trkpt lat="47.80373" lon="-3.39343">
        <ele>21</ele>
        <time>2019-07-17T14:33:48Z</time>
      </trkpt>
      <trkpt lat="47.80375" lon="-3.39347">
        <ele>21</ele>
        <time>2019-07-17T14:33:49Z</time>
      </trkpt>
      <trkpt lat="47.80378" lon="-3.39352">
        <ele>21</ele>
        <time>2019-07-17T14:33:50Z</time>
      </trkpt>
      <trkpt lat="47.80381" lon="-3.39356">
        <ele>21</ele>
        <time>2019-07-17T14:33:51Z</time>
      </trkpt>
      <trkpt lat="47.80384" lon="-3.39361">
        <ele>21</ele>
        <time>2019-07-17T14:33:52Z</time>
      </trkpt>
      <trkpt lat="47.80387" lon="-3.39364">
        <ele>21</ele>
        <time>2019-07-17T14:33:53Z</time>
      </trkpt>
      <trkpt lat="47.80391" lon="-3.39368">
        <ele>21</ele>
        <time>2019-07-17T14:33:54Z</time>
      </trkpt>
      <trkpt lat="47.80395" lon="-3.39372">
        <ele>21</ele>
        <time>2019-07-17T14:33:55Z</time>
      </trkpt>
      <trkpt lat="47.80398" lon="-3.39376">
        <ele>21</ele>
        <time>2019-07-17T14:33:56Z</time>
      </trkpt>
      <trkpt lat="47.80401" lon="-3.3938">
        <ele>21</ele>
        <time>2019-07-17T14:33:57Z</time>
      </trkpt>
      <trkpt lat="47.80404" lon="-3.39384">
        <ele>21</ele>
        <time>2019-07-17T14:33:58Z</time>
      </trkpt>
      <trkpt lat="47.80407" lon="-3.39388">
        <ele>21</ele>
        <time>2019-07-17T14:33:59Z</time>
      </trkpt>
      <trkpt lat="47.8041" lon="-3.39392">
        <ele>21</ele>
        <time>2019-07-17T14:34:00Z</time>
      </trkpt>
      <trkpt lat="47.80413" lon="-3.39396">
        <ele>21</ele>
        <time>2019-07-17T14:34:01Z</time>
      </trkpt>
      <trkpt lat="47.80416" lon="-3.39398">
        <ele>21</ele>
        <time>2019-07-17T14:34:02Z</time>
      </trkpt>
      <trkpt lat="47.80419" lon="-3.39401">
        <ele>22</ele>
        <time>2019-07-17T14:34:03Z</time>
      </trkpt>
      <trkpt lat="47.80422" lon="-3.39404">
        <ele>22</ele>
        <time>2019-07-17T14:34:04Z</time>
      </trkpt>
      <trkpt lat="47.80426" lon="-3.39407">
        <ele>22</ele>
        <time>2019-07-17T14:34:05Z</time>
      </trkpt>
      <trkpt lat="47.80429" lon="-3.3941">
        <ele>22</ele>
        <time>2019-07-17T14:34:06Z</time>
      </trkpt>
      <trkpt lat="47.80433" lon="-3.39413">
        <ele>22</ele>
        <time>2019-07-17T14:34:07Z</time>
      </trkpt>
      <trkpt lat="47.80436" lon="-3.39416">
        <ele>22</ele>
        <time>2019-07-17T14:34:08Z</time>
      </trkpt>
      <trkpt lat="47.8044" lon="-3.39419">
        <ele>22</ele>
        <time>2019-07-17T14:34:09Z</time>
      </trkpt>
      <trkpt lat="47.80444" lon="-3.39422">
        <ele>22</ele>
        <time>2019-07-17T14:34:10Z</time>
      </trkpt>
      <trkpt lat="47.80448" lon="-3.39425">
        <ele>22</ele>
        <time>2019-07-17T14:34:11Z</time>
      </trkpt>
      <trkpt lat="47.80452" lon="-3.39428">
        <ele>22</ele>
        <time>2019-07-17T14:34:12Z</time>
      </trkpt>
      <trkpt lat="47.80455" lon="-3.39431">
        <ele>22</ele>
        <time>2019-07-17T14:34:13Z</time>
      </trkpt>
      <trkpt lat="47.80457" lon="-3.39434">
        <ele>22</ele>
        <time>2019-07-17T14:34:14Z</time>
      </trkpt>
      <trkpt lat="47.8046" lon="-3.39437">
        <ele>22</ele>
        <time>2019-07-17T14:34:15Z</time>
      </trkpt>
      <trkpt lat="47.80464" lon="-3.39439">
        <ele>22</ele>
        <time>2019-07-17T14:34:16Z</time>
      </trkpt>
      <trkpt lat="47.80467" lon="-3.39441">
        <ele>22</ele>
        <time>2019-07-17T14:34:17Z</time>
      </trkpt>
      <trkpt lat="47.80471" lon="-3.39444">
        <ele>22</ele>
        <time>2019-07-17T14:34:18Z</time>
      </trkpt>
      <trkpt lat="47.80476" lon="-3.39447">
        <ele>23</ele>
        <time>2019-07-17T14:34:19Z</time>
      </trkpt>
      <trkpt lat="47.8048" lon="-3.39449">
        <ele>23</ele>
        <time>2019-07-17T14:34:20Z</time>
      </trkpt>
      <trkpt lat="47.80483" lon="-3.39452">
        <ele>23</ele>
        <time>2019-07-17T14:34:21Z</time>
      </trkpt>
      <trkpt lat="47.80488" lon="-3.39454">
        <ele>23</ele>
        <time>2019-07-17T14:34:22Z</time>
      </trkpt>
      <trkpt lat="47.80492" lon="-3.39456">
        <ele>23</ele>
        <time>2019-07-17T14:34:23Z</time>
      </trkpt>
      <trkpt lat="47.80498" lon="-3.39456">
        <ele>23</ele>
        <time>2019-07-17T14:34:24Z</time>
      </trkpt>
      <trkpt lat="47.80503" lon="-3.39456">
        <ele>23</ele>
        <time>2019-07-17T14:34:25Z</time>
      </trkpt>
      <trkpt lat="47.80508" lon="-3.39456">
        <ele>23</ele>
        <time>2019-07-17T14:34:26Z</time>
      </trkpt>
      <trkpt lat="47.80513" lon="-3.39456">
        <ele>23</ele>
        <time>2019-07-17T14:34:27Z</time>
      </trkpt>
      <trkpt lat="47.80517" lon="-3.39457">
        <ele>23</ele>
        <time>2019-07-17T14:34:28Z</time>
      </trkpt>
      <trkpt lat="47.80521" lon="-3.3946">
        <ele>23</ele>
        <time>2019-07-17T14:34:29Z</time>
      </trkpt>
      <trkpt lat="47.80526" lon="-3.39462">
        <ele>23</ele>
        <time>2019-07-17T14:34:30Z</time>
      </trkpt>
      <trkpt lat="47.8053" lon="-3.39465">
        <ele>24</ele>
        <time>2019-07-17T14:34:31Z</time>
      </trkpt>
      <trkpt lat="47.80535" lon="-3.39468">
        <ele>23</ele>
        <time>2019-07-17T14:34:32Z</time>
      </trkpt>
      <trkpt lat="47.8054" lon="-3.39471">
        <ele>23</ele>
        <time>2019-07-17T14:34:33Z</time>
      </trkpt>
      <trkpt lat="47.80545" lon="-3.39474">
        <ele>23</ele>
        <time>2019-07-17T14:34:34Z</time>
      </trkpt>
      <trkpt lat="47.80549" lon="-3.39477">
        <ele>23</ele>
        <time>2019-07-17T14:34:35Z</time>
      </trkpt>
      <trkpt lat="47.80554" lon="-3.3948">
        <ele>23</ele>
        <time>2019-07-17T14:34:36Z</time>
      </trkpt>
      <trkpt lat="47.80558" lon="-3.39483">
        <ele>23</ele>
        <time>2019-07-17T14:34:37Z</time>
      </trkpt>
      <trkpt lat="47.80563" lon="-3.39486">
        <ele>23</ele>
        <time>2019-07-17T14:34:38Z</time>
      </trkpt>
      <trkpt lat="47.80566" lon="-3.39489">
        <ele>23</ele>
        <time>2019-07-17T14:34:39Z</time>
      </trkpt>
      <trkpt lat="47.8057" lon="-3.39493">
        <ele>23</ele>
        <time>2019-07-17T14:34:40Z</time>
      </trkpt>
      <trkpt lat="47.80574" lon="-3.39498">
        <ele>23</ele>
        <time>2019-07-17T14:34:41Z</time>
      </trkpt>
      <trkpt lat="47.80578" lon="-3.39502">
        <ele>23</ele>
        <time>2019-07-17T14:34:42Z</time>
      </trkpt>
      <trkpt lat="47.80582" lon="-3.39505">
        <ele>23</ele>
        <time>2019-07-17T14:34:43Z</time>
      </trkpt>
      <trkpt lat="47.80587" lon="-3.39506">
        <ele>23</ele>
        <time>2019-07-17T14:34:44Z</time>
      </trkpt>
      <trkpt lat="47.80591" lon="-3.39508">
        <ele>23</ele>
        <time>2019-07-17T14:34:45Z</time>
      </trkpt>
      <trkpt lat="47.80595" lon="-3.3951">
        <ele>23</ele>
        <time>2019-07-17T14:34:46Z</time>
      </trkpt>
      <trkpt lat="47.80598" lon="-3.39512">
        <ele>23</ele>
        <time>2019-07-17T14:34:47Z</time>
      </trkpt>
      <trkpt lat="47.80601" lon="-3.39515">
        <ele>23</ele>
        <time>2019-07-17T14:34:48Z</time>
      </trkpt>
      <trkpt lat="47.80604" lon="-3.39516">
        <ele>23</ele>
        <time>2019-07-17T14:34:49Z</time>
      </trkpt>
      <trkpt lat="47.80608" lon="-3.39518">
        <ele>23</ele>
        <time>2019-07-17T14:34:50Z</time>
      </trkpt>
      <trkpt lat="47.80612" lon="-3.3952">
        <ele>23</ele>
        <time>2019-07-17T14:34:51Z</time>
      </trkpt>
      <trkpt lat="47.80616" lon="-3.39523">
        <ele>23</ele>
        <time>2019-07-17T14:34:52Z</time>
      </trkpt>
      <trkpt lat="47.80621" lon="-3.39525">
        <ele>23</ele>
        <time>2019-07-17T14:34:53Z</time>
      </trkpt>
      <trkpt lat="47.80625" lon="-3.39526">
        <ele>23</ele>
        <time>2019-07-17T14:34:54Z</time>
      </trkpt>
      <trkpt lat="47.80628" lon="-3.39529">
        <ele>24</ele>
        <time>2019-07-17T14:34:55Z</time>
      </trkpt>
      <trkpt lat="47.80632" lon="-3.39531">
        <ele>24</ele>
        <time>2019-07-17T14:34:56Z</time>
      </trkpt>
      <trkpt lat="47.80635" lon="-3.39532">
        <ele>24</ele>
        <time>2019-07-17T14:34:57Z</time>
      </trkpt>
      <trkpt lat="47.80638" lon="-3.39534">
        <ele>24</ele>
        <time>2019-07-17T14:34:58Z</time>
      </trkpt>
      <trkpt lat="47.80641" lon="-3.39537">
        <ele>24</ele>
        <time>2019-07-17T14:34:59Z</time>
      </trkpt>
      <trkpt lat="47.80645" lon="-3.3954">
        <ele>24</ele>
        <time>2019-07-17T14:35:00Z</time>
      </trkpt>
      <trkpt lat="47.80648" lon="-3.39545">
        <ele>24</ele>
        <time>2019-07-17T14:35:01Z</time>
      </trkpt>
      <trkpt lat="47.80651" lon="-3.3955">
        <ele>24</ele>
        <time>2019-07-17T14:35:02Z</time>
      </trkpt>
      <trkpt lat="47.80653" lon="-3.39556">
        <ele>24</ele>
        <time>2019-07-17T14:35:03Z</time>
      </trkpt>
      <trkpt lat="47.80655" lon="-3.39562">
        <ele>24</ele>
        <time>2019-07-17T14:35:04Z</time>
      </trkpt>
      <trkpt lat="47.80657" lon="-3.39566">
        <ele>23</ele>
        <time>2019-07-17T14:35:05Z</time>
      </trkpt>
      <trkpt lat="47.80658" lon="-3.39571">
        <ele>23</ele>
        <time>2019-07-17T14:35:06Z</time>
      </trkpt>
      <trkpt lat="47.8066" lon="-3.39575">
        <ele>23</ele>
        <time>2019-07-17T14:35:07Z</time>
      </trkpt>
      <trkpt lat="47.80661" lon="-3.3958">
        <ele>23</ele>
        <time>2019-07-17T14:35:08Z</time>
      </trkpt>
      <trkpt lat="47.80661" lon="-3.39585">
        <ele>23</ele>
        <time>2019-07-17T14:35:09Z</time>
      </trkpt>
      <trkpt lat="47.80661" lon="-3.39589">
        <ele>23</ele>
        <time>2019-07-17T14:35:10Z</time>
      </trkpt>
      <trkpt lat="47.80661" lon="-3.39594">
        <ele>22</ele>
        <time>2019-07-17T14:35:11Z</time>
      </trkpt>
      <trkpt lat="47.80661" lon="-3.396">
        <ele>22</ele>
        <time>2019-07-17T14:35:12Z</time>
      </trkpt>
      <trkpt lat="47.80661" lon="-3.39606">
        <ele>22</ele>
        <time>2019-07-17T14:35:13Z</time>
      </trkpt>
      <trkpt lat="47.8066" lon="-3.39613">
        <ele>22</ele>
        <time>2019-07-17T14:35:14Z</time>
      </trkpt>
      <trkpt lat="47.8066" lon="-3.39621">
        <ele>22</ele>
        <time>2019-07-17T14:35:15Z</time>
      </trkpt>
      <trkpt lat="47.80659" lon="-3.39628">
        <ele>22</ele>
        <time>2019-07-17T14:35:16Z</time>
      </trkpt>
      <trkpt lat="47.80658" lon="-3.39635">
        <ele>22</ele>
        <time>2019-07-17T14:35:17Z</time>
      </trkpt>
      <trkpt lat="47.80657" lon="-3.39641">
        <ele>22</ele>
        <time>2019-07-17T14:35:18Z</time>
      </trkpt>
      <trkpt lat="47.80656" lon="-3.39647">
        <ele>22</ele>
        <time>2019-07-17T14:35:19Z</time>
      </trkpt>
      <trkpt lat="47.80655" lon="-3.39653">
        <ele>22</ele>
        <time>2019-07-17T14:35:20Z</time>
      </trkpt>
      <trkpt lat="47.80653" lon="-3.39658">
        <ele>22</ele>
        <time>2019-07-17T14:35:21Z</time>
      </trkpt>
      <trkpt lat="47.80651" lon="-3.39664">
        <ele>22</ele>
        <time>2019-07-17T14:35:22Z</time>
      </trkpt>
      <trkpt lat="47.80649" lon="-3.39669">
        <ele>22</ele>
        <time>2019-07-17T14:35:23Z</time>
      </trkpt>
      <trkpt lat="47.80647" lon="-3.39675">
        <ele>23</ele>
        <time>2019-07-17T14:35:24Z</time>
      </trkpt>
      <trkpt lat="47.80645" lon="-3.3968">
        <ele>23</ele>
        <time>2019-07-17T14:35:25Z</time>
      </trkpt>
      <trkpt lat="47.80643" lon="-3.39685">
        <ele>23</ele>
        <time>2019-07-17T14:35:26Z</time>
      </trkpt>
      <trkpt lat="47.80642" lon="-3.39689">
        <ele>23</ele>
        <time>2019-07-17T14:35:27Z</time>
      </trkpt>
      <trkpt lat="47.80641" lon="-3.39695">
        <ele>24</ele>
        <time>2019-07-17T14:35:28Z</time>
      </trkpt>
      <trkpt lat="47.8064" lon="-3.39701">
        <ele>24</ele>
        <time>2019-07-17T14:35:29Z</time>
      </trkpt>
      <trkpt lat="47.80639" lon="-3.39708">
        <ele>24</ele>
        <time>2019-07-17T14:35:30Z</time>
      </trkpt>
      <trkpt lat="47.80639" lon="-3.39714">
        <ele>24</ele>
        <time>2019-07-17T14:35:31Z</time>
      </trkpt>
      <trkpt lat="47.80641" lon="-3.39722">
        <ele>24</ele>
        <time>2019-07-17T14:35:32Z</time>
      </trkpt>
      <trkpt lat="47.80644" lon="-3.39729">
        <ele>24</ele>
        <time>2019-07-17T14:35:33Z</time>
      </trkpt>
      <trkpt lat="47.80648" lon="-3.39737">
        <ele>24</ele>
        <time>2019-07-17T14:35:34Z</time>
      </trkpt>
      <trkpt lat="47.80652" lon="-3.39744">
        <ele>24</ele>
        <time>2019-07-17T14:35:35Z</time>
      </trkpt>
      <trkpt lat="47.80657" lon="-3.39749">
        <ele>24</ele>
        <time>2019-07-17T14:35:36Z</time>
      </trkpt>
      <trkpt lat="47.80662" lon="-3.39751">
        <ele>23</ele>
        <time>2019-07-17T14:35:37Z</time>
      </trkpt>
      <trkpt lat="47.80667" lon="-3.39754">
        <ele>23</ele>
        <time>2019-07-17T14:35:38Z</time>
      </trkpt>
      <trkpt lat="47.80671" lon="-3.39759">
        <ele>23</ele>
        <time>2019-07-17T14:35:39Z</time>
      </trkpt>
      <trkpt lat="47.80674" lon="-3.39764">
        <ele>22</ele>
        <time>2019-07-17T14:35:40Z</time>
      </trkpt>
      <trkpt lat="47.80677" lon="-3.39768">
        <ele>22</ele>
        <time>2019-07-17T14:35:41Z</time>
      </trkpt>
      <trkpt lat="47.80678" lon="-3.39769">
        <ele>22</ele>
        <time>2019-07-17T14:35:42Z</time>
      </trkpt>
      <trkpt lat="47.80678" lon="-3.3977">
        <ele>21</ele>
        <time>2019-07-17T14:35:43Z</time>
      </trkpt>
      <trkpt lat="47.8068" lon="-3.39769">
        <ele>21</ele>
        <time>2019-07-17T14:35:44Z</time>
      </trkpt>
      <trkpt lat="47.80682" lon="-3.39768">
        <ele>21</ele>
        <time>2019-07-17T14:35:45Z</time>
      </trkpt>
      <trkpt lat="47.80686" lon="-3.39767">
        <ele>21</ele>
        <time>2019-07-17T14:35:46Z</time>
      </trkpt>
      <trkpt lat="47.8069" lon="-3.39768">
        <ele>20</ele>
        <time>2019-07-17T14:35:47Z</time>
      </trkpt>
      <trkpt lat="47.80693" lon="-3.3977">
        <ele>20</ele>
        <time>2019-07-17T14:35:48Z</time>
      </trkpt>
      <trkpt lat="47.80696" lon="-3.39774">
        <ele>20</ele>
        <time>2019-07-17T14:35:49Z</time>
      </trkpt>
      <trkpt lat="47.80699" lon="-3.39779">
        <ele>20</ele>
        <time>2019-07-17T14:35:50Z</time>
      </trkpt>
      <trkpt lat="47.80701" lon="-3.39784">
        <ele>20</ele>
        <time>2019-07-17T14:35:51Z</time>
      </trkpt>
      <trkpt lat="47.80704" lon="-3.39788">
        <ele>20</ele>
        <time>2019-07-17T14:35:52Z</time>
      </trkpt>
      <trkpt lat="47.80707" lon="-3.39792">
        <ele>20</ele>
        <time>2019-07-17T14:35:53Z</time>
      </trkpt>
      <trkpt lat="47.80709" lon="-3.39798">
        <ele>19</ele>
        <time>2019-07-17T14:35:54Z</time>
      </trkpt>
      <trkpt lat="47.80711" lon="-3.39805">
        <ele>19</ele>
        <time>2019-07-17T14:35:55Z</time>
      </trkpt>
      <trkpt lat="47.80713" lon="-3.39812">
        <ele>19</ele>
        <time>2019-07-17T14:35:56Z</time>
      </trkpt>
      <trkpt lat="47.80715" lon="-3.39818">
        <ele>19</ele>
        <time>2019-07-17T14:35:57Z</time>
      </trkpt>
      <trkpt lat="47.80717" lon="-3.39825">
        <ele>19</ele>
        <time>2019-07-17T14:35:58Z</time>
      </trkpt>
      <trkpt lat="47.80719" lon="-3.39834">
        <ele>19</ele>
        <time>2019-07-17T14:35:59Z</time>
      </trkpt>
      <trkpt lat="47.80722" lon="-3.39843">
        <ele>18</ele>
        <time>2019-07-17T14:36:00Z</time>
      </trkpt>
      <trkpt lat="47.80725" lon="-3.39851">
        <ele>18</ele>
        <time>2019-07-17T14:36:01Z</time>
      </trkpt>
      <trkpt lat="47.80729" lon="-3.39858">
        <ele>18</ele>
        <time>2019-07-17T14:36:02Z</time>
      </trkpt>
      <trkpt lat="47.80734" lon="-3.39864">
        <ele>18</ele>
        <time>2019-07-17T14:36:03Z</time>
      </trkpt>
      <trkpt lat="47.80739" lon="-3.3987">
        <ele>18</ele>
        <time>2019-07-17T14:36:04Z</time>
      </trkpt>
      <trkpt lat="47.80744" lon="-3.39874">
        <ele>17</ele>
        <time>2019-07-17T14:36:05Z</time>
      </trkpt>
      <trkpt lat="47.80749" lon="-3.39878">
        <ele>17</ele>
        <time>2019-07-17T14:36:06Z</time>
      </trkpt>
      <trkpt lat="47.80753" lon="-3.39881">
        <ele>17</ele>
        <time>2019-07-17T14:36:07Z</time>
      </trkpt>
      <trkpt lat="47.80757" lon="-3.39885">
        <ele>16</ele>
        <time>2019-07-17T14:36:08Z</time>
      </trkpt>
      <trkpt lat="47.80761" lon="-3.39888">
        <ele>16</ele>
        <time>2019-07-17T14:36:09Z</time>
      </trkpt>
      <trkpt lat="47.80765" lon="-3.39892">
        <ele>16</ele>
        <time>2019-07-17T14:36:10Z</time>
      </trkpt>
      <trkpt lat="47.80769" lon="-3.39896">
        <ele>16</ele>
        <time>2019-07-17T14:36:11Z</time>
      </trkpt>
      <trkpt lat="47.80773" lon="-3.39899">
        <ele>16</ele>
        <time>2019-07-17T14:36:12Z</time>
      </trkpt>
      <trkpt lat="47.80778" lon="-3.39901">
        <ele>15</ele>
        <time>2019-07-17T14:36:13Z</time>
      </trkpt>
      <trkpt lat="47.80782" lon="-3.39903">
        <ele>15</ele>
        <time>2019-07-17T14:36:14Z</time>
      </trkpt>
      <trkpt lat="47.80786" lon="-3.39906">
        <ele>15</ele>
        <time>2019-07-17T14:36:15Z</time>
      </trkpt>
      <trkpt lat="47.8079" lon="-3.39908">
        <ele>15</ele>
        <time>2019-07-17T14:36:16Z</time>
      </trkpt>
      <trkpt lat="47.80793" lon="-3.39911">
        <ele>15</ele>
        <time>2019-07-17T14:36:17Z</time>
      </trkpt>
      <trkpt lat="47.80797" lon="-3.39916">
        <ele>15</ele>
        <time>2019-07-17T14:36:18Z</time>
      </trkpt>
      <trkpt lat="47.808" lon="-3.39921">
        <ele>15</ele>
        <time>2019-07-17T14:36:19Z</time>
      </trkpt>
      <trkpt lat="47.80803" lon="-3.39924">
        <ele>15</ele>
        <time>2019-07-17T14:36:20Z</time>
      </trkpt>
      <trkpt lat="47.80807" lon="-3.39928">
        <ele>15</ele>
        <time>2019-07-17T14:36:21Z</time>
      </trkpt>
      <trkpt lat="47.8081" lon="-3.39931">
        <ele>15</ele>
        <time>2019-07-17T14:36:22Z</time>
      </trkpt>
      <trkpt lat="47.80813" lon="-3.39934">
        <ele>15</ele>
        <time>2019-07-17T14:36:23Z</time>
      </trkpt>
      <trkpt lat="47.80817" lon="-3.39936">
        <ele>15</ele>
        <time>2019-07-17T14:36:24Z</time>
      </trkpt>
      <trkpt lat="47.80821" lon="-3.39939">
        <ele>15</ele>
        <time>2019-07-17T14:36:25Z</time>
      </trkpt>
      <trkpt lat="47.80824" lon="-3.39942">
        <ele>15</ele>
        <time>2019-07-17T14:36:26Z</time>
      </trkpt>
      <trkpt lat="47.80828" lon="-3.39944">
        <ele>15</ele>
        <time>2019-07-17T14:36:27Z</time>
      </trkpt>
      <trkpt lat="47.80833" lon="-3.39947">
        <ele>15</ele>
        <time>2019-07-17T14:36:28Z</time>
      </trkpt>
      <trkpt lat="47.80837" lon="-3.3995">
        <ele>15</ele>
        <time>2019-07-17T14:36:29Z</time>
      </trkpt>
      <trkpt lat="47.80841" lon="-3.39953">
        <ele>15</ele>
        <time>2019-07-17T14:36:30Z</time>
      </trkpt>
      <trkpt lat="47.80846" lon="-3.39956">
        <ele>16</ele>
        <time>2019-07-17T14:36:31Z</time>
      </trkpt>
      <trkpt lat="47.8085" lon="-3.39958">
        <ele>16</ele>
        <time>2019-07-17T14:36:32Z</time>
      </trkpt>
      <trkpt lat="47.80854" lon="-3.3996">
        <ele>16</ele>
        <time>2019-07-17T14:36:33Z</time>
      </trkpt>
      <trkpt lat="47.80858" lon="-3.39961">
        <ele>16</ele>
        <time>2019-07-17T14:36:34Z</time>
      </trkpt>
      <trkpt lat="47.80863" lon="-3.39962">
        <ele>16</ele>
        <time>2019-07-17T14:36:35Z</time>
      </trkpt>
      <trkpt lat="47.80868" lon="-3.39964">
        <ele>16</ele>
        <time>2019-07-17T14:36:36Z</time>
      </trkpt>
      <trkpt lat="47.80872" lon="-3.39967">
        <ele>16</ele>
        <time>2019-07-17T14:36:37Z</time>
      </trkpt>
      <trkpt lat="47.80876" lon="-3.39972">
        <ele>16</ele>
        <time>2019-07-17T14:36:38Z</time>
      </trkpt>
      <trkpt lat="47.8088" lon="-3.39978">
        <ele>16</ele>
        <time>2019-07-17T14:36:39Z</time>
      </trkpt>
      <trkpt lat="47.80883" lon="-3.39984">
        <ele>16</ele>
        <time>2019-07-17T14:36:40Z</time>
      </trkpt>
      <trkpt lat="47.80886" lon="-3.3999">
        <ele>16</ele>
        <time>2019-07-17T14:36:41Z</time>
      </trkpt>
      <trkpt lat="47.80888" lon="-3.39996">
        <ele>16</ele>
        <time>2019-07-17T14:36:42Z</time>
      </trkpt>
      <trkpt lat="47.8089" lon="-3.40001">
        <ele>16</ele>
        <time>2019-07-17T14:36:43Z</time>
      </trkpt>
      <trkpt lat="47.80892" lon="-3.40005">
        <ele>16</ele>
        <time>2019-07-17T14:36:44Z</time>
      </trkpt>
      <trkpt lat="47.80896" lon="-3.40012">
        <ele>16</ele>
        <time>2019-07-17T14:36:45Z</time>
      </trkpt>
      <trkpt lat="47.80899" lon="-3.40019">
        <ele>16</ele>
        <time>2019-07-17T14:36:46Z</time>
      </trkpt>
      <trkpt lat="47.80902" lon="-3.40028">
        <ele>15</ele>
        <time>2019-07-17T14:36:47Z</time>
      </trkpt>
      <trkpt lat="47.80904" lon="-3.40035">
        <ele>15</ele>
        <time>2019-07-17T14:36:48Z</time>
      </trkpt>
      <trkpt lat="47.80905" lon="-3.40042">
        <ele>15</ele>
        <time>2019-07-17T14:36:49Z</time>
      </trkpt>
      <trkpt lat="47.80907" lon="-3.40049">
        <ele>15</ele>
        <time>2019-07-17T14:36:50Z</time>
      </trkpt>
      <trkpt lat="47.80908" lon="-3.40056">
        <ele>15</ele>
        <time>2019-07-17T14:36:51Z</time>
      </trkpt>
      <trkpt lat="47.80909" lon="-3.40063">
        <ele>14</ele>
        <time>2019-07-17T14:36:52Z</time>
      </trkpt>
      <trkpt lat="47.8091" lon="-3.4007">
        <ele>14</ele>
        <time>2019-07-17T14:36:53Z</time>
      </trkpt>
      <trkpt lat="47.80911" lon="-3.40078">
        <ele>14</ele>
        <time>2019-07-17T14:36:54Z</time>
      </trkpt>
      <trkpt lat="47.80913" lon="-3.40087">
        <ele>14</ele>
        <time>2019-07-17T14:36:55Z</time>
      </trkpt>
      <trkpt lat="47.80913" lon="-3.40095">
        <ele>14</ele>
        <time>2019-07-17T14:36:56Z</time>
      </trkpt>
      <trkpt lat="47.80913" lon="-3.40104">
        <ele>13</ele>
        <time>2019-07-17T14:36:57Z</time>
      </trkpt>
      <trkpt lat="47.80913" lon="-3.40112">
        <ele>13</ele>
        <time>2019-07-17T14:36:58Z</time>
      </trkpt>
      <trkpt lat="47.80913" lon="-3.40119">
        <ele>13</ele>
        <time>2019-07-17T14:36:59Z</time>
      </trkpt>
      <trkpt lat="47.80912" lon="-3.40126">
        <ele>12</ele>
        <time>2019-07-17T14:37:00Z</time>
      </trkpt>
      <trkpt lat="47.80911" lon="-3.40132">
        <ele>12</ele>
        <time>2019-07-17T14:37:01Z</time>
      </trkpt>
      <trkpt lat="47.8091" lon="-3.40139">
        <ele>12</ele>
        <time>2019-07-17T14:37:02Z</time>
      </trkpt>
      <trkpt lat="47.80909" lon="-3.40146">
        <ele>12</ele>
        <time>2019-07-17T14:37:03Z</time>
      </trkpt>
      <trkpt lat="47.80907" lon="-3.40153">
        <ele>12</ele>
        <time>2019-07-17T14:37:04Z</time>
      </trkpt>
      <trkpt lat="47.80905" lon="-3.4016">
        <ele>11</ele>
        <time>2019-07-17T14:37:05Z</time>
      </trkpt>
      <trkpt lat="47.80903" lon="-3.40167">
        <ele>11</ele>
        <time>2019-07-17T14:37:06Z</time>
      </trkpt>
      <trkpt lat="47.80901" lon="-3.40175">
        <ele>11</ele>
        <time>2019-07-17T14:37:07Z</time>
      </trkpt>
      <trkpt lat="47.80899" lon="-3.40182">
        <ele>11</ele>
        <time>2019-07-17T14:37:08Z</time>
      </trkpt>
      <trkpt lat="47.80897" lon="-3.4019">
        <ele>11</ele>
        <time>2019-07-17T14:37:09Z</time>
      </trkpt>
      <trkpt lat="47.80894" lon="-3.40198">
        <ele>11</ele>
        <time>2019-07-17T14:37:10Z</time>
      </trkpt>
      <trkpt lat="47.80892" lon="-3.40204">
        <ele>11</ele>
        <time>2019-07-17T14:37:11Z</time>
      </trkpt>
      <trkpt lat="47.8089" lon="-3.40211">
        <ele>11</ele>
        <time>2019-07-17T14:37:12Z</time>
      </trkpt>
      <trkpt lat="47.80887" lon="-3.40217">
        <ele>11</ele>
        <time>2019-07-17T14:37:13Z</time>
      </trkpt>
      <trkpt lat="47.80884" lon="-3.40224">
        <ele>11</ele>
        <time>2019-07-17T14:37:14Z</time>
      </trkpt>
      <trkpt lat="47.80882" lon="-3.4023">
        <ele>10</ele>
        <time>2019-07-17T14:37:15Z</time>
      </trkpt>
      <trkpt lat="47.8088" lon="-3.40236">
        <ele>10</ele>
        <time>2019-07-17T14:37:16Z</time>
      </trkpt>
      <trkpt lat="47.80877" lon="-3.40244">
        <ele>10</ele>
        <time>2019-07-17T14:37:17Z</time>
      </trkpt>
      <trkpt lat="47.80874" lon="-3.40251">
        <ele>10</ele>
        <time>2019-07-17T14:37:18Z</time>
      </trkpt>
      <trkpt lat="47.8087" lon="-3.40258">
        <ele>10</ele>
        <time>2019-07-17T14:37:19Z</time>
      </trkpt>
      <trkpt lat="47.80867" lon="-3.40266">
        <ele>10</ele>
        <time>2019-07-17T14:37:20Z</time>
      </trkpt>
      <trkpt lat="47.80863" lon="-3.40275">
        <ele>10</ele>
        <time>2019-07-17T14:37:21Z</time>
      </trkpt>
      <trkpt lat="47.80858" lon="-3.40283">
        <ele>10</ele>
        <time>2019-07-17T14:37:22Z</time>
      </trkpt>
      <trkpt lat="47.80854" lon="-3.4029">
        <ele>10</ele>
        <time>2019-07-17T14:37:23Z</time>
      </trkpt>
      <trkpt lat="47.80851" lon="-3.40298">
        <ele>10</ele>
        <time>2019-07-17T14:37:24Z</time>
      </trkpt>
      <trkpt lat="47.80848" lon="-3.40305">
        <ele>10</ele>
        <time>2019-07-17T14:37:25Z</time>
      </trkpt>
      <trkpt lat="47.80845" lon="-3.40311">
        <ele>10</ele>
        <time>2019-07-17T14:37:26Z</time>
      </trkpt>
      <trkpt lat="47.80843" lon="-3.40317">
        <ele>10</ele>
        <time>2019-07-17T14:37:27Z</time>
      </trkpt>
      <trkpt lat="47.80841" lon="-3.40323">
        <ele>9</ele>
        <time>2019-07-17T14:37:28Z</time>
      </trkpt>
      <trkpt lat="47.80839" lon="-3.40328">
        <ele>9</ele>
        <time>2019-07-17T14:37:29Z</time>
      </trkpt>
      <trkpt lat="47.80838" lon="-3.40332">
        <ele>9</ele>
        <time>2019-07-17T14:37:30Z</time>
      </trkpt>
      <trkpt lat="47.80835" lon="-3.40336">
        <ele>9</ele>
        <time>2019-07-17T14:37:31Z</time>
      </trkpt>
      <trkpt lat="47.80832" lon="-3.40342">
        <ele>9</ele>
        <time>2019-07-17T14:37:32Z</time>
      </trkpt>
      <trkpt lat="47.8083" lon="-3.40347">
        <ele>9</ele>
        <time>2019-07-17T14:37:33Z</time>
      </trkpt>
      <trkpt lat="47.80828" lon="-3.40353">
        <ele>9</ele>
        <time>2019-07-17T14:37:34Z</time>
      </trkpt>
      <trkpt lat="47.80826" lon="-3.4036">
        <ele>10</ele>
        <time>2019-07-17T14:37:35Z</time>
      </trkpt>
      <trkpt lat="47.80825" lon="-3.40366">
        <ele>10</ele>
        <time>2019-07-17T14:37:36Z</time>
      </trkpt>
      <trkpt lat="47.80823" lon="-3.40371">
        <ele>10</ele>
        <time>2019-07-17T14:37:37Z</time>
      </trkpt>
      <trkpt lat="47.80821" lon="-3.40376">
        <ele>10</ele>
        <time>2019-07-17T14:37:38Z</time>
      </trkpt>
      <trkpt lat="47.80819" lon="-3.40382">
        <ele>10</ele>
        <time>2019-07-17T14:37:39Z</time>
      </trkpt>
      <trkpt lat="47.80818" lon="-3.40387">
        <ele>10</ele>
        <time>2019-07-17T14:37:40Z</time>
      </trkpt>
      <trkpt lat="47.80815" lon="-3.40391">
        <ele>10</ele>
        <time>2019-07-17T14:37:41Z</time>
      </trkpt>
      <trkpt lat="47.80814" lon="-3.40394">
        <ele>10</ele>
        <time>2019-07-17T14:37:42Z</time>
      </trkpt>
      <trkpt lat="47.80812" lon="-3.40397">
        <ele>10</ele>
        <time>2019-07-17T14:37:43Z</time>
      </trkpt>
      <trkpt lat="47.80811" lon="-3.40402">
        <ele>10</ele>
        <time>2019-07-17T14:37:44Z</time>
      </trkpt>
      <trkpt lat="47.80809" lon="-3.40406">
        <ele>10</ele>
        <time>2019-07-17T14:37:45Z</time>
      </trkpt>
      <trkpt lat="47.80807" lon="-3.40412">
        <ele>10</ele>
        <time>2019-07-17T14:37:46Z</time>
      </trkpt>
      <trkpt lat="47.80806" lon="-3.40417">
        <ele>10</ele>
        <time>2019-07-17T14:37:47Z</time>
      </trkpt>
      <trkpt lat="47.80808" lon="-3.40421">
        <ele>10</ele>
        <time>2019-07-17T14:37:48Z</time>
      </trkpt>
      <trkpt lat="47.80811" lon="-3.40424">
        <ele>10</ele>
        <time>2019-07-17T14:37:49Z</time>
      </trkpt>
      <trkpt lat="47.80815" lon="-3.40426">
        <ele>10</ele>
        <time>2019-07-17T14:37:50Z</time>
      </trkpt>
      <trkpt lat="47.80819" lon="-3.40428">
        <ele>10</ele>
        <time>2019-07-17T14:37:51Z</time>
      </trkpt>
      <trkpt lat="47.80824" lon="-3.40429">
        <ele>10</ele>
        <time>2019-07-17T14:37:52Z</time>
      </trkpt>
      <trkpt lat="47.80829" lon="-3.40431">
        <ele>10</ele>
        <time>2019-07-17T14:37:53Z</time>
      </trkpt>
      <trkpt lat="47.80834" lon="-3.40433">
        <ele>10</ele>
        <time>2019-07-17T14:37:54Z</time>
      </trkpt>
      <trkpt lat="47.80839" lon="-3.40435">
        <ele>10</ele>
        <time>2019-07-17T14:37:55Z</time>
      </trkpt>
      <trkpt lat="47.80844" lon="-3.40436">
        <ele>10</ele>
        <time>2019-07-17T14:37:56Z</time>
      </trkpt>
      <trkpt lat="47.80848" lon="-3.40438">
        <ele>10</ele>
        <time>2019-07-17T14:37:57Z</time>
      </trkpt>
      <trkpt lat="47.80853" lon="-3.40441">
        <ele>10</ele>
        <time>2019-07-17T14:37:58Z</time>
      </trkpt>
      <trkpt lat="47.80857" lon="-3.40443">
        <ele>10</ele>
        <time>2019-07-17T14:37:59Z</time>
      </trkpt>
      <trkpt lat="47.80862" lon="-3.40445">
        <ele>10</ele>
        <time>2019-07-17T14:38:00Z</time>
      </trkpt>
      <trkpt lat="47.80867" lon="-3.40447">
        <ele>10</ele>
        <time>2019-07-17T14:38:01Z</time>
      </trkpt>
      <trkpt lat="47.80872" lon="-3.40449">
        <ele>10</ele>
        <time>2019-07-17T14:38:02Z</time>
      </trkpt>
      <trkpt lat="47.80877" lon="-3.40451">
        <ele>10</ele>
        <time>2019-07-17T14:38:03Z</time>
      </trkpt>
      <trkpt lat="47.80882" lon="-3.40452">
        <ele>10</ele>
        <time>2019-07-17T14:38:04Z</time>
      </trkpt>
      <trkpt lat="47.80887" lon="-3.40454">
        <ele>10</ele>
        <time>2019-07-17T14:38:05Z</time>
      </trkpt>
      <trkpt lat="47.80891" lon="-3.40456">
        <ele>10</ele>
        <time>2019-07-17T14:38:06Z</time>
      </trkpt>
      <trkpt lat="47.80896" lon="-3.40456">
        <ele>10</ele>
        <time>2019-07-17T14:38:07Z</time>
      </trkpt>
      <trkpt lat="47.809" lon="-3.40455">
        <ele>10</ele>
        <time>2019-07-17T14:38:08Z</time>
      </trkpt>
      <trkpt lat="47.80905" lon="-3.40453">
        <ele>10</ele>
        <time>2019-07-17T14:38:09Z</time>
      </trkpt>
      <trkpt lat="47.80908" lon="-3.40449">
        <ele>10</ele>
        <time>2019-07-17T14:38:10Z</time>
      </trkpt>
      <trkpt lat="47.80912" lon="-3.40444">
        <ele>10</ele>
        <time>2019-07-17T14:38:11Z</time>
      </trkpt>
      <trkpt lat="47.80916" lon="-3.40439">
        <ele>10</ele>
        <time>2019-07-17T14:38:12Z</time>
      </trkpt>
      <trkpt lat="47.80919" lon="-3.40433">
        <ele>10</ele>
        <time>2019-07-17T14:38:13Z</time>
      </trkpt>
      <trkpt lat="47.80923" lon="-3.40427">
        <ele>11</ele>
        <time>2019-07-17T14:38:14Z</time>
      </trkpt>
      <trkpt lat="47.80926" lon="-3.40421">
        <ele>11</ele>
        <time>2019-07-17T14:38:15Z</time>
      </trkpt>
      <trkpt lat="47.8093" lon="-3.40415">
        <ele>11</ele>
        <time>2019-07-17T14:38:16Z</time>
      </trkpt>
      <trkpt lat="47.80933" lon="-3.40409">
        <ele>11</ele>
        <time>2019-07-17T14:38:17Z</time>
      </trkpt>
      <trkpt lat="47.80936" lon="-3.40403">
        <ele>11</ele>
        <time>2019-07-17T14:38:18Z</time>
      </trkpt>
      <trkpt lat="47.8094" lon="-3.40397">
        <ele>11</ele>
        <time>2019-07-17T14:38:19Z</time>
      </trkpt>
      <trkpt lat="47.80944" lon="-3.40391">
        <ele>11</ele>
        <time>2019-07-17T14:38:20Z</time>
      </trkpt>
      <trkpt lat="47.80948" lon="-3.40385">
        <ele>11</ele>
        <time>2019-07-17T14:38:21Z</time>
      </trkpt>
      <trkpt lat="47.80953" lon="-3.40379">
        <ele>11</ele>
        <time>2019-07-17T14:38:22Z</time>
      </trkpt>
      <trkpt lat="47.80957" lon="-3.40374">
        <ele>11</ele>
        <time>2019-07-17T14:38:23Z</time>
      </trkpt>
      <trkpt lat="47.80962" lon="-3.40368">
        <ele>11</ele>
        <time>2019-07-17T14:38:24Z</time>
      </trkpt>
      <trkpt lat="47.80967" lon="-3.40363">
        <ele>11</ele>
        <time>2019-07-17T14:38:25Z</time>
      </trkpt>
      <trkpt lat="47.80971" lon="-3.40359">
        <ele>11</ele>
        <time>2019-07-17T14:38:26Z</time>
      </trkpt>
      <trkpt lat="47.80975" lon="-3.40355">
        <ele>11</ele>
        <time>2019-07-17T14:38:27Z</time>
      </trkpt>
      <trkpt lat="47.80979" lon="-3.40351">
        <ele>11</ele>
        <time>2019-07-17T14:38:28Z</time>
      </trkpt>
      <trkpt lat="47.80983" lon="-3.40347">
        <ele>11</ele>
        <time>2019-07-17T14:38:29Z</time>
      </trkpt>
      <trkpt lat="47.80988" lon="-3.40344">
        <ele>11</ele>
        <time>2019-07-17T14:38:30Z</time>
      </trkpt>
      <trkpt lat="47.80992" lon="-3.4034">
        <ele>11</ele>
        <time>2019-07-17T14:38:31Z</time>
      </trkpt>
      <trkpt lat="47.80997" lon="-3.40336">
        <ele>12</ele>
        <time>2019-07-17T14:38:32Z</time>
      </trkpt>
      <trkpt lat="47.81002" lon="-3.40332">
        <ele>12</ele>
        <time>2019-07-17T14:38:33Z</time>
      </trkpt>
      <trkpt lat="47.81006" lon="-3.40329">
        <ele>12</ele>
        <time>2019-07-17T14:38:34Z</time>
      </trkpt>
      <trkpt lat="47.81011" lon="-3.40325">
        <ele>12</ele>
        <time>2019-07-17T14:38:35Z</time>
      </trkpt>
      <trkpt lat="47.81014" lon="-3.40323">
        <ele>12</ele>
        <time>2019-07-17T14:38:36Z</time>
      </trkpt>
      <trkpt lat="47.81018" lon="-3.4032">
        <ele>12</ele>
        <time>2019-07-17T14:38:37Z</time>
      </trkpt>
      <trkpt lat="47.81022" lon="-3.40317">
        <ele>12</ele>
        <time>2019-07-17T14:38:38Z</time>
      </trkpt>
      <trkpt lat="47.81025" lon="-3.40315">
        <ele>12</ele>
        <time>2019-07-17T14:38:39Z</time>
      </trkpt>
      <trkpt lat="47.81029" lon="-3.40313">
        <ele>13</ele>
        <time>2019-07-17T14:38:40Z</time>
      </trkpt>
      <trkpt lat="47.81033" lon="-3.4031">
        <ele>13</ele>
        <time>2019-07-17T14:38:41Z</time>
      </trkpt>
      <trkpt lat="47.81038" lon="-3.40307">
        <ele>13</ele>
        <time>2019-07-17T14:38:42Z</time>
      </trkpt>
      <trkpt lat="47.81043" lon="-3.40305">
        <ele>13</ele>
        <time>2019-07-17T14:38:43Z</time>
      </trkpt>
      <trkpt lat="47.81048" lon="-3.40304">
        <ele>13</ele>
        <time>2019-07-17T14:38:44Z</time>
      </trkpt>
      <trkpt lat="47.81053" lon="-3.40304">
        <ele>14</ele>
        <time>2019-07-17T14:38:45Z</time>
      </trkpt>
      <trkpt lat="47.81057" lon="-3.40307">
        <ele>14</ele>
        <time>2019-07-17T14:38:46Z</time>
      </trkpt>
      <trkpt lat="47.81061" lon="-3.40311">
        <ele>14</ele>
        <time>2019-07-17T14:38:47Z</time>
      </trkpt>
      <trkpt lat="47.81064" lon="-3.40315">
        <ele>15</ele>
        <time>2019-07-17T14:38:48Z</time>
      </trkpt>
      <trkpt lat="47.81066" lon="-3.4032">
        <ele>15</ele>
        <time>2019-07-17T14:38:49Z</time>
      </trkpt>
      <trkpt lat="47.81068" lon="-3.40326">
        <ele>15</ele>
        <time>2019-07-17T14:38:50Z</time>
      </trkpt>
      <trkpt lat="47.81071" lon="-3.40332">
        <ele>15</ele>
        <time>2019-07-17T14:38:51Z</time>
      </trkpt>
      <trkpt lat="47.81072" lon="-3.40338">
        <ele>15</ele>
        <time>2019-07-17T14:38:52Z</time>
      </trkpt>
      <trkpt lat="47.81074" lon="-3.40344">
        <ele>16</ele>
        <time>2019-07-17T14:38:53Z</time>
      </trkpt>
      <trkpt lat="47.81075" lon="-3.40349">
        <ele>16</ele>
        <time>2019-07-17T14:38:54Z</time>
      </trkpt>
      <trkpt lat="47.81077" lon="-3.40355">
        <ele>16</ele>
        <time>2019-07-17T14:38:55Z</time>
      </trkpt>
      <trkpt lat="47.81079" lon="-3.4036">
        <ele>17</ele>
        <time>2019-07-17T14:38:56Z</time>
      </trkpt>
      <trkpt lat="47.81081" lon="-3.40366">
        <ele>17</ele>
        <time>2019-07-17T14:38:57Z</time>
      </trkpt>
      <trkpt lat="47.81083" lon="-3.40372">
        <ele>17</ele>
        <time>2019-07-17T14:38:58Z</time>
      </trkpt>
      <trkpt lat="47.81085" lon="-3.40378">
        <ele>17</ele>
        <time>2019-07-17T14:38:59Z</time>
      </trkpt>
      <trkpt lat="47.81088" lon="-3.40382">
        <ele>18</ele>
        <time>2019-07-17T14:39:00Z</time>
      </trkpt>
      <trkpt lat="47.8109" lon="-3.40387">
        <ele>18</ele>
        <time>2019-07-17T14:39:01Z</time>
      </trkpt>
      <trkpt lat="47.81092" lon="-3.40392">
        <ele>18</ele>
        <time>2019-07-17T14:39:02Z</time>
      </trkpt>
      <trkpt lat="47.81095" lon="-3.40398">
        <ele>18</ele>
        <time>2019-07-17T14:39:03Z</time>
      </trkpt>
      <trkpt lat="47.81097" lon="-3.40402">
        <ele>19</ele>
        <time>2019-07-17T14:39:04Z</time>
      </trkpt>
      <trkpt lat="47.811" lon="-3.40407">
        <ele>19</ele>
        <time>2019-07-17T14:39:05Z</time>
      </trkpt>
      <trkpt lat="47.81102" lon="-3.40412">
        <ele>19</ele>
        <time>2019-07-17T14:39:06Z</time>
      </trkpt>
      <trkpt lat="47.81104" lon="-3.40417">
        <ele>20</ele>
        <time>2019-07-17T14:39:07Z</time>
      </trkpt>
      <trkpt lat="47.81107" lon="-3.40422">
        <ele>20</ele>
        <time>2019-07-17T14:39:08Z</time>
      </trkpt>
      <trkpt lat="47.8111" lon="-3.40427">
        <ele>20</ele>
        <time>2019-07-17T14:39:09Z</time>
      </trkpt>
      <trkpt lat="47.81113" lon="-3.40433">
        <ele>20</ele>
        <time>2019-07-17T14:39:10Z</time>
      </trkpt>
      <trkpt lat="47.81116" lon="-3.40439">
        <ele>20</ele>
        <time>2019-07-17T14:39:11Z</time>
      </trkpt>
      <trkpt lat="47.81119" lon="-3.40445">
        <ele>21</ele>
        <time>2019-07-17T14:39:12Z</time>
      </trkpt>
      <trkpt lat="47.81121" lon="-3.40451">
        <ele>21</ele>
        <time>2019-07-17T14:39:13Z</time>
      </trkpt>
      <trkpt lat="47.81124" lon="-3.40458">
        <ele>21</ele>
        <time>2019-07-17T14:39:14Z</time>
      </trkpt>
      <trkpt lat="47.81127" lon="-3.40465">
        <ele>21</ele>
        <time>2019-07-17T14:39:15Z</time>
      </trkpt>
      <trkpt lat="47.81129" lon="-3.40471">
        <ele>22</ele>
        <time>2019-07-17T14:39:16Z</time>
      </trkpt>
      <trkpt lat="47.81132" lon="-3.40478">
        <ele>22</ele>
        <time>2019-07-17T14:39:17Z</time>
      </trkpt>
      <trkpt lat="47.81136" lon="-3.40483">
        <ele>23</ele>
        <time>2019-07-17T14:39:18Z</time>
      </trkpt>
      <trkpt lat="47.81138" lon="-3.40489">
        <ele>23</ele>
        <time>2019-07-17T14:39:19Z</time>
      </trkpt>
      <trkpt lat="47.81141" lon="-3.40494">
        <ele>23</ele>
        <time>2019-07-17T14:39:20Z</time>
      </trkpt>
      <trkpt lat="47.81143" lon="-3.40498">
        <ele>24</ele>
        <time>2019-07-17T14:39:21Z</time>
      </trkpt>
      <trkpt lat="47.81146" lon="-3.40504">
        <ele>24</ele>
        <time>2019-07-17T14:39:22Z</time>
      </trkpt>
      <trkpt lat="47.81148" lon="-3.4051">
        <ele>24</ele>
        <time>2019-07-17T14:39:23Z</time>
      </trkpt>
      <trkpt lat="47.81149" lon="-3.40516">
        <ele>24</ele>
        <time>2019-07-17T14:39:24Z</time>
      </trkpt>
      <trkpt lat="47.81151" lon="-3.40523">
        <ele>25</ele>
        <time>2019-07-17T14:39:25Z</time>
      </trkpt>
      <trkpt lat="47.81152" lon="-3.40529">
        <ele>25</ele>
        <time>2019-07-17T14:39:26Z</time>
      </trkpt>
      <trkpt lat="47.81154" lon="-3.40536">
        <ele>25</ele>
        <time>2019-07-17T14:39:27Z</time>
      </trkpt>
      <trkpt lat="47.81156" lon="-3.40542">
        <ele>26</ele>
        <time>2019-07-17T14:39:28Z</time>
      </trkpt>
      <trkpt lat="47.81159" lon="-3.40549">
        <ele>26</ele>
        <time>2019-07-17T14:39:29Z</time>
      </trkpt>
      <trkpt lat="47.81162" lon="-3.40556">
        <ele>27</ele>
        <time>2019-07-17T14:39:30Z</time>
      </trkpt>
      <trkpt lat="47.81165" lon="-3.40563">
        <ele>27</ele>
        <time>2019-07-17T14:39:31Z</time>
      </trkpt>
      <trkpt lat="47.81168" lon="-3.40569">
        <ele>28</ele>
        <time>2019-07-17T14:39:32Z</time>
      </trkpt>
      <trkpt lat="47.8117" lon="-3.40576">
        <ele>28</ele>
        <time>2019-07-17T14:39:33Z</time>
      </trkpt>
      <trkpt lat="47.81173" lon="-3.40582">
        <ele>29</ele>
        <time>2019-07-17T14:39:34Z</time>
      </trkpt>
      <trkpt lat="47.81176" lon="-3.40587">
        <ele>29</ele>
        <time>2019-07-17T14:39:35Z</time>
      </trkpt>
      <trkpt lat="47.81179" lon="-3.40593">
        <ele>30</ele>
        <time>2019-07-17T14:39:36Z</time>
      </trkpt>
      <trkpt lat="47.81182" lon="-3.40599">
        <ele>30</ele>
        <time>2019-07-17T14:39:37Z</time>
      </trkpt>
      <trkpt lat="47.81185" lon="-3.40604">
        <ele>31</ele>
        <time>2019-07-17T14:39:38Z</time>
      </trkpt>
      <trkpt lat="47.81188" lon="-3.4061">
        <ele>31</ele>
        <time>2019-07-17T14:39:39Z</time>
      </trkpt>
      <trkpt lat="47.81191" lon="-3.40615">
        <ele>31</ele>
        <time>2019-07-17T14:39:40Z</time>
      </trkpt>
      <trkpt lat="47.81193" lon="-3.40621">
        <ele>32</ele>
        <time>2019-07-17T14:39:41Z</time>
      </trkpt>
      <trkpt lat="47.81196" lon="-3.40627">
        <ele>32</ele>
        <time>2019-07-17T14:39:42Z</time>
      </trkpt>
      <trkpt lat="47.81199" lon="-3.40633">
        <ele>32</ele>
        <time>2019-07-17T14:39:43Z</time>
      </trkpt>
      <trkpt lat="47.81202" lon="-3.40638">
        <ele>33</ele>
        <time>2019-07-17T14:39:44Z</time>
      </trkpt>
      <trkpt lat="47.81205" lon="-3.40644">
        <ele>33</ele>
        <time>2019-07-17T14:39:45Z</time>
      </trkpt>
      <trkpt lat="47.81208" lon="-3.40649">
        <ele>33</ele>
        <time>2019-07-17T14:39:46Z</time>
      </trkpt>
      <trkpt lat="47.81211" lon="-3.40655">
        <ele>33</ele>
        <time>2019-07-17T14:39:47Z</time>
      </trkpt>
      <trkpt lat="47.81213" lon="-3.40661">
        <ele>33</ele>
        <time>2019-07-17T14:39:48Z</time>
      </trkpt>
      <trkpt lat="47.81216" lon="-3.40667">
        <ele>34</ele>
        <time>2019-07-17T14:39:49Z</time>
      </trkpt>
      <trkpt lat="47.81218" lon="-3.40673">
        <ele>33</ele>
        <time>2019-07-17T14:39:50Z</time>
      </trkpt>
      <trkpt lat="47.8122" lon="-3.40679">
        <ele>33</ele>
        <time>2019-07-17T14:39:51Z</time>
      </trkpt>
      <trkpt lat="47.81222" lon="-3.40685">
        <ele>33</ele>
        <time>2019-07-17T14:39:52Z</time>
      </trkpt>
      <trkpt lat="47.81223" lon="-3.40691">
        <ele>33</ele>
        <time>2019-07-17T14:39:53Z</time>
      </trkpt>
      <trkpt lat="47.81224" lon="-3.40697">
        <ele>33</ele>
        <time>2019-07-17T14:39:54Z</time>
      </trkpt>
      <trkpt lat="47.81225" lon="-3.40704">
        <ele>33</ele>
        <time>2019-07-17T14:39:55Z</time>
      </trkpt>
      <trkpt lat="47.81227" lon="-3.40711">
        <ele>33</ele>
        <time>2019-07-17T14:39:56Z</time>
      </trkpt>
      <trkpt lat="47.81229" lon="-3.40718">
        <ele>33</ele>
        <time>2019-07-17T14:39:57Z</time>
      </trkpt>
      <trkpt lat="47.81231" lon="-3.40726">
        <ele>33</ele>
        <time>2019-07-17T14:39:58Z</time>
      </trkpt>
      <trkpt lat="47.81233" lon="-3.40733">
        <ele>33</ele>
        <time>2019-07-17T14:39:59Z</time>
      </trkpt>
      <trkpt lat="47.81235" lon="-3.4074">
        <ele>33</ele>
        <time>2019-07-17T14:40:00Z</time>
      </trkpt>
      <trkpt lat="47.81238" lon="-3.40746">
        <ele>33</ele>
        <time>2019-07-17T14:40:01Z</time>
      </trkpt>
      <trkpt lat="47.81241" lon="-3.40752">
        <ele>33</ele>
        <time>2019-07-17T14:40:02Z</time>
      </trkpt>
      <trkpt lat="47.81243" lon="-3.40758">
        <ele>33</ele>
        <time>2019-07-17T14:40:03Z</time>
      </trkpt>
      <trkpt lat="47.81246" lon="-3.40763">
        <ele>33</ele>
        <time>2019-07-17T14:40:04Z</time>
      </trkpt>
      <trkpt lat="47.81248" lon="-3.40768">
        <ele>32</ele>
        <time>2019-07-17T14:40:05Z</time>
      </trkpt>
      <trkpt lat="47.81251" lon="-3.40773">
        <ele>32</ele>
        <time>2019-07-17T14:40:06Z</time>
      </trkpt>
      <trkpt lat="47.81253" lon="-3.40777">
        <ele>32</ele>
        <time>2019-07-17T14:40:07Z</time>
      </trkpt>
      <trkpt lat="47.81255" lon="-3.40782">
        <ele>32</ele>
        <time>2019-07-17T14:40:08Z</time>
      </trkpt>
      <trkpt lat="47.81257" lon="-3.40787">
        <ele>32</ele>
        <time>2019-07-17T14:40:09Z</time>
      </trkpt>
      <trkpt lat="47.81259" lon="-3.40792">
        <ele>32</ele>
        <time>2019-07-17T14:40:10Z</time>
      </trkpt>
      <trkpt lat="47.81262" lon="-3.40797">
        <ele>32</ele>
        <time>2019-07-17T14:40:11Z</time>
      </trkpt>
      <trkpt lat="47.81264" lon="-3.40801">
        <ele>32</ele>
        <time>2019-07-17T14:40:12Z</time>
      </trkpt>
      <trkpt lat="47.81266" lon="-3.40806">
        <ele>32</ele>
        <time>2019-07-17T14:40:13Z</time>
      </trkpt>
      <trkpt lat="47.81267" lon="-3.40809">
        <ele>32</ele>
        <time>2019-07-17T14:40:14Z</time>
      </trkpt>
      <trkpt lat="47.81267" lon="-3.40812">
        <ele>32</ele>
        <time>2019-07-17T14:40:15Z</time>
      </trkpt>
      <trkpt lat="47.81265" lon="-3.40812">
        <ele>32</ele>
        <time>2019-07-17T14:40:16Z</time>
      </trkpt>
      <trkpt lat="47.81265" lon="-3.4081">
        <ele>32</ele>
        <time>2019-07-17T14:40:17Z</time>
      </trkpt>
      <trkpt lat="47.81264" lon="-3.40808">
        <ele>32</ele>
        <time>2019-07-17T14:40:18Z</time>
      </trkpt>
      <trkpt lat="47.81264" lon="-3.40804">
        <ele>32</ele>
        <time>2019-07-17T14:40:19Z</time>
      </trkpt>
      <trkpt lat="47.81263" lon="-3.40801">
        <ele>32</ele>
        <time>2019-07-17T14:40:20Z</time>
      </trkpt>
      <trkpt lat="47.81262" lon="-3.40797">
        <ele>32</ele>
        <time>2019-07-17T14:40:21Z</time>
      </trkpt>
      <trkpt lat="47.8126" lon="-3.40794">
        <ele>32</ele>
        <time>2019-07-17T14:40:22Z</time>
      </trkpt>
      <trkpt lat="47.8126" lon="-3.4079">
        <ele>32</ele>
        <time>2019-07-17T14:40:23Z</time>
      </trkpt>
      <trkpt lat="47.8126" lon="-3.40787">
        <ele>32</ele>
        <time>2019-07-17T14:40:24Z</time>
      </trkpt>
      <trkpt lat="47.81261" lon="-3.40783">
        <ele>32</ele>
        <time>2019-07-17T14:40:25Z</time>
      </trkpt>
      <trkpt lat="47.81263" lon="-3.4078">
        <ele>32</ele>
        <time>2019-07-17T14:40:26Z</time>
      </trkpt>
      <trkpt lat="47.81265" lon="-3.40778">
        <ele>32</ele>
        <time>2019-07-17T14:40:27Z</time>
      </trkpt>
      <trkpt lat="47.81269" lon="-3.40776">
        <ele>32</ele>
        <time>2019-07-17T14:40:28Z</time>
      </trkpt>
      <trkpt lat="47.81272" lon="-3.40774">
        <ele>32</ele>
        <time>2019-07-17T14:40:29Z</time>
      </trkpt>
      <trkpt lat="47.81276" lon="-3.40772">
        <ele>32</ele>
        <time>2019-07-17T14:40:30Z</time>
      </trkpt>
      <trkpt lat="47.81281" lon="-3.40771">
        <ele>32</ele>
        <time>2019-07-17T14:40:31Z</time>
      </trkpt>
      <trkpt lat="47.81285" lon="-3.4077">
        <ele>32</ele>
        <time>2019-07-17T14:40:32Z</time>
      </trkpt>
      <trkpt lat="47.8129" lon="-3.40768">
        <ele>32</ele>
        <time>2019-07-17T14:40:33Z</time>
      </trkpt>
      <trkpt lat="47.81295" lon="-3.40767">
        <ele>32</ele>
        <time>2019-07-17T14:40:34Z</time>
      </trkpt>
      <trkpt lat="47.813" lon="-3.40766">
        <ele>32</ele>
        <time>2019-07-17T14:40:35Z</time>
      </trkpt>
      <trkpt lat="47.81304" lon="-3.40766">
        <ele>32</ele>
        <time>2019-07-17T14:40:36Z</time>
      </trkpt>
      <trkpt lat="47.81308" lon="-3.40765">
        <ele>32</ele>
        <time>2019-07-17T14:40:37Z</time>
      </trkpt>
      <trkpt lat="47.81312" lon="-3.40764">
        <ele>32</ele>
        <time>2019-07-17T14:40:38Z</time>
      </trkpt>
      <trkpt lat="47.81316" lon="-3.40764">
        <ele>32</ele>
        <time>2019-07-17T14:40:39Z</time>
      </trkpt>
      <trkpt lat="47.8132" lon="-3.40764">
        <ele>32</ele>
        <time>2019-07-17T14:40:40Z</time>
      </trkpt>
      <trkpt lat="47.81324" lon="-3.40763">
        <ele>32</ele>
        <time>2019-07-17T14:40:41Z</time>
      </trkpt>
      <trkpt lat="47.81329" lon="-3.40763">
        <ele>32</ele>
        <time>2019-07-17T14:40:42Z</time>
      </trkpt>
      <trkpt lat="47.81334" lon="-3.40762">
        <ele>32</ele>
        <time>2019-07-17T14:40:43Z</time>
      </trkpt>
      <trkpt lat="47.81338" lon="-3.40762">
        <ele>32</ele>
        <time>2019-07-17T14:40:44Z</time>
      </trkpt>
      <trkpt lat="47.81344" lon="-3.40762">
        <ele>32</ele>
        <time>2019-07-17T14:40:45Z</time>
      </trkpt>
      <trkpt lat="47.81349" lon="-3.40762">
        <ele>32</ele>
        <time>2019-07-17T14:40:46Z</time>
      </trkpt>
      <trkpt lat="47.81353" lon="-3.40761">
        <ele>32</ele>
        <time>2019-07-17T14:40:47Z</time>
      </trkpt>
      <trkpt lat="47.81358" lon="-3.4076">
        <ele>32</ele>
        <time>2019-07-17T14:40:48Z</time>
      </trkpt>
      <trkpt lat="47.81363" lon="-3.4076">
        <ele>32</ele>
        <time>2019-07-17T14:40:49Z</time>
      </trkpt>
      <trkpt lat="47.81368" lon="-3.40761">
        <ele>32</ele>
        <time>2019-07-17T14:40:50Z</time>
      </trkpt>
      <trkpt lat="47.81372" lon="-3.40762">
        <ele>32</ele>
        <time>2019-07-17T14:40:51Z</time>
      </trkpt>
      <trkpt lat="47.81377" lon="-3.40762">
        <ele>32</ele>
        <time>2019-07-17T14:40:52Z</time>
      </trkpt>
      <trkpt lat="47.8138" lon="-3.40763">
        <ele>32</ele>
        <time>2019-07-17T14:40:53Z</time>
      </trkpt>
      <trkpt lat="47.81384" lon="-3.40763">
        <ele>32</ele>
        <time>2019-07-17T14:40:54Z</time>
      </trkpt>
      <trkpt lat="47.81388" lon="-3.40765">
        <ele>32</ele>
        <time>2019-07-17T14:40:55Z</time>
      </trkpt>
      <trkpt lat="47.81393" lon="-3.40765">
        <ele>32</ele>
        <time>2019-07-17T14:40:56Z</time>
      </trkpt>
      <trkpt lat="47.81397" lon="-3.40765">
        <ele>32</ele>
        <time>2019-07-17T14:40:57Z</time>
      </trkpt>
      <trkpt lat="47.81402" lon="-3.40764">
        <ele>33</ele>
        <time>2019-07-17T14:40:58Z</time>
      </trkpt>
      <trkpt lat="47.81407" lon="-3.40762">
        <ele>33</ele>
        <time>2019-07-17T14:40:59Z</time>
      </trkpt>
      <trkpt lat="47.81412" lon="-3.4076">
        <ele>33</ele>
        <time>2019-07-17T14:41:00Z</time>
      </trkpt>
      <trkpt lat="47.81417" lon="-3.40757">
        <ele>33</ele>
        <time>2019-07-17T14:41:01Z</time>
      </trkpt>
      <trkpt lat="47.81422" lon="-3.40756">
        <ele>33</ele>
        <time>2019-07-17T14:41:02Z</time>
      </trkpt>
      <trkpt lat="47.81427" lon="-3.40753">
        <ele>33</ele>
        <time>2019-07-17T14:41:03Z</time>
      </trkpt>
      <trkpt lat="47.81431" lon="-3.40751">
        <ele>33</ele>
        <time>2019-07-17T14:41:04Z</time>
      </trkpt>
      <trkpt lat="47.81436" lon="-3.40749">
        <ele>33</ele>
        <time>2019-07-17T14:41:05Z</time>
      </trkpt>
      <trkpt lat="47.81441" lon="-3.40748">
        <ele>33</ele>
        <time>2019-07-17T14:41:06Z</time>
      </trkpt>
      <trkpt lat="47.81446" lon="-3.40746">
        <ele>33</ele>
        <time>2019-07-17T14:41:07Z</time>
      </trkpt>
      <trkpt lat="47.81451" lon="-3.40743">
        <ele>33</ele>
        <time>2019-07-17T14:41:08Z</time>
      </trkpt>
      <trkpt lat="47.81456" lon="-3.40741">
        <ele>33</ele>
        <time>2019-07-17T14:41:09Z</time>
      </trkpt>
      <trkpt lat="47.81461" lon="-3.40739">
        <ele>33</ele>
        <time>2019-07-17T14:41:10Z</time>
      </trkpt>
      <trkpt lat="47.81466" lon="-3.40737">
        <ele>33</ele>
        <time>2019-07-17T14:41:11Z</time>
      </trkpt>
      <trkpt lat="47.81471" lon="-3.40735">
        <ele>33</ele>
        <time>2019-07-17T14:41:12Z</time>
      </trkpt>
      <trkpt lat="47.81477" lon="-3.40734">
        <ele>34</ele>
        <time>2019-07-17T14:41:13Z</time>
      </trkpt>
      <trkpt lat="47.81482" lon="-3.40732">
        <ele>34</ele>
        <time>2019-07-17T14:41:14Z</time>
      </trkpt>
      <trkpt lat="47.81488" lon="-3.40729">
        <ele>34</ele>
        <time>2019-07-17T14:41:15Z</time>
      </trkpt>
      <trkpt lat="47.81494" lon="-3.40727">
        <ele>34</ele>
        <time>2019-07-17T14:41:16Z</time>
      </trkpt>
      <trkpt lat="47.815" lon="-3.40724">
        <ele>34</ele>
        <time>2019-07-17T14:41:17Z</time>
      </trkpt>
      <trkpt lat="47.81505" lon="-3.40723">
        <ele>34</ele>
        <time>2019-07-17T14:41:18Z</time>
      </trkpt>
      <trkpt lat="47.8151" lon="-3.40721">
        <ele>34</ele>
        <time>2019-07-17T14:41:19Z</time>
      </trkpt>
      <trkpt lat="47.81515" lon="-3.4072">
        <ele>35</ele>
        <time>2019-07-17T14:41:20Z</time>
      </trkpt>
      <trkpt lat="47.8152" lon="-3.40718">
        <ele>35</ele>
        <time>2019-07-17T14:41:21Z</time>
      </trkpt>
      <trkpt lat="47.81525" lon="-3.40716">
        <ele>35</ele>
        <time>2019-07-17T14:41:22Z</time>
      </trkpt>
      <trkpt lat="47.8153" lon="-3.40714">
        <ele>35</ele>
        <time>2019-07-17T14:41:23Z</time>
      </trkpt>
      <trkpt lat="47.81535" lon="-3.40713">
        <ele>36</ele>
        <time>2019-07-17T14:41:24Z</time>
      </trkpt>
      <trkpt lat="47.8154" lon="-3.40711">
        <ele>36</ele>
        <time>2019-07-17T14:41:25Z</time>
      </trkpt>
      <trkpt lat="47.81545" lon="-3.40709">
        <ele>36</ele>
        <time>2019-07-17T14:41:26Z</time>
      </trkpt>
      <trkpt lat="47.8155" lon="-3.40707">
        <ele>36</ele>
        <time>2019-07-17T14:41:27Z</time>
      </trkpt>
      <trkpt lat="47.81555" lon="-3.40705">
        <ele>36</ele>
        <time>2019-07-17T14:41:28Z</time>
      </trkpt>
      <trkpt lat="47.81559" lon="-3.40704">
        <ele>37</ele>
        <time>2019-07-17T14:41:29Z</time>
      </trkpt>
      <trkpt lat="47.81565" lon="-3.40702">
        <ele>37</ele>
        <time>2019-07-17T14:41:30Z</time>
      </trkpt>
      <trkpt lat="47.81571" lon="-3.40701">
        <ele>37</ele>
        <time>2019-07-17T14:41:31Z</time>
      </trkpt>
      <trkpt lat="47.81577" lon="-3.40699">
        <ele>37</ele>
        <time>2019-07-17T14:41:32Z</time>
      </trkpt>
      <trkpt lat="47.81582" lon="-3.40697">
        <ele>37</ele>
        <time>2019-07-17T14:41:33Z</time>
      </trkpt>
      <trkpt lat="47.81588" lon="-3.40696">
        <ele>37</ele>
        <time>2019-07-17T14:41:34Z</time>
      </trkpt>
      <trkpt lat="47.81593" lon="-3.40694">
        <ele>38</ele>
        <time>2019-07-17T14:41:35Z</time>
      </trkpt>
      <trkpt lat="47.81599" lon="-3.40691">
        <ele>38</ele>
        <time>2019-07-17T14:41:36Z</time>
      </trkpt>
      <trkpt lat="47.81604" lon="-3.4069">
        <ele>38</ele>
        <time>2019-07-17T14:41:37Z</time>
      </trkpt>
      <trkpt lat="47.8161" lon="-3.40688">
        <ele>38</ele>
        <time>2019-07-17T14:41:38Z</time>
      </trkpt>
      <trkpt lat="47.81616" lon="-3.40687">
        <ele>38</ele>
        <time>2019-07-17T14:41:39Z</time>
      </trkpt>
      <trkpt lat="47.81621" lon="-3.40684">
        <ele>38</ele>
        <time>2019-07-17T14:41:40Z</time>
      </trkpt>
      <trkpt lat="47.81626" lon="-3.40682">
        <ele>38</ele>
        <time>2019-07-17T14:41:41Z</time>
      </trkpt>
      <trkpt lat="47.81632" lon="-3.4068">
        <ele>38</ele>
        <time>2019-07-17T14:41:42Z</time>
      </trkpt>
      <trkpt lat="47.81638" lon="-3.40678">
        <ele>38</ele>
        <time>2019-07-17T14:41:43Z</time>
      </trkpt>
      <trkpt lat="47.81643" lon="-3.40676">
        <ele>38</ele>
        <time>2019-07-17T14:41:44Z</time>
      </trkpt>
      <trkpt lat="47.81648" lon="-3.40674">
        <ele>38</ele>
        <time>2019-07-17T14:41:45Z</time>
      </trkpt>
      <trkpt lat="47.81653" lon="-3.40673">
        <ele>39</ele>
        <time>2019-07-17T14:41:46Z</time>
      </trkpt>
      <trkpt lat="47.81658" lon="-3.40671">
        <ele>39</ele>
        <time>2019-07-17T14:41:47Z</time>
      </trkpt>
      <trkpt lat="47.81664" lon="-3.40669">
        <ele>39</ele>
        <time>2019-07-17T14:41:48Z</time>
      </trkpt>
      <trkpt lat="47.8167" lon="-3.40668">
        <ele>39</ele>
        <time>2019-07-17T14:41:49Z</time>
      </trkpt>
      <trkpt lat="47.81676" lon="-3.40667">
        <ele>39</ele>
        <time>2019-07-17T14:41:50Z</time>
      </trkpt>
      <trkpt lat="47.81683" lon="-3.40664">
        <ele>39</ele>
        <time>2019-07-17T14:41:51Z</time>
      </trkpt>
      <trkpt lat="47.8169" lon="-3.40663">
        <ele>39</ele>
        <time>2019-07-17T14:41:52Z</time>
      </trkpt>
      <trkpt lat="47.81696" lon="-3.40662">
        <ele>39</ele>
        <time>2019-07-17T14:41:53Z</time>
      </trkpt>
      <trkpt lat="47.81702" lon="-3.40661">
        <ele>39</ele>
        <time>2019-07-17T14:41:54Z</time>
      </trkpt>
      <trkpt lat="47.81709" lon="-3.4066">
        <ele>39</ele>
        <time>2019-07-17T14:41:55Z</time>
      </trkpt>
      <trkpt lat="47.81717" lon="-3.40661">
        <ele>39</ele>
        <time>2019-07-17T14:41:56Z</time>
      </trkpt>
      <trkpt lat="47.81724" lon="-3.40661">
        <ele>39</ele>
        <time>2019-07-17T14:41:57Z</time>
      </trkpt>
      <trkpt lat="47.8173" lon="-3.40661">
        <ele>39</ele>
        <time>2019-07-17T14:41:58Z</time>
      </trkpt>
      <trkpt lat="47.81737" lon="-3.40661">
        <ele>39</ele>
        <time>2019-07-17T14:41:59Z</time>
      </trkpt>
      <trkpt lat="47.81744" lon="-3.40662">
        <ele>39</ele>
        <time>2019-07-17T14:42:00Z</time>
      </trkpt>
      <trkpt lat="47.8175" lon="-3.40662">
        <ele>39</ele>
        <time>2019-07-17T14:42:01Z</time>
      </trkpt>
      <trkpt lat="47.81757" lon="-3.40663">
        <ele>39</ele>
        <time>2019-07-17T14:42:02Z</time>
      </trkpt>
      <trkpt lat="47.81764" lon="-3.40664">
        <ele>40</ele>
        <time>2019-07-17T14:42:03Z</time>
      </trkpt>
      <trkpt lat="47.81771" lon="-3.40664">
        <ele>40</ele>
        <time>2019-07-17T14:42:04Z</time>
      </trkpt>
      <trkpt lat="47.81778" lon="-3.40665">
        <ele>40</ele>
        <time>2019-07-17T14:42:05Z</time>
      </trkpt>
      <trkpt lat="47.81785" lon="-3.40665">
        <ele>40</ele>
        <time>2019-07-17T14:42:06Z</time>
      </trkpt>
      <trkpt lat="47.81791" lon="-3.40667">
        <ele>40</ele>
        <time>2019-07-17T14:42:07Z</time>
      </trkpt>
      <trkpt lat="47.81798" lon="-3.40669">
        <ele>40</ele>
        <time>2019-07-17T14:42:08Z</time>
      </trkpt>
      <trkpt lat="47.81806" lon="-3.40671">
        <ele>39</ele>
        <time>2019-07-17T14:42:09Z</time>
      </trkpt>
      <trkpt lat="47.81813" lon="-3.40673">
        <ele>39</ele>
        <time>2019-07-17T14:42:10Z</time>
      </trkpt>
      <trkpt lat="47.8182" lon="-3.40675">
        <ele>39</ele>
        <time>2019-07-17T14:42:11Z</time>
      </trkpt>
      <trkpt lat="47.81826" lon="-3.40678">
        <ele>39</ele>
        <time>2019-07-17T14:42:12Z</time>
      </trkpt>
      <trkpt lat="47.81833" lon="-3.40681">
        <ele>39</ele>
        <time>2019-07-17T14:42:13Z</time>
      </trkpt>
      <trkpt lat="47.81839" lon="-3.40685">
        <ele>39</ele>
        <time>2019-07-17T14:42:14Z</time>
      </trkpt>
      <trkpt lat="47.81845" lon="-3.40689">
        <ele>39</ele>
        <time>2019-07-17T14:42:15Z</time>
      </trkpt>
      <trkpt lat="47.8185" lon="-3.40693">
        <ele>39</ele>
        <time>2019-07-17T14:42:16Z</time>
      </trkpt>
      <trkpt lat="47.81854" lon="-3.40697">
        <ele>39</ele>
        <time>2019-07-17T14:42:17Z</time>
      </trkpt>
      <trkpt lat="47.81859" lon="-3.40701">
        <ele>39</ele>
        <time>2019-07-17T14:42:18Z</time>
      </trkpt>
      <trkpt lat="47.81865" lon="-3.40702">
        <ele>39</ele>
        <time>2019-07-17T14:42:19Z</time>
      </trkpt>
      <trkpt lat="47.81871" lon="-3.40703">
        <ele>39</ele>
        <time>2019-07-17T14:42:20Z</time>
      </trkpt>
      <trkpt lat="47.81876" lon="-3.40703">
        <ele>39</ele>
        <time>2019-07-17T14:42:21Z</time>
      </trkpt>
      <trkpt lat="47.81881" lon="-3.40704">
        <ele>38</ele>
        <time>2019-07-17T14:42:22Z</time>
      </trkpt>
      <trkpt lat="47.81885" lon="-3.40704">
        <ele>38</ele>
        <time>2019-07-17T14:42:23Z</time>
      </trkpt>
      <trkpt lat="47.8189" lon="-3.40705">
        <ele>38</ele>
        <time>2019-07-17T14:42:24Z</time>
      </trkpt>
      <trkpt lat="47.81895" lon="-3.40706">
        <ele>38</ele>
        <time>2019-07-17T14:42:25Z</time>
      </trkpt>
      <trkpt lat="47.819" lon="-3.40707">
        <ele>37</ele>
        <time>2019-07-17T14:42:26Z</time>
      </trkpt>
      <trkpt lat="47.81905" lon="-3.40708">
        <ele>37</ele>
        <time>2019-07-17T14:42:27Z</time>
      </trkpt>
      <trkpt lat="47.81911" lon="-3.40708">
        <ele>37</ele>
        <time>2019-07-17T14:42:28Z</time>
      </trkpt>
      <trkpt lat="47.81918" lon="-3.40709">
        <ele>37</ele>
        <time>2019-07-17T14:42:29Z</time>
      </trkpt>
      <trkpt lat="47.81924" lon="-3.4071">
        <ele>36</ele>
        <time>2019-07-17T14:42:30Z</time>
      </trkpt>
      <trkpt lat="47.81931" lon="-3.40711">
        <ele>36</ele>
        <time>2019-07-17T14:42:31Z</time>
      </trkpt>
      <trkpt lat="47.81937" lon="-3.40712">
        <ele>36</ele>
        <time>2019-07-17T14:42:32Z</time>
      </trkpt>
      <trkpt lat="47.81943" lon="-3.40714">
        <ele>36</ele>
        <time>2019-07-17T14:42:33Z</time>
      </trkpt>
      <trkpt lat="47.81949" lon="-3.40716">
        <ele>36</ele>
        <time>2019-07-17T14:42:34Z</time>
      </trkpt>
      <trkpt lat="47.81955" lon="-3.40719">
        <ele>35</ele>
        <time>2019-07-17T14:42:35Z</time>
      </trkpt>
      <trkpt lat="47.81961" lon="-3.40722">
        <ele>35</ele>
        <time>2019-07-17T14:42:36Z</time>
      </trkpt>
      <trkpt lat="47.81964" lon="-3.40724">
        <ele>35</ele>
        <time>2019-07-17T14:42:37Z</time>
      </trkpt>
      <trkpt lat="47.81967" lon="-3.40724">
        <ele>35</ele>
        <time>2019-07-17T14:42:38Z</time>
      </trkpt>
      <trkpt lat="47.81971" lon="-3.40724">
        <ele>35</ele>
        <time>2019-07-17T14:42:39Z</time>
      </trkpt>
      <trkpt lat="47.81974" lon="-3.40724">
        <ele>34</ele>
        <time>2019-07-17T14:42:40Z</time>
      </trkpt>
      <trkpt lat="47.81978" lon="-3.40725">
        <ele>34</ele>
        <time>2019-07-17T14:42:41Z</time>
      </trkpt>
      <trkpt lat="47.81983" lon="-3.40727">
        <ele>34</ele>
        <time>2019-07-17T14:42:42Z</time>
      </trkpt>
      <trkpt lat="47.81988" lon="-3.4073">
        <ele>34</ele>
        <time>2019-07-17T14:42:43Z</time>
      </trkpt>
      <trkpt lat="47.81994" lon="-3.40732">
        <ele>33</ele>
        <time>2019-07-17T14:42:44Z</time>
      </trkpt>
      <trkpt lat="47.81999" lon="-3.40734">
        <ele>33</ele>
        <time>2019-07-17T14:42:45Z</time>
      </trkpt>
      <trkpt lat="47.82005" lon="-3.40737">
        <ele>33</ele>
        <time>2019-07-17T14:42:46Z</time>
      </trkpt>
      <trkpt lat="47.8201" lon="-3.4074">
        <ele>33</ele>
        <time>2019-07-17T14:42:47Z</time>
      </trkpt>
      <trkpt lat="47.82016" lon="-3.40744">
        <ele>33</ele>
        <time>2019-07-17T14:42:48Z</time>
      </trkpt>
      <trkpt lat="47.82023" lon="-3.40747">
        <ele>32</ele>
        <time>2019-07-17T14:42:49Z</time>
      </trkpt>
      <trkpt lat="47.82029" lon="-3.40752">
        <ele>32</ele>
        <time>2019-07-17T14:42:50Z</time>
      </trkpt>
      <trkpt lat="47.82036" lon="-3.40756">
        <ele>32</ele>
        <time>2019-07-17T14:42:51Z</time>
      </trkpt>
      <trkpt lat="47.82042" lon="-3.4076">
        <ele>32</ele>
        <time>2019-07-17T14:42:52Z</time>
      </trkpt>
      <trkpt lat="47.82048" lon="-3.40764">
        <ele>31</ele>
        <time>2019-07-17T14:42:53Z</time>
      </trkpt>
      <trkpt lat="47.82055" lon="-3.40769">
        <ele>31</ele>
        <time>2019-07-17T14:42:54Z</time>
      </trkpt>
      <trkpt lat="47.82061" lon="-3.40773">
        <ele>31</ele>
        <time>2019-07-17T14:42:55Z</time>
      </trkpt>
      <trkpt lat="47.82067" lon="-3.40778">
        <ele>30</ele>
        <time>2019-07-17T14:42:56Z</time>
      </trkpt>
      <trkpt lat="47.82073" lon="-3.40783">
        <ele>30</ele>
        <time>2019-07-17T14:42:57Z</time>
      </trkpt>
      <trkpt lat="47.82079" lon="-3.40787">
        <ele>30</ele>
        <time>2019-07-17T14:42:58Z</time>
      </trkpt>
      <trkpt lat="47.82085" lon="-3.40792">
        <ele>29</ele>
        <time>2019-07-17T14:42:59Z</time>
      </trkpt>
      <trkpt lat="47.82091" lon="-3.40797">
        <ele>29</ele>
        <time>2019-07-17T14:43:00Z</time>
      </trkpt>
      <trkpt lat="47.82096" lon="-3.40803">
        <ele>29</ele>
        <time>2019-07-17T14:43:01Z</time>
      </trkpt>
      <trkpt lat="47.82102" lon="-3.40809">
        <ele>29</ele>
        <time>2019-07-17T14:43:02Z</time>
      </trkpt>
      <trkpt lat="47.82108" lon="-3.40814">
        <ele>28</ele>
        <time>2019-07-17T14:43:03Z</time>
      </trkpt>
      <trkpt lat="47.82114" lon="-3.40818">
        <ele>28</ele>
        <time>2019-07-17T14:43:04Z</time>
      </trkpt>
      <trkpt lat="47.8212" lon="-3.40823">
        <ele>28</ele>
        <time>2019-07-17T14:43:05Z</time>
      </trkpt>
      <trkpt lat="47.82126" lon="-3.40829">
        <ele>28</ele>
        <time>2019-07-17T14:43:06Z</time>
      </trkpt>
      <trkpt lat="47.82132" lon="-3.40835">
        <ele>28</ele>
        <time>2019-07-17T14:43:07Z</time>
      </trkpt>
      <trkpt lat="47.82138" lon="-3.4084">
        <ele>27</ele>
        <time>2019-07-17T14:43:08Z</time>
      </trkpt>
      <trkpt lat="47.82144" lon="-3.40846">
        <ele>27</ele>
        <time>2019-07-17T14:43:09Z</time>
      </trkpt>
      <trkpt lat="47.82149" lon="-3.40852">
        <ele>27</ele>
        <time>2019-07-17T14:43:10Z</time>
      </trkpt>
      <trkpt lat="47.82154" lon="-3.40857">
        <ele>26</ele>
        <time>2019-07-17T14:43:11Z</time>
      </trkpt>
      <trkpt lat="47.8216" lon="-3.40862">
        <ele>26</ele>
        <time>2019-07-17T14:43:12Z</time>
      </trkpt>
      <trkpt lat="47.82165" lon="-3.40867">
        <ele>26</ele>
        <time>2019-07-17T14:43:13Z</time>
      </trkpt>
      <trkpt lat="47.8217" lon="-3.40872">
        <ele>25</ele>
        <time>2019-07-17T14:43:14Z</time>
      </trkpt>
      <trkpt lat="47.82175" lon="-3.40877">
        <ele>25</ele>
        <time>2019-07-17T14:43:15Z</time>
      </trkpt>
      <trkpt lat="47.8218" lon="-3.40882">
        <ele>25</ele>
        <time>2019-07-17T14:43:16Z</time>
      </trkpt>
      <trkpt lat="47.82185" lon="-3.40888">
        <ele>25</ele>
        <time>2019-07-17T14:43:17Z</time>
      </trkpt>
      <trkpt lat="47.8219" lon="-3.40894">
        <ele>24</ele>
        <time>2019-07-17T14:43:18Z</time>
      </trkpt>
      <trkpt lat="47.82196" lon="-3.40901">
        <ele>24</ele>
        <time>2019-07-17T14:43:19Z</time>
      </trkpt>
      <trkpt lat="47.82201" lon="-3.40908">
        <ele>24</ele>
        <time>2019-07-17T14:43:20Z</time>
      </trkpt>
      <trkpt lat="47.82206" lon="-3.40914">
        <ele>24</ele>
        <time>2019-07-17T14:43:21Z</time>
      </trkpt>
      <trkpt lat="47.82211" lon="-3.4092">
        <ele>24</ele>
        <time>2019-07-17T14:43:22Z</time>
      </trkpt>
      <trkpt lat="47.82217" lon="-3.40926">
        <ele>24</ele>
        <time>2019-07-17T14:43:23Z</time>
      </trkpt>
      <trkpt lat="47.82222" lon="-3.40932">
        <ele>24</ele>
        <time>2019-07-17T14:43:24Z</time>
      </trkpt>
      <trkpt lat="47.82227" lon="-3.40938">
        <ele>24</ele>
        <time>2019-07-17T14:43:25Z</time>
      </trkpt>
      <trkpt lat="47.82233" lon="-3.40944">
        <ele>24</ele>
        <time>2019-07-17T14:43:26Z</time>
      </trkpt>
      <trkpt lat="47.82238" lon="-3.4095">
        <ele>24</ele>
        <time>2019-07-17T14:43:27Z</time>
      </trkpt>
      <trkpt lat="47.82244" lon="-3.40956">
        <ele>24</ele>
        <time>2019-07-17T14:43:28Z</time>
      </trkpt>
      <trkpt lat="47.8225" lon="-3.40961">
        <ele>24</ele>
        <time>2019-07-17T14:43:29Z</time>
      </trkpt>
      <trkpt lat="47.82256" lon="-3.40967">
        <ele>24</ele>
        <time>2019-07-17T14:43:30Z</time>
      </trkpt>
      <trkpt lat="47.82262" lon="-3.40972">
        <ele>24</ele>
        <time>2019-07-17T14:43:31Z</time>
      </trkpt>
      <trkpt lat="47.82267" lon="-3.40978">
        <ele>24</ele>
        <time>2019-07-17T14:43:32Z</time>
      </trkpt>
      <trkpt lat="47.82273" lon="-3.40984">
        <ele>24</ele>
        <time>2019-07-17T14:43:33Z</time>
      </trkpt>
      <trkpt lat="47.82279" lon="-3.40991">
        <ele>24</ele>
        <time>2019-07-17T14:43:34Z</time>
      </trkpt>
      <trkpt lat="47.82284" lon="-3.40998">
        <ele>24</ele>
        <time>2019-07-17T14:43:35Z</time>
      </trkpt>
      <trkpt lat="47.82289" lon="-3.41004">
        <ele>23</ele>
        <time>2019-07-17T14:43:36Z</time>
      </trkpt>
      <trkpt lat="47.82295" lon="-3.4101">
        <ele>23</ele>
        <time>2019-07-17T14:43:37Z</time>
      </trkpt>
      <trkpt lat="47.82301" lon="-3.41017">
        <ele>23</ele>
        <time>2019-07-17T14:43:38Z</time>
      </trkpt>
      <trkpt lat="47.82306" lon="-3.41022">
        <ele>23</ele>
        <time>2019-07-17T14:43:39Z</time>
      </trkpt>
      <trkpt lat="47.8231" lon="-3.41026">
        <ele>23</ele>
        <time>2019-07-17T14:43:40Z</time>
      </trkpt>
      <trkpt lat="47.82315" lon="-3.4103">
        <ele>23</ele>
        <time>2019-07-17T14:43:41Z</time>
      </trkpt>
      <trkpt lat="47.82321" lon="-3.41035">
        <ele>23</ele>
        <time>2019-07-17T14:43:42Z</time>
      </trkpt>
      <trkpt lat="47.82326" lon="-3.41039">
        <ele>23</ele>
        <time>2019-07-17T14:43:43Z</time>
      </trkpt>
      <trkpt lat="47.82331" lon="-3.41043">
        <ele>23</ele>
        <time>2019-07-17T14:43:44Z</time>
      </trkpt>
      <trkpt lat="47.82336" lon="-3.41045">
        <ele>23</ele>
        <time>2019-07-17T14:43:45Z</time>
      </trkpt>
      <trkpt lat="47.82342" lon="-3.41045">
        <ele>23</ele>
        <time>2019-07-17T14:43:46Z</time>
      </trkpt>
      <trkpt lat="47.82347" lon="-3.41045">
        <ele>23</ele>
        <time>2019-07-17T14:43:47Z</time>
      </trkpt>
      <trkpt lat="47.82353" lon="-3.41046">
        <ele>23</ele>
        <time>2019-07-17T14:43:48Z</time>
      </trkpt>
      <trkpt lat="47.8236" lon="-3.41047">
        <ele>24</ele>
        <time>2019-07-17T14:43:49Z</time>
      </trkpt>
      <trkpt lat="47.82366" lon="-3.41047">
        <ele>24</ele>
        <time>2019-07-17T14:43:50Z</time>
      </trkpt>
      <trkpt lat="47.82372" lon="-3.41046">
        <ele>24</ele>
        <time>2019-07-17T14:43:51Z</time>
      </trkpt>
      <trkpt lat="47.82378" lon="-3.41045">
        <ele>24</ele>
        <time>2019-07-17T14:43:52Z</time>
      </trkpt>
      <trkpt lat="47.82383" lon="-3.41044">
        <ele>24</ele>
        <time>2019-07-17T14:43:53Z</time>
      </trkpt>
      <trkpt lat="47.82388" lon="-3.41041">
        <ele>24</ele>
        <time>2019-07-17T14:43:54Z</time>
      </trkpt>
      <trkpt lat="47.82394" lon="-3.41038">
        <ele>24</ele>
        <time>2019-07-17T14:43:55Z</time>
      </trkpt>
      <trkpt lat="47.82399" lon="-3.41036">
        <ele>24</ele>
        <time>2019-07-17T14:43:56Z</time>
      </trkpt>
      <trkpt lat="47.82405" lon="-3.41034">
        <ele>24</ele>
        <time>2019-07-17T14:43:57Z</time>
      </trkpt>
      <trkpt lat="47.8241" lon="-3.41031">
        <ele>24</ele>
        <time>2019-07-17T14:43:58Z</time>
      </trkpt>
      <trkpt lat="47.82416" lon="-3.41029">
        <ele>24</ele>
        <time>2019-07-17T14:43:59Z</time>
      </trkpt>
      <trkpt lat="47.82422" lon="-3.41026">
        <ele>24</ele>
        <time>2019-07-17T14:44:00Z</time>
      </trkpt>
      <trkpt lat="47.82428" lon="-3.41023">
        <ele>23</ele>
        <time>2019-07-17T14:44:01Z</time>
      </trkpt>
      <trkpt lat="47.82434" lon="-3.4102">
        <ele>23</ele>
        <time>2019-07-17T14:44:02Z</time>
      </trkpt>
      <trkpt lat="47.8244" lon="-3.41017">
        <ele>23</ele>
        <time>2019-07-17T14:44:03Z</time>
      </trkpt>
      <trkpt lat="47.82446" lon="-3.41014">
        <ele>23</ele>
        <time>2019-07-17T14:44:04Z</time>
      </trkpt>
      <trkpt lat="47.82451" lon="-3.4101">
        <ele>22</ele>
        <time>2019-07-17T14:44:05Z</time>
      </trkpt>
      <trkpt lat="47.82457" lon="-3.41007">
        <ele>22</ele>
        <time>2019-07-17T14:44:06Z</time>
      </trkpt>
      <trkpt lat="47.82463" lon="-3.41004">
        <ele>22</ele>
        <time>2019-07-17T14:44:07Z</time>
      </trkpt>
      <trkpt lat="47.82468" lon="-3.41002">
        <ele>22</ele>
        <time>2019-07-17T14:44:08Z</time>
      </trkpt>
      <trkpt lat="47.82474" lon="-3.40999">
        <ele>22</ele>
        <time>2019-07-17T14:44:09Z</time>
      </trkpt>
      <trkpt lat="47.82479" lon="-3.40996">
        <ele>22</ele>
        <time>2019-07-17T14:44:10Z</time>
      </trkpt>
      <trkpt lat="47.82483" lon="-3.40994">
        <ele>22</ele>
        <time>2019-07-17T14:44:11Z</time>
      </trkpt>
      <trkpt lat="47.82488" lon="-3.4099">
        <ele>22</ele>
        <time>2019-07-17T14:44:12Z</time>
      </trkpt>
      <trkpt lat="47.8249" lon="-3.40988">
        <ele>22</ele>
        <time>2019-07-17T14:44:13Z</time>
      </trkpt>
      <trkpt lat="47.82493" lon="-3.40987">
        <ele>22</ele>
        <time>2019-07-17T14:44:14Z</time>
      </trkpt>
      <trkpt lat="47.82496" lon="-3.40985">
        <ele>22</ele>
        <time>2019-07-17T14:44:15Z</time>
      </trkpt>
      <trkpt lat="47.82499" lon="-3.40983">
        <ele>21</ele>
        <time>2019-07-17T14:44:16Z</time>
      </trkpt>
      <trkpt lat="47.82502" lon="-3.40982">
        <ele>21</ele>
        <time>2019-07-17T14:44:17Z</time>
      </trkpt>
      <trkpt lat="47.82505" lon="-3.4098">
        <ele>21</ele>
        <time>2019-07-17T14:44:18Z</time>
      </trkpt>
      <trkpt lat="47.82508" lon="-3.40979">
        <ele>21</ele>
        <time>2019-07-17T14:44:19Z</time>
      </trkpt>
      <trkpt lat="47.82511" lon="-3.40976">
        <ele>21</ele>
        <time>2019-07-17T14:44:20Z</time>
      </trkpt>
      <trkpt lat="47.82514" lon="-3.40974">
        <ele>21</ele>
        <time>2019-07-17T14:44:21Z</time>
      </trkpt>
      <trkpt lat="47.82518" lon="-3.40972">
        <ele>21</ele>
        <time>2019-07-17T14:44:22Z</time>
      </trkpt>
      <trkpt lat="47.82523" lon="-3.4097">
        <ele>21</ele>
        <time>2019-07-17T14:44:23Z</time>
      </trkpt>
      <trkpt lat="47.82528" lon="-3.40968">
        <ele>20</ele>
        <time>2019-07-17T14:44:24Z</time>
      </trkpt>
      <trkpt lat="47.82534" lon="-3.40965">
        <ele>20</ele>
        <time>2019-07-17T14:44:25Z</time>
      </trkpt>
      <trkpt lat="47.82539" lon="-3.40963">
        <ele>20</ele>
        <time>2019-07-17T14:44:26Z</time>
      </trkpt>
      <trkpt lat="47.82545" lon="-3.4096">
        <ele>20</ele>
        <time>2019-07-17T14:44:27Z</time>
      </trkpt>
      <trkpt lat="47.8255" lon="-3.40957">
        <ele>20</ele>
        <time>2019-07-17T14:44:28Z</time>
      </trkpt>
      <trkpt lat="47.82555" lon="-3.40955">
        <ele>20</ele>
        <time>2019-07-17T14:44:29Z</time>
      </trkpt>
      <trkpt lat="47.8256" lon="-3.40953">
        <ele>20</ele>
        <time>2019-07-17T14:44:30Z</time>
      </trkpt>
      <trkpt lat="47.82565" lon="-3.40949">
        <ele>20</ele>
        <time>2019-07-17T14:44:31Z</time>
      </trkpt>
      <trkpt lat="47.82571" lon="-3.40946">
        <ele>20</ele>
        <time>2019-07-17T14:44:32Z</time>
      </trkpt>
      <trkpt lat="47.82576" lon="-3.40944">
        <ele>21</ele>
        <time>2019-07-17T14:44:33Z</time>
      </trkpt>
      <trkpt lat="47.82582" lon="-3.40942">
        <ele>21</ele>
        <time>2019-07-17T14:44:34Z</time>
      </trkpt>
      <trkpt lat="47.82588" lon="-3.4094">
        <ele>21</ele>
        <time>2019-07-17T14:44:35Z</time>
      </trkpt>
      <trkpt lat="47.82593" lon="-3.40937">
        <ele>21</ele>
        <time>2019-07-17T14:44:36Z</time>
      </trkpt>
      <trkpt lat="47.82598" lon="-3.40935">
        <ele>21</ele>
        <time>2019-07-17T14:44:37Z</time>
      </trkpt>
      <trkpt lat="47.82604" lon="-3.40933">
        <ele>22</ele>
        <time>2019-07-17T14:44:38Z</time>
      </trkpt>
      <trkpt lat="47.8261" lon="-3.4093">
        <ele>22</ele>
        <time>2019-07-17T14:44:39Z</time>
      </trkpt>
      <trkpt lat="47.82615" lon="-3.40928">
        <ele>22</ele>
        <time>2019-07-17T14:44:40Z</time>
      </trkpt>
      <trkpt lat="47.8262" lon="-3.40925">
        <ele>22</ele>
        <time>2019-07-17T14:44:41Z</time>
      </trkpt>
      <trkpt lat="47.82626" lon="-3.40923">
        <ele>23</ele>
        <time>2019-07-17T14:44:42Z</time>
      </trkpt>
      <trkpt lat="47.8263" lon="-3.4092">
        <ele>23</ele>
        <time>2019-07-17T14:44:43Z</time>
      </trkpt>
      <trkpt lat="47.82636" lon="-3.40918">
        <ele>23</ele>
        <time>2019-07-17T14:44:44Z</time>
      </trkpt>
      <trkpt lat="47.82642" lon="-3.40915">
        <ele>24</ele>
        <time>2019-07-17T14:44:45Z</time>
      </trkpt>
      <trkpt lat="47.82648" lon="-3.40913">
        <ele>24</ele>
        <time>2019-07-17T14:44:46Z</time>
      </trkpt>
      <trkpt lat="47.82653" lon="-3.40911">
        <ele>24</ele>
        <time>2019-07-17T14:44:47Z</time>
      </trkpt>
      <trkpt lat="47.82658" lon="-3.40909">
        <ele>24</ele>
        <time>2019-07-17T14:44:48Z</time>
      </trkpt>
      <trkpt lat="47.82663" lon="-3.40907">
        <ele>25</ele>
        <time>2019-07-17T14:44:49Z</time>
      </trkpt>
      <trkpt lat="47.82669" lon="-3.40905">
        <ele>25</ele>
        <time>2019-07-17T14:44:50Z</time>
      </trkpt>
      <trkpt lat="47.82674" lon="-3.40903">
        <ele>25</ele>
        <time>2019-07-17T14:44:51Z</time>
      </trkpt>
      <trkpt lat="47.82679" lon="-3.40901">
        <ele>25</ele>
        <time>2019-07-17T14:44:52Z</time>
      </trkpt>
      <trkpt lat="47.82685" lon="-3.40898">
        <ele>26</ele>
        <time>2019-07-17T14:44:53Z</time>
      </trkpt>
      <trkpt lat="47.8269" lon="-3.40896">
        <ele>26</ele>
        <time>2019-07-17T14:44:54Z</time>
      </trkpt>
      <trkpt lat="47.82697" lon="-3.40893">
        <ele>26</ele>
        <time>2019-07-17T14:44:55Z</time>
      </trkpt>
      <trkpt lat="47.82703" lon="-3.4089">
        <ele>26</ele>
        <time>2019-07-17T14:44:56Z</time>
      </trkpt>
      <trkpt lat="47.82708" lon="-3.40887">
        <ele>26</ele>
        <time>2019-07-17T14:44:57Z</time>
      </trkpt>
      <trkpt lat="47.82713" lon="-3.40885">
        <ele>26</ele>
        <time>2019-07-17T14:44:58Z</time>
      </trkpt>
      <trkpt lat="47.82719" lon="-3.40882">
        <ele>26</ele>
        <time>2019-07-17T14:44:59Z</time>
      </trkpt>
      <trkpt lat="47.82725" lon="-3.4088">
        <ele>26</ele>
        <time>2019-07-17T14:45:00Z</time>
      </trkpt>
      <trkpt lat="47.8273" lon="-3.40877">
        <ele>26</ele>
        <time>2019-07-17T14:45:01Z</time>
      </trkpt>
      <trkpt lat="47.82735" lon="-3.40874">
        <ele>27</ele>
        <time>2019-07-17T14:45:02Z</time>
      </trkpt>
      <trkpt lat="47.82741" lon="-3.40872">
        <ele>27</ele>
        <time>2019-07-17T14:45:03Z</time>
      </trkpt>
      <trkpt lat="47.82746" lon="-3.40869">
        <ele>27</ele>
        <time>2019-07-17T14:45:04Z</time>
      </trkpt>
      <trkpt lat="47.82751" lon="-3.40867">
        <ele>27</ele>
        <time>2019-07-17T14:45:05Z</time>
      </trkpt>
      <trkpt lat="47.82756" lon="-3.40864">
        <ele>27</ele>
        <time>2019-07-17T14:45:06Z</time>
      </trkpt>
      <trkpt lat="47.82762" lon="-3.40862">
        <ele>27</ele>
        <time>2019-07-17T14:45:07Z</time>
      </trkpt>
      <trkpt lat="47.82767" lon="-3.40859">
        <ele>27</ele>
        <time>2019-07-17T14:45:08Z</time>
      </trkpt>
      <trkpt lat="47.82772" lon="-3.40856">
        <ele>27</ele>
        <time>2019-07-17T14:45:09Z</time>
      </trkpt>
      <trkpt lat="47.82778" lon="-3.40853">
        <ele>27</ele>
        <time>2019-07-17T14:45:10Z</time>
      </trkpt>
      <trkpt lat="47.82783" lon="-3.4085">
        <ele>27</ele>
        <time>2019-07-17T14:45:11Z</time>
      </trkpt>
      <trkpt lat="47.82789" lon="-3.40847">
        <ele>27</ele>
        <time>2019-07-17T14:45:12Z</time>
      </trkpt>
      <trkpt lat="47.82794" lon="-3.40843">
        <ele>27</ele>
        <time>2019-07-17T14:45:13Z</time>
      </trkpt>
      <trkpt lat="47.828" lon="-3.4084">
        <ele>27</ele>
        <time>2019-07-17T14:45:14Z</time>
      </trkpt>
      <trkpt lat="47.82805" lon="-3.40835">
        <ele>27</ele>
        <time>2019-07-17T14:45:15Z</time>
      </trkpt>
      <trkpt lat="47.82809" lon="-3.40831">
        <ele>27</ele>
        <time>2019-07-17T14:45:16Z</time>
      </trkpt>
      <trkpt lat="47.82814" lon="-3.40826">
        <ele>27</ele>
        <time>2019-07-17T14:45:17Z</time>
      </trkpt>
      <trkpt lat="47.82819" lon="-3.40821">
        <ele>28</ele>
        <time>2019-07-17T14:45:18Z</time>
      </trkpt>
      <trkpt lat="47.82823" lon="-3.40815">
        <ele>28</ele>
        <time>2019-07-17T14:45:19Z</time>
      </trkpt>
      <trkpt lat="47.82827" lon="-3.40808">
        <ele>28</ele>
        <time>2019-07-17T14:45:20Z</time>
      </trkpt>
      <trkpt lat="47.82832" lon="-3.40803">
        <ele>28</ele>
        <time>2019-07-17T14:45:21Z</time>
      </trkpt>
      <trkpt lat="47.82836" lon="-3.40796">
        <ele>28</ele>
        <time>2019-07-17T14:45:22Z</time>
      </trkpt>
      <trkpt lat="47.8284" lon="-3.40791">
        <ele>29</ele>
        <time>2019-07-17T14:45:23Z</time>
      </trkpt>
      <trkpt lat="47.82844" lon="-3.40784">
        <ele>29</ele>
        <time>2019-07-17T14:45:24Z</time>
      </trkpt>
      <trkpt lat="47.82848" lon="-3.40777">
        <ele>29</ele>
        <time>2019-07-17T14:45:25Z</time>
      </trkpt>
      <trkpt lat="47.82852" lon="-3.40771">
        <ele>29</ele>
        <time>2019-07-17T14:45:26Z</time>
      </trkpt>
      <trkpt lat="47.82856" lon="-3.40764">
        <ele>29</ele>
        <time>2019-07-17T14:45:27Z</time>
      </trkpt>
      <trkpt lat="47.82861" lon="-3.40758">
        <ele>29</ele>
        <time>2019-07-17T14:45:28Z</time>
      </trkpt>
      <trkpt lat="47.82865" lon="-3.40751">
        <ele>29</ele>
        <time>2019-07-17T14:45:29Z</time>
      </trkpt>
      <trkpt lat="47.8287" lon="-3.40745">
        <ele>30</ele>
        <time>2019-07-17T14:45:30Z</time>
      </trkpt>
      <trkpt lat="47.82875" lon="-3.40737">
        <ele>30</ele>
        <time>2019-07-17T14:45:31Z</time>
      </trkpt>
      <trkpt lat="47.8288" lon="-3.4073">
        <ele>30</ele>
        <time>2019-07-17T14:45:32Z</time>
      </trkpt>
      <trkpt lat="47.82884" lon="-3.40723">
        <ele>30</ele>
        <time>2019-07-17T14:45:33Z</time>
      </trkpt>
      <trkpt lat="47.8289" lon="-3.40715">
        <ele>30</ele>
        <time>2019-07-17T14:45:34Z</time>
      </trkpt>
      <trkpt lat="47.82895" lon="-3.40708">
        <ele>30</ele>
        <time>2019-07-17T14:45:35Z</time>
      </trkpt>
      <trkpt lat="47.829" lon="-3.40701">
        <ele>30</ele>
        <time>2019-07-17T14:45:36Z</time>
      </trkpt>
      <trkpt lat="47.82904" lon="-3.40694">
        <ele>30</ele>
        <time>2019-07-17T14:45:37Z</time>
      </trkpt>
      <trkpt lat="47.82909" lon="-3.40688">
        <ele>30</ele>
        <time>2019-07-17T14:45:38Z</time>
      </trkpt>
      <trkpt lat="47.82913" lon="-3.40681">
        <ele>30</ele>
        <time>2019-07-17T14:45:39Z</time>
      </trkpt>
      <trkpt lat="47.82918" lon="-3.40674">
        <ele>31</ele>
        <time>2019-07-17T14:45:40Z</time>
      </trkpt>
      <trkpt lat="47.82923" lon="-3.40667">
        <ele>31</ele>
        <time>2019-07-17T14:45:41Z</time>
      </trkpt>
      <trkpt lat="47.82927" lon="-3.40659">
        <ele>31</ele>
        <time>2019-07-17T14:45:42Z</time>
      </trkpt>
      <trkpt lat="47.82932" lon="-3.40652">
        <ele>31</ele>
        <time>2019-07-17T14:45:43Z</time>
      </trkpt>
      <trkpt lat="47.82936" lon="-3.40645">
        <ele>31</ele>
        <time>2019-07-17T14:45:44Z</time>
      </trkpt>
      <trkpt lat="47.82941" lon="-3.40638">
        <ele>31</ele>
        <time>2019-07-17T14:45:45Z</time>
      </trkpt>
      <trkpt lat="47.82946" lon="-3.40631">
        <ele>31</ele>
        <time>2019-07-17T14:45:46Z</time>
      </trkpt>
      <trkpt lat="47.82951" lon="-3.40624">
        <ele>31</ele>
        <time>2019-07-17T14:45:47Z</time>
      </trkpt>
      <trkpt lat="47.82956" lon="-3.40618">
        <ele>31</ele>
        <time>2019-07-17T14:45:48Z</time>
      </trkpt>
      <trkpt lat="47.82961" lon="-3.40611">
        <ele>31</ele>
        <time>2019-07-17T14:45:49Z</time>
      </trkpt>
      <trkpt lat="47.82966" lon="-3.40604">
        <ele>31</ele>
        <time>2019-07-17T14:45:50Z</time>
      </trkpt>
      <trkpt lat="47.8297" lon="-3.40598">
        <ele>31</ele>
        <time>2019-07-17T14:45:51Z</time>
      </trkpt>
      <trkpt lat="47.82975" lon="-3.40591">
        <ele>32</ele>
        <time>2019-07-17T14:45:52Z</time>
      </trkpt>
      <trkpt lat="47.8298" lon="-3.40585">
        <ele>32</ele>
        <time>2019-07-17T14:45:53Z</time>
      </trkpt>
      <trkpt lat="47.82984" lon="-3.40578">
        <ele>32</ele>
        <time>2019-07-17T14:45:54Z</time>
      </trkpt>
      <trkpt lat="47.82989" lon="-3.40572">
        <ele>32</ele>
        <time>2019-07-17T14:45:55Z</time>
      </trkpt>
      <trkpt lat="47.82994" lon="-3.40566">
        <ele>32</ele>
        <time>2019-07-17T14:45:56Z</time>
      </trkpt>
      <trkpt lat="47.82998" lon="-3.40559">
        <ele>32</ele>
        <time>2019-07-17T14:45:57Z</time>
      </trkpt>
      <trkpt lat="47.83002" lon="-3.40553">
        <ele>32</ele>
        <time>2019-07-17T14:45:58Z</time>
      </trkpt>
      <trkpt lat="47.83006" lon="-3.40546">
        <ele>32</ele>
        <time>2019-07-17T14:45:59Z</time>
      </trkpt>
      <trkpt lat="47.8301" lon="-3.4054">
        <ele>32</ele>
        <time>2019-07-17T14:46:00Z</time>
      </trkpt>
      <trkpt lat="47.83014" lon="-3.40533">
        <ele>33</ele>
        <time>2019-07-17T14:46:01Z</time>
      </trkpt>
      <trkpt lat="47.83019" lon="-3.40527">
        <ele>33</ele>
        <time>2019-07-17T14:46:02Z</time>
      </trkpt>
      <trkpt lat="47.83023" lon="-3.4052">
        <ele>33</ele>
        <time>2019-07-17T14:46:03Z</time>
      </trkpt>
      <trkpt lat="47.83027" lon="-3.40514">
        <ele>33</ele>
        <time>2019-07-17T14:46:04Z</time>
      </trkpt>
      <trkpt lat="47.83031" lon="-3.40508">
        <ele>33</ele>
        <time>2019-07-17T14:46:05Z</time>
      </trkpt>
      <trkpt lat="47.83035" lon="-3.40501">
        <ele>33</ele>
        <time>2019-07-17T14:46:06Z</time>
      </trkpt>
      <trkpt lat="47.8304" lon="-3.40495">
        <ele>33</ele>
        <time>2019-07-17T14:46:07Z</time>
      </trkpt>
      <trkpt lat="47.83044" lon="-3.40489">
        <ele>33</ele>
        <time>2019-07-17T14:46:08Z</time>
      </trkpt>
      <trkpt lat="47.83047" lon="-3.40483">
        <ele>33</ele>
        <time>2019-07-17T14:46:09Z</time>
      </trkpt>
      <trkpt lat="47.8305" lon="-3.40478">
        <ele>34</ele>
        <time>2019-07-17T14:46:10Z</time>
      </trkpt>
      <trkpt lat="47.83054" lon="-3.40472">
        <ele>34</ele>
        <time>2019-07-17T14:46:11Z</time>
      </trkpt>
      <trkpt lat="47.83057" lon="-3.40466">
        <ele>34</ele>
        <time>2019-07-17T14:46:12Z</time>
      </trkpt>
      <trkpt lat="47.83061" lon="-3.40461">
        <ele>34</ele>
        <time>2019-07-17T14:46:13Z</time>
      </trkpt>
      <trkpt lat="47.83065" lon="-3.40455">
        <ele>34</ele>
        <time>2019-07-17T14:46:14Z</time>
      </trkpt>
      <trkpt lat="47.83068" lon="-3.40451">
        <ele>34</ele>
        <time>2019-07-17T14:46:15Z</time>
      </trkpt>
      <trkpt lat="47.83071" lon="-3.40447">
        <ele>34</ele>
        <time>2019-07-17T14:46:16Z</time>
      </trkpt>
      <trkpt lat="47.83073" lon="-3.40442">
        <ele>34</ele>
        <time>2019-07-17T14:46:17Z</time>
      </trkpt>
      <trkpt lat="47.83076" lon="-3.40438">
        <ele>34</ele>
        <time>2019-07-17T14:46:18Z</time>
      </trkpt>
      <trkpt lat="47.83078" lon="-3.40436">
        <ele>34</ele>
        <time>2019-07-17T14:46:19Z</time>
      </trkpt>
      <trkpt lat="47.83081" lon="-3.40434">
        <ele>34</ele>
        <time>2019-07-17T14:46:20Z</time>
      </trkpt>
      <trkpt lat="47.83085" lon="-3.40432">
        <ele>34</ele>
        <time>2019-07-17T14:46:21Z</time>
      </trkpt>
      <trkpt lat="47.83089" lon="-3.40429">
        <ele>34</ele>
        <time>2019-07-17T14:46:22Z</time>
      </trkpt>
      <trkpt lat="47.83093" lon="-3.40426">
        <ele>34</ele>
        <time>2019-07-17T14:46:23Z</time>
      </trkpt>
      <trkpt lat="47.83097" lon="-3.40423">
        <ele>34</ele>
        <time>2019-07-17T14:46:24Z</time>
      </trkpt>
      <trkpt lat="47.83101" lon="-3.4042">
        <ele>33</ele>
        <time>2019-07-17T14:46:25Z</time>
      </trkpt>
      <trkpt lat="47.83106" lon="-3.40417">
        <ele>33</ele>
        <time>2019-07-17T14:46:26Z</time>
      </trkpt>
      <trkpt lat="47.8311" lon="-3.40414">
        <ele>33</ele>
        <time>2019-07-17T14:46:27Z</time>
      </trkpt>
      <trkpt lat="47.83115" lon="-3.40412">
        <ele>33</ele>
        <time>2019-07-17T14:46:28Z</time>
      </trkpt>
      <trkpt lat="47.8312" lon="-3.4041">
        <ele>33</ele>
        <time>2019-07-17T14:46:29Z</time>
      </trkpt>
      <trkpt lat="47.83125" lon="-3.40408">
        <ele>33</ele>
        <time>2019-07-17T14:46:30Z</time>
      </trkpt>
      <trkpt lat="47.83129" lon="-3.40405">
        <ele>33</ele>
        <time>2019-07-17T14:46:31Z</time>
      </trkpt>
      <trkpt lat="47.83134" lon="-3.40403">
        <ele>33</ele>
        <time>2019-07-17T14:46:32Z</time>
      </trkpt>
      <trkpt lat="47.83139" lon="-3.40401">
        <ele>33</ele>
        <time>2019-07-17T14:46:33Z</time>
      </trkpt>
      <trkpt lat="47.83144" lon="-3.40401">
        <ele>33</ele>
        <time>2019-07-17T14:46:34Z</time>
      </trkpt>
      <trkpt lat="47.83149" lon="-3.404">
        <ele>33</ele>
        <time>2019-07-17T14:46:35Z</time>
      </trkpt>
      <trkpt lat="47.83155" lon="-3.40399">
        <ele>33</ele>
        <time>2019-07-17T14:46:36Z</time>
      </trkpt>
      <trkpt lat="47.8316" lon="-3.40399">
        <ele>33</ele>
        <time>2019-07-17T14:46:37Z</time>
      </trkpt>
      <trkpt lat="47.83165" lon="-3.40398">
        <ele>33</ele>
        <time>2019-07-17T14:46:38Z</time>
      </trkpt>
      <trkpt lat="47.83171" lon="-3.40398">
        <ele>33</ele>
        <time>2019-07-17T14:46:39Z</time>
      </trkpt>
      <trkpt lat="47.83175" lon="-3.40397">
        <ele>33</ele>
        <time>2019-07-17T14:46:40Z</time>
      </trkpt>
      <trkpt lat="47.8318" lon="-3.40396">
        <ele>33</ele>
        <time>2019-07-17T14:46:41Z</time>
      </trkpt>
      <trkpt lat="47.83184" lon="-3.40395">
        <ele>34</ele>
        <time>2019-07-17T14:46:42Z</time>
      </trkpt>
      <trkpt lat="47.83188" lon="-3.40396">
        <ele>34</ele>
        <time>2019-07-17T14:46:43Z</time>
      </trkpt>
      <trkpt lat="47.83193" lon="-3.40397">
        <ele>34</ele>
        <time>2019-07-17T14:46:44Z</time>
      </trkpt>
      <trkpt lat="47.83198" lon="-3.40399">
        <ele>34</ele>
        <time>2019-07-17T14:46:45Z</time>
      </trkpt>
      <trkpt lat="47.83203" lon="-3.40401">
        <ele>34</ele>
        <time>2019-07-17T14:46:46Z</time>
      </trkpt>
      <trkpt lat="47.83208" lon="-3.40403">
        <ele>34</ele>
        <time>2019-07-17T14:46:47Z</time>
      </trkpt>
      <trkpt lat="47.83213" lon="-3.40405">
        <ele>34</ele>
        <time>2019-07-17T14:46:48Z</time>
      </trkpt>
      <trkpt lat="47.83218" lon="-3.40408">
        <ele>34</ele>
        <time>2019-07-17T14:46:49Z</time>
      </trkpt>
      <trkpt lat="47.83223" lon="-3.4041">
        <ele>34</ele>
        <time>2019-07-17T14:46:50Z</time>
      </trkpt>
      <trkpt lat="47.83228" lon="-3.40412">
        <ele>35</ele>
        <time>2019-07-17T14:46:51Z</time>
      </trkpt>
      <trkpt lat="47.83234" lon="-3.40413">
        <ele>35</ele>
        <time>2019-07-17T14:46:52Z</time>
      </trkpt>
      <trkpt lat="47.83239" lon="-3.40415">
        <ele>35</ele>
        <time>2019-07-17T14:46:53Z</time>
      </trkpt>
      <trkpt lat="47.83244" lon="-3.40417">
        <ele>35</ele>
        <time>2019-07-17T14:46:54Z</time>
      </trkpt>
      <trkpt lat="47.8325" lon="-3.40419">
        <ele>35</ele>
        <time>2019-07-17T14:46:55Z</time>
      </trkpt>
      <trkpt lat="47.83255" lon="-3.40421">
        <ele>35</ele>
        <time>2019-07-17T14:46:56Z</time>
      </trkpt>
      <trkpt lat="47.8326" lon="-3.40424">
        <ele>36</ele>
        <time>2019-07-17T14:46:57Z</time>
      </trkpt>
      <trkpt lat="47.83265" lon="-3.40426">
        <ele>36</ele>
        <time>2019-07-17T14:46:58Z</time>
      </trkpt>
      <trkpt lat="47.8327" lon="-3.40428">
        <ele>36</ele>
        <time>2019-07-17T14:46:59Z</time>
      </trkpt>
      <trkpt lat="47.83276" lon="-3.40431">
        <ele>36</ele>
        <time>2019-07-17T14:47:00Z</time>
      </trkpt>
      <trkpt lat="47.83281" lon="-3.40433">
        <ele>37</ele>
        <time>2019-07-17T14:47:01Z</time>
      </trkpt>
      <trkpt lat="47.83286" lon="-3.40435">
        <ele>37</ele>
        <time>2019-07-17T14:47:02Z</time>
      </trkpt>
      <trkpt lat="47.83291" lon="-3.40437">
        <ele>37</ele>
        <time>2019-07-17T14:47:03Z</time>
      </trkpt>
      <trkpt lat="47.83297" lon="-3.40439">
        <ele>37</ele>
        <time>2019-07-17T14:47:04Z</time>
      </trkpt>
      <trkpt lat="47.83302" lon="-3.40442">
        <ele>37</ele>
        <time>2019-07-17T14:47:05Z</time>
      </trkpt>
      <trkpt lat="47.83307" lon="-3.40444">
        <ele>37</ele>
        <time>2019-07-17T14:47:06Z</time>
      </trkpt>
      <trkpt lat="47.83313" lon="-3.40446">
        <ele>38</ele>
        <time>2019-07-17T14:47:07Z</time>
      </trkpt>
      <trkpt lat="47.83318" lon="-3.40448">
        <ele>38</ele>
        <time>2019-07-17T14:47:08Z</time>
      </trkpt>
      <trkpt lat="47.83323" lon="-3.40451">
        <ele>38</ele>
        <time>2019-07-17T14:47:09Z</time>
      </trkpt>
      <trkpt lat="47.83329" lon="-3.40453">
        <ele>38</ele>
        <time>2019-07-17T14:47:10Z</time>
      </trkpt>
      <trkpt lat="47.83334" lon="-3.40455">
        <ele>38</ele>
        <time>2019-07-17T14:47:11Z</time>
      </trkpt>
      <trkpt lat="47.83339" lon="-3.40458">
        <ele>38</ele>
        <time>2019-07-17T14:47:12Z</time>
      </trkpt>
      <trkpt lat="47.83345" lon="-3.4046">
        <ele>38</ele>
        <time>2019-07-17T14:47:13Z</time>
      </trkpt>
      <trkpt lat="47.8335" lon="-3.40462">
        <ele>38</ele>
        <time>2019-07-17T14:47:14Z</time>
      </trkpt>
      <trkpt lat="47.83356" lon="-3.40465">
        <ele>39</ele>
        <time>2019-07-17T14:47:15Z</time>
      </trkpt>
      <trkpt lat="47.83361" lon="-3.40467">
        <ele>39</ele>
        <time>2019-07-17T14:47:16Z</time>
      </trkpt>
      <trkpt lat="47.83366" lon="-3.40469">
        <ele>39</ele>
        <time>2019-07-17T14:47:17Z</time>
      </trkpt>
      <trkpt lat="47.83372" lon="-3.40471">
        <ele>39</ele>
        <time>2019-07-17T14:47:18Z</time>
      </trkpt>
      <trkpt lat="47.83377" lon="-3.40474">
        <ele>39</ele>
        <time>2019-07-17T14:47:19Z</time>
      </trkpt>
      <trkpt lat="47.83382" lon="-3.40476">
        <ele>39</ele>
        <time>2019-07-17T14:47:20Z</time>
      </trkpt>
      <trkpt lat="47.83388" lon="-3.40479">
        <ele>40</ele>
        <time>2019-07-17T14:47:21Z</time>
      </trkpt>
      <trkpt lat="47.83394" lon="-3.40481">
        <ele>40</ele>
        <time>2019-07-17T14:47:22Z</time>
      </trkpt>
      <trkpt lat="47.83399" lon="-3.40484">
        <ele>40</ele>
        <time>2019-07-17T14:47:23Z</time>
      </trkpt>
      <trkpt lat="47.83405" lon="-3.40486">
        <ele>40</ele>
        <time>2019-07-17T14:47:24Z</time>
      </trkpt>
      <trkpt lat="47.8341" lon="-3.40488">
        <ele>40</ele>
        <time>2019-07-17T14:47:25Z</time>
      </trkpt>
      <trkpt lat="47.83414" lon="-3.4049">
        <ele>41</ele>
        <time>2019-07-17T14:47:26Z</time>
      </trkpt>
      <trkpt lat="47.83419" lon="-3.40492">
        <ele>41</ele>
        <time>2019-07-17T14:47:27Z</time>
      </trkpt>
      <trkpt lat="47.83423" lon="-3.40493">
        <ele>41</ele>
        <time>2019-07-17T14:47:28Z</time>
      </trkpt>
      <trkpt lat="47.83427" lon="-3.40495">
        <ele>41</ele>
        <time>2019-07-17T14:47:29Z</time>
      </trkpt>
      <trkpt lat="47.83431" lon="-3.40497">
        <ele>42</ele>
        <time>2019-07-17T14:47:30Z</time>
      </trkpt>
      <trkpt lat="47.83435" lon="-3.405">
        <ele>42</ele>
        <time>2019-07-17T14:47:31Z</time>
      </trkpt>
      <trkpt lat="47.8344" lon="-3.40503">
        <ele>42</ele>
        <time>2019-07-17T14:47:32Z</time>
      </trkpt>
      <trkpt lat="47.83444" lon="-3.40506">
        <ele>42</ele>
        <time>2019-07-17T14:47:33Z</time>
      </trkpt>
      <trkpt lat="47.8345" lon="-3.40508">
        <ele>42</ele>
        <time>2019-07-17T14:47:34Z</time>
      </trkpt>
      <trkpt lat="47.83455" lon="-3.4051">
        <ele>43</ele>
        <time>2019-07-17T14:47:35Z</time>
      </trkpt>
      <trkpt lat="47.8346" lon="-3.40513">
        <ele>43</ele>
        <time>2019-07-17T14:47:36Z</time>
      </trkpt>
      <trkpt lat="47.83465" lon="-3.40516">
        <ele>43</ele>
        <time>2019-07-17T14:47:37Z</time>
      </trkpt>
      <trkpt lat="47.83471" lon="-3.40519">
        <ele>43</ele>
        <time>2019-07-17T14:47:38Z</time>
      </trkpt>
      <trkpt lat="47.83476" lon="-3.40521">
        <ele>43</ele>
        <time>2019-07-17T14:47:39Z</time>
      </trkpt>
      <trkpt lat="47.83482" lon="-3.40524">
        <ele>44</ele>
        <time>2019-07-17T14:47:40Z</time>
      </trkpt>
      <trkpt lat="47.83487" lon="-3.40527">
        <ele>44</ele>
        <time>2019-07-17T14:47:41Z</time>
      </trkpt>
      <trkpt lat="47.83493" lon="-3.40529">
        <ele>44</ele>
        <time>2019-07-17T14:47:42Z</time>
      </trkpt>
      <trkpt lat="47.83498" lon="-3.40532">
        <ele>44</ele>
        <time>2019-07-17T14:47:43Z</time>
      </trkpt>
      <trkpt lat="47.83504" lon="-3.40535">
        <ele>44</ele>
        <time>2019-07-17T14:47:44Z</time>
      </trkpt>
      <trkpt lat="47.8351" lon="-3.40538">
        <ele>44</ele>
        <time>2019-07-17T14:47:45Z</time>
      </trkpt>
      <trkpt lat="47.83515" lon="-3.40541">
        <ele>45</ele>
        <time>2019-07-17T14:47:46Z</time>
      </trkpt>
      <trkpt lat="47.83521" lon="-3.40543">
        <ele>45</ele>
        <time>2019-07-17T14:47:47Z</time>
      </trkpt>
      <trkpt lat="47.83526" lon="-3.40546">
        <ele>45</ele>
        <time>2019-07-17T14:47:48Z</time>
      </trkpt>
      <trkpt lat="47.83532" lon="-3.40549">
        <ele>45</ele>
        <time>2019-07-17T14:47:49Z</time>
      </trkpt>
      <trkpt lat="47.83537" lon="-3.40552">
        <ele>46</ele>
        <time>2019-07-17T14:47:50Z</time>
      </trkpt>
      <trkpt lat="47.83543" lon="-3.40554">
        <ele>46</ele>
        <time>2019-07-17T14:47:51Z</time>
      </trkpt>
      <trkpt lat="47.83549" lon="-3.40557">
        <ele>46</ele>
        <time>2019-07-17T14:47:52Z</time>
      </trkpt>
      <trkpt lat="47.83554" lon="-3.4056">
        <ele>46</ele>
        <time>2019-07-17T14:47:53Z</time>
      </trkpt>
      <trkpt lat="47.8356" lon="-3.40562">
        <ele>46</ele>
        <time>2019-07-17T14:47:54Z</time>
      </trkpt>
      <trkpt lat="47.83565" lon="-3.40564">
        <ele>46</ele>
        <time>2019-07-17T14:47:55Z</time>
      </trkpt>
      <trkpt lat="47.83571" lon="-3.40566">
        <ele>46</ele>
        <time>2019-07-17T14:47:56Z</time>
      </trkpt>
      <trkpt lat="47.83576" lon="-3.40568">
        <ele>46</ele>
        <time>2019-07-17T14:47:57Z</time>
      </trkpt>
      <trkpt lat="47.8358" lon="-3.40572">
        <ele>46</ele>
        <time>2019-07-17T14:47:58Z</time>
      </trkpt>
      <trkpt lat="47.83585" lon="-3.40576">
        <ele>46</ele>
        <time>2019-07-17T14:47:59Z</time>
      </trkpt>
      <trkpt lat="47.83588" lon="-3.40578">
        <ele>46</ele>
        <time>2019-07-17T14:48:00Z</time>
      </trkpt>
      <trkpt lat="47.83591" lon="-3.40579">
        <ele>46</ele>
        <time>2019-07-17T14:48:01Z</time>
      </trkpt>
      <trkpt lat="47.83594" lon="-3.40579">
        <ele>45</ele>
        <time>2019-07-17T14:48:02Z</time>
      </trkpt>
      <trkpt lat="47.83596" lon="-3.40577">
        <ele>45</ele>
        <time>2019-07-17T14:48:03Z</time>
      </trkpt>
      <trkpt lat="47.83598" lon="-3.40575">
        <ele>45</ele>
        <time>2019-07-17T14:48:04Z</time>
      </trkpt>
      <trkpt lat="47.836" lon="-3.40573">
        <ele>45</ele>
        <time>2019-07-17T14:48:05Z</time>
      </trkpt>
      <trkpt lat="47.83602" lon="-3.40573">
        <ele>45</ele>
        <time>2019-07-17T14:48:06Z</time>
      </trkpt>
      <trkpt lat="47.83604" lon="-3.40573">
        <ele>45</ele>
        <time>2019-07-17T14:48:07Z</time>
      </trkpt>
      <trkpt lat="47.83605" lon="-3.40574">
        <ele>44</ele>
        <time>2019-07-17T14:48:08Z</time>
      </trkpt>
      <trkpt lat="47.83605" lon="-3.40574">
        <ele>44</ele>
        <time>2019-07-17T14:48:09Z</time>
      </trkpt>
      <trkpt lat="47.83611" lon="-3.40577">
        <ele>43</ele>
        <time>2019-07-17T14:48:10Z</time>
      </trkpt>
      <trkpt lat="47.83611" lon="-3.40577">
        <ele>43</ele>
        <time>2019-07-17T14:48:11Z</time>
      </trkpt>
      <trkpt lat="47.83613" lon="-3.40579">
        <ele>43</ele>
        <time>2019-07-17T14:48:12Z</time>
      </trkpt>
      <trkpt lat="47.83618" lon="-3.4058">
        <ele>43</ele>
        <time>2019-07-17T14:48:13Z</time>
      </trkpt>
      <trkpt lat="47.83621" lon="-3.40581">
        <ele>43</ele>
        <time>2019-07-17T14:48:14Z</time>
      </trkpt>
      <trkpt lat="47.83623" lon="-3.40582">
        <ele>43</ele>
        <time>2019-07-17T14:48:15Z</time>
      </trkpt>
      <trkpt lat="47.83623" lon="-3.40582">
        <ele>43</ele>
        <time>2019-07-17T14:48:16Z</time>
      </trkpt>
      <trkpt lat="47.8363" lon="-3.40585">
        <ele>43</ele>
        <time>2019-07-17T14:48:17Z</time>
      </trkpt>
      <trkpt lat="47.83634" lon="-3.40587">
        <ele>43</ele>
        <time>2019-07-17T14:48:18Z</time>
      </trkpt>
      <trkpt lat="47.83638" lon="-3.40589">
        <ele>42</ele>
        <time>2019-07-17T14:48:19Z</time>
      </trkpt>
      <trkpt lat="47.83642" lon="-3.40592">
        <ele>42</ele>
        <time>2019-07-17T14:48:20Z</time>
      </trkpt>
      <trkpt lat="47.83647" lon="-3.40596">
        <ele>42</ele>
        <time>2019-07-17T14:48:21Z</time>
      </trkpt>
      <trkpt lat="47.83647" lon="-3.40596">
        <ele>42</ele>
        <time>2019-07-17T14:48:22Z</time>
      </trkpt>
      <trkpt lat="47.83656" lon="-3.40601">
        <ele>42</ele>
        <time>2019-07-17T14:48:23Z</time>
      </trkpt>
      <trkpt lat="47.83656" lon="-3.40601">
        <ele>42</ele>
        <time>2019-07-17T14:48:24Z</time>
      </trkpt>
      <trkpt lat="47.83666" lon="-3.40606">
        <ele>42</ele>
        <time>2019-07-17T14:48:25Z</time>
      </trkpt>
      <trkpt lat="47.83671" lon="-3.40611">
        <ele>42</ele>
        <time>2019-07-17T14:48:26Z</time>
      </trkpt>
      <trkpt lat="47.83676" lon="-3.40614">
        <ele>42</ele>
        <time>2019-07-17T14:48:27Z</time>
      </trkpt>
      <trkpt lat="47.83676" lon="-3.40614">
        <ele>42</ele>
        <time>2019-07-17T14:48:28Z</time>
      </trkpt>
      <trkpt lat="47.83686" lon="-3.40622">
        <ele>42</ele>
        <time>2019-07-17T14:48:29Z</time>
      </trkpt>
      <trkpt lat="47.83691" lon="-3.40627">
        <ele>42</ele>
        <time>2019-07-17T14:48:30Z</time>
      </trkpt>
      <trkpt lat="47.83697" lon="-3.40632">
        <ele>42</ele>
        <time>2019-07-17T14:48:31Z</time>
      </trkpt>
      <trkpt lat="47.83702" lon="-3.40636">
        <ele>42</ele>
        <time>2019-07-17T14:48:32Z</time>
      </trkpt>
      <trkpt lat="47.83702" lon="-3.40636">
        <ele>42</ele>
        <time>2019-07-17T14:48:33Z</time>
      </trkpt>
      <trkpt lat="47.83712" lon="-3.40646">
        <ele>42</ele>
        <time>2019-07-17T14:48:34Z</time>
      </trkpt>
      <trkpt lat="47.83717" lon="-3.40651">
        <ele>42</ele>
        <time>2019-07-17T14:48:35Z</time>
      </trkpt>
      <trkpt lat="47.83722" lon="-3.40655">
        <ele>42</ele>
        <time>2019-07-17T14:48:36Z</time>
      </trkpt>
      <trkpt lat="47.83727" lon="-3.4066">
        <ele>42</ele>
        <time>2019-07-17T14:48:37Z</time>
      </trkpt>
      <trkpt lat="47.83727" lon="-3.4066">
        <ele>42</ele>
        <time>2019-07-17T14:48:38Z</time>
      </trkpt>
      <trkpt lat="47.83737" lon="-3.40669">
        <ele>42</ele>
        <time>2019-07-17T14:48:39Z</time>
      </trkpt>
      <trkpt lat="47.83737" lon="-3.40669">
        <ele>42</ele>
        <time>2019-07-17T14:48:40Z</time>
      </trkpt>
      <trkpt lat="47.83747" lon="-3.40678">
        <ele>42</ele>
        <time>2019-07-17T14:48:41Z</time>
      </trkpt>
      <trkpt lat="47.83747" lon="-3.40678">
        <ele>42</ele>
        <time>2019-07-17T14:48:42Z</time>
      </trkpt>
      <trkpt lat="47.83752" lon="-3.40682">
        <ele>42</ele>
        <time>2019-07-17T14:48:43Z</time>
      </trkpt>
      <trkpt lat="47.83757" lon="-3.40686">
        <ele>42</ele>
        <time>2019-07-17T14:48:44Z</time>
      </trkpt>
      <trkpt lat="47.83762" lon="-3.40691">
        <ele>42</ele>
        <time>2019-07-17T14:48:45Z</time>
      </trkpt>
      <trkpt lat="47.83772" lon="-3.40699">
        <ele>42</ele>
        <time>2019-07-17T14:48:46Z</time>
      </trkpt>
      <trkpt lat="47.83776" lon="-3.40703">
        <ele>42</ele>
        <time>2019-07-17T14:48:47Z</time>
      </trkpt>
      <trkpt lat="47.83776" lon="-3.40703">
        <ele>42</ele>
        <time>2019-07-17T14:48:48Z</time>
      </trkpt>
      <trkpt lat="47.83786" lon="-3.40711">
        <ele>42</ele>
        <time>2019-07-17T14:48:49Z</time>
      </trkpt>
      <trkpt lat="47.83791" lon="-3.40716">
        <ele>41</ele>
        <time>2019-07-17T14:48:50Z</time>
      </trkpt>
      <trkpt lat="47.83796" lon="-3.4072">
        <ele>41</ele>
        <time>2019-07-17T14:48:51Z</time>
      </trkpt>
      <trkpt lat="47.838" lon="-3.40724">
        <ele>41</ele>
        <time>2019-07-17T14:48:52Z</time>
      </trkpt>
      <trkpt lat="47.838" lon="-3.40724">
        <ele>41</ele>
        <time>2019-07-17T14:48:53Z</time>
      </trkpt>
      <trkpt lat="47.83805" lon="-3.40728">
        <ele>41</ele>
        <time>2019-07-17T14:48:54Z</time>
      </trkpt>
      <trkpt lat="47.8381" lon="-3.40733">
        <ele>41</ele>
        <time>2019-07-17T14:48:55Z</time>
      </trkpt>
      <trkpt lat="47.83819" lon="-3.4074">
        <ele>41</ele>
        <time>2019-07-17T14:48:56Z</time>
      </trkpt>
      <trkpt lat="47.83824" lon="-3.40744">
        <ele>41</ele>
        <time>2019-07-17T14:48:57Z</time>
      </trkpt>
      <trkpt lat="47.83824" lon="-3.40744">
        <ele>41</ele>
        <time>2019-07-17T14:48:58Z</time>
      </trkpt>
      <trkpt lat="47.83833" lon="-3.40753">
        <ele>41</ele>
        <time>2019-07-17T14:48:59Z</time>
      </trkpt>
      <trkpt lat="47.83838" lon="-3.40757">
        <ele>42</ele>
        <time>2019-07-17T14:49:00Z</time>
      </trkpt>
      <trkpt lat="47.83843" lon="-3.40762">
        <ele>42</ele>
        <time>2019-07-17T14:49:01Z</time>
      </trkpt>
      <trkpt lat="47.83847" lon="-3.40766">
        <ele>42</ele>
        <time>2019-07-17T14:49:02Z</time>
      </trkpt>
      <trkpt lat="47.83847" lon="-3.40766">
        <ele>42</ele>
        <time>2019-07-17T14:49:03Z</time>
      </trkpt>
      <trkpt lat="47.83852" lon="-3.4077">
        <ele>42</ele>
        <time>2019-07-17T14:49:04Z</time>
      </trkpt>
      <trkpt lat="47.83861" lon="-3.40778">
        <ele>42</ele>
        <time>2019-07-17T14:49:05Z</time>
      </trkpt>
      <trkpt lat="47.83866" lon="-3.40782">
        <ele>42</ele>
        <time>2019-07-17T14:49:06Z</time>
      </trkpt>
      <trkpt lat="47.83871" lon="-3.40786">
        <ele>42</ele>
        <time>2019-07-17T14:49:07Z</time>
      </trkpt>
      <trkpt lat="47.83876" lon="-3.4079">
        <ele>42</ele>
        <time>2019-07-17T14:49:08Z</time>
      </trkpt>
      <trkpt lat="47.8388" lon="-3.40795">
        <ele>41</ele>
        <time>2019-07-17T14:49:09Z</time>
      </trkpt>
      <trkpt lat="47.83884" lon="-3.40798">
        <ele>41</ele>
        <time>2019-07-17T14:49:10Z</time>
      </trkpt>
      <trkpt lat="47.83888" lon="-3.40803">
        <ele>42</ele>
        <time>2019-07-17T14:49:11Z</time>
      </trkpt>
      <trkpt lat="47.83892" lon="-3.40806">
        <ele>42</ele>
        <time>2019-07-17T14:49:12Z</time>
      </trkpt>
      <trkpt lat="47.83897" lon="-3.4081">
        <ele>42</ele>
        <time>2019-07-17T14:49:13Z</time>
      </trkpt>
      <trkpt lat="47.83901" lon="-3.40814">
        <ele>42</ele>
        <time>2019-07-17T14:49:14Z</time>
      </trkpt>
      <trkpt lat="47.83905" lon="-3.40818">
        <ele>42</ele>
        <time>2019-07-17T14:49:15Z</time>
      </trkpt>
      <trkpt lat="47.8391" lon="-3.40822">
        <ele>42</ele>
        <time>2019-07-17T14:49:16Z</time>
      </trkpt>
      <trkpt lat="47.83915" lon="-3.40827">
        <ele>42</ele>
        <time>2019-07-17T14:49:17Z</time>
      </trkpt>
      <trkpt lat="47.83915" lon="-3.40827">
        <ele>42</ele>
        <time>2019-07-17T14:49:18Z</time>
      </trkpt>
      <trkpt lat="47.83924" lon="-3.40835">
        <ele>42</ele>
        <time>2019-07-17T14:49:19Z</time>
      </trkpt>
      <trkpt lat="47.83929" lon="-3.40838">
        <ele>42</ele>
        <time>2019-07-17T14:49:20Z</time>
      </trkpt>
      <trkpt lat="47.83934" lon="-3.40842">
        <ele>42</ele>
        <time>2019-07-17T14:49:21Z</time>
      </trkpt>
      <trkpt lat="47.83939" lon="-3.40846">
        <ele>42</ele>
        <time>2019-07-17T14:49:22Z</time>
      </trkpt>
      <trkpt lat="47.83939" lon="-3.40846">
        <ele>42</ele>
        <time>2019-07-17T14:49:23Z</time>
      </trkpt>
      <trkpt lat="47.83944" lon="-3.40851">
        <ele>42</ele>
        <time>2019-07-17T14:49:24Z</time>
      </trkpt>
      <trkpt lat="47.83954" lon="-3.40858">
        <ele>42</ele>
        <time>2019-07-17T14:49:25Z</time>
      </trkpt>
      <trkpt lat="47.83959" lon="-3.40862">
        <ele>42</ele>
        <time>2019-07-17T14:49:26Z</time>
      </trkpt>
      <trkpt lat="47.83959" lon="-3.40862">
        <ele>42</ele>
        <time>2019-07-17T14:49:27Z</time>
      </trkpt>
      <trkpt lat="47.83963" lon="-3.40866">
        <ele>42</ele>
        <time>2019-07-17T14:49:28Z</time>
      </trkpt>
      <trkpt lat="47.83973" lon="-3.40871">
        <ele>42</ele>
        <time>2019-07-17T14:49:29Z</time>
      </trkpt>
      <trkpt lat="47.83973" lon="-3.40871">
        <ele>42</ele>
        <time>2019-07-17T14:49:30Z</time>
      </trkpt>
      <trkpt lat="47.83979" lon="-3.40874">
        <ele>42</ele>
        <time>2019-07-17T14:49:31Z</time>
      </trkpt>
      <trkpt lat="47.83988" lon="-3.40878">
        <ele>43</ele>
        <time>2019-07-17T14:49:32Z</time>
      </trkpt>
      <trkpt lat="47.83993" lon="-3.4088">
        <ele>43</ele>
        <time>2019-07-17T14:49:33Z</time>
      </trkpt>
      <trkpt lat="47.83993" lon="-3.4088">
        <ele>43</ele>
        <time>2019-07-17T14:49:34Z</time>
      </trkpt>
      <trkpt lat="47.84003" lon="-3.40882">
        <ele>43</ele>
        <time>2019-07-17T14:49:35Z</time>
      </trkpt>
      <trkpt lat="47.84008" lon="-3.40883">
        <ele>43</ele>
        <time>2019-07-17T14:49:36Z</time>
      </trkpt>
      <trkpt lat="47.84013" lon="-3.40883">
        <ele>43</ele>
        <time>2019-07-17T14:49:37Z</time>
      </trkpt>
      <trkpt lat="47.84019" lon="-3.40884">
        <ele>43</ele>
        <time>2019-07-17T14:49:38Z</time>
      </trkpt>
      <trkpt lat="47.84024" lon="-3.40885">
        <ele>43</ele>
        <time>2019-07-17T14:49:39Z</time>
      </trkpt>
      <trkpt lat="47.84029" lon="-3.40884">
        <ele>43</ele>
        <time>2019-07-17T14:49:40Z</time>
      </trkpt>
      <trkpt lat="47.84029" lon="-3.40884">
        <ele>43</ele>
        <time>2019-07-17T14:49:41Z</time>
      </trkpt>
      <trkpt lat="47.8404" lon="-3.40884">
        <ele>43</ele>
        <time>2019-07-17T14:49:42Z</time>
      </trkpt>
      <trkpt lat="47.84045" lon="-3.40883">
        <ele>43</ele>
        <time>2019-07-17T14:49:43Z</time>
      </trkpt>
      <trkpt lat="47.84045" lon="-3.40883">
        <ele>43</ele>
        <time>2019-07-17T14:49:44Z</time>
      </trkpt>
      <trkpt lat="47.84055" lon="-3.40882">
        <ele>44</ele>
        <time>2019-07-17T14:49:45Z</time>
      </trkpt>
      <trkpt lat="47.84055" lon="-3.40882">
        <ele>44</ele>
        <time>2019-07-17T14:49:46Z</time>
      </trkpt>
      <trkpt lat="47.8406" lon="-3.40881">
        <ele>44</ele>
        <time>2019-07-17T14:49:47Z</time>
      </trkpt>
      <trkpt lat="47.84065" lon="-3.40879">
        <ele>44</ele>
        <time>2019-07-17T14:49:48Z</time>
      </trkpt>
      <trkpt lat="47.8407" lon="-3.40877">
        <ele>44</ele>
        <time>2019-07-17T14:49:49Z</time>
      </trkpt>
      <trkpt lat="47.84074" lon="-3.40875">
        <ele>44</ele>
        <time>2019-07-17T14:49:50Z</time>
      </trkpt>
      <trkpt lat="47.84081" lon="-3.40872">
        <ele>45</ele>
        <time>2019-07-17T14:49:51Z</time>
      </trkpt>
      <trkpt lat="47.84084" lon="-3.40871">
        <ele>45</ele>
        <time>2019-07-17T14:49:52Z</time>
      </trkpt>
      <trkpt lat="47.84084" lon="-3.40871">
        <ele>45</ele>
        <time>2019-07-17T14:49:53Z</time>
      </trkpt>
      <trkpt lat="47.84087" lon="-3.40868">
        <ele>45</ele>
        <time>2019-07-17T14:49:54Z</time>
      </trkpt>
      <trkpt lat="47.84089" lon="-3.40868">
        <ele>45</ele>
        <time>2019-07-17T14:49:55Z</time>
      </trkpt>
      <trkpt lat="47.84089" lon="-3.40868">
        <ele>45</ele>
        <time>2019-07-17T14:49:56Z</time>
      </trkpt>
      <trkpt lat="47.84092" lon="-3.40869">
        <ele>46</ele>
        <time>2019-07-17T14:49:57Z</time>
      </trkpt>
      <trkpt lat="47.84094" lon="-3.40876">
        <ele>46</ele>
        <time>2019-07-17T14:49:58Z</time>
      </trkpt>
      <trkpt lat="47.84095" lon="-3.40881">
        <ele>46</ele>
        <time>2019-07-17T14:49:59Z</time>
      </trkpt>
      <trkpt lat="47.84095" lon="-3.40887">
        <ele>47</ele>
        <time>2019-07-17T14:50:00Z</time>
      </trkpt>
      <trkpt lat="47.84096" lon="-3.40892">
        <ele>47</ele>
        <time>2019-07-17T14:50:01Z</time>
      </trkpt>
      <trkpt lat="47.84096" lon="-3.40898">
        <ele>47</ele>
        <time>2019-07-17T14:50:02Z</time>
      </trkpt>
      <trkpt lat="47.84096" lon="-3.40904">
        <ele>47</ele>
        <time>2019-07-17T14:50:03Z</time>
      </trkpt>
      <trkpt lat="47.84097" lon="-3.40911">
        <ele>47</ele>
        <time>2019-07-17T14:50:04Z</time>
      </trkpt>
      <trkpt lat="47.84097" lon="-3.40917">
        <ele>47</ele>
        <time>2019-07-17T14:50:05Z</time>
      </trkpt>
      <trkpt lat="47.84098" lon="-3.40924">
        <ele>47</ele>
        <time>2019-07-17T14:50:06Z</time>
      </trkpt>
      <trkpt lat="47.84098" lon="-3.4093">
        <ele>48</ele>
        <time>2019-07-17T14:50:07Z</time>
      </trkpt>
      <trkpt lat="47.84098" lon="-3.40936">
        <ele>48</ele>
        <time>2019-07-17T14:50:08Z</time>
      </trkpt>
      <trkpt lat="47.84098" lon="-3.40943">
        <ele>48</ele>
        <time>2019-07-17T14:50:09Z</time>
      </trkpt>
      <trkpt lat="47.84098" lon="-3.40943">
        <ele>48</ele>
        <time>2019-07-17T14:50:10Z</time>
      </trkpt>
      <trkpt lat="47.84099" lon="-3.40956">
        <ele>48</ele>
        <time>2019-07-17T14:50:11Z</time>
      </trkpt>
      <trkpt lat="47.84099" lon="-3.40963">
        <ele>48</ele>
        <time>2019-07-17T14:50:12Z</time>
      </trkpt>
      <trkpt lat="47.841" lon="-3.4097">
        <ele>48</ele>
        <time>2019-07-17T14:50:13Z</time>
      </trkpt>
      <trkpt lat="47.841" lon="-3.40976">
        <ele>48</ele>
        <time>2019-07-17T14:50:14Z</time>
      </trkpt>
      <trkpt lat="47.841" lon="-3.40976">
        <ele>48</ele>
        <time>2019-07-17T14:50:15Z</time>
      </trkpt>
      <trkpt lat="47.841" lon="-3.40991">
        <ele>48</ele>
        <time>2019-07-17T14:50:16Z</time>
      </trkpt>
      <trkpt lat="47.841" lon="-3.40998">
        <ele>48</ele>
        <time>2019-07-17T14:50:17Z</time>
      </trkpt>
      <trkpt lat="47.841" lon="-3.41006">
        <ele>48</ele>
        <time>2019-07-17T14:50:18Z</time>
      </trkpt>
      <trkpt lat="47.841" lon="-3.41014">
        <ele>48</ele>
        <time>2019-07-17T14:50:19Z</time>
      </trkpt>
      <trkpt lat="47.84101" lon="-3.41021">
        <ele>48</ele>
        <time>2019-07-17T14:50:20Z</time>
      </trkpt>
      <trkpt lat="47.84101" lon="-3.41029">
        <ele>48</ele>
        <time>2019-07-17T14:50:21Z</time>
      </trkpt>
      <trkpt lat="47.84101" lon="-3.41036">
        <ele>48</ele>
        <time>2019-07-17T14:50:22Z</time>
      </trkpt>
      <trkpt lat="47.84101" lon="-3.41036">
        <ele>48</ele>
        <time>2019-07-17T14:50:23Z</time>
      </trkpt>
      <trkpt lat="47.84101" lon="-3.41051">
        <ele>48</ele>
        <time>2019-07-17T14:50:24Z</time>
      </trkpt>
      <trkpt lat="47.84101" lon="-3.41059">
        <ele>48</ele>
        <time>2019-07-17T14:50:25Z</time>
      </trkpt>
      <trkpt lat="47.84102" lon="-3.41067">
        <ele>48</ele>
        <time>2019-07-17T14:50:26Z</time>
      </trkpt>
      <trkpt lat="47.84102" lon="-3.41075">
        <ele>48</ele>
        <time>2019-07-17T14:50:27Z</time>
      </trkpt>
      <trkpt lat="47.84102" lon="-3.41075">
        <ele>48</ele>
        <time>2019-07-17T14:50:28Z</time>
      </trkpt>
      <trkpt lat="47.84102" lon="-3.41091">
        <ele>48</ele>
        <time>2019-07-17T14:50:29Z</time>
      </trkpt>
      <trkpt lat="47.84102" lon="-3.41098">
        <ele>48</ele>
        <time>2019-07-17T14:50:30Z</time>
      </trkpt>
      <trkpt lat="47.84102" lon="-3.41098">
        <ele>48</ele>
        <time>2019-07-17T14:50:31Z</time>
      </trkpt>
      <trkpt lat="47.84103" lon="-3.41106">
        <ele>48</ele>
        <time>2019-07-17T14:50:32Z</time>
      </trkpt>
      <trkpt lat="47.84105" lon="-3.41112">
        <ele>48</ele>
        <time>2019-07-17T14:50:33Z</time>
      </trkpt>
      <trkpt lat="47.84114" lon="-3.41113">
        <ele>49</ele>
        <time>2019-07-17T14:50:34Z</time>
      </trkpt>
      <trkpt lat="47.84114" lon="-3.41113">
        <ele>49</ele>
        <time>2019-07-17T14:50:35Z</time>
      </trkpt>
      <trkpt lat="47.84117" lon="-3.41112">
        <ele>49</ele>
        <time>2019-07-17T14:50:36Z</time>
      </trkpt>
      <trkpt lat="47.84127" lon="-3.4111">
        <ele>49</ele>
        <time>2019-07-17T14:50:37Z</time>
      </trkpt>
      <trkpt lat="47.84132" lon="-3.41108">
        <ele>49</ele>
        <time>2019-07-17T14:50:38Z</time>
      </trkpt>
      <trkpt lat="47.84137" lon="-3.41107">
        <ele>49</ele>
        <time>2019-07-17T14:50:39Z</time>
      </trkpt>
      <trkpt lat="47.84137" lon="-3.41107">
        <ele>49</ele>
        <time>2019-07-17T14:50:40Z</time>
      </trkpt>
      <trkpt lat="47.84141" lon="-3.41106">
        <ele>49</ele>
        <time>2019-07-17T14:50:41Z</time>
      </trkpt>
      <trkpt lat="47.84147" lon="-3.41105">
        <ele>50</ele>
        <time>2019-07-17T14:50:42Z</time>
      </trkpt>
      <trkpt lat="47.84157" lon="-3.41103">
        <ele>50</ele>
        <time>2019-07-17T14:50:43Z</time>
      </trkpt>
      <trkpt lat="47.84157" lon="-3.41103">
        <ele>50</ele>
        <time>2019-07-17T14:50:44Z</time>
      </trkpt>
      <trkpt lat="47.84163" lon="-3.41101">
        <ele>50</ele>
        <time>2019-07-17T14:50:45Z</time>
      </trkpt>
      <trkpt lat="47.84175" lon="-3.41098">
        <ele>50</ele>
        <time>2019-07-17T14:50:46Z</time>
      </trkpt>
      <trkpt lat="47.84175" lon="-3.41098">
        <ele>50</ele>
        <time>2019-07-17T14:50:47Z</time>
      </trkpt>
      <trkpt lat="47.84181" lon="-3.41096">
        <ele>50</ele>
        <time>2019-07-17T14:50:48Z</time>
      </trkpt>
      <trkpt lat="47.84187" lon="-3.41094">
        <ele>50</ele>
        <time>2019-07-17T14:50:49Z</time>
      </trkpt>
      <trkpt lat="47.84197" lon="-3.41091">
        <ele>50</ele>
        <time>2019-07-17T14:50:50Z</time>
      </trkpt>
      <trkpt lat="47.84197" lon="-3.41091">
        <ele>50</ele>
        <time>2019-07-17T14:50:51Z</time>
      </trkpt>
      <trkpt lat="47.84202" lon="-3.41089">
        <ele>50</ele>
        <time>2019-07-17T14:50:52Z</time>
      </trkpt>
      <trkpt lat="47.84207" lon="-3.41088">
        <ele>50</ele>
        <time>2019-07-17T14:50:53Z</time>
      </trkpt>
      <trkpt lat="47.84212" lon="-3.41086">
        <ele>50</ele>
        <time>2019-07-17T14:50:54Z</time>
      </trkpt>
      <trkpt lat="47.84217" lon="-3.41084">
        <ele>50</ele>
        <time>2019-07-17T14:50:55Z</time>
      </trkpt>
      <trkpt lat="47.84222" lon="-3.41082">
        <ele>51</ele>
        <time>2019-07-17T14:50:56Z</time>
      </trkpt>
      <trkpt lat="47.84228" lon="-3.41081">
        <ele>51</ele>
        <time>2019-07-17T14:50:57Z</time>
      </trkpt>
      <trkpt lat="47.84238" lon="-3.41076">
        <ele>51</ele>
        <time>2019-07-17T14:50:58Z</time>
      </trkpt>
      <trkpt lat="47.84238" lon="-3.41076">
        <ele>51</ele>
        <time>2019-07-17T14:50:59Z</time>
      </trkpt>
      <trkpt lat="47.84242" lon="-3.41074">
        <ele>51</ele>
        <time>2019-07-17T14:51:00Z</time>
      </trkpt>
      <trkpt lat="47.84252" lon="-3.41069">
        <ele>51</ele>
        <time>2019-07-17T14:51:01Z</time>
      </trkpt>
      <trkpt lat="47.84257" lon="-3.41066">
        <ele>51</ele>
        <time>2019-07-17T14:51:02Z</time>
      </trkpt>
      <trkpt lat="47.84257" lon="-3.41066">
        <ele>51</ele>
        <time>2019-07-17T14:51:03Z</time>
      </trkpt>
      <trkpt lat="47.84262" lon="-3.41063">
        <ele>52</ele>
        <time>2019-07-17T14:51:04Z</time>
      </trkpt>
      <trkpt lat="47.84267" lon="-3.4106">
        <ele>52</ele>
        <time>2019-07-17T14:51:05Z</time>
      </trkpt>
      <trkpt lat="47.84272" lon="-3.41057">
        <ele>52</ele>
        <time>2019-07-17T14:51:06Z</time>
      </trkpt>
      <trkpt lat="47.84277" lon="-3.41054">
        <ele>52</ele>
        <time>2019-07-17T14:51:07Z</time>
      </trkpt>
      <trkpt lat="47.84283" lon="-3.41052">
        <ele>52</ele>
        <time>2019-07-17T14:51:08Z</time>
      </trkpt>
      <trkpt lat="47.84294" lon="-3.41046">
        <ele>52</ele>
        <time>2019-07-17T14:51:09Z</time>
      </trkpt>
      <trkpt lat="47.843" lon="-3.41043">
        <ele>52</ele>
        <time>2019-07-17T14:51:10Z</time>
      </trkpt>
      <trkpt lat="47.843" lon="-3.41043">
        <ele>52</ele>
        <time>2019-07-17T14:51:11Z</time>
      </trkpt>
      <trkpt lat="47.84305" lon="-3.41041">
        <ele>52</ele>
        <time>2019-07-17T14:51:12Z</time>
      </trkpt>
      <trkpt lat="47.84318" lon="-3.41038">
        <ele>52</ele>
        <time>2019-07-17T14:51:13Z</time>
      </trkpt>
      <trkpt lat="47.84324" lon="-3.41036">
        <ele>52</ele>
        <time>2019-07-17T14:51:14Z</time>
      </trkpt>
      <trkpt lat="47.84324" lon="-3.41036">
        <ele>52</ele>
        <time>2019-07-17T14:51:15Z</time>
      </trkpt>
      <trkpt lat="47.84328" lon="-3.41036">
        <ele>51</ele>
        <time>2019-07-17T14:51:16Z</time>
      </trkpt>
      <trkpt lat="47.84341" lon="-3.41035">
        <ele>51</ele>
        <time>2019-07-17T14:51:17Z</time>
      </trkpt>
      <trkpt lat="47.84347" lon="-3.41035">
        <ele>51</ele>
        <time>2019-07-17T14:51:18Z</time>
      </trkpt>
      <trkpt lat="47.84353" lon="-3.41035">
        <ele>51</ele>
        <time>2019-07-17T14:51:19Z</time>
      </trkpt>
      <trkpt lat="47.84353" lon="-3.41035">
        <ele>51</ele>
        <time>2019-07-17T14:51:20Z</time>
      </trkpt>
      <trkpt lat="47.84359" lon="-3.41036">
        <ele>51</ele>
        <time>2019-07-17T14:51:21Z</time>
      </trkpt>
      <trkpt lat="47.8437" lon="-3.4104">
        <ele>51</ele>
        <time>2019-07-17T14:51:22Z</time>
      </trkpt>
      <trkpt lat="47.8437" lon="-3.4104">
        <ele>51</ele>
        <time>2019-07-17T14:51:23Z</time>
      </trkpt>
      <trkpt lat="47.84374" lon="-3.41044">
        <ele>51</ele>
        <time>2019-07-17T14:51:24Z</time>
      </trkpt>
      <trkpt lat="47.84379" lon="-3.41049">
        <ele>51</ele>
        <time>2019-07-17T14:51:25Z</time>
      </trkpt>
      <trkpt lat="47.84386" lon="-3.41062">
        <ele>51</ele>
        <time>2019-07-17T14:51:26Z</time>
      </trkpt>
      <trkpt lat="47.84386" lon="-3.41062">
        <ele>51</ele>
        <time>2019-07-17T14:51:27Z</time>
      </trkpt>
      <trkpt lat="47.84393" lon="-3.41077">
        <ele>51</ele>
        <time>2019-07-17T14:51:28Z</time>
      </trkpt>
      <trkpt lat="47.84393" lon="-3.41077">
        <ele>51</ele>
        <time>2019-07-17T14:51:29Z</time>
      </trkpt>
      <trkpt lat="47.84399" lon="-3.41092">
        <ele>50</ele>
        <time>2019-07-17T14:51:30Z</time>
      </trkpt>
      <trkpt lat="47.84402" lon="-3.411">
        <ele>50</ele>
        <time>2019-07-17T14:51:31Z</time>
      </trkpt>
      <trkpt lat="47.84404" lon="-3.41108">
        <ele>50</ele>
        <time>2019-07-17T14:51:32Z</time>
      </trkpt>
      <trkpt lat="47.84406" lon="-3.41116">
        <ele>50</ele>
        <time>2019-07-17T14:51:33Z</time>
      </trkpt>
      <trkpt lat="47.84409" lon="-3.41124">
        <ele>50</ele>
        <time>2019-07-17T14:51:34Z</time>
      </trkpt>
      <trkpt lat="47.84409" lon="-3.41124">
        <ele>50</ele>
        <time>2019-07-17T14:51:35Z</time>
      </trkpt>
      <trkpt lat="47.84413" lon="-3.41133">
        <ele>50</ele>
        <time>2019-07-17T14:51:36Z</time>
      </trkpt>
      <trkpt lat="47.84418" lon="-3.41149">
        <ele>49</ele>
        <time>2019-07-17T14:51:37Z</time>
      </trkpt>
      <trkpt lat="47.84418" lon="-3.41149">
        <ele>49</ele>
        <time>2019-07-17T14:51:38Z</time>
      </trkpt>
      <trkpt lat="47.84421" lon="-3.41157">
        <ele>49</ele>
        <time>2019-07-17T14:51:39Z</time>
      </trkpt>
      <trkpt lat="47.84427" lon="-3.41174">
        <ele>49</ele>
        <time>2019-07-17T14:51:40Z</time>
      </trkpt>
      <trkpt lat="47.84427" lon="-3.41174">
        <ele>49</ele>
        <time>2019-07-17T14:51:41Z</time>
      </trkpt>
      <trkpt lat="47.84432" lon="-3.41191">
        <ele>49</ele>
        <time>2019-07-17T14:51:42Z</time>
      </trkpt>
      <trkpt lat="47.84432" lon="-3.41191">
        <ele>49</ele>
        <time>2019-07-17T14:51:43Z</time>
      </trkpt>
      <trkpt lat="47.84438" lon="-3.41209">
        <ele>49</ele>
        <time>2019-07-17T14:51:44Z</time>
      </trkpt>
      <trkpt lat="47.84441" lon="-3.41218">
        <ele>49</ele>
        <time>2019-07-17T14:51:45Z</time>
      </trkpt>
      <trkpt lat="47.84441" lon="-3.41218">
        <ele>49</ele>
        <time>2019-07-17T14:51:46Z</time>
      </trkpt>
      <trkpt lat="47.84444" lon="-3.41227">
        <ele>49</ele>
        <time>2019-07-17T14:51:47Z</time>
      </trkpt>
      <trkpt lat="47.84447" lon="-3.41237">
        <ele>48</ele>
        <time>2019-07-17T14:51:48Z</time>
      </trkpt>
      <trkpt lat="47.84449" lon="-3.41246">
        <ele>48</ele>
        <time>2019-07-17T14:51:49Z</time>
      </trkpt>
      <trkpt lat="47.84454" lon="-3.41265">
        <ele>48</ele>
        <time>2019-07-17T14:51:50Z</time>
      </trkpt>
      <trkpt lat="47.84454" lon="-3.41265">
        <ele>48</ele>
        <time>2019-07-17T14:51:51Z</time>
      </trkpt>
      <trkpt lat="47.84456" lon="-3.41274">
        <ele>48</ele>
        <time>2019-07-17T14:51:52Z</time>
      </trkpt>
      <trkpt lat="47.84459" lon="-3.41284">
        <ele>47</ele>
        <time>2019-07-17T14:51:53Z</time>
      </trkpt>
      <trkpt lat="47.84461" lon="-3.41294">
        <ele>47</ele>
        <time>2019-07-17T14:51:54Z</time>
      </trkpt>
      <trkpt lat="47.84465" lon="-3.41313">
        <ele>47</ele>
        <time>2019-07-17T14:51:55Z</time>
      </trkpt>
      <trkpt lat="47.84467" lon="-3.41323">
        <ele>47</ele>
        <time>2019-07-17T14:51:56Z</time>
      </trkpt>
      <trkpt lat="47.84467" lon="-3.41323">
        <ele>47</ele>
        <time>2019-07-17T14:51:57Z</time>
      </trkpt>
      <trkpt lat="47.8447" lon="-3.41343">
        <ele>47</ele>
        <time>2019-07-17T14:51:58Z</time>
      </trkpt>
      <trkpt lat="47.8447" lon="-3.41343">
        <ele>47</ele>
        <time>2019-07-17T14:51:59Z</time>
      </trkpt>
      <trkpt lat="47.84473" lon="-3.41363">
        <ele>47</ele>
        <time>2019-07-17T14:52:00Z</time>
      </trkpt>
      <trkpt lat="47.84473" lon="-3.41363">
        <ele>47</ele>
        <time>2019-07-17T14:52:01Z</time>
      </trkpt>
      <trkpt lat="47.84475" lon="-3.41384">
        <ele>47</ele>
        <time>2019-07-17T14:52:02Z</time>
      </trkpt>
      <trkpt lat="47.84476" lon="-3.41394">
        <ele>47</ele>
        <time>2019-07-17T14:52:03Z</time>
      </trkpt>
      <trkpt lat="47.84476" lon="-3.41394">
        <ele>47</ele>
        <time>2019-07-17T14:52:04Z</time>
      </trkpt>
      <trkpt lat="47.84477" lon="-3.41413">
        <ele>47</ele>
        <time>2019-07-17T14:52:05Z</time>
      </trkpt>
      <trkpt lat="47.84477" lon="-3.41413">
        <ele>47</ele>
        <time>2019-07-17T14:52:06Z</time>
      </trkpt>
      <trkpt lat="47.84478" lon="-3.41423">
        <ele>47</ele>
        <time>2019-07-17T14:52:07Z</time>
      </trkpt>
      <trkpt lat="47.84479" lon="-3.41441">
        <ele>47</ele>
        <time>2019-07-17T14:52:08Z</time>
      </trkpt>
      <trkpt lat="47.8448" lon="-3.4145">
        <ele>47</ele>
        <time>2019-07-17T14:52:09Z</time>
      </trkpt>
      <trkpt lat="47.8448" lon="-3.4145">
        <ele>47</ele>
        <time>2019-07-17T14:52:10Z</time>
      </trkpt>
      <trkpt lat="47.8448" lon="-3.4146">
        <ele>47</ele>
        <time>2019-07-17T14:52:11Z</time>
      </trkpt>
      <trkpt lat="47.84481" lon="-3.41469">
        <ele>47</ele>
        <time>2019-07-17T14:52:12Z</time>
      </trkpt>
      <trkpt lat="47.84482" lon="-3.41479">
        <ele>47</ele>
        <time>2019-07-17T14:52:13Z</time>
      </trkpt>
      <trkpt lat="47.84483" lon="-3.41489">
        <ele>46</ele>
        <time>2019-07-17T14:52:14Z</time>
      </trkpt>
      <trkpt lat="47.84484" lon="-3.41499">
        <ele>46</ele>
        <time>2019-07-17T14:52:15Z</time>
      </trkpt>
      <trkpt lat="47.84485" lon="-3.41509">
        <ele>46</ele>
        <time>2019-07-17T14:52:16Z</time>
      </trkpt>
      <trkpt lat="47.84486" lon="-3.41518">
        <ele>46</ele>
        <time>2019-07-17T14:52:17Z</time>
      </trkpt>
      <trkpt lat="47.84489" lon="-3.41528">
        <ele>46</ele>
        <time>2019-07-17T14:52:18Z</time>
      </trkpt>
      <trkpt lat="47.84492" lon="-3.41537">
        <ele>46</ele>
        <time>2019-07-17T14:52:19Z</time>
      </trkpt>
      <trkpt lat="47.84495" lon="-3.41546">
        <ele>46</ele>
        <time>2019-07-17T14:52:20Z</time>
      </trkpt>
      <trkpt lat="47.84498" lon="-3.41555">
        <ele>46</ele>
        <time>2019-07-17T14:52:21Z</time>
      </trkpt>
      <trkpt lat="47.84504" lon="-3.41573">
        <ele>46</ele>
        <time>2019-07-17T14:52:22Z</time>
      </trkpt>
      <trkpt lat="47.84504" lon="-3.41573">
        <ele>46</ele>
        <time>2019-07-17T14:52:23Z</time>
      </trkpt>
      <trkpt lat="47.84507" lon="-3.41582">
        <ele>46</ele>
        <time>2019-07-17T14:52:24Z</time>
      </trkpt>
      <trkpt lat="47.84511" lon="-3.41591">
        <ele>45</ele>
        <time>2019-07-17T14:52:25Z</time>
      </trkpt>
      <trkpt lat="47.84514" lon="-3.416">
        <ele>45</ele>
        <time>2019-07-17T14:52:26Z</time>
      </trkpt>
      <trkpt lat="47.84517" lon="-3.41609">
        <ele>45</ele>
        <time>2019-07-17T14:52:27Z</time>
      </trkpt>
      <trkpt lat="47.8452" lon="-3.41618">
        <ele>45</ele>
        <time>2019-07-17T14:52:28Z</time>
      </trkpt>
      <trkpt lat="47.84524" lon="-3.41627">
        <ele>45</ele>
        <time>2019-07-17T14:52:29Z</time>
      </trkpt>
      <trkpt lat="47.84527" lon="-3.41636">
        <ele>45</ele>
        <time>2019-07-17T14:52:30Z</time>
      </trkpt>
      <trkpt lat="47.84531" lon="-3.41646">
        <ele>45</ele>
        <time>2019-07-17T14:52:31Z</time>
      </trkpt>
      <trkpt lat="47.84534" lon="-3.41655">
        <ele>45</ele>
        <time>2019-07-17T14:52:32Z</time>
      </trkpt>
      <trkpt lat="47.84537" lon="-3.41664">
        <ele>45</ele>
        <time>2019-07-17T14:52:33Z</time>
      </trkpt>
      <trkpt lat="47.84541" lon="-3.41674">
        <ele>45</ele>
        <time>2019-07-17T14:52:34Z</time>
      </trkpt>
      <trkpt lat="47.84544" lon="-3.41683">
        <ele>45</ele>
        <time>2019-07-17T14:52:35Z</time>
      </trkpt>
      <trkpt lat="47.84547" lon="-3.41692">
        <ele>45</ele>
        <time>2019-07-17T14:52:36Z</time>
      </trkpt>
      <trkpt lat="47.84551" lon="-3.41701">
        <ele>45</ele>
        <time>2019-07-17T14:52:37Z</time>
      </trkpt>
      <trkpt lat="47.84554" lon="-3.4171">
        <ele>45</ele>
        <time>2019-07-17T14:52:38Z</time>
      </trkpt>
      <trkpt lat="47.84557" lon="-3.41719">
        <ele>45</ele>
        <time>2019-07-17T14:52:39Z</time>
      </trkpt>
      <trkpt lat="47.84561" lon="-3.41728">
        <ele>45</ele>
        <time>2019-07-17T14:52:40Z</time>
      </trkpt>
      <trkpt lat="47.84564" lon="-3.41737">
        <ele>44</ele>
        <time>2019-07-17T14:52:41Z</time>
      </trkpt>
      <trkpt lat="47.84567" lon="-3.41746">
        <ele>44</ele>
        <time>2019-07-17T14:52:42Z</time>
      </trkpt>
      <trkpt lat="47.84569" lon="-3.41756">
        <ele>44</ele>
        <time>2019-07-17T14:52:43Z</time>
      </trkpt>
      <trkpt lat="47.84572" lon="-3.41765">
        <ele>44</ele>
        <time>2019-07-17T14:52:44Z</time>
      </trkpt>
      <trkpt lat="47.84574" lon="-3.41775">
        <ele>44</ele>
        <time>2019-07-17T14:52:45Z</time>
      </trkpt>
      <trkpt lat="47.84577" lon="-3.41785">
        <ele>44</ele>
        <time>2019-07-17T14:52:46Z</time>
      </trkpt>
      <trkpt lat="47.84579" lon="-3.41795">
        <ele>44</ele>
        <time>2019-07-17T14:52:47Z</time>
      </trkpt>
      <trkpt lat="47.84581" lon="-3.41805">
        <ele>44</ele>
        <time>2019-07-17T14:52:48Z</time>
      </trkpt>
      <trkpt lat="47.84584" lon="-3.41815">
        <ele>43</ele>
        <time>2019-07-17T14:52:49Z</time>
      </trkpt>
      <trkpt lat="47.84586" lon="-3.41826">
        <ele>43</ele>
        <time>2019-07-17T14:52:50Z</time>
      </trkpt>
      <trkpt lat="47.84589" lon="-3.41837">
        <ele>43</ele>
        <time>2019-07-17T14:52:51Z</time>
      </trkpt>
      <trkpt lat="47.84591" lon="-3.41848">
        <ele>43</ele>
        <time>2019-07-17T14:52:52Z</time>
      </trkpt>
      <trkpt lat="47.84594" lon="-3.41859">
        <ele>43</ele>
        <time>2019-07-17T14:52:53Z</time>
      </trkpt>
      <trkpt lat="47.84597" lon="-3.4187">
        <ele>42</ele>
        <time>2019-07-17T14:52:54Z</time>
      </trkpt>
      <trkpt lat="47.846" lon="-3.41881">
        <ele>42</ele>
        <time>2019-07-17T14:52:55Z</time>
      </trkpt>
      <trkpt lat="47.84602" lon="-3.41893">
        <ele>42</ele>
        <time>2019-07-17T14:52:56Z</time>
      </trkpt>
      <trkpt lat="47.84605" lon="-3.41904">
        <ele>41</ele>
        <time>2019-07-17T14:52:57Z</time>
      </trkpt>
      <trkpt lat="47.84607" lon="-3.41916">
        <ele>41</ele>
        <time>2019-07-17T14:52:58Z</time>
      </trkpt>
      <trkpt lat="47.8461" lon="-3.41927">
        <ele>41</ele>
        <time>2019-07-17T14:52:59Z</time>
      </trkpt>
      <trkpt lat="47.84612" lon="-3.41939">
        <ele>40</ele>
        <time>2019-07-17T14:53:00Z</time>
      </trkpt>
      <trkpt lat="47.84613" lon="-3.4195">
        <ele>40</ele>
        <time>2019-07-17T14:53:01Z</time>
      </trkpt>
      <trkpt lat="47.84614" lon="-3.41962">
        <ele>40</ele>
        <time>2019-07-17T14:53:02Z</time>
      </trkpt>
      <trkpt lat="47.84615" lon="-3.41974">
        <ele>39</ele>
        <time>2019-07-17T14:53:03Z</time>
      </trkpt>
      <trkpt lat="47.84615" lon="-3.41985">
        <ele>39</ele>
        <time>2019-07-17T14:53:04Z</time>
      </trkpt>
      <trkpt lat="47.84613" lon="-3.41997">
        <ele>39</ele>
        <time>2019-07-17T14:53:05Z</time>
      </trkpt>
      <trkpt lat="47.84612" lon="-3.4201">
        <ele>39</ele>
        <time>2019-07-17T14:53:06Z</time>
      </trkpt>
      <trkpt lat="47.8461" lon="-3.42021">
        <ele>38</ele>
        <time>2019-07-17T14:53:07Z</time>
      </trkpt>
      <trkpt lat="47.84609" lon="-3.42033">
        <ele>38</ele>
        <time>2019-07-17T14:53:08Z</time>
      </trkpt>
      <trkpt lat="47.84606" lon="-3.42059">
        <ele>38</ele>
        <time>2019-07-17T14:53:09Z</time>
      </trkpt>
      <trkpt lat="47.84606" lon="-3.42059">
        <ele>38</ele>
        <time>2019-07-17T14:53:10Z</time>
      </trkpt>
      <trkpt lat="47.84604" lon="-3.42071">
        <ele>38</ele>
        <time>2019-07-17T14:53:11Z</time>
      </trkpt>
      <trkpt lat="47.84603" lon="-3.42084">
        <ele>38</ele>
        <time>2019-07-17T14:53:12Z</time>
      </trkpt>
      <trkpt lat="47.84601" lon="-3.42097">
        <ele>37</ele>
        <time>2019-07-17T14:53:13Z</time>
      </trkpt>
      <trkpt lat="47.84599" lon="-3.4211">
        <ele>37</ele>
        <time>2019-07-17T14:53:14Z</time>
      </trkpt>
      <trkpt lat="47.84596" lon="-3.42123">
        <ele>37</ele>
        <time>2019-07-17T14:53:15Z</time>
      </trkpt>
      <trkpt lat="47.84592" lon="-3.42134">
        <ele>37</ele>
        <time>2019-07-17T14:53:16Z</time>
      </trkpt>
      <trkpt lat="47.84588" lon="-3.42145">
        <ele>37</ele>
        <time>2019-07-17T14:53:17Z</time>
      </trkpt>
      <trkpt lat="47.84583" lon="-3.42154">
        <ele>37</ele>
        <time>2019-07-17T14:53:18Z</time>
      </trkpt>
      <trkpt lat="47.84577" lon="-3.42161">
        <ele>37</ele>
        <time>2019-07-17T14:53:19Z</time>
      </trkpt>
      <trkpt lat="47.84571" lon="-3.42168">
        <ele>37</ele>
        <time>2019-07-17T14:53:20Z</time>
      </trkpt>
      <trkpt lat="47.84565" lon="-3.42175">
        <ele>37</ele>
        <time>2019-07-17T14:53:21Z</time>
      </trkpt>
      <trkpt lat="47.84559" lon="-3.42182">
        <ele>37</ele>
        <time>2019-07-17T14:53:22Z</time>
      </trkpt>
      <trkpt lat="47.84547" lon="-3.42196">
        <ele>37</ele>
        <time>2019-07-17T14:53:23Z</time>
      </trkpt>
      <trkpt lat="47.84547" lon="-3.42196">
        <ele>37</ele>
        <time>2019-07-17T14:53:24Z</time>
      </trkpt>
      <trkpt lat="47.84541" lon="-3.42204">
        <ele>37</ele>
        <time>2019-07-17T14:53:25Z</time>
      </trkpt>
      <trkpt lat="47.84536" lon="-3.42213">
        <ele>37</ele>
        <time>2019-07-17T14:53:26Z</time>
      </trkpt>
      <trkpt lat="47.8453" lon="-3.42222">
        <ele>37</ele>
        <time>2019-07-17T14:53:27Z</time>
      </trkpt>
      <trkpt lat="47.84525" lon="-3.42231">
        <ele>37</ele>
        <time>2019-07-17T14:53:28Z</time>
      </trkpt>
      <trkpt lat="47.84519" lon="-3.4224">
        <ele>37</ele>
        <time>2019-07-17T14:53:29Z</time>
      </trkpt>
      <trkpt lat="47.84514" lon="-3.42249">
        <ele>37</ele>
        <time>2019-07-17T14:53:30Z</time>
      </trkpt>
      <trkpt lat="47.84508" lon="-3.42258">
        <ele>37</ele>
        <time>2019-07-17T14:53:31Z</time>
      </trkpt>
      <trkpt lat="47.84503" lon="-3.42267">
        <ele>37</ele>
        <time>2019-07-17T14:53:32Z</time>
      </trkpt>
      <trkpt lat="47.84498" lon="-3.42276">
        <ele>37</ele>
        <time>2019-07-17T14:53:33Z</time>
      </trkpt>
      <trkpt lat="47.84488" lon="-3.42295">
        <ele>37</ele>
        <time>2019-07-17T14:53:34Z</time>
      </trkpt>
      <trkpt lat="47.84488" lon="-3.42295">
        <ele>37</ele>
        <time>2019-07-17T14:53:35Z</time>
      </trkpt>
      <trkpt lat="47.84482" lon="-3.42305">
        <ele>37</ele>
        <time>2019-07-17T14:53:36Z</time>
      </trkpt>
      <trkpt lat="47.84476" lon="-3.42314">
        <ele>37</ele>
        <time>2019-07-17T14:53:37Z</time>
      </trkpt>
      <trkpt lat="47.84471" lon="-3.42323">
        <ele>37</ele>
        <time>2019-07-17T14:53:38Z</time>
      </trkpt>
      <trkpt lat="47.84465" lon="-3.42333">
        <ele>37</ele>
        <time>2019-07-17T14:53:39Z</time>
      </trkpt>
      <trkpt lat="47.84453" lon="-3.42352">
        <ele>36</ele>
        <time>2019-07-17T14:53:40Z</time>
      </trkpt>
      <trkpt lat="47.84453" lon="-3.42352">
        <ele>36</ele>
        <time>2019-07-17T14:53:41Z</time>
      </trkpt>
      <trkpt lat="47.84448" lon="-3.42362">
        <ele>36</ele>
        <time>2019-07-17T14:53:42Z</time>
      </trkpt>
      <trkpt lat="47.84441" lon="-3.42372">
        <ele>36</ele>
        <time>2019-07-17T14:53:43Z</time>
      </trkpt>
      <trkpt lat="47.84436" lon="-3.42382">
        <ele>36</ele>
        <time>2019-07-17T14:53:44Z</time>
      </trkpt>
      <trkpt lat="47.8443" lon="-3.42392">
        <ele>37</ele>
        <time>2019-07-17T14:53:45Z</time>
      </trkpt>
      <trkpt lat="47.84426" lon="-3.42402">
        <ele>37</ele>
        <time>2019-07-17T14:53:46Z</time>
      </trkpt>
      <trkpt lat="47.84422" lon="-3.42411">
        <ele>37</ele>
        <time>2019-07-17T14:53:47Z</time>
      </trkpt>
      <trkpt lat="47.84418" lon="-3.4242">
        <ele>37</ele>
        <time>2019-07-17T14:53:48Z</time>
      </trkpt>
      <trkpt lat="47.84415" lon="-3.42427">
        <ele>37</ele>
        <time>2019-07-17T14:53:49Z</time>
      </trkpt>
      <trkpt lat="47.84412" lon="-3.42435">
        <ele>37</ele>
        <time>2019-07-17T14:53:50Z</time>
      </trkpt>
      <trkpt lat="47.8441" lon="-3.42442">
        <ele>37</ele>
        <time>2019-07-17T14:53:51Z</time>
      </trkpt>
      <trkpt lat="47.84408" lon="-3.42449">
        <ele>38</ele>
        <time>2019-07-17T14:53:52Z</time>
      </trkpt>
      <trkpt lat="47.84406" lon="-3.42457">
        <ele>38</ele>
        <time>2019-07-17T14:53:53Z</time>
      </trkpt>
      <trkpt lat="47.84405" lon="-3.42465">
        <ele>38</ele>
        <time>2019-07-17T14:53:54Z</time>
      </trkpt>
      <trkpt lat="47.84403" lon="-3.42473">
        <ele>38</ele>
        <time>2019-07-17T14:53:55Z</time>
      </trkpt>
      <trkpt lat="47.84403" lon="-3.42482">
        <ele>38</ele>
        <time>2019-07-17T14:53:56Z</time>
      </trkpt>
      <trkpt lat="47.84402" lon="-3.42491">
        <ele>38</ele>
        <time>2019-07-17T14:53:57Z</time>
      </trkpt>
      <trkpt lat="47.84402" lon="-3.425">
        <ele>38</ele>
        <time>2019-07-17T14:53:58Z</time>
      </trkpt>
      <trkpt lat="47.84402" lon="-3.42509">
        <ele>39</ele>
        <time>2019-07-17T14:53:59Z</time>
      </trkpt>
      <trkpt lat="47.84402" lon="-3.42518">
        <ele>39</ele>
        <time>2019-07-17T14:54:00Z</time>
      </trkpt>
      <trkpt lat="47.84402" lon="-3.42528">
        <ele>39</ele>
        <time>2019-07-17T14:54:01Z</time>
      </trkpt>
      <trkpt lat="47.84403" lon="-3.42537">
        <ele>39</ele>
        <time>2019-07-17T14:54:02Z</time>
      </trkpt>
      <trkpt lat="47.84404" lon="-3.42546">
        <ele>39</ele>
        <time>2019-07-17T14:54:03Z</time>
      </trkpt>
      <trkpt lat="47.84405" lon="-3.42556">
        <ele>39</ele>
        <time>2019-07-17T14:54:04Z</time>
      </trkpt>
      <trkpt lat="47.84405" lon="-3.42566">
        <ele>39</ele>
        <time>2019-07-17T14:54:05Z</time>
      </trkpt>
      <trkpt lat="47.84406" lon="-3.42575">
        <ele>40</ele>
        <time>2019-07-17T14:54:06Z</time>
      </trkpt>
      <trkpt lat="47.84406" lon="-3.42585">
        <ele>40</ele>
        <time>2019-07-17T14:54:07Z</time>
      </trkpt>
      <trkpt lat="47.84407" lon="-3.42595">
        <ele>40</ele>
        <time>2019-07-17T14:54:08Z</time>
      </trkpt>
      <trkpt lat="47.84408" lon="-3.42605">
        <ele>40</ele>
        <time>2019-07-17T14:54:09Z</time>
      </trkpt>
      <trkpt lat="47.84408" lon="-3.42615">
        <ele>40</ele>
        <time>2019-07-17T14:54:10Z</time>
      </trkpt>
      <trkpt lat="47.84409" lon="-3.42625">
        <ele>40</ele>
        <time>2019-07-17T14:54:11Z</time>
      </trkpt>
      <trkpt lat="47.8441" lon="-3.42635">
        <ele>40</ele>
        <time>2019-07-17T14:54:12Z</time>
      </trkpt>
      <trkpt lat="47.84411" lon="-3.42645">
        <ele>40</ele>
        <time>2019-07-17T14:54:13Z</time>
      </trkpt>
      <trkpt lat="47.84411" lon="-3.42655">
        <ele>40</ele>
        <time>2019-07-17T14:54:14Z</time>
      </trkpt>
      <trkpt lat="47.84412" lon="-3.42665">
        <ele>40</ele>
        <time>2019-07-17T14:54:15Z</time>
      </trkpt>
      <trkpt lat="47.84412" lon="-3.42676">
        <ele>39</ele>
        <time>2019-07-17T14:54:16Z</time>
      </trkpt>
      <trkpt lat="47.84412" lon="-3.42686">
        <ele>39</ele>
        <time>2019-07-17T14:54:17Z</time>
      </trkpt>
      <trkpt lat="47.84413" lon="-3.42696">
        <ele>39</ele>
        <time>2019-07-17T14:54:18Z</time>
      </trkpt>
      <trkpt lat="47.84413" lon="-3.42707">
        <ele>39</ele>
        <time>2019-07-17T14:54:19Z</time>
      </trkpt>
      <trkpt lat="47.84412" lon="-3.42717">
        <ele>39</ele>
        <time>2019-07-17T14:54:20Z</time>
      </trkpt>
      <trkpt lat="47.84412" lon="-3.42729">
        <ele>39</ele>
        <time>2019-07-17T14:54:21Z</time>
      </trkpt>
      <trkpt lat="47.84412" lon="-3.4274">
        <ele>38</ele>
        <time>2019-07-17T14:54:22Z</time>
      </trkpt>
      <trkpt lat="47.84412" lon="-3.42751">
        <ele>38</ele>
        <time>2019-07-17T14:54:23Z</time>
      </trkpt>
      <trkpt lat="47.84411" lon="-3.42762">
        <ele>38</ele>
        <time>2019-07-17T14:54:24Z</time>
      </trkpt>
      <trkpt lat="47.84411" lon="-3.42774">
        <ele>37</ele>
        <time>2019-07-17T14:54:25Z</time>
      </trkpt>
      <trkpt lat="47.8441" lon="-3.42786">
        <ele>37</ele>
        <time>2019-07-17T14:54:26Z</time>
      </trkpt>
      <trkpt lat="47.8441" lon="-3.42797">
        <ele>37</ele>
        <time>2019-07-17T14:54:27Z</time>
      </trkpt>
      <trkpt lat="47.8441" lon="-3.42809">
        <ele>36</ele>
        <time>2019-07-17T14:54:28Z</time>
      </trkpt>
      <trkpt lat="47.84409" lon="-3.42821">
        <ele>36</ele>
        <time>2019-07-17T14:54:29Z</time>
      </trkpt>
      <trkpt lat="47.84409" lon="-3.42832">
        <ele>36</ele>
        <time>2019-07-17T14:54:30Z</time>
      </trkpt>
      <trkpt lat="47.84408" lon="-3.42844">
        <ele>35</ele>
        <time>2019-07-17T14:54:31Z</time>
      </trkpt>
      <trkpt lat="47.84407" lon="-3.42856">
        <ele>35</ele>
        <time>2019-07-17T14:54:32Z</time>
      </trkpt>
      <trkpt lat="47.84406" lon="-3.42869">
        <ele>35</ele>
        <time>2019-07-17T14:54:33Z</time>
      </trkpt>
      <trkpt lat="47.84406" lon="-3.42881">
        <ele>35</ele>
        <time>2019-07-17T14:54:34Z</time>
      </trkpt>
      <trkpt lat="47.84406" lon="-3.42894">
        <ele>34</ele>
        <time>2019-07-17T14:54:35Z</time>
      </trkpt>
      <trkpt lat="47.84405" lon="-3.42907">
        <ele>34</ele>
        <time>2019-07-17T14:54:36Z</time>
      </trkpt>
      <trkpt lat="47.84405" lon="-3.4292">
        <ele>34</ele>
        <time>2019-07-17T14:54:37Z</time>
      </trkpt>
      <trkpt lat="47.84404" lon="-3.42933">
        <ele>33</ele>
        <time>2019-07-17T14:54:38Z</time>
      </trkpt>
      <trkpt lat="47.84403" lon="-3.42946">
        <ele>33</ele>
        <time>2019-07-17T14:54:39Z</time>
      </trkpt>
      <trkpt lat="47.84403" lon="-3.42959">
        <ele>33</ele>
        <time>2019-07-17T14:54:40Z</time>
      </trkpt>
      <trkpt lat="47.84403" lon="-3.42973">
        <ele>32</ele>
        <time>2019-07-17T14:54:41Z</time>
      </trkpt>
      <trkpt lat="47.84402" lon="-3.42987">
        <ele>32</ele>
        <time>2019-07-17T14:54:42Z</time>
      </trkpt>
      <trkpt lat="47.84402" lon="-3.43001">
        <ele>31</ele>
        <time>2019-07-17T14:54:43Z</time>
      </trkpt>
      <trkpt lat="47.84403" lon="-3.43015">
        <ele>31</ele>
        <time>2019-07-17T14:54:44Z</time>
      </trkpt>
      <trkpt lat="47.84403" lon="-3.43029">
        <ele>31</ele>
        <time>2019-07-17T14:54:45Z</time>
      </trkpt>
      <trkpt lat="47.84405" lon="-3.43043">
        <ele>30</ele>
        <time>2019-07-17T14:54:46Z</time>
      </trkpt>
      <trkpt lat="47.84407" lon="-3.43056">
        <ele>30</ele>
        <time>2019-07-17T14:54:47Z</time>
      </trkpt>
      <trkpt lat="47.84409" lon="-3.43068">
        <ele>30</ele>
        <time>2019-07-17T14:54:48Z</time>
      </trkpt>
      <trkpt lat="47.84411" lon="-3.4308">
        <ele>30</ele>
        <time>2019-07-17T14:54:49Z</time>
      </trkpt>
      <trkpt lat="47.84413" lon="-3.43091">
        <ele>30</ele>
        <time>2019-07-17T14:54:50Z</time>
      </trkpt>
      <trkpt lat="47.84415" lon="-3.43101">
        <ele>30</ele>
        <time>2019-07-17T14:54:51Z</time>
      </trkpt>
      <trkpt lat="47.84417" lon="-3.43112">
        <ele>31</ele>
        <time>2019-07-17T14:54:52Z</time>
      </trkpt>
      <trkpt lat="47.84419" lon="-3.43122">
        <ele>31</ele>
        <time>2019-07-17T14:54:53Z</time>
      </trkpt>
      <trkpt lat="47.84421" lon="-3.43132">
        <ele>31</ele>
        <time>2019-07-17T14:54:54Z</time>
      </trkpt>
      <trkpt lat="47.84423" lon="-3.43142">
        <ele>31</ele>
        <time>2019-07-17T14:54:55Z</time>
      </trkpt>
      <trkpt lat="47.84425" lon="-3.43152">
        <ele>31</ele>
        <time>2019-07-17T14:54:56Z</time>
      </trkpt>
      <trkpt lat="47.84427" lon="-3.43161">
        <ele>31</ele>
        <time>2019-07-17T14:54:57Z</time>
      </trkpt>
      <trkpt lat="47.8443" lon="-3.4318">
        <ele>31</ele>
        <time>2019-07-17T14:54:58Z</time>
      </trkpt>
      <trkpt lat="47.8443" lon="-3.4318">
        <ele>31</ele>
        <time>2019-07-17T14:54:59Z</time>
      </trkpt>
      <trkpt lat="47.84432" lon="-3.43189">
        <ele>31</ele>
        <time>2019-07-17T14:55:00Z</time>
      </trkpt>
      <trkpt lat="47.84434" lon="-3.43199">
        <ele>31</ele>
        <time>2019-07-17T14:55:01Z</time>
      </trkpt>
      <trkpt lat="47.84436" lon="-3.43208">
        <ele>31</ele>
        <time>2019-07-17T14:55:02Z</time>
      </trkpt>
      <trkpt lat="47.84437" lon="-3.43217">
        <ele>31</ele>
        <time>2019-07-17T14:55:03Z</time>
      </trkpt>
      <trkpt lat="47.84439" lon="-3.43227">
        <ele>31</ele>
        <time>2019-07-17T14:55:04Z</time>
      </trkpt>
      <trkpt lat="47.84441" lon="-3.43236">
        <ele>32</ele>
        <time>2019-07-17T14:55:05Z</time>
      </trkpt>
      <trkpt lat="47.84442" lon="-3.43245">
        <ele>32</ele>
        <time>2019-07-17T14:55:06Z</time>
      </trkpt>
      <trkpt lat="47.84444" lon="-3.43254">
        <ele>32</ele>
        <time>2019-07-17T14:55:07Z</time>
      </trkpt>
      <trkpt lat="47.84446" lon="-3.43264">
        <ele>32</ele>
        <time>2019-07-17T14:55:08Z</time>
      </trkpt>
      <trkpt lat="47.84447" lon="-3.43273">
        <ele>32</ele>
        <time>2019-07-17T14:55:09Z</time>
      </trkpt>
      <trkpt lat="47.84448" lon="-3.43283">
        <ele>32</ele>
        <time>2019-07-17T14:55:10Z</time>
      </trkpt>
      <trkpt lat="47.8445" lon="-3.43292">
        <ele>32</ele>
        <time>2019-07-17T14:55:11Z</time>
      </trkpt>
      <trkpt lat="47.84451" lon="-3.43301">
        <ele>32</ele>
        <time>2019-07-17T14:55:12Z</time>
      </trkpt>
      <trkpt lat="47.84452" lon="-3.43311">
        <ele>32</ele>
        <time>2019-07-17T14:55:13Z</time>
      </trkpt>
      <trkpt lat="47.84453" lon="-3.4332">
        <ele>32</ele>
        <time>2019-07-17T14:55:14Z</time>
      </trkpt>
      <trkpt lat="47.84454" lon="-3.43329">
        <ele>32</ele>
        <time>2019-07-17T14:55:15Z</time>
      </trkpt>
      <trkpt lat="47.84454" lon="-3.43339">
        <ele>32</ele>
        <time>2019-07-17T14:55:16Z</time>
      </trkpt>
      <trkpt lat="47.84455" lon="-3.43348">
        <ele>32</ele>
        <time>2019-07-17T14:55:17Z</time>
      </trkpt>
      <trkpt lat="47.84455" lon="-3.43357">
        <ele>32</ele>
        <time>2019-07-17T14:55:18Z</time>
      </trkpt>
      <trkpt lat="47.84455" lon="-3.43367">
        <ele>32</ele>
        <time>2019-07-17T14:55:19Z</time>
      </trkpt>
      <trkpt lat="47.84455" lon="-3.43376">
        <ele>32</ele>
        <time>2019-07-17T14:55:20Z</time>
      </trkpt>
      <trkpt lat="47.84455" lon="-3.43385">
        <ele>32</ele>
        <time>2019-07-17T14:55:21Z</time>
      </trkpt>
      <trkpt lat="47.84454" lon="-3.43394">
        <ele>32</ele>
        <time>2019-07-17T14:55:22Z</time>
      </trkpt>
      <trkpt lat="47.84452" lon="-3.43403">
        <ele>32</ele>
        <time>2019-07-17T14:55:23Z</time>
      </trkpt>
      <trkpt lat="47.84451" lon="-3.43412">
        <ele>32</ele>
        <time>2019-07-17T14:55:24Z</time>
      </trkpt>
      <trkpt lat="47.84449" lon="-3.43421">
        <ele>32</ele>
        <time>2019-07-17T14:55:25Z</time>
      </trkpt>
      <trkpt lat="47.84447" lon="-3.4343">
        <ele>32</ele>
        <time>2019-07-17T14:55:26Z</time>
      </trkpt>
      <trkpt lat="47.84445" lon="-3.43438">
        <ele>32</ele>
        <time>2019-07-17T14:55:27Z</time>
      </trkpt>
      <trkpt lat="47.84442" lon="-3.43447">
        <ele>33</ele>
        <time>2019-07-17T14:55:28Z</time>
      </trkpt>
      <trkpt lat="47.84439" lon="-3.43455">
        <ele>33</ele>
        <time>2019-07-17T14:55:29Z</time>
      </trkpt>
      <trkpt lat="47.84437" lon="-3.43463">
        <ele>33</ele>
        <time>2019-07-17T14:55:30Z</time>
      </trkpt>
      <trkpt lat="47.84434" lon="-3.43471">
        <ele>33</ele>
        <time>2019-07-17T14:55:31Z</time>
      </trkpt>
      <trkpt lat="47.84431" lon="-3.43479">
        <ele>33</ele>
        <time>2019-07-17T14:55:32Z</time>
      </trkpt>
      <trkpt lat="47.84428" lon="-3.43487">
        <ele>33</ele>
        <time>2019-07-17T14:55:33Z</time>
      </trkpt>
      <trkpt lat="47.84425" lon="-3.43495">
        <ele>33</ele>
        <time>2019-07-17T14:55:34Z</time>
      </trkpt>
      <trkpt lat="47.84422" lon="-3.43501">
        <ele>33</ele>
        <time>2019-07-17T14:55:35Z</time>
      </trkpt>
      <trkpt lat="47.84419" lon="-3.43508">
        <ele>33</ele>
        <time>2019-07-17T14:55:36Z</time>
      </trkpt>
      <trkpt lat="47.84415" lon="-3.43514">
        <ele>33</ele>
        <time>2019-07-17T14:55:37Z</time>
      </trkpt>
      <trkpt lat="47.84412" lon="-3.4352">
        <ele>33</ele>
        <time>2019-07-17T14:55:38Z</time>
      </trkpt>
      <trkpt lat="47.84407" lon="-3.43527">
        <ele>33</ele>
        <time>2019-07-17T14:55:39Z</time>
      </trkpt>
      <trkpt lat="47.84403" lon="-3.43533">
        <ele>33</ele>
        <time>2019-07-17T14:55:40Z</time>
      </trkpt>
      <trkpt lat="47.84398" lon="-3.43538">
        <ele>33</ele>
        <time>2019-07-17T14:55:41Z</time>
      </trkpt>
      <trkpt lat="47.84393" lon="-3.43543">
        <ele>33</ele>
        <time>2019-07-17T14:55:42Z</time>
      </trkpt>
      <trkpt lat="47.84388" lon="-3.43547">
        <ele>33</ele>
        <time>2019-07-17T14:55:43Z</time>
      </trkpt>
      <trkpt lat="47.84383" lon="-3.43551">
        <ele>33</ele>
        <time>2019-07-17T14:55:44Z</time>
      </trkpt>
      <trkpt lat="47.84378" lon="-3.43554">
        <ele>34</ele>
        <time>2019-07-17T14:55:45Z</time>
      </trkpt>
      <trkpt lat="47.84373" lon="-3.43556">
        <ele>34</ele>
        <time>2019-07-17T14:55:46Z</time>
      </trkpt>
      <trkpt lat="47.84368" lon="-3.43559">
        <ele>34</ele>
        <time>2019-07-17T14:55:47Z</time>
      </trkpt>
      <trkpt lat="47.84363" lon="-3.4356">
        <ele>34</ele>
        <time>2019-07-17T14:55:48Z</time>
      </trkpt>
      <trkpt lat="47.84357" lon="-3.43562">
        <ele>35</ele>
        <time>2019-07-17T14:55:49Z</time>
      </trkpt>
      <trkpt lat="47.84352" lon="-3.43563">
        <ele>35</ele>
        <time>2019-07-17T14:55:50Z</time>
      </trkpt>
      <trkpt lat="47.84347" lon="-3.43565">
        <ele>35</ele>
        <time>2019-07-17T14:55:51Z</time>
      </trkpt>
      <trkpt lat="47.84342" lon="-3.43568">
        <ele>36</ele>
        <time>2019-07-17T14:55:52Z</time>
      </trkpt>
      <trkpt lat="47.84336" lon="-3.4357">
        <ele>36</ele>
        <time>2019-07-17T14:55:53Z</time>
      </trkpt>
      <trkpt lat="47.84331" lon="-3.43574">
        <ele>36</ele>
        <time>2019-07-17T14:55:54Z</time>
      </trkpt>
      <trkpt lat="47.84326" lon="-3.43578">
        <ele>36</ele>
        <time>2019-07-17T14:55:55Z</time>
      </trkpt>
      <trkpt lat="47.84321" lon="-3.43583">
        <ele>37</ele>
        <time>2019-07-17T14:55:56Z</time>
      </trkpt>
      <trkpt lat="47.84316" lon="-3.43588">
        <ele>37</ele>
        <time>2019-07-17T14:55:57Z</time>
      </trkpt>
      <trkpt lat="47.84313" lon="-3.43594">
        <ele>37</ele>
        <time>2019-07-17T14:55:58Z</time>
      </trkpt>
      <trkpt lat="47.84314" lon="-3.43601">
        <ele>37</ele>
        <time>2019-07-17T14:55:59Z</time>
      </trkpt>
      <trkpt lat="47.84316" lon="-3.43605">
        <ele>37</ele>
        <time>2019-07-17T14:56:00Z</time>
      </trkpt>
      <trkpt lat="47.84319" lon="-3.43608">
        <ele>38</ele>
        <time>2019-07-17T14:56:01Z</time>
      </trkpt>
      <trkpt lat="47.84322" lon="-3.43609">
        <ele>38</ele>
        <time>2019-07-17T14:56:02Z</time>
      </trkpt>
      <trkpt lat="47.84323" lon="-3.4361">
        <ele>38</ele>
        <time>2019-07-17T14:56:03Z</time>
      </trkpt>
      <trkpt lat="47.84323" lon="-3.4361">
        <ele>39</ele>
        <time>2019-07-17T14:56:04Z</time>
      </trkpt>
      <trkpt lat="47.84323" lon="-3.4361">
        <ele>39</ele>
        <time>2019-07-17T14:56:05Z</time>
      </trkpt>
      <trkpt lat="47.84323" lon="-3.4361">
        <ele>39</ele>
        <time>2019-07-17T14:56:06Z</time>
      </trkpt>
      <trkpt lat="47.8432" lon="-3.43611">
        <ele>40</ele>
        <time>2019-07-17T14:56:07Z</time>
      </trkpt>
      <trkpt lat="47.84318" lon="-3.43609">
        <ele>40</ele>
        <time>2019-07-17T14:56:08Z</time>
      </trkpt>
      <trkpt lat="47.84315" lon="-3.43608">
        <ele>40</ele>
        <time>2019-07-17T14:56:09Z</time>
      </trkpt>
      <trkpt lat="47.84312" lon="-3.43607">
        <ele>40</ele>
        <time>2019-07-17T14:56:10Z</time>
      </trkpt>
      <trkpt lat="47.84308" lon="-3.43608">
        <ele>40</ele>
        <time>2019-07-17T14:56:11Z</time>
      </trkpt>
      <trkpt lat="47.84304" lon="-3.43611">
        <ele>40</ele>
        <time>2019-07-17T14:56:12Z</time>
      </trkpt>
      <trkpt lat="47.84301" lon="-3.43615">
        <ele>40</ele>
        <time>2019-07-17T14:56:13Z</time>
      </trkpt>
      <trkpt lat="47.84298" lon="-3.4362">
        <ele>39</ele>
        <time>2019-07-17T14:56:14Z</time>
      </trkpt>
      <trkpt lat="47.84297" lon="-3.43626">
        <ele>39</ele>
        <time>2019-07-17T14:56:15Z</time>
      </trkpt>
      <trkpt lat="47.84295" lon="-3.43633">
        <ele>39</ele>
        <time>2019-07-17T14:56:16Z</time>
      </trkpt>
      <trkpt lat="47.84295" lon="-3.4364">
        <ele>39</ele>
        <time>2019-07-17T14:56:17Z</time>
      </trkpt>
      <trkpt lat="47.84298" lon="-3.43645">
        <ele>39</ele>
        <time>2019-07-17T14:56:18Z</time>
      </trkpt>
      <trkpt lat="47.84301" lon="-3.43649">
        <ele>39</ele>
        <time>2019-07-17T14:56:19Z</time>
      </trkpt>
      <trkpt lat="47.84304" lon="-3.43652">
        <ele>39</ele>
        <time>2019-07-17T14:56:20Z</time>
      </trkpt>
      <trkpt lat="47.84308" lon="-3.43654">
        <ele>39</ele>
        <time>2019-07-17T14:56:21Z</time>
      </trkpt>
      <trkpt lat="47.84312" lon="-3.43656">
        <ele>39</ele>
        <time>2019-07-17T14:56:22Z</time>
      </trkpt>
      <trkpt lat="47.84316" lon="-3.43659">
        <ele>39</ele>
        <time>2019-07-17T14:56:23Z</time>
      </trkpt>
      <trkpt lat="47.8432" lon="-3.43662">
        <ele>39</ele>
        <time>2019-07-17T14:56:24Z</time>
      </trkpt>
      <trkpt lat="47.84324" lon="-3.43664">
        <ele>39</ele>
        <time>2019-07-17T14:56:25Z</time>
      </trkpt>
      <trkpt lat="47.84329" lon="-3.43667">
        <ele>39</ele>
        <time>2019-07-17T14:56:26Z</time>
      </trkpt>
      <trkpt lat="47.84334" lon="-3.43668">
        <ele>39</ele>
        <time>2019-07-17T14:56:27Z</time>
      </trkpt>
      <trkpt lat="47.84338" lon="-3.43671">
        <ele>39</ele>
        <time>2019-07-17T14:56:28Z</time>
      </trkpt>
      <trkpt lat="47.84343" lon="-3.43674">
        <ele>39</ele>
        <time>2019-07-17T14:56:29Z</time>
      </trkpt>
      <trkpt lat="47.84348" lon="-3.43676">
        <ele>39</ele>
        <time>2019-07-17T14:56:30Z</time>
      </trkpt>
      <trkpt lat="47.84353" lon="-3.43679">
        <ele>39</ele>
        <time>2019-07-17T14:56:31Z</time>
      </trkpt>
      <trkpt lat="47.84358" lon="-3.43681">
        <ele>39</ele>
        <time>2019-07-17T14:56:32Z</time>
      </trkpt>
      <trkpt lat="47.84363" lon="-3.43684">
        <ele>39</ele>
        <time>2019-07-17T14:56:33Z</time>
      </trkpt>
      <trkpt lat="47.84369" lon="-3.43686">
        <ele>39</ele>
        <time>2019-07-17T14:56:34Z</time>
      </trkpt>
      <trkpt lat="47.84374" lon="-3.43689">
        <ele>39</ele>
        <time>2019-07-17T14:56:35Z</time>
      </trkpt>
      <trkpt lat="47.84379" lon="-3.43692">
        <ele>39</ele>
        <time>2019-07-17T14:56:36Z</time>
      </trkpt>
      <trkpt lat="47.84384" lon="-3.43694">
        <ele>39</ele>
        <time>2019-07-17T14:56:37Z</time>
      </trkpt>
      <trkpt lat="47.84389" lon="-3.43697">
        <ele>39</ele>
        <time>2019-07-17T14:56:38Z</time>
      </trkpt>
      <trkpt lat="47.84395" lon="-3.437">
        <ele>39</ele>
        <time>2019-07-17T14:56:39Z</time>
      </trkpt>
      <trkpt lat="47.844" lon="-3.43703">
        <ele>39</ele>
        <time>2019-07-17T14:56:40Z</time>
      </trkpt>
      <trkpt lat="47.84405" lon="-3.43705">
        <ele>39</ele>
        <time>2019-07-17T14:56:41Z</time>
      </trkpt>
      <trkpt lat="47.8441" lon="-3.43707">
        <ele>39</ele>
        <time>2019-07-17T14:56:42Z</time>
      </trkpt>
      <trkpt lat="47.84416" lon="-3.43709">
        <ele>39</ele>
        <time>2019-07-17T14:56:43Z</time>
      </trkpt>
      <trkpt lat="47.8442" lon="-3.43711">
        <ele>39</ele>
        <time>2019-07-17T14:56:44Z</time>
      </trkpt>
      <trkpt lat="47.84429" lon="-3.43714">
        <ele>39</ele>
        <time>2019-07-17T14:56:45Z</time>
      </trkpt>
      <trkpt lat="47.84429" lon="-3.43714">
        <ele>39</ele>
        <time>2019-07-17T14:56:46Z</time>
      </trkpt>
      <trkpt lat="47.84434" lon="-3.43717">
        <ele>39</ele>
        <time>2019-07-17T14:56:47Z</time>
      </trkpt>
      <trkpt lat="47.84439" lon="-3.43721">
        <ele>39</ele>
        <time>2019-07-17T14:56:48Z</time>
      </trkpt>
      <trkpt lat="47.84444" lon="-3.43724">
        <ele>39</ele>
        <time>2019-07-17T14:56:49Z</time>
      </trkpt>
      <trkpt lat="47.84449" lon="-3.43727">
        <ele>39</ele>
        <time>2019-07-17T14:56:50Z</time>
      </trkpt>
      <trkpt lat="47.84455" lon="-3.4373">
        <ele>39</ele>
        <time>2019-07-17T14:56:51Z</time>
      </trkpt>
      <trkpt lat="47.8446" lon="-3.43733">
        <ele>39</ele>
        <time>2019-07-17T14:56:52Z</time>
      </trkpt>
      <trkpt lat="47.84466" lon="-3.43735">
        <ele>39</ele>
        <time>2019-07-17T14:56:53Z</time>
      </trkpt>
      <trkpt lat="47.84473" lon="-3.43738">
        <ele>39</ele>
        <time>2019-07-17T14:56:54Z</time>
      </trkpt>
      <trkpt lat="47.84479" lon="-3.43741">
        <ele>39</ele>
        <time>2019-07-17T14:56:55Z</time>
      </trkpt>
      <trkpt lat="47.84487" lon="-3.43744">
        <ele>39</ele>
        <time>2019-07-17T14:56:56Z</time>
      </trkpt>
      <trkpt lat="47.84494" lon="-3.43746">
        <ele>39</ele>
        <time>2019-07-17T14:56:57Z</time>
      </trkpt>
      <trkpt lat="47.84501" lon="-3.43747">
        <ele>39</ele>
        <time>2019-07-17T14:56:58Z</time>
      </trkpt>
      <trkpt lat="47.84508" lon="-3.43748">
        <ele>39</ele>
        <time>2019-07-17T14:56:59Z</time>
      </trkpt>
      <trkpt lat="47.84514" lon="-3.4375">
        <ele>39</ele>
        <time>2019-07-17T14:57:00Z</time>
      </trkpt>
      <trkpt lat="47.8452" lon="-3.43752">
        <ele>39</ele>
        <time>2019-07-17T14:57:01Z</time>
      </trkpt>
      <trkpt lat="47.84527" lon="-3.43754">
        <ele>39</ele>
        <time>2019-07-17T14:57:02Z</time>
      </trkpt>
      <trkpt lat="47.84533" lon="-3.43755">
        <ele>39</ele>
        <time>2019-07-17T14:57:03Z</time>
      </trkpt>
      <trkpt lat="47.84539" lon="-3.43756">
        <ele>39</ele>
        <time>2019-07-17T14:57:04Z</time>
      </trkpt>
      <trkpt lat="47.84545" lon="-3.43758">
        <ele>38</ele>
        <time>2019-07-17T14:57:05Z</time>
      </trkpt>
      <trkpt lat="47.8455" lon="-3.43759">
        <ele>38</ele>
        <time>2019-07-17T14:57:06Z</time>
      </trkpt>
      <trkpt lat="47.84555" lon="-3.43761">
        <ele>38</ele>
        <time>2019-07-17T14:57:07Z</time>
      </trkpt>
      <trkpt lat="47.8456" lon="-3.43762">
        <ele>38</ele>
        <time>2019-07-17T14:57:08Z</time>
      </trkpt>
      <trkpt lat="47.84564" lon="-3.43764">
        <ele>38</ele>
        <time>2019-07-17T14:57:09Z</time>
      </trkpt>
      <trkpt lat="47.84568" lon="-3.43765">
        <ele>38</ele>
        <time>2019-07-17T14:57:10Z</time>
      </trkpt>
      <trkpt lat="47.84573" lon="-3.43766">
        <ele>38</ele>
        <time>2019-07-17T14:57:11Z</time>
      </trkpt>
      <trkpt lat="47.84577" lon="-3.43767">
        <ele>38</ele>
        <time>2019-07-17T14:57:12Z</time>
      </trkpt>
      <trkpt lat="47.84582" lon="-3.43769">
        <ele>38</ele>
        <time>2019-07-17T14:57:13Z</time>
      </trkpt>
      <trkpt lat="47.84586" lon="-3.4377">
        <ele>38</ele>
        <time>2019-07-17T14:57:14Z</time>
      </trkpt>
      <trkpt lat="47.84591" lon="-3.43771">
        <ele>38</ele>
        <time>2019-07-17T14:57:15Z</time>
      </trkpt>
      <trkpt lat="47.84596" lon="-3.43772">
        <ele>39</ele>
        <time>2019-07-17T14:57:16Z</time>
      </trkpt>
      <trkpt lat="47.846" lon="-3.43773">
        <ele>39</ele>
        <time>2019-07-17T14:57:17Z</time>
      </trkpt>
      <trkpt lat="47.84605" lon="-3.43774">
        <ele>39</ele>
        <time>2019-07-17T14:57:18Z</time>
      </trkpt>
      <trkpt lat="47.8461" lon="-3.43776">
        <ele>39</ele>
        <time>2019-07-17T14:57:19Z</time>
      </trkpt>
      <trkpt lat="47.84614" lon="-3.43777">
        <ele>39</ele>
        <time>2019-07-17T14:57:20Z</time>
      </trkpt>
      <trkpt lat="47.84619" lon="-3.43777">
        <ele>39</ele>
        <time>2019-07-17T14:57:21Z</time>
      </trkpt>
      <trkpt lat="47.84623" lon="-3.43777">
        <ele>39</ele>
        <time>2019-07-17T14:57:22Z</time>
      </trkpt>
      <trkpt lat="47.84628" lon="-3.43778">
        <ele>39</ele>
        <time>2019-07-17T14:57:23Z</time>
      </trkpt>
      <trkpt lat="47.84633" lon="-3.4378">
        <ele>39</ele>
        <time>2019-07-17T14:57:24Z</time>
      </trkpt>
      <trkpt lat="47.84637" lon="-3.43781">
        <ele>39</ele>
        <time>2019-07-17T14:57:25Z</time>
      </trkpt>
      <trkpt lat="47.84642" lon="-3.43782">
        <ele>39</ele>
        <time>2019-07-17T14:57:26Z</time>
      </trkpt>
      <trkpt lat="47.84647" lon="-3.43783">
        <ele>39</ele>
        <time>2019-07-17T14:57:27Z</time>
      </trkpt>
      <trkpt lat="47.84652" lon="-3.43784">
        <ele>39</ele>
        <time>2019-07-17T14:57:28Z</time>
      </trkpt>
      <trkpt lat="47.84657" lon="-3.43786">
        <ele>39</ele>
        <time>2019-07-17T14:57:29Z</time>
      </trkpt>
      <trkpt lat="47.84662" lon="-3.43787">
        <ele>39</ele>
        <time>2019-07-17T14:57:30Z</time>
      </trkpt>
      <trkpt lat="47.84668" lon="-3.43788">
        <ele>38</ele>
        <time>2019-07-17T14:57:31Z</time>
      </trkpt>
      <trkpt lat="47.84673" lon="-3.43789">
        <ele>38</ele>
        <time>2019-07-17T14:57:32Z</time>
      </trkpt>
      <trkpt lat="47.84679" lon="-3.4379">
        <ele>38</ele>
        <time>2019-07-17T14:57:33Z</time>
      </trkpt>
      <trkpt lat="47.84685" lon="-3.43792">
        <ele>38</ele>
        <time>2019-07-17T14:57:34Z</time>
      </trkpt>
      <trkpt lat="47.8469" lon="-3.43793">
        <ele>38</ele>
        <time>2019-07-17T14:57:35Z</time>
      </trkpt>
      <trkpt lat="47.84695" lon="-3.43795">
        <ele>38</ele>
        <time>2019-07-17T14:57:36Z</time>
      </trkpt>
      <trkpt lat="47.84701" lon="-3.43796">
        <ele>38</ele>
        <time>2019-07-17T14:57:37Z</time>
      </trkpt>
      <trkpt lat="47.84706" lon="-3.43797">
        <ele>37</ele>
        <time>2019-07-17T14:57:38Z</time>
      </trkpt>
      <trkpt lat="47.84712" lon="-3.43799">
        <ele>37</ele>
        <time>2019-07-17T14:57:39Z</time>
      </trkpt>
      <trkpt lat="47.84717" lon="-3.438">
        <ele>37</ele>
        <time>2019-07-17T14:57:40Z</time>
      </trkpt>
      <trkpt lat="47.84723" lon="-3.43802">
        <ele>37</ele>
        <time>2019-07-17T14:57:41Z</time>
      </trkpt>
      <trkpt lat="47.84729" lon="-3.43803">
        <ele>37</ele>
        <time>2019-07-17T14:57:42Z</time>
      </trkpt>
      <trkpt lat="47.84734" lon="-3.43804">
        <ele>37</ele>
        <time>2019-07-17T14:57:43Z</time>
      </trkpt>
      <trkpt lat="47.8474" lon="-3.43806">
        <ele>37</ele>
        <time>2019-07-17T14:57:44Z</time>
      </trkpt>
      <trkpt lat="47.84746" lon="-3.43807">
        <ele>37</ele>
        <time>2019-07-17T14:57:45Z</time>
      </trkpt>
      <trkpt lat="47.84752" lon="-3.43809">
        <ele>37</ele>
        <time>2019-07-17T14:57:46Z</time>
      </trkpt>
      <trkpt lat="47.84758" lon="-3.4381">
        <ele>37</ele>
        <time>2019-07-17T14:57:47Z</time>
      </trkpt>
      <trkpt lat="47.84764" lon="-3.43812">
        <ele>37</ele>
        <time>2019-07-17T14:57:48Z</time>
      </trkpt>
      <trkpt lat="47.8477" lon="-3.43813">
        <ele>36</ele>
        <time>2019-07-17T14:57:49Z</time>
      </trkpt>
      <trkpt lat="47.84776" lon="-3.43815">
        <ele>36</ele>
        <time>2019-07-17T14:57:50Z</time>
      </trkpt>
      <trkpt lat="47.84782" lon="-3.43816">
        <ele>36</ele>
        <time>2019-07-17T14:57:51Z</time>
      </trkpt>
      <trkpt lat="47.84788" lon="-3.43818">
        <ele>36</ele>
        <time>2019-07-17T14:57:52Z</time>
      </trkpt>
      <trkpt lat="47.84794" lon="-3.43819">
        <ele>36</ele>
        <time>2019-07-17T14:57:53Z</time>
      </trkpt>
      <trkpt lat="47.848" lon="-3.43821">
        <ele>36</ele>
        <time>2019-07-17T14:57:54Z</time>
      </trkpt>
      <trkpt lat="47.84806" lon="-3.43823">
        <ele>36</ele>
        <time>2019-07-17T14:57:55Z</time>
      </trkpt>
      <trkpt lat="47.84812" lon="-3.43824">
        <ele>36</ele>
        <time>2019-07-17T14:57:56Z</time>
      </trkpt>
      <trkpt lat="47.84818" lon="-3.43827">
        <ele>36</ele>
        <time>2019-07-17T14:57:57Z</time>
      </trkpt>
      <trkpt lat="47.84823" lon="-3.4383">
        <ele>36</ele>
        <time>2019-07-17T14:57:58Z</time>
      </trkpt>
      <trkpt lat="47.84829" lon="-3.43835">
        <ele>35</ele>
        <time>2019-07-17T14:57:59Z</time>
      </trkpt>
      <trkpt lat="47.84833" lon="-3.4384">
        <ele>35</ele>
        <time>2019-07-17T14:58:00Z</time>
      </trkpt>
      <trkpt lat="47.84837" lon="-3.43847">
        <ele>36</ele>
        <time>2019-07-17T14:58:01Z</time>
      </trkpt>
      <trkpt lat="47.84841" lon="-3.43854">
        <ele>36</ele>
        <time>2019-07-17T14:58:02Z</time>
      </trkpt>
      <trkpt lat="47.84844" lon="-3.43861">
        <ele>36</ele>
        <time>2019-07-17T14:58:03Z</time>
      </trkpt>
      <trkpt lat="47.84848" lon="-3.43868">
        <ele>36</ele>
        <time>2019-07-17T14:58:04Z</time>
      </trkpt>
      <trkpt lat="47.84852" lon="-3.43875">
        <ele>36</ele>
        <time>2019-07-17T14:58:05Z</time>
      </trkpt>
      <trkpt lat="47.84856" lon="-3.43882">
        <ele>36</ele>
        <time>2019-07-17T14:58:06Z</time>
      </trkpt>
      <trkpt lat="47.8486" lon="-3.43889">
        <ele>36</ele>
        <time>2019-07-17T14:58:07Z</time>
      </trkpt>
      <trkpt lat="47.84863" lon="-3.43896">
        <ele>35</ele>
        <time>2019-07-17T14:58:08Z</time>
      </trkpt>
      <trkpt lat="47.84867" lon="-3.43902">
        <ele>35</ele>
        <time>2019-07-17T14:58:09Z</time>
      </trkpt>
      <trkpt lat="47.8487" lon="-3.43908">
        <ele>35</ele>
        <time>2019-07-17T14:58:10Z</time>
      </trkpt>
      <trkpt lat="47.84874" lon="-3.43915">
        <ele>35</ele>
        <time>2019-07-17T14:58:11Z</time>
      </trkpt>
      <trkpt lat="47.84878" lon="-3.43921">
        <ele>35</ele>
        <time>2019-07-17T14:58:12Z</time>
      </trkpt>
      <trkpt lat="47.84882" lon="-3.43928">
        <ele>35</ele>
        <time>2019-07-17T14:58:13Z</time>
      </trkpt>
      <trkpt lat="47.84885" lon="-3.43934">
        <ele>35</ele>
        <time>2019-07-17T14:58:14Z</time>
      </trkpt>
      <trkpt lat="47.84889" lon="-3.43941">
        <ele>35</ele>
        <time>2019-07-17T14:58:15Z</time>
      </trkpt>
      <trkpt lat="47.84893" lon="-3.43947">
        <ele>35</ele>
        <time>2019-07-17T14:58:16Z</time>
      </trkpt>
      <trkpt lat="47.84897" lon="-3.43954">
        <ele>35</ele>
        <time>2019-07-17T14:58:17Z</time>
      </trkpt>
      <trkpt lat="47.849" lon="-3.4396">
        <ele>35</ele>
        <time>2019-07-17T14:58:18Z</time>
      </trkpt>
      <trkpt lat="47.84903" lon="-3.43967">
        <ele>35</ele>
        <time>2019-07-17T14:58:19Z</time>
      </trkpt>
      <trkpt lat="47.84906" lon="-3.43973">
        <ele>35</ele>
        <time>2019-07-17T14:58:20Z</time>
      </trkpt>
      <trkpt lat="47.8491" lon="-3.4398">
        <ele>35</ele>
        <time>2019-07-17T14:58:21Z</time>
      </trkpt>
      <trkpt lat="47.84914" lon="-3.43986">
        <ele>35</ele>
        <time>2019-07-17T14:58:22Z</time>
      </trkpt>
      <trkpt lat="47.84917" lon="-3.43992">
        <ele>35</ele>
        <time>2019-07-17T14:58:23Z</time>
      </trkpt>
      <trkpt lat="47.8492" lon="-3.43998">
        <ele>35</ele>
        <time>2019-07-17T14:58:24Z</time>
      </trkpt>
      <trkpt lat="47.84924" lon="-3.44004">
        <ele>34</ele>
        <time>2019-07-17T14:58:25Z</time>
      </trkpt>
      <trkpt lat="47.84927" lon="-3.4401">
        <ele>34</ele>
        <time>2019-07-17T14:58:26Z</time>
      </trkpt>
      <trkpt lat="47.84931" lon="-3.44017">
        <ele>34</ele>
        <time>2019-07-17T14:58:27Z</time>
      </trkpt>
      <trkpt lat="47.84934" lon="-3.44023">
        <ele>34</ele>
        <time>2019-07-17T14:58:28Z</time>
      </trkpt>
      <trkpt lat="47.84937" lon="-3.44029">
        <ele>34</ele>
        <time>2019-07-17T14:58:29Z</time>
      </trkpt>
      <trkpt lat="47.8494" lon="-3.44036">
        <ele>35</ele>
        <time>2019-07-17T14:58:30Z</time>
      </trkpt>
      <trkpt lat="47.84943" lon="-3.44041">
        <ele>35</ele>
        <time>2019-07-17T14:58:31Z</time>
      </trkpt>
      <trkpt lat="47.84947" lon="-3.44046">
        <ele>35</ele>
        <time>2019-07-17T14:58:32Z</time>
      </trkpt>
      <trkpt lat="47.8495" lon="-3.44051">
        <ele>35</ele>
        <time>2019-07-17T14:58:33Z</time>
      </trkpt>
      <trkpt lat="47.84953" lon="-3.44056">
        <ele>35</ele>
        <time>2019-07-17T14:58:34Z</time>
      </trkpt>
      <trkpt lat="47.84956" lon="-3.44061">
        <ele>35</ele>
        <time>2019-07-17T14:58:35Z</time>
      </trkpt>
      <trkpt lat="47.84959" lon="-3.44066">
        <ele>35</ele>
        <time>2019-07-17T14:58:36Z</time>
      </trkpt>
      <trkpt lat="47.84962" lon="-3.44071">
        <ele>35</ele>
        <time>2019-07-17T14:58:37Z</time>
      </trkpt>
      <trkpt lat="47.84965" lon="-3.44076">
        <ele>35</ele>
        <time>2019-07-17T14:58:38Z</time>
      </trkpt>
      <trkpt lat="47.84968" lon="-3.44081">
        <ele>35</ele>
        <time>2019-07-17T14:58:39Z</time>
      </trkpt>
      <trkpt lat="47.84971" lon="-3.44085">
        <ele>35</ele>
        <time>2019-07-17T14:58:40Z</time>
      </trkpt>
      <trkpt lat="47.84975" lon="-3.4409">
        <ele>35</ele>
        <time>2019-07-17T14:58:41Z</time>
      </trkpt>
      <trkpt lat="47.84978" lon="-3.44095">
        <ele>36</ele>
        <time>2019-07-17T14:58:42Z</time>
      </trkpt>
      <trkpt lat="47.84981" lon="-3.44101">
        <ele>36</ele>
        <time>2019-07-17T14:58:43Z</time>
      </trkpt>
      <trkpt lat="47.84985" lon="-3.44106">
        <ele>36</ele>
        <time>2019-07-17T14:58:44Z</time>
      </trkpt>
      <trkpt lat="47.84988" lon="-3.44111">
        <ele>36</ele>
        <time>2019-07-17T14:58:45Z</time>
      </trkpt>
      <trkpt lat="47.84991" lon="-3.44116">
        <ele>36</ele>
        <time>2019-07-17T14:58:46Z</time>
      </trkpt>
      <trkpt lat="47.84994" lon="-3.44122">
        <ele>36</ele>
        <time>2019-07-17T14:58:47Z</time>
      </trkpt>
      <trkpt lat="47.84996" lon="-3.44127">
        <ele>36</ele>
        <time>2019-07-17T14:58:48Z</time>
      </trkpt>
      <trkpt lat="47.84999" lon="-3.44132">
        <ele>37</ele>
        <time>2019-07-17T14:58:49Z</time>
      </trkpt>
      <trkpt lat="47.85002" lon="-3.44138">
        <ele>37</ele>
        <time>2019-07-17T14:58:50Z</time>
      </trkpt>
      <trkpt lat="47.85005" lon="-3.44143">
        <ele>37</ele>
        <time>2019-07-17T14:58:51Z</time>
      </trkpt>
      <trkpt lat="47.85008" lon="-3.44149">
        <ele>37</ele>
        <time>2019-07-17T14:58:52Z</time>
      </trkpt>
      <trkpt lat="47.85011" lon="-3.44154">
        <ele>37</ele>
        <time>2019-07-17T14:58:53Z</time>
      </trkpt>
      <trkpt lat="47.85013" lon="-3.4416">
        <ele>37</ele>
        <time>2019-07-17T14:58:54Z</time>
      </trkpt>
      <trkpt lat="47.85017" lon="-3.44164">
        <ele>38</ele>
        <time>2019-07-17T14:58:55Z</time>
      </trkpt>
      <trkpt lat="47.85019" lon="-3.44169">
        <ele>38</ele>
        <time>2019-07-17T14:58:56Z</time>
      </trkpt>
      <trkpt lat="47.85022" lon="-3.44174">
        <ele>38</ele>
        <time>2019-07-17T14:58:57Z</time>
      </trkpt>
      <trkpt lat="47.85025" lon="-3.44178">
        <ele>38</ele>
        <time>2019-07-17T14:58:58Z</time>
      </trkpt>
      <trkpt lat="47.85028" lon="-3.44183">
        <ele>38</ele>
        <time>2019-07-17T14:58:59Z</time>
      </trkpt>
      <trkpt lat="47.85031" lon="-3.44188">
        <ele>38</ele>
        <time>2019-07-17T14:59:00Z</time>
      </trkpt>
      <trkpt lat="47.85034" lon="-3.44194">
        <ele>38</ele>
        <time>2019-07-17T14:59:01Z</time>
      </trkpt>
      <trkpt lat="47.85038" lon="-3.442">
        <ele>38</ele>
        <time>2019-07-17T14:59:02Z</time>
      </trkpt>
      <trkpt lat="47.85041" lon="-3.44205">
        <ele>39</ele>
        <time>2019-07-17T14:59:03Z</time>
      </trkpt>
      <trkpt lat="47.85044" lon="-3.4421">
        <ele>39</ele>
        <time>2019-07-17T14:59:04Z</time>
      </trkpt>
      <trkpt lat="47.85047" lon="-3.44215">
        <ele>39</ele>
        <time>2019-07-17T14:59:05Z</time>
      </trkpt>
      <trkpt lat="47.8505" lon="-3.4422">
        <ele>39</ele>
        <time>2019-07-17T14:59:06Z</time>
      </trkpt>
      <trkpt lat="47.85053" lon="-3.44225">
        <ele>39</ele>
        <time>2019-07-17T14:59:07Z</time>
      </trkpt>
      <trkpt lat="47.85056" lon="-3.44231">
        <ele>39</ele>
        <time>2019-07-17T14:59:08Z</time>
      </trkpt>
      <trkpt lat="47.85059" lon="-3.44236">
        <ele>39</ele>
        <time>2019-07-17T14:59:09Z</time>
      </trkpt>
      <trkpt lat="47.85063" lon="-3.4424">
        <ele>40</ele>
        <time>2019-07-17T14:59:10Z</time>
      </trkpt>
      <trkpt lat="47.85067" lon="-3.44243">
        <ele>40</ele>
        <time>2019-07-17T14:59:11Z</time>
      </trkpt>
      <trkpt lat="47.85071" lon="-3.44245">
        <ele>40</ele>
        <time>2019-07-17T14:59:12Z</time>
      </trkpt>
      <trkpt lat="47.85075" lon="-3.44244">
        <ele>40</ele>
        <time>2019-07-17T14:59:13Z</time>
      </trkpt>
      <trkpt lat="47.85078" lon="-3.44243">
        <ele>40</ele>
        <time>2019-07-17T14:59:14Z</time>
      </trkpt>
      <trkpt lat="47.85079" lon="-3.44243">
        <ele>40</ele>
        <time>2019-07-17T14:59:15Z</time>
      </trkpt>
      <trkpt lat="47.8508" lon="-3.44243">
        <ele>41</ele>
        <time>2019-07-17T14:59:16Z</time>
      </trkpt>
      <trkpt lat="47.8508" lon="-3.44244">
        <ele>41</ele>
        <time>2019-07-17T14:59:17Z</time>
      </trkpt>
      <trkpt lat="47.85081" lon="-3.44244">
        <ele>41</ele>
        <time>2019-07-17T14:59:18Z</time>
      </trkpt>
      <trkpt lat="47.8508" lon="-3.44251">
        <ele>42</ele>
        <time>2019-07-17T14:59:19Z</time>
      </trkpt>
      <trkpt lat="47.85079" lon="-3.44253">
        <ele>43</ele>
        <time>2019-07-17T14:59:20Z</time>
      </trkpt>
      <trkpt lat="47.85078" lon="-3.44257">
        <ele>43</ele>
        <time>2019-07-17T14:59:21Z</time>
      </trkpt>
      <trkpt lat="47.85078" lon="-3.44261">
        <ele>43</ele>
        <time>2019-07-17T14:59:22Z</time>
      </trkpt>
      <trkpt lat="47.85079" lon="-3.44266">
        <ele>43</ele>
        <time>2019-07-17T14:59:23Z</time>
      </trkpt>
      <trkpt lat="47.85081" lon="-3.44269">
        <ele>43</ele>
        <time>2019-07-17T14:59:24Z</time>
      </trkpt>
      <trkpt lat="47.85082" lon="-3.44272">
        <ele>43</ele>
        <time>2019-07-17T14:59:25Z</time>
      </trkpt>
      <trkpt lat="47.85084" lon="-3.44276">
        <ele>43</ele>
        <time>2019-07-17T14:59:26Z</time>
      </trkpt>
      <trkpt lat="47.85086" lon="-3.4428">
        <ele>43</ele>
        <time>2019-07-17T14:59:27Z</time>
      </trkpt>
      <trkpt lat="47.85087" lon="-3.44284">
        <ele>44</ele>
        <time>2019-07-17T14:59:28Z</time>
      </trkpt>
      <trkpt lat="47.85088" lon="-3.44289">
        <ele>44</ele>
        <time>2019-07-17T14:59:29Z</time>
      </trkpt>
      <trkpt lat="47.85089" lon="-3.44295">
        <ele>44</ele>
        <time>2019-07-17T14:59:30Z</time>
      </trkpt>
      <trkpt lat="47.8509" lon="-3.44301">
        <ele>44</ele>
        <time>2019-07-17T14:59:31Z</time>
      </trkpt>
      <trkpt lat="47.8509" lon="-3.44308">
        <ele>44</ele>
        <time>2019-07-17T14:59:32Z</time>
      </trkpt>
      <trkpt lat="47.85091" lon="-3.44315">
        <ele>44</ele>
        <time>2019-07-17T14:59:33Z</time>
      </trkpt>
      <trkpt lat="47.85092" lon="-3.44322">
        <ele>44</ele>
        <time>2019-07-17T14:59:34Z</time>
      </trkpt>
      <trkpt lat="47.85092" lon="-3.44328">
        <ele>44</ele>
        <time>2019-07-17T14:59:35Z</time>
      </trkpt>
      <trkpt lat="47.85092" lon="-3.44335">
        <ele>44</ele>
        <time>2019-07-17T14:59:36Z</time>
      </trkpt>
      <trkpt lat="47.85092" lon="-3.44341">
        <ele>44</ele>
        <time>2019-07-17T14:59:37Z</time>
      </trkpt>
      <trkpt lat="47.85093" lon="-3.44347">
        <ele>44</ele>
        <time>2019-07-17T14:59:38Z</time>
      </trkpt>
      <trkpt lat="47.85093" lon="-3.44352">
        <ele>44</ele>
        <time>2019-07-17T14:59:39Z</time>
      </trkpt>
      <trkpt lat="47.85093" lon="-3.44358">
        <ele>44</ele>
        <time>2019-07-17T14:59:40Z</time>
      </trkpt>
      <trkpt lat="47.85093" lon="-3.44365">
        <ele>44</ele>
        <time>2019-07-17T14:59:41Z</time>
      </trkpt>
      <trkpt lat="47.85094" lon="-3.44372">
        <ele>44</ele>
        <time>2019-07-17T14:59:42Z</time>
      </trkpt>
      <trkpt lat="47.85096" lon="-3.44377">
        <ele>44</ele>
        <time>2019-07-17T14:59:43Z</time>
      </trkpt>
      <trkpt lat="47.851" lon="-3.4438">
        <ele>44</ele>
        <time>2019-07-17T14:59:44Z</time>
      </trkpt>
      <trkpt lat="47.85104" lon="-3.4438">
        <ele>44</ele>
        <time>2019-07-17T14:59:45Z</time>
      </trkpt>
      <trkpt lat="47.85108" lon="-3.44378">
        <ele>45</ele>
        <time>2019-07-17T14:59:46Z</time>
      </trkpt>
      <trkpt lat="47.85112" lon="-3.44376">
        <ele>45</ele>
        <time>2019-07-17T14:59:47Z</time>
      </trkpt>
      <trkpt lat="47.85117" lon="-3.44374">
        <ele>45</ele>
        <time>2019-07-17T14:59:48Z</time>
      </trkpt>
      <trkpt lat="47.85121" lon="-3.44372">
        <ele>45</ele>
        <time>2019-07-17T14:59:49Z</time>
      </trkpt>
      <trkpt lat="47.85125" lon="-3.4437">
        <ele>45</ele>
        <time>2019-07-17T14:59:50Z</time>
      </trkpt>
      <trkpt lat="47.8513" lon="-3.44367">
        <ele>45</ele>
        <time>2019-07-17T14:59:51Z</time>
      </trkpt>
      <trkpt lat="47.85135" lon="-3.44365">
        <ele>45</ele>
        <time>2019-07-17T14:59:52Z</time>
      </trkpt>
      <trkpt lat="47.85139" lon="-3.44362">
        <ele>45</ele>
        <time>2019-07-17T14:59:53Z</time>
      </trkpt>
      <trkpt lat="47.85144" lon="-3.4436">
        <ele>46</ele>
        <time>2019-07-17T14:59:54Z</time>
      </trkpt>
      <trkpt lat="47.85148" lon="-3.44357">
        <ele>46</ele>
        <time>2019-07-17T14:59:55Z</time>
      </trkpt>
      <trkpt lat="47.85153" lon="-3.44354">
        <ele>46</ele>
        <time>2019-07-17T14:59:56Z</time>
      </trkpt>
      <trkpt lat="47.85158" lon="-3.44352">
        <ele>46</ele>
        <time>2019-07-17T14:59:57Z</time>
      </trkpt>
      <trkpt lat="47.85163" lon="-3.4435">
        <ele>46</ele>
        <time>2019-07-17T14:59:58Z</time>
      </trkpt>
      <trkpt lat="47.85168" lon="-3.44347">
        <ele>47</ele>
        <time>2019-07-17T14:59:59Z</time>
      </trkpt>
      <trkpt lat="47.85174" lon="-3.44344">
        <ele>47</ele>
        <time>2019-07-17T15:00:00Z</time>
      </trkpt>
      <trkpt lat="47.85179" lon="-3.44342">
        <ele>47</ele>
        <time>2019-07-17T15:00:01Z</time>
      </trkpt>
      <trkpt lat="47.85184" lon="-3.44339">
        <ele>47</ele>
        <time>2019-07-17T15:00:02Z</time>
      </trkpt>
      <trkpt lat="47.85189" lon="-3.44337">
        <ele>47</ele>
        <time>2019-07-17T15:00:03Z</time>
      </trkpt>
      <trkpt lat="47.85195" lon="-3.44334">
        <ele>48</ele>
        <time>2019-07-17T15:00:04Z</time>
      </trkpt>
      <trkpt lat="47.852" lon="-3.44331">
        <ele>48</ele>
        <time>2019-07-17T15:00:05Z</time>
      </trkpt>
      <trkpt lat="47.85205" lon="-3.44328">
        <ele>48</ele>
        <time>2019-07-17T15:00:06Z</time>
      </trkpt>
      <trkpt lat="47.8521" lon="-3.44325">
        <ele>48</ele>
        <time>2019-07-17T15:00:07Z</time>
      </trkpt>
      <trkpt lat="47.85216" lon="-3.44322">
        <ele>48</ele>
        <time>2019-07-17T15:00:08Z</time>
      </trkpt>
      <trkpt lat="47.85221" lon="-3.4432">
        <ele>49</ele>
        <time>2019-07-17T15:00:09Z</time>
      </trkpt>
      <trkpt lat="47.85227" lon="-3.44318">
        <ele>49</ele>
        <time>2019-07-17T15:00:10Z</time>
      </trkpt>
      <trkpt lat="47.85232" lon="-3.44315">
        <ele>49</ele>
        <time>2019-07-17T15:00:11Z</time>
      </trkpt>
      <trkpt lat="47.85237" lon="-3.44312">
        <ele>49</ele>
        <time>2019-07-17T15:00:12Z</time>
      </trkpt>
      <trkpt lat="47.85243" lon="-3.4431">
        <ele>49</ele>
        <time>2019-07-17T15:00:13Z</time>
      </trkpt>
      <trkpt lat="47.85249" lon="-3.44307">
        <ele>49</ele>
        <time>2019-07-17T15:00:14Z</time>
      </trkpt>
      <trkpt lat="47.85254" lon="-3.44305">
        <ele>49</ele>
        <time>2019-07-17T15:00:15Z</time>
      </trkpt>
      <trkpt lat="47.8526" lon="-3.44303">
        <ele>49</ele>
        <time>2019-07-17T15:00:16Z</time>
      </trkpt>
      <trkpt lat="47.85266" lon="-3.44301">
        <ele>50</ele>
        <time>2019-07-17T15:00:17Z</time>
      </trkpt>
      <trkpt lat="47.85271" lon="-3.44299">
        <ele>50</ele>
        <time>2019-07-17T15:00:18Z</time>
      </trkpt>
      <trkpt lat="47.85276" lon="-3.44298">
        <ele>50</ele>
        <time>2019-07-17T15:00:19Z</time>
      </trkpt>
      <trkpt lat="47.85282" lon="-3.44295">
        <ele>50</ele>
        <time>2019-07-17T15:00:20Z</time>
      </trkpt>
      <trkpt lat="47.85287" lon="-3.44293">
        <ele>50</ele>
        <time>2019-07-17T15:00:21Z</time>
      </trkpt>
      <trkpt lat="47.85292" lon="-3.44291">
        <ele>50</ele>
        <time>2019-07-17T15:00:22Z</time>
      </trkpt>
      <trkpt lat="47.85298" lon="-3.44289">
        <ele>50</ele>
        <time>2019-07-17T15:00:23Z</time>
      </trkpt>
      <trkpt lat="47.85304" lon="-3.44286">
        <ele>50</ele>
        <time>2019-07-17T15:00:24Z</time>
      </trkpt>
      <trkpt lat="47.85309" lon="-3.44284">
        <ele>50</ele>
        <time>2019-07-17T15:00:25Z</time>
      </trkpt>
      <trkpt lat="47.85315" lon="-3.44282">
        <ele>50</ele>
        <time>2019-07-17T15:00:26Z</time>
      </trkpt>
      <trkpt lat="47.8532" lon="-3.4428">
        <ele>50</ele>
        <time>2019-07-17T15:00:27Z</time>
      </trkpt>
      <trkpt lat="47.85325" lon="-3.44278">
        <ele>50</ele>
        <time>2019-07-17T15:00:28Z</time>
      </trkpt>
      <trkpt lat="47.85331" lon="-3.44276">
        <ele>51</ele>
        <time>2019-07-17T15:00:29Z</time>
      </trkpt>
      <trkpt lat="47.85336" lon="-3.44274">
        <ele>51</ele>
        <time>2019-07-17T15:00:30Z</time>
      </trkpt>
      <trkpt lat="47.85341" lon="-3.44273">
        <ele>51</ele>
        <time>2019-07-17T15:00:31Z</time>
      </trkpt>
      <trkpt lat="47.85346" lon="-3.44271">
        <ele>51</ele>
        <time>2019-07-17T15:00:32Z</time>
      </trkpt>
      <trkpt lat="47.85351" lon="-3.4427">
        <ele>51</ele>
        <time>2019-07-17T15:00:33Z</time>
      </trkpt>
      <trkpt lat="47.85356" lon="-3.44269">
        <ele>51</ele>
        <time>2019-07-17T15:00:34Z</time>
      </trkpt>
      <trkpt lat="47.85361" lon="-3.44268">
        <ele>51</ele>
        <time>2019-07-17T15:00:35Z</time>
      </trkpt>
      <trkpt lat="47.85367" lon="-3.44267">
        <ele>51</ele>
        <time>2019-07-17T15:00:36Z</time>
      </trkpt>
      <trkpt lat="47.85371" lon="-3.44267">
        <ele>51</ele>
        <time>2019-07-17T15:00:37Z</time>
      </trkpt>
      <trkpt lat="47.85377" lon="-3.44267">
        <ele>51</ele>
        <time>2019-07-17T15:00:38Z</time>
      </trkpt>
      <trkpt lat="47.85381" lon="-3.44267">
        <ele>51</ele>
        <time>2019-07-17T15:00:39Z</time>
      </trkpt>
      <trkpt lat="47.85386" lon="-3.44267">
        <ele>51</ele>
        <time>2019-07-17T15:00:40Z</time>
      </trkpt>
      <trkpt lat="47.85391" lon="-3.44266">
        <ele>51</ele>
        <time>2019-07-17T15:00:41Z</time>
      </trkpt>
      <trkpt lat="47.85396" lon="-3.44267">
        <ele>51</ele>
        <time>2019-07-17T15:00:42Z</time>
      </trkpt>
      <trkpt lat="47.85401" lon="-3.44268">
        <ele>51</ele>
        <time>2019-07-17T15:00:43Z</time>
      </trkpt>
      <trkpt lat="47.85407" lon="-3.44269">
        <ele>51</ele>
        <time>2019-07-17T15:00:44Z</time>
      </trkpt>
      <trkpt lat="47.85413" lon="-3.4427">
        <ele>51</ele>
        <time>2019-07-17T15:00:45Z</time>
      </trkpt>
      <trkpt lat="47.85418" lon="-3.44271">
        <ele>51</ele>
        <time>2019-07-17T15:00:46Z</time>
      </trkpt>
      <trkpt lat="47.85425" lon="-3.44272">
        <ele>50</ele>
        <time>2019-07-17T15:00:47Z</time>
      </trkpt>
      <trkpt lat="47.85431" lon="-3.44273">
        <ele>50</ele>
        <time>2019-07-17T15:00:48Z</time>
      </trkpt>
      <trkpt lat="47.85438" lon="-3.44274">
        <ele>50</ele>
        <time>2019-07-17T15:00:49Z</time>
      </trkpt>
      <trkpt lat="47.85445" lon="-3.44275">
        <ele>50</ele>
        <time>2019-07-17T15:00:50Z</time>
      </trkpt>
      <trkpt lat="47.85453" lon="-3.44276">
        <ele>50</ele>
        <time>2019-07-17T15:00:51Z</time>
      </trkpt>
      <trkpt lat="47.85461" lon="-3.44277">
        <ele>50</ele>
        <time>2019-07-17T15:00:52Z</time>
      </trkpt>
      <trkpt lat="47.85469" lon="-3.44278">
        <ele>49</ele>
        <time>2019-07-17T15:00:53Z</time>
      </trkpt>
      <trkpt lat="47.85478" lon="-3.44279">
        <ele>49</ele>
        <time>2019-07-17T15:00:54Z</time>
      </trkpt>
      <trkpt lat="47.85486" lon="-3.44281">
        <ele>49</ele>
        <time>2019-07-17T15:00:55Z</time>
      </trkpt>
      <trkpt lat="47.85495" lon="-3.44282">
        <ele>49</ele>
        <time>2019-07-17T15:00:56Z</time>
      </trkpt>
      <trkpt lat="47.85503" lon="-3.44283">
        <ele>48</ele>
        <time>2019-07-17T15:00:57Z</time>
      </trkpt>
      <trkpt lat="47.85511" lon="-3.44284">
        <ele>48</ele>
        <time>2019-07-17T15:00:58Z</time>
      </trkpt>
      <trkpt lat="47.85519" lon="-3.44285">
        <ele>48</ele>
        <time>2019-07-17T15:00:59Z</time>
      </trkpt>
      <trkpt lat="47.85527" lon="-3.44286">
        <ele>47</ele>
        <time>2019-07-17T15:01:00Z</time>
      </trkpt>
      <trkpt lat="47.85535" lon="-3.44288">
        <ele>47</ele>
        <time>2019-07-17T15:01:01Z</time>
      </trkpt>
      <trkpt lat="47.85542" lon="-3.44289">
        <ele>47</ele>
        <time>2019-07-17T15:01:02Z</time>
      </trkpt>
      <trkpt lat="47.85548" lon="-3.44289">
        <ele>47</ele>
        <time>2019-07-17T15:01:03Z</time>
      </trkpt>
      <trkpt lat="47.85554" lon="-3.4429">
        <ele>47</ele>
        <time>2019-07-17T15:01:04Z</time>
      </trkpt>
      <trkpt lat="47.8556" lon="-3.44291">
        <ele>47</ele>
        <time>2019-07-17T15:01:05Z</time>
      </trkpt>
      <trkpt lat="47.85566" lon="-3.44292">
        <ele>47</ele>
        <time>2019-07-17T15:01:06Z</time>
      </trkpt>
      <trkpt lat="47.85571" lon="-3.44292">
        <ele>47</ele>
        <time>2019-07-17T15:01:07Z</time>
      </trkpt>
      <trkpt lat="47.85576" lon="-3.44293">
        <ele>46</ele>
        <time>2019-07-17T15:01:08Z</time>
      </trkpt>
      <trkpt lat="47.85581" lon="-3.44294">
        <ele>46</ele>
        <time>2019-07-17T15:01:09Z</time>
      </trkpt>
      <trkpt lat="47.85586" lon="-3.44294">
        <ele>46</ele>
        <time>2019-07-17T15:01:10Z</time>
      </trkpt>
      <trkpt lat="47.85591" lon="-3.44295">
        <ele>46</ele>
        <time>2019-07-17T15:01:11Z</time>
      </trkpt>
      <trkpt lat="47.85596" lon="-3.44295">
        <ele>46</ele>
        <time>2019-07-17T15:01:12Z</time>
      </trkpt>
      <trkpt lat="47.85601" lon="-3.44296">
        <ele>46</ele>
        <time>2019-07-17T15:01:13Z</time>
      </trkpt>
      <trkpt lat="47.85606" lon="-3.44297">
        <ele>46</ele>
        <time>2019-07-17T15:01:14Z</time>
      </trkpt>
      <trkpt lat="47.85611" lon="-3.44298">
        <ele>46</ele>
        <time>2019-07-17T15:01:15Z</time>
      </trkpt>
      <trkpt lat="47.85615" lon="-3.44298">
        <ele>46</ele>
        <time>2019-07-17T15:01:16Z</time>
      </trkpt>
      <trkpt lat="47.85619" lon="-3.44299">
        <ele>46</ele>
        <time>2019-07-17T15:01:17Z</time>
      </trkpt>
      <trkpt lat="47.85624" lon="-3.44299">
        <ele>46</ele>
        <time>2019-07-17T15:01:18Z</time>
      </trkpt>
      <trkpt lat="47.85628" lon="-3.44299">
        <ele>46</ele>
        <time>2019-07-17T15:01:19Z</time>
      </trkpt>
      <trkpt lat="47.85632" lon="-3.443">
        <ele>46</ele>
        <time>2019-07-17T15:01:20Z</time>
      </trkpt>
      <trkpt lat="47.85636" lon="-3.443">
        <ele>46</ele>
        <time>2019-07-17T15:01:21Z</time>
      </trkpt>
      <trkpt lat="47.8564" lon="-3.44301">
        <ele>46</ele>
        <time>2019-07-17T15:01:22Z</time>
      </trkpt>
      <trkpt lat="47.85645" lon="-3.44301">
        <ele>46</ele>
        <time>2019-07-17T15:01:23Z</time>
      </trkpt>
      <trkpt lat="47.85649" lon="-3.44302">
        <ele>45</ele>
        <time>2019-07-17T15:01:24Z</time>
      </trkpt>
      <trkpt lat="47.85653" lon="-3.44302">
        <ele>45</ele>
        <time>2019-07-17T15:01:25Z</time>
      </trkpt>
      <trkpt lat="47.85657" lon="-3.44303">
        <ele>45</ele>
        <time>2019-07-17T15:01:26Z</time>
      </trkpt>
      <trkpt lat="47.85661" lon="-3.44303">
        <ele>45</ele>
        <time>2019-07-17T15:01:27Z</time>
      </trkpt>
      <trkpt lat="47.85666" lon="-3.44304">
        <ele>45</ele>
        <time>2019-07-17T15:01:28Z</time>
      </trkpt>
      <trkpt lat="47.8567" lon="-3.44304">
        <ele>45</ele>
        <time>2019-07-17T15:01:29Z</time>
      </trkpt>
      <trkpt lat="47.85674" lon="-3.44305">
        <ele>45</ele>
        <time>2019-07-17T15:01:30Z</time>
      </trkpt>
      <trkpt lat="47.85679" lon="-3.44305">
        <ele>45</ele>
        <time>2019-07-17T15:01:31Z</time>
      </trkpt>
      <trkpt lat="47.85683" lon="-3.44306">
        <ele>45</ele>
        <time>2019-07-17T15:01:32Z</time>
      </trkpt>
      <trkpt lat="47.85687" lon="-3.44306">
        <ele>45</ele>
        <time>2019-07-17T15:01:33Z</time>
      </trkpt>
      <trkpt lat="47.85691" lon="-3.44306">
        <ele>45</ele>
        <time>2019-07-17T15:01:34Z</time>
      </trkpt>
      <trkpt lat="47.85695" lon="-3.44307">
        <ele>45</ele>
        <time>2019-07-17T15:01:35Z</time>
      </trkpt>
      <trkpt lat="47.85699" lon="-3.44308">
        <ele>45</ele>
        <time>2019-07-17T15:01:36Z</time>
      </trkpt>
      <trkpt lat="47.85703" lon="-3.44308">
        <ele>45</ele>
        <time>2019-07-17T15:01:37Z</time>
      </trkpt>
      <trkpt lat="47.85707" lon="-3.44309">
        <ele>45</ele>
        <time>2019-07-17T15:01:38Z</time>
      </trkpt>
      <trkpt lat="47.85712" lon="-3.4431">
        <ele>45</ele>
        <time>2019-07-17T15:01:39Z</time>
      </trkpt>
      <trkpt lat="47.85716" lon="-3.44311">
        <ele>45</ele>
        <time>2019-07-17T15:01:40Z</time>
      </trkpt>
      <trkpt lat="47.8572" lon="-3.44312">
        <ele>46</ele>
        <time>2019-07-17T15:01:41Z</time>
      </trkpt>
      <trkpt lat="47.85724" lon="-3.44312">
        <ele>46</ele>
        <time>2019-07-17T15:01:42Z</time>
      </trkpt>
      <trkpt lat="47.85728" lon="-3.44313">
        <ele>46</ele>
        <time>2019-07-17T15:01:43Z</time>
      </trkpt>
      <trkpt lat="47.85732" lon="-3.44314">
        <ele>46</ele>
        <time>2019-07-17T15:01:44Z</time>
      </trkpt>
      <trkpt lat="47.85736" lon="-3.44314">
        <ele>47</ele>
        <time>2019-07-17T15:01:45Z</time>
      </trkpt>
      <trkpt lat="47.85741" lon="-3.44315">
        <ele>47</ele>
        <time>2019-07-17T15:01:46Z</time>
      </trkpt>
      <trkpt lat="47.85745" lon="-3.44315">
        <ele>47</ele>
        <time>2019-07-17T15:01:47Z</time>
      </trkpt>
      <trkpt lat="47.85749" lon="-3.44316">
        <ele>48</ele>
        <time>2019-07-17T15:01:48Z</time>
      </trkpt>
      <trkpt lat="47.85753" lon="-3.44317">
        <ele>48</ele>
        <time>2019-07-17T15:01:49Z</time>
      </trkpt>
      <trkpt lat="47.85757" lon="-3.44318">
        <ele>48</ele>
        <time>2019-07-17T15:01:50Z</time>
      </trkpt>
      <trkpt lat="47.85761" lon="-3.44318">
        <ele>48</ele>
        <time>2019-07-17T15:01:51Z</time>
      </trkpt>
      <trkpt lat="47.85765" lon="-3.44319">
        <ele>49</ele>
        <time>2019-07-17T15:01:52Z</time>
      </trkpt>
      <trkpt lat="47.85769" lon="-3.44319">
        <ele>49</ele>
        <time>2019-07-17T15:01:53Z</time>
      </trkpt>
      <trkpt lat="47.85773" lon="-3.4432">
        <ele>49</ele>
        <time>2019-07-17T15:01:54Z</time>
      </trkpt>
      <trkpt lat="47.85777" lon="-3.44321">
        <ele>49</ele>
        <time>2019-07-17T15:01:55Z</time>
      </trkpt>
      <trkpt lat="47.85781" lon="-3.44321">
        <ele>49</ele>
        <time>2019-07-17T15:01:56Z</time>
      </trkpt>
      <trkpt lat="47.85785" lon="-3.44321">
        <ele>49</ele>
        <time>2019-07-17T15:01:57Z</time>
      </trkpt>
      <trkpt lat="47.85789" lon="-3.44322">
        <ele>49</ele>
        <time>2019-07-17T15:01:58Z</time>
      </trkpt>
      <trkpt lat="47.85793" lon="-3.44322">
        <ele>49</ele>
        <time>2019-07-17T15:01:59Z</time>
      </trkpt>
      <trkpt lat="47.85798" lon="-3.44322">
        <ele>49</ele>
        <time>2019-07-17T15:02:00Z</time>
      </trkpt>
      <trkpt lat="47.85802" lon="-3.44322">
        <ele>49</ele>
        <time>2019-07-17T15:02:01Z</time>
      </trkpt>
      <trkpt lat="47.85806" lon="-3.44323">
        <ele>49</ele>
        <time>2019-07-17T15:02:02Z</time>
      </trkpt>
      <trkpt lat="47.8581" lon="-3.44323">
        <ele>50</ele>
        <time>2019-07-17T15:02:03Z</time>
      </trkpt>
      <trkpt lat="47.85814" lon="-3.44323">
        <ele>50</ele>
        <time>2019-07-17T15:02:04Z</time>
      </trkpt>
      <trkpt lat="47.85818" lon="-3.44323">
        <ele>50</ele>
        <time>2019-07-17T15:02:05Z</time>
      </trkpt>
      <trkpt lat="47.85823" lon="-3.44322">
        <ele>50</ele>
        <time>2019-07-17T15:02:06Z</time>
      </trkpt>
      <trkpt lat="47.85827" lon="-3.44321">
        <ele>50</ele>
        <time>2019-07-17T15:02:07Z</time>
      </trkpt>
      <trkpt lat="47.85831" lon="-3.4432">
        <ele>50</ele>
        <time>2019-07-17T15:02:08Z</time>
      </trkpt>
      <trkpt lat="47.85835" lon="-3.44319">
        <ele>50</ele>
        <time>2019-07-17T15:02:09Z</time>
      </trkpt>
      <trkpt lat="47.85838" lon="-3.44317">
        <ele>50</ele>
        <time>2019-07-17T15:02:10Z</time>
      </trkpt>
      <trkpt lat="47.85843" lon="-3.44315">
        <ele>50</ele>
        <time>2019-07-17T15:02:11Z</time>
      </trkpt>
      <trkpt lat="47.85846" lon="-3.44314">
        <ele>50</ele>
        <time>2019-07-17T15:02:12Z</time>
      </trkpt>
      <trkpt lat="47.8585" lon="-3.44315">
        <ele>50</ele>
        <time>2019-07-17T15:02:13Z</time>
      </trkpt>
      <trkpt lat="47.85853" lon="-3.44318">
        <ele>50</ele>
        <time>2019-07-17T15:02:14Z</time>
      </trkpt>
      <trkpt lat="47.85856" lon="-3.44321">
        <ele>50</ele>
        <time>2019-07-17T15:02:15Z</time>
      </trkpt>
      <trkpt lat="47.85859" lon="-3.44325">
        <ele>51</ele>
        <time>2019-07-17T15:02:16Z</time>
      </trkpt>
      <trkpt lat="47.85861" lon="-3.44329">
        <ele>51</ele>
        <time>2019-07-17T15:02:17Z</time>
      </trkpt>
      <trkpt lat="47.85865" lon="-3.44333">
        <ele>51</ele>
        <time>2019-07-17T15:02:18Z</time>
      </trkpt>
      <trkpt lat="47.85868" lon="-3.44337">
        <ele>51</ele>
        <time>2019-07-17T15:02:19Z</time>
      </trkpt>
      <trkpt lat="47.85871" lon="-3.44341">
        <ele>52</ele>
        <time>2019-07-17T15:02:20Z</time>
      </trkpt>
      <trkpt lat="47.85874" lon="-3.44346">
        <ele>52</ele>
        <time>2019-07-17T15:02:21Z</time>
      </trkpt>
      <trkpt lat="47.85877" lon="-3.44351">
        <ele>52</ele>
        <time>2019-07-17T15:02:22Z</time>
      </trkpt>
      <trkpt lat="47.8588" lon="-3.44356">
        <ele>53</ele>
        <time>2019-07-17T15:02:23Z</time>
      </trkpt>
      <trkpt lat="47.85883" lon="-3.44361">
        <ele>53</ele>
        <time>2019-07-17T15:02:24Z</time>
      </trkpt>
      <trkpt lat="47.85885" lon="-3.44367">
        <ele>53</ele>
        <time>2019-07-17T15:02:25Z</time>
      </trkpt>
      <trkpt lat="47.85888" lon="-3.44371">
        <ele>53</ele>
        <time>2019-07-17T15:02:26Z</time>
      </trkpt>
      <trkpt lat="47.8589" lon="-3.44377">
        <ele>54</ele>
        <time>2019-07-17T15:02:27Z</time>
      </trkpt>
      <trkpt lat="47.8589" lon="-3.44384">
        <ele>54</ele>
        <time>2019-07-17T15:02:28Z</time>
      </trkpt>
      <trkpt lat="47.8589" lon="-3.4439">
        <ele>54</ele>
        <time>2019-07-17T15:02:29Z</time>
      </trkpt>
      <trkpt lat="47.85889" lon="-3.44397">
        <ele>55</ele>
        <time>2019-07-17T15:02:30Z</time>
      </trkpt>
      <trkpt lat="47.85888" lon="-3.44403">
        <ele>55</ele>
        <time>2019-07-17T15:02:31Z</time>
      </trkpt>
      <trkpt lat="47.85887" lon="-3.44409">
        <ele>55</ele>
        <time>2019-07-17T15:02:32Z</time>
      </trkpt>
      <trkpt lat="47.85887" lon="-3.44416">
        <ele>56</ele>
        <time>2019-07-17T15:02:33Z</time>
      </trkpt>
      <trkpt lat="47.85886" lon="-3.44423">
        <ele>56</ele>
        <time>2019-07-17T15:02:34Z</time>
      </trkpt>
      <trkpt lat="47.85885" lon="-3.4443">
        <ele>56</ele>
        <time>2019-07-17T15:02:35Z</time>
      </trkpt>
      <trkpt lat="47.85883" lon="-3.44437">
        <ele>57</ele>
        <time>2019-07-17T15:02:36Z</time>
      </trkpt>
      <trkpt lat="47.85882" lon="-3.44445">
        <ele>57</ele>
        <time>2019-07-17T15:02:37Z</time>
      </trkpt>
      <trkpt lat="47.8588" lon="-3.44452">
        <ele>57</ele>
        <time>2019-07-17T15:02:38Z</time>
      </trkpt>
      <trkpt lat="47.85879" lon="-3.4446">
        <ele>57</ele>
        <time>2019-07-17T15:02:39Z</time>
      </trkpt>
      <trkpt lat="47.85878" lon="-3.44467">
        <ele>58</ele>
        <time>2019-07-17T15:02:40Z</time>
      </trkpt>
      <trkpt lat="47.85877" lon="-3.44474">
        <ele>58</ele>
        <time>2019-07-17T15:02:41Z</time>
      </trkpt>
      <trkpt lat="47.85876" lon="-3.44481">
        <ele>58</ele>
        <time>2019-07-17T15:02:42Z</time>
      </trkpt>
      <trkpt lat="47.85875" lon="-3.44488">
        <ele>58</ele>
        <time>2019-07-17T15:02:43Z</time>
      </trkpt>
      <trkpt lat="47.85873" lon="-3.44495">
        <ele>58</ele>
        <time>2019-07-17T15:02:44Z</time>
      </trkpt>
      <trkpt lat="47.85872" lon="-3.44503">
        <ele>58</ele>
        <time>2019-07-17T15:02:45Z</time>
      </trkpt>
      <trkpt lat="47.85871" lon="-3.4451">
        <ele>58</ele>
        <time>2019-07-17T15:02:46Z</time>
      </trkpt>
      <trkpt lat="47.8587" lon="-3.44518">
        <ele>58</ele>
        <time>2019-07-17T15:02:47Z</time>
      </trkpt>
      <trkpt lat="47.85869" lon="-3.44526">
        <ele>59</ele>
        <time>2019-07-17T15:02:48Z</time>
      </trkpt>
      <trkpt lat="47.85868" lon="-3.44533">
        <ele>59</ele>
        <time>2019-07-17T15:02:49Z</time>
      </trkpt>
      <trkpt lat="47.85867" lon="-3.44541">
        <ele>59</ele>
        <time>2019-07-17T15:02:50Z</time>
      </trkpt>
      <trkpt lat="47.85866" lon="-3.44549">
        <ele>59</ele>
        <time>2019-07-17T15:02:51Z</time>
      </trkpt>
      <trkpt lat="47.85866" lon="-3.44557">
        <ele>59</ele>
        <time>2019-07-17T15:02:52Z</time>
      </trkpt>
      <trkpt lat="47.85865" lon="-3.44564">
        <ele>59</ele>
        <time>2019-07-17T15:02:53Z</time>
      </trkpt>
      <trkpt lat="47.85864" lon="-3.44572">
        <ele>59</ele>
        <time>2019-07-17T15:02:54Z</time>
      </trkpt>
      <trkpt lat="47.85864" lon="-3.4458">
        <ele>59</ele>
        <time>2019-07-17T15:02:55Z</time>
      </trkpt>
      <trkpt lat="47.85863" lon="-3.44588">
        <ele>60</ele>
        <time>2019-07-17T15:02:56Z</time>
      </trkpt>
      <trkpt lat="47.85863" lon="-3.44596">
        <ele>60</ele>
        <time>2019-07-17T15:02:57Z</time>
      </trkpt>
      <trkpt lat="47.85862" lon="-3.44604">
        <ele>60</ele>
        <time>2019-07-17T15:02:58Z</time>
      </trkpt>
      <trkpt lat="47.85862" lon="-3.44611">
        <ele>60</ele>
        <time>2019-07-17T15:02:59Z</time>
      </trkpt>
      <trkpt lat="47.85861" lon="-3.44619">
        <ele>60</ele>
        <time>2019-07-17T15:03:00Z</time>
      </trkpt>
      <trkpt lat="47.85861" lon="-3.44627">
        <ele>60</ele>
        <time>2019-07-17T15:03:01Z</time>
      </trkpt>
      <trkpt lat="47.8586" lon="-3.44635">
        <ele>60</ele>
        <time>2019-07-17T15:03:02Z</time>
      </trkpt>
      <trkpt lat="47.8586" lon="-3.44643">
        <ele>60</ele>
        <time>2019-07-17T15:03:03Z</time>
      </trkpt>
      <trkpt lat="47.85859" lon="-3.4465">
        <ele>60</ele>
        <time>2019-07-17T15:03:04Z</time>
      </trkpt>
      <trkpt lat="47.85859" lon="-3.44658">
        <ele>60</ele>
        <time>2019-07-17T15:03:05Z</time>
      </trkpt>
      <trkpt lat="47.85858" lon="-3.44665">
        <ele>61</ele>
        <time>2019-07-17T15:03:06Z</time>
      </trkpt>
      <trkpt lat="47.85858" lon="-3.44673">
        <ele>61</ele>
        <time>2019-07-17T15:03:07Z</time>
      </trkpt>
      <trkpt lat="47.85857" lon="-3.4468">
        <ele>61</ele>
        <time>2019-07-17T15:03:08Z</time>
      </trkpt>
      <trkpt lat="47.85857" lon="-3.44687">
        <ele>61</ele>
        <time>2019-07-17T15:03:09Z</time>
      </trkpt>
      <trkpt lat="47.85857" lon="-3.44693">
        <ele>61</ele>
        <time>2019-07-17T15:03:10Z</time>
      </trkpt>
      <trkpt lat="47.85857" lon="-3.44699">
        <ele>61</ele>
        <time>2019-07-17T15:03:11Z</time>
      </trkpt>
      <trkpt lat="47.85857" lon="-3.44703">
        <ele>61</ele>
        <time>2019-07-17T15:03:12Z</time>
      </trkpt>
      <trkpt lat="47.85859" lon="-3.44706">
        <ele>61</ele>
        <time>2019-07-17T15:03:13Z</time>
      </trkpt>
      <trkpt lat="47.85861" lon="-3.44708">
        <ele>61</ele>
        <time>2019-07-17T15:03:14Z</time>
      </trkpt>
      <trkpt lat="47.85863" lon="-3.44708">
        <ele>61</ele>
        <time>2019-07-17T15:03:15Z</time>
      </trkpt>
      <trkpt lat="47.85867" lon="-3.44709">
        <ele>61</ele>
        <time>2019-07-17T15:03:16Z</time>
      </trkpt>
      <trkpt lat="47.8587" lon="-3.4471">
        <ele>61</ele>
        <time>2019-07-17T15:03:17Z</time>
      </trkpt>
      <trkpt lat="47.85874" lon="-3.4471">
        <ele>62</ele>
        <time>2019-07-17T15:03:18Z</time>
      </trkpt>
      <trkpt lat="47.85878" lon="-3.44711">
        <ele>62</ele>
        <time>2019-07-17T15:03:19Z</time>
      </trkpt>
      <trkpt lat="47.85882" lon="-3.44712">
        <ele>62</ele>
        <time>2019-07-17T15:03:20Z</time>
      </trkpt>
      <trkpt lat="47.85885" lon="-3.44712">
        <ele>62</ele>
        <time>2019-07-17T15:03:21Z</time>
      </trkpt>
      <trkpt lat="47.85889" lon="-3.44712">
        <ele>62</ele>
        <time>2019-07-17T15:03:22Z</time>
      </trkpt>
      <trkpt lat="47.85892" lon="-3.44712">
        <ele>62</ele>
        <time>2019-07-17T15:03:23Z</time>
      </trkpt>
      <trkpt lat="47.85895" lon="-3.44712">
        <ele>62</ele>
        <time>2019-07-17T15:03:24Z</time>
      </trkpt>
      <trkpt lat="47.85898" lon="-3.44712">
        <ele>62</ele>
        <time>2019-07-17T15:03:25Z</time>
      </trkpt>
      <trkpt lat="47.85902" lon="-3.44713">
        <ele>62</ele>
        <time>2019-07-17T15:03:26Z</time>
      </trkpt>
      <trkpt lat="47.85905" lon="-3.44713">
        <ele>62</ele>
        <time>2019-07-17T15:03:27Z</time>
      </trkpt>
      <trkpt lat="47.85909" lon="-3.44713">
        <ele>62</ele>
        <time>2019-07-17T15:03:28Z</time>
      </trkpt>
      <trkpt lat="47.85912" lon="-3.44714">
        <ele>62</ele>
        <time>2019-07-17T15:03:29Z</time>
      </trkpt>
      <trkpt lat="47.85916" lon="-3.44716">
        <ele>62</ele>
        <time>2019-07-17T15:03:30Z</time>
      </trkpt>
      <trkpt lat="47.8592" lon="-3.4472">
        <ele>62</ele>
        <time>2019-07-17T15:03:31Z</time>
      </trkpt>
      <trkpt lat="47.85923" lon="-3.44724">
        <ele>62</ele>
        <time>2019-07-17T15:03:32Z</time>
      </trkpt>
      <trkpt lat="47.85927" lon="-3.44728">
        <ele>62</ele>
        <time>2019-07-17T15:03:33Z</time>
      </trkpt>
      <trkpt lat="47.8593" lon="-3.44734">
        <ele>62</ele>
        <time>2019-07-17T15:03:34Z</time>
      </trkpt>
      <trkpt lat="47.85933" lon="-3.44739">
        <ele>62</ele>
        <time>2019-07-17T15:03:35Z</time>
      </trkpt>
      <trkpt lat="47.85935" lon="-3.44745">
        <ele>62</ele>
        <time>2019-07-17T15:03:36Z</time>
      </trkpt>
      <trkpt lat="47.85938" lon="-3.44752">
        <ele>62</ele>
        <time>2019-07-17T15:03:37Z</time>
      </trkpt>
      <trkpt lat="47.8594" lon="-3.4476">
        <ele>62</ele>
        <time>2019-07-17T15:03:38Z</time>
      </trkpt>
      <trkpt lat="47.85942" lon="-3.44769">
        <ele>62</ele>
        <time>2019-07-17T15:03:39Z</time>
      </trkpt>
      <trkpt lat="47.85942" lon="-3.44777">
        <ele>62</ele>
        <time>2019-07-17T15:03:40Z</time>
      </trkpt>
      <trkpt lat="47.85943" lon="-3.44785">
        <ele>62</ele>
        <time>2019-07-17T15:03:41Z</time>
      </trkpt>
      <trkpt lat="47.85944" lon="-3.44794">
        <ele>62</ele>
        <time>2019-07-17T15:03:42Z</time>
      </trkpt>
      <trkpt lat="47.85943" lon="-3.44804">
        <ele>62</ele>
        <time>2019-07-17T15:03:43Z</time>
      </trkpt>
      <trkpt lat="47.85944" lon="-3.44814">
        <ele>61</ele>
        <time>2019-07-17T15:03:44Z</time>
      </trkpt>
      <trkpt lat="47.85943" lon="-3.44824">
        <ele>61</ele>
        <time>2019-07-17T15:03:45Z</time>
      </trkpt>
      <trkpt lat="47.85943" lon="-3.44833">
        <ele>61</ele>
        <time>2019-07-17T15:03:46Z</time>
      </trkpt>
      <trkpt lat="47.85943" lon="-3.44843">
        <ele>61</ele>
        <time>2019-07-17T15:03:47Z</time>
      </trkpt>
      <trkpt lat="47.85943" lon="-3.44853">
        <ele>61</ele>
        <time>2019-07-17T15:03:48Z</time>
      </trkpt>
      <trkpt lat="47.85943" lon="-3.44865">
        <ele>61</ele>
        <time>2019-07-17T15:03:49Z</time>
      </trkpt>
      <trkpt lat="47.85944" lon="-3.44876">
        <ele>61</ele>
        <time>2019-07-17T15:03:50Z</time>
      </trkpt>
      <trkpt lat="47.85944" lon="-3.44887">
        <ele>61</ele>
        <time>2019-07-17T15:03:51Z</time>
      </trkpt>
      <trkpt lat="47.85945" lon="-3.449">
        <ele>60</ele>
        <time>2019-07-17T15:03:52Z</time>
      </trkpt>
      <trkpt lat="47.85947" lon="-3.44912">
        <ele>60</ele>
        <time>2019-07-17T15:03:53Z</time>
      </trkpt>
      <trkpt lat="47.85949" lon="-3.44924">
        <ele>60</ele>
        <time>2019-07-17T15:03:54Z</time>
      </trkpt>
      <trkpt lat="47.8595" lon="-3.44936">
        <ele>59</ele>
        <time>2019-07-17T15:03:55Z</time>
      </trkpt>
      <trkpt lat="47.8595" lon="-3.44948">
        <ele>59</ele>
        <time>2019-07-17T15:03:56Z</time>
      </trkpt>
      <trkpt lat="47.8595" lon="-3.44958">
        <ele>59</ele>
        <time>2019-07-17T15:03:57Z</time>
      </trkpt>
      <trkpt lat="47.85951" lon="-3.44969">
        <ele>58</ele>
        <time>2019-07-17T15:03:58Z</time>
      </trkpt>
      <trkpt lat="47.85951" lon="-3.44979">
        <ele>58</ele>
        <time>2019-07-17T15:03:59Z</time>
      </trkpt>
      <trkpt lat="47.85951" lon="-3.44989">
        <ele>58</ele>
        <time>2019-07-17T15:04:00Z</time>
      </trkpt>
      <trkpt lat="47.85951" lon="-3.44998">
        <ele>57</ele>
        <time>2019-07-17T15:04:01Z</time>
      </trkpt>
      <trkpt lat="47.8595" lon="-3.45006">
        <ele>57</ele>
        <time>2019-07-17T15:04:02Z</time>
      </trkpt>
      <trkpt lat="47.8595" lon="-3.45012">
        <ele>57</ele>
        <time>2019-07-17T15:04:03Z</time>
      </trkpt>
      <trkpt lat="47.8595" lon="-3.45016">
        <ele>57</ele>
        <time>2019-07-17T15:04:04Z</time>
      </trkpt>
      <trkpt lat="47.85952" lon="-3.45018">
        <ele>57</ele>
        <time>2019-07-17T15:04:05Z</time>
      </trkpt>
      <trkpt lat="47.85953" lon="-3.45017">
        <ele>56</ele>
        <time>2019-07-17T15:04:06Z</time>
      </trkpt>
      <trkpt lat="47.85955" lon="-3.45016">
        <ele>56</ele>
        <time>2019-07-17T15:04:07Z</time>
      </trkpt>
      <trkpt lat="47.85957" lon="-3.45017">
        <ele>56</ele>
        <time>2019-07-17T15:04:08Z</time>
      </trkpt>
      <trkpt lat="47.85958" lon="-3.45017">
        <ele>56</ele>
        <time>2019-07-17T15:04:09Z</time>
      </trkpt>
      <trkpt lat="47.8596" lon="-3.45018">
        <ele>56</ele>
        <time>2019-07-17T15:04:10Z</time>
      </trkpt>
      <trkpt lat="47.85961" lon="-3.45018">
        <ele>56</ele>
        <time>2019-07-17T15:04:11Z</time>
      </trkpt>
      <trkpt lat="47.85962" lon="-3.45019">
        <ele>56</ele>
        <time>2019-07-17T15:04:12Z</time>
      </trkpt>
      <trkpt lat="47.85962" lon="-3.45019">
        <ele>56</ele>
        <time>2019-07-17T15:04:13Z</time>
      </trkpt>
      <trkpt lat="47.85963" lon="-3.4502">
        <ele>56</ele>
        <time>2019-07-17T15:04:14Z</time>
      </trkpt>
      <trkpt lat="47.85964" lon="-3.45019">
        <ele>56</ele>
        <time>2019-07-17T15:04:15Z</time>
      </trkpt>
      <trkpt lat="47.85965" lon="-3.45019">
        <ele>56</ele>
        <time>2019-07-17T15:04:16Z</time>
      </trkpt>
      <trkpt lat="47.85965" lon="-3.45018">
        <ele>57</ele>
        <time>2019-07-17T15:04:17Z</time>
      </trkpt>
      <trkpt lat="47.85966" lon="-3.45019">
        <ele>57</ele>
        <time>2019-07-17T15:04:18Z</time>
      </trkpt>
      <trkpt lat="47.85966" lon="-3.45019">
        <ele>57</ele>
        <time>2019-07-17T15:04:19Z</time>
      </trkpt>
      <trkpt lat="47.85967" lon="-3.4502">
        <ele>57</ele>
        <time>2019-07-17T15:04:20Z</time>
      </trkpt>
      <trkpt lat="47.85968" lon="-3.4502">
        <ele>57</ele>
        <time>2019-07-17T15:04:21Z</time>
      </trkpt>
      <trkpt lat="47.85969" lon="-3.45021">
        <ele>57</ele>
        <time>2019-07-17T15:04:22Z</time>
      </trkpt>
      <trkpt lat="47.85969" lon="-3.45022">
        <ele>57</ele>
        <time>2019-07-17T15:04:23Z</time>
      </trkpt>
      <trkpt lat="47.8597" lon="-3.45023">
        <ele>57</ele>
        <time>2019-07-17T15:04:24Z</time>
      </trkpt>
      <trkpt lat="47.85971" lon="-3.45023">
        <ele>57</ele>
        <time>2019-07-17T15:04:25Z</time>
      </trkpt>
      <trkpt lat="47.85972" lon="-3.45025">
        <ele>57</ele>
        <time>2019-07-17T15:04:26Z</time>
      </trkpt>
      <trkpt lat="47.85974" lon="-3.45027">
        <ele>58</ele>
        <time>2019-07-17T15:04:27Z</time>
      </trkpt>
      <trkpt lat="47.85975" lon="-3.45028">
        <ele>58</ele>
        <time>2019-07-17T15:04:28Z</time>
      </trkpt>
      <trkpt lat="47.85976" lon="-3.4503">
        <ele>57</ele>
        <time>2019-07-17T15:04:29Z</time>
      </trkpt>
      <trkpt lat="47.85977" lon="-3.45031">
        <ele>57</ele>
        <time>2019-07-17T15:04:30Z</time>
      </trkpt>
      <trkpt lat="47.85979" lon="-3.45033">
        <ele>57</ele>
        <time>2019-07-17T15:04:31Z</time>
      </trkpt>
      <trkpt lat="47.85981" lon="-3.45034">
        <ele>57</ele>
        <time>2019-07-17T15:04:32Z</time>
      </trkpt>
      <trkpt lat="47.85984" lon="-3.45036">
        <ele>56</ele>
        <time>2019-07-17T15:04:33Z</time>
      </trkpt>
      <trkpt lat="47.85986" lon="-3.45038">
        <ele>56</ele>
        <time>2019-07-17T15:04:34Z</time>
      </trkpt>
      <trkpt lat="47.85989" lon="-3.45041">
        <ele>56</ele>
        <time>2019-07-17T15:04:35Z</time>
      </trkpt>
      <trkpt lat="47.8599" lon="-3.45044">
        <ele>56</ele>
        <time>2019-07-17T15:04:36Z</time>
      </trkpt>
      <trkpt lat="47.8599" lon="-3.45046">
        <ele>55</ele>
        <time>2019-07-17T15:04:37Z</time>
      </trkpt>
      <trkpt lat="47.85989" lon="-3.45049">
        <ele>55</ele>
        <time>2019-07-17T15:04:38Z</time>
      </trkpt>
      <trkpt lat="47.85988" lon="-3.45051">
        <ele>55</ele>
        <time>2019-07-17T15:04:39Z</time>
      </trkpt>
      <trkpt lat="47.85986" lon="-3.45054">
        <ele>55</ele>
        <time>2019-07-17T15:04:40Z</time>
      </trkpt>
      <trkpt lat="47.85984" lon="-3.45058">
        <ele>55</ele>
        <time>2019-07-17T15:04:41Z</time>
      </trkpt>
      <trkpt lat="47.85982" lon="-3.4506">
        <ele>55</ele>
        <time>2019-07-17T15:04:42Z</time>
      </trkpt>
      <trkpt lat="47.85979" lon="-3.45063">
        <ele>55</ele>
        <time>2019-07-17T15:04:43Z</time>
      </trkpt>
      <trkpt lat="47.85976" lon="-3.45066">
        <ele>55</ele>
        <time>2019-07-17T15:04:44Z</time>
      </trkpt>
      <trkpt lat="47.85974" lon="-3.4507">
        <ele>55</ele>
        <time>2019-07-17T15:04:45Z</time>
      </trkpt>
      <trkpt lat="47.85973" lon="-3.45074">
        <ele>55</ele>
        <time>2019-07-17T15:04:46Z</time>
      </trkpt>
      <trkpt lat="47.85972" lon="-3.45078">
        <ele>55</ele>
        <time>2019-07-17T15:04:47Z</time>
      </trkpt>
      <trkpt lat="47.85972" lon="-3.45082">
        <ele>55</ele>
        <time>2019-07-17T15:04:48Z</time>
      </trkpt>
      <trkpt lat="47.85973" lon="-3.45086">
        <ele>55</ele>
        <time>2019-07-17T15:04:49Z</time>
      </trkpt>
      <trkpt lat="47.85974" lon="-3.45089">
        <ele>55</ele>
        <time>2019-07-17T15:04:50Z</time>
      </trkpt>
      <trkpt lat="47.85975" lon="-3.45093">
        <ele>54</ele>
        <time>2019-07-17T15:04:51Z</time>
      </trkpt>
      <trkpt lat="47.85976" lon="-3.45095">
        <ele>54</ele>
        <time>2019-07-17T15:04:52Z</time>
      </trkpt>
      <trkpt lat="47.85976" lon="-3.45098">
        <ele>54</ele>
        <time>2019-07-17T15:04:53Z</time>
      </trkpt>
      <trkpt lat="47.85976" lon="-3.45102">
        <ele>54</ele>
        <time>2019-07-17T15:04:54Z</time>
      </trkpt>
      <trkpt lat="47.85976" lon="-3.45106">
        <ele>54</ele>
        <time>2019-07-17T15:04:55Z</time>
      </trkpt>
      <trkpt lat="47.85976" lon="-3.45111">
        <ele>54</ele>
        <time>2019-07-17T15:04:56Z</time>
      </trkpt>
      <trkpt lat="47.85976" lon="-3.45116">
        <ele>54</ele>
        <time>2019-07-17T15:04:57Z</time>
      </trkpt>
      <trkpt lat="47.85975" lon="-3.4512">
        <ele>54</ele>
        <time>2019-07-17T15:04:58Z</time>
      </trkpt>
      <trkpt lat="47.85974" lon="-3.45125">
        <ele>54</ele>
        <time>2019-07-17T15:04:59Z</time>
      </trkpt>
      <trkpt lat="47.85973" lon="-3.4513">
        <ele>54</ele>
        <time>2019-07-17T15:05:00Z</time>
      </trkpt>
      <trkpt lat="47.85972" lon="-3.45134">
        <ele>54</ele>
        <time>2019-07-17T15:05:01Z</time>
      </trkpt>
      <trkpt lat="47.85972" lon="-3.45139">
        <ele>54</ele>
        <time>2019-07-17T15:05:02Z</time>
      </trkpt>
      <trkpt lat="47.85972" lon="-3.45143">
        <ele>54</ele>
        <time>2019-07-17T15:05:03Z</time>
      </trkpt>
      <trkpt lat="47.85974" lon="-3.45148">
        <ele>54</ele>
        <time>2019-07-17T15:05:04Z</time>
      </trkpt>
      <trkpt lat="47.85975" lon="-3.45152">
        <ele>54</ele>
        <time>2019-07-17T15:05:05Z</time>
      </trkpt>
      <trkpt lat="47.85976" lon="-3.45156">
        <ele>55</ele>
        <time>2019-07-17T15:05:06Z</time>
      </trkpt>
      <trkpt lat="47.85978" lon="-3.45159">
        <ele>55</ele>
        <time>2019-07-17T15:05:07Z</time>
      </trkpt>
      <trkpt lat="47.85978" lon="-3.45162">
        <ele>55</ele>
        <time>2019-07-17T15:05:08Z</time>
      </trkpt>
      <trkpt lat="47.85978" lon="-3.45166">
        <ele>55</ele>
        <time>2019-07-17T15:05:09Z</time>
      </trkpt>
      <trkpt lat="47.85978" lon="-3.45169">
        <ele>55</ele>
        <time>2019-07-17T15:05:10Z</time>
      </trkpt>
      <trkpt lat="47.85976" lon="-3.45174">
        <ele>55</ele>
        <time>2019-07-17T15:05:11Z</time>
      </trkpt>
      <trkpt lat="47.85975" lon="-3.45178">
        <ele>55</ele>
        <time>2019-07-17T15:05:12Z</time>
      </trkpt>
      <trkpt lat="47.85974" lon="-3.45182">
        <ele>55</ele>
        <time>2019-07-17T15:05:13Z</time>
      </trkpt>
      <trkpt lat="47.85972" lon="-3.45186">
        <ele>56</ele>
        <time>2019-07-17T15:05:14Z</time>
      </trkpt>
      <trkpt lat="47.85971" lon="-3.4519">
        <ele>56</ele>
        <time>2019-07-17T15:05:15Z</time>
      </trkpt>
      <trkpt lat="47.8597" lon="-3.45195">
        <ele>56</ele>
        <time>2019-07-17T15:05:16Z</time>
      </trkpt>
      <trkpt lat="47.85969" lon="-3.452">
        <ele>56</ele>
        <time>2019-07-17T15:05:17Z</time>
      </trkpt>
      <trkpt lat="47.85969" lon="-3.45204">
        <ele>56</ele>
        <time>2019-07-17T15:05:18Z</time>
      </trkpt>
      <trkpt lat="47.8597" lon="-3.45209">
        <ele>57</ele>
        <time>2019-07-17T15:05:19Z</time>
      </trkpt>
      <trkpt lat="47.85972" lon="-3.45212">
        <ele>57</ele>
        <time>2019-07-17T15:05:20Z</time>
      </trkpt>
      <trkpt lat="47.85973" lon="-3.45214">
        <ele>57</ele>
        <time>2019-07-17T15:05:21Z</time>
      </trkpt>
      <trkpt lat="47.85975" lon="-3.45217">
        <ele>57</ele>
        <time>2019-07-17T15:05:22Z</time>
      </trkpt>
      <trkpt lat="47.85978" lon="-3.45219">
        <ele>57</ele>
        <time>2019-07-17T15:05:23Z</time>
      </trkpt>
      <trkpt lat="47.8598" lon="-3.4522">
        <ele>57</ele>
        <time>2019-07-17T15:05:24Z</time>
      </trkpt>
      <trkpt lat="47.85982" lon="-3.45221">
        <ele>57</ele>
        <time>2019-07-17T15:05:25Z</time>
      </trkpt>
      <trkpt lat="47.85984" lon="-3.45224">
        <ele>57</ele>
        <time>2019-07-17T15:05:26Z</time>
      </trkpt>
      <trkpt lat="47.85985" lon="-3.45228">
        <ele>57</ele>
        <time>2019-07-17T15:05:27Z</time>
      </trkpt>
      <trkpt lat="47.85985" lon="-3.45231">
        <ele>57</ele>
        <time>2019-07-17T15:05:28Z</time>
      </trkpt>
      <trkpt lat="47.85985" lon="-3.45234">
        <ele>58</ele>
        <time>2019-07-17T15:05:29Z</time>
      </trkpt>
      <trkpt lat="47.85984" lon="-3.45237">
        <ele>58</ele>
        <time>2019-07-17T15:05:30Z</time>
      </trkpt>
      <trkpt lat="47.85984" lon="-3.45239">
        <ele>58</ele>
        <time>2019-07-17T15:05:31Z</time>
      </trkpt>
      <trkpt lat="47.85983" lon="-3.45241">
        <ele>58</ele>
        <time>2019-07-17T15:05:32Z</time>
      </trkpt>
      <trkpt lat="47.85982" lon="-3.45244">
        <ele>58</ele>
        <time>2019-07-17T15:05:33Z</time>
      </trkpt>
      <trkpt lat="47.85982" lon="-3.45247">
        <ele>58</ele>
        <time>2019-07-17T15:05:34Z</time>
      </trkpt>
      <trkpt lat="47.85981" lon="-3.45249">
        <ele>58</ele>
        <time>2019-07-17T15:05:35Z</time>
      </trkpt>
      <trkpt lat="47.8598" lon="-3.45251">
        <ele>58</ele>
        <time>2019-07-17T15:05:36Z</time>
      </trkpt>
      <trkpt lat="47.85979" lon="-3.45254">
        <ele>58</ele>
        <time>2019-07-17T15:05:37Z</time>
      </trkpt>
      <trkpt lat="47.85979" lon="-3.45257">
        <ele>59</ele>
        <time>2019-07-17T15:05:38Z</time>
      </trkpt>
      <trkpt lat="47.85979" lon="-3.4526">
        <ele>59</ele>
        <time>2019-07-17T15:05:39Z</time>
      </trkpt>
      <trkpt lat="47.85979" lon="-3.45264">
        <ele>59</ele>
        <time>2019-07-17T15:05:40Z</time>
      </trkpt>
      <trkpt lat="47.85979" lon="-3.45267">
        <ele>59</ele>
        <time>2019-07-17T15:05:41Z</time>
      </trkpt>
      <trkpt lat="47.8598" lon="-3.45271">
        <ele>60</ele>
        <time>2019-07-17T15:05:42Z</time>
      </trkpt>
      <trkpt lat="47.8598" lon="-3.45277">
        <ele>60</ele>
        <time>2019-07-17T15:05:43Z</time>
      </trkpt>
      <trkpt lat="47.85981" lon="-3.45281">
        <ele>60</ele>
        <time>2019-07-17T15:05:44Z</time>
      </trkpt>
      <trkpt lat="47.85983" lon="-3.45286">
        <ele>60</ele>
        <time>2019-07-17T15:05:45Z</time>
      </trkpt>
      <trkpt lat="47.85985" lon="-3.4529">
        <ele>60</ele>
        <time>2019-07-17T15:05:46Z</time>
      </trkpt>
      <trkpt lat="47.85985" lon="-3.45294">
        <ele>60</ele>
        <time>2019-07-17T15:05:47Z</time>
      </trkpt>
      <trkpt lat="47.85985" lon="-3.45299">
        <ele>61</ele>
        <time>2019-07-17T15:05:48Z</time>
      </trkpt>
      <trkpt lat="47.85985" lon="-3.45303">
        <ele>61</ele>
        <time>2019-07-17T15:05:49Z</time>
      </trkpt>
      <trkpt lat="47.85986" lon="-3.45306">
        <ele>61</ele>
        <time>2019-07-17T15:05:50Z</time>
      </trkpt>
      <trkpt lat="47.85986" lon="-3.4531">
        <ele>61</ele>
        <time>2019-07-17T15:05:51Z</time>
      </trkpt>
      <trkpt lat="47.85986" lon="-3.45314">
        <ele>61</ele>
        <time>2019-07-17T15:05:52Z</time>
      </trkpt>
      <trkpt lat="47.85986" lon="-3.45318">
        <ele>61</ele>
        <time>2019-07-17T15:05:53Z</time>
      </trkpt>
      <trkpt lat="47.85985" lon="-3.45322">
        <ele>62</ele>
        <time>2019-07-17T15:05:54Z</time>
      </trkpt>
      <trkpt lat="47.85983" lon="-3.45325">
        <ele>62</ele>
        <time>2019-07-17T15:05:55Z</time>
      </trkpt>
      <trkpt lat="47.85982" lon="-3.45329">
        <ele>62</ele>
        <time>2019-07-17T15:05:56Z</time>
      </trkpt>
      <trkpt lat="47.8598" lon="-3.45333">
        <ele>62</ele>
        <time>2019-07-17T15:05:57Z</time>
      </trkpt>
      <trkpt lat="47.85979" lon="-3.45337">
        <ele>63</ele>
        <time>2019-07-17T15:05:58Z</time>
      </trkpt>
      <trkpt lat="47.85977" lon="-3.45342">
        <ele>63</ele>
        <time>2019-07-17T15:05:59Z</time>
      </trkpt>
      <trkpt lat="47.85976" lon="-3.45346">
        <ele>63</ele>
        <time>2019-07-17T15:06:00Z</time>
      </trkpt>
      <trkpt lat="47.85974" lon="-3.45352">
        <ele>64</ele>
        <time>2019-07-17T15:06:01Z</time>
      </trkpt>
      <trkpt lat="47.85972" lon="-3.45357">
        <ele>64</ele>
        <time>2019-07-17T15:06:02Z</time>
      </trkpt>
      <trkpt lat="47.85971" lon="-3.45361">
        <ele>64</ele>
        <time>2019-07-17T15:06:03Z</time>
      </trkpt>
      <trkpt lat="47.8597" lon="-3.45364">
        <ele>65</ele>
        <time>2019-07-17T15:06:04Z</time>
      </trkpt>
      <trkpt lat="47.85968" lon="-3.45367">
        <ele>65</ele>
        <time>2019-07-17T15:06:05Z</time>
      </trkpt>
      <trkpt lat="47.85966" lon="-3.4537">
        <ele>65</ele>
        <time>2019-07-17T15:06:06Z</time>
      </trkpt>
      <trkpt lat="47.85963" lon="-3.45372">
        <ele>66</ele>
        <time>2019-07-17T15:06:07Z</time>
      </trkpt>
      <trkpt lat="47.85959" lon="-3.45374">
        <ele>66</ele>
        <time>2019-07-17T15:06:08Z</time>
      </trkpt>
      <trkpt lat="47.85955" lon="-3.45377">
        <ele>66</ele>
        <time>2019-07-17T15:06:09Z</time>
      </trkpt>
      <trkpt lat="47.85952" lon="-3.45381">
        <ele>66</ele>
        <time>2019-07-17T15:06:10Z</time>
      </trkpt>
      <trkpt lat="47.85949" lon="-3.45383">
        <ele>66</ele>
        <time>2019-07-17T15:06:11Z</time>
      </trkpt>
      <trkpt lat="47.85947" lon="-3.45384">
        <ele>67</ele>
        <time>2019-07-17T15:06:12Z</time>
      </trkpt>
      <trkpt lat="47.85945" lon="-3.45382">
        <ele>67</ele>
        <time>2019-07-17T15:06:13Z</time>
      </trkpt>
      <trkpt lat="47.85942" lon="-3.4538">
        <ele>67</ele>
        <time>2019-07-17T15:06:14Z</time>
      </trkpt>
      <trkpt lat="47.8594" lon="-3.45378">
        <ele>67</ele>
        <time>2019-07-17T15:06:15Z</time>
      </trkpt>
      <trkpt lat="47.85937" lon="-3.45376">
        <ele>67</ele>
        <time>2019-07-17T15:06:16Z</time>
      </trkpt>
      <trkpt lat="47.85934" lon="-3.45373">
        <ele>67</ele>
        <time>2019-07-17T15:06:17Z</time>
      </trkpt>
      <trkpt lat="47.85931" lon="-3.45369">
        <ele>68</ele>
        <time>2019-07-17T15:06:18Z</time>
      </trkpt>
      <trkpt lat="47.85929" lon="-3.45365">
        <ele>68</ele>
        <time>2019-07-17T15:06:19Z</time>
      </trkpt>
      <trkpt lat="47.85926" lon="-3.45362">
        <ele>68</ele>
        <time>2019-07-17T15:06:20Z</time>
      </trkpt>
      <trkpt lat="47.85922" lon="-3.45359">
        <ele>68</ele>
        <time>2019-07-17T15:06:21Z</time>
      </trkpt>
      <trkpt lat="47.85918" lon="-3.45357">
        <ele>68</ele>
        <time>2019-07-17T15:06:22Z</time>
      </trkpt>
      <trkpt lat="47.85914" lon="-3.45357">
        <ele>68</ele>
        <time>2019-07-17T15:06:23Z</time>
      </trkpt>
      <trkpt lat="47.8591" lon="-3.45356">
        <ele>68</ele>
        <time>2019-07-17T15:06:24Z</time>
      </trkpt>
      <trkpt lat="47.85905" lon="-3.45355">
        <ele>68</ele>
        <time>2019-07-17T15:06:25Z</time>
      </trkpt>
      <trkpt lat="47.85899" lon="-3.45353">
        <ele>69</ele>
        <time>2019-07-17T15:06:26Z</time>
      </trkpt>
      <trkpt lat="47.85893" lon="-3.45352">
        <ele>69</ele>
        <time>2019-07-17T15:06:27Z</time>
      </trkpt>
      <trkpt lat="47.85888" lon="-3.45354">
        <ele>69</ele>
        <time>2019-07-17T15:06:28Z</time>
      </trkpt>
      <trkpt lat="47.85882" lon="-3.45355">
        <ele>69</ele>
        <time>2019-07-17T15:06:29Z</time>
      </trkpt>
      <trkpt lat="47.85877" lon="-3.45356">
        <ele>69</ele>
        <time>2019-07-17T15:06:30Z</time>
      </trkpt>
      <trkpt lat="47.85871" lon="-3.45356">
        <ele>69</ele>
        <time>2019-07-17T15:06:31Z</time>
      </trkpt>
      <trkpt lat="47.85867" lon="-3.45358">
        <ele>69</ele>
        <time>2019-07-17T15:06:32Z</time>
      </trkpt>
      <trkpt lat="47.85864" lon="-3.45362">
        <ele>69</ele>
        <time>2019-07-17T15:06:33Z</time>
      </trkpt>
      <trkpt lat="47.8586" lon="-3.45366">
        <ele>69</ele>
        <time>2019-07-17T15:06:34Z</time>
      </trkpt>
      <trkpt lat="47.85857" lon="-3.45371">
        <ele>69</ele>
        <time>2019-07-17T15:06:35Z</time>
      </trkpt>
      <trkpt lat="47.85855" lon="-3.45377">
        <ele>69</ele>
        <time>2019-07-17T15:06:36Z</time>
      </trkpt>
      <trkpt lat="47.85853" lon="-3.45383">
        <ele>68</ele>
        <time>2019-07-17T15:06:37Z</time>
      </trkpt>
      <trkpt lat="47.85852" lon="-3.45389">
        <ele>68</ele>
        <time>2019-07-17T15:06:38Z</time>
      </trkpt>
      <trkpt lat="47.85851" lon="-3.45396">
        <ele>68</ele>
        <time>2019-07-17T15:06:39Z</time>
      </trkpt>
      <trkpt lat="47.8585" lon="-3.45403">
        <ele>68</ele>
        <time>2019-07-17T15:06:40Z</time>
      </trkpt>
      <trkpt lat="47.85849" lon="-3.4541">
        <ele>68</ele>
        <time>2019-07-17T15:06:41Z</time>
      </trkpt>
      <trkpt lat="47.85849" lon="-3.45417">
        <ele>68</ele>
        <time>2019-07-17T15:06:42Z</time>
      </trkpt>
      <trkpt lat="47.85848" lon="-3.45424">
        <ele>68</ele>
        <time>2019-07-17T15:06:43Z</time>
      </trkpt>
      <trkpt lat="47.85848" lon="-3.4543">
        <ele>68</ele>
        <time>2019-07-17T15:06:44Z</time>
      </trkpt>
      <trkpt lat="47.85848" lon="-3.45436">
        <ele>68</ele>
        <time>2019-07-17T15:06:45Z</time>
      </trkpt>
      <trkpt lat="47.85847" lon="-3.45443">
        <ele>68</ele>
        <time>2019-07-17T15:06:46Z</time>
      </trkpt>
      <trkpt lat="47.85846" lon="-3.4545">
        <ele>68</ele>
        <time>2019-07-17T15:06:47Z</time>
      </trkpt>
      <trkpt lat="47.85846" lon="-3.45457">
        <ele>68</ele>
        <time>2019-07-17T15:06:48Z</time>
      </trkpt>
      <trkpt lat="47.85846" lon="-3.45464">
        <ele>68</ele>
        <time>2019-07-17T15:06:49Z</time>
      </trkpt>
      <trkpt lat="47.85845" lon="-3.4547">
        <ele>68</ele>
        <time>2019-07-17T15:06:50Z</time>
      </trkpt>
      <trkpt lat="47.85844" lon="-3.45477">
        <ele>68</ele>
        <time>2019-07-17T15:06:51Z</time>
      </trkpt>
      <trkpt lat="47.85843" lon="-3.45485">
        <ele>68</ele>
        <time>2019-07-17T15:06:52Z</time>
      </trkpt>
      <trkpt lat="47.85842" lon="-3.45493">
        <ele>68</ele>
        <time>2019-07-17T15:06:53Z</time>
      </trkpt>
      <trkpt lat="47.85842" lon="-3.45501">
        <ele>68</ele>
        <time>2019-07-17T15:06:54Z</time>
      </trkpt>
      <trkpt lat="47.85841" lon="-3.45508">
        <ele>67</ele>
        <time>2019-07-17T15:06:55Z</time>
      </trkpt>
      <trkpt lat="47.8584" lon="-3.45516">
        <ele>67</ele>
        <time>2019-07-17T15:06:56Z</time>
      </trkpt>
      <trkpt lat="47.85839" lon="-3.45525">
        <ele>67</ele>
        <time>2019-07-17T15:06:57Z</time>
      </trkpt>
      <trkpt lat="47.85838" lon="-3.45534">
        <ele>67</ele>
        <time>2019-07-17T15:06:58Z</time>
      </trkpt>
      <trkpt lat="47.85837" lon="-3.45542">
        <ele>66</ele>
        <time>2019-07-17T15:06:59Z</time>
      </trkpt>
      <trkpt lat="47.85837" lon="-3.45551">
        <ele>66</ele>
        <time>2019-07-17T15:07:00Z</time>
      </trkpt>
      <trkpt lat="47.85836" lon="-3.45559">
        <ele>66</ele>
        <time>2019-07-17T15:07:01Z</time>
      </trkpt>
      <trkpt lat="47.85836" lon="-3.45568">
        <ele>65</ele>
        <time>2019-07-17T15:07:02Z</time>
      </trkpt>
      <trkpt lat="47.85835" lon="-3.45577">
        <ele>65</ele>
        <time>2019-07-17T15:07:03Z</time>
      </trkpt>
      <trkpt lat="47.85834" lon="-3.45586">
        <ele>65</ele>
        <time>2019-07-17T15:07:04Z</time>
      </trkpt>
      <trkpt lat="47.85835" lon="-3.45595">
        <ele>65</ele>
        <time>2019-07-17T15:07:05Z</time>
      </trkpt>
      <trkpt lat="47.85835" lon="-3.45604">
        <ele>64</ele>
        <time>2019-07-17T15:07:06Z</time>
      </trkpt>
      <trkpt lat="47.85835" lon="-3.45613">
        <ele>64</ele>
        <time>2019-07-17T15:07:07Z</time>
      </trkpt>
      <trkpt lat="47.85835" lon="-3.45621">
        <ele>64</ele>
        <time>2019-07-17T15:07:08Z</time>
      </trkpt>
      <trkpt lat="47.85835" lon="-3.4563">
        <ele>64</ele>
        <time>2019-07-17T15:07:09Z</time>
      </trkpt>
      <trkpt lat="47.85835" lon="-3.45639">
        <ele>63</ele>
        <time>2019-07-17T15:07:10Z</time>
      </trkpt>
      <trkpt lat="47.85834" lon="-3.45647">
        <ele>63</ele>
        <time>2019-07-17T15:07:11Z</time>
      </trkpt>
      <trkpt lat="47.85834" lon="-3.45655">
        <ele>63</ele>
        <time>2019-07-17T15:07:12Z</time>
      </trkpt>
      <trkpt lat="47.85834" lon="-3.45664">
        <ele>62</ele>
        <time>2019-07-17T15:07:13Z</time>
      </trkpt>
      <trkpt lat="47.85834" lon="-3.45671">
        <ele>62</ele>
        <time>2019-07-17T15:07:14Z</time>
      </trkpt>
      <trkpt lat="47.85833" lon="-3.45679">
        <ele>62</ele>
        <time>2019-07-17T15:07:15Z</time>
      </trkpt>
      <trkpt lat="47.85833" lon="-3.45687">
        <ele>62</ele>
        <time>2019-07-17T15:07:16Z</time>
      </trkpt>
      <trkpt lat="47.85831" lon="-3.45694">
        <ele>61</ele>
        <time>2019-07-17T15:07:17Z</time>
      </trkpt>
      <trkpt lat="47.8583" lon="-3.45702">
        <ele>61</ele>
        <time>2019-07-17T15:07:18Z</time>
      </trkpt>
      <trkpt lat="47.85829" lon="-3.45709">
        <ele>61</ele>
        <time>2019-07-17T15:07:19Z</time>
      </trkpt>
      <trkpt lat="47.85827" lon="-3.45717">
        <ele>61</ele>
        <time>2019-07-17T15:07:20Z</time>
      </trkpt>
      <trkpt lat="47.85826" lon="-3.45725">
        <ele>61</ele>
        <time>2019-07-17T15:07:21Z</time>
      </trkpt>
      <trkpt lat="47.85825" lon="-3.45732">
        <ele>60</ele>
        <time>2019-07-17T15:07:22Z</time>
      </trkpt>
      <trkpt lat="47.85824" lon="-3.45739">
        <ele>60</ele>
        <time>2019-07-17T15:07:23Z</time>
      </trkpt>
      <trkpt lat="47.85823" lon="-3.45746">
        <ele>60</ele>
        <time>2019-07-17T15:07:24Z</time>
      </trkpt>
      <trkpt lat="47.85821" lon="-3.45753">
        <ele>60</ele>
        <time>2019-07-17T15:07:25Z</time>
      </trkpt>
      <trkpt lat="47.8582" lon="-3.45759">
        <ele>60</ele>
        <time>2019-07-17T15:07:26Z</time>
      </trkpt>
      <trkpt lat="47.8582" lon="-3.45765">
        <ele>60</ele>
        <time>2019-07-17T15:07:27Z</time>
      </trkpt>
      <trkpt lat="47.85819" lon="-3.45771">
        <ele>59</ele>
        <time>2019-07-17T15:07:28Z</time>
      </trkpt>
      <trkpt lat="47.85819" lon="-3.45777">
        <ele>59</ele>
        <time>2019-07-17T15:07:29Z</time>
      </trkpt>
      <trkpt lat="47.8582" lon="-3.45782">
        <ele>59</ele>
        <time>2019-07-17T15:07:30Z</time>
      </trkpt>
      <trkpt lat="47.85818" lon="-3.45787">
        <ele>60</ele>
        <time>2019-07-17T15:07:31Z</time>
      </trkpt>
      <trkpt lat="47.85817" lon="-3.45792">
        <ele>60</ele>
        <time>2019-07-17T15:07:32Z</time>
      </trkpt>
      <trkpt lat="47.85815" lon="-3.45798">
        <ele>60</ele>
        <time>2019-07-17T15:07:33Z</time>
      </trkpt>
      <trkpt lat="47.85814" lon="-3.45803">
        <ele>60</ele>
        <time>2019-07-17T15:07:34Z</time>
      </trkpt>
      <trkpt lat="47.85812" lon="-3.45809">
        <ele>60</ele>
        <time>2019-07-17T15:07:35Z</time>
      </trkpt>
      <trkpt lat="47.85811" lon="-3.45815">
        <ele>60</ele>
        <time>2019-07-17T15:07:36Z</time>
      </trkpt>
      <trkpt lat="47.85811" lon="-3.45822">
        <ele>60</ele>
        <time>2019-07-17T15:07:37Z</time>
      </trkpt>
      <trkpt lat="47.85811" lon="-3.45829">
        <ele>60</ele>
        <time>2019-07-17T15:07:38Z</time>
      </trkpt>
      <trkpt lat="47.85811" lon="-3.45835">
        <ele>60</ele>
        <time>2019-07-17T15:07:39Z</time>
      </trkpt>
      <trkpt lat="47.8581" lon="-3.45842">
        <ele>60</ele>
        <time>2019-07-17T15:07:40Z</time>
      </trkpt>
      <trkpt lat="47.8581" lon="-3.45848">
        <ele>60</ele>
        <time>2019-07-17T15:07:41Z</time>
      </trkpt>
      <trkpt lat="47.85809" lon="-3.45855">
        <ele>60</ele>
        <time>2019-07-17T15:07:42Z</time>
      </trkpt>
      <trkpt lat="47.85808" lon="-3.45862">
        <ele>60</ele>
        <time>2019-07-17T15:07:43Z</time>
      </trkpt>
      <trkpt lat="47.85808" lon="-3.45868">
        <ele>60</ele>
        <time>2019-07-17T15:07:44Z</time>
      </trkpt>
      <trkpt lat="47.85807" lon="-3.45875">
        <ele>60</ele>
        <time>2019-07-17T15:07:45Z</time>
      </trkpt>
      <trkpt lat="47.85806" lon="-3.45882">
        <ele>60</ele>
        <time>2019-07-17T15:07:46Z</time>
      </trkpt>
      <trkpt lat="47.85805" lon="-3.45888">
        <ele>60</ele>
        <time>2019-07-17T15:07:47Z</time>
      </trkpt>
      <trkpt lat="47.85805" lon="-3.45895">
        <ele>60</ele>
        <time>2019-07-17T15:07:48Z</time>
      </trkpt>
      <trkpt lat="47.85804" lon="-3.45902">
        <ele>60</ele>
        <time>2019-07-17T15:07:49Z</time>
      </trkpt>
      <trkpt lat="47.85803" lon="-3.45909">
        <ele>61</ele>
        <time>2019-07-17T15:07:50Z</time>
      </trkpt>
      <trkpt lat="47.85803" lon="-3.45916">
        <ele>61</ele>
        <time>2019-07-17T15:07:51Z</time>
      </trkpt>
      <trkpt lat="47.85802" lon="-3.45922">
        <ele>61</ele>
        <time>2019-07-17T15:07:52Z</time>
      </trkpt>
      <trkpt lat="47.85802" lon="-3.45929">
        <ele>61</ele>
        <time>2019-07-17T15:07:53Z</time>
      </trkpt>
      <trkpt lat="47.85801" lon="-3.45936">
        <ele>61</ele>
        <time>2019-07-17T15:07:54Z</time>
      </trkpt>
      <trkpt lat="47.85801" lon="-3.45943">
        <ele>61</ele>
        <time>2019-07-17T15:07:55Z</time>
      </trkpt>
      <trkpt lat="47.85801" lon="-3.45949">
        <ele>61</ele>
        <time>2019-07-17T15:07:56Z</time>
      </trkpt>
      <trkpt lat="47.858" lon="-3.45955">
        <ele>61</ele>
        <time>2019-07-17T15:07:57Z</time>
      </trkpt>
      <trkpt lat="47.858" lon="-3.45961">
        <ele>61</ele>
        <time>2019-07-17T15:07:58Z</time>
      </trkpt>
      <trkpt lat="47.858" lon="-3.45966">
        <ele>61</ele>
        <time>2019-07-17T15:07:59Z</time>
      </trkpt>
      <trkpt lat="47.858" lon="-3.45972">
        <ele>61</ele>
        <time>2019-07-17T15:08:00Z</time>
      </trkpt>
      <trkpt lat="47.858" lon="-3.45977">
        <ele>61</ele>
        <time>2019-07-17T15:08:01Z</time>
      </trkpt>
      <trkpt lat="47.858" lon="-3.45983">
        <ele>61</ele>
        <time>2019-07-17T15:08:02Z</time>
      </trkpt>
      <trkpt lat="47.85801" lon="-3.45989">
        <ele>61</ele>
        <time>2019-07-17T15:08:03Z</time>
      </trkpt>
      <trkpt lat="47.85801" lon="-3.45993">
        <ele>61</ele>
        <time>2019-07-17T15:08:04Z</time>
      </trkpt>
      <trkpt lat="47.85802" lon="-3.45996">
        <ele>61</ele>
        <time>2019-07-17T15:08:05Z</time>
      </trkpt>
      <trkpt lat="47.85802" lon="-3.45998">
        <ele>61</ele>
        <time>2019-07-17T15:08:06Z</time>
      </trkpt>
      <trkpt lat="47.85801" lon="-3.45999">
        <ele>61</ele>
        <time>2019-07-17T15:08:07Z</time>
      </trkpt>
      <trkpt lat="47.85799" lon="-3.46">
        <ele>61</ele>
        <time>2019-07-17T15:08:08Z</time>
      </trkpt>
      <trkpt lat="47.85798" lon="-3.45998">
        <ele>61</ele>
        <time>2019-07-17T15:08:09Z</time>
      </trkpt>
      <trkpt lat="47.85796" lon="-3.45994">
        <ele>61</ele>
        <time>2019-07-17T15:08:10Z</time>
      </trkpt>
      <trkpt lat="47.85794" lon="-3.4599">
        <ele>61</ele>
        <time>2019-07-17T15:08:11Z</time>
      </trkpt>
      <trkpt lat="47.85791" lon="-3.45986">
        <ele>61</ele>
        <time>2019-07-17T15:08:12Z</time>
      </trkpt>
      <trkpt lat="47.85787" lon="-3.45983">
        <ele>61</ele>
        <time>2019-07-17T15:08:13Z</time>
      </trkpt>
      <trkpt lat="47.85782" lon="-3.45979">
        <ele>61</ele>
        <time>2019-07-17T15:08:14Z</time>
      </trkpt>
      <trkpt lat="47.85778" lon="-3.45976">
        <ele>61</ele>
        <time>2019-07-17T15:08:15Z</time>
      </trkpt>
      <trkpt lat="47.85774" lon="-3.45974">
        <ele>61</ele>
        <time>2019-07-17T15:08:16Z</time>
      </trkpt>
      <trkpt lat="47.85769" lon="-3.4597">
        <ele>61</ele>
        <time>2019-07-17T15:08:17Z</time>
      </trkpt>
      <trkpt lat="47.85764" lon="-3.45966">
        <ele>61</ele>
        <time>2019-07-17T15:08:18Z</time>
      </trkpt>
      <trkpt lat="47.85759" lon="-3.45962">
        <ele>61</ele>
        <time>2019-07-17T15:08:19Z</time>
      </trkpt>
      <trkpt lat="47.85754" lon="-3.45958">
        <ele>61</ele>
        <time>2019-07-17T15:08:20Z</time>
      </trkpt>
      <trkpt lat="47.85749" lon="-3.45957">
        <ele>60</ele>
        <time>2019-07-17T15:08:21Z</time>
      </trkpt>
      <trkpt lat="47.85743" lon="-3.45959">
        <ele>60</ele>
        <time>2019-07-17T15:08:22Z</time>
      </trkpt>
      <trkpt lat="47.85739" lon="-3.45963">
        <ele>60</ele>
        <time>2019-07-17T15:08:23Z</time>
      </trkpt>
      <trkpt lat="47.85736" lon="-3.4597">
        <ele>60</ele>
        <time>2019-07-17T15:08:24Z</time>
      </trkpt>
      <trkpt lat="47.85734" lon="-3.45977">
        <ele>61</ele>
        <time>2019-07-17T15:08:25Z</time>
      </trkpt>
      <trkpt lat="47.85733" lon="-3.45983">
        <ele>61</ele>
        <time>2019-07-17T15:08:26Z</time>
      </trkpt>
      <trkpt lat="47.85731" lon="-3.4599">
        <ele>61</ele>
        <time>2019-07-17T15:08:27Z</time>
      </trkpt>
      <trkpt lat="47.85729" lon="-3.45998">
        <ele>60</ele>
        <time>2019-07-17T15:08:28Z</time>
      </trkpt>
      <trkpt lat="47.85728" lon="-3.46005">
        <ele>60</ele>
        <time>2019-07-17T15:08:29Z</time>
      </trkpt>
      <trkpt lat="47.85726" lon="-3.46014">
        <ele>60</ele>
        <time>2019-07-17T15:08:30Z</time>
      </trkpt>
      <trkpt lat="47.85726" lon="-3.46022">
        <ele>60</ele>
        <time>2019-07-17T15:08:31Z</time>
      </trkpt>
      <trkpt lat="47.85725" lon="-3.46031">
        <ele>60</ele>
        <time>2019-07-17T15:08:32Z</time>
      </trkpt>
      <trkpt lat="47.85724" lon="-3.46039">
        <ele>60</ele>
        <time>2019-07-17T15:08:33Z</time>
      </trkpt>
      <trkpt lat="47.85723" lon="-3.46048">
        <ele>60</ele>
        <time>2019-07-17T15:08:34Z</time>
      </trkpt>
      <trkpt lat="47.85723" lon="-3.46057">
        <ele>60</ele>
        <time>2019-07-17T15:08:35Z</time>
      </trkpt>
      <trkpt lat="47.85723" lon="-3.46066">
        <ele>60</ele>
        <time>2019-07-17T15:08:36Z</time>
      </trkpt>
      <trkpt lat="47.85723" lon="-3.46075">
        <ele>59</ele>
        <time>2019-07-17T15:08:37Z</time>
      </trkpt>
      <trkpt lat="47.85724" lon="-3.46084">
        <ele>59</ele>
        <time>2019-07-17T15:08:38Z</time>
      </trkpt>
      <trkpt lat="47.85724" lon="-3.46093">
        <ele>59</ele>
        <time>2019-07-17T15:08:39Z</time>
      </trkpt>
      <trkpt lat="47.85725" lon="-3.46102">
        <ele>59</ele>
        <time>2019-07-17T15:08:40Z</time>
      </trkpt>
      <trkpt lat="47.85726" lon="-3.46111">
        <ele>59</ele>
        <time>2019-07-17T15:08:41Z</time>
      </trkpt>
      <trkpt lat="47.85726" lon="-3.4612">
        <ele>59</ele>
        <time>2019-07-17T15:08:42Z</time>
      </trkpt>
      <trkpt lat="47.85727" lon="-3.46129">
        <ele>59</ele>
        <time>2019-07-17T15:08:43Z</time>
      </trkpt>
      <trkpt lat="47.85728" lon="-3.46139">
        <ele>59</ele>
        <time>2019-07-17T15:08:44Z</time>
      </trkpt>
      <trkpt lat="47.85729" lon="-3.46148">
        <ele>59</ele>
        <time>2019-07-17T15:08:45Z</time>
      </trkpt>
      <trkpt lat="47.8573" lon="-3.46157">
        <ele>59</ele>
        <time>2019-07-17T15:08:46Z</time>
      </trkpt>
      <trkpt lat="47.85731" lon="-3.46166">
        <ele>59</ele>
        <time>2019-07-17T15:08:47Z</time>
      </trkpt>
      <trkpt lat="47.85733" lon="-3.46175">
        <ele>59</ele>
        <time>2019-07-17T15:08:48Z</time>
      </trkpt>
      <trkpt lat="47.85734" lon="-3.46184">
        <ele>59</ele>
        <time>2019-07-17T15:08:49Z</time>
      </trkpt>
      <trkpt lat="47.85735" lon="-3.46193">
        <ele>59</ele>
        <time>2019-07-17T15:08:50Z</time>
      </trkpt>
      <trkpt lat="47.85735" lon="-3.46202">
        <ele>59</ele>
        <time>2019-07-17T15:08:51Z</time>
      </trkpt>
      <trkpt lat="47.85736" lon="-3.46212">
        <ele>59</ele>
        <time>2019-07-17T15:08:52Z</time>
      </trkpt>
      <trkpt lat="47.85735" lon="-3.4622">
        <ele>58</ele>
        <time>2019-07-17T15:08:53Z</time>
      </trkpt>
      <trkpt lat="47.85734" lon="-3.46228">
        <ele>58</ele>
        <time>2019-07-17T15:08:54Z</time>
      </trkpt>
      <trkpt lat="47.8573" lon="-3.46235">
        <ele>58</ele>
        <time>2019-07-17T15:08:55Z</time>
      </trkpt>
      <trkpt lat="47.85726" lon="-3.46241">
        <ele>57</ele>
        <time>2019-07-17T15:08:56Z</time>
      </trkpt>
      <trkpt lat="47.85719" lon="-3.46246">
        <ele>56</ele>
        <time>2019-07-17T15:08:57Z</time>
      </trkpt>
      <trkpt lat="47.85713" lon="-3.46251">
        <ele>56</ele>
        <time>2019-07-17T15:08:58Z</time>
      </trkpt>
      <trkpt lat="47.85707" lon="-3.46256">
        <ele>55</ele>
        <time>2019-07-17T15:08:59Z</time>
      </trkpt>
      <trkpt lat="47.857" lon="-3.46261">
        <ele>55</ele>
        <time>2019-07-17T15:09:00Z</time>
      </trkpt>
      <trkpt lat="47.85693" lon="-3.46267">
        <ele>54</ele>
        <time>2019-07-17T15:09:01Z</time>
      </trkpt>
      <trkpt lat="47.85685" lon="-3.46273">
        <ele>53</ele>
        <time>2019-07-17T15:09:02Z</time>
      </trkpt>
      <trkpt lat="47.85678" lon="-3.4628">
        <ele>52</ele>
        <time>2019-07-17T15:09:03Z</time>
      </trkpt>
      <trkpt lat="47.8567" lon="-3.46287">
        <ele>52</ele>
        <time>2019-07-17T15:09:04Z</time>
      </trkpt>
      <trkpt lat="47.85662" lon="-3.46294">
        <ele>51</ele>
        <time>2019-07-17T15:09:05Z</time>
      </trkpt>
      <trkpt lat="47.85654" lon="-3.46303">
        <ele>50</ele>
        <time>2019-07-17T15:09:06Z</time>
      </trkpt>
      <trkpt lat="47.85646" lon="-3.46311">
        <ele>49</ele>
        <time>2019-07-17T15:09:07Z</time>
      </trkpt>
      <trkpt lat="47.85638" lon="-3.46319">
        <ele>49</ele>
        <time>2019-07-17T15:09:08Z</time>
      </trkpt>
      <trkpt lat="47.8563" lon="-3.46327">
        <ele>48</ele>
        <time>2019-07-17T15:09:09Z</time>
      </trkpt>
      <trkpt lat="47.85622" lon="-3.46335">
        <ele>47</ele>
        <time>2019-07-17T15:09:10Z</time>
      </trkpt>
      <trkpt lat="47.85614" lon="-3.46342">
        <ele>47</ele>
        <time>2019-07-17T15:09:11Z</time>
      </trkpt>
      <trkpt lat="47.85605" lon="-3.4635">
        <ele>46</ele>
        <time>2019-07-17T15:09:12Z</time>
      </trkpt>
      <trkpt lat="47.85597" lon="-3.46357">
        <ele>46</ele>
        <time>2019-07-17T15:09:13Z</time>
      </trkpt>
      <trkpt lat="47.85589" lon="-3.46365">
        <ele>45</ele>
        <time>2019-07-17T15:09:14Z</time>
      </trkpt>
      <trkpt lat="47.85581" lon="-3.46373">
        <ele>45</ele>
        <time>2019-07-17T15:09:15Z</time>
      </trkpt>
      <trkpt lat="47.85574" lon="-3.46381">
        <ele>44</ele>
        <time>2019-07-17T15:09:16Z</time>
      </trkpt>
      <trkpt lat="47.85566" lon="-3.46389">
        <ele>44</ele>
        <time>2019-07-17T15:09:17Z</time>
      </trkpt>
      <trkpt lat="47.85558" lon="-3.46396">
        <ele>44</ele>
        <time>2019-07-17T15:09:18Z</time>
      </trkpt>
      <trkpt lat="47.8555" lon="-3.46403">
        <ele>43</ele>
        <time>2019-07-17T15:09:19Z</time>
      </trkpt>
      <trkpt lat="47.85542" lon="-3.4641">
        <ele>43</ele>
        <time>2019-07-17T15:09:20Z</time>
      </trkpt>
      <trkpt lat="47.85535" lon="-3.46416">
        <ele>43</ele>
        <time>2019-07-17T15:09:21Z</time>
      </trkpt>
      <trkpt lat="47.85527" lon="-3.46423">
        <ele>43</ele>
        <time>2019-07-17T15:09:22Z</time>
      </trkpt>
      <trkpt lat="47.85519" lon="-3.46429">
        <ele>42</ele>
        <time>2019-07-17T15:09:23Z</time>
      </trkpt>
      <trkpt lat="47.85512" lon="-3.46435">
        <ele>42</ele>
        <time>2019-07-17T15:09:24Z</time>
      </trkpt>
      <trkpt lat="47.85503" lon="-3.46439">
        <ele>42</ele>
        <time>2019-07-17T15:09:25Z</time>
      </trkpt>
      <trkpt lat="47.85496" lon="-3.46443">
        <ele>42</ele>
        <time>2019-07-17T15:09:26Z</time>
      </trkpt>
      <trkpt lat="47.85488" lon="-3.46446">
        <ele>41</ele>
        <time>2019-07-17T15:09:27Z</time>
      </trkpt>
      <trkpt lat="47.85481" lon="-3.46449">
        <ele>41</ele>
        <time>2019-07-17T15:09:28Z</time>
      </trkpt>
      <trkpt lat="47.85474" lon="-3.46452">
        <ele>41</ele>
        <time>2019-07-17T15:09:29Z</time>
      </trkpt>
      <trkpt lat="47.85467" lon="-3.46455">
        <ele>41</ele>
        <time>2019-07-17T15:09:30Z</time>
      </trkpt>
      <trkpt lat="47.8546" lon="-3.46457">
        <ele>42</ele>
        <time>2019-07-17T15:09:31Z</time>
      </trkpt>
      <trkpt lat="47.85454" lon="-3.46459">
        <ele>42</ele>
        <time>2019-07-17T15:09:32Z</time>
      </trkpt>
      <trkpt lat="47.85447" lon="-3.46462">
        <ele>42</ele>
        <time>2019-07-17T15:09:33Z</time>
      </trkpt>
      <trkpt lat="47.85441" lon="-3.46463">
        <ele>42</ele>
        <time>2019-07-17T15:09:34Z</time>
      </trkpt>
      <trkpt lat="47.85435" lon="-3.46465">
        <ele>42</ele>
        <time>2019-07-17T15:09:35Z</time>
      </trkpt>
      <trkpt lat="47.85428" lon="-3.46466">
        <ele>42</ele>
        <time>2019-07-17T15:09:36Z</time>
      </trkpt>
      <trkpt lat="47.85423" lon="-3.46468">
        <ele>42</ele>
        <time>2019-07-17T15:09:37Z</time>
      </trkpt>
      <trkpt lat="47.85417" lon="-3.46469">
        <ele>43</ele>
        <time>2019-07-17T15:09:38Z</time>
      </trkpt>
      <trkpt lat="47.85411" lon="-3.46471">
        <ele>43</ele>
        <time>2019-07-17T15:09:39Z</time>
      </trkpt>
      <trkpt lat="47.85405" lon="-3.46472">
        <ele>43</ele>
        <time>2019-07-17T15:09:40Z</time>
      </trkpt>
      <trkpt lat="47.854" lon="-3.46473">
        <ele>43</ele>
        <time>2019-07-17T15:09:41Z</time>
      </trkpt>
      <trkpt lat="47.85394" lon="-3.46474">
        <ele>44</ele>
        <time>2019-07-17T15:09:42Z</time>
      </trkpt>
      <trkpt lat="47.85389" lon="-3.46475">
        <ele>44</ele>
        <time>2019-07-17T15:09:43Z</time>
      </trkpt>
      <trkpt lat="47.85384" lon="-3.46475">
        <ele>44</ele>
        <time>2019-07-17T15:09:44Z</time>
      </trkpt>
      <trkpt lat="47.85379" lon="-3.46476">
        <ele>44</ele>
        <time>2019-07-17T15:09:45Z</time>
      </trkpt>
      <trkpt lat="47.85373" lon="-3.46477">
        <ele>44</ele>
        <time>2019-07-17T15:09:46Z</time>
      </trkpt>
      <trkpt lat="47.85368" lon="-3.46478">
        <ele>44</ele>
        <time>2019-07-17T15:09:47Z</time>
      </trkpt>
      <trkpt lat="47.85363" lon="-3.46478">
        <ele>44</ele>
        <time>2019-07-17T15:09:48Z</time>
      </trkpt>
      <trkpt lat="47.85358" lon="-3.46479">
        <ele>44</ele>
        <time>2019-07-17T15:09:49Z</time>
      </trkpt>
      <trkpt lat="47.85352" lon="-3.46479">
        <ele>45</ele>
        <time>2019-07-17T15:09:50Z</time>
      </trkpt>
      <trkpt lat="47.85348" lon="-3.46479">
        <ele>45</ele>
        <time>2019-07-17T15:09:51Z</time>
      </trkpt>
      <trkpt lat="47.85342" lon="-3.4648">
        <ele>45</ele>
        <time>2019-07-17T15:09:52Z</time>
      </trkpt>
      <trkpt lat="47.85338" lon="-3.4648">
        <ele>45</ele>
        <time>2019-07-17T15:09:53Z</time>
      </trkpt>
      <trkpt lat="47.85333" lon="-3.46481">
        <ele>45</ele>
        <time>2019-07-17T15:09:54Z</time>
      </trkpt>
      <trkpt lat="47.85328" lon="-3.46482">
        <ele>45</ele>
        <time>2019-07-17T15:09:55Z</time>
      </trkpt>
      <trkpt lat="47.85323" lon="-3.46483">
        <ele>45</ele>
        <time>2019-07-17T15:09:56Z</time>
      </trkpt>
      <trkpt lat="47.85319" lon="-3.46484">
        <ele>45</ele>
        <time>2019-07-17T15:09:57Z</time>
      </trkpt>
      <trkpt lat="47.85314" lon="-3.46485">
        <ele>45</ele>
        <time>2019-07-17T15:09:58Z</time>
      </trkpt>
      <trkpt lat="47.85309" lon="-3.46487">
        <ele>45</ele>
        <time>2019-07-17T15:09:59Z</time>
      </trkpt>
      <trkpt lat="47.85304" lon="-3.46488">
        <ele>45</ele>
        <time>2019-07-17T15:10:00Z</time>
      </trkpt>
      <trkpt lat="47.85299" lon="-3.4649">
        <ele>45</ele>
        <time>2019-07-17T15:10:01Z</time>
      </trkpt>
      <trkpt lat="47.85294" lon="-3.46492">
        <ele>45</ele>
        <time>2019-07-17T15:10:02Z</time>
      </trkpt>
      <trkpt lat="47.85289" lon="-3.46495">
        <ele>45</ele>
        <time>2019-07-17T15:10:03Z</time>
      </trkpt>
      <trkpt lat="47.85283" lon="-3.46497">
        <ele>45</ele>
        <time>2019-07-17T15:10:04Z</time>
      </trkpt>
      <trkpt lat="47.85278" lon="-3.46499">
        <ele>45</ele>
        <time>2019-07-17T15:10:05Z</time>
      </trkpt>
      <trkpt lat="47.85273" lon="-3.46502">
        <ele>45</ele>
        <time>2019-07-17T15:10:06Z</time>
      </trkpt>
      <trkpt lat="47.85267" lon="-3.46504">
        <ele>45</ele>
        <time>2019-07-17T15:10:07Z</time>
      </trkpt>
      <trkpt lat="47.85261" lon="-3.46507">
        <ele>45</ele>
        <time>2019-07-17T15:10:08Z</time>
      </trkpt>
      <trkpt lat="47.85256" lon="-3.4651">
        <ele>45</ele>
        <time>2019-07-17T15:10:09Z</time>
      </trkpt>
      <trkpt lat="47.8525" lon="-3.46513">
        <ele>45</ele>
        <time>2019-07-17T15:10:10Z</time>
      </trkpt>
      <trkpt lat="47.85244" lon="-3.46515">
        <ele>45</ele>
        <time>2019-07-17T15:10:11Z</time>
      </trkpt>
      <trkpt lat="47.85238" lon="-3.46518">
        <ele>45</ele>
        <time>2019-07-17T15:10:12Z</time>
      </trkpt>
      <trkpt lat="47.85233" lon="-3.4652">
        <ele>45</ele>
        <time>2019-07-17T15:10:13Z</time>
      </trkpt>
      <trkpt lat="47.85227" lon="-3.46523">
        <ele>45</ele>
        <time>2019-07-17T15:10:14Z</time>
      </trkpt>
      <trkpt lat="47.85221" lon="-3.46525">
        <ele>45</ele>
        <time>2019-07-17T15:10:15Z</time>
      </trkpt>
      <trkpt lat="47.85216" lon="-3.46528">
        <ele>45</ele>
        <time>2019-07-17T15:10:16Z</time>
      </trkpt>
      <trkpt lat="47.8521" lon="-3.46531">
        <ele>45</ele>
        <time>2019-07-17T15:10:17Z</time>
      </trkpt>
      <trkpt lat="47.85204" lon="-3.46534">
        <ele>45</ele>
        <time>2019-07-17T15:10:18Z</time>
      </trkpt>
      <trkpt lat="47.85198" lon="-3.46537">
        <ele>45</ele>
        <time>2019-07-17T15:10:19Z</time>
      </trkpt>
      <trkpt lat="47.85192" lon="-3.4654">
        <ele>45</ele>
        <time>2019-07-17T15:10:20Z</time>
      </trkpt>
      <trkpt lat="47.85186" lon="-3.46542">
        <ele>46</ele>
        <time>2019-07-17T15:10:21Z</time>
      </trkpt>
      <trkpt lat="47.8518" lon="-3.46544">
        <ele>46</ele>
        <time>2019-07-17T15:10:22Z</time>
      </trkpt>
      <trkpt lat="47.85174" lon="-3.46547">
        <ele>46</ele>
        <time>2019-07-17T15:10:23Z</time>
      </trkpt>
      <trkpt lat="47.85168" lon="-3.46548">
        <ele>46</ele>
        <time>2019-07-17T15:10:24Z</time>
      </trkpt>
      <trkpt lat="47.85161" lon="-3.46549">
        <ele>46</ele>
        <time>2019-07-17T15:10:25Z</time>
      </trkpt>
      <trkpt lat="47.85155" lon="-3.46551">
        <ele>46</ele>
        <time>2019-07-17T15:10:26Z</time>
      </trkpt>
      <trkpt lat="47.85149" lon="-3.46552">
        <ele>46</ele>
        <time>2019-07-17T15:10:27Z</time>
      </trkpt>
      <trkpt lat="47.85142" lon="-3.46553">
        <ele>45</ele>
        <time>2019-07-17T15:10:28Z</time>
      </trkpt>
      <trkpt lat="47.85136" lon="-3.46554">
        <ele>45</ele>
        <time>2019-07-17T15:10:29Z</time>
      </trkpt>
      <trkpt lat="47.85129" lon="-3.46554">
        <ele>45</ele>
        <time>2019-07-17T15:10:30Z</time>
      </trkpt>
      <trkpt lat="47.85123" lon="-3.46555">
        <ele>45</ele>
        <time>2019-07-17T15:10:31Z</time>
      </trkpt>
      <trkpt lat="47.85116" lon="-3.46555">
        <ele>45</ele>
        <time>2019-07-17T15:10:32Z</time>
      </trkpt>
      <trkpt lat="47.8511" lon="-3.46555">
        <ele>45</ele>
        <time>2019-07-17T15:10:33Z</time>
      </trkpt>
      <trkpt lat="47.85103" lon="-3.46555">
        <ele>45</ele>
        <time>2019-07-17T15:10:34Z</time>
      </trkpt>
      <trkpt lat="47.85097" lon="-3.46554">
        <ele>45</ele>
        <time>2019-07-17T15:10:35Z</time>
      </trkpt>
      <trkpt lat="47.85091" lon="-3.46553">
        <ele>45</ele>
        <time>2019-07-17T15:10:36Z</time>
      </trkpt>
      <trkpt lat="47.85085" lon="-3.46551">
        <ele>45</ele>
        <time>2019-07-17T15:10:37Z</time>
      </trkpt>
      <trkpt lat="47.85078" lon="-3.4655">
        <ele>44</ele>
        <time>2019-07-17T15:10:38Z</time>
      </trkpt>
      <trkpt lat="47.85072" lon="-3.46547">
        <ele>44</ele>
        <time>2019-07-17T15:10:39Z</time>
      </trkpt>
      <trkpt lat="47.85065" lon="-3.46544">
        <ele>44</ele>
        <time>2019-07-17T15:10:40Z</time>
      </trkpt>
      <trkpt lat="47.85059" lon="-3.4654">
        <ele>44</ele>
        <time>2019-07-17T15:10:41Z</time>
      </trkpt>
      <trkpt lat="47.85053" lon="-3.46537">
        <ele>43</ele>
        <time>2019-07-17T15:10:42Z</time>
      </trkpt>
      <trkpt lat="47.85047" lon="-3.46533">
        <ele>43</ele>
        <time>2019-07-17T15:10:43Z</time>
      </trkpt>
      <trkpt lat="47.8504" lon="-3.46531">
        <ele>43</ele>
        <time>2019-07-17T15:10:44Z</time>
      </trkpt>
      <trkpt lat="47.85034" lon="-3.46531">
        <ele>42</ele>
        <time>2019-07-17T15:10:45Z</time>
      </trkpt>
      <trkpt lat="47.85029" lon="-3.46533">
        <ele>42</ele>
        <time>2019-07-17T15:10:46Z</time>
      </trkpt>
      <trkpt lat="47.85025" lon="-3.46538">
        <ele>42</ele>
        <time>2019-07-17T15:10:47Z</time>
      </trkpt>
      <trkpt lat="47.85022" lon="-3.46544">
        <ele>42</ele>
        <time>2019-07-17T15:10:48Z</time>
      </trkpt>
      <trkpt lat="47.85021" lon="-3.4655">
        <ele>42</ele>
        <time>2019-07-17T15:10:49Z</time>
      </trkpt>
      <trkpt lat="47.8502" lon="-3.46557">
        <ele>42</ele>
        <time>2019-07-17T15:10:50Z</time>
      </trkpt>
      <trkpt lat="47.85021" lon="-3.46563">
        <ele>42</ele>
        <time>2019-07-17T15:10:51Z</time>
      </trkpt>
      <trkpt lat="47.85021" lon="-3.4657">
        <ele>42</ele>
        <time>2019-07-17T15:10:52Z</time>
      </trkpt>
      <trkpt lat="47.85022" lon="-3.46577">
        <ele>42</ele>
        <time>2019-07-17T15:10:53Z</time>
      </trkpt>
      <trkpt lat="47.85023" lon="-3.46584">
        <ele>43</ele>
        <time>2019-07-17T15:10:54Z</time>
      </trkpt>
      <trkpt lat="47.85023" lon="-3.46591">
        <ele>43</ele>
        <time>2019-07-17T15:10:55Z</time>
      </trkpt>
      <trkpt lat="47.85024" lon="-3.46598">
        <ele>43</ele>
        <time>2019-07-17T15:10:56Z</time>
      </trkpt>
      <trkpt lat="47.85024" lon="-3.46605">
        <ele>43</ele>
        <time>2019-07-17T15:10:57Z</time>
      </trkpt>
      <trkpt lat="47.85024" lon="-3.46612">
        <ele>43</ele>
        <time>2019-07-17T15:10:58Z</time>
      </trkpt>
      <trkpt lat="47.85025" lon="-3.46619">
        <ele>43</ele>
        <time>2019-07-17T15:10:59Z</time>
      </trkpt>
      <trkpt lat="47.85025" lon="-3.46626">
        <ele>43</ele>
        <time>2019-07-17T15:11:00Z</time>
      </trkpt>
      <trkpt lat="47.85025" lon="-3.46633">
        <ele>43</ele>
        <time>2019-07-17T15:11:01Z</time>
      </trkpt>
      <trkpt lat="47.85025" lon="-3.46641">
        <ele>43</ele>
        <time>2019-07-17T15:11:02Z</time>
      </trkpt>
      <trkpt lat="47.85023" lon="-3.46647">
        <ele>43</ele>
        <time>2019-07-17T15:11:03Z</time>
      </trkpt>
      <trkpt lat="47.85021" lon="-3.46651">
        <ele>43</ele>
        <time>2019-07-17T15:11:04Z</time>
      </trkpt>
      <trkpt lat="47.85017" lon="-3.46652">
        <ele>43</ele>
        <time>2019-07-17T15:11:05Z</time>
      </trkpt>
      <trkpt lat="47.85012" lon="-3.4665">
        <ele>43</ele>
        <time>2019-07-17T15:11:06Z</time>
      </trkpt>
      <trkpt lat="47.85007" lon="-3.46647">
        <ele>42</ele>
        <time>2019-07-17T15:11:07Z</time>
      </trkpt>
      <trkpt lat="47.85002" lon="-3.46643">
        <ele>42</ele>
        <time>2019-07-17T15:11:08Z</time>
      </trkpt>
      <trkpt lat="47.84997" lon="-3.46638">
        <ele>42</ele>
        <time>2019-07-17T15:11:09Z</time>
      </trkpt>
      <trkpt lat="47.84991" lon="-3.46632">
        <ele>41</ele>
        <time>2019-07-17T15:11:10Z</time>
      </trkpt>
      <trkpt lat="47.84986" lon="-3.46626">
        <ele>41</ele>
        <time>2019-07-17T15:11:11Z</time>
      </trkpt>
      <trkpt lat="47.8498" lon="-3.46619">
        <ele>41</ele>
        <time>2019-07-17T15:11:12Z</time>
      </trkpt>
      <trkpt lat="47.84975" lon="-3.46613">
        <ele>40</ele>
        <time>2019-07-17T15:11:13Z</time>
      </trkpt>
      <trkpt lat="47.84968" lon="-3.46606">
        <ele>40</ele>
        <time>2019-07-17T15:11:14Z</time>
      </trkpt>
      <trkpt lat="47.84962" lon="-3.46599">
        <ele>40</ele>
        <time>2019-07-17T15:11:15Z</time>
      </trkpt>
      <trkpt lat="47.84955" lon="-3.46593">
        <ele>40</ele>
        <time>2019-07-17T15:11:16Z</time>
      </trkpt>
      <trkpt lat="47.84948" lon="-3.46587">
        <ele>39</ele>
        <time>2019-07-17T15:11:17Z</time>
      </trkpt>
      <trkpt lat="47.8494" lon="-3.46582">
        <ele>39</ele>
        <time>2019-07-17T15:11:18Z</time>
      </trkpt>
      <trkpt lat="47.84932" lon="-3.46577">
        <ele>38</ele>
        <time>2019-07-17T15:11:19Z</time>
      </trkpt>
      <trkpt lat="47.84923" lon="-3.46574">
        <ele>38</ele>
        <time>2019-07-17T15:11:20Z</time>
      </trkpt>
      <trkpt lat="47.84913" lon="-3.46573">
        <ele>37</ele>
        <time>2019-07-17T15:11:21Z</time>
      </trkpt>
      <trkpt lat="47.84904" lon="-3.46573">
        <ele>37</ele>
        <time>2019-07-17T15:11:22Z</time>
      </trkpt>
      <trkpt lat="47.84894" lon="-3.46574">
        <ele>36</ele>
        <time>2019-07-17T15:11:23Z</time>
      </trkpt>
      <trkpt lat="47.84883" lon="-3.46577">
        <ele>35</ele>
        <time>2019-07-17T15:11:24Z</time>
      </trkpt>
      <trkpt lat="47.84873" lon="-3.46579">
        <ele>34</ele>
        <time>2019-07-17T15:11:25Z</time>
      </trkpt>
      <trkpt lat="47.84863" lon="-3.46581">
        <ele>33</ele>
        <time>2019-07-17T15:11:26Z</time>
      </trkpt>
      <trkpt lat="47.84852" lon="-3.46584">
        <ele>32</ele>
        <time>2019-07-17T15:11:27Z</time>
      </trkpt>
      <trkpt lat="47.84841" lon="-3.46587">
        <ele>31</ele>
        <time>2019-07-17T15:11:28Z</time>
      </trkpt>
      <trkpt lat="47.84831" lon="-3.4659">
        <ele>30</ele>
        <time>2019-07-17T15:11:29Z</time>
      </trkpt>
      <trkpt lat="47.8482" lon="-3.46593">
        <ele>29</ele>
        <time>2019-07-17T15:11:30Z</time>
      </trkpt>
      <trkpt lat="47.8481" lon="-3.46598">
        <ele>28</ele>
        <time>2019-07-17T15:11:31Z</time>
      </trkpt>
      <trkpt lat="47.848" lon="-3.46604">
        <ele>27</ele>
        <time>2019-07-17T15:11:32Z</time>
      </trkpt>
      <trkpt lat="47.84791" lon="-3.46611">
        <ele>26</ele>
        <time>2019-07-17T15:11:33Z</time>
      </trkpt>
      <trkpt lat="47.84782" lon="-3.46619">
        <ele>25</ele>
        <time>2019-07-17T15:11:34Z</time>
      </trkpt>
      <trkpt lat="47.84774" lon="-3.46628">
        <ele>25</ele>
        <time>2019-07-17T15:11:35Z</time>
      </trkpt>
      <trkpt lat="47.84767" lon="-3.46637">
        <ele>24</ele>
        <time>2019-07-17T15:11:36Z</time>
      </trkpt>
      <trkpt lat="47.8476" lon="-3.46647">
        <ele>24</ele>
        <time>2019-07-17T15:11:37Z</time>
      </trkpt>
      <trkpt lat="47.84753" lon="-3.46656">
        <ele>24</ele>
        <time>2019-07-17T15:11:38Z</time>
      </trkpt>
      <trkpt lat="47.84747" lon="-3.46664">
        <ele>24</ele>
        <time>2019-07-17T15:11:39Z</time>
      </trkpt>
      <trkpt lat="47.84741" lon="-3.46673">
        <ele>24</ele>
        <time>2019-07-17T15:11:40Z</time>
      </trkpt>
      <trkpt lat="47.84734" lon="-3.46681">
        <ele>24</ele>
        <time>2019-07-17T15:11:41Z</time>
      </trkpt>
      <trkpt lat="47.84729" lon="-3.46688">
        <ele>24</ele>
        <time>2019-07-17T15:11:42Z</time>
      </trkpt>
      <trkpt lat="47.84723" lon="-3.46695">
        <ele>24</ele>
        <time>2019-07-17T15:11:43Z</time>
      </trkpt>
      <trkpt lat="47.84718" lon="-3.46701">
        <ele>24</ele>
        <time>2019-07-17T15:11:44Z</time>
      </trkpt>
      <trkpt lat="47.84714" lon="-3.46706">
        <ele>24</ele>
        <time>2019-07-17T15:11:45Z</time>
      </trkpt>
      <trkpt lat="47.84709" lon="-3.46711">
        <ele>24</ele>
        <time>2019-07-17T15:11:46Z</time>
      </trkpt>
      <trkpt lat="47.84705" lon="-3.46716">
        <ele>24</ele>
        <time>2019-07-17T15:11:47Z</time>
      </trkpt>
      <trkpt lat="47.84701" lon="-3.46722">
        <ele>24</ele>
        <time>2019-07-17T15:11:48Z</time>
      </trkpt>
      <trkpt lat="47.84696" lon="-3.46727">
        <ele>24</ele>
        <time>2019-07-17T15:11:49Z</time>
      </trkpt>
      <trkpt lat="47.84691" lon="-3.46732">
        <ele>24</ele>
        <time>2019-07-17T15:11:50Z</time>
      </trkpt>
      <trkpt lat="47.84687" lon="-3.46737">
        <ele>24</ele>
        <time>2019-07-17T15:11:51Z</time>
      </trkpt>
      <trkpt lat="47.84683" lon="-3.46743">
        <ele>24</ele>
        <time>2019-07-17T15:11:52Z</time>
      </trkpt>
      <trkpt lat="47.84678" lon="-3.46748">
        <ele>24</ele>
        <time>2019-07-17T15:11:53Z</time>
      </trkpt>
      <trkpt lat="47.84674" lon="-3.46754">
        <ele>24</ele>
        <time>2019-07-17T15:11:54Z</time>
      </trkpt>
      <trkpt lat="47.8467" lon="-3.4676">
        <ele>25</ele>
        <time>2019-07-17T15:11:55Z</time>
      </trkpt>
      <trkpt lat="47.84666" lon="-3.46765">
        <ele>25</ele>
        <time>2019-07-17T15:11:56Z</time>
      </trkpt>
      <trkpt lat="47.84662" lon="-3.4677">
        <ele>25</ele>
        <time>2019-07-17T15:11:57Z</time>
      </trkpt>
      <trkpt lat="47.84658" lon="-3.46776">
        <ele>25</ele>
        <time>2019-07-17T15:11:58Z</time>
      </trkpt>
      <trkpt lat="47.84654" lon="-3.4678">
        <ele>26</ele>
        <time>2019-07-17T15:11:59Z</time>
      </trkpt>
      <trkpt lat="47.8465" lon="-3.46786">
        <ele>26</ele>
        <time>2019-07-17T15:12:00Z</time>
      </trkpt>
      <trkpt lat="47.84646" lon="-3.46791">
        <ele>26</ele>
        <time>2019-07-17T15:12:01Z</time>
      </trkpt>
      <trkpt lat="47.84642" lon="-3.46796">
        <ele>26</ele>
        <time>2019-07-17T15:12:02Z</time>
      </trkpt>
      <trkpt lat="47.84639" lon="-3.46802">
        <ele>26</ele>
        <time>2019-07-17T15:12:03Z</time>
      </trkpt>
      <trkpt lat="47.84635" lon="-3.46807">
        <ele>26</ele>
        <time>2019-07-17T15:12:04Z</time>
      </trkpt>
      <trkpt lat="47.8463" lon="-3.46812">
        <ele>27</ele>
        <time>2019-07-17T15:12:05Z</time>
      </trkpt>
      <trkpt lat="47.84626" lon="-3.46818">
        <ele>27</ele>
        <time>2019-07-17T15:12:06Z</time>
      </trkpt>
      <trkpt lat="47.84622" lon="-3.46824">
        <ele>27</ele>
        <time>2019-07-17T15:12:07Z</time>
      </trkpt>
      <trkpt lat="47.84617" lon="-3.46831">
        <ele>27</ele>
        <time>2019-07-17T15:12:08Z</time>
      </trkpt>
      <trkpt lat="47.84613" lon="-3.46837">
        <ele>27</ele>
        <time>2019-07-17T15:12:09Z</time>
      </trkpt>
      <trkpt lat="47.84608" lon="-3.46845">
        <ele>27</ele>
        <time>2019-07-17T15:12:10Z</time>
      </trkpt>
      <trkpt lat="47.84603" lon="-3.46852">
        <ele>27</ele>
        <time>2019-07-17T15:12:11Z</time>
      </trkpt>
      <trkpt lat="47.84599" lon="-3.4686">
        <ele>27</ele>
        <time>2019-07-17T15:12:12Z</time>
      </trkpt>
      <trkpt lat="47.84595" lon="-3.46868">
        <ele>27</ele>
        <time>2019-07-17T15:12:13Z</time>
      </trkpt>
      <trkpt lat="47.84591" lon="-3.46877">
        <ele>27</ele>
        <time>2019-07-17T15:12:14Z</time>
      </trkpt>
      <trkpt lat="47.84587" lon="-3.46886">
        <ele>27</ele>
        <time>2019-07-17T15:12:15Z</time>
      </trkpt>
      <trkpt lat="47.84584" lon="-3.46895">
        <ele>27</ele>
        <time>2019-07-17T15:12:16Z</time>
      </trkpt>
      <trkpt lat="47.84581" lon="-3.46905">
        <ele>27</ele>
        <time>2019-07-17T15:12:17Z</time>
      </trkpt>
      <trkpt lat="47.84578" lon="-3.46914">
        <ele>27</ele>
        <time>2019-07-17T15:12:18Z</time>
      </trkpt>
      <trkpt lat="47.84576" lon="-3.46923">
        <ele>28</ele>
        <time>2019-07-17T15:12:19Z</time>
      </trkpt>
      <trkpt lat="47.84573" lon="-3.46932">
        <ele>28</ele>
        <time>2019-07-17T15:12:20Z</time>
      </trkpt>
      <trkpt lat="47.8457" lon="-3.46941">
        <ele>28</ele>
        <time>2019-07-17T15:12:21Z</time>
      </trkpt>
      <trkpt lat="47.84567" lon="-3.4695">
        <ele>28</ele>
        <time>2019-07-17T15:12:22Z</time>
      </trkpt>
      <trkpt lat="47.84564" lon="-3.46958">
        <ele>28</ele>
        <time>2019-07-17T15:12:23Z</time>
      </trkpt>
      <trkpt lat="47.8456" lon="-3.46966">
        <ele>28</ele>
        <time>2019-07-17T15:12:24Z</time>
      </trkpt>
      <trkpt lat="47.84556" lon="-3.46974">
        <ele>28</ele>
        <time>2019-07-17T15:12:25Z</time>
      </trkpt>
      <trkpt lat="47.84552" lon="-3.46981">
        <ele>29</ele>
        <time>2019-07-17T15:12:26Z</time>
      </trkpt>
      <trkpt lat="47.84547" lon="-3.46988">
        <ele>29</ele>
        <time>2019-07-17T15:12:27Z</time>
      </trkpt>
      <trkpt lat="47.84542" lon="-3.46995">
        <ele>29</ele>
        <time>2019-07-17T15:12:28Z</time>
      </trkpt>
      <trkpt lat="47.84536" lon="-3.47001">
        <ele>29</ele>
        <time>2019-07-17T15:12:29Z</time>
      </trkpt>
      <trkpt lat="47.8453" lon="-3.47007">
        <ele>29</ele>
        <time>2019-07-17T15:12:30Z</time>
      </trkpt>
      <trkpt lat="47.84524" lon="-3.47012">
        <ele>29</ele>
        <time>2019-07-17T15:12:31Z</time>
      </trkpt>
      <trkpt lat="47.84518" lon="-3.47017">
        <ele>29</ele>
        <time>2019-07-17T15:12:32Z</time>
      </trkpt>
      <trkpt lat="47.84511" lon="-3.4702">
        <ele>29</ele>
        <time>2019-07-17T15:12:33Z</time>
      </trkpt>
      <trkpt lat="47.84505" lon="-3.47023">
        <ele>29</ele>
        <time>2019-07-17T15:12:34Z</time>
      </trkpt>
      <trkpt lat="47.84499" lon="-3.47025">
        <ele>29</ele>
        <time>2019-07-17T15:12:35Z</time>
      </trkpt>
      <trkpt lat="47.84492" lon="-3.47026">
        <ele>29</ele>
        <time>2019-07-17T15:12:36Z</time>
      </trkpt>
      <trkpt lat="47.84486" lon="-3.47026">
        <ele>29</ele>
        <time>2019-07-17T15:12:37Z</time>
      </trkpt>
      <trkpt lat="47.84478" lon="-3.47027">
        <ele>29</ele>
        <time>2019-07-17T15:12:38Z</time>
      </trkpt>
      <trkpt lat="47.84471" lon="-3.47027">
        <ele>29</ele>
        <time>2019-07-17T15:12:39Z</time>
      </trkpt>
      <trkpt lat="47.84463" lon="-3.47027">
        <ele>29</ele>
        <time>2019-07-17T15:12:40Z</time>
      </trkpt>
      <trkpt lat="47.84455" lon="-3.47027">
        <ele>29</ele>
        <time>2019-07-17T15:12:41Z</time>
      </trkpt>
      <trkpt lat="47.84446" lon="-3.47027">
        <ele>28</ele>
        <time>2019-07-17T15:12:42Z</time>
      </trkpt>
      <trkpt lat="47.84439" lon="-3.4703">
        <ele>28</ele>
        <time>2019-07-17T15:12:43Z</time>
      </trkpt>
      <trkpt lat="47.84432" lon="-3.47035">
        <ele>27</ele>
        <time>2019-07-17T15:12:44Z</time>
      </trkpt>
      <trkpt lat="47.84425" lon="-3.47041">
        <ele>27</ele>
        <time>2019-07-17T15:12:45Z</time>
      </trkpt>
      <trkpt lat="47.84418" lon="-3.47049">
        <ele>27</ele>
        <time>2019-07-17T15:12:46Z</time>
      </trkpt>
      <trkpt lat="47.84412" lon="-3.47056">
        <ele>27</ele>
        <time>2019-07-17T15:12:47Z</time>
      </trkpt>
      <trkpt lat="47.84406" lon="-3.47063">
        <ele>27</ele>
        <time>2019-07-17T15:12:48Z</time>
      </trkpt>
      <trkpt lat="47.844" lon="-3.47071">
        <ele>26</ele>
        <time>2019-07-17T15:12:49Z</time>
      </trkpt>
      <trkpt lat="47.84394" lon="-3.47079">
        <ele>26</ele>
        <time>2019-07-17T15:12:50Z</time>
      </trkpt>
      <trkpt lat="47.84388" lon="-3.47085">
        <ele>26</ele>
        <time>2019-07-17T15:12:51Z</time>
      </trkpt>
      <trkpt lat="47.84383" lon="-3.47093">
        <ele>26</ele>
        <time>2019-07-17T15:12:52Z</time>
      </trkpt>
      <trkpt lat="47.84378" lon="-3.47101">
        <ele>26</ele>
        <time>2019-07-17T15:12:53Z</time>
      </trkpt>
      <trkpt lat="47.84375" lon="-3.47109">
        <ele>26</ele>
        <time>2019-07-17T15:12:54Z</time>
      </trkpt>
      <trkpt lat="47.84373" lon="-3.47118">
        <ele>26</ele>
        <time>2019-07-17T15:12:55Z</time>
      </trkpt>
      <trkpt lat="47.84373" lon="-3.47127">
        <ele>26</ele>
        <time>2019-07-17T15:12:56Z</time>
      </trkpt>
      <trkpt lat="47.84373" lon="-3.47135">
        <ele>26</ele>
        <time>2019-07-17T15:12:57Z</time>
      </trkpt>
      <trkpt lat="47.84373" lon="-3.47144">
        <ele>27</ele>
        <time>2019-07-17T15:12:58Z</time>
      </trkpt>
      <trkpt lat="47.84374" lon="-3.47151">
        <ele>27</ele>
        <time>2019-07-17T15:12:59Z</time>
      </trkpt>
      <trkpt lat="47.84375" lon="-3.4716">
        <ele>27</ele>
        <time>2019-07-17T15:13:00Z</time>
      </trkpt>
      <trkpt lat="47.84375" lon="-3.47168">
        <ele>27</ele>
        <time>2019-07-17T15:13:01Z</time>
      </trkpt>
      <trkpt lat="47.84376" lon="-3.47176">
        <ele>27</ele>
        <time>2019-07-17T15:13:02Z</time>
      </trkpt>
      <trkpt lat="47.84376" lon="-3.47184">
        <ele>27</ele>
        <time>2019-07-17T15:13:03Z</time>
      </trkpt>
      <trkpt lat="47.84377" lon="-3.47193">
        <ele>26</ele>
        <time>2019-07-17T15:13:04Z</time>
      </trkpt>
      <trkpt lat="47.84378" lon="-3.47201">
        <ele>26</ele>
        <time>2019-07-17T15:13:05Z</time>
      </trkpt>
      <trkpt lat="47.84379" lon="-3.47209">
        <ele>27</ele>
        <time>2019-07-17T15:13:06Z</time>
      </trkpt>
      <trkpt lat="47.8438" lon="-3.47218">
        <ele>27</ele>
        <time>2019-07-17T15:13:07Z</time>
      </trkpt>
      <trkpt lat="47.84381" lon="-3.47226">
        <ele>27</ele>
        <time>2019-07-17T15:13:08Z</time>
      </trkpt>
      <trkpt lat="47.84382" lon="-3.47233">
        <ele>27</ele>
        <time>2019-07-17T15:13:09Z</time>
      </trkpt>
      <trkpt lat="47.84382" lon="-3.47241">
        <ele>27</ele>
        <time>2019-07-17T15:13:10Z</time>
      </trkpt>
      <trkpt lat="47.84383" lon="-3.47249">
        <ele>27</ele>
        <time>2019-07-17T15:13:11Z</time>
      </trkpt>
      <trkpt lat="47.84384" lon="-3.47257">
        <ele>27</ele>
        <time>2019-07-17T15:13:12Z</time>
      </trkpt>
      <trkpt lat="47.84384" lon="-3.47266">
        <ele>27</ele>
        <time>2019-07-17T15:13:13Z</time>
      </trkpt>
      <trkpt lat="47.84384" lon="-3.47274">
        <ele>28</ele>
        <time>2019-07-17T15:13:14Z</time>
      </trkpt>
      <trkpt lat="47.84385" lon="-3.47282">
        <ele>28</ele>
        <time>2019-07-17T15:13:15Z</time>
      </trkpt>
      <trkpt lat="47.84385" lon="-3.4729">
        <ele>28</ele>
        <time>2019-07-17T15:13:16Z</time>
      </trkpt>
      <trkpt lat="47.84386" lon="-3.47298">
        <ele>28</ele>
        <time>2019-07-17T15:13:17Z</time>
      </trkpt>
      <trkpt lat="47.84387" lon="-3.47305">
        <ele>29</ele>
        <time>2019-07-17T15:13:18Z</time>
      </trkpt>
      <trkpt lat="47.84388" lon="-3.47313">
        <ele>29</ele>
        <time>2019-07-17T15:13:19Z</time>
      </trkpt>
      <trkpt lat="47.84389" lon="-3.47321">
        <ele>29</ele>
        <time>2019-07-17T15:13:20Z</time>
      </trkpt>
      <trkpt lat="47.8439" lon="-3.47328">
        <ele>29</ele>
        <time>2019-07-17T15:13:21Z</time>
      </trkpt>
      <trkpt lat="47.84391" lon="-3.47337">
        <ele>29</ele>
        <time>2019-07-17T15:13:22Z</time>
      </trkpt>
      <trkpt lat="47.84392" lon="-3.47345">
        <ele>30</ele>
        <time>2019-07-17T15:13:23Z</time>
      </trkpt>
      <trkpt lat="47.84393" lon="-3.47353">
        <ele>30</ele>
        <time>2019-07-17T15:13:24Z</time>
      </trkpt>
      <trkpt lat="47.84394" lon="-3.47362">
        <ele>30</ele>
        <time>2019-07-17T15:13:25Z</time>
      </trkpt>
      <trkpt lat="47.84396" lon="-3.4737">
        <ele>30</ele>
        <time>2019-07-17T15:13:26Z</time>
      </trkpt>
      <trkpt lat="47.84397" lon="-3.47379">
        <ele>30</ele>
        <time>2019-07-17T15:13:27Z</time>
      </trkpt>
      <trkpt lat="47.84398" lon="-3.47387">
        <ele>30</ele>
        <time>2019-07-17T15:13:28Z</time>
      </trkpt>
      <trkpt lat="47.84399" lon="-3.47394">
        <ele>30</ele>
        <time>2019-07-17T15:13:29Z</time>
      </trkpt>
      <trkpt lat="47.844" lon="-3.47401">
        <ele>31</ele>
        <time>2019-07-17T15:13:30Z</time>
      </trkpt>
      <trkpt lat="47.84401" lon="-3.47409">
        <ele>31</ele>
        <time>2019-07-17T15:13:31Z</time>
      </trkpt>
      <trkpt lat="47.84402" lon="-3.47417">
        <ele>31</ele>
        <time>2019-07-17T15:13:32Z</time>
      </trkpt>
      <trkpt lat="47.84403" lon="-3.47425">
        <ele>31</ele>
        <time>2019-07-17T15:13:33Z</time>
      </trkpt>
      <trkpt lat="47.84403" lon="-3.47433">
        <ele>31</ele>
        <time>2019-07-17T15:13:34Z</time>
      </trkpt>
      <trkpt lat="47.84403" lon="-3.47441">
        <ele>31</ele>
        <time>2019-07-17T15:13:35Z</time>
      </trkpt>
      <trkpt lat="47.84403" lon="-3.47449">
        <ele>31</ele>
        <time>2019-07-17T15:13:36Z</time>
      </trkpt>
      <trkpt lat="47.84404" lon="-3.47458">
        <ele>31</ele>
        <time>2019-07-17T15:13:37Z</time>
      </trkpt>
      <trkpt lat="47.84403" lon="-3.47466">
        <ele>31</ele>
        <time>2019-07-17T15:13:38Z</time>
      </trkpt>
      <trkpt lat="47.84402" lon="-3.47473">
        <ele>32</ele>
        <time>2019-07-17T15:13:39Z</time>
      </trkpt>
      <trkpt lat="47.844" lon="-3.4748">
        <ele>32</ele>
        <time>2019-07-17T15:13:40Z</time>
      </trkpt>
      <trkpt lat="47.84398" lon="-3.47487">
        <ele>32</ele>
        <time>2019-07-17T15:13:41Z</time>
      </trkpt>
      <trkpt lat="47.84394" lon="-3.47495">
        <ele>32</ele>
        <time>2019-07-17T15:13:42Z</time>
      </trkpt>
      <trkpt lat="47.84391" lon="-3.47502">
        <ele>32</ele>
        <time>2019-07-17T15:13:43Z</time>
      </trkpt>
      <trkpt lat="47.84387" lon="-3.47509">
        <ele>32</ele>
        <time>2019-07-17T15:13:44Z</time>
      </trkpt>
      <trkpt lat="47.84383" lon="-3.47516">
        <ele>32</ele>
        <time>2019-07-17T15:13:45Z</time>
      </trkpt>
      <trkpt lat="47.84379" lon="-3.47522">
        <ele>32</ele>
        <time>2019-07-17T15:13:46Z</time>
      </trkpt>
      <trkpt lat="47.84375" lon="-3.47528">
        <ele>32</ele>
        <time>2019-07-17T15:13:47Z</time>
      </trkpt>
      <trkpt lat="47.84371" lon="-3.47535">
        <ele>33</ele>
        <time>2019-07-17T15:13:48Z</time>
      </trkpt>
      <trkpt lat="47.84367" lon="-3.47541">
        <ele>33</ele>
        <time>2019-07-17T15:13:49Z</time>
      </trkpt>
      <trkpt lat="47.84363" lon="-3.47548">
        <ele>33</ele>
        <time>2019-07-17T15:13:50Z</time>
      </trkpt>
      <trkpt lat="47.8436" lon="-3.47554">
        <ele>33</ele>
        <time>2019-07-17T15:13:51Z</time>
      </trkpt>
      <trkpt lat="47.84356" lon="-3.4756">
        <ele>34</ele>
        <time>2019-07-17T15:13:52Z</time>
      </trkpt>
      <trkpt lat="47.84353" lon="-3.47567">
        <ele>34</ele>
        <time>2019-07-17T15:13:53Z</time>
      </trkpt>
      <trkpt lat="47.84349" lon="-3.47574">
        <ele>34</ele>
        <time>2019-07-17T15:13:54Z</time>
      </trkpt>
      <trkpt lat="47.84346" lon="-3.47581">
        <ele>34</ele>
        <time>2019-07-17T15:13:55Z</time>
      </trkpt>
      <trkpt lat="47.84343" lon="-3.47589">
        <ele>34</ele>
        <time>2019-07-17T15:13:56Z</time>
      </trkpt>
      <trkpt lat="47.8434" lon="-3.47596">
        <ele>34</ele>
        <time>2019-07-17T15:13:57Z</time>
      </trkpt>
      <trkpt lat="47.84337" lon="-3.47604">
        <ele>35</ele>
        <time>2019-07-17T15:13:58Z</time>
      </trkpt>
      <trkpt lat="47.84335" lon="-3.47612">
        <ele>35</ele>
        <time>2019-07-17T15:13:59Z</time>
      </trkpt>
      <trkpt lat="47.84333" lon="-3.4762">
        <ele>35</ele>
        <time>2019-07-17T15:14:00Z</time>
      </trkpt>
      <trkpt lat="47.84331" lon="-3.47627">
        <ele>35</ele>
        <time>2019-07-17T15:14:01Z</time>
      </trkpt>
      <trkpt lat="47.84329" lon="-3.47635">
        <ele>35</ele>
        <time>2019-07-17T15:14:02Z</time>
      </trkpt>
      <trkpt lat="47.84327" lon="-3.47642">
        <ele>35</ele>
        <time>2019-07-17T15:14:03Z</time>
      </trkpt>
      <trkpt lat="47.84324" lon="-3.4765">
        <ele>35</ele>
        <time>2019-07-17T15:14:04Z</time>
      </trkpt>
      <trkpt lat="47.84323" lon="-3.47657">
        <ele>36</ele>
        <time>2019-07-17T15:14:05Z</time>
      </trkpt>
      <trkpt lat="47.84321" lon="-3.47664">
        <ele>36</ele>
        <time>2019-07-17T15:14:06Z</time>
      </trkpt>
      <trkpt lat="47.84318" lon="-3.4767">
        <ele>36</ele>
        <time>2019-07-17T15:14:07Z</time>
      </trkpt>
      <trkpt lat="47.84315" lon="-3.47677">
        <ele>36</ele>
        <time>2019-07-17T15:14:08Z</time>
      </trkpt>
      <trkpt lat="47.84312" lon="-3.47684">
        <ele>36</ele>
        <time>2019-07-17T15:14:09Z</time>
      </trkpt>
      <trkpt lat="47.84309" lon="-3.4769">
        <ele>36</ele>
        <time>2019-07-17T15:14:10Z</time>
      </trkpt>
      <trkpt lat="47.84305" lon="-3.47697">
        <ele>36</ele>
        <time>2019-07-17T15:14:11Z</time>
      </trkpt>
      <trkpt lat="47.84301" lon="-3.47702">
        <ele>37</ele>
        <time>2019-07-17T15:14:12Z</time>
      </trkpt>
      <trkpt lat="47.84297" lon="-3.47708">
        <ele>37</ele>
        <time>2019-07-17T15:14:13Z</time>
      </trkpt>
      <trkpt lat="47.84292" lon="-3.47714">
        <ele>37</ele>
        <time>2019-07-17T15:14:14Z</time>
      </trkpt>
      <trkpt lat="47.84288" lon="-3.4772">
        <ele>37</ele>
        <time>2019-07-17T15:14:15Z</time>
      </trkpt>
      <trkpt lat="47.84284" lon="-3.47725">
        <ele>37</ele>
        <time>2019-07-17T15:14:16Z</time>
      </trkpt>
      <trkpt lat="47.84279" lon="-3.47731">
        <ele>37</ele>
        <time>2019-07-17T15:14:17Z</time>
      </trkpt>
      <trkpt lat="47.84274" lon="-3.47737">
        <ele>38</ele>
        <time>2019-07-17T15:14:18Z</time>
      </trkpt>
      <trkpt lat="47.84269" lon="-3.47742">
        <ele>37</ele>
        <time>2019-07-17T15:14:19Z</time>
      </trkpt>
      <trkpt lat="47.84265" lon="-3.47749">
        <ele>37</ele>
        <time>2019-07-17T15:14:20Z</time>
      </trkpt>
      <trkpt lat="47.84261" lon="-3.47756">
        <ele>37</ele>
        <time>2019-07-17T15:14:21Z</time>
      </trkpt>
      <trkpt lat="47.84256" lon="-3.47762">
        <ele>37</ele>
        <time>2019-07-17T15:14:22Z</time>
      </trkpt>
      <trkpt lat="47.84252" lon="-3.47769">
        <ele>37</ele>
        <time>2019-07-17T15:14:23Z</time>
      </trkpt>
      <trkpt lat="47.84248" lon="-3.47777">
        <ele>37</ele>
        <time>2019-07-17T15:14:24Z</time>
      </trkpt>
      <trkpt lat="47.84244" lon="-3.47784">
        <ele>37</ele>
        <time>2019-07-17T15:14:25Z</time>
      </trkpt>
      <trkpt lat="47.8424" lon="-3.47791">
        <ele>37</ele>
        <time>2019-07-17T15:14:26Z</time>
      </trkpt>
      <trkpt lat="47.84236" lon="-3.47799">
        <ele>37</ele>
        <time>2019-07-17T15:14:27Z</time>
      </trkpt>
      <trkpt lat="47.84233" lon="-3.47807">
        <ele>37</ele>
        <time>2019-07-17T15:14:28Z</time>
      </trkpt>
      <trkpt lat="47.8423" lon="-3.47815">
        <ele>37</ele>
        <time>2019-07-17T15:14:29Z</time>
      </trkpt>
      <trkpt lat="47.84226" lon="-3.47824">
        <ele>37</ele>
        <time>2019-07-17T15:14:30Z</time>
      </trkpt>
      <trkpt lat="47.84223" lon="-3.47833">
        <ele>37</ele>
        <time>2019-07-17T15:14:31Z</time>
      </trkpt>
      <trkpt lat="47.8422" lon="-3.47841">
        <ele>37</ele>
        <time>2019-07-17T15:14:32Z</time>
      </trkpt>
      <trkpt lat="47.84217" lon="-3.47851">
        <ele>37</ele>
        <time>2019-07-17T15:14:33Z</time>
      </trkpt>
      <trkpt lat="47.84214" lon="-3.4786">
        <ele>37</ele>
        <time>2019-07-17T15:14:34Z</time>
      </trkpt>
      <trkpt lat="47.84211" lon="-3.47869">
        <ele>37</ele>
        <time>2019-07-17T15:14:35Z</time>
      </trkpt>
      <trkpt lat="47.84208" lon="-3.47878">
        <ele>37</ele>
        <time>2019-07-17T15:14:36Z</time>
      </trkpt>
      <trkpt lat="47.84205" lon="-3.47887">
        <ele>37</ele>
        <time>2019-07-17T15:14:37Z</time>
      </trkpt>
      <trkpt lat="47.84202" lon="-3.47896">
        <ele>37</ele>
        <time>2019-07-17T15:14:38Z</time>
      </trkpt>
      <trkpt lat="47.84199" lon="-3.47904">
        <ele>37</ele>
        <time>2019-07-17T15:14:39Z</time>
      </trkpt>
      <trkpt lat="47.84196" lon="-3.47913">
        <ele>37</ele>
        <time>2019-07-17T15:14:40Z</time>
      </trkpt>
      <trkpt lat="47.84193" lon="-3.47922">
        <ele>37</ele>
        <time>2019-07-17T15:14:41Z</time>
      </trkpt>
      <trkpt lat="47.84191" lon="-3.47931">
        <ele>37</ele>
        <time>2019-07-17T15:14:42Z</time>
      </trkpt>
      <trkpt lat="47.84188" lon="-3.47939">
        <ele>37</ele>
        <time>2019-07-17T15:14:43Z</time>
      </trkpt>
      <trkpt lat="47.84185" lon="-3.47948">
        <ele>37</ele>
        <time>2019-07-17T15:14:44Z</time>
      </trkpt>
      <trkpt lat="47.84182" lon="-3.47957">
        <ele>37</ele>
        <time>2019-07-17T15:14:45Z</time>
      </trkpt>
      <trkpt lat="47.84179" lon="-3.47965">
        <ele>37</ele>
        <time>2019-07-17T15:14:46Z</time>
      </trkpt>
      <trkpt lat="47.84176" lon="-3.47975">
        <ele>37</ele>
        <time>2019-07-17T15:14:47Z</time>
      </trkpt>
      <trkpt lat="47.84173" lon="-3.47984">
        <ele>37</ele>
        <time>2019-07-17T15:14:48Z</time>
      </trkpt>
      <trkpt lat="47.8417" lon="-3.47992">
        <ele>37</ele>
        <time>2019-07-17T15:14:49Z</time>
      </trkpt>
      <trkpt lat="47.84167" lon="-3.48001">
        <ele>37</ele>
        <time>2019-07-17T15:14:50Z</time>
      </trkpt>
      <trkpt lat="47.84165" lon="-3.48009">
        <ele>37</ele>
        <time>2019-07-17T15:14:51Z</time>
      </trkpt>
      <trkpt lat="47.84163" lon="-3.48017">
        <ele>37</ele>
        <time>2019-07-17T15:14:52Z</time>
      </trkpt>
      <trkpt lat="47.8416" lon="-3.48025">
        <ele>37</ele>
        <time>2019-07-17T15:14:53Z</time>
      </trkpt>
      <trkpt lat="47.84157" lon="-3.48033">
        <ele>37</ele>
        <time>2019-07-17T15:14:54Z</time>
      </trkpt>
      <trkpt lat="47.84155" lon="-3.48041">
        <ele>37</ele>
        <time>2019-07-17T15:14:55Z</time>
      </trkpt>
      <trkpt lat="47.84152" lon="-3.4805">
        <ele>37</ele>
        <time>2019-07-17T15:14:56Z</time>
      </trkpt>
      <trkpt lat="47.8415" lon="-3.48058">
        <ele>37</ele>
        <time>2019-07-17T15:14:57Z</time>
      </trkpt>
      <trkpt lat="47.84147" lon="-3.48066">
        <ele>37</ele>
        <time>2019-07-17T15:14:58Z</time>
      </trkpt>
      <trkpt lat="47.84144" lon="-3.48075">
        <ele>37</ele>
        <time>2019-07-17T15:14:59Z</time>
      </trkpt>
      <trkpt lat="47.84141" lon="-3.48083">
        <ele>37</ele>
        <time>2019-07-17T15:15:00Z</time>
      </trkpt>
      <trkpt lat="47.84138" lon="-3.48092">
        <ele>37</ele>
        <time>2019-07-17T15:15:01Z</time>
      </trkpt>
      <trkpt lat="47.84136" lon="-3.481">
        <ele>37</ele>
        <time>2019-07-17T15:15:02Z</time>
      </trkpt>
      <trkpt lat="47.84133" lon="-3.48109">
        <ele>37</ele>
        <time>2019-07-17T15:15:03Z</time>
      </trkpt>
      <trkpt lat="47.8413" lon="-3.48118">
        <ele>37</ele>
        <time>2019-07-17T15:15:04Z</time>
      </trkpt>
      <trkpt lat="47.84127" lon="-3.48127">
        <ele>37</ele>
        <time>2019-07-17T15:15:05Z</time>
      </trkpt>
      <trkpt lat="47.84124" lon="-3.48136">
        <ele>38</ele>
        <time>2019-07-17T15:15:06Z</time>
      </trkpt>
      <trkpt lat="47.84121" lon="-3.48145">
        <ele>38</ele>
        <time>2019-07-17T15:15:07Z</time>
      </trkpt>
      <trkpt lat="47.84118" lon="-3.48153">
        <ele>38</ele>
        <time>2019-07-17T15:15:08Z</time>
      </trkpt>
      <trkpt lat="47.84115" lon="-3.48162">
        <ele>38</ele>
        <time>2019-07-17T15:15:09Z</time>
      </trkpt>
      <trkpt lat="47.84112" lon="-3.48171">
        <ele>38</ele>
        <time>2019-07-17T15:15:10Z</time>
      </trkpt>
      <trkpt lat="47.84109" lon="-3.4818">
        <ele>38</ele>
        <time>2019-07-17T15:15:11Z</time>
      </trkpt>
      <trkpt lat="47.84106" lon="-3.48189">
        <ele>38</ele>
        <time>2019-07-17T15:15:12Z</time>
      </trkpt>
      <trkpt lat="47.84103" lon="-3.48198">
        <ele>38</ele>
        <time>2019-07-17T15:15:13Z</time>
      </trkpt>
      <trkpt lat="47.84101" lon="-3.48206">
        <ele>38</ele>
        <time>2019-07-17T15:15:14Z</time>
      </trkpt>
      <trkpt lat="47.84098" lon="-3.48215">
        <ele>38</ele>
        <time>2019-07-17T15:15:15Z</time>
      </trkpt>
      <trkpt lat="47.84095" lon="-3.48224">
        <ele>38</ele>
        <time>2019-07-17T15:15:16Z</time>
      </trkpt>
      <trkpt lat="47.84092" lon="-3.48232">
        <ele>38</ele>
        <time>2019-07-17T15:15:17Z</time>
      </trkpt>
      <trkpt lat="47.84089" lon="-3.4824">
        <ele>38</ele>
        <time>2019-07-17T15:15:18Z</time>
      </trkpt>
      <trkpt lat="47.84087" lon="-3.48249">
        <ele>38</ele>
        <time>2019-07-17T15:15:19Z</time>
      </trkpt>
      <trkpt lat="47.84084" lon="-3.48257">
        <ele>38</ele>
        <time>2019-07-17T15:15:20Z</time>
      </trkpt>
      <trkpt lat="47.84081" lon="-3.48264">
        <ele>38</ele>
        <time>2019-07-17T15:15:21Z</time>
      </trkpt>
      <trkpt lat="47.84079" lon="-3.48273">
        <ele>38</ele>
        <time>2019-07-17T15:15:22Z</time>
      </trkpt>
      <trkpt lat="47.84077" lon="-3.48281">
        <ele>39</ele>
        <time>2019-07-17T15:15:23Z</time>
      </trkpt>
      <trkpt lat="47.84074" lon="-3.48289">
        <ele>39</ele>
        <time>2019-07-17T15:15:24Z</time>
      </trkpt>
      <trkpt lat="47.84071" lon="-3.48296">
        <ele>39</ele>
        <time>2019-07-17T15:15:25Z</time>
      </trkpt>
      <trkpt lat="47.84069" lon="-3.48304">
        <ele>39</ele>
        <time>2019-07-17T15:15:26Z</time>
      </trkpt>
      <trkpt lat="47.84066" lon="-3.48312">
        <ele>39</ele>
        <time>2019-07-17T15:15:27Z</time>
      </trkpt>
      <trkpt lat="47.84064" lon="-3.48319">
        <ele>39</ele>
        <time>2019-07-17T15:15:28Z</time>
      </trkpt>
      <trkpt lat="47.84061" lon="-3.48327">
        <ele>39</ele>
        <time>2019-07-17T15:15:29Z</time>
      </trkpt>
      <trkpt lat="47.84058" lon="-3.48335">
        <ele>40</ele>
        <time>2019-07-17T15:15:30Z</time>
      </trkpt>
      <trkpt lat="47.84056" lon="-3.48343">
        <ele>40</ele>
        <time>2019-07-17T15:15:31Z</time>
      </trkpt>
      <trkpt lat="47.84054" lon="-3.48351">
        <ele>40</ele>
        <time>2019-07-17T15:15:32Z</time>
      </trkpt>
      <trkpt lat="47.84051" lon="-3.48359">
        <ele>40</ele>
        <time>2019-07-17T15:15:33Z</time>
      </trkpt>
      <trkpt lat="47.84048" lon="-3.48366">
        <ele>40</ele>
        <time>2019-07-17T15:15:34Z</time>
      </trkpt>
      <trkpt lat="47.84046" lon="-3.48374">
        <ele>40</ele>
        <time>2019-07-17T15:15:35Z</time>
      </trkpt>
      <trkpt lat="47.84044" lon="-3.48382">
        <ele>41</ele>
        <time>2019-07-17T15:15:36Z</time>
      </trkpt>
      <trkpt lat="47.84041" lon="-3.4839">
        <ele>41</ele>
        <time>2019-07-17T15:15:37Z</time>
      </trkpt>
      <trkpt lat="47.84038" lon="-3.48398">
        <ele>41</ele>
        <time>2019-07-17T15:15:38Z</time>
      </trkpt>
      <trkpt lat="47.84036" lon="-3.48405">
        <ele>41</ele>
        <time>2019-07-17T15:15:39Z</time>
      </trkpt>
      <trkpt lat="47.84033" lon="-3.48412">
        <ele>41</ele>
        <time>2019-07-17T15:15:40Z</time>
      </trkpt>
      <trkpt lat="47.84031" lon="-3.48418">
        <ele>42</ele>
        <time>2019-07-17T15:15:41Z</time>
      </trkpt>
      <trkpt lat="47.84028" lon="-3.48425">
        <ele>42</ele>
        <time>2019-07-17T15:15:42Z</time>
      </trkpt>
      <trkpt lat="47.84026" lon="-3.48431">
        <ele>42</ele>
        <time>2019-07-17T15:15:43Z</time>
      </trkpt>
      <trkpt lat="47.84023" lon="-3.48438">
        <ele>42</ele>
        <time>2019-07-17T15:15:44Z</time>
      </trkpt>
      <trkpt lat="47.84021" lon="-3.48445">
        <ele>42</ele>
        <time>2019-07-17T15:15:45Z</time>
      </trkpt>
      <trkpt lat="47.84018" lon="-3.48452">
        <ele>43</ele>
        <time>2019-07-17T15:15:46Z</time>
      </trkpt>
      <trkpt lat="47.84015" lon="-3.48459">
        <ele>43</ele>
        <time>2019-07-17T15:15:47Z</time>
      </trkpt>
      <trkpt lat="47.84012" lon="-3.48467">
        <ele>43</ele>
        <time>2019-07-17T15:15:48Z</time>
      </trkpt>
      <trkpt lat="47.84009" lon="-3.48474">
        <ele>43</ele>
        <time>2019-07-17T15:15:49Z</time>
      </trkpt>
      <trkpt lat="47.84006" lon="-3.4848">
        <ele>43</ele>
        <time>2019-07-17T15:15:50Z</time>
      </trkpt>
      <trkpt lat="47.84004" lon="-3.48487">
        <ele>43</ele>
        <time>2019-07-17T15:15:51Z</time>
      </trkpt>
      <trkpt lat="47.84001" lon="-3.48494">
        <ele>44</ele>
        <time>2019-07-17T15:15:52Z</time>
      </trkpt>
      <trkpt lat="47.83998" lon="-3.48501">
        <ele>44</ele>
        <time>2019-07-17T15:15:53Z</time>
      </trkpt>
      <trkpt lat="47.83995" lon="-3.48508">
        <ele>44</ele>
        <time>2019-07-17T15:15:54Z</time>
      </trkpt>
      <trkpt lat="47.83992" lon="-3.48515">
        <ele>44</ele>
        <time>2019-07-17T15:15:55Z</time>
      </trkpt>
      <trkpt lat="47.83989" lon="-3.48522">
        <ele>44</ele>
        <time>2019-07-17T15:15:56Z</time>
      </trkpt>
      <trkpt lat="47.83986" lon="-3.48529">
        <ele>45</ele>
        <time>2019-07-17T15:15:57Z</time>
      </trkpt>
      <trkpt lat="47.83982" lon="-3.48535">
        <ele>45</ele>
        <time>2019-07-17T15:15:58Z</time>
      </trkpt>
      <trkpt lat="47.83979" lon="-3.48542">
        <ele>45</ele>
        <time>2019-07-17T15:15:59Z</time>
      </trkpt>
      <trkpt lat="47.83976" lon="-3.48548">
        <ele>45</ele>
        <time>2019-07-17T15:16:00Z</time>
      </trkpt>
      <trkpt lat="47.83973" lon="-3.48555">
        <ele>45</ele>
        <time>2019-07-17T15:16:01Z</time>
      </trkpt>
      <trkpt lat="47.83969" lon="-3.4856">
        <ele>45</ele>
        <time>2019-07-17T15:16:02Z</time>
      </trkpt>
      <trkpt lat="47.83965" lon="-3.48566">
        <ele>45</ele>
        <time>2019-07-17T15:16:03Z</time>
      </trkpt>
      <trkpt lat="47.8396" lon="-3.48572">
        <ele>44</ele>
        <time>2019-07-17T15:16:04Z</time>
      </trkpt>
      <trkpt lat="47.83956" lon="-3.48579">
        <ele>44</ele>
        <time>2019-07-17T15:16:05Z</time>
      </trkpt>
      <trkpt lat="47.83951" lon="-3.48585">
        <ele>44</ele>
        <time>2019-07-17T15:16:06Z</time>
      </trkpt>
      <trkpt lat="47.83946" lon="-3.48592">
        <ele>44</ele>
        <time>2019-07-17T15:16:07Z</time>
      </trkpt>
      <trkpt lat="47.83941" lon="-3.48598">
        <ele>44</ele>
        <time>2019-07-17T15:16:08Z</time>
      </trkpt>
      <trkpt lat="47.83935" lon="-3.48604">
        <ele>43</ele>
        <time>2019-07-17T15:16:09Z</time>
      </trkpt>
      <trkpt lat="47.8393" lon="-3.4861">
        <ele>43</ele>
        <time>2019-07-17T15:16:10Z</time>
      </trkpt>
      <trkpt lat="47.83924" lon="-3.48616">
        <ele>43</ele>
        <time>2019-07-17T15:16:11Z</time>
      </trkpt>
      <trkpt lat="47.83918" lon="-3.48622">
        <ele>43</ele>
        <time>2019-07-17T15:16:12Z</time>
      </trkpt>
      <trkpt lat="47.83912" lon="-3.48627">
        <ele>42</ele>
        <time>2019-07-17T15:16:13Z</time>
      </trkpt>
      <trkpt lat="47.83905" lon="-3.48632">
        <ele>42</ele>
        <time>2019-07-17T15:16:14Z</time>
      </trkpt>
      <trkpt lat="47.83899" lon="-3.48637">
        <ele>42</ele>
        <time>2019-07-17T15:16:15Z</time>
      </trkpt>
      <trkpt lat="47.83893" lon="-3.48642">
        <ele>42</ele>
        <time>2019-07-17T15:16:16Z</time>
      </trkpt>
      <trkpt lat="47.83887" lon="-3.48646">
        <ele>42</ele>
        <time>2019-07-17T15:16:17Z</time>
      </trkpt>
      <trkpt lat="47.8388" lon="-3.4865">
        <ele>42</ele>
        <time>2019-07-17T15:16:18Z</time>
      </trkpt>
      <trkpt lat="47.83874" lon="-3.48653">
        <ele>42</ele>
        <time>2019-07-17T15:16:19Z</time>
      </trkpt>
      <trkpt lat="47.83867" lon="-3.48657">
        <ele>42</ele>
        <time>2019-07-17T15:16:20Z</time>
      </trkpt>
      <trkpt lat="47.8386" lon="-3.4866">
        <ele>42</ele>
        <time>2019-07-17T15:16:21Z</time>
      </trkpt>
      <trkpt lat="47.83854" lon="-3.48663">
        <ele>42</ele>
        <time>2019-07-17T15:16:22Z</time>
      </trkpt>
      <trkpt lat="47.83847" lon="-3.48666">
        <ele>42</ele>
        <time>2019-07-17T15:16:23Z</time>
      </trkpt>
      <trkpt lat="47.8384" lon="-3.48668">
        <ele>42</ele>
        <time>2019-07-17T15:16:24Z</time>
      </trkpt>
      <trkpt lat="47.83834" lon="-3.48671">
        <ele>42</ele>
        <time>2019-07-17T15:16:25Z</time>
      </trkpt>
      <trkpt lat="47.83827" lon="-3.48673">
        <ele>42</ele>
        <time>2019-07-17T15:16:26Z</time>
      </trkpt>
      <trkpt lat="47.8382" lon="-3.48675">
        <ele>42</ele>
        <time>2019-07-17T15:16:27Z</time>
      </trkpt>
      <trkpt lat="47.83813" lon="-3.48678">
        <ele>42</ele>
        <time>2019-07-17T15:16:28Z</time>
      </trkpt>
      <trkpt lat="47.83806" lon="-3.4868">
        <ele>42</ele>
        <time>2019-07-17T15:16:29Z</time>
      </trkpt>
      <trkpt lat="47.83799" lon="-3.48681">
        <ele>42</ele>
        <time>2019-07-17T15:16:30Z</time>
      </trkpt>
      <trkpt lat="47.83792" lon="-3.48684">
        <ele>42</ele>
        <time>2019-07-17T15:16:31Z</time>
      </trkpt>
      <trkpt lat="47.83785" lon="-3.48685">
        <ele>42</ele>
        <time>2019-07-17T15:16:32Z</time>
      </trkpt>
      <trkpt lat="47.83778" lon="-3.48687">
        <ele>42</ele>
        <time>2019-07-17T15:16:33Z</time>
      </trkpt>
      <trkpt lat="47.83771" lon="-3.48689">
        <ele>42</ele>
        <time>2019-07-17T15:16:34Z</time>
      </trkpt>
      <trkpt lat="47.83764" lon="-3.48691">
        <ele>42</ele>
        <time>2019-07-17T15:16:35Z</time>
      </trkpt>
      <trkpt lat="47.83757" lon="-3.48693">
        <ele>42</ele>
        <time>2019-07-17T15:16:36Z</time>
      </trkpt>
      <trkpt lat="47.8375" lon="-3.48695">
        <ele>42</ele>
        <time>2019-07-17T15:16:37Z</time>
      </trkpt>
      <trkpt lat="47.83743" lon="-3.48696">
        <ele>42</ele>
        <time>2019-07-17T15:16:38Z</time>
      </trkpt>
      <trkpt lat="47.83736" lon="-3.48697">
        <ele>42</ele>
        <time>2019-07-17T15:16:39Z</time>
      </trkpt>
      <trkpt lat="47.83729" lon="-3.48699">
        <ele>42</ele>
        <time>2019-07-17T15:16:40Z</time>
      </trkpt>
      <trkpt lat="47.83722" lon="-3.487">
        <ele>42</ele>
        <time>2019-07-17T15:16:41Z</time>
      </trkpt>
      <trkpt lat="47.83715" lon="-3.48701">
        <ele>42</ele>
        <time>2019-07-17T15:16:42Z</time>
      </trkpt>
      <trkpt lat="47.83708" lon="-3.48702">
        <ele>42</ele>
        <time>2019-07-17T15:16:43Z</time>
      </trkpt>
      <trkpt lat="47.83701" lon="-3.48703">
        <ele>42</ele>
        <time>2019-07-17T15:16:44Z</time>
      </trkpt>
      <trkpt lat="47.83695" lon="-3.48704">
        <ele>42</ele>
        <time>2019-07-17T15:16:45Z</time>
      </trkpt>
      <trkpt lat="47.83688" lon="-3.48704">
        <ele>42</ele>
        <time>2019-07-17T15:16:46Z</time>
      </trkpt>
      <trkpt lat="47.83681" lon="-3.48705">
        <ele>42</ele>
        <time>2019-07-17T15:16:47Z</time>
      </trkpt>
      <trkpt lat="47.83675" lon="-3.48705">
        <ele>43</ele>
        <time>2019-07-17T15:16:48Z</time>
      </trkpt>
      <trkpt lat="47.83669" lon="-3.48705">
        <ele>43</ele>
        <time>2019-07-17T15:16:49Z</time>
      </trkpt>
      <trkpt lat="47.83662" lon="-3.48705">
        <ele>43</ele>
        <time>2019-07-17T15:16:50Z</time>
      </trkpt>
      <trkpt lat="47.83656" lon="-3.48706">
        <ele>43</ele>
        <time>2019-07-17T15:16:51Z</time>
      </trkpt>
      <trkpt lat="47.8365" lon="-3.48706">
        <ele>43</ele>
        <time>2019-07-17T15:16:52Z</time>
      </trkpt>
      <trkpt lat="47.83644" lon="-3.48706">
        <ele>43</ele>
        <time>2019-07-17T15:16:53Z</time>
      </trkpt>
      <trkpt lat="47.83638" lon="-3.48707">
        <ele>44</ele>
        <time>2019-07-17T15:16:54Z</time>
      </trkpt>
      <trkpt lat="47.83632" lon="-3.48707">
        <ele>44</ele>
        <time>2019-07-17T15:16:55Z</time>
      </trkpt>
      <trkpt lat="47.83626" lon="-3.48708">
        <ele>44</ele>
        <time>2019-07-17T15:16:56Z</time>
      </trkpt>
      <trkpt lat="47.8362" lon="-3.48709">
        <ele>44</ele>
        <time>2019-07-17T15:16:57Z</time>
      </trkpt>
      <trkpt lat="47.83614" lon="-3.4871">
        <ele>44</ele>
        <time>2019-07-17T15:16:58Z</time>
      </trkpt>
      <trkpt lat="47.83608" lon="-3.48711">
        <ele>45</ele>
        <time>2019-07-17T15:16:59Z</time>
      </trkpt>
      <trkpt lat="47.83602" lon="-3.48712">
        <ele>45</ele>
        <time>2019-07-17T15:17:00Z</time>
      </trkpt>
      <trkpt lat="47.83596" lon="-3.48713">
        <ele>45</ele>
        <time>2019-07-17T15:17:01Z</time>
      </trkpt>
      <trkpt lat="47.8359" lon="-3.48714">
        <ele>45</ele>
        <time>2019-07-17T15:17:02Z</time>
      </trkpt>
      <trkpt lat="47.83584" lon="-3.48716">
        <ele>45</ele>
        <time>2019-07-17T15:17:03Z</time>
      </trkpt>
      <trkpt lat="47.83578" lon="-3.48718">
        <ele>45</ele>
        <time>2019-07-17T15:17:04Z</time>
      </trkpt>
      <trkpt lat="47.83572" lon="-3.4872">
        <ele>45</ele>
        <time>2019-07-17T15:17:05Z</time>
      </trkpt>
      <trkpt lat="47.83566" lon="-3.48722">
        <ele>45</ele>
        <time>2019-07-17T15:17:06Z</time>
      </trkpt>
      <trkpt lat="47.83559" lon="-3.48724">
        <ele>45</ele>
        <time>2019-07-17T15:17:07Z</time>
      </trkpt>
      <trkpt lat="47.83553" lon="-3.48726">
        <ele>45</ele>
        <time>2019-07-17T15:17:08Z</time>
      </trkpt>
      <trkpt lat="47.83547" lon="-3.48729">
        <ele>45</ele>
        <time>2019-07-17T15:17:09Z</time>
      </trkpt>
      <trkpt lat="47.8354" lon="-3.48731">
        <ele>44</ele>
        <time>2019-07-17T15:17:10Z</time>
      </trkpt>
      <trkpt lat="47.83534" lon="-3.48733">
        <ele>44</ele>
        <time>2019-07-17T15:17:11Z</time>
      </trkpt>
      <trkpt lat="47.83528" lon="-3.48736">
        <ele>44</ele>
        <time>2019-07-17T15:17:12Z</time>
      </trkpt>
      <trkpt lat="47.83521" lon="-3.48738">
        <ele>44</ele>
        <time>2019-07-17T15:17:13Z</time>
      </trkpt>
      <trkpt lat="47.83514" lon="-3.4874">
        <ele>44</ele>
        <time>2019-07-17T15:17:14Z</time>
      </trkpt>
      <trkpt lat="47.83508" lon="-3.48742">
        <ele>43</ele>
        <time>2019-07-17T15:17:15Z</time>
      </trkpt>
      <trkpt lat="47.83501" lon="-3.48745">
        <ele>43</ele>
        <time>2019-07-17T15:17:16Z</time>
      </trkpt>
      <trkpt lat="47.83494" lon="-3.48747">
        <ele>43</ele>
        <time>2019-07-17T15:17:17Z</time>
      </trkpt>
      <trkpt lat="47.83487" lon="-3.48749">
        <ele>43</ele>
        <time>2019-07-17T15:17:18Z</time>
      </trkpt>
      <trkpt lat="47.8348" lon="-3.48751">
        <ele>42</ele>
        <time>2019-07-17T15:17:19Z</time>
      </trkpt>
      <trkpt lat="47.83473" lon="-3.48754">
        <ele>42</ele>
        <time>2019-07-17T15:17:20Z</time>
      </trkpt>
      <trkpt lat="47.83465" lon="-3.48756">
        <ele>42</ele>
        <time>2019-07-17T15:17:21Z</time>
      </trkpt>
      <trkpt lat="47.83458" lon="-3.48759">
        <ele>42</ele>
        <time>2019-07-17T15:17:22Z</time>
      </trkpt>
      <trkpt lat="47.83451" lon="-3.48762">
        <ele>41</ele>
        <time>2019-07-17T15:17:23Z</time>
      </trkpt>
      <trkpt lat="47.83443" lon="-3.48765">
        <ele>41</ele>
        <time>2019-07-17T15:17:24Z</time>
      </trkpt>
      <trkpt lat="47.83435" lon="-3.48768">
        <ele>41</ele>
        <time>2019-07-17T15:17:25Z</time>
      </trkpt>
      <trkpt lat="47.83428" lon="-3.4877">
        <ele>41</ele>
        <time>2019-07-17T15:17:26Z</time>
      </trkpt>
      <trkpt lat="47.8342" lon="-3.48773">
        <ele>40</ele>
        <time>2019-07-17T15:17:27Z</time>
      </trkpt>
      <trkpt lat="47.83412" lon="-3.48776">
        <ele>40</ele>
        <time>2019-07-17T15:17:28Z</time>
      </trkpt>
      <trkpt lat="47.83404" lon="-3.48779">
        <ele>40</ele>
        <time>2019-07-17T15:17:29Z</time>
      </trkpt>
      <trkpt lat="47.83396" lon="-3.48781">
        <ele>40</ele>
        <time>2019-07-17T15:17:30Z</time>
      </trkpt>
      <trkpt lat="47.83388" lon="-3.48784">
        <ele>39</ele>
        <time>2019-07-17T15:17:31Z</time>
      </trkpt>
      <trkpt lat="47.83381" lon="-3.48787">
        <ele>39</ele>
        <time>2019-07-17T15:17:32Z</time>
      </trkpt>
      <trkpt lat="47.83373" lon="-3.48789">
        <ele>39</ele>
        <time>2019-07-17T15:17:33Z</time>
      </trkpt>
      <trkpt lat="47.83366" lon="-3.48792">
        <ele>40</ele>
        <time>2019-07-17T15:17:34Z</time>
      </trkpt>
      <trkpt lat="47.83359" lon="-3.48794">
        <ele>40</ele>
        <time>2019-07-17T15:17:35Z</time>
      </trkpt>
      <trkpt lat="47.83352" lon="-3.48797">
        <ele>40</ele>
        <time>2019-07-17T15:17:36Z</time>
      </trkpt>
      <trkpt lat="47.83345" lon="-3.488">
        <ele>40</ele>
        <time>2019-07-17T15:17:37Z</time>
      </trkpt>
      <trkpt lat="47.83339" lon="-3.48802">
        <ele>40</ele>
        <time>2019-07-17T15:17:38Z</time>
      </trkpt>
      <trkpt lat="47.83332" lon="-3.48805">
        <ele>40</ele>
        <time>2019-07-17T15:17:39Z</time>
      </trkpt>
      <trkpt lat="47.83325" lon="-3.48808">
        <ele>40</ele>
        <time>2019-07-17T15:17:40Z</time>
      </trkpt>
      <trkpt lat="47.83319" lon="-3.4881">
        <ele>41</ele>
        <time>2019-07-17T15:17:41Z</time>
      </trkpt>
      <trkpt lat="47.83312" lon="-3.48812">
        <ele>41</ele>
        <time>2019-07-17T15:17:42Z</time>
      </trkpt>
      <trkpt lat="47.83306" lon="-3.48814">
        <ele>41</ele>
        <time>2019-07-17T15:17:43Z</time>
      </trkpt>
      <trkpt lat="47.833" lon="-3.48817">
        <ele>41</ele>
        <time>2019-07-17T15:17:44Z</time>
      </trkpt>
      <trkpt lat="47.83293" lon="-3.48819">
        <ele>42</ele>
        <time>2019-07-17T15:17:45Z</time>
      </trkpt>
      <trkpt lat="47.83287" lon="-3.48822">
        <ele>42</ele>
        <time>2019-07-17T15:17:46Z</time>
      </trkpt>
      <trkpt lat="47.83281" lon="-3.48824">
        <ele>42</ele>
        <time>2019-07-17T15:17:47Z</time>
      </trkpt>
      <trkpt lat="47.83275" lon="-3.48826">
        <ele>42</ele>
        <time>2019-07-17T15:17:48Z</time>
      </trkpt>
      <trkpt lat="47.83268" lon="-3.48829">
        <ele>42</ele>
        <time>2019-07-17T15:17:49Z</time>
      </trkpt>
      <trkpt lat="47.83262" lon="-3.48831">
        <ele>43</ele>
        <time>2019-07-17T15:17:50Z</time>
      </trkpt>
      <trkpt lat="47.83255" lon="-3.48834">
        <ele>43</ele>
        <time>2019-07-17T15:17:51Z</time>
      </trkpt>
      <trkpt lat="47.83249" lon="-3.48836">
        <ele>43</ele>
        <time>2019-07-17T15:17:52Z</time>
      </trkpt>
      <trkpt lat="47.83242" lon="-3.48838">
        <ele>43</ele>
        <time>2019-07-17T15:17:53Z</time>
      </trkpt>
      <trkpt lat="47.83236" lon="-3.48841">
        <ele>43</ele>
        <time>2019-07-17T15:17:54Z</time>
      </trkpt>
      <trkpt lat="47.83229" lon="-3.48843">
        <ele>43</ele>
        <time>2019-07-17T15:17:55Z</time>
      </trkpt>
      <trkpt lat="47.83222" lon="-3.48846">
        <ele>43</ele>
        <time>2019-07-17T15:17:56Z</time>
      </trkpt>
      <trkpt lat="47.83215" lon="-3.48849">
        <ele>44</ele>
        <time>2019-07-17T15:17:57Z</time>
      </trkpt>
      <trkpt lat="47.83209" lon="-3.48851">
        <ele>44</ele>
        <time>2019-07-17T15:17:58Z</time>
      </trkpt>
      <trkpt lat="47.83202" lon="-3.48854">
        <ele>44</ele>
        <time>2019-07-17T15:17:59Z</time>
      </trkpt>
      <trkpt lat="47.83195" lon="-3.48856">
        <ele>44</ele>
        <time>2019-07-17T15:18:00Z</time>
      </trkpt>
      <trkpt lat="47.83188" lon="-3.48859">
        <ele>44</ele>
        <time>2019-07-17T15:18:01Z</time>
      </trkpt>
      <trkpt lat="47.83182" lon="-3.48861">
        <ele>44</ele>
        <time>2019-07-17T15:18:02Z</time>
      </trkpt>
      <trkpt lat="47.83175" lon="-3.48864">
        <ele>44</ele>
        <time>2019-07-17T15:18:03Z</time>
      </trkpt>
      <trkpt lat="47.83168" lon="-3.48866">
        <ele>44</ele>
        <time>2019-07-17T15:18:04Z</time>
      </trkpt>
      <trkpt lat="47.83162" lon="-3.48869">
        <ele>44</ele>
        <time>2019-07-17T15:18:05Z</time>
      </trkpt>
      <trkpt lat="47.83155" lon="-3.48871">
        <ele>44</ele>
        <time>2019-07-17T15:18:06Z</time>
      </trkpt>
      <trkpt lat="47.83148" lon="-3.48874">
        <ele>44</ele>
        <time>2019-07-17T15:18:07Z</time>
      </trkpt>
      <trkpt lat="47.83141" lon="-3.48876">
        <ele>44</ele>
        <time>2019-07-17T15:18:08Z</time>
      </trkpt>
      <trkpt lat="47.83134" lon="-3.48879">
        <ele>44</ele>
        <time>2019-07-17T15:18:09Z</time>
      </trkpt>
      <trkpt lat="47.83127" lon="-3.48882">
        <ele>44</ele>
        <time>2019-07-17T15:18:10Z</time>
      </trkpt>
      <trkpt lat="47.8312" lon="-3.48884">
        <ele>44</ele>
        <time>2019-07-17T15:18:11Z</time>
      </trkpt>
      <trkpt lat="47.83113" lon="-3.48887">
        <ele>45</ele>
        <time>2019-07-17T15:18:12Z</time>
      </trkpt>
      <trkpt lat="47.83107" lon="-3.48889">
        <ele>45</ele>
        <time>2019-07-17T15:18:13Z</time>
      </trkpt>
      <trkpt lat="47.831" lon="-3.48892">
        <ele>45</ele>
        <time>2019-07-17T15:18:14Z</time>
      </trkpt>
      <trkpt lat="47.83093" lon="-3.48894">
        <ele>45</ele>
        <time>2019-07-17T15:18:15Z</time>
      </trkpt>
      <trkpt lat="47.83087" lon="-3.48897">
        <ele>45</ele>
        <time>2019-07-17T15:18:16Z</time>
      </trkpt>
      <trkpt lat="47.8308" lon="-3.48899">
        <ele>45</ele>
        <time>2019-07-17T15:18:17Z</time>
      </trkpt>
      <trkpt lat="47.83074" lon="-3.48902">
        <ele>45</ele>
        <time>2019-07-17T15:18:18Z</time>
      </trkpt>
      <trkpt lat="47.83067" lon="-3.48904">
        <ele>45</ele>
        <time>2019-07-17T15:18:19Z</time>
      </trkpt>
      <trkpt lat="47.83061" lon="-3.48907">
        <ele>45</ele>
        <time>2019-07-17T15:18:20Z</time>
      </trkpt>
      <trkpt lat="47.83055" lon="-3.48909">
        <ele>45</ele>
        <time>2019-07-17T15:18:21Z</time>
      </trkpt>
      <trkpt lat="47.83048" lon="-3.48911">
        <ele>45</ele>
        <time>2019-07-17T15:18:22Z</time>
      </trkpt>
      <trkpt lat="47.83042" lon="-3.48914">
        <ele>45</ele>
        <time>2019-07-17T15:18:23Z</time>
      </trkpt>
      <trkpt lat="47.83035" lon="-3.48916">
        <ele>45</ele>
        <time>2019-07-17T15:18:24Z</time>
      </trkpt>
      <trkpt lat="47.83029" lon="-3.48919">
        <ele>45</ele>
        <time>2019-07-17T15:18:25Z</time>
      </trkpt>
      <trkpt lat="47.83022" lon="-3.48921">
        <ele>45</ele>
        <time>2019-07-17T15:18:26Z</time>
      </trkpt>
      <trkpt lat="47.83015" lon="-3.48924">
        <ele>45</ele>
        <time>2019-07-17T15:18:27Z</time>
      </trkpt>
      <trkpt lat="47.83009" lon="-3.48926">
        <ele>45</ele>
        <time>2019-07-17T15:18:28Z</time>
      </trkpt>
      <trkpt lat="47.83002" lon="-3.48929">
        <ele>45</ele>
        <time>2019-07-17T15:18:29Z</time>
      </trkpt>
      <trkpt lat="47.82995" lon="-3.48932">
        <ele>45</ele>
        <time>2019-07-17T15:18:30Z</time>
      </trkpt>
      <trkpt lat="47.82989" lon="-3.48934">
        <ele>44</ele>
        <time>2019-07-17T15:18:31Z</time>
      </trkpt>
      <trkpt lat="47.82982" lon="-3.48937">
        <ele>44</ele>
        <time>2019-07-17T15:18:32Z</time>
      </trkpt>
      <trkpt lat="47.82975" lon="-3.48939">
        <ele>44</ele>
        <time>2019-07-17T15:18:33Z</time>
      </trkpt>
      <trkpt lat="47.82968" lon="-3.48941">
        <ele>44</ele>
        <time>2019-07-17T15:18:34Z</time>
      </trkpt>
      <trkpt lat="47.82961" lon="-3.48944">
        <ele>44</ele>
        <time>2019-07-17T15:18:35Z</time>
      </trkpt>
      <trkpt lat="47.82954" lon="-3.48946">
        <ele>44</ele>
        <time>2019-07-17T15:18:36Z</time>
      </trkpt>
      <trkpt lat="47.82947" lon="-3.48949">
        <ele>44</ele>
        <time>2019-07-17T15:18:37Z</time>
      </trkpt>
      <trkpt lat="47.8294" lon="-3.48952">
        <ele>44</ele>
        <time>2019-07-17T15:18:38Z</time>
      </trkpt>
      <trkpt lat="47.82933" lon="-3.48954">
        <ele>44</ele>
        <time>2019-07-17T15:18:39Z</time>
      </trkpt>
      <trkpt lat="47.82926" lon="-3.48956">
        <ele>44</ele>
        <time>2019-07-17T15:18:40Z</time>
      </trkpt>
      <trkpt lat="47.82919" lon="-3.48958">
        <ele>44</ele>
        <time>2019-07-17T15:18:41Z</time>
      </trkpt>
      <trkpt lat="47.82912" lon="-3.4896">
        <ele>43</ele>
        <time>2019-07-17T15:18:42Z</time>
      </trkpt>
      <trkpt lat="47.82905" lon="-3.48962">
        <ele>43</ele>
        <time>2019-07-17T15:18:43Z</time>
      </trkpt>
      <trkpt lat="47.82898" lon="-3.48963">
        <ele>43</ele>
        <time>2019-07-17T15:18:44Z</time>
      </trkpt>
      <trkpt lat="47.82892" lon="-3.48965">
        <ele>43</ele>
        <time>2019-07-17T15:18:45Z</time>
      </trkpt>
      <trkpt lat="47.82885" lon="-3.48966">
        <ele>43</ele>
        <time>2019-07-17T15:18:46Z</time>
      </trkpt>
      <trkpt lat="47.82878" lon="-3.48967">
        <ele>43</ele>
        <time>2019-07-17T15:18:47Z</time>
      </trkpt>
      <trkpt lat="47.82871" lon="-3.48969">
        <ele>43</ele>
        <time>2019-07-17T15:18:48Z</time>
      </trkpt>
      <trkpt lat="47.82864" lon="-3.4897">
        <ele>43</ele>
        <time>2019-07-17T15:18:49Z</time>
      </trkpt>
      <trkpt lat="47.82857" lon="-3.48971">
        <ele>43</ele>
        <time>2019-07-17T15:18:50Z</time>
      </trkpt>
      <trkpt lat="47.8285" lon="-3.48972">
        <ele>43</ele>
        <time>2019-07-17T15:18:51Z</time>
      </trkpt>
      <trkpt lat="47.82844" lon="-3.48974">
        <ele>43</ele>
        <time>2019-07-17T15:18:52Z</time>
      </trkpt>
      <trkpt lat="47.82837" lon="-3.48975">
        <ele>43</ele>
        <time>2019-07-17T15:18:53Z</time>
      </trkpt>
      <trkpt lat="47.8283" lon="-3.48977">
        <ele>43</ele>
        <time>2019-07-17T15:18:54Z</time>
      </trkpt>
      <trkpt lat="47.82824" lon="-3.48978">
        <ele>43</ele>
        <time>2019-07-17T15:18:55Z</time>
      </trkpt>
      <trkpt lat="47.82817" lon="-3.48979">
        <ele>43</ele>
        <time>2019-07-17T15:18:56Z</time>
      </trkpt>
      <trkpt lat="47.82811" lon="-3.4898">
        <ele>43</ele>
        <time>2019-07-17T15:18:57Z</time>
      </trkpt>
      <trkpt lat="47.82804" lon="-3.48981">
        <ele>43</ele>
        <time>2019-07-17T15:18:58Z</time>
      </trkpt>
      <trkpt lat="47.82799" lon="-3.48982">
        <ele>43</ele>
        <time>2019-07-17T15:18:59Z</time>
      </trkpt>
      <trkpt lat="47.82793" lon="-3.48983">
        <ele>43</ele>
        <time>2019-07-17T15:19:00Z</time>
      </trkpt>
      <trkpt lat="47.82788" lon="-3.48985">
        <ele>43</ele>
        <time>2019-07-17T15:19:01Z</time>
      </trkpt>
      <trkpt lat="47.82783" lon="-3.48986">
        <ele>43</ele>
        <time>2019-07-17T15:19:02Z</time>
      </trkpt>
      <trkpt lat="47.82778" lon="-3.48988">
        <ele>44</ele>
        <time>2019-07-17T15:19:03Z</time>
      </trkpt>
      <trkpt lat="47.82774" lon="-3.48991">
        <ele>44</ele>
        <time>2019-07-17T15:19:04Z</time>
      </trkpt>
      <trkpt lat="47.82771" lon="-3.48997">
        <ele>44</ele>
        <time>2019-07-17T15:19:05Z</time>
      </trkpt>
      <trkpt lat="47.8277" lon="-3.49004">
        <ele>44</ele>
        <time>2019-07-17T15:19:06Z</time>
      </trkpt>
      <trkpt lat="47.82769" lon="-3.49011">
        <ele>44</ele>
        <time>2019-07-17T15:19:07Z</time>
      </trkpt>
      <trkpt lat="47.82769" lon="-3.49018">
        <ele>44</ele>
        <time>2019-07-17T15:19:08Z</time>
      </trkpt>
      <trkpt lat="47.82769" lon="-3.49024">
        <ele>44</ele>
        <time>2019-07-17T15:19:09Z</time>
      </trkpt>
      <trkpt lat="47.82768" lon="-3.49031">
        <ele>44</ele>
        <time>2019-07-17T15:19:10Z</time>
      </trkpt>
      <trkpt lat="47.82768" lon="-3.49038">
        <ele>44</ele>
        <time>2019-07-17T15:19:11Z</time>
      </trkpt>
      <trkpt lat="47.82768" lon="-3.49045">
        <ele>44</ele>
        <time>2019-07-17T15:19:12Z</time>
      </trkpt>
      <trkpt lat="47.82767" lon="-3.49052">
        <ele>44</ele>
        <time>2019-07-17T15:19:13Z</time>
      </trkpt>
      <trkpt lat="47.82767" lon="-3.49059">
        <ele>44</ele>
        <time>2019-07-17T15:19:14Z</time>
      </trkpt>
      <trkpt lat="47.82766" lon="-3.49065">
        <ele>45</ele>
        <time>2019-07-17T15:19:15Z</time>
      </trkpt>
      <trkpt lat="47.82766" lon="-3.49072">
        <ele>45</ele>
        <time>2019-07-17T15:19:16Z</time>
      </trkpt>
      <trkpt lat="47.82766" lon="-3.49079">
        <ele>45</ele>
        <time>2019-07-17T15:19:17Z</time>
      </trkpt>
      <trkpt lat="47.82766" lon="-3.49086">
        <ele>45</ele>
        <time>2019-07-17T15:19:18Z</time>
      </trkpt>
      <trkpt lat="47.82765" lon="-3.49093">
        <ele>45</ele>
        <time>2019-07-17T15:19:19Z</time>
      </trkpt>
      <trkpt lat="47.82765" lon="-3.49099">
        <ele>46</ele>
        <time>2019-07-17T15:19:20Z</time>
      </trkpt>
      <trkpt lat="47.82765" lon="-3.49106">
        <ele>46</ele>
        <time>2019-07-17T15:19:21Z</time>
      </trkpt>
      <trkpt lat="47.82764" lon="-3.49112">
        <ele>46</ele>
        <time>2019-07-17T15:19:22Z</time>
      </trkpt>
      <trkpt lat="47.82764" lon="-3.49118">
        <ele>46</ele>
        <time>2019-07-17T15:19:23Z</time>
      </trkpt>
      <trkpt lat="47.82764" lon="-3.49124">
        <ele>46</ele>
        <time>2019-07-17T15:19:24Z</time>
      </trkpt>
      <trkpt lat="47.82764" lon="-3.4913">
        <ele>46</ele>
        <time>2019-07-17T15:19:25Z</time>
      </trkpt>
      <trkpt lat="47.82764" lon="-3.49136">
        <ele>47</ele>
        <time>2019-07-17T15:19:26Z</time>
      </trkpt>
      <trkpt lat="47.82764" lon="-3.49142">
        <ele>47</ele>
        <time>2019-07-17T15:19:27Z</time>
      </trkpt>
      <trkpt lat="47.82763" lon="-3.49147">
        <ele>47</ele>
        <time>2019-07-17T15:19:28Z</time>
      </trkpt>
      <trkpt lat="47.82762" lon="-3.49152">
        <ele>47</ele>
        <time>2019-07-17T15:19:29Z</time>
      </trkpt>
      <trkpt lat="47.82761" lon="-3.49157">
        <ele>47</ele>
        <time>2019-07-17T15:19:30Z</time>
      </trkpt>
      <trkpt lat="47.82761" lon="-3.49161">
        <ele>47</ele>
        <time>2019-07-17T15:19:31Z</time>
      </trkpt>
      <trkpt lat="47.8276" lon="-3.49165">
        <ele>47</ele>
        <time>2019-07-17T15:19:32Z</time>
      </trkpt>
      <trkpt lat="47.82759" lon="-3.49168">
        <ele>47</ele>
        <time>2019-07-17T15:19:33Z</time>
      </trkpt>
      <trkpt lat="47.82759" lon="-3.49171">
        <ele>47</ele>
        <time>2019-07-17T15:19:34Z</time>
      </trkpt>
      <trkpt lat="47.82759" lon="-3.49172">
        <ele>48</ele>
        <time>2019-07-17T15:19:35Z</time>
      </trkpt>
      <trkpt lat="47.82759" lon="-3.49173">
        <ele>48</ele>
        <time>2019-07-17T15:19:36Z</time>
      </trkpt>
      <trkpt lat="47.82759" lon="-3.49173">
        <ele>48</ele>
        <time>2019-07-17T15:19:37Z</time>
      </trkpt>
      <trkpt lat="47.82759" lon="-3.49166">
        <ele>49</ele>
        <time>2019-07-17T15:19:38Z</time>
      </trkpt>
      <trkpt lat="47.82759" lon="-3.49163">
        <ele>49</ele>
        <time>2019-07-17T15:19:39Z</time>
      </trkpt>
      <trkpt lat="47.8276" lon="-3.49161">
        <ele>50</ele>
        <time>2019-07-17T15:19:40Z</time>
      </trkpt>
      <trkpt lat="47.82761" lon="-3.49157">
        <ele>50</ele>
        <time>2019-07-17T15:19:41Z</time>
      </trkpt>
      <trkpt lat="47.82762" lon="-3.49152">
        <ele>50</ele>
        <time>2019-07-17T15:19:42Z</time>
      </trkpt>
      <trkpt lat="47.82763" lon="-3.49141">
        <ele>50</ele>
        <time>2019-07-17T15:19:43Z</time>
      </trkpt>
      <trkpt lat="47.82763" lon="-3.49135">
        <ele>50</ele>
        <time>2019-07-17T15:19:44Z</time>
      </trkpt>
      <trkpt lat="47.82764" lon="-3.49129">
        <ele>50</ele>
        <time>2019-07-17T15:19:45Z</time>
      </trkpt>
      <trkpt lat="47.82765" lon="-3.49123">
        <ele>50</ele>
        <time>2019-07-17T15:19:46Z</time>
      </trkpt>
      <trkpt lat="47.82765" lon="-3.49123">
        <ele>50</ele>
        <time>2019-07-17T15:19:47Z</time>
      </trkpt>
      <trkpt lat="47.82765" lon="-3.49116">
        <ele>50</ele>
        <time>2019-07-17T15:19:48Z</time>
      </trkpt>
      <trkpt lat="47.82765" lon="-3.49109">
        <ele>50</ele>
        <time>2019-07-17T15:19:49Z</time>
      </trkpt>
      <trkpt lat="47.82765" lon="-3.49102">
        <ele>50</ele>
        <time>2019-07-17T15:19:50Z</time>
      </trkpt>
      <trkpt lat="47.82766" lon="-3.49095">
        <ele>50</ele>
        <time>2019-07-17T15:19:51Z</time>
      </trkpt>
      <trkpt lat="47.82766" lon="-3.49087">
        <ele>50</ele>
        <time>2019-07-17T15:19:52Z</time>
      </trkpt>
      <trkpt lat="47.82767" lon="-3.49079">
        <ele>49</ele>
        <time>2019-07-17T15:19:53Z</time>
      </trkpt>
      <trkpt lat="47.82768" lon="-3.49061">
        <ele>49</ele>
        <time>2019-07-17T15:19:54Z</time>
      </trkpt>
      <trkpt lat="47.82768" lon="-3.49061">
        <ele>49</ele>
        <time>2019-07-17T15:19:55Z</time>
      </trkpt>
      <trkpt lat="47.82769" lon="-3.49052">
        <ele>48</ele>
        <time>2019-07-17T15:19:56Z</time>
      </trkpt>
      <trkpt lat="47.8277" lon="-3.49043">
        <ele>48</ele>
        <time>2019-07-17T15:19:57Z</time>
      </trkpt>
      <trkpt lat="47.8277" lon="-3.49033">
        <ele>47</ele>
        <time>2019-07-17T15:19:58Z</time>
      </trkpt>
      <trkpt lat="47.82771" lon="-3.49022">
        <ele>47</ele>
        <time>2019-07-17T15:19:59Z</time>
      </trkpt>
      <trkpt lat="47.82771" lon="-3.49012">
        <ele>46</ele>
        <time>2019-07-17T15:20:00Z</time>
      </trkpt>
      <trkpt lat="47.8277" lon="-3.49002">
        <ele>46</ele>
        <time>2019-07-17T15:20:01Z</time>
      </trkpt>
      <trkpt lat="47.82767" lon="-3.48995">
        <ele>46</ele>
        <time>2019-07-17T15:20:02Z</time>
      </trkpt>
      <trkpt lat="47.82762" lon="-3.48989">
        <ele>46</ele>
        <time>2019-07-17T15:20:03Z</time>
      </trkpt>
      <trkpt lat="47.82757" lon="-3.48988">
        <ele>46</ele>
        <time>2019-07-17T15:20:04Z</time>
      </trkpt>
      <trkpt lat="47.82752" lon="-3.48988">
        <ele>46</ele>
        <time>2019-07-17T15:20:05Z</time>
      </trkpt>
      <trkpt lat="47.82747" lon="-3.48988">
        <ele>46</ele>
        <time>2019-07-17T15:20:06Z</time>
      </trkpt>
      <trkpt lat="47.82742" lon="-3.48989">
        <ele>46</ele>
        <time>2019-07-17T15:20:07Z</time>
      </trkpt>
      <trkpt lat="47.82732" lon="-3.4899">
        <ele>46</ele>
        <time>2019-07-17T15:20:08Z</time>
      </trkpt>
      <trkpt lat="47.82732" lon="-3.4899">
        <ele>46</ele>
        <time>2019-07-17T15:20:09Z</time>
      </trkpt>
      <trkpt lat="47.82726" lon="-3.48991">
        <ele>46</ele>
        <time>2019-07-17T15:20:10Z</time>
      </trkpt>
      <trkpt lat="47.8272" lon="-3.48992">
        <ele>46</ele>
        <time>2019-07-17T15:20:11Z</time>
      </trkpt>
      <trkpt lat="47.82715" lon="-3.48993">
        <ele>46</ele>
        <time>2019-07-17T15:20:12Z</time>
      </trkpt>
      <trkpt lat="47.82709" lon="-3.48994">
        <ele>46</ele>
        <time>2019-07-17T15:20:13Z</time>
      </trkpt>
      <trkpt lat="47.82703" lon="-3.48996">
        <ele>46</ele>
        <time>2019-07-17T15:20:14Z</time>
      </trkpt>
      <trkpt lat="47.82697" lon="-3.48996">
        <ele>46</ele>
        <time>2019-07-17T15:20:15Z</time>
      </trkpt>
      <trkpt lat="47.82692" lon="-3.48997">
        <ele>46</ele>
        <time>2019-07-17T15:20:16Z</time>
      </trkpt>
      <trkpt lat="47.82686" lon="-3.48998">
        <ele>47</ele>
        <time>2019-07-17T15:20:17Z</time>
      </trkpt>
      <trkpt lat="47.8268" lon="-3.48999">
        <ele>47</ele>
        <time>2019-07-17T15:20:18Z</time>
      </trkpt>
      <trkpt lat="47.82674" lon="-3.49">
        <ele>47</ele>
        <time>2019-07-17T15:20:19Z</time>
      </trkpt>
      <trkpt lat="47.82669" lon="-3.49001">
        <ele>47</ele>
        <time>2019-07-17T15:20:20Z</time>
      </trkpt>
      <trkpt lat="47.82663" lon="-3.49002">
        <ele>47</ele>
        <time>2019-07-17T15:20:21Z</time>
      </trkpt>
      <trkpt lat="47.82657" lon="-3.49003">
        <ele>47</ele>
        <time>2019-07-17T15:20:22Z</time>
      </trkpt>
      <trkpt lat="47.82651" lon="-3.49004">
        <ele>47</ele>
        <time>2019-07-17T15:20:23Z</time>
      </trkpt>
      <trkpt lat="47.82645" lon="-3.49005">
        <ele>47</ele>
        <time>2019-07-17T15:20:24Z</time>
      </trkpt>
      <trkpt lat="47.82639" lon="-3.49006">
        <ele>47</ele>
        <time>2019-07-17T15:20:25Z</time>
      </trkpt>
      <trkpt lat="47.82633" lon="-3.49008">
        <ele>47</ele>
        <time>2019-07-17T15:20:26Z</time>
      </trkpt>
      <trkpt lat="47.82627" lon="-3.49009">
        <ele>48</ele>
        <time>2019-07-17T15:20:27Z</time>
      </trkpt>
      <trkpt lat="47.82621" lon="-3.4901">
        <ele>48</ele>
        <time>2019-07-17T15:20:28Z</time>
      </trkpt>
      <trkpt lat="47.82615" lon="-3.49011">
        <ele>48</ele>
        <time>2019-07-17T15:20:29Z</time>
      </trkpt>
      <trkpt lat="47.8261" lon="-3.49012">
        <ele>48</ele>
        <time>2019-07-17T15:20:30Z</time>
      </trkpt>
      <trkpt lat="47.82604" lon="-3.49012">
        <ele>48</ele>
        <time>2019-07-17T15:20:31Z</time>
      </trkpt>
      <trkpt lat="47.82598" lon="-3.49014">
        <ele>48</ele>
        <time>2019-07-17T15:20:32Z</time>
      </trkpt>
      <trkpt lat="47.82592" lon="-3.49015">
        <ele>48</ele>
        <time>2019-07-17T15:20:33Z</time>
      </trkpt>
      <trkpt lat="47.82586" lon="-3.49016">
        <ele>48</ele>
        <time>2019-07-17T15:20:34Z</time>
      </trkpt>
      <trkpt lat="47.8258" lon="-3.49018">
        <ele>48</ele>
        <time>2019-07-17T15:20:35Z</time>
      </trkpt>
      <trkpt lat="47.82574" lon="-3.49019">
        <ele>48</ele>
        <time>2019-07-17T15:20:36Z</time>
      </trkpt>
      <trkpt lat="47.82568" lon="-3.49021">
        <ele>48</ele>
        <time>2019-07-17T15:20:37Z</time>
      </trkpt>
      <trkpt lat="47.82561" lon="-3.49022">
        <ele>48</ele>
        <time>2019-07-17T15:20:38Z</time>
      </trkpt>
      <trkpt lat="47.82555" lon="-3.49024">
        <ele>48</ele>
        <time>2019-07-17T15:20:39Z</time>
      </trkpt>
      <trkpt lat="47.82549" lon="-3.49026">
        <ele>48</ele>
        <time>2019-07-17T15:20:40Z</time>
      </trkpt>
      <trkpt lat="47.82543" lon="-3.49028">
        <ele>47</ele>
        <time>2019-07-17T15:20:41Z</time>
      </trkpt>
      <trkpt lat="47.82538" lon="-3.49031">
        <ele>47</ele>
        <time>2019-07-17T15:20:42Z</time>
      </trkpt>
      <trkpt lat="47.82532" lon="-3.49034">
        <ele>47</ele>
        <time>2019-07-17T15:20:43Z</time>
      </trkpt>
      <trkpt lat="47.82525" lon="-3.49038">
        <ele>47</ele>
        <time>2019-07-17T15:20:44Z</time>
      </trkpt>
      <trkpt lat="47.82519" lon="-3.49041">
        <ele>47</ele>
        <time>2019-07-17T15:20:45Z</time>
      </trkpt>
      <trkpt lat="47.82512" lon="-3.49045">
        <ele>46</ele>
        <time>2019-07-17T15:20:46Z</time>
      </trkpt>
      <trkpt lat="47.82506" lon="-3.4905">
        <ele>46</ele>
        <time>2019-07-17T15:20:47Z</time>
      </trkpt>
      <trkpt lat="47.82499" lon="-3.49055">
        <ele>46</ele>
        <time>2019-07-17T15:20:48Z</time>
      </trkpt>
      <trkpt lat="47.82486" lon="-3.49067">
        <ele>45</ele>
        <time>2019-07-17T15:20:49Z</time>
      </trkpt>
      <trkpt lat="47.82486" lon="-3.49067">
        <ele>45</ele>
        <time>2019-07-17T15:20:50Z</time>
      </trkpt>
      <trkpt lat="47.82479" lon="-3.49073">
        <ele>45</ele>
        <time>2019-07-17T15:20:51Z</time>
      </trkpt>
      <trkpt lat="47.82472" lon="-3.4908">
        <ele>45</ele>
        <time>2019-07-17T15:20:52Z</time>
      </trkpt>
      <trkpt lat="47.82466" lon="-3.49088">
        <ele>44</ele>
        <time>2019-07-17T15:20:53Z</time>
      </trkpt>
      <trkpt lat="47.8246" lon="-3.49097">
        <ele>44</ele>
        <time>2019-07-17T15:20:54Z</time>
      </trkpt>
      <trkpt lat="47.82454" lon="-3.49106">
        <ele>44</ele>
        <time>2019-07-17T15:20:55Z</time>
      </trkpt>
      <trkpt lat="47.82449" lon="-3.49115">
        <ele>43</ele>
        <time>2019-07-17T15:20:56Z</time>
      </trkpt>
      <trkpt lat="47.82444" lon="-3.49125">
        <ele>43</ele>
        <time>2019-07-17T15:20:57Z</time>
      </trkpt>
      <trkpt lat="47.82441" lon="-3.49136">
        <ele>43</ele>
        <time>2019-07-17T15:20:58Z</time>
      </trkpt>
      <trkpt lat="47.82437" lon="-3.49146">
        <ele>43</ele>
        <time>2019-07-17T15:20:59Z</time>
      </trkpt>
      <trkpt lat="47.82435" lon="-3.49156">
        <ele>43</ele>
        <time>2019-07-17T15:21:00Z</time>
      </trkpt>
      <trkpt lat="47.82433" lon="-3.49167">
        <ele>42</ele>
        <time>2019-07-17T15:21:01Z</time>
      </trkpt>
      <trkpt lat="47.82431" lon="-3.49177">
        <ele>42</ele>
        <time>2019-07-17T15:21:02Z</time>
      </trkpt>
      <trkpt lat="47.82431" lon="-3.49187">
        <ele>42</ele>
        <time>2019-07-17T15:21:03Z</time>
      </trkpt>
      <trkpt lat="47.82431" lon="-3.49198">
        <ele>42</ele>
        <time>2019-07-17T15:21:04Z</time>
      </trkpt>
      <trkpt lat="47.82433" lon="-3.49206">
        <ele>42</ele>
        <time>2019-07-17T15:21:05Z</time>
      </trkpt>
      <trkpt lat="47.82437" lon="-3.49211">
        <ele>42</ele>
        <time>2019-07-17T15:21:06Z</time>
      </trkpt>
      <trkpt lat="47.82442" lon="-3.49213">
        <ele>42</ele>
        <time>2019-07-17T15:21:07Z</time>
      </trkpt>
      <trkpt lat="47.82447" lon="-3.49216">
        <ele>41</ele>
        <time>2019-07-17T15:21:08Z</time>
      </trkpt>
      <trkpt lat="47.82453" lon="-3.49218">
        <ele>41</ele>
        <time>2019-07-17T15:21:09Z</time>
      </trkpt>
      <trkpt lat="47.82458" lon="-3.4922">
        <ele>41</ele>
        <time>2019-07-17T15:21:10Z</time>
      </trkpt>
      <trkpt lat="47.82464" lon="-3.49223">
        <ele>40</ele>
        <time>2019-07-17T15:21:11Z</time>
      </trkpt>
      <trkpt lat="47.82469" lon="-3.49225">
        <ele>40</ele>
        <time>2019-07-17T15:21:12Z</time>
      </trkpt>
      <trkpt lat="47.82475" lon="-3.49229">
        <ele>40</ele>
        <time>2019-07-17T15:21:13Z</time>
      </trkpt>
      <trkpt lat="47.8248" lon="-3.49233">
        <ele>40</ele>
        <time>2019-07-17T15:21:14Z</time>
      </trkpt>
      <trkpt lat="47.82486" lon="-3.49237">
        <ele>39</ele>
        <time>2019-07-17T15:21:15Z</time>
      </trkpt>
      <trkpt lat="47.82491" lon="-3.49241">
        <ele>39</ele>
        <time>2019-07-17T15:21:16Z</time>
      </trkpt>
      <trkpt lat="47.82496" lon="-3.49246">
        <ele>39</ele>
        <time>2019-07-17T15:21:17Z</time>
      </trkpt>
      <trkpt lat="47.82502" lon="-3.49251">
        <ele>38</ele>
        <time>2019-07-17T15:21:18Z</time>
      </trkpt>
      <trkpt lat="47.82507" lon="-3.49256">
        <ele>38</ele>
        <time>2019-07-17T15:21:19Z</time>
      </trkpt>
      <trkpt lat="47.82512" lon="-3.49261">
        <ele>38</ele>
        <time>2019-07-17T15:21:20Z</time>
      </trkpt>
      <trkpt lat="47.82517" lon="-3.49267">
        <ele>38</ele>
        <time>2019-07-17T15:21:21Z</time>
      </trkpt>
      <trkpt lat="47.82522" lon="-3.49273">
        <ele>38</ele>
        <time>2019-07-17T15:21:22Z</time>
      </trkpt>
      <trkpt lat="47.82528" lon="-3.49278">
        <ele>38</ele>
        <time>2019-07-17T15:21:23Z</time>
      </trkpt>
      <trkpt lat="47.82533" lon="-3.49284">
        <ele>38</ele>
        <time>2019-07-17T15:21:24Z</time>
      </trkpt>
      <trkpt lat="47.82538" lon="-3.49291">
        <ele>38</ele>
        <time>2019-07-17T15:21:25Z</time>
      </trkpt>
      <trkpt lat="47.82543" lon="-3.49297">
        <ele>38</ele>
        <time>2019-07-17T15:21:26Z</time>
      </trkpt>
      <trkpt lat="47.82549" lon="-3.49302">
        <ele>38</ele>
        <time>2019-07-17T15:21:27Z</time>
      </trkpt>
      <trkpt lat="47.82554" lon="-3.49308">
        <ele>38</ele>
        <time>2019-07-17T15:21:28Z</time>
      </trkpt>
      <trkpt lat="47.82559" lon="-3.49314">
        <ele>39</ele>
        <time>2019-07-17T15:21:29Z</time>
      </trkpt>
      <trkpt lat="47.82564" lon="-3.4932">
        <ele>39</ele>
        <time>2019-07-17T15:21:30Z</time>
      </trkpt>
      <trkpt lat="47.82569" lon="-3.49325">
        <ele>39</ele>
        <time>2019-07-17T15:21:31Z</time>
      </trkpt>
      <trkpt lat="47.82574" lon="-3.4933">
        <ele>39</ele>
        <time>2019-07-17T15:21:32Z</time>
      </trkpt>
      <trkpt lat="47.82579" lon="-3.49335">
        <ele>40</ele>
        <time>2019-07-17T15:21:33Z</time>
      </trkpt>
      <trkpt lat="47.82584" lon="-3.49341">
        <ele>40</ele>
        <time>2019-07-17T15:21:34Z</time>
      </trkpt>
      <trkpt lat="47.82589" lon="-3.49348">
        <ele>40</ele>
        <time>2019-07-17T15:21:35Z</time>
      </trkpt>
      <trkpt lat="47.82594" lon="-3.49354">
        <ele>40</ele>
        <time>2019-07-17T15:21:36Z</time>
      </trkpt>
      <trkpt lat="47.826" lon="-3.4936">
        <ele>40</ele>
        <time>2019-07-17T15:21:37Z</time>
      </trkpt>
      <trkpt lat="47.82605" lon="-3.49366">
        <ele>40</ele>
        <time>2019-07-17T15:21:38Z</time>
      </trkpt>
      <trkpt lat="47.82609" lon="-3.49372">
        <ele>40</ele>
        <time>2019-07-17T15:21:39Z</time>
      </trkpt>
      <trkpt lat="47.82613" lon="-3.49379">
        <ele>41</ele>
        <time>2019-07-17T15:21:40Z</time>
      </trkpt>
      <trkpt lat="47.82618" lon="-3.49384">
        <ele>41</ele>
        <time>2019-07-17T15:21:41Z</time>
      </trkpt>
      <trkpt lat="47.82623" lon="-3.49389">
        <ele>41</ele>
        <time>2019-07-17T15:21:42Z</time>
      </trkpt>
      <trkpt lat="47.82628" lon="-3.49395">
        <ele>41</ele>
        <time>2019-07-17T15:21:43Z</time>
      </trkpt>
      <trkpt lat="47.82633" lon="-3.49402">
        <ele>41</ele>
        <time>2019-07-17T15:21:44Z</time>
      </trkpt>
      <trkpt lat="47.82638" lon="-3.49408">
        <ele>42</ele>
        <time>2019-07-17T15:21:45Z</time>
      </trkpt>
      <trkpt lat="47.82643" lon="-3.49414">
        <ele>42</ele>
        <time>2019-07-17T15:21:46Z</time>
      </trkpt>
      <trkpt lat="47.82648" lon="-3.49419">
        <ele>42</ele>
        <time>2019-07-17T15:21:47Z</time>
      </trkpt>
      <trkpt lat="47.82653" lon="-3.49425">
        <ele>42</ele>
        <time>2019-07-17T15:21:48Z</time>
      </trkpt>
      <trkpt lat="47.82659" lon="-3.4943">
        <ele>42</ele>
        <time>2019-07-17T15:21:49Z</time>
      </trkpt>
      <trkpt lat="47.82663" lon="-3.49434">
        <ele>43</ele>
        <time>2019-07-17T15:21:50Z</time>
      </trkpt>
      <trkpt lat="47.82668" lon="-3.49439">
        <ele>43</ele>
        <time>2019-07-17T15:21:51Z</time>
      </trkpt>
      <trkpt lat="47.82673" lon="-3.49443">
        <ele>43</ele>
        <time>2019-07-17T15:21:52Z</time>
      </trkpt>
      <trkpt lat="47.82677" lon="-3.49447">
        <ele>43</ele>
        <time>2019-07-17T15:21:53Z</time>
      </trkpt>
      <trkpt lat="47.82682" lon="-3.49452">
        <ele>43</ele>
        <time>2019-07-17T15:21:54Z</time>
      </trkpt>
      <trkpt lat="47.82686" lon="-3.49456">
        <ele>43</ele>
        <time>2019-07-17T15:21:55Z</time>
      </trkpt>
      <trkpt lat="47.82691" lon="-3.49462">
        <ele>43</ele>
        <time>2019-07-17T15:21:56Z</time>
      </trkpt>
      <trkpt lat="47.82695" lon="-3.49468">
        <ele>43</ele>
        <time>2019-07-17T15:21:57Z</time>
      </trkpt>
      <trkpt lat="47.82696" lon="-3.49477">
        <ele>43</ele>
        <time>2019-07-17T15:21:58Z</time>
      </trkpt>
      <trkpt lat="47.82695" lon="-3.49485">
        <ele>43</ele>
        <time>2019-07-17T15:21:59Z</time>
      </trkpt>
      <trkpt lat="47.82693" lon="-3.49492">
        <ele>43</ele>
        <time>2019-07-17T15:22:00Z</time>
      </trkpt>
      <trkpt lat="47.8269" lon="-3.49498">
        <ele>43</ele>
        <time>2019-07-17T15:22:01Z</time>
      </trkpt>
      <trkpt lat="47.82687" lon="-3.49504">
        <ele>43</ele>
        <time>2019-07-17T15:22:02Z</time>
      </trkpt>
      <trkpt lat="47.82684" lon="-3.4951">
        <ele>43</ele>
        <time>2019-07-17T15:22:03Z</time>
      </trkpt>
      <trkpt lat="47.82681" lon="-3.49516">
        <ele>43</ele>
        <time>2019-07-17T15:22:04Z</time>
      </trkpt>
      <trkpt lat="47.82679" lon="-3.49522">
        <ele>43</ele>
        <time>2019-07-17T15:22:05Z</time>
      </trkpt>
      <trkpt lat="47.82676" lon="-3.49527">
        <ele>44</ele>
        <time>2019-07-17T15:22:06Z</time>
      </trkpt>
      <trkpt lat="47.82673" lon="-3.49532">
        <ele>44</ele>
        <time>2019-07-17T15:22:07Z</time>
      </trkpt>
      <trkpt lat="47.82673" lon="-3.49534">
        <ele>44</ele>
        <time>2019-07-17T15:22:08Z</time>
      </trkpt>
      <trkpt lat="47.82672" lon="-3.49534">
        <ele>44</ele>
        <time>2019-07-17T15:22:09Z</time>
      </trkpt>
      <trkpt lat="47.82672" lon="-3.49535">
        <ele>44</ele>
        <time>2019-07-17T15:22:10Z</time>
      </trkpt>
      <trkpt lat="47.82672" lon="-3.49535">
        <ele>44</ele>
        <time>2019-07-17T15:22:11Z</time>
      </trkpt>
      <trkpt lat="47.82672" lon="-3.49535">
        <ele>44</ele>
        <time>2019-07-17T15:22:12Z</time>
      </trkpt>
      <trkpt lat="47.82669" lon="-3.49538">
        <ele>46</ele>
        <time>2019-07-17T15:22:13Z</time>
      </trkpt>
      <trkpt lat="47.82667" lon="-3.49541">
        <ele>46</ele>
        <time>2019-07-17T15:22:14Z</time>
      </trkpt>
      <trkpt lat="47.82666" lon="-3.49544">
        <ele>46</ele>
        <time>2019-07-17T15:22:15Z</time>
      </trkpt>
      <trkpt lat="47.82663" lon="-3.49548">
        <ele>46</ele>
        <time>2019-07-17T15:22:16Z</time>
      </trkpt>
      <trkpt lat="47.82661" lon="-3.49553">
        <ele>46</ele>
        <time>2019-07-17T15:22:17Z</time>
      </trkpt>
      <trkpt lat="47.82658" lon="-3.49558">
        <ele>46</ele>
        <time>2019-07-17T15:22:18Z</time>
      </trkpt>
      <trkpt lat="47.82656" lon="-3.49564">
        <ele>46</ele>
        <time>2019-07-17T15:22:19Z</time>
      </trkpt>
      <trkpt lat="47.82653" lon="-3.4957">
        <ele>46</ele>
        <time>2019-07-17T15:22:20Z</time>
      </trkpt>
      <trkpt lat="47.8265" lon="-3.49576">
        <ele>46</ele>
        <time>2019-07-17T15:22:21Z</time>
      </trkpt>
      <trkpt lat="47.82647" lon="-3.49583">
        <ele>46</ele>
        <time>2019-07-17T15:22:22Z</time>
      </trkpt>
      <trkpt lat="47.82644" lon="-3.49589">
        <ele>46</ele>
        <time>2019-07-17T15:22:23Z</time>
      </trkpt>
      <trkpt lat="47.8264" lon="-3.49595">
        <ele>46</ele>
        <time>2019-07-17T15:22:24Z</time>
      </trkpt>
      <trkpt lat="47.82637" lon="-3.49603">
        <ele>45</ele>
        <time>2019-07-17T15:22:25Z</time>
      </trkpt>
      <trkpt lat="47.82633" lon="-3.49611">
        <ele>45</ele>
        <time>2019-07-17T15:22:26Z</time>
      </trkpt>
      <trkpt lat="47.82629" lon="-3.49619">
        <ele>45</ele>
        <time>2019-07-17T15:22:27Z</time>
      </trkpt>
      <trkpt lat="47.82624" lon="-3.49627">
        <ele>45</ele>
        <time>2019-07-17T15:22:28Z</time>
      </trkpt>
      <trkpt lat="47.8262" lon="-3.49636">
        <ele>44</ele>
        <time>2019-07-17T15:22:29Z</time>
      </trkpt>
      <trkpt lat="47.82616" lon="-3.49644">
        <ele>44</ele>
        <time>2019-07-17T15:22:30Z</time>
      </trkpt>
      <trkpt lat="47.82612" lon="-3.49652">
        <ele>43</ele>
        <time>2019-07-17T15:22:31Z</time>
      </trkpt>
      <trkpt lat="47.82609" lon="-3.49659">
        <ele>43</ele>
        <time>2019-07-17T15:22:32Z</time>
      </trkpt>
      <trkpt lat="47.82605" lon="-3.49667">
        <ele>43</ele>
        <time>2019-07-17T15:22:33Z</time>
      </trkpt>
      <trkpt lat="47.82601" lon="-3.49674">
        <ele>43</ele>
        <time>2019-07-17T15:22:34Z</time>
      </trkpt>
      <trkpt lat="47.82598" lon="-3.49681">
        <ele>43</ele>
        <time>2019-07-17T15:22:35Z</time>
      </trkpt>
      <trkpt lat="47.82595" lon="-3.49688">
        <ele>43</ele>
        <time>2019-07-17T15:22:36Z</time>
      </trkpt>
      <trkpt lat="47.82592" lon="-3.49695">
        <ele>43</ele>
        <time>2019-07-17T15:22:37Z</time>
      </trkpt>
      <trkpt lat="47.82589" lon="-3.49701">
        <ele>43</ele>
        <time>2019-07-17T15:22:38Z</time>
      </trkpt>
      <trkpt lat="47.82586" lon="-3.49708">
        <ele>43</ele>
        <time>2019-07-17T15:22:39Z</time>
      </trkpt>
      <trkpt lat="47.82583" lon="-3.49714">
        <ele>43</ele>
        <time>2019-07-17T15:22:40Z</time>
      </trkpt>
      <trkpt lat="47.8258" lon="-3.4972">
        <ele>43</ele>
        <time>2019-07-17T15:22:41Z</time>
      </trkpt>
      <trkpt lat="47.82578" lon="-3.49725">
        <ele>43</ele>
        <time>2019-07-17T15:22:42Z</time>
      </trkpt>
      <trkpt lat="47.82575" lon="-3.49731">
        <ele>43</ele>
        <time>2019-07-17T15:22:43Z</time>
      </trkpt>
      <trkpt lat="47.82573" lon="-3.49736">
        <ele>44</ele>
        <time>2019-07-17T15:22:44Z</time>
      </trkpt>
      <trkpt lat="47.82571" lon="-3.49741">
        <ele>44</ele>
        <time>2019-07-17T15:22:45Z</time>
      </trkpt>
      <trkpt lat="47.82569" lon="-3.49747">
        <ele>44</ele>
        <time>2019-07-17T15:22:46Z</time>
      </trkpt>
      <trkpt lat="47.82567" lon="-3.49752">
        <ele>44</ele>
        <time>2019-07-17T15:22:47Z</time>
      </trkpt>
      <trkpt lat="47.82564" lon="-3.49757">
        <ele>45</ele>
        <time>2019-07-17T15:22:48Z</time>
      </trkpt>
      <trkpt lat="47.82562" lon="-3.49762">
        <ele>45</ele>
        <time>2019-07-17T15:22:49Z</time>
      </trkpt>
      <trkpt lat="47.82561" lon="-3.49768">
        <ele>45</ele>
        <time>2019-07-17T15:22:50Z</time>
      </trkpt>
      <trkpt lat="47.82559" lon="-3.49774">
        <ele>45</ele>
        <time>2019-07-17T15:22:51Z</time>
      </trkpt>
      <trkpt lat="47.82558" lon="-3.49779">
        <ele>45</ele>
        <time>2019-07-17T15:22:52Z</time>
      </trkpt>
      <trkpt lat="47.82557" lon="-3.49785">
        <ele>45</ele>
        <time>2019-07-17T15:22:53Z</time>
      </trkpt>
      <trkpt lat="47.82556" lon="-3.49791">
        <ele>45</ele>
        <time>2019-07-17T15:22:54Z</time>
      </trkpt>
      <trkpt lat="47.82555" lon="-3.49797">
        <ele>45</ele>
        <time>2019-07-17T15:22:55Z</time>
      </trkpt>
      <trkpt lat="47.82555" lon="-3.49801">
        <ele>46</ele>
        <time>2019-07-17T15:22:56Z</time>
      </trkpt>
      <trkpt lat="47.82554" lon="-3.49805">
        <ele>46</ele>
        <time>2019-07-17T15:22:57Z</time>
      </trkpt>
      <trkpt lat="47.82554" lon="-3.49809">
        <ele>46</ele>
        <time>2019-07-17T15:22:58Z</time>
      </trkpt>
      <trkpt lat="47.82554" lon="-3.4981">
        <ele>46</ele>
        <time>2019-07-17T15:22:59Z</time>
      </trkpt>
      <trkpt lat="47.82554" lon="-3.49811">
        <ele>46</ele>
        <time>2019-07-17T15:23:00Z</time>
      </trkpt>
      <trkpt lat="47.82553" lon="-3.49811">
        <ele>45</ele>
        <time>2019-07-17T15:23:01Z</time>
      </trkpt>
      <trkpt lat="47.82554" lon="-3.49818">
        <ele>45</ele>
        <time>2019-07-17T15:23:02Z</time>
      </trkpt>
      <trkpt lat="47.82553" lon="-3.49821">
        <ele>45</ele>
        <time>2019-07-17T15:23:03Z</time>
      </trkpt>
      <trkpt lat="47.82552" lon="-3.49825">
        <ele>45</ele>
        <time>2019-07-17T15:23:04Z</time>
      </trkpt>
      <trkpt lat="47.82552" lon="-3.49829">
        <ele>45</ele>
        <time>2019-07-17T15:23:05Z</time>
      </trkpt>
      <trkpt lat="47.82551" lon="-3.49833">
        <ele>45</ele>
        <time>2019-07-17T15:23:06Z</time>
      </trkpt>
      <trkpt lat="47.82551" lon="-3.49837">
        <ele>45</ele>
        <time>2019-07-17T15:23:07Z</time>
      </trkpt>
      <trkpt lat="47.82551" lon="-3.49841">
        <ele>45</ele>
        <time>2019-07-17T15:23:08Z</time>
      </trkpt>
      <trkpt lat="47.82551" lon="-3.49846">
        <ele>45</ele>
        <time>2019-07-17T15:23:09Z</time>
      </trkpt>
      <trkpt lat="47.8255" lon="-3.49851">
        <ele>45</ele>
        <time>2019-07-17T15:23:10Z</time>
      </trkpt>
      <trkpt lat="47.8255" lon="-3.49856">
        <ele>45</ele>
        <time>2019-07-17T15:23:11Z</time>
      </trkpt>
      <trkpt lat="47.8255" lon="-3.49862">
        <ele>46</ele>
        <time>2019-07-17T15:23:12Z</time>
      </trkpt>
      <trkpt lat="47.8255" lon="-3.49867">
        <ele>46</ele>
        <time>2019-07-17T15:23:13Z</time>
      </trkpt>
      <trkpt lat="47.82551" lon="-3.49873">
        <ele>46</ele>
        <time>2019-07-17T15:23:14Z</time>
      </trkpt>
      <trkpt lat="47.82551" lon="-3.49879">
        <ele>46</ele>
        <time>2019-07-17T15:23:15Z</time>
      </trkpt>
      <trkpt lat="47.82551" lon="-3.49885">
        <ele>46</ele>
        <time>2019-07-17T15:23:16Z</time>
      </trkpt>
      <trkpt lat="47.82552" lon="-3.49891">
        <ele>46</ele>
        <time>2019-07-17T15:23:17Z</time>
      </trkpt>
      <trkpt lat="47.82552" lon="-3.49897">
        <ele>46</ele>
        <time>2019-07-17T15:23:18Z</time>
      </trkpt>
      <trkpt lat="47.82553" lon="-3.49903">
        <ele>46</ele>
        <time>2019-07-17T15:23:19Z</time>
      </trkpt>
      <trkpt lat="47.82553" lon="-3.4991">
        <ele>46</ele>
        <time>2019-07-17T15:23:20Z</time>
      </trkpt>
      <trkpt lat="47.82554" lon="-3.49916">
        <ele>46</ele>
        <time>2019-07-17T15:23:21Z</time>
      </trkpt>
      <trkpt lat="47.82555" lon="-3.49923">
        <ele>46</ele>
        <time>2019-07-17T15:23:22Z</time>
      </trkpt>
      <trkpt lat="47.82555" lon="-3.49929">
        <ele>46</ele>
        <time>2019-07-17T15:23:23Z</time>
      </trkpt>
      <trkpt lat="47.82556" lon="-3.49936">
        <ele>46</ele>
        <time>2019-07-17T15:23:24Z</time>
      </trkpt>
      <trkpt lat="47.82557" lon="-3.49942">
        <ele>46</ele>
        <time>2019-07-17T15:23:25Z</time>
      </trkpt>
      <trkpt lat="47.82558" lon="-3.49949">
        <ele>46</ele>
        <time>2019-07-17T15:23:26Z</time>
      </trkpt>
      <trkpt lat="47.82559" lon="-3.49956">
        <ele>46</ele>
        <time>2019-07-17T15:23:27Z</time>
      </trkpt>
      <trkpt lat="47.8256" lon="-3.49963">
        <ele>46</ele>
        <time>2019-07-17T15:23:28Z</time>
      </trkpt>
      <trkpt lat="47.82561" lon="-3.4997">
        <ele>46</ele>
        <time>2019-07-17T15:23:29Z</time>
      </trkpt>
      <trkpt lat="47.82562" lon="-3.49978">
        <ele>46</ele>
        <time>2019-07-17T15:23:30Z</time>
      </trkpt>
      <trkpt lat="47.82564" lon="-3.49987">
        <ele>45</ele>
        <time>2019-07-17T15:23:31Z</time>
      </trkpt>
      <trkpt lat="47.82564" lon="-3.49997">
        <ele>45</ele>
        <time>2019-07-17T15:23:32Z</time>
      </trkpt>
      <trkpt lat="47.82563" lon="-3.50006">
        <ele>45</ele>
        <time>2019-07-17T15:23:33Z</time>
      </trkpt>
      <trkpt lat="47.8256" lon="-3.50014">
        <ele>45</ele>
        <time>2019-07-17T15:23:34Z</time>
      </trkpt>
      <trkpt lat="47.82557" lon="-3.50021">
        <ele>45</ele>
        <time>2019-07-17T15:23:35Z</time>
      </trkpt>
      <trkpt lat="47.82554" lon="-3.50026">
        <ele>45</ele>
        <time>2019-07-17T15:23:36Z</time>
      </trkpt>
      <trkpt lat="47.82551" lon="-3.50033">
        <ele>45</ele>
        <time>2019-07-17T15:23:37Z</time>
      </trkpt>
      <trkpt lat="47.82547" lon="-3.50037">
        <ele>45</ele>
        <time>2019-07-17T15:23:38Z</time>
      </trkpt>
      <trkpt lat="47.82543" lon="-3.50039">
        <ele>45</ele>
        <time>2019-07-17T15:23:39Z</time>
      </trkpt>
      <trkpt lat="47.82538" lon="-3.50038">
        <ele>45</ele>
        <time>2019-07-17T15:23:40Z</time>
      </trkpt>
      <trkpt lat="47.82534" lon="-3.50036">
        <ele>45</ele>
        <time>2019-07-17T15:23:41Z</time>
      </trkpt>
      <trkpt lat="47.82529" lon="-3.50033">
        <ele>45</ele>
        <time>2019-07-17T15:23:42Z</time>
      </trkpt>
      <trkpt lat="47.82525" lon="-3.50031">
        <ele>45</ele>
        <time>2019-07-17T15:23:43Z</time>
      </trkpt>
      <trkpt lat="47.82521" lon="-3.50028">
        <ele>45</ele>
        <time>2019-07-17T15:23:44Z</time>
      </trkpt>
      <trkpt lat="47.82516" lon="-3.50026">
        <ele>45</ele>
        <time>2019-07-17T15:23:45Z</time>
      </trkpt>
      <trkpt lat="47.82511" lon="-3.50026">
        <ele>45</ele>
        <time>2019-07-17T15:23:46Z</time>
      </trkpt>
      <trkpt lat="47.82506" lon="-3.50026">
        <ele>44</ele>
        <time>2019-07-17T15:23:47Z</time>
      </trkpt>
      <trkpt lat="47.82502" lon="-3.50027">
        <ele>44</ele>
        <time>2019-07-17T15:23:48Z</time>
      </trkpt>
      <trkpt lat="47.82497" lon="-3.50029">
        <ele>44</ele>
        <time>2019-07-17T15:23:49Z</time>
      </trkpt>
      <trkpt lat="47.82492" lon="-3.50031">
        <ele>44</ele>
        <time>2019-07-17T15:23:50Z</time>
      </trkpt>
      <trkpt lat="47.82487" lon="-3.50033">
        <ele>44</ele>
        <time>2019-07-17T15:23:51Z</time>
      </trkpt>
      <trkpt lat="47.82482" lon="-3.50036">
        <ele>43</ele>
        <time>2019-07-17T15:23:52Z</time>
      </trkpt>
      <trkpt lat="47.82476" lon="-3.50038">
        <ele>43</ele>
        <time>2019-07-17T15:23:53Z</time>
      </trkpt>
      <trkpt lat="47.82471" lon="-3.5004">
        <ele>43</ele>
        <time>2019-07-17T15:23:54Z</time>
      </trkpt>
      <trkpt lat="47.82466" lon="-3.50043">
        <ele>43</ele>
        <time>2019-07-17T15:23:55Z</time>
      </trkpt>
      <trkpt lat="47.8246" lon="-3.50045">
        <ele>42</ele>
        <time>2019-07-17T15:23:56Z</time>
      </trkpt>
      <trkpt lat="47.82455" lon="-3.50047">
        <ele>42</ele>
        <time>2019-07-17T15:23:57Z</time>
      </trkpt>
      <trkpt lat="47.82449" lon="-3.5005">
        <ele>42</ele>
        <time>2019-07-17T15:23:58Z</time>
      </trkpt>
      <trkpt lat="47.82443" lon="-3.50053">
        <ele>42</ele>
        <time>2019-07-17T15:23:59Z</time>
      </trkpt>
      <trkpt lat="47.82438" lon="-3.50055">
        <ele>42</ele>
        <time>2019-07-17T15:24:00Z</time>
      </trkpt>
      <trkpt lat="47.82433" lon="-3.50058">
        <ele>41</ele>
        <time>2019-07-17T15:24:01Z</time>
      </trkpt>
      <trkpt lat="47.82427" lon="-3.5006">
        <ele>41</ele>
        <time>2019-07-17T15:24:02Z</time>
      </trkpt>
      <trkpt lat="47.82421" lon="-3.50062">
        <ele>41</ele>
        <time>2019-07-17T15:24:03Z</time>
      </trkpt>
      <trkpt lat="47.82416" lon="-3.50065">
        <ele>41</ele>
        <time>2019-07-17T15:24:04Z</time>
      </trkpt>
      <trkpt lat="47.82411" lon="-3.50068">
        <ele>41</ele>
        <time>2019-07-17T15:24:05Z</time>
      </trkpt>
      <trkpt lat="47.82406" lon="-3.50072">
        <ele>41</ele>
        <time>2019-07-17T15:24:06Z</time>
      </trkpt>
      <trkpt lat="47.82402" lon="-3.50078">
        <ele>41</ele>
        <time>2019-07-17T15:24:07Z</time>
      </trkpt>
      <trkpt lat="47.824" lon="-3.50085">
        <ele>40</ele>
        <time>2019-07-17T15:24:08Z</time>
      </trkpt>
      <trkpt lat="47.82398" lon="-3.50092">
        <ele>41</ele>
        <time>2019-07-17T15:24:09Z</time>
      </trkpt>
      <trkpt lat="47.82397" lon="-3.501">
        <ele>40</ele>
        <time>2019-07-17T15:24:10Z</time>
      </trkpt>
      <trkpt lat="47.82396" lon="-3.50108">
        <ele>40</ele>
        <time>2019-07-17T15:24:11Z</time>
      </trkpt>
      <trkpt lat="47.82395" lon="-3.50116">
        <ele>40</ele>
        <time>2019-07-17T15:24:12Z</time>
      </trkpt>
      <trkpt lat="47.82394" lon="-3.50125">
        <ele>40</ele>
        <time>2019-07-17T15:24:13Z</time>
      </trkpt>
      <trkpt lat="47.82394" lon="-3.50133">
        <ele>40</ele>
        <time>2019-07-17T15:24:14Z</time>
      </trkpt>
      <trkpt lat="47.82393" lon="-3.50141">
        <ele>40</ele>
        <time>2019-07-17T15:24:15Z</time>
      </trkpt>
      <trkpt lat="47.82393" lon="-3.50148">
        <ele>40</ele>
        <time>2019-07-17T15:24:16Z</time>
      </trkpt>
      <trkpt lat="47.82392" lon="-3.50155">
        <ele>40</ele>
        <time>2019-07-17T15:24:17Z</time>
      </trkpt>
      <trkpt lat="47.82392" lon="-3.5016">
        <ele>40</ele>
        <time>2019-07-17T15:24:18Z</time>
      </trkpt>
      <trkpt lat="47.82392" lon="-3.50162">
        <ele>40</ele>
        <time>2019-07-17T15:24:19Z</time>
      </trkpt>
      <trkpt lat="47.82392" lon="-3.50162">
        <ele>40</ele>
        <time>2019-07-17T15:24:20Z</time>
      </trkpt>
      <trkpt lat="47.82391" lon="-3.50162">
        <ele>40</ele>
        <time>2019-07-17T15:24:21Z</time>
      </trkpt>
      <trkpt lat="47.82391" lon="-3.50162">
        <ele>40</ele>
        <time>2019-07-17T15:24:22Z</time>
      </trkpt>
      <trkpt lat="47.82391" lon="-3.50162">
        <ele>40</ele>
        <time>2019-07-17T15:24:23Z</time>
      </trkpt>
      <trkpt lat="47.82392" lon="-3.50158">
        <ele>40</ele>
        <time>2019-07-17T15:24:24Z</time>
      </trkpt>
      <trkpt lat="47.82392" lon="-3.50155">
        <ele>40</ele>
        <time>2019-07-17T15:24:25Z</time>
      </trkpt>
      <trkpt lat="47.82392" lon="-3.50151">
        <ele>40</ele>
        <time>2019-07-17T15:24:26Z</time>
      </trkpt>
      <trkpt lat="47.82392" lon="-3.50147">
        <ele>40</ele>
        <time>2019-07-17T15:24:27Z</time>
      </trkpt>
      <trkpt lat="47.82392" lon="-3.50142">
        <ele>41</ele>
        <time>2019-07-17T15:24:28Z</time>
      </trkpt>
      <trkpt lat="47.82393" lon="-3.50138">
        <ele>41</ele>
        <time>2019-07-17T15:24:29Z</time>
      </trkpt>
      <trkpt lat="47.82393" lon="-3.50132">
        <ele>41</ele>
        <time>2019-07-17T15:24:30Z</time>
      </trkpt>
      <trkpt lat="47.82394" lon="-3.50127">
        <ele>41</ele>
        <time>2019-07-17T15:24:31Z</time>
      </trkpt>
      <trkpt lat="47.82395" lon="-3.50121">
        <ele>41</ele>
        <time>2019-07-17T15:24:32Z</time>
      </trkpt>
      <trkpt lat="47.82395" lon="-3.50115">
        <ele>41</ele>
        <time>2019-07-17T15:24:33Z</time>
      </trkpt>
      <trkpt lat="47.82395" lon="-3.50109">
        <ele>41</ele>
        <time>2019-07-17T15:24:34Z</time>
      </trkpt>
      <trkpt lat="47.82395" lon="-3.50103">
        <ele>41</ele>
        <time>2019-07-17T15:24:35Z</time>
      </trkpt>
      <trkpt lat="47.82396" lon="-3.50098">
        <ele>41</ele>
        <time>2019-07-17T15:24:36Z</time>
      </trkpt>
      <trkpt lat="47.82397" lon="-3.50092">
        <ele>41</ele>
        <time>2019-07-17T15:24:37Z</time>
      </trkpt>
      <trkpt lat="47.82397" lon="-3.50085">
        <ele>41</ele>
        <time>2019-07-17T15:24:38Z</time>
      </trkpt>
      <trkpt lat="47.82396" lon="-3.50078">
        <ele>41</ele>
        <time>2019-07-17T15:24:39Z</time>
      </trkpt>
      <trkpt lat="47.82393" lon="-3.50073">
        <ele>41</ele>
        <time>2019-07-17T15:24:40Z</time>
      </trkpt>
      <trkpt lat="47.82388" lon="-3.50071">
        <ele>41</ele>
        <time>2019-07-17T15:24:41Z</time>
      </trkpt>
      <trkpt lat="47.82383" lon="-3.50069">
        <ele>41</ele>
        <time>2019-07-17T15:24:42Z</time>
      </trkpt>
      <trkpt lat="47.82378" lon="-3.50067">
        <ele>41</ele>
        <time>2019-07-17T15:24:43Z</time>
      </trkpt>
      <trkpt lat="47.82372" lon="-3.50066">
        <ele>41</ele>
        <time>2019-07-17T15:24:44Z</time>
      </trkpt>
      <trkpt lat="47.82367" lon="-3.50065">
        <ele>41</ele>
        <time>2019-07-17T15:24:45Z</time>
      </trkpt>
      <trkpt lat="47.82361" lon="-3.50064">
        <ele>41</ele>
        <time>2019-07-17T15:24:46Z</time>
      </trkpt>
      <trkpt lat="47.82356" lon="-3.50062">
        <ele>41</ele>
        <time>2019-07-17T15:24:47Z</time>
      </trkpt>
      <trkpt lat="47.8235" lon="-3.50061">
        <ele>41</ele>
        <time>2019-07-17T15:24:48Z</time>
      </trkpt>
      <trkpt lat="47.82345" lon="-3.5006">
        <ele>41</ele>
        <time>2019-07-17T15:24:49Z</time>
      </trkpt>
      <trkpt lat="47.8234" lon="-3.50059">
        <ele>41</ele>
        <time>2019-07-17T15:24:50Z</time>
      </trkpt>
      <trkpt lat="47.82334" lon="-3.50058">
        <ele>41</ele>
        <time>2019-07-17T15:24:51Z</time>
      </trkpt>
      <trkpt lat="47.82329" lon="-3.50057">
        <ele>41</ele>
        <time>2019-07-17T15:24:52Z</time>
      </trkpt>
      <trkpt lat="47.82324" lon="-3.50056">
        <ele>41</ele>
        <time>2019-07-17T15:24:53Z</time>
      </trkpt>
      <trkpt lat="47.82318" lon="-3.50055">
        <ele>41</ele>
        <time>2019-07-17T15:24:54Z</time>
      </trkpt>
      <trkpt lat="47.82312" lon="-3.50053">
        <ele>41</ele>
        <time>2019-07-17T15:24:55Z</time>
      </trkpt>
      <trkpt lat="47.82306" lon="-3.50052">
        <ele>41</ele>
        <time>2019-07-17T15:24:56Z</time>
      </trkpt>
      <trkpt lat="47.82299" lon="-3.50051">
        <ele>41</ele>
        <time>2019-07-17T15:24:57Z</time>
      </trkpt>
      <trkpt lat="47.82293" lon="-3.5005">
        <ele>41</ele>
        <time>2019-07-17T15:24:58Z</time>
      </trkpt>
      <trkpt lat="47.82286" lon="-3.50049">
        <ele>41</ele>
        <time>2019-07-17T15:24:59Z</time>
      </trkpt>
      <trkpt lat="47.82279" lon="-3.50047">
        <ele>40</ele>
        <time>2019-07-17T15:25:00Z</time>
      </trkpt>
      <trkpt lat="47.82272" lon="-3.50046">
        <ele>40</ele>
        <time>2019-07-17T15:25:01Z</time>
      </trkpt>
      <trkpt lat="47.82265" lon="-3.50045">
        <ele>40</ele>
        <time>2019-07-17T15:25:02Z</time>
      </trkpt>
      <trkpt lat="47.82257" lon="-3.50043">
        <ele>40</ele>
        <time>2019-07-17T15:25:03Z</time>
      </trkpt>
      <trkpt lat="47.8225" lon="-3.50041">
        <ele>39</ele>
        <time>2019-07-17T15:25:04Z</time>
      </trkpt>
      <trkpt lat="47.82242" lon="-3.50039">
        <ele>39</ele>
        <time>2019-07-17T15:25:05Z</time>
      </trkpt>
      <trkpt lat="47.82234" lon="-3.50038">
        <ele>38</ele>
        <time>2019-07-17T15:25:06Z</time>
      </trkpt>
      <trkpt lat="47.82226" lon="-3.50037">
        <ele>38</ele>
        <time>2019-07-17T15:25:07Z</time>
      </trkpt>
      <trkpt lat="47.82218" lon="-3.50035">
        <ele>38</ele>
        <time>2019-07-17T15:25:08Z</time>
      </trkpt>
      <trkpt lat="47.82209" lon="-3.50033">
        <ele>37</ele>
        <time>2019-07-17T15:25:09Z</time>
      </trkpt>
      <trkpt lat="47.822" lon="-3.50032">
        <ele>37</ele>
        <time>2019-07-17T15:25:10Z</time>
      </trkpt>
      <trkpt lat="47.82192" lon="-3.5003">
        <ele>36</ele>
        <time>2019-07-17T15:25:11Z</time>
      </trkpt>
      <trkpt lat="47.82183" lon="-3.50029">
        <ele>36</ele>
        <time>2019-07-17T15:25:12Z</time>
      </trkpt>
      <trkpt lat="47.82174" lon="-3.50027">
        <ele>35</ele>
        <time>2019-07-17T15:25:13Z</time>
      </trkpt>
      <trkpt lat="47.82164" lon="-3.50025">
        <ele>35</ele>
        <time>2019-07-17T15:25:14Z</time>
      </trkpt>
      <trkpt lat="47.82155" lon="-3.50023">
        <ele>34</ele>
        <time>2019-07-17T15:25:15Z</time>
      </trkpt>
      <trkpt lat="47.82146" lon="-3.50022">
        <ele>34</ele>
        <time>2019-07-17T15:25:16Z</time>
      </trkpt>
      <trkpt lat="47.82137" lon="-3.5002">
        <ele>34</ele>
        <time>2019-07-17T15:25:17Z</time>
      </trkpt>
      <trkpt lat="47.82128" lon="-3.50018">
        <ele>33</ele>
        <time>2019-07-17T15:25:18Z</time>
      </trkpt>
      <trkpt lat="47.82119" lon="-3.50017">
        <ele>33</ele>
        <time>2019-07-17T15:25:19Z</time>
      </trkpt>
      <trkpt lat="47.82111" lon="-3.50015">
        <ele>33</ele>
        <time>2019-07-17T15:25:20Z</time>
      </trkpt>
      <trkpt lat="47.82102" lon="-3.50013">
        <ele>32</ele>
        <time>2019-07-17T15:25:21Z</time>
      </trkpt>
      <trkpt lat="47.82093" lon="-3.50011">
        <ele>32</ele>
        <time>2019-07-17T15:25:22Z</time>
      </trkpt>
      <trkpt lat="47.82084" lon="-3.5001">
        <ele>32</ele>
        <time>2019-07-17T15:25:23Z</time>
      </trkpt>
      <trkpt lat="47.82075" lon="-3.50008">
        <ele>31</ele>
        <time>2019-07-17T15:25:24Z</time>
      </trkpt>
      <trkpt lat="47.82066" lon="-3.50006">
        <ele>31</ele>
        <time>2019-07-17T15:25:25Z</time>
      </trkpt>
      <trkpt lat="47.82057" lon="-3.50004">
        <ele>31</ele>
        <time>2019-07-17T15:25:26Z</time>
      </trkpt>
      <trkpt lat="47.82049" lon="-3.50002">
        <ele>31</ele>
        <time>2019-07-17T15:25:27Z</time>
      </trkpt>
      <trkpt lat="47.8204" lon="-3.5">
        <ele>30</ele>
        <time>2019-07-17T15:25:28Z</time>
      </trkpt>
      <trkpt lat="47.82031" lon="-3.49999">
        <ele>30</ele>
        <time>2019-07-17T15:25:29Z</time>
      </trkpt>
      <trkpt lat="47.82023" lon="-3.49997">
        <ele>30</ele>
        <time>2019-07-17T15:25:30Z</time>
      </trkpt>
      <trkpt lat="47.82015" lon="-3.49996">
        <ele>30</ele>
        <time>2019-07-17T15:25:31Z</time>
      </trkpt>
      <trkpt lat="47.82007" lon="-3.49994">
        <ele>30</ele>
        <time>2019-07-17T15:25:32Z</time>
      </trkpt>
      <trkpt lat="47.82" lon="-3.49993">
        <ele>30</ele>
        <time>2019-07-17T15:25:33Z</time>
      </trkpt>
      <trkpt lat="47.81993" lon="-3.49992">
        <ele>30</ele>
        <time>2019-07-17T15:25:34Z</time>
      </trkpt>
      <trkpt lat="47.81987" lon="-3.49992">
        <ele>30</ele>
        <time>2019-07-17T15:25:35Z</time>
      </trkpt>
      <trkpt lat="47.81981" lon="-3.49991">
        <ele>31</ele>
        <time>2019-07-17T15:25:36Z</time>
      </trkpt>
      <trkpt lat="47.81975" lon="-3.49991">
        <ele>31</ele>
        <time>2019-07-17T15:25:37Z</time>
      </trkpt>
      <trkpt lat="47.81969" lon="-3.49991">
        <ele>31</ele>
        <time>2019-07-17T15:25:38Z</time>
      </trkpt>
      <trkpt lat="47.81964" lon="-3.49991">
        <ele>31</ele>
        <time>2019-07-17T15:25:39Z</time>
      </trkpt>
      <trkpt lat="47.81958" lon="-3.49992">
        <ele>31</ele>
        <time>2019-07-17T15:25:40Z</time>
      </trkpt>
      <trkpt lat="47.81953" lon="-3.49993">
        <ele>31</ele>
        <time>2019-07-17T15:25:41Z</time>
      </trkpt>
      <trkpt lat="47.81948" lon="-3.49994">
        <ele>31</ele>
        <time>2019-07-17T15:25:42Z</time>
      </trkpt>
      <trkpt lat="47.81944" lon="-3.49996">
        <ele>31</ele>
        <time>2019-07-17T15:25:43Z</time>
      </trkpt>
      <trkpt lat="47.81939" lon="-3.49997">
        <ele>31</ele>
        <time>2019-07-17T15:25:44Z</time>
      </trkpt>
      <trkpt lat="47.81934" lon="-3.49998">
        <ele>31</ele>
        <time>2019-07-17T15:25:45Z</time>
      </trkpt>
      <trkpt lat="47.8193" lon="-3.49999">
        <ele>31</ele>
        <time>2019-07-17T15:25:46Z</time>
      </trkpt>
      <trkpt lat="47.81925" lon="-3.49999">
        <ele>31</ele>
        <time>2019-07-17T15:25:47Z</time>
      </trkpt>
      <trkpt lat="47.81921" lon="-3.5">
        <ele>31</ele>
        <time>2019-07-17T15:25:48Z</time>
      </trkpt>
      <trkpt lat="47.81916" lon="-3.5">
        <ele>31</ele>
        <time>2019-07-17T15:25:49Z</time>
      </trkpt>
      <trkpt lat="47.81911" lon="-3.5">
        <ele>31</ele>
        <time>2019-07-17T15:25:50Z</time>
      </trkpt>
      <trkpt lat="47.81905" lon="-3.50001">
        <ele>31</ele>
        <time>2019-07-17T15:25:51Z</time>
      </trkpt>
      <trkpt lat="47.81901" lon="-3.50001">
        <ele>31</ele>
        <time>2019-07-17T15:25:52Z</time>
      </trkpt>
      <trkpt lat="47.81896" lon="-3.50002">
        <ele>31</ele>
        <time>2019-07-17T15:25:53Z</time>
      </trkpt>
      <trkpt lat="47.81892" lon="-3.50001">
        <ele>31</ele>
        <time>2019-07-17T15:25:54Z</time>
      </trkpt>
      <trkpt lat="47.81887" lon="-3.50001">
        <ele>31</ele>
        <time>2019-07-17T15:25:55Z</time>
      </trkpt>
      <trkpt lat="47.81884" lon="-3.50003">
        <ele>31</ele>
        <time>2019-07-17T15:25:56Z</time>
      </trkpt>
      <trkpt lat="47.81881" lon="-3.50006">
        <ele>31</ele>
        <time>2019-07-17T15:25:57Z</time>
      </trkpt>
      <trkpt lat="47.81878" lon="-3.5001">
        <ele>31</ele>
        <time>2019-07-17T15:25:58Z</time>
      </trkpt>
      <trkpt lat="47.81876" lon="-3.50014">
        <ele>31</ele>
        <time>2019-07-17T15:25:59Z</time>
      </trkpt>
      <trkpt lat="47.81874" lon="-3.50018">
        <ele>31</ele>
        <time>2019-07-17T15:26:00Z</time>
      </trkpt>
      <trkpt lat="47.81872" lon="-3.50022">
        <ele>31</ele>
        <time>2019-07-17T15:26:01Z</time>
      </trkpt>
      <trkpt lat="47.8187" lon="-3.50025">
        <ele>31</ele>
        <time>2019-07-17T15:26:02Z</time>
      </trkpt>
      <trkpt lat="47.81868" lon="-3.50029">
        <ele>31</ele>
        <time>2019-07-17T15:26:03Z</time>
      </trkpt>
      <trkpt lat="47.81866" lon="-3.50032">
        <ele>31</ele>
        <time>2019-07-17T15:26:04Z</time>
      </trkpt>
      <trkpt lat="47.81863" lon="-3.50037">
        <ele>32</ele>
        <time>2019-07-17T15:26:05Z</time>
      </trkpt>
      <trkpt lat="47.81861" lon="-3.50041">
        <ele>32</ele>
        <time>2019-07-17T15:26:06Z</time>
      </trkpt>
      <trkpt lat="47.81859" lon="-3.50046">
        <ele>32</ele>
        <time>2019-07-17T15:26:07Z</time>
      </trkpt>
      <trkpt lat="47.81856" lon="-3.50049">
        <ele>32</ele>
        <time>2019-07-17T15:26:08Z</time>
      </trkpt>
      <trkpt lat="47.81854" lon="-3.50053">
        <ele>32</ele>
        <time>2019-07-17T15:26:09Z</time>
      </trkpt>
      <trkpt lat="47.81852" lon="-3.50057">
        <ele>32</ele>
        <time>2019-07-17T15:26:10Z</time>
      </trkpt>
      <trkpt lat="47.81849" lon="-3.50062">
        <ele>32</ele>
        <time>2019-07-17T15:26:11Z</time>
      </trkpt>
      <trkpt lat="47.81846" lon="-3.50066">
        <ele>32</ele>
        <time>2019-07-17T15:26:12Z</time>
      </trkpt>
      <trkpt lat="47.81843" lon="-3.5007">
        <ele>32</ele>
        <time>2019-07-17T15:26:13Z</time>
      </trkpt>
      <trkpt lat="47.8184" lon="-3.50073">
        <ele>32</ele>
        <time>2019-07-17T15:26:14Z</time>
      </trkpt>
      <trkpt lat="47.81837" lon="-3.50077">
        <ele>33</ele>
        <time>2019-07-17T15:26:15Z</time>
      </trkpt>
      <trkpt lat="47.81833" lon="-3.5008">
        <ele>33</ele>
        <time>2019-07-17T15:26:16Z</time>
      </trkpt>
      <trkpt lat="47.81829" lon="-3.50084">
        <ele>33</ele>
        <time>2019-07-17T15:26:17Z</time>
      </trkpt>
      <trkpt lat="47.81826" lon="-3.50087">
        <ele>33</ele>
        <time>2019-07-17T15:26:18Z</time>
      </trkpt>
      <trkpt lat="47.81822" lon="-3.50091">
        <ele>33</ele>
        <time>2019-07-17T15:26:19Z</time>
      </trkpt>
      <trkpt lat="47.81818" lon="-3.50095">
        <ele>34</ele>
        <time>2019-07-17T15:26:20Z</time>
      </trkpt>
      <trkpt lat="47.81814" lon="-3.50099">
        <ele>34</ele>
        <time>2019-07-17T15:26:21Z</time>
      </trkpt>
      <trkpt lat="47.81811" lon="-3.50103">
        <ele>34</ele>
        <time>2019-07-17T15:26:22Z</time>
      </trkpt>
      <trkpt lat="47.81808" lon="-3.50108">
        <ele>34</ele>
        <time>2019-07-17T15:26:23Z</time>
      </trkpt>
      <trkpt lat="47.81804" lon="-3.50111">
        <ele>34</ele>
        <time>2019-07-17T15:26:24Z</time>
      </trkpt>
      <trkpt lat="47.818" lon="-3.50113">
        <ele>34</ele>
        <time>2019-07-17T15:26:25Z</time>
      </trkpt>
      <trkpt lat="47.81796" lon="-3.50115">
        <ele>35</ele>
        <time>2019-07-17T15:26:26Z</time>
      </trkpt>
      <trkpt lat="47.81793" lon="-3.50115">
        <ele>35</ele>
        <time>2019-07-17T15:26:27Z</time>
      </trkpt>
      <trkpt lat="47.8179" lon="-3.50116">
        <ele>35</ele>
        <time>2019-07-17T15:26:28Z</time>
      </trkpt>
      <trkpt lat="47.81787" lon="-3.50118">
        <ele>35</ele>
        <time>2019-07-17T15:26:29Z</time>
      </trkpt>
      <trkpt lat="47.81784" lon="-3.50121">
        <ele>35</ele>
        <time>2019-07-17T15:26:30Z</time>
      </trkpt>
      <trkpt lat="47.8178" lon="-3.50124">
        <ele>35</ele>
        <time>2019-07-17T15:26:31Z</time>
      </trkpt>
      <trkpt lat="47.81778" lon="-3.50127">
        <ele>36</ele>
        <time>2019-07-17T15:26:32Z</time>
      </trkpt>
      <trkpt lat="47.81774" lon="-3.50131">
        <ele>36</ele>
        <time>2019-07-17T15:26:33Z</time>
      </trkpt>
      <trkpt lat="47.81771" lon="-3.50133">
        <ele>36</ele>
        <time>2019-07-17T15:26:34Z</time>
      </trkpt>
      <trkpt lat="47.81768" lon="-3.50137">
        <ele>36</ele>
        <time>2019-07-17T15:26:35Z</time>
      </trkpt>
      <trkpt lat="47.81764" lon="-3.50141">
        <ele>37</ele>
        <time>2019-07-17T15:26:36Z</time>
      </trkpt>
      <trkpt lat="47.81761" lon="-3.50145">
        <ele>37</ele>
        <time>2019-07-17T15:26:37Z</time>
      </trkpt>
      <trkpt lat="47.81759" lon="-3.50149">
        <ele>37</ele>
        <time>2019-07-17T15:26:38Z</time>
      </trkpt>
      <trkpt lat="47.81757" lon="-3.50154">
        <ele>37</ele>
        <time>2019-07-17T15:26:39Z</time>
      </trkpt>
      <trkpt lat="47.81754" lon="-3.50158">
        <ele>38</ele>
        <time>2019-07-17T15:26:40Z</time>
      </trkpt>
      <trkpt lat="47.81752" lon="-3.50163">
        <ele>38</ele>
        <time>2019-07-17T15:26:41Z</time>
      </trkpt>
      <trkpt lat="47.8175" lon="-3.50168">
        <ele>38</ele>
        <time>2019-07-17T15:26:42Z</time>
      </trkpt>
      <trkpt lat="47.81747" lon="-3.50174">
        <ele>38</ele>
        <time>2019-07-17T15:26:43Z</time>
      </trkpt>
      <trkpt lat="47.81745" lon="-3.5018">
        <ele>39</ele>
        <time>2019-07-17T15:26:44Z</time>
      </trkpt>
      <trkpt lat="47.81743" lon="-3.50186">
        <ele>39</ele>
        <time>2019-07-17T15:26:45Z</time>
      </trkpt>
      <trkpt lat="47.81741" lon="-3.50192">
        <ele>39</ele>
        <time>2019-07-17T15:26:46Z</time>
      </trkpt>
      <trkpt lat="47.81739" lon="-3.50198">
        <ele>39</ele>
        <time>2019-07-17T15:26:47Z</time>
      </trkpt>
      <trkpt lat="47.81737" lon="-3.50206">
        <ele>39</ele>
        <time>2019-07-17T15:26:48Z</time>
      </trkpt>
      <trkpt lat="47.81736" lon="-3.50213">
        <ele>40</ele>
        <time>2019-07-17T15:26:49Z</time>
      </trkpt>
      <trkpt lat="47.81736" lon="-3.5022">
        <ele>40</ele>
        <time>2019-07-17T15:26:50Z</time>
      </trkpt>
      <trkpt lat="47.81736" lon="-3.50226">
        <ele>40</ele>
        <time>2019-07-17T15:26:51Z</time>
      </trkpt>
      <trkpt lat="47.81735" lon="-3.50233">
        <ele>40</ele>
        <time>2019-07-17T15:26:52Z</time>
      </trkpt>
      <trkpt lat="47.81733" lon="-3.50237">
        <ele>40</ele>
        <time>2019-07-17T15:26:53Z</time>
      </trkpt>
      <trkpt lat="47.81732" lon="-3.50243">
        <ele>40</ele>
        <time>2019-07-17T15:26:54Z</time>
      </trkpt>
      <trkpt lat="47.81731" lon="-3.50247">
        <ele>40</ele>
        <time>2019-07-17T15:26:55Z</time>
      </trkpt>
      <trkpt lat="47.8173" lon="-3.50253">
        <ele>40</ele>
        <time>2019-07-17T15:26:56Z</time>
      </trkpt>
      <trkpt lat="47.8173" lon="-3.50259">
        <ele>40</ele>
        <time>2019-07-17T15:26:57Z</time>
      </trkpt>
      <trkpt lat="47.81729" lon="-3.50264">
        <ele>40</ele>
        <time>2019-07-17T15:26:58Z</time>
      </trkpt>
      <trkpt lat="47.81727" lon="-3.50268">
        <ele>41</ele>
        <time>2019-07-17T15:26:59Z</time>
      </trkpt>
      <trkpt lat="47.81725" lon="-3.50272">
        <ele>41</ele>
        <time>2019-07-17T15:27:00Z</time>
      </trkpt>
      <trkpt lat="47.81722" lon="-3.50275">
        <ele>41</ele>
        <time>2019-07-17T15:27:01Z</time>
      </trkpt>
      <trkpt lat="47.81719" lon="-3.50279">
        <ele>41</ele>
        <time>2019-07-17T15:27:02Z</time>
      </trkpt>
      <trkpt lat="47.81716" lon="-3.50285">
        <ele>41</ele>
        <time>2019-07-17T15:27:03Z</time>
      </trkpt>
      <trkpt lat="47.81713" lon="-3.5029">
        <ele>42</ele>
        <time>2019-07-17T15:27:04Z</time>
      </trkpt>
      <trkpt lat="47.8171" lon="-3.50296">
        <ele>42</ele>
        <time>2019-07-17T15:27:05Z</time>
      </trkpt>
      <trkpt lat="47.81707" lon="-3.50302">
        <ele>42</ele>
        <time>2019-07-17T15:27:06Z</time>
      </trkpt>
      <trkpt lat="47.81704" lon="-3.50309">
        <ele>42</ele>
        <time>2019-07-17T15:27:07Z</time>
      </trkpt>
      <trkpt lat="47.81701" lon="-3.50315">
        <ele>42</ele>
        <time>2019-07-17T15:27:08Z</time>
      </trkpt>
      <trkpt lat="47.81699" lon="-3.50322">
        <ele>43</ele>
        <time>2019-07-17T15:27:09Z</time>
      </trkpt>
      <trkpt lat="47.81699" lon="-3.5033">
        <ele>43</ele>
        <time>2019-07-17T15:27:10Z</time>
      </trkpt>
      <trkpt lat="47.81699" lon="-3.50339">
        <ele>43</ele>
        <time>2019-07-17T15:27:11Z</time>
      </trkpt>
      <trkpt lat="47.81699" lon="-3.50346">
        <ele>43</ele>
        <time>2019-07-17T15:27:12Z</time>
      </trkpt>
      <trkpt lat="47.81698" lon="-3.50352">
        <ele>43</ele>
        <time>2019-07-17T15:27:13Z</time>
      </trkpt>
      <trkpt lat="47.81697" lon="-3.50356">
        <ele>43</ele>
        <time>2019-07-17T15:27:14Z</time>
      </trkpt>
      <trkpt lat="47.81695" lon="-3.50359">
        <ele>44</ele>
        <time>2019-07-17T15:27:15Z</time>
      </trkpt>
      <trkpt lat="47.81691" lon="-3.50362">
        <ele>44</ele>
        <time>2019-07-17T15:27:16Z</time>
      </trkpt>
      <trkpt lat="47.81687" lon="-3.50368">
        <ele>44</ele>
        <time>2019-07-17T15:27:17Z</time>
      </trkpt>
      <trkpt lat="47.81684" lon="-3.50374">
        <ele>45</ele>
        <time>2019-07-17T15:27:18Z</time>
      </trkpt>
      <trkpt lat="47.81681" lon="-3.5038">
        <ele>45</ele>
        <time>2019-07-17T15:27:19Z</time>
      </trkpt>
      <trkpt lat="47.81679" lon="-3.50386">
        <ele>45</ele>
        <time>2019-07-17T15:27:20Z</time>
      </trkpt>
      <trkpt lat="47.81677" lon="-3.50394">
        <ele>45</ele>
        <time>2019-07-17T15:27:21Z</time>
      </trkpt>
      <trkpt lat="47.81675" lon="-3.50401">
        <ele>45</ele>
        <time>2019-07-17T15:27:22Z</time>
      </trkpt>
      <trkpt lat="47.81674" lon="-3.5041">
        <ele>45</ele>
        <time>2019-07-17T15:27:23Z</time>
      </trkpt>
      <trkpt lat="47.81672" lon="-3.50417">
        <ele>46</ele>
        <time>2019-07-17T15:27:24Z</time>
      </trkpt>
      <trkpt lat="47.8167" lon="-3.50425">
        <ele>46</ele>
        <time>2019-07-17T15:27:25Z</time>
      </trkpt>
      <trkpt lat="47.81669" lon="-3.50433">
        <ele>46</ele>
        <time>2019-07-17T15:27:26Z</time>
      </trkpt>
      <trkpt lat="47.81668" lon="-3.5044">
        <ele>45</ele>
        <time>2019-07-17T15:27:27Z</time>
      </trkpt>
      <trkpt lat="47.81667" lon="-3.50447">
        <ele>45</ele>
        <time>2019-07-17T15:27:28Z</time>
      </trkpt>
      <trkpt lat="47.81665" lon="-3.50456">
        <ele>45</ele>
        <time>2019-07-17T15:27:29Z</time>
      </trkpt>
      <trkpt lat="47.81662" lon="-3.50464">
        <ele>45</ele>
        <time>2019-07-17T15:27:30Z</time>
      </trkpt>
      <trkpt lat="47.8166" lon="-3.50473">
        <ele>44</ele>
        <time>2019-07-17T15:27:31Z</time>
      </trkpt>
      <trkpt lat="47.81658" lon="-3.50482">
        <ele>44</ele>
        <time>2019-07-17T15:27:32Z</time>
      </trkpt>
      <trkpt lat="47.81656" lon="-3.50492">
        <ele>44</ele>
        <time>2019-07-17T15:27:33Z</time>
      </trkpt>
      <trkpt lat="47.81655" lon="-3.50501">
        <ele>43</ele>
        <time>2019-07-17T15:27:34Z</time>
      </trkpt>
      <trkpt lat="47.81653" lon="-3.50511">
        <ele>43</ele>
        <time>2019-07-17T15:27:35Z</time>
      </trkpt>
      <trkpt lat="47.81651" lon="-3.5052">
        <ele>42</ele>
        <time>2019-07-17T15:27:36Z</time>
      </trkpt>
      <trkpt lat="47.81649" lon="-3.50529">
        <ele>42</ele>
        <time>2019-07-17T15:27:37Z</time>
      </trkpt>
      <trkpt lat="47.81647" lon="-3.50538">
        <ele>42</ele>
        <time>2019-07-17T15:27:38Z</time>
      </trkpt>
      <trkpt lat="47.81646" lon="-3.50548">
        <ele>41</ele>
        <time>2019-07-17T15:27:39Z</time>
      </trkpt>
      <trkpt lat="47.81644" lon="-3.50557">
        <ele>41</ele>
        <time>2019-07-17T15:27:40Z</time>
      </trkpt>
      <trkpt lat="47.81642" lon="-3.50567">
        <ele>40</ele>
        <time>2019-07-17T15:27:41Z</time>
      </trkpt>
      <trkpt lat="47.8164" lon="-3.50576">
        <ele>40</ele>
        <time>2019-07-17T15:27:42Z</time>
      </trkpt>
      <trkpt lat="47.81639" lon="-3.50585">
        <ele>39</ele>
        <time>2019-07-17T15:27:43Z</time>
      </trkpt>
      <trkpt lat="47.81637" lon="-3.50595">
        <ele>39</ele>
        <time>2019-07-17T15:27:44Z</time>
      </trkpt>
      <trkpt lat="47.81636" lon="-3.50604">
        <ele>39</ele>
        <time>2019-07-17T15:27:45Z</time>
      </trkpt>
      <trkpt lat="47.81634" lon="-3.50613">
        <ele>38</ele>
        <time>2019-07-17T15:27:46Z</time>
      </trkpt>
      <trkpt lat="47.81633" lon="-3.50621">
        <ele>38</ele>
        <time>2019-07-17T15:27:47Z</time>
      </trkpt>
      <trkpt lat="47.81631" lon="-3.5063">
        <ele>37</ele>
        <time>2019-07-17T15:27:48Z</time>
      </trkpt>
      <trkpt lat="47.81629" lon="-3.50638">
        <ele>37</ele>
        <time>2019-07-17T15:27:49Z</time>
      </trkpt>
      <trkpt lat="47.81628" lon="-3.50646">
        <ele>37</ele>
        <time>2019-07-17T15:27:50Z</time>
      </trkpt>
      <trkpt lat="47.81626" lon="-3.50654">
        <ele>36</ele>
        <time>2019-07-17T15:27:51Z</time>
      </trkpt>
      <trkpt lat="47.81624" lon="-3.50662">
        <ele>36</ele>
        <time>2019-07-17T15:27:52Z</time>
      </trkpt>
      <trkpt lat="47.81622" lon="-3.5067">
        <ele>36</ele>
        <time>2019-07-17T15:27:53Z</time>
      </trkpt>
      <trkpt lat="47.8162" lon="-3.50679">
        <ele>35</ele>
        <time>2019-07-17T15:27:54Z</time>
      </trkpt>
      <trkpt lat="47.81618" lon="-3.50687">
        <ele>35</ele>
        <time>2019-07-17T15:27:55Z</time>
      </trkpt>
      <trkpt lat="47.81615" lon="-3.50696">
        <ele>34</ele>
        <time>2019-07-17T15:27:56Z</time>
      </trkpt>
      <trkpt lat="47.81612" lon="-3.50703">
        <ele>34</ele>
        <time>2019-07-17T15:27:57Z</time>
      </trkpt>
      <trkpt lat="47.81608" lon="-3.5071">
        <ele>34</ele>
        <time>2019-07-17T15:27:58Z</time>
      </trkpt>
      <trkpt lat="47.81605" lon="-3.50717">
        <ele>34</ele>
        <time>2019-07-17T15:27:59Z</time>
      </trkpt>
      <trkpt lat="47.81601" lon="-3.50724">
        <ele>33</ele>
        <time>2019-07-17T15:28:00Z</time>
      </trkpt>
      <trkpt lat="47.81597" lon="-3.50731">
        <ele>33</ele>
        <time>2019-07-17T15:28:01Z</time>
      </trkpt>
      <trkpt lat="47.81593" lon="-3.50737">
        <ele>33</ele>
        <time>2019-07-17T15:28:02Z</time>
      </trkpt>
      <trkpt lat="47.81589" lon="-3.50743">
        <ele>33</ele>
        <time>2019-07-17T15:28:03Z</time>
      </trkpt>
      <trkpt lat="47.81586" lon="-3.5075">
        <ele>33</ele>
        <time>2019-07-17T15:28:04Z</time>
      </trkpt>
      <trkpt lat="47.81581" lon="-3.50756">
        <ele>33</ele>
        <time>2019-07-17T15:28:05Z</time>
      </trkpt>
      <trkpt lat="47.81577" lon="-3.50762">
        <ele>33</ele>
        <time>2019-07-17T15:28:06Z</time>
      </trkpt>
      <trkpt lat="47.81573" lon="-3.50768">
        <ele>32</ele>
        <time>2019-07-17T15:28:07Z</time>
      </trkpt>
      <trkpt lat="47.81569" lon="-3.50774">
        <ele>32</ele>
        <time>2019-07-17T15:28:08Z</time>
      </trkpt>
      <trkpt lat="47.81565" lon="-3.5078">
        <ele>32</ele>
        <time>2019-07-17T15:28:09Z</time>
      </trkpt>
      <trkpt lat="47.81561" lon="-3.50786">
        <ele>32</ele>
        <time>2019-07-17T15:28:10Z</time>
      </trkpt>
      <trkpt lat="47.81557" lon="-3.50793">
        <ele>32</ele>
        <time>2019-07-17T15:28:11Z</time>
      </trkpt>
      <trkpt lat="47.81553" lon="-3.50799">
        <ele>32</ele>
        <time>2019-07-17T15:28:12Z</time>
      </trkpt>
      <trkpt lat="47.81548" lon="-3.50805">
        <ele>32</ele>
        <time>2019-07-17T15:28:13Z</time>
      </trkpt>
      <trkpt lat="47.81544" lon="-3.50811">
        <ele>32</ele>
        <time>2019-07-17T15:28:14Z</time>
      </trkpt>
      <trkpt lat="47.81539" lon="-3.50817">
        <ele>32</ele>
        <time>2019-07-17T15:28:15Z</time>
      </trkpt>
      <trkpt lat="47.81534" lon="-3.50822">
        <ele>31</ele>
        <time>2019-07-17T15:28:16Z</time>
      </trkpt>
      <trkpt lat="47.8153" lon="-3.50828">
        <ele>31</ele>
        <time>2019-07-17T15:28:17Z</time>
      </trkpt>
      <trkpt lat="47.81525" lon="-3.50833">
        <ele>31</ele>
        <time>2019-07-17T15:28:18Z</time>
      </trkpt>
      <trkpt lat="47.8152" lon="-3.50838">
        <ele>31</ele>
        <time>2019-07-17T15:28:19Z</time>
      </trkpt>
      <trkpt lat="47.81515" lon="-3.50843">
        <ele>31</ele>
        <time>2019-07-17T15:28:20Z</time>
      </trkpt>
      <trkpt lat="47.8151" lon="-3.50848">
        <ele>30</ele>
        <time>2019-07-17T15:28:21Z</time>
      </trkpt>
      <trkpt lat="47.81505" lon="-3.50853">
        <ele>30</ele>
        <time>2019-07-17T15:28:22Z</time>
      </trkpt>
      <trkpt lat="47.815" lon="-3.50857">
        <ele>30</ele>
        <time>2019-07-17T15:28:23Z</time>
      </trkpt>
      <trkpt lat="47.81495" lon="-3.5086">
        <ele>30</ele>
        <time>2019-07-17T15:28:24Z</time>
      </trkpt>
      <trkpt lat="47.8149" lon="-3.50864">
        <ele>30</ele>
        <time>2019-07-17T15:28:25Z</time>
      </trkpt>
      <trkpt lat="47.81485" lon="-3.50868">
        <ele>30</ele>
        <time>2019-07-17T15:28:26Z</time>
      </trkpt>
      <trkpt lat="47.81481" lon="-3.5087">
        <ele>30</ele>
        <time>2019-07-17T15:28:27Z</time>
      </trkpt>
      <trkpt lat="47.81477" lon="-3.50873">
        <ele>30</ele>
        <time>2019-07-17T15:28:28Z</time>
      </trkpt>
      <trkpt lat="47.81472" lon="-3.50874">
        <ele>30</ele>
        <time>2019-07-17T15:28:29Z</time>
      </trkpt>
      <trkpt lat="47.81468" lon="-3.50874">
        <ele>30</ele>
        <time>2019-07-17T15:28:30Z</time>
      </trkpt>
      <trkpt lat="47.81463" lon="-3.50873">
        <ele>30</ele>
        <time>2019-07-17T15:28:31Z</time>
      </trkpt>
      <trkpt lat="47.81458" lon="-3.50872">
        <ele>30</ele>
        <time>2019-07-17T15:28:32Z</time>
      </trkpt>
      <trkpt lat="47.81453" lon="-3.5087">
        <ele>30</ele>
        <time>2019-07-17T15:28:33Z</time>
      </trkpt>
      <trkpt lat="47.81448" lon="-3.50869">
        <ele>30</ele>
        <time>2019-07-17T15:28:34Z</time>
      </trkpt>
      <trkpt lat="47.81443" lon="-3.50868">
        <ele>30</ele>
        <time>2019-07-17T15:28:35Z</time>
      </trkpt>
      <trkpt lat="47.81439" lon="-3.50867">
        <ele>30</ele>
        <time>2019-07-17T15:28:36Z</time>
      </trkpt>
      <trkpt lat="47.81434" lon="-3.50865">
        <ele>30</ele>
        <time>2019-07-17T15:28:37Z</time>
      </trkpt>
      <trkpt lat="47.81429" lon="-3.50864">
        <ele>30</ele>
        <time>2019-07-17T15:28:38Z</time>
      </trkpt>
      <trkpt lat="47.81425" lon="-3.50862">
        <ele>30</ele>
        <time>2019-07-17T15:28:39Z</time>
      </trkpt>
      <trkpt lat="47.81421" lon="-3.5086">
        <ele>30</ele>
        <time>2019-07-17T15:28:40Z</time>
      </trkpt>
      <trkpt lat="47.81417" lon="-3.50859">
        <ele>30</ele>
        <time>2019-07-17T15:28:41Z</time>
      </trkpt>
      <trkpt lat="47.81414" lon="-3.50857">
        <ele>30</ele>
        <time>2019-07-17T15:28:42Z</time>
      </trkpt>
      <trkpt lat="47.8141" lon="-3.50856">
        <ele>30</ele>
        <time>2019-07-17T15:28:43Z</time>
      </trkpt>
      <trkpt lat="47.81406" lon="-3.50855">
        <ele>30</ele>
        <time>2019-07-17T15:28:44Z</time>
      </trkpt>
      <trkpt lat="47.81403" lon="-3.50853">
        <ele>30</ele>
        <time>2019-07-17T15:28:45Z</time>
      </trkpt>
      <trkpt lat="47.81399" lon="-3.50851">
        <ele>30</ele>
        <time>2019-07-17T15:28:46Z</time>
      </trkpt>
      <trkpt lat="47.81395" lon="-3.50849">
        <ele>30</ele>
        <time>2019-07-17T15:28:47Z</time>
      </trkpt>
      <trkpt lat="47.81392" lon="-3.50846">
        <ele>30</ele>
        <time>2019-07-17T15:28:48Z</time>
      </trkpt>
      <trkpt lat="47.81388" lon="-3.50842">
        <ele>30</ele>
        <time>2019-07-17T15:28:49Z</time>
      </trkpt>
      <trkpt lat="47.81384" lon="-3.50839">
        <ele>30</ele>
        <time>2019-07-17T15:28:50Z</time>
      </trkpt>
      <trkpt lat="47.8138" lon="-3.50836">
        <ele>30</ele>
        <time>2019-07-17T15:28:51Z</time>
      </trkpt>
      <trkpt lat="47.81377" lon="-3.50832">
        <ele>30</ele>
        <time>2019-07-17T15:28:52Z</time>
      </trkpt>
      <trkpt lat="47.81373" lon="-3.50828">
        <ele>30</ele>
        <time>2019-07-17T15:28:53Z</time>
      </trkpt>
      <trkpt lat="47.81369" lon="-3.50825">
        <ele>30</ele>
        <time>2019-07-17T15:28:54Z</time>
      </trkpt>
      <trkpt lat="47.81366" lon="-3.50821">
        <ele>30</ele>
        <time>2019-07-17T15:28:55Z</time>
      </trkpt>
      <trkpt lat="47.81362" lon="-3.50817">
        <ele>30</ele>
        <time>2019-07-17T15:28:56Z</time>
      </trkpt>
      <trkpt lat="47.81358" lon="-3.50813">
        <ele>30</ele>
        <time>2019-07-17T15:28:57Z</time>
      </trkpt>
      <trkpt lat="47.81354" lon="-3.50809">
        <ele>30</ele>
        <time>2019-07-17T15:28:58Z</time>
      </trkpt>
      <trkpt lat="47.81351" lon="-3.50804">
        <ele>31</ele>
        <time>2019-07-17T15:28:59Z</time>
      </trkpt>
      <trkpt lat="47.81347" lon="-3.508">
        <ele>31</ele>
        <time>2019-07-17T15:29:00Z</time>
      </trkpt>
      <trkpt lat="47.81344" lon="-3.50796">
        <ele>31</ele>
        <time>2019-07-17T15:29:01Z</time>
      </trkpt>
      <trkpt lat="47.8134" lon="-3.50792">
        <ele>31</ele>
        <time>2019-07-17T15:29:02Z</time>
      </trkpt>
      <trkpt lat="47.81337" lon="-3.50788">
        <ele>31</ele>
        <time>2019-07-17T15:29:03Z</time>
      </trkpt>
      <trkpt lat="47.81334" lon="-3.50784">
        <ele>31</ele>
        <time>2019-07-17T15:29:04Z</time>
      </trkpt>
      <trkpt lat="47.81331" lon="-3.5078">
        <ele>31</ele>
        <time>2019-07-17T15:29:05Z</time>
      </trkpt>
      <trkpt lat="47.81328" lon="-3.50777">
        <ele>31</ele>
        <time>2019-07-17T15:29:06Z</time>
      </trkpt>
      <trkpt lat="47.81324" lon="-3.50775">
        <ele>31</ele>
        <time>2019-07-17T15:29:07Z</time>
      </trkpt>
      <trkpt lat="47.81321" lon="-3.50772">
        <ele>31</ele>
        <time>2019-07-17T15:29:08Z</time>
      </trkpt>
      <trkpt lat="47.81317" lon="-3.50769">
        <ele>31</ele>
        <time>2019-07-17T15:29:09Z</time>
      </trkpt>
      <trkpt lat="47.81313" lon="-3.50767">
        <ele>31</ele>
        <time>2019-07-17T15:29:10Z</time>
      </trkpt>
      <trkpt lat="47.81309" lon="-3.50765">
        <ele>31</ele>
        <time>2019-07-17T15:29:11Z</time>
      </trkpt>
      <trkpt lat="47.81304" lon="-3.50762">
        <ele>31</ele>
        <time>2019-07-17T15:29:12Z</time>
      </trkpt>
      <trkpt lat="47.81299" lon="-3.50759">
        <ele>31</ele>
        <time>2019-07-17T15:29:13Z</time>
      </trkpt>
      <trkpt lat="47.81295" lon="-3.50754">
        <ele>30</ele>
        <time>2019-07-17T15:29:14Z</time>
      </trkpt>
      <trkpt lat="47.81291" lon="-3.50749">
        <ele>30</ele>
        <time>2019-07-17T15:29:15Z</time>
      </trkpt>
      <trkpt lat="47.81288" lon="-3.50743">
        <ele>30</ele>
        <time>2019-07-17T15:29:16Z</time>
      </trkpt>
      <trkpt lat="47.81284" lon="-3.50738">
        <ele>30</ele>
        <time>2019-07-17T15:29:17Z</time>
      </trkpt>
      <trkpt lat="47.8128" lon="-3.50733">
        <ele>30</ele>
        <time>2019-07-17T15:29:18Z</time>
      </trkpt>
      <trkpt lat="47.81275" lon="-3.50727">
        <ele>30</ele>
        <time>2019-07-17T15:29:19Z</time>
      </trkpt>
      <trkpt lat="47.81271" lon="-3.50722">
        <ele>29</ele>
        <time>2019-07-17T15:29:20Z</time>
      </trkpt>
      <trkpt lat="47.81267" lon="-3.50716">
        <ele>29</ele>
        <time>2019-07-17T15:29:21Z</time>
      </trkpt>
      <trkpt lat="47.81263" lon="-3.50711">
        <ele>29</ele>
        <time>2019-07-17T15:29:22Z</time>
      </trkpt>
      <trkpt lat="47.81258" lon="-3.50705">
        <ele>29</ele>
        <time>2019-07-17T15:29:23Z</time>
      </trkpt>
      <trkpt lat="47.81254" lon="-3.50699">
        <ele>29</ele>
        <time>2019-07-17T15:29:24Z</time>
      </trkpt>
      <trkpt lat="47.81248" lon="-3.50693">
        <ele>29</ele>
        <time>2019-07-17T15:29:25Z</time>
      </trkpt>
      <trkpt lat="47.81243" lon="-3.50687">
        <ele>29</ele>
        <time>2019-07-17T15:29:26Z</time>
      </trkpt>
      <trkpt lat="47.81238" lon="-3.50682">
        <ele>29</ele>
        <time>2019-07-17T15:29:27Z</time>
      </trkpt>
      <trkpt lat="47.81232" lon="-3.50675">
        <ele>28</ele>
        <time>2019-07-17T15:29:28Z</time>
      </trkpt>
      <trkpt lat="47.81227" lon="-3.50669">
        <ele>28</ele>
        <time>2019-07-17T15:29:29Z</time>
      </trkpt>
      <trkpt lat="47.81221" lon="-3.50663">
        <ele>28</ele>
        <time>2019-07-17T15:29:30Z</time>
      </trkpt>
      <trkpt lat="47.81215" lon="-3.50657">
        <ele>28</ele>
        <time>2019-07-17T15:29:31Z</time>
      </trkpt>
      <trkpt lat="47.81209" lon="-3.5065">
        <ele>28</ele>
        <time>2019-07-17T15:29:32Z</time>
      </trkpt>
      <trkpt lat="47.81203" lon="-3.50644">
        <ele>28</ele>
        <time>2019-07-17T15:29:33Z</time>
      </trkpt>
      <trkpt lat="47.81198" lon="-3.50639">
        <ele>28</ele>
        <time>2019-07-17T15:29:34Z</time>
      </trkpt>
      <trkpt lat="47.81192" lon="-3.50633">
        <ele>28</ele>
        <time>2019-07-17T15:29:35Z</time>
      </trkpt>
      <trkpt lat="47.81186" lon="-3.50627">
        <ele>28</ele>
        <time>2019-07-17T15:29:36Z</time>
      </trkpt>
      <trkpt lat="47.81181" lon="-3.50621">
        <ele>28</ele>
        <time>2019-07-17T15:29:37Z</time>
      </trkpt>
      <trkpt lat="47.81175" lon="-3.50614">
        <ele>27</ele>
        <time>2019-07-17T15:29:38Z</time>
      </trkpt>
      <trkpt lat="47.8117" lon="-3.50608">
        <ele>27</ele>
        <time>2019-07-17T15:29:39Z</time>
      </trkpt>
      <trkpt lat="47.81164" lon="-3.50601">
        <ele>27</ele>
        <time>2019-07-17T15:29:40Z</time>
      </trkpt>
      <trkpt lat="47.81158" lon="-3.50595">
        <ele>27</ele>
        <time>2019-07-17T15:29:41Z</time>
      </trkpt>
      <trkpt lat="47.81152" lon="-3.50588">
        <ele>27</ele>
        <time>2019-07-17T15:29:42Z</time>
      </trkpt>
      <trkpt lat="47.81146" lon="-3.50582">
        <ele>27</ele>
        <time>2019-07-17T15:29:43Z</time>
      </trkpt>
      <trkpt lat="47.8114" lon="-3.50576">
        <ele>27</ele>
        <time>2019-07-17T15:29:44Z</time>
      </trkpt>
      <trkpt lat="47.81133" lon="-3.50571">
        <ele>27</ele>
        <time>2019-07-17T15:29:45Z</time>
      </trkpt>
      <trkpt lat="47.81127" lon="-3.50566">
        <ele>27</ele>
        <time>2019-07-17T15:29:46Z</time>
      </trkpt>
      <trkpt lat="47.8112" lon="-3.50562">
        <ele>27</ele>
        <time>2019-07-17T15:29:47Z</time>
      </trkpt>
      <trkpt lat="47.81114" lon="-3.50558">
        <ele>27</ele>
        <time>2019-07-17T15:29:48Z</time>
      </trkpt>
      <trkpt lat="47.81107" lon="-3.50554">
        <ele>27</ele>
        <time>2019-07-17T15:29:49Z</time>
      </trkpt>
      <trkpt lat="47.81101" lon="-3.5055">
        <ele>27</ele>
        <time>2019-07-17T15:29:50Z</time>
      </trkpt>
      <trkpt lat="47.81094" lon="-3.50546">
        <ele>27</ele>
        <time>2019-07-17T15:29:51Z</time>
      </trkpt>
      <trkpt lat="47.81088" lon="-3.50542">
        <ele>27</ele>
        <time>2019-07-17T15:29:52Z</time>
      </trkpt>
      <trkpt lat="47.81082" lon="-3.50538">
        <ele>27</ele>
        <time>2019-07-17T15:29:53Z</time>
      </trkpt>
      <trkpt lat="47.81076" lon="-3.50534">
        <ele>28</ele>
        <time>2019-07-17T15:29:54Z</time>
      </trkpt>
      <trkpt lat="47.8107" lon="-3.50529">
        <ele>28</ele>
        <time>2019-07-17T15:29:55Z</time>
      </trkpt>
      <trkpt lat="47.81064" lon="-3.50525">
        <ele>28</ele>
        <time>2019-07-17T15:29:56Z</time>
      </trkpt>
      <trkpt lat="47.81058" lon="-3.50521">
        <ele>28</ele>
        <time>2019-07-17T15:29:57Z</time>
      </trkpt>
      <trkpt lat="47.81052" lon="-3.50518">
        <ele>28</ele>
        <time>2019-07-17T15:29:58Z</time>
      </trkpt>
      <trkpt lat="47.81046" lon="-3.50514">
        <ele>29</ele>
        <time>2019-07-17T15:29:59Z</time>
      </trkpt>
      <trkpt lat="47.8104" lon="-3.5051">
        <ele>29</ele>
        <time>2019-07-17T15:30:00Z</time>
      </trkpt>
      <trkpt lat="47.81035" lon="-3.50506">
        <ele>29</ele>
        <time>2019-07-17T15:30:01Z</time>
      </trkpt>
      <trkpt lat="47.81029" lon="-3.50503">
        <ele>29</ele>
        <time>2019-07-17T15:30:02Z</time>
      </trkpt>
      <trkpt lat="47.81023" lon="-3.50499">
        <ele>30</ele>
        <time>2019-07-17T15:30:03Z</time>
      </trkpt>
      <trkpt lat="47.81018" lon="-3.50496">
        <ele>30</ele>
        <time>2019-07-17T15:30:04Z</time>
      </trkpt>
      <trkpt lat="47.81012" lon="-3.50492">
        <ele>30</ele>
        <time>2019-07-17T15:30:05Z</time>
      </trkpt>
      <trkpt lat="47.81007" lon="-3.50489">
        <ele>31</ele>
        <time>2019-07-17T15:30:06Z</time>
      </trkpt>
      <trkpt lat="47.81002" lon="-3.50486">
        <ele>31</ele>
        <time>2019-07-17T15:30:07Z</time>
      </trkpt>
      <trkpt lat="47.80997" lon="-3.50483">
        <ele>31</ele>
        <time>2019-07-17T15:30:08Z</time>
      </trkpt>
      <trkpt lat="47.80992" lon="-3.5048">
        <ele>32</ele>
        <time>2019-07-17T15:30:09Z</time>
      </trkpt>
      <trkpt lat="47.80986" lon="-3.50477">
        <ele>32</ele>
        <time>2019-07-17T15:30:10Z</time>
      </trkpt>
      <trkpt lat="47.80981" lon="-3.50474">
        <ele>32</ele>
        <time>2019-07-17T15:30:11Z</time>
      </trkpt>
      <trkpt lat="47.80976" lon="-3.50471">
        <ele>33</ele>
        <time>2019-07-17T15:30:12Z</time>
      </trkpt>
      <trkpt lat="47.8097" lon="-3.50468">
        <ele>33</ele>
        <time>2019-07-17T15:30:13Z</time>
      </trkpt>
      <trkpt lat="47.80965" lon="-3.50466">
        <ele>33</ele>
        <time>2019-07-17T15:30:14Z</time>
      </trkpt>
      <trkpt lat="47.8096" lon="-3.50463">
        <ele>34</ele>
        <time>2019-07-17T15:30:15Z</time>
      </trkpt>
      <trkpt lat="47.80956" lon="-3.50461">
        <ele>34</ele>
        <time>2019-07-17T15:30:16Z</time>
      </trkpt>
      <trkpt lat="47.80952" lon="-3.50459">
        <ele>34</ele>
        <time>2019-07-17T15:30:17Z</time>
      </trkpt>
      <trkpt lat="47.80947" lon="-3.50457">
        <ele>34</ele>
        <time>2019-07-17T15:30:18Z</time>
      </trkpt>
      <trkpt lat="47.80943" lon="-3.50456">
        <ele>34</ele>
        <time>2019-07-17T15:30:19Z</time>
      </trkpt>
      <trkpt lat="47.80939" lon="-3.50454">
        <ele>34</ele>
        <time>2019-07-17T15:30:20Z</time>
      </trkpt>
      <trkpt lat="47.80934" lon="-3.50452">
        <ele>35</ele>
        <time>2019-07-17T15:30:21Z</time>
      </trkpt>
      <trkpt lat="47.8093" lon="-3.50451">
        <ele>35</ele>
        <time>2019-07-17T15:30:22Z</time>
      </trkpt>
      <trkpt lat="47.80925" lon="-3.5045">
        <ele>35</ele>
        <time>2019-07-17T15:30:23Z</time>
      </trkpt>
      <trkpt lat="47.8092" lon="-3.50449">
        <ele>35</ele>
        <time>2019-07-17T15:30:24Z</time>
      </trkpt>
      <trkpt lat="47.80916" lon="-3.50447">
        <ele>35</ele>
        <time>2019-07-17T15:30:25Z</time>
      </trkpt>
      <trkpt lat="47.80912" lon="-3.50446">
        <ele>35</ele>
        <time>2019-07-17T15:30:26Z</time>
      </trkpt>
      <trkpt lat="47.80907" lon="-3.50444">
        <ele>35</ele>
        <time>2019-07-17T15:30:27Z</time>
      </trkpt>
      <trkpt lat="47.80904" lon="-3.50442">
        <ele>35</ele>
        <time>2019-07-17T15:30:28Z</time>
      </trkpt>
      <trkpt lat="47.809" lon="-3.50439">
        <ele>35</ele>
        <time>2019-07-17T15:30:29Z</time>
      </trkpt>
      <trkpt lat="47.80896" lon="-3.50436">
        <ele>35</ele>
        <time>2019-07-17T15:30:30Z</time>
      </trkpt>
      <trkpt lat="47.80892" lon="-3.50434">
        <ele>35</ele>
        <time>2019-07-17T15:30:31Z</time>
      </trkpt>
      <trkpt lat="47.80887" lon="-3.50434">
        <ele>35</ele>
        <time>2019-07-17T15:30:32Z</time>
      </trkpt>
      <trkpt lat="47.80884" lon="-3.50437">
        <ele>35</ele>
        <time>2019-07-17T15:30:33Z</time>
      </trkpt>
      <trkpt lat="47.8088" lon="-3.50441">
        <ele>35</ele>
        <time>2019-07-17T15:30:34Z</time>
      </trkpt>
      <trkpt lat="47.80877" lon="-3.50446">
        <ele>35</ele>
        <time>2019-07-17T15:30:35Z</time>
      </trkpt>
      <trkpt lat="47.80874" lon="-3.5045">
        <ele>35</ele>
        <time>2019-07-17T15:30:36Z</time>
      </trkpt>
      <trkpt lat="47.8087" lon="-3.50454">
        <ele>35</ele>
        <time>2019-07-17T15:30:37Z</time>
      </trkpt>
      <trkpt lat="47.80866" lon="-3.50459">
        <ele>36</ele>
        <time>2019-07-17T15:30:38Z</time>
      </trkpt>
      <trkpt lat="47.80863" lon="-3.50464">
        <ele>36</ele>
        <time>2019-07-17T15:30:39Z</time>
      </trkpt>
      <trkpt lat="47.80859" lon="-3.50469">
        <ele>36</ele>
        <time>2019-07-17T15:30:40Z</time>
      </trkpt>
      <trkpt lat="47.80855" lon="-3.50474">
        <ele>36</ele>
        <time>2019-07-17T15:30:41Z</time>
      </trkpt>
      <trkpt lat="47.80851" lon="-3.50479">
        <ele>37</ele>
        <time>2019-07-17T15:30:42Z</time>
      </trkpt>
      <trkpt lat="47.80847" lon="-3.50485">
        <ele>37</ele>
        <time>2019-07-17T15:30:43Z</time>
      </trkpt>
      <trkpt lat="47.80843" lon="-3.50491">
        <ele>37</ele>
        <time>2019-07-17T15:30:44Z</time>
      </trkpt>
      <trkpt lat="47.80838" lon="-3.50496">
        <ele>37</ele>
        <time>2019-07-17T15:30:45Z</time>
      </trkpt>
      <trkpt lat="47.80834" lon="-3.50502">
        <ele>38</ele>
        <time>2019-07-17T15:30:46Z</time>
      </trkpt>
      <trkpt lat="47.80831" lon="-3.50507">
        <ele>38</ele>
        <time>2019-07-17T15:30:47Z</time>
      </trkpt>
      <trkpt lat="47.80828" lon="-3.5051">
        <ele>38</ele>
        <time>2019-07-17T15:30:48Z</time>
      </trkpt>
      <trkpt lat="47.80827" lon="-3.50512">
        <ele>38</ele>
        <time>2019-07-17T15:30:49Z</time>
      </trkpt>
      <trkpt lat="47.80826" lon="-3.50512">
        <ele>38</ele>
        <time>2019-07-17T15:30:50Z</time>
      </trkpt>
      <trkpt lat="47.80826" lon="-3.50512">
        <ele>38</ele>
        <time>2019-07-17T15:30:51Z</time>
      </trkpt>
      <trkpt lat="47.80826" lon="-3.50512">
        <ele>38</ele>
        <time>2019-07-17T15:30:52Z</time>
      </trkpt>
      <trkpt lat="47.80826" lon="-3.50512">
        <ele>38</ele>
        <time>2019-07-17T15:30:53Z</time>
      </trkpt>
      <trkpt lat="47.80828" lon="-3.50509">
        <ele>39</ele>
        <time>2019-07-17T15:30:54Z</time>
      </trkpt>
      <trkpt lat="47.80829" lon="-3.50507">
        <ele>39</ele>
        <time>2019-07-17T15:30:55Z</time>
      </trkpt>
      <trkpt lat="47.80831" lon="-3.50506">
        <ele>39</ele>
        <time>2019-07-17T15:30:56Z</time>
      </trkpt>
      <trkpt lat="47.80832" lon="-3.50503">
        <ele>39</ele>
        <time>2019-07-17T15:30:57Z</time>
      </trkpt>
      <trkpt lat="47.80835" lon="-3.505">
        <ele>38</ele>
        <time>2019-07-17T15:30:58Z</time>
      </trkpt>
      <trkpt lat="47.80837" lon="-3.50496">
        <ele>38</ele>
        <time>2019-07-17T15:30:59Z</time>
      </trkpt>
      <trkpt lat="47.80839" lon="-3.50493">
        <ele>38</ele>
        <time>2019-07-17T15:31:00Z</time>
      </trkpt>
      <trkpt lat="47.80842" lon="-3.50489">
        <ele>38</ele>
        <time>2019-07-17T15:31:01Z</time>
      </trkpt>
      <trkpt lat="47.80845" lon="-3.50485">
        <ele>38</ele>
        <time>2019-07-17T15:31:02Z</time>
      </trkpt>
      <trkpt lat="47.80849" lon="-3.50482">
        <ele>38</ele>
        <time>2019-07-17T15:31:03Z</time>
      </trkpt>
      <trkpt lat="47.80852" lon="-3.50478">
        <ele>38</ele>
        <time>2019-07-17T15:31:04Z</time>
      </trkpt>
      <trkpt lat="47.80855" lon="-3.50473">
        <ele>38</ele>
        <time>2019-07-17T15:31:05Z</time>
      </trkpt>
      <trkpt lat="47.80858" lon="-3.50468">
        <ele>38</ele>
        <time>2019-07-17T15:31:06Z</time>
      </trkpt>
      <trkpt lat="47.80861" lon="-3.50463">
        <ele>38</ele>
        <time>2019-07-17T15:31:07Z</time>
      </trkpt>
      <trkpt lat="47.80865" lon="-3.50459">
        <ele>37</ele>
        <time>2019-07-17T15:31:08Z</time>
      </trkpt>
      <trkpt lat="47.80869" lon="-3.50454">
        <ele>37</ele>
        <time>2019-07-17T15:31:09Z</time>
      </trkpt>
      <trkpt lat="47.80873" lon="-3.50449">
        <ele>37</ele>
        <time>2019-07-17T15:31:10Z</time>
      </trkpt>
      <trkpt lat="47.80877" lon="-3.50443">
        <ele>37</ele>
        <time>2019-07-17T15:31:11Z</time>
      </trkpt>
      <trkpt lat="47.80881" lon="-3.50437">
        <ele>37</ele>
        <time>2019-07-17T15:31:12Z</time>
      </trkpt>
      <trkpt lat="47.80882" lon="-3.50429">
        <ele>36</ele>
        <time>2019-07-17T15:31:13Z</time>
      </trkpt>
      <trkpt lat="47.80883" lon="-3.5042">
        <ele>36</ele>
        <time>2019-07-17T15:31:14Z</time>
      </trkpt>
      <trkpt lat="47.80881" lon="-3.50411">
        <ele>36</ele>
        <time>2019-07-17T15:31:15Z</time>
      </trkpt>
      <trkpt lat="47.80879" lon="-3.50404">
        <ele>36</ele>
        <time>2019-07-17T15:31:16Z</time>
      </trkpt>
      <trkpt lat="47.80876" lon="-3.50395">
        <ele>35</ele>
        <time>2019-07-17T15:31:17Z</time>
      </trkpt>
      <trkpt lat="47.80873" lon="-3.50387">
        <ele>35</ele>
        <time>2019-07-17T15:31:18Z</time>
      </trkpt>
      <trkpt lat="47.8087" lon="-3.50379">
        <ele>35</ele>
        <time>2019-07-17T15:31:19Z</time>
      </trkpt>
      <trkpt lat="47.80867" lon="-3.50371">
        <ele>35</ele>
        <time>2019-07-17T15:31:20Z</time>
      </trkpt>
      <trkpt lat="47.80864" lon="-3.50362">
        <ele>34</ele>
        <time>2019-07-17T15:31:21Z</time>
      </trkpt>
      <trkpt lat="47.80861" lon="-3.50353">
        <ele>34</ele>
        <time>2019-07-17T15:31:22Z</time>
      </trkpt>
      <trkpt lat="47.80858" lon="-3.50345">
        <ele>34</ele>
        <time>2019-07-17T15:31:23Z</time>
      </trkpt>
      <trkpt lat="47.80854" lon="-3.50336">
        <ele>34</ele>
        <time>2019-07-17T15:31:24Z</time>
      </trkpt>
      <trkpt lat="47.80851" lon="-3.50328">
        <ele>34</ele>
        <time>2019-07-17T15:31:25Z</time>
      </trkpt>
      <trkpt lat="47.80848" lon="-3.50319">
        <ele>34</ele>
        <time>2019-07-17T15:31:26Z</time>
      </trkpt>
      <trkpt lat="47.80844" lon="-3.50308">
        <ele>34</ele>
        <time>2019-07-17T15:31:27Z</time>
      </trkpt>
      <trkpt lat="47.80839" lon="-3.50296">
        <ele>35</ele>
        <time>2019-07-17T15:31:28Z</time>
      </trkpt>
      <trkpt lat="47.80834" lon="-3.50284">
        <ele>35</ele>
        <time>2019-07-17T15:31:29Z</time>
      </trkpt>
      <trkpt lat="47.80828" lon="-3.50273">
        <ele>35</ele>
        <time>2019-07-17T15:31:30Z</time>
      </trkpt>
      <trkpt lat="47.80821" lon="-3.50262">
        <ele>35</ele>
        <time>2019-07-17T15:31:31Z</time>
      </trkpt>
      <trkpt lat="47.80814" lon="-3.50253">
        <ele>35</ele>
        <time>2019-07-17T15:31:32Z</time>
      </trkpt>
      <trkpt lat="47.80807" lon="-3.50244">
        <ele>35</ele>
        <time>2019-07-17T15:31:33Z</time>
      </trkpt>
      <trkpt lat="47.808" lon="-3.50236">
        <ele>35</ele>
        <time>2019-07-17T15:31:34Z</time>
      </trkpt>
      <trkpt lat="47.80793" lon="-3.50232">
        <ele>35</ele>
        <time>2019-07-17T15:31:35Z</time>
      </trkpt>
      <trkpt lat="47.80788" lon="-3.50232">
        <ele>35</ele>
        <time>2019-07-17T15:31:36Z</time>
      </trkpt>
      <trkpt lat="47.80783" lon="-3.50237">
        <ele>35</ele>
        <time>2019-07-17T15:31:37Z</time>
      </trkpt>
      <trkpt lat="47.80781" lon="-3.50244">
        <ele>35</ele>
        <time>2019-07-17T15:31:38Z</time>
      </trkpt>
      <trkpt lat="47.8078" lon="-3.50252">
        <ele>35</ele>
        <time>2019-07-17T15:31:39Z</time>
      </trkpt>
      <trkpt lat="47.80779" lon="-3.5026">
        <ele>35</ele>
        <time>2019-07-17T15:31:40Z</time>
      </trkpt>
      <trkpt lat="47.80778" lon="-3.50267">
        <ele>36</ele>
        <time>2019-07-17T15:31:41Z</time>
      </trkpt>
      <trkpt lat="47.80777" lon="-3.50276">
        <ele>36</ele>
        <time>2019-07-17T15:31:42Z</time>
      </trkpt>
      <trkpt lat="47.80776" lon="-3.50284">
        <ele>36</ele>
        <time>2019-07-17T15:31:43Z</time>
      </trkpt>
      <trkpt lat="47.80775" lon="-3.50292">
        <ele>36</ele>
        <time>2019-07-17T15:31:44Z</time>
      </trkpt>
      <trkpt lat="47.80773" lon="-3.50301">
        <ele>37</ele>
        <time>2019-07-17T15:31:45Z</time>
      </trkpt>
      <trkpt lat="47.80771" lon="-3.50309">
        <ele>37</ele>
        <time>2019-07-17T15:31:46Z</time>
      </trkpt>
      <trkpt lat="47.80769" lon="-3.50317">
        <ele>37</ele>
        <time>2019-07-17T15:31:47Z</time>
      </trkpt>
      <trkpt lat="47.80767" lon="-3.50324">
        <ele>37</ele>
        <time>2019-07-17T15:31:48Z</time>
      </trkpt>
      <trkpt lat="47.80764" lon="-3.50332">
        <ele>38</ele>
        <time>2019-07-17T15:31:49Z</time>
      </trkpt>
      <trkpt lat="47.80762" lon="-3.5034">
        <ele>38</ele>
        <time>2019-07-17T15:31:50Z</time>
      </trkpt>
      <trkpt lat="47.80759" lon="-3.50348">
        <ele>38</ele>
        <time>2019-07-17T15:31:51Z</time>
      </trkpt>
      <trkpt lat="47.80755" lon="-3.50356">
        <ele>39</ele>
        <time>2019-07-17T15:31:52Z</time>
      </trkpt>
      <trkpt lat="47.80752" lon="-3.50364">
        <ele>39</ele>
        <time>2019-07-17T15:31:53Z</time>
      </trkpt>
      <trkpt lat="47.80747" lon="-3.50371">
        <ele>39</ele>
        <time>2019-07-17T15:31:54Z</time>
      </trkpt>
      <trkpt lat="47.80743" lon="-3.5038">
        <ele>40</ele>
        <time>2019-07-17T15:31:55Z</time>
      </trkpt>
      <trkpt lat="47.80739" lon="-3.50387">
        <ele>40</ele>
        <time>2019-07-17T15:31:56Z</time>
      </trkpt>
      <trkpt lat="47.80734" lon="-3.50395">
        <ele>41</ele>
        <time>2019-07-17T15:31:57Z</time>
      </trkpt>
      <trkpt lat="47.80729" lon="-3.50402">
        <ele>41</ele>
        <time>2019-07-17T15:31:58Z</time>
      </trkpt>
      <trkpt lat="47.80722" lon="-3.5041">
        <ele>41</ele>
        <time>2019-07-17T15:31:59Z</time>
      </trkpt>
      <trkpt lat="47.80716" lon="-3.50417">
        <ele>42</ele>
        <time>2019-07-17T15:32:00Z</time>
      </trkpt>
      <trkpt lat="47.8071" lon="-3.50424">
        <ele>42</ele>
        <time>2019-07-17T15:32:01Z</time>
      </trkpt>
      <trkpt lat="47.80705" lon="-3.5043">
        <ele>42</ele>
        <time>2019-07-17T15:32:02Z</time>
      </trkpt>
      <trkpt lat="47.80699" lon="-3.50437">
        <ele>42</ele>
        <time>2019-07-17T15:32:03Z</time>
      </trkpt>
      <trkpt lat="47.80693" lon="-3.50444">
        <ele>42</ele>
        <time>2019-07-17T15:32:04Z</time>
      </trkpt>
      <trkpt lat="47.80687" lon="-3.5045">
        <ele>42</ele>
        <time>2019-07-17T15:32:05Z</time>
      </trkpt>
      <trkpt lat="47.80681" lon="-3.50456">
        <ele>42</ele>
        <time>2019-07-17T15:32:06Z</time>
      </trkpt>
      <trkpt lat="47.80675" lon="-3.50463">
        <ele>42</ele>
        <time>2019-07-17T15:32:07Z</time>
      </trkpt>
      <trkpt lat="47.8067" lon="-3.50469">
        <ele>42</ele>
        <time>2019-07-17T15:32:08Z</time>
      </trkpt>
      <trkpt lat="47.80664" lon="-3.50475">
        <ele>42</ele>
        <time>2019-07-17T15:32:09Z</time>
      </trkpt>
      <trkpt lat="47.80659" lon="-3.50482">
        <ele>42</ele>
        <time>2019-07-17T15:32:10Z</time>
      </trkpt>
      <trkpt lat="47.80653" lon="-3.50489">
        <ele>42</ele>
        <time>2019-07-17T15:32:11Z</time>
      </trkpt>
      <trkpt lat="47.80647" lon="-3.50495">
        <ele>42</ele>
        <time>2019-07-17T15:32:12Z</time>
      </trkpt>
      <trkpt lat="47.80641" lon="-3.50502">
        <ele>42</ele>
        <time>2019-07-17T15:32:13Z</time>
      </trkpt>
      <trkpt lat="47.80634" lon="-3.50509">
        <ele>42</ele>
        <time>2019-07-17T15:32:14Z</time>
      </trkpt>
      <trkpt lat="47.80628" lon="-3.50516">
        <ele>42</ele>
        <time>2019-07-17T15:32:15Z</time>
      </trkpt>
      <trkpt lat="47.80622" lon="-3.50524">
        <ele>42</ele>
        <time>2019-07-17T15:32:16Z</time>
      </trkpt>
      <trkpt lat="47.80617" lon="-3.5053">
        <ele>41</ele>
        <time>2019-07-17T15:32:17Z</time>
      </trkpt>
      <trkpt lat="47.80611" lon="-3.50537">
        <ele>41</ele>
        <time>2019-07-17T15:32:18Z</time>
      </trkpt>
      <trkpt lat="47.80606" lon="-3.50544">
        <ele>41</ele>
        <time>2019-07-17T15:32:19Z</time>
      </trkpt>
      <trkpt lat="47.806" lon="-3.50551">
        <ele>41</ele>
        <time>2019-07-17T15:32:20Z</time>
      </trkpt>
      <trkpt lat="47.80596" lon="-3.50558">
        <ele>41</ele>
        <time>2019-07-17T15:32:21Z</time>
      </trkpt>
      <trkpt lat="47.80592" lon="-3.50565">
        <ele>41</ele>
        <time>2019-07-17T15:32:22Z</time>
      </trkpt>
      <trkpt lat="47.80588" lon="-3.50572">
        <ele>41</ele>
        <time>2019-07-17T15:32:23Z</time>
      </trkpt>
      <trkpt lat="47.80585" lon="-3.5058">
        <ele>41</ele>
        <time>2019-07-17T15:32:24Z</time>
      </trkpt>
      <trkpt lat="47.80582" lon="-3.50588">
        <ele>41</ele>
        <time>2019-07-17T15:32:25Z</time>
      </trkpt>
      <trkpt lat="47.8058" lon="-3.50597">
        <ele>41</ele>
        <time>2019-07-17T15:32:26Z</time>
      </trkpt>
      <trkpt lat="47.80578" lon="-3.50607">
        <ele>41</ele>
        <time>2019-07-17T15:32:27Z</time>
      </trkpt>
      <trkpt lat="47.80576" lon="-3.50617">
        <ele>41</ele>
        <time>2019-07-17T15:32:28Z</time>
      </trkpt>
      <trkpt lat="47.80575" lon="-3.50627">
        <ele>41</ele>
        <time>2019-07-17T15:32:29Z</time>
      </trkpt>
      <trkpt lat="47.80574" lon="-3.50638">
        <ele>41</ele>
        <time>2019-07-17T15:32:30Z</time>
      </trkpt>
      <trkpt lat="47.80574" lon="-3.50648">
        <ele>40</ele>
        <time>2019-07-17T15:32:31Z</time>
      </trkpt>
      <trkpt lat="47.80575" lon="-3.50659">
        <ele>40</ele>
        <time>2019-07-17T15:32:32Z</time>
      </trkpt>
      <trkpt lat="47.80576" lon="-3.50669">
        <ele>40</ele>
        <time>2019-07-17T15:32:33Z</time>
      </trkpt>
      <trkpt lat="47.80578" lon="-3.5068">
        <ele>40</ele>
        <time>2019-07-17T15:32:34Z</time>
      </trkpt>
      <trkpt lat="47.80579" lon="-3.5069">
        <ele>39</ele>
        <time>2019-07-17T15:32:35Z</time>
      </trkpt>
      <trkpt lat="47.8058" lon="-3.507">
        <ele>39</ele>
        <time>2019-07-17T15:32:36Z</time>
      </trkpt>
      <trkpt lat="47.80581" lon="-3.5071">
        <ele>39</ele>
        <time>2019-07-17T15:32:37Z</time>
      </trkpt>
      <trkpt lat="47.80582" lon="-3.5072">
        <ele>39</ele>
        <time>2019-07-17T15:32:38Z</time>
      </trkpt>
      <trkpt lat="47.80583" lon="-3.50731">
        <ele>39</ele>
        <time>2019-07-17T15:32:39Z</time>
      </trkpt>
      <trkpt lat="47.80583" lon="-3.50742">
        <ele>38</ele>
        <time>2019-07-17T15:32:40Z</time>
      </trkpt>
      <trkpt lat="47.80583" lon="-3.50753">
        <ele>38</ele>
        <time>2019-07-17T15:32:41Z</time>
      </trkpt>
      <trkpt lat="47.80583" lon="-3.50764">
        <ele>38</ele>
        <time>2019-07-17T15:32:42Z</time>
      </trkpt>
      <trkpt lat="47.80583" lon="-3.50774">
        <ele>38</ele>
        <time>2019-07-17T15:32:43Z</time>
      </trkpt>
      <trkpt lat="47.80583" lon="-3.50785">
        <ele>38</ele>
        <time>2019-07-17T15:32:44Z</time>
      </trkpt>
      <trkpt lat="47.80582" lon="-3.50796">
        <ele>39</ele>
        <time>2019-07-17T15:32:45Z</time>
      </trkpt>
      <trkpt lat="47.80581" lon="-3.50807">
        <ele>39</ele>
        <time>2019-07-17T15:32:46Z</time>
      </trkpt>
      <trkpt lat="47.80579" lon="-3.50817">
        <ele>39</ele>
        <time>2019-07-17T15:32:47Z</time>
      </trkpt>
      <trkpt lat="47.80577" lon="-3.50827">
        <ele>39</ele>
        <time>2019-07-17T15:32:48Z</time>
      </trkpt>
      <trkpt lat="47.80575" lon="-3.50838">
        <ele>39</ele>
        <time>2019-07-17T15:32:49Z</time>
      </trkpt>
      <trkpt lat="47.80572" lon="-3.50847">
        <ele>39</ele>
        <time>2019-07-17T15:32:50Z</time>
      </trkpt>
      <trkpt lat="47.8057" lon="-3.50857">
        <ele>39</ele>
        <time>2019-07-17T15:32:51Z</time>
      </trkpt>
      <trkpt lat="47.80568" lon="-3.50867">
        <ele>38</ele>
        <time>2019-07-17T15:32:52Z</time>
      </trkpt>
      <trkpt lat="47.80566" lon="-3.50876">
        <ele>38</ele>
        <time>2019-07-17T15:32:53Z</time>
      </trkpt>
      <trkpt lat="47.80564" lon="-3.50886">
        <ele>38</ele>
        <time>2019-07-17T15:32:54Z</time>
      </trkpt>
      <trkpt lat="47.80563" lon="-3.50896">
        <ele>38</ele>
        <time>2019-07-17T15:32:55Z</time>
      </trkpt>
      <trkpt lat="47.80562" lon="-3.50906">
        <ele>38</ele>
        <time>2019-07-17T15:32:56Z</time>
      </trkpt>
      <trkpt lat="47.80562" lon="-3.50915">
        <ele>37</ele>
        <time>2019-07-17T15:32:57Z</time>
      </trkpt>
      <trkpt lat="47.80562" lon="-3.50923">
        <ele>37</ele>
        <time>2019-07-17T15:32:58Z</time>
      </trkpt>
      <trkpt lat="47.80561" lon="-3.5093">
        <ele>37</ele>
        <time>2019-07-17T15:32:59Z</time>
      </trkpt>
      <trkpt lat="47.80561" lon="-3.50932">
        <ele>37</ele>
        <time>2019-07-17T15:33:00Z</time>
      </trkpt>
      <trkpt lat="47.80561" lon="-3.50933">
        <ele>37</ele>
        <time>2019-07-17T15:33:01Z</time>
      </trkpt>
      <trkpt lat="47.80561" lon="-3.50933">
        <ele>37</ele>
        <time>2019-07-17T15:33:02Z</time>
      </trkpt>
      <trkpt lat="47.80561" lon="-3.50934">
        <ele>37</ele>
        <time>2019-07-17T15:33:03Z</time>
      </trkpt>
      <trkpt lat="47.80561" lon="-3.50934">
        <ele>37</ele>
        <time>2019-07-17T15:33:04Z</time>
      </trkpt>
      <trkpt lat="47.8056" lon="-3.50935">
        <ele>36</ele>
        <time>2019-07-17T15:33:05Z</time>
      </trkpt>
      <trkpt lat="47.8056" lon="-3.50933">
        <ele>36</ele>
        <time>2019-07-17T15:33:06Z</time>
      </trkpt>
      <trkpt lat="47.8056" lon="-3.50932">
        <ele>36</ele>
        <time>2019-07-17T15:33:07Z</time>
      </trkpt>
      <trkpt lat="47.8056" lon="-3.5093">
        <ele>35</ele>
        <time>2019-07-17T15:33:08Z</time>
      </trkpt>
      <trkpt lat="47.80562" lon="-3.50928">
        <ele>35</ele>
        <time>2019-07-17T15:33:09Z</time>
      </trkpt>
      <trkpt lat="47.80562" lon="-3.50925">
        <ele>35</ele>
        <time>2019-07-17T15:33:10Z</time>
      </trkpt>
      <trkpt lat="47.80562" lon="-3.50922">
        <ele>34</ele>
        <time>2019-07-17T15:33:11Z</time>
      </trkpt>
      <trkpt lat="47.80563" lon="-3.50919">
        <ele>34</ele>
        <time>2019-07-17T15:33:12Z</time>
      </trkpt>
      <trkpt lat="47.80563" lon="-3.50916">
        <ele>34</ele>
        <time>2019-07-17T15:33:13Z</time>
      </trkpt>
      <trkpt lat="47.80562" lon="-3.50913">
        <ele>33</ele>
        <time>2019-07-17T15:33:14Z</time>
      </trkpt>
      <trkpt lat="47.8056" lon="-3.50912">
        <ele>33</ele>
        <time>2019-07-17T15:33:15Z</time>
      </trkpt>
      <trkpt lat="47.80557" lon="-3.5091">
        <ele>33</ele>
        <time>2019-07-17T15:33:16Z</time>
      </trkpt>
      <trkpt lat="47.80554" lon="-3.5091">
        <ele>33</ele>
        <time>2019-07-17T15:33:17Z</time>
      </trkpt>
      <trkpt lat="47.80551" lon="-3.50909">
        <ele>32</ele>
        <time>2019-07-17T15:33:18Z</time>
      </trkpt>
      <trkpt lat="47.80548" lon="-3.50909">
        <ele>32</ele>
        <time>2019-07-17T15:33:19Z</time>
      </trkpt>
      <trkpt lat="47.80545" lon="-3.50909">
        <ele>32</ele>
        <time>2019-07-17T15:33:20Z</time>
      </trkpt>
      <trkpt lat="47.80542" lon="-3.50909">
        <ele>32</ele>
        <time>2019-07-17T15:33:21Z</time>
      </trkpt>
      <trkpt lat="47.8054" lon="-3.50909">
        <ele>32</ele>
        <time>2019-07-17T15:33:22Z</time>
      </trkpt>
      <trkpt lat="47.80537" lon="-3.50909">
        <ele>32</ele>
        <time>2019-07-17T15:33:23Z</time>
      </trkpt>
      <trkpt lat="47.80535" lon="-3.50909">
        <ele>32</ele>
        <time>2019-07-17T15:33:24Z</time>
      </trkpt>
      <trkpt lat="47.80532" lon="-3.50909">
        <ele>32</ele>
        <time>2019-07-17T15:33:25Z</time>
      </trkpt>
      <trkpt lat="47.8053" lon="-3.5091">
        <ele>32</ele>
        <time>2019-07-17T15:33:26Z</time>
      </trkpt>
      <trkpt lat="47.80527" lon="-3.50912">
        <ele>32</ele>
        <time>2019-07-17T15:33:27Z</time>
      </trkpt>
      <trkpt lat="47.80525" lon="-3.50913">
        <ele>32</ele>
        <time>2019-07-17T15:33:28Z</time>
      </trkpt>
      <trkpt lat="47.80522" lon="-3.50915">
        <ele>32</ele>
        <time>2019-07-17T15:33:29Z</time>
      </trkpt>
      <trkpt lat="47.80519" lon="-3.50918">
        <ele>32</ele>
        <time>2019-07-17T15:33:30Z</time>
      </trkpt>
      <trkpt lat="47.80516" lon="-3.50922">
        <ele>32</ele>
        <time>2019-07-17T15:33:31Z</time>
      </trkpt>
      <trkpt lat="47.80514" lon="-3.50925">
        <ele>33</ele>
        <time>2019-07-17T15:33:32Z</time>
      </trkpt>
      <trkpt lat="47.80512" lon="-3.50928">
        <ele>33</ele>
        <time>2019-07-17T15:33:33Z</time>
      </trkpt>
      <trkpt lat="47.8051" lon="-3.50932">
        <ele>33</ele>
        <time>2019-07-17T15:33:34Z</time>
      </trkpt>
      <trkpt lat="47.80509" lon="-3.50936">
        <ele>33</ele>
        <time>2019-07-17T15:33:35Z</time>
      </trkpt>
      <trkpt lat="47.80507" lon="-3.50941">
        <ele>33</ele>
        <time>2019-07-17T15:33:36Z</time>
      </trkpt>
      <trkpt lat="47.80505" lon="-3.50946">
        <ele>33</ele>
        <time>2019-07-17T15:33:37Z</time>
      </trkpt>
      <trkpt lat="47.80504" lon="-3.5095">
        <ele>33</ele>
        <time>2019-07-17T15:33:38Z</time>
      </trkpt>
      <trkpt lat="47.80502" lon="-3.50955">
        <ele>33</ele>
        <time>2019-07-17T15:33:39Z</time>
      </trkpt>
      <trkpt lat="47.80501" lon="-3.50958">
        <ele>33</ele>
        <time>2019-07-17T15:33:40Z</time>
      </trkpt>
      <trkpt lat="47.805" lon="-3.50962">
        <ele>33</ele>
        <time>2019-07-17T15:33:41Z</time>
      </trkpt>
      <trkpt lat="47.80499" lon="-3.50965">
        <ele>34</ele>
        <time>2019-07-17T15:33:42Z</time>
      </trkpt>
      <trkpt lat="47.80499" lon="-3.50968">
        <ele>34</ele>
        <time>2019-07-17T15:33:43Z</time>
      </trkpt>
      <trkpt lat="47.80498" lon="-3.50971">
        <ele>34</ele>
        <time>2019-07-17T15:33:44Z</time>
      </trkpt>
      <trkpt lat="47.80497" lon="-3.50975">
        <ele>34</ele>
        <time>2019-07-17T15:33:45Z</time>
      </trkpt>
      <trkpt lat="47.80497" lon="-3.50978">
        <ele>34</ele>
        <time>2019-07-17T15:33:46Z</time>
      </trkpt>
      <trkpt lat="47.80498" lon="-3.50982">
        <ele>34</ele>
        <time>2019-07-17T15:33:47Z</time>
      </trkpt>
      <trkpt lat="47.80498" lon="-3.50987">
        <ele>34</ele>
        <time>2019-07-17T15:33:48Z</time>
      </trkpt>
      <trkpt lat="47.80499" lon="-3.50992">
        <ele>34</ele>
        <time>2019-07-17T15:33:49Z</time>
      </trkpt>
      <trkpt lat="47.805" lon="-3.50997">
        <ele>34</ele>
        <time>2019-07-17T15:33:50Z</time>
      </trkpt>
      <trkpt lat="47.80501" lon="-3.51001">
        <ele>34</ele>
        <time>2019-07-17T15:33:51Z</time>
      </trkpt>
      <trkpt lat="47.80502" lon="-3.51005">
        <ele>34</ele>
        <time>2019-07-17T15:33:52Z</time>
      </trkpt>
      <trkpt lat="47.80503" lon="-3.51011">
        <ele>34</ele>
        <time>2019-07-17T15:33:53Z</time>
      </trkpt>
      <trkpt lat="47.80504" lon="-3.51019">
        <ele>34</ele>
        <time>2019-07-17T15:33:54Z</time>
      </trkpt>
      <trkpt lat="47.80504" lon="-3.51028">
        <ele>35</ele>
        <time>2019-07-17T15:33:55Z</time>
      </trkpt>
      <trkpt lat="47.80504" lon="-3.51037">
        <ele>35</ele>
        <time>2019-07-17T15:33:56Z</time>
      </trkpt>
      <trkpt lat="47.80503" lon="-3.51047">
        <ele>35</ele>
        <time>2019-07-17T15:33:57Z</time>
      </trkpt>
      <trkpt lat="47.80501" lon="-3.51057">
        <ele>35</ele>
        <time>2019-07-17T15:33:58Z</time>
      </trkpt>
      <trkpt lat="47.80499" lon="-3.51068">
        <ele>35</ele>
        <time>2019-07-17T15:33:59Z</time>
      </trkpt>
      <trkpt lat="47.80494" lon="-3.5108">
        <ele>34</ele>
        <time>2019-07-17T15:34:00Z</time>
      </trkpt>
      <trkpt lat="47.80489" lon="-3.5109">
        <ele>34</ele>
        <time>2019-07-17T15:34:01Z</time>
      </trkpt>
      <trkpt lat="47.80485" lon="-3.51101">
        <ele>35</ele>
        <time>2019-07-17T15:34:02Z</time>
      </trkpt>
      <trkpt lat="47.80481" lon="-3.51111">
        <ele>35</ele>
        <time>2019-07-17T15:34:03Z</time>
      </trkpt>
      <trkpt lat="47.80478" lon="-3.51121">
        <ele>35</ele>
        <time>2019-07-17T15:34:04Z</time>
      </trkpt>
      <trkpt lat="47.80476" lon="-3.51131">
        <ele>35</ele>
        <time>2019-07-17T15:34:05Z</time>
      </trkpt>
      <trkpt lat="47.80475" lon="-3.5114">
        <ele>35</ele>
        <time>2019-07-17T15:34:06Z</time>
      </trkpt>
      <trkpt lat="47.80475" lon="-3.5115">
        <ele>35</ele>
        <time>2019-07-17T15:34:07Z</time>
      </trkpt>
      <trkpt lat="47.80475" lon="-3.51158">
        <ele>35</ele>
        <time>2019-07-17T15:34:08Z</time>
      </trkpt>
      <trkpt lat="47.80475" lon="-3.51165">
        <ele>35</ele>
        <time>2019-07-17T15:34:09Z</time>
      </trkpt>
      <trkpt lat="47.80476" lon="-3.51171">
        <ele>35</ele>
        <time>2019-07-17T15:34:10Z</time>
      </trkpt>
      <trkpt lat="47.80477" lon="-3.51176">
        <ele>35</ele>
        <time>2019-07-17T15:34:11Z</time>
      </trkpt>
      <trkpt lat="47.80478" lon="-3.51181">
        <ele>35</ele>
        <time>2019-07-17T15:34:12Z</time>
      </trkpt>
      <trkpt lat="47.80478" lon="-3.51186">
        <ele>35</ele>
        <time>2019-07-17T15:34:13Z</time>
      </trkpt>
      <trkpt lat="47.80478" lon="-3.51193">
        <ele>35</ele>
        <time>2019-07-17T15:34:14Z</time>
      </trkpt>
      <trkpt lat="47.80478" lon="-3.51199">
        <ele>35</ele>
        <time>2019-07-17T15:34:15Z</time>
      </trkpt>
      <trkpt lat="47.80479" lon="-3.51205">
        <ele>35</ele>
        <time>2019-07-17T15:34:16Z</time>
      </trkpt>
      <trkpt lat="47.80479" lon="-3.51211">
        <ele>35</ele>
        <time>2019-07-17T15:34:17Z</time>
      </trkpt>
      <trkpt lat="47.8048" lon="-3.51217">
        <ele>35</ele>
        <time>2019-07-17T15:34:18Z</time>
      </trkpt>
      <trkpt lat="47.8048" lon="-3.51222">
        <ele>35</ele>
        <time>2019-07-17T15:34:19Z</time>
      </trkpt>
      <trkpt lat="47.80481" lon="-3.51229">
        <ele>35</ele>
        <time>2019-07-17T15:34:20Z</time>
      </trkpt>
      <trkpt lat="47.80481" lon="-3.51235">
        <ele>35</ele>
        <time>2019-07-17T15:34:21Z</time>
      </trkpt>
      <trkpt lat="47.80481" lon="-3.51241">
        <ele>35</ele>
        <time>2019-07-17T15:34:22Z</time>
      </trkpt>
      <trkpt lat="47.80481" lon="-3.51247">
        <ele>35</ele>
        <time>2019-07-17T15:34:23Z</time>
      </trkpt>
      <trkpt lat="47.8048" lon="-3.51252">
        <ele>35</ele>
        <time>2019-07-17T15:34:24Z</time>
      </trkpt>
      <trkpt lat="47.8048" lon="-3.51259">
        <ele>35</ele>
        <time>2019-07-17T15:34:25Z</time>
      </trkpt>
      <trkpt lat="47.8048" lon="-3.51265">
        <ele>35</ele>
        <time>2019-07-17T15:34:26Z</time>
      </trkpt>
      <trkpt lat="47.80479" lon="-3.5127">
        <ele>36</ele>
        <time>2019-07-17T15:34:27Z</time>
      </trkpt>
      <trkpt lat="47.80478" lon="-3.51276">
        <ele>36</ele>
        <time>2019-07-17T15:34:28Z</time>
      </trkpt>
      <trkpt lat="47.80478" lon="-3.51281">
        <ele>36</ele>
        <time>2019-07-17T15:34:29Z</time>
      </trkpt>
      <trkpt lat="47.80477" lon="-3.51288">
        <ele>36</ele>
        <time>2019-07-17T15:34:30Z</time>
      </trkpt>
      <trkpt lat="47.80477" lon="-3.51295">
        <ele>36</ele>
        <time>2019-07-17T15:34:31Z</time>
      </trkpt>
      <trkpt lat="47.80477" lon="-3.51301">
        <ele>36</ele>
        <time>2019-07-17T15:34:32Z</time>
      </trkpt>
      <trkpt lat="47.80476" lon="-3.51307">
        <ele>36</ele>
        <time>2019-07-17T15:34:33Z</time>
      </trkpt>
      <trkpt lat="47.80476" lon="-3.51313">
        <ele>36</ele>
        <time>2019-07-17T15:34:34Z</time>
      </trkpt>
      <trkpt lat="47.80474" lon="-3.5132">
        <ele>36</ele>
        <time>2019-07-17T15:34:35Z</time>
      </trkpt>
      <trkpt lat="47.80473" lon="-3.51326">
        <ele>36</ele>
        <time>2019-07-17T15:34:36Z</time>
      </trkpt>
      <trkpt lat="47.80472" lon="-3.51332">
        <ele>36</ele>
        <time>2019-07-17T15:34:37Z</time>
      </trkpt>
      <trkpt lat="47.8047" lon="-3.51337">
        <ele>35</ele>
        <time>2019-07-17T15:34:38Z</time>
      </trkpt>
      <trkpt lat="47.80469" lon="-3.51343">
        <ele>35</ele>
        <time>2019-07-17T15:34:39Z</time>
      </trkpt>
      <trkpt lat="47.80468" lon="-3.51349">
        <ele>35</ele>
        <time>2019-07-17T15:34:40Z</time>
      </trkpt>
      <trkpt lat="47.80467" lon="-3.51354">
        <ele>35</ele>
        <time>2019-07-17T15:34:41Z</time>
      </trkpt>
      <trkpt lat="47.80466" lon="-3.51359">
        <ele>35</ele>
        <time>2019-07-17T15:34:42Z</time>
      </trkpt>
      <trkpt lat="47.80464" lon="-3.51363">
        <ele>35</ele>
        <time>2019-07-17T15:34:43Z</time>
      </trkpt>
      <trkpt lat="47.80463" lon="-3.51368">
        <ele>36</ele>
        <time>2019-07-17T15:34:44Z</time>
      </trkpt>
      <trkpt lat="47.80461" lon="-3.51373">
        <ele>36</ele>
        <time>2019-07-17T15:34:45Z</time>
      </trkpt>
      <trkpt lat="47.8046" lon="-3.51379">
        <ele>36</ele>
        <time>2019-07-17T15:34:46Z</time>
      </trkpt>
      <trkpt lat="47.80458" lon="-3.51384">
        <ele>36</ele>
        <time>2019-07-17T15:34:47Z</time>
      </trkpt>
      <trkpt lat="47.80456" lon="-3.51388">
        <ele>36</ele>
        <time>2019-07-17T15:34:48Z</time>
      </trkpt>
      <trkpt lat="47.80455" lon="-3.51393">
        <ele>36</ele>
        <time>2019-07-17T15:34:49Z</time>
      </trkpt>
      <trkpt lat="47.80453" lon="-3.51399">
        <ele>36</ele>
        <time>2019-07-17T15:34:50Z</time>
      </trkpt>
      <trkpt lat="47.80451" lon="-3.51405">
        <ele>36</ele>
        <time>2019-07-17T15:34:51Z</time>
      </trkpt>
      <trkpt lat="47.80448" lon="-3.51411">
        <ele>36</ele>
        <time>2019-07-17T15:34:52Z</time>
      </trkpt>
      <trkpt lat="47.80446" lon="-3.51417">
        <ele>37</ele>
        <time>2019-07-17T15:34:53Z</time>
      </trkpt>
      <trkpt lat="47.80443" lon="-3.51424">
        <ele>37</ele>
        <time>2019-07-17T15:34:54Z</time>
      </trkpt>
      <trkpt lat="47.80441" lon="-3.51432">
        <ele>37</ele>
        <time>2019-07-17T15:34:55Z</time>
      </trkpt>
      <trkpt lat="47.80438" lon="-3.5144">
        <ele>37</ele>
        <time>2019-07-17T15:34:56Z</time>
      </trkpt>
      <trkpt lat="47.80436" lon="-3.51447">
        <ele>37</ele>
        <time>2019-07-17T15:34:57Z</time>
      </trkpt>
      <trkpt lat="47.80433" lon="-3.51454">
        <ele>37</ele>
        <time>2019-07-17T15:34:58Z</time>
      </trkpt>
      <trkpt lat="47.8043" lon="-3.5146">
        <ele>37</ele>
        <time>2019-07-17T15:34:59Z</time>
      </trkpt>
      <trkpt lat="47.80426" lon="-3.51466">
        <ele>37</ele>
        <time>2019-07-17T15:35:00Z</time>
      </trkpt>
      <trkpt lat="47.80423" lon="-3.51473">
        <ele>37</ele>
        <time>2019-07-17T15:35:01Z</time>
      </trkpt>
      <trkpt lat="47.80421" lon="-3.5148">
        <ele>37</ele>
        <time>2019-07-17T15:35:02Z</time>
      </trkpt>
      <trkpt lat="47.80419" lon="-3.51486">
        <ele>37</ele>
        <time>2019-07-17T15:35:03Z</time>
      </trkpt>
      <trkpt lat="47.80417" lon="-3.51493">
        <ele>37</ele>
        <time>2019-07-17T15:35:04Z</time>
      </trkpt>
      <trkpt lat="47.80414" lon="-3.515">
        <ele>37</ele>
        <time>2019-07-17T15:35:05Z</time>
      </trkpt>
      <trkpt lat="47.80412" lon="-3.51507">
        <ele>37</ele>
        <time>2019-07-17T15:35:06Z</time>
      </trkpt>
      <trkpt lat="47.8041" lon="-3.51514">
        <ele>37</ele>
        <time>2019-07-17T15:35:07Z</time>
      </trkpt>
      <trkpt lat="47.80408" lon="-3.51521">
        <ele>37</ele>
        <time>2019-07-17T15:35:08Z</time>
      </trkpt>
      <trkpt lat="47.80406" lon="-3.51528">
        <ele>38</ele>
        <time>2019-07-17T15:35:09Z</time>
      </trkpt>
      <trkpt lat="47.80404" lon="-3.51534">
        <ele>38</ele>
        <time>2019-07-17T15:35:10Z</time>
      </trkpt>
      <trkpt lat="47.80403" lon="-3.51541">
        <ele>38</ele>
        <time>2019-07-17T15:35:11Z</time>
      </trkpt>
      <trkpt lat="47.80401" lon="-3.51548">
        <ele>38</ele>
        <time>2019-07-17T15:35:12Z</time>
      </trkpt>
      <trkpt lat="47.80401" lon="-3.51554">
        <ele>38</ele>
        <time>2019-07-17T15:35:13Z</time>
      </trkpt>
      <trkpt lat="47.804" lon="-3.5156">
        <ele>38</ele>
        <time>2019-07-17T15:35:14Z</time>
      </trkpt>
      <trkpt lat="47.804" lon="-3.51567">
        <ele>38</ele>
        <time>2019-07-17T15:35:15Z</time>
      </trkpt>
      <trkpt lat="47.80399" lon="-3.51572">
        <ele>39</ele>
        <time>2019-07-17T15:35:16Z</time>
      </trkpt>
      <trkpt lat="47.80398" lon="-3.51577">
        <ele>39</ele>
        <time>2019-07-17T15:35:17Z</time>
      </trkpt>
      <trkpt lat="47.80398" lon="-3.51583">
        <ele>39</ele>
        <time>2019-07-17T15:35:18Z</time>
      </trkpt>
      <trkpt lat="47.80397" lon="-3.51588">
        <ele>39</ele>
        <time>2019-07-17T15:35:19Z</time>
      </trkpt>
      <trkpt lat="47.80396" lon="-3.51594">
        <ele>39</ele>
        <time>2019-07-17T15:35:20Z</time>
      </trkpt>
      <trkpt lat="47.80396" lon="-3.51601">
        <ele>40</ele>
        <time>2019-07-17T15:35:21Z</time>
      </trkpt>
      <trkpt lat="47.80396" lon="-3.51607">
        <ele>40</ele>
        <time>2019-07-17T15:35:22Z</time>
      </trkpt>
      <trkpt lat="47.80396" lon="-3.51614">
        <ele>40</ele>
        <time>2019-07-17T15:35:23Z</time>
      </trkpt>
      <trkpt lat="47.80395" lon="-3.51621">
        <ele>40</ele>
        <time>2019-07-17T15:35:24Z</time>
      </trkpt>
      <trkpt lat="47.80394" lon="-3.51627">
        <ele>40</ele>
        <time>2019-07-17T15:35:25Z</time>
      </trkpt>
      <trkpt lat="47.80393" lon="-3.51633">
        <ele>41</ele>
        <time>2019-07-17T15:35:26Z</time>
      </trkpt>
      <trkpt lat="47.80392" lon="-3.51639">
        <ele>41</ele>
        <time>2019-07-17T15:35:27Z</time>
      </trkpt>
      <trkpt lat="47.8039" lon="-3.51645">
        <ele>41</ele>
        <time>2019-07-17T15:35:28Z</time>
      </trkpt>
      <trkpt lat="47.80388" lon="-3.51649">
        <ele>41</ele>
        <time>2019-07-17T15:35:29Z</time>
      </trkpt>
      <trkpt lat="47.80386" lon="-3.51654">
        <ele>41</ele>
        <time>2019-07-17T15:35:30Z</time>
      </trkpt>
      <trkpt lat="47.80384" lon="-3.51658">
        <ele>41</ele>
        <time>2019-07-17T15:35:31Z</time>
      </trkpt>
      <trkpt lat="47.80382" lon="-3.51662">
        <ele>41</ele>
        <time>2019-07-17T15:35:32Z</time>
      </trkpt>
      <trkpt lat="47.80378" lon="-3.51665">
        <ele>42</ele>
        <time>2019-07-17T15:35:33Z</time>
      </trkpt>
      <trkpt lat="47.80375" lon="-3.51668">
        <ele>42</ele>
        <time>2019-07-17T15:35:34Z</time>
      </trkpt>
      <trkpt lat="47.80373" lon="-3.51671">
        <ele>42</ele>
        <time>2019-07-17T15:35:35Z</time>
      </trkpt>
      <trkpt lat="47.8037" lon="-3.51674">
        <ele>42</ele>
        <time>2019-07-17T15:35:36Z</time>
      </trkpt>
      <trkpt lat="47.80366" lon="-3.51677">
        <ele>42</ele>
        <time>2019-07-17T15:35:37Z</time>
      </trkpt>
      <trkpt lat="47.80363" lon="-3.5168">
        <ele>42</ele>
        <time>2019-07-17T15:35:38Z</time>
      </trkpt>
      <trkpt lat="47.80361" lon="-3.51683">
        <ele>42</ele>
        <time>2019-07-17T15:35:39Z</time>
      </trkpt>
      <trkpt lat="47.80358" lon="-3.51685">
        <ele>42</ele>
        <time>2019-07-17T15:35:40Z</time>
      </trkpt>
      <trkpt lat="47.80355" lon="-3.51688">
        <ele>42</ele>
        <time>2019-07-17T15:35:41Z</time>
      </trkpt>
      <trkpt lat="47.80352" lon="-3.5169">
        <ele>42</ele>
        <time>2019-07-17T15:35:42Z</time>
      </trkpt>
      <trkpt lat="47.80347" lon="-3.51692">
        <ele>42</ele>
        <time>2019-07-17T15:35:43Z</time>
      </trkpt>
      <trkpt lat="47.80343" lon="-3.51694">
        <ele>42</ele>
        <time>2019-07-17T15:35:44Z</time>
      </trkpt>
      <trkpt lat="47.80339" lon="-3.51696">
        <ele>42</ele>
        <time>2019-07-17T15:35:45Z</time>
      </trkpt>
      <trkpt lat="47.80334" lon="-3.51697">
        <ele>42</ele>
        <time>2019-07-17T15:35:46Z</time>
      </trkpt>
      <trkpt lat="47.80329" lon="-3.51697">
        <ele>42</ele>
        <time>2019-07-17T15:35:47Z</time>
      </trkpt>
      <trkpt lat="47.80324" lon="-3.51696">
        <ele>42</ele>
        <time>2019-07-17T15:35:48Z</time>
      </trkpt>
      <trkpt lat="47.80318" lon="-3.51695">
        <ele>42</ele>
        <time>2019-07-17T15:35:49Z</time>
      </trkpt>
      <trkpt lat="47.80313" lon="-3.51695">
        <ele>42</ele>
        <time>2019-07-17T15:35:50Z</time>
      </trkpt>
      <trkpt lat="47.80307" lon="-3.51695">
        <ele>42</ele>
        <time>2019-07-17T15:35:51Z</time>
      </trkpt>
      <trkpt lat="47.80303" lon="-3.51694">
        <ele>42</ele>
        <time>2019-07-17T15:35:52Z</time>
      </trkpt>
      <trkpt lat="47.80297" lon="-3.51694">
        <ele>42</ele>
        <time>2019-07-17T15:35:53Z</time>
      </trkpt>
      <trkpt lat="47.80292" lon="-3.51694">
        <ele>41</ele>
        <time>2019-07-17T15:35:54Z</time>
      </trkpt>
      <trkpt lat="47.80287" lon="-3.51693">
        <ele>41</ele>
        <time>2019-07-17T15:35:55Z</time>
      </trkpt>
      <trkpt lat="47.80283" lon="-3.51692">
        <ele>41</ele>
        <time>2019-07-17T15:35:56Z</time>
      </trkpt>
      <trkpt lat="47.80278" lon="-3.5169">
        <ele>41</ele>
        <time>2019-07-17T15:35:57Z</time>
      </trkpt>
      <trkpt lat="47.80273" lon="-3.51689">
        <ele>41</ele>
        <time>2019-07-17T15:35:58Z</time>
      </trkpt>
      <trkpt lat="47.80269" lon="-3.51687">
        <ele>41</ele>
        <time>2019-07-17T15:35:59Z</time>
      </trkpt>
      <trkpt lat="47.80264" lon="-3.51687">
        <ele>41</ele>
        <time>2019-07-17T15:36:00Z</time>
      </trkpt>
      <trkpt lat="47.8026" lon="-3.51685">
        <ele>41</ele>
        <time>2019-07-17T15:36:01Z</time>
      </trkpt>
      <trkpt lat="47.80253" lon="-3.51684">
        <ele>41</ele>
        <time>2019-07-17T15:36:02Z</time>
      </trkpt>
      <trkpt lat="47.80247" lon="-3.51683">
        <ele>40</ele>
        <time>2019-07-17T15:36:03Z</time>
      </trkpt>
      <trkpt lat="47.80239" lon="-3.51684">
        <ele>40</ele>
        <time>2019-07-17T15:36:04Z</time>
      </trkpt>
      <trkpt lat="47.80231" lon="-3.51686">
        <ele>40</ele>
        <time>2019-07-17T15:36:05Z</time>
      </trkpt>
      <trkpt lat="47.80222" lon="-3.51689">
        <ele>39</ele>
        <time>2019-07-17T15:36:06Z</time>
      </trkpt>
      <trkpt lat="47.80214" lon="-3.51693">
        <ele>39</ele>
        <time>2019-07-17T15:36:07Z</time>
      </trkpt>
      <trkpt lat="47.80206" lon="-3.51695">
        <ele>38</ele>
        <time>2019-07-17T15:36:08Z</time>
      </trkpt>
      <trkpt lat="47.80198" lon="-3.51696">
        <ele>38</ele>
        <time>2019-07-17T15:36:09Z</time>
      </trkpt>
      <trkpt lat="47.80192" lon="-3.51694">
        <ele>38</ele>
        <time>2019-07-17T15:36:10Z</time>
      </trkpt>
      <trkpt lat="47.80186" lon="-3.51691">
        <ele>38</ele>
        <time>2019-07-17T15:36:11Z</time>
      </trkpt>
      <trkpt lat="47.8018" lon="-3.51689">
        <ele>37</ele>
        <time>2019-07-17T15:36:12Z</time>
      </trkpt>
      <trkpt lat="47.80174" lon="-3.51687">
        <ele>37</ele>
        <time>2019-07-17T15:36:13Z</time>
      </trkpt>
      <trkpt lat="47.80168" lon="-3.51684">
        <ele>37</ele>
        <time>2019-07-17T15:36:14Z</time>
      </trkpt>
      <trkpt lat="47.80162" lon="-3.51683">
        <ele>37</ele>
        <time>2019-07-17T15:36:15Z</time>
      </trkpt>
      <trkpt lat="47.80158" lon="-3.5168">
        <ele>37</ele>
        <time>2019-07-17T15:36:16Z</time>
      </trkpt>
      <trkpt lat="47.80153" lon="-3.51677">
        <ele>37</ele>
        <time>2019-07-17T15:36:17Z</time>
      </trkpt>
      <trkpt lat="47.80148" lon="-3.51675">
        <ele>36</ele>
        <time>2019-07-17T15:36:18Z</time>
      </trkpt>
      <trkpt lat="47.80144" lon="-3.51675">
        <ele>36</ele>
        <time>2019-07-17T15:36:19Z</time>
      </trkpt>
      <trkpt lat="47.8014" lon="-3.51677">
        <ele>36</ele>
        <time>2019-07-17T15:36:20Z</time>
      </trkpt>
      <trkpt lat="47.80137" lon="-3.5168">
        <ele>36</ele>
        <time>2019-07-17T15:36:21Z</time>
      </trkpt>
      <trkpt lat="47.80136" lon="-3.51684">
        <ele>36</ele>
        <time>2019-07-17T15:36:22Z</time>
      </trkpt>
      <trkpt lat="47.80134" lon="-3.51689">
        <ele>36</ele>
        <time>2019-07-17T15:36:23Z</time>
      </trkpt>
      <trkpt lat="47.80133" lon="-3.51694">
        <ele>36</ele>
        <time>2019-07-17T15:36:24Z</time>
      </trkpt>
      <trkpt lat="47.80132" lon="-3.51698">
        <ele>36</ele>
        <time>2019-07-17T15:36:25Z</time>
      </trkpt>
      <trkpt lat="47.80131" lon="-3.51702">
        <ele>36</ele>
        <time>2019-07-17T15:36:26Z</time>
      </trkpt>
      <trkpt lat="47.8013" lon="-3.51705">
        <ele>36</ele>
        <time>2019-07-17T15:36:27Z</time>
      </trkpt>
      <trkpt lat="47.80129" lon="-3.51709">
        <ele>36</ele>
        <time>2019-07-17T15:36:28Z</time>
      </trkpt>
      <trkpt lat="47.80128" lon="-3.51713">
        <ele>37</ele>
        <time>2019-07-17T15:36:29Z</time>
      </trkpt>
      <trkpt lat="47.80127" lon="-3.51717">
        <ele>37</ele>
        <time>2019-07-17T15:36:30Z</time>
      </trkpt>
      <trkpt lat="47.80126" lon="-3.51721">
        <ele>37</ele>
        <time>2019-07-17T15:36:31Z</time>
      </trkpt>
      <trkpt lat="47.80125" lon="-3.51726">
        <ele>37</ele>
        <time>2019-07-17T15:36:32Z</time>
      </trkpt>
      <trkpt lat="47.80123" lon="-3.5173">
        <ele>38</ele>
        <time>2019-07-17T15:36:33Z</time>
      </trkpt>
      <trkpt lat="47.80121" lon="-3.51734">
        <ele>38</ele>
        <time>2019-07-17T15:36:34Z</time>
      </trkpt>
      <trkpt lat="47.80119" lon="-3.51737">
        <ele>38</ele>
        <time>2019-07-17T15:36:35Z</time>
      </trkpt>
      <trkpt lat="47.80116" lon="-3.51741">
        <ele>38</ele>
        <time>2019-07-17T15:36:36Z</time>
      </trkpt>
      <trkpt lat="47.80113" lon="-3.51744">
        <ele>38</ele>
        <time>2019-07-17T15:36:37Z</time>
      </trkpt>
      <trkpt lat="47.8011" lon="-3.51749">
        <ele>39</ele>
        <time>2019-07-17T15:36:38Z</time>
      </trkpt>
      <trkpt lat="47.80106" lon="-3.51755">
        <ele>39</ele>
        <time>2019-07-17T15:36:39Z</time>
      </trkpt>
      <trkpt lat="47.80103" lon="-3.51762">
        <ele>39</ele>
        <time>2019-07-17T15:36:40Z</time>
      </trkpt>
      <trkpt lat="47.80099" lon="-3.51768">
        <ele>39</ele>
        <time>2019-07-17T15:36:41Z</time>
      </trkpt>
      <trkpt lat="47.80094" lon="-3.51774">
        <ele>39</ele>
        <time>2019-07-17T15:36:42Z</time>
      </trkpt>
      <trkpt lat="47.80088" lon="-3.5178">
        <ele>39</ele>
        <time>2019-07-17T15:36:43Z</time>
      </trkpt>
      <trkpt lat="47.80081" lon="-3.51786">
        <ele>39</ele>
        <time>2019-07-17T15:36:44Z</time>
      </trkpt>
      <trkpt lat="47.80074" lon="-3.51791">
        <ele>40</ele>
        <time>2019-07-17T15:36:45Z</time>
      </trkpt>
      <trkpt lat="47.80066" lon="-3.51796">
        <ele>40</ele>
        <time>2019-07-17T15:36:46Z</time>
      </trkpt>
      <trkpt lat="47.8006" lon="-3.51801">
        <ele>40</ele>
        <time>2019-07-17T15:36:47Z</time>
      </trkpt>
      <trkpt lat="47.80056" lon="-3.51804">
        <ele>40</ele>
        <time>2019-07-17T15:36:48Z</time>
      </trkpt>
      <trkpt lat="47.80052" lon="-3.51806">
        <ele>40</ele>
        <time>2019-07-17T15:36:49Z</time>
      </trkpt>
      <trkpt lat="47.80049" lon="-3.51808">
        <ele>40</ele>
        <time>2019-07-17T15:36:50Z</time>
      </trkpt>
      <trkpt lat="47.80046" lon="-3.51809">
        <ele>40</ele>
        <time>2019-07-17T15:36:51Z</time>
      </trkpt>
      <trkpt lat="47.80043" lon="-3.51809">
        <ele>40</ele>
        <time>2019-07-17T15:36:52Z</time>
      </trkpt>
      <trkpt lat="47.80039" lon="-3.51809">
        <ele>40</ele>
        <time>2019-07-17T15:36:53Z</time>
      </trkpt>
      <trkpt lat="47.80036" lon="-3.51808">
        <ele>40</ele>
        <time>2019-07-17T15:36:54Z</time>
      </trkpt>
      <trkpt lat="47.80032" lon="-3.51807">
        <ele>40</ele>
        <time>2019-07-17T15:36:55Z</time>
      </trkpt>
      <trkpt lat="47.80029" lon="-3.51806">
        <ele>40</ele>
        <time>2019-07-17T15:36:56Z</time>
      </trkpt>
      <trkpt lat="47.80026" lon="-3.51804">
        <ele>40</ele>
        <time>2019-07-17T15:36:57Z</time>
      </trkpt>
      <trkpt lat="47.80023" lon="-3.51802">
        <ele>40</ele>
        <time>2019-07-17T15:36:58Z</time>
      </trkpt>
      <trkpt lat="47.80021" lon="-3.518">
        <ele>40</ele>
        <time>2019-07-17T15:36:59Z</time>
      </trkpt>
      <trkpt lat="47.80019" lon="-3.51798">
        <ele>40</ele>
        <time>2019-07-17T15:37:00Z</time>
      </trkpt>
      <trkpt lat="47.80017" lon="-3.51796">
        <ele>40</ele>
        <time>2019-07-17T15:37:01Z</time>
      </trkpt>
      <trkpt lat="47.80015" lon="-3.51794">
        <ele>40</ele>
        <time>2019-07-17T15:37:02Z</time>
      </trkpt>
      <trkpt lat="47.80013" lon="-3.51792">
        <ele>40</ele>
        <time>2019-07-17T15:37:03Z</time>
      </trkpt>
      <trkpt lat="47.80011" lon="-3.51791">
        <ele>40</ele>
        <time>2019-07-17T15:37:04Z</time>
      </trkpt>
      <trkpt lat="47.80008" lon="-3.5179">
        <ele>40</ele>
        <time>2019-07-17T15:37:05Z</time>
      </trkpt>
      <trkpt lat="47.80006" lon="-3.51789">
        <ele>40</ele>
        <time>2019-07-17T15:37:06Z</time>
      </trkpt>
      <trkpt lat="47.80003" lon="-3.51788">
        <ele>40</ele>
        <time>2019-07-17T15:37:07Z</time>
      </trkpt>
      <trkpt lat="47.8" lon="-3.51787">
        <ele>40</ele>
        <time>2019-07-17T15:37:08Z</time>
      </trkpt>
      <trkpt lat="47.79998" lon="-3.51786">
        <ele>40</ele>
        <time>2019-07-17T15:37:09Z</time>
      </trkpt>
      <trkpt lat="47.79995" lon="-3.51786">
        <ele>40</ele>
        <time>2019-07-17T15:37:10Z</time>
      </trkpt>
      <trkpt lat="47.79992" lon="-3.51786">
        <ele>40</ele>
        <time>2019-07-17T15:37:11Z</time>
      </trkpt>
      <trkpt lat="47.79989" lon="-3.51785">
        <ele>40</ele>
        <time>2019-07-17T15:37:12Z</time>
      </trkpt>
      <trkpt lat="47.79986" lon="-3.51784">
        <ele>40</ele>
        <time>2019-07-17T15:37:13Z</time>
      </trkpt>
      <trkpt lat="47.79983" lon="-3.51783">
        <ele>40</ele>
        <time>2019-07-17T15:37:14Z</time>
      </trkpt>
      <trkpt lat="47.79979" lon="-3.51783">
        <ele>40</ele>
        <time>2019-07-17T15:37:15Z</time>
      </trkpt>
      <trkpt lat="47.79977" lon="-3.51783">
        <ele>40</ele>
        <time>2019-07-17T15:37:16Z</time>
      </trkpt>
      <trkpt lat="47.79974" lon="-3.51783">
        <ele>40</ele>
        <time>2019-07-17T15:37:17Z</time>
      </trkpt>
      <trkpt lat="47.79971" lon="-3.51783">
        <ele>40</ele>
        <time>2019-07-17T15:37:18Z</time>
      </trkpt>
      <trkpt lat="47.79968" lon="-3.51783">
        <ele>41</ele>
        <time>2019-07-17T15:37:19Z</time>
      </trkpt>
      <trkpt lat="47.79965" lon="-3.51783">
        <ele>41</ele>
        <time>2019-07-17T15:37:20Z</time>
      </trkpt>
      <trkpt lat="47.79961" lon="-3.51783">
        <ele>41</ele>
        <time>2019-07-17T15:37:21Z</time>
      </trkpt>
      <trkpt lat="47.79958" lon="-3.51783">
        <ele>41</ele>
        <time>2019-07-17T15:37:22Z</time>
      </trkpt>
      <trkpt lat="47.79954" lon="-3.51783">
        <ele>41</ele>
        <time>2019-07-17T15:37:23Z</time>
      </trkpt>
      <trkpt lat="47.79951" lon="-3.51784">
        <ele>42</ele>
        <time>2019-07-17T15:37:24Z</time>
      </trkpt>
      <trkpt lat="47.79948" lon="-3.51784">
        <ele>42</ele>
        <time>2019-07-17T15:37:25Z</time>
      </trkpt>
      <trkpt lat="47.79946" lon="-3.51784">
        <ele>42</ele>
        <time>2019-07-17T15:37:26Z</time>
      </trkpt>
      <trkpt lat="47.79942" lon="-3.51785">
        <ele>42</ele>
        <time>2019-07-17T15:37:27Z</time>
      </trkpt>
      <trkpt lat="47.79939" lon="-3.51785">
        <ele>42</ele>
        <time>2019-07-17T15:37:28Z</time>
      </trkpt>
      <trkpt lat="47.79935" lon="-3.51785">
        <ele>42</ele>
        <time>2019-07-17T15:37:29Z</time>
      </trkpt>
      <trkpt lat="47.79932" lon="-3.51785">
        <ele>42</ele>
        <time>2019-07-17T15:37:30Z</time>
      </trkpt>
      <trkpt lat="47.79929" lon="-3.51786">
        <ele>42</ele>
        <time>2019-07-17T15:37:31Z</time>
      </trkpt>
      <trkpt lat="47.79926" lon="-3.51787">
        <ele>42</ele>
        <time>2019-07-17T15:37:32Z</time>
      </trkpt>
      <trkpt lat="47.79922" lon="-3.51788">
        <ele>42</ele>
        <time>2019-07-17T15:37:33Z</time>
      </trkpt>
      <trkpt lat="47.79918" lon="-3.51789">
        <ele>42</ele>
        <time>2019-07-17T15:37:34Z</time>
      </trkpt>
      <trkpt lat="47.79915" lon="-3.5179">
        <ele>43</ele>
        <time>2019-07-17T15:37:35Z</time>
      </trkpt>
      <trkpt lat="47.79911" lon="-3.51793">
        <ele>43</ele>
        <time>2019-07-17T15:37:36Z</time>
      </trkpt>
      <trkpt lat="47.79906" lon="-3.51796">
        <ele>43</ele>
        <time>2019-07-17T15:37:37Z</time>
      </trkpt>
      <trkpt lat="47.79902" lon="-3.51798">
        <ele>43</ele>
        <time>2019-07-17T15:37:38Z</time>
      </trkpt>
      <trkpt lat="47.79897" lon="-3.51801">
        <ele>43</ele>
        <time>2019-07-17T15:37:39Z</time>
      </trkpt>
      <trkpt lat="47.79892" lon="-3.51804">
        <ele>44</ele>
        <time>2019-07-17T15:37:40Z</time>
      </trkpt>
      <trkpt lat="47.79887" lon="-3.51806">
        <ele>44</ele>
        <time>2019-07-17T15:37:41Z</time>
      </trkpt>
      <trkpt lat="47.79883" lon="-3.51809">
        <ele>44</ele>
        <time>2019-07-17T15:37:42Z</time>
      </trkpt>
      <trkpt lat="47.79878" lon="-3.51812">
        <ele>44</ele>
        <time>2019-07-17T15:37:43Z</time>
      </trkpt>
      <trkpt lat="47.79873" lon="-3.51816">
        <ele>44</ele>
        <time>2019-07-17T15:37:44Z</time>
      </trkpt>
      <trkpt lat="47.79869" lon="-3.5182">
        <ele>44</ele>
        <time>2019-07-17T15:37:45Z</time>
      </trkpt>
      <trkpt lat="47.79865" lon="-3.51823">
        <ele>44</ele>
        <time>2019-07-17T15:37:46Z</time>
      </trkpt>
      <trkpt lat="47.79861" lon="-3.51825">
        <ele>44</ele>
        <time>2019-07-17T15:37:47Z</time>
      </trkpt>
      <trkpt lat="47.79858" lon="-3.51828">
        <ele>44</ele>
        <time>2019-07-17T15:37:48Z</time>
      </trkpt>
      <trkpt lat="47.79854" lon="-3.51831">
        <ele>45</ele>
        <time>2019-07-17T15:37:49Z</time>
      </trkpt>
      <trkpt lat="47.79849" lon="-3.51835">
        <ele>45</ele>
        <time>2019-07-17T15:37:50Z</time>
      </trkpt>
      <trkpt lat="47.79845" lon="-3.51838">
        <ele>45</ele>
        <time>2019-07-17T15:37:51Z</time>
      </trkpt>
      <trkpt lat="47.79841" lon="-3.51842">
        <ele>45</ele>
        <time>2019-07-17T15:37:52Z</time>
      </trkpt>
      <trkpt lat="47.79836" lon="-3.51846">
        <ele>45</ele>
        <time>2019-07-17T15:37:53Z</time>
      </trkpt>
      <trkpt lat="47.79831" lon="-3.5185">
        <ele>45</ele>
        <time>2019-07-17T15:37:54Z</time>
      </trkpt>
      <trkpt lat="47.79826" lon="-3.51853">
        <ele>45</ele>
        <time>2019-07-17T15:37:55Z</time>
      </trkpt>
      <trkpt lat="47.79821" lon="-3.51857">
        <ele>45</ele>
        <time>2019-07-17T15:37:56Z</time>
      </trkpt>
      <trkpt lat="47.79815" lon="-3.51859">
        <ele>45</ele>
        <time>2019-07-17T15:37:57Z</time>
      </trkpt>
      <trkpt lat="47.7981" lon="-3.51863">
        <ele>45</ele>
        <time>2019-07-17T15:37:58Z</time>
      </trkpt>
      <trkpt lat="47.79804" lon="-3.51867">
        <ele>45</ele>
        <time>2019-07-17T15:37:59Z</time>
      </trkpt>
      <trkpt lat="47.79799" lon="-3.51871">
        <ele>45</ele>
        <time>2019-07-17T15:38:00Z</time>
      </trkpt>
      <trkpt lat="47.79793" lon="-3.51875">
        <ele>45</ele>
        <time>2019-07-17T15:38:01Z</time>
      </trkpt>
      <trkpt lat="47.79786" lon="-3.51878">
        <ele>45</ele>
        <time>2019-07-17T15:38:02Z</time>
      </trkpt>
      <trkpt lat="47.79779" lon="-3.51881">
        <ele>45</ele>
        <time>2019-07-17T15:38:03Z</time>
      </trkpt>
      <trkpt lat="47.79773" lon="-3.51882">
        <ele>45</ele>
        <time>2019-07-17T15:38:04Z</time>
      </trkpt>
      <trkpt lat="47.79767" lon="-3.51884">
        <ele>45</ele>
        <time>2019-07-17T15:38:05Z</time>
      </trkpt>
      <trkpt lat="47.79762" lon="-3.51884">
        <ele>45</ele>
        <time>2019-07-17T15:38:06Z</time>
      </trkpt>
      <trkpt lat="47.79759" lon="-3.51885">
        <ele>45</ele>
        <time>2019-07-17T15:38:07Z</time>
      </trkpt>
      <trkpt lat="47.79755" lon="-3.51887">
        <ele>45</ele>
        <time>2019-07-17T15:38:08Z</time>
      </trkpt>
      <trkpt lat="47.79752" lon="-3.51889">
        <ele>45</ele>
        <time>2019-07-17T15:38:09Z</time>
      </trkpt>
      <trkpt lat="47.79747" lon="-3.51892">
        <ele>45</ele>
        <time>2019-07-17T15:38:10Z</time>
      </trkpt>
      <trkpt lat="47.79743" lon="-3.51895">
        <ele>45</ele>
        <time>2019-07-17T15:38:11Z</time>
      </trkpt>
      <trkpt lat="47.79738" lon="-3.51898">
        <ele>45</ele>
        <time>2019-07-17T15:38:12Z</time>
      </trkpt>
      <trkpt lat="47.79735" lon="-3.51903">
        <ele>45</ele>
        <time>2019-07-17T15:38:13Z</time>
      </trkpt>
      <trkpt lat="47.7973" lon="-3.51907">
        <ele>45</ele>
        <time>2019-07-17T15:38:14Z</time>
      </trkpt>
      <trkpt lat="47.79726" lon="-3.5191">
        <ele>45</ele>
        <time>2019-07-17T15:38:15Z</time>
      </trkpt>
      <trkpt lat="47.79722" lon="-3.51913">
        <ele>44</ele>
        <time>2019-07-17T15:38:16Z</time>
      </trkpt>
      <trkpt lat="47.79718" lon="-3.51916">
        <ele>44</ele>
        <time>2019-07-17T15:38:17Z</time>
      </trkpt>
      <trkpt lat="47.79714" lon="-3.51918">
        <ele>44</ele>
        <time>2019-07-17T15:38:18Z</time>
      </trkpt>
      <trkpt lat="47.7971" lon="-3.51921">
        <ele>44</ele>
        <time>2019-07-17T15:38:19Z</time>
      </trkpt>
      <trkpt lat="47.79706" lon="-3.51924">
        <ele>44</ele>
        <time>2019-07-17T15:38:20Z</time>
      </trkpt>
      <trkpt lat="47.79703" lon="-3.51927">
        <ele>44</ele>
        <time>2019-07-17T15:38:21Z</time>
      </trkpt>
      <trkpt lat="47.79699" lon="-3.5193">
        <ele>44</ele>
        <time>2019-07-17T15:38:22Z</time>
      </trkpt>
      <trkpt lat="47.79696" lon="-3.51933">
        <ele>44</ele>
        <time>2019-07-17T15:38:23Z</time>
      </trkpt>
      <trkpt lat="47.79693" lon="-3.51936">
        <ele>44</ele>
        <time>2019-07-17T15:38:24Z</time>
      </trkpt>
      <trkpt lat="47.7969" lon="-3.5194">
        <ele>44</ele>
        <time>2019-07-17T15:38:25Z</time>
      </trkpt>
      <trkpt lat="47.79686" lon="-3.51944">
        <ele>45</ele>
        <time>2019-07-17T15:38:26Z</time>
      </trkpt>
      <trkpt lat="47.79683" lon="-3.51949">
        <ele>45</ele>
        <time>2019-07-17T15:38:27Z</time>
      </trkpt>
      <trkpt lat="47.7968" lon="-3.51954">
        <ele>45</ele>
        <time>2019-07-17T15:38:28Z</time>
      </trkpt>
      <trkpt lat="47.79676" lon="-3.51957">
        <ele>45</ele>
        <time>2019-07-17T15:38:29Z</time>
      </trkpt>
      <trkpt lat="47.79672" lon="-3.5196">
        <ele>45</ele>
        <time>2019-07-17T15:38:30Z</time>
      </trkpt>
      <trkpt lat="47.79668" lon="-3.51962">
        <ele>45</ele>
        <time>2019-07-17T15:38:31Z</time>
      </trkpt>
      <trkpt lat="47.79664" lon="-3.51966">
        <ele>46</ele>
        <time>2019-07-17T15:38:32Z</time>
      </trkpt>
      <trkpt lat="47.7966" lon="-3.51969">
        <ele>46</ele>
        <time>2019-07-17T15:38:33Z</time>
      </trkpt>
      <trkpt lat="47.79656" lon="-3.51972">
        <ele>46</ele>
        <time>2019-07-17T15:38:34Z</time>
      </trkpt>
      <trkpt lat="47.79652" lon="-3.51976">
        <ele>46</ele>
        <time>2019-07-17T15:38:35Z</time>
      </trkpt>
      <trkpt lat="47.79647" lon="-3.51979">
        <ele>46</ele>
        <time>2019-07-17T15:38:36Z</time>
      </trkpt>
      <trkpt lat="47.79643" lon="-3.51983">
        <ele>46</ele>
        <time>2019-07-17T15:38:37Z</time>
      </trkpt>
      <trkpt lat="47.79639" lon="-3.51987">
        <ele>46</ele>
        <time>2019-07-17T15:38:38Z</time>
      </trkpt>
      <trkpt lat="47.79636" lon="-3.51992">
        <ele>46</ele>
        <time>2019-07-17T15:38:39Z</time>
      </trkpt>
      <trkpt lat="47.79632" lon="-3.51997">
        <ele>46</ele>
        <time>2019-07-17T15:38:40Z</time>
      </trkpt>
      <trkpt lat="47.79628" lon="-3.52002">
        <ele>46</ele>
        <time>2019-07-17T15:38:41Z</time>
      </trkpt>
      <trkpt lat="47.79624" lon="-3.52009">
        <ele>46</ele>
        <time>2019-07-17T15:38:42Z</time>
      </trkpt>
      <trkpt lat="47.7962" lon="-3.52016">
        <ele>46</ele>
        <time>2019-07-17T15:38:43Z</time>
      </trkpt>
      <trkpt lat="47.79617" lon="-3.52025">
        <ele>46</ele>
        <time>2019-07-17T15:38:44Z</time>
      </trkpt>
      <trkpt lat="47.79614" lon="-3.52033">
        <ele>46</ele>
        <time>2019-07-17T15:38:45Z</time>
      </trkpt>
      <trkpt lat="47.79613" lon="-3.52042">
        <ele>46</ele>
        <time>2019-07-17T15:38:46Z</time>
      </trkpt>
      <trkpt lat="47.79611" lon="-3.52052">
        <ele>45</ele>
        <time>2019-07-17T15:38:47Z</time>
      </trkpt>
      <trkpt lat="47.79608" lon="-3.52062">
        <ele>45</ele>
        <time>2019-07-17T15:38:48Z</time>
      </trkpt>
      <trkpt lat="47.79604" lon="-3.52071">
        <ele>45</ele>
        <time>2019-07-17T15:38:49Z</time>
      </trkpt>
      <trkpt lat="47.79601" lon="-3.5208">
        <ele>45</ele>
        <time>2019-07-17T15:38:50Z</time>
      </trkpt>
      <trkpt lat="47.79597" lon="-3.52088">
        <ele>45</ele>
        <time>2019-07-17T15:38:51Z</time>
      </trkpt>
      <trkpt lat="47.79594" lon="-3.52097">
        <ele>44</ele>
        <time>2019-07-17T15:38:52Z</time>
      </trkpt>
      <trkpt lat="47.7959" lon="-3.52107">
        <ele>44</ele>
        <time>2019-07-17T15:38:53Z</time>
      </trkpt>
      <trkpt lat="47.79587" lon="-3.52117">
        <ele>44</ele>
        <time>2019-07-17T15:38:54Z</time>
      </trkpt>
      <trkpt lat="47.79585" lon="-3.5213">
        <ele>44</ele>
        <time>2019-07-17T15:38:55Z</time>
      </trkpt>
      <trkpt lat="47.79585" lon="-3.52143">
        <ele>43</ele>
        <time>2019-07-17T15:38:56Z</time>
      </trkpt>
      <trkpt lat="47.79585" lon="-3.52157">
        <ele>43</ele>
        <time>2019-07-17T15:38:57Z</time>
      </trkpt>
      <trkpt lat="47.79586" lon="-3.5217">
        <ele>43</ele>
        <time>2019-07-17T15:38:58Z</time>
      </trkpt>
      <trkpt lat="47.79587" lon="-3.52184">
        <ele>42</ele>
        <time>2019-07-17T15:38:59Z</time>
      </trkpt>
      <trkpt lat="47.7959" lon="-3.52196">
        <ele>42</ele>
        <time>2019-07-17T15:39:00Z</time>
      </trkpt>
      <trkpt lat="47.79593" lon="-3.52208">
        <ele>41</ele>
        <time>2019-07-17T15:39:01Z</time>
      </trkpt>
      <trkpt lat="47.79595" lon="-3.52219">
        <ele>40</ele>
        <time>2019-07-17T15:39:02Z</time>
      </trkpt>
      <trkpt lat="47.79596" lon="-3.52227">
        <ele>40</ele>
        <time>2019-07-17T15:39:03Z</time>
      </trkpt>
      <trkpt lat="47.79598" lon="-3.52234">
        <ele>39</ele>
        <time>2019-07-17T15:39:04Z</time>
      </trkpt>
      <trkpt lat="47.796" lon="-3.5224">
        <ele>39</ele>
        <time>2019-07-17T15:39:05Z</time>
      </trkpt>
      <trkpt lat="47.79601" lon="-3.52247">
        <ele>38</ele>
        <time>2019-07-17T15:39:06Z</time>
      </trkpt>
      <trkpt lat="47.79602" lon="-3.52255">
        <ele>37</ele>
        <time>2019-07-17T15:39:07Z</time>
      </trkpt>
      <trkpt lat="47.79602" lon="-3.52263">
        <ele>37</ele>
        <time>2019-07-17T15:39:08Z</time>
      </trkpt>
      <trkpt lat="47.79601" lon="-3.52271">
        <ele>36</ele>
        <time>2019-07-17T15:39:09Z</time>
      </trkpt>
      <trkpt lat="47.796" lon="-3.52281">
        <ele>35</ele>
        <time>2019-07-17T15:39:10Z</time>
      </trkpt>
      <trkpt lat="47.79599" lon="-3.5229">
        <ele>35</ele>
        <time>2019-07-17T15:39:11Z</time>
      </trkpt>
      <trkpt lat="47.79598" lon="-3.52298">
        <ele>34</ele>
        <time>2019-07-17T15:39:12Z</time>
      </trkpt>
      <trkpt lat="47.79597" lon="-3.52306">
        <ele>34</ele>
        <time>2019-07-17T15:39:13Z</time>
      </trkpt>
      <trkpt lat="47.79597" lon="-3.52314">
        <ele>33</ele>
        <time>2019-07-17T15:39:14Z</time>
      </trkpt>
      <trkpt lat="47.79597" lon="-3.52322">
        <ele>33</ele>
        <time>2019-07-17T15:39:15Z</time>
      </trkpt>
      <trkpt lat="47.79595" lon="-3.52329">
        <ele>33</ele>
        <time>2019-07-17T15:39:16Z</time>
      </trkpt>
      <trkpt lat="47.79595" lon="-3.52333">
        <ele>32</ele>
        <time>2019-07-17T15:39:17Z</time>
      </trkpt>
      <trkpt lat="47.79597" lon="-3.52336">
        <ele>32</ele>
        <time>2019-07-17T15:39:18Z</time>
      </trkpt>
      <trkpt lat="47.79598" lon="-3.5234">
        <ele>32</ele>
        <time>2019-07-17T15:39:19Z</time>
      </trkpt>
      <trkpt lat="47.79601" lon="-3.52344">
        <ele>31</ele>
        <time>2019-07-17T15:39:20Z</time>
      </trkpt>
      <trkpt lat="47.79603" lon="-3.52349">
        <ele>31</ele>
        <time>2019-07-17T15:39:21Z</time>
      </trkpt>
      <trkpt lat="47.79605" lon="-3.52353">
        <ele>30</ele>
        <time>2019-07-17T15:39:22Z</time>
      </trkpt>
      <trkpt lat="47.79606" lon="-3.52356">
        <ele>29</ele>
        <time>2019-07-17T15:39:23Z</time>
      </trkpt>
      <trkpt lat="47.79606" lon="-3.52358">
        <ele>29</ele>
        <time>2019-07-17T15:39:24Z</time>
      </trkpt>
      <trkpt lat="47.79606" lon="-3.52359">
        <ele>28</ele>
        <time>2019-07-17T15:39:25Z</time>
      </trkpt>
      <trkpt lat="47.79606" lon="-3.52361">
        <ele>28</ele>
        <time>2019-07-17T15:39:26Z</time>
      </trkpt>
      <trkpt lat="47.79607" lon="-3.52362">
        <ele>28</ele>
        <time>2019-07-17T15:39:27Z</time>
      </trkpt>
      <trkpt lat="47.79607" lon="-3.52363">
        <ele>27</ele>
        <time>2019-07-17T15:39:28Z</time>
      </trkpt>
      <trkpt lat="47.79607" lon="-3.52364">
        <ele>27</ele>
        <time>2019-07-17T15:39:29Z</time>
      </trkpt>
      <trkpt lat="47.79608" lon="-3.52366">
        <ele>27</ele>
        <time>2019-07-17T15:39:30Z</time>
      </trkpt>
      <trkpt lat="47.79608" lon="-3.52367">
        <ele>27</ele>
        <time>2019-07-17T15:39:31Z</time>
      </trkpt>
      <trkpt lat="47.79608" lon="-3.52368">
        <ele>26</ele>
        <time>2019-07-17T15:39:32Z</time>
      </trkpt>
      <trkpt lat="47.79608" lon="-3.52369">
        <ele>26</ele>
        <time>2019-07-17T15:39:33Z</time>
      </trkpt>
      <trkpt lat="47.79606" lon="-3.52373">
        <ele>25</ele>
        <time>2019-07-17T15:39:34Z</time>
      </trkpt>
      <trkpt lat="47.79604" lon="-3.52374">
        <ele>24</ele>
        <time>2019-07-17T15:39:35Z</time>
      </trkpt>
      <trkpt lat="47.79602" lon="-3.52375">
        <ele>24</ele>
        <time>2019-07-17T15:39:36Z</time>
      </trkpt>
      <trkpt lat="47.796" lon="-3.52376">
        <ele>24</ele>
        <time>2019-07-17T15:39:37Z</time>
      </trkpt>
      <trkpt lat="47.79598" lon="-3.52377">
        <ele>23</ele>
        <time>2019-07-17T15:39:38Z</time>
      </trkpt>
      <trkpt lat="47.79595" lon="-3.52378">
        <ele>23</ele>
        <time>2019-07-17T15:39:39Z</time>
      </trkpt>
      <trkpt lat="47.79594" lon="-3.5238">
        <ele>22</ele>
        <time>2019-07-17T15:39:40Z</time>
      </trkpt>
      <trkpt lat="47.79594" lon="-3.5238">
        <ele>22</ele>
        <time>2019-07-17T15:39:41Z</time>
      </trkpt>
      <trkpt lat="47.79593" lon="-3.5238">
        <ele>22</ele>
        <time>2019-07-17T15:39:42Z</time>
      </trkpt>
      <trkpt lat="47.79596" lon="-3.52382">
        <ele>21</ele>
        <time>2019-07-17T15:39:43Z</time>
      </trkpt>
      <trkpt lat="47.79598" lon="-3.52381">
        <ele>21</ele>
        <time>2019-07-17T15:39:44Z</time>
      </trkpt>
      <trkpt lat="47.79601" lon="-3.5238">
        <ele>21</ele>
        <time>2019-07-17T15:39:45Z</time>
      </trkpt>
      <trkpt lat="47.79604" lon="-3.5238">
        <ele>21</ele>
        <time>2019-07-17T15:39:46Z</time>
      </trkpt>
      <trkpt lat="47.79608" lon="-3.52379">
        <ele>21</ele>
        <time>2019-07-17T15:39:47Z</time>
      </trkpt>
      <trkpt lat="47.79611" lon="-3.52377">
        <ele>21</ele>
        <time>2019-07-17T15:39:48Z</time>
      </trkpt>
      <trkpt lat="47.79615" lon="-3.52376">
        <ele>21</ele>
        <time>2019-07-17T15:39:49Z</time>
      </trkpt>
      <trkpt lat="47.79618" lon="-3.52375">
        <ele>21</ele>
        <time>2019-07-17T15:39:50Z</time>
      </trkpt>
      <trkpt lat="47.79622" lon="-3.52374">
        <ele>21</ele>
        <time>2019-07-17T15:39:51Z</time>
      </trkpt>
      <trkpt lat="47.79625" lon="-3.52373">
        <ele>21</ele>
        <time>2019-07-17T15:39:52Z</time>
      </trkpt>
      <trkpt lat="47.79628" lon="-3.52372">
        <ele>21</ele>
        <time>2019-07-17T15:39:53Z</time>
      </trkpt>
      <trkpt lat="47.79631" lon="-3.52371">
        <ele>21</ele>
        <time>2019-07-17T15:39:54Z</time>
      </trkpt>
      <trkpt lat="47.79634" lon="-3.5237">
        <ele>21</ele>
        <time>2019-07-17T15:39:55Z</time>
      </trkpt>
      <trkpt lat="47.79638" lon="-3.52369">
        <ele>20</ele>
        <time>2019-07-17T15:39:56Z</time>
      </trkpt>
      <trkpt lat="47.79641" lon="-3.52368">
        <ele>20</ele>
        <time>2019-07-17T15:39:57Z</time>
      </trkpt>
      <trkpt lat="47.79645" lon="-3.52366">
        <ele>20</ele>
        <time>2019-07-17T15:39:58Z</time>
      </trkpt>
      <trkpt lat="47.79649" lon="-3.52365">
        <ele>19</ele>
        <time>2019-07-17T15:39:59Z</time>
      </trkpt>
      <trkpt lat="47.79653" lon="-3.52363">
        <ele>19</ele>
        <time>2019-07-17T15:40:00Z</time>
      </trkpt>
      <trkpt lat="47.79657" lon="-3.52362">
        <ele>19</ele>
        <time>2019-07-17T15:40:01Z</time>
      </trkpt>
      <trkpt lat="47.79661" lon="-3.5236">
        <ele>19</ele>
        <time>2019-07-17T15:40:02Z</time>
      </trkpt>
      <trkpt lat="47.79665" lon="-3.52358">
        <ele>18</ele>
        <time>2019-07-17T15:40:03Z</time>
      </trkpt>
      <trkpt lat="47.7967" lon="-3.52356">
        <ele>18</ele>
        <time>2019-07-17T15:40:04Z</time>
      </trkpt>
      <trkpt lat="47.79674" lon="-3.52355">
        <ele>18</ele>
        <time>2019-07-17T15:40:05Z</time>
      </trkpt>
      <trkpt lat="47.79679" lon="-3.52353">
        <ele>18</ele>
        <time>2019-07-17T15:40:06Z</time>
      </trkpt>
      <trkpt lat="47.79683" lon="-3.52351">
        <ele>17</ele>
        <time>2019-07-17T15:40:07Z</time>
      </trkpt>
      <trkpt lat="47.79688" lon="-3.5235">
        <ele>17</ele>
        <time>2019-07-17T15:40:08Z</time>
      </trkpt>
      <trkpt lat="47.79692" lon="-3.52348">
        <ele>17</ele>
        <time>2019-07-17T15:40:09Z</time>
      </trkpt>
      <trkpt lat="47.79697" lon="-3.52346">
        <ele>17</ele>
        <time>2019-07-17T15:40:10Z</time>
      </trkpt>
      <trkpt lat="47.79702" lon="-3.52344">
        <ele>16</ele>
        <time>2019-07-17T15:40:11Z</time>
      </trkpt>
      <trkpt lat="47.79706" lon="-3.52342">
        <ele>16</ele>
        <time>2019-07-17T15:40:12Z</time>
      </trkpt>
      <trkpt lat="47.79711" lon="-3.5234">
        <ele>16</ele>
        <time>2019-07-17T15:40:13Z</time>
      </trkpt>
      <trkpt lat="47.79716" lon="-3.52339">
        <ele>16</ele>
        <time>2019-07-17T15:40:14Z</time>
      </trkpt>
      <trkpt lat="47.79721" lon="-3.52337">
        <ele>16</ele>
        <time>2019-07-17T15:40:15Z</time>
      </trkpt>
      <trkpt lat="47.79726" lon="-3.52335">
        <ele>15</ele>
        <time>2019-07-17T15:40:16Z</time>
      </trkpt>
      <trkpt lat="47.79731" lon="-3.52333">
        <ele>15</ele>
        <time>2019-07-17T15:40:17Z</time>
      </trkpt>
      <trkpt lat="47.79736" lon="-3.52331">
        <ele>15</ele>
        <time>2019-07-17T15:40:18Z</time>
      </trkpt>
      <trkpt lat="47.79741" lon="-3.52329">
        <ele>15</ele>
        <time>2019-07-17T15:40:19Z</time>
      </trkpt>
      <trkpt lat="47.79745" lon="-3.52327">
        <ele>15</ele>
        <time>2019-07-17T15:40:20Z</time>
      </trkpt>
      <trkpt lat="47.7975" lon="-3.52325">
        <ele>14</ele>
        <time>2019-07-17T15:40:21Z</time>
      </trkpt>
      <trkpt lat="47.79755" lon="-3.52324">
        <ele>14</ele>
        <time>2019-07-17T15:40:22Z</time>
      </trkpt>
      <trkpt lat="47.79761" lon="-3.52322">
        <ele>14</ele>
        <time>2019-07-17T15:40:23Z</time>
      </trkpt>
      <trkpt lat="47.79766" lon="-3.5232">
        <ele>14</ele>
        <time>2019-07-17T15:40:24Z</time>
      </trkpt>
      <trkpt lat="47.79771" lon="-3.52318">
        <ele>14</ele>
        <time>2019-07-17T15:40:25Z</time>
      </trkpt>
      <trkpt lat="47.79776" lon="-3.52316">
        <ele>14</ele>
        <time>2019-07-17T15:40:26Z</time>
      </trkpt>
      <trkpt lat="47.79781" lon="-3.52314">
        <ele>13</ele>
        <time>2019-07-17T15:40:27Z</time>
      </trkpt>
      <trkpt lat="47.79786" lon="-3.52312">
        <ele>13</ele>
        <time>2019-07-17T15:40:28Z</time>
      </trkpt>
      <trkpt lat="47.79791" lon="-3.5231">
        <ele>13</ele>
        <time>2019-07-17T15:40:29Z</time>
      </trkpt>
      <trkpt lat="47.79795" lon="-3.52308">
        <ele>13</ele>
        <time>2019-07-17T15:40:30Z</time>
      </trkpt>
      <trkpt lat="47.798" lon="-3.52306">
        <ele>13</ele>
        <time>2019-07-17T15:40:31Z</time>
      </trkpt>
      <trkpt lat="47.79805" lon="-3.52305">
        <ele>13</ele>
        <time>2019-07-17T15:40:32Z</time>
      </trkpt>
      <trkpt lat="47.79809" lon="-3.52303">
        <ele>13</ele>
        <time>2019-07-17T15:40:33Z</time>
      </trkpt>
      <trkpt lat="47.79814" lon="-3.52302">
        <ele>12</ele>
        <time>2019-07-17T15:40:34Z</time>
      </trkpt>
      <trkpt lat="47.79818" lon="-3.523">
        <ele>12</ele>
        <time>2019-07-17T15:40:35Z</time>
      </trkpt>
      <trkpt lat="47.79823" lon="-3.52299">
        <ele>12</ele>
        <time>2019-07-17T15:40:36Z</time>
      </trkpt>
      <trkpt lat="47.79827" lon="-3.52298">
        <ele>12</ele>
        <time>2019-07-17T15:40:37Z</time>
      </trkpt>
      <trkpt lat="47.79831" lon="-3.52297">
        <ele>12</ele>
        <time>2019-07-17T15:40:38Z</time>
      </trkpt>
      <trkpt lat="47.79836" lon="-3.52296">
        <ele>12</ele>
        <time>2019-07-17T15:40:39Z</time>
      </trkpt>
      <trkpt lat="47.7984" lon="-3.52298">
        <ele>12</ele>
        <time>2019-07-17T15:40:40Z</time>
      </trkpt>
      <trkpt lat="47.79843" lon="-3.52302">
        <ele>12</ele>
        <time>2019-07-17T15:40:41Z</time>
      </trkpt>
      <trkpt lat="47.79843" lon="-3.52307">
        <ele>11</ele>
        <time>2019-07-17T15:40:42Z</time>
      </trkpt>
      <trkpt lat="47.79842" lon="-3.52313">
        <ele>11</ele>
        <time>2019-07-17T15:40:43Z</time>
      </trkpt>
      <trkpt lat="47.79838" lon="-3.52318">
        <ele>11</ele>
        <time>2019-07-17T15:40:44Z</time>
      </trkpt>
      <trkpt lat="47.79834" lon="-3.52322">
        <ele>11</ele>
        <time>2019-07-17T15:40:45Z</time>
      </trkpt>
      <trkpt lat="47.7983" lon="-3.52327">
        <ele>11</ele>
        <time>2019-07-17T15:40:46Z</time>
      </trkpt>
      <trkpt lat="47.79826" lon="-3.52331">
        <ele>11</ele>
        <time>2019-07-17T15:40:47Z</time>
      </trkpt>
      <trkpt lat="47.79824" lon="-3.52336">
        <ele>11</ele>
        <time>2019-07-17T15:40:48Z</time>
      </trkpt>
      <trkpt lat="47.79823" lon="-3.5234">
        <ele>11</ele>
        <time>2019-07-17T15:40:49Z</time>
      </trkpt>
      <trkpt lat="47.79822" lon="-3.52341">
        <ele>11</ele>
        <time>2019-07-17T15:40:50Z</time>
      </trkpt>
      <trkpt lat="47.79821" lon="-3.52341">
        <ele>11</ele>
        <time>2019-07-17T15:40:51Z</time>
      </trkpt>
      <trkpt lat="47.79821" lon="-3.52341">
        <ele>11</ele>
        <time>2019-07-17T15:40:52Z</time>
      </trkpt>
      <trkpt lat="47.79817" lon="-3.52338">
        <ele>11</ele>
        <time>2019-07-17T15:40:53Z</time>
      </trkpt>
      <trkpt lat="47.79818" lon="-3.52334">
        <ele>11</ele>
        <time>2019-07-17T15:40:54Z</time>
      </trkpt>
      <trkpt lat="47.7982" lon="-3.52331">
        <ele>12</ele>
        <time>2019-07-17T15:40:55Z</time>
      </trkpt>
      <trkpt lat="47.79821" lon="-3.52329">
        <ele>12</ele>
        <time>2019-07-17T15:40:56Z</time>
      </trkpt>
      <trkpt lat="47.79824" lon="-3.52327">
        <ele>12</ele>
        <time>2019-07-17T15:40:57Z</time>
      </trkpt>
      <trkpt lat="47.79826" lon="-3.52325">
        <ele>12</ele>
        <time>2019-07-17T15:40:58Z</time>
      </trkpt>
      <trkpt lat="47.79828" lon="-3.52324">
        <ele>12</ele>
        <time>2019-07-17T15:40:59Z</time>
      </trkpt>
      <trkpt lat="47.7983" lon="-3.52323">
        <ele>12</ele>
        <time>2019-07-17T15:41:00Z</time>
      </trkpt>
      <trkpt lat="47.79831" lon="-3.52322">
        <ele>12</ele>
        <time>2019-07-17T15:41:01Z</time>
      </trkpt>
      <trkpt lat="47.79833" lon="-3.5232">
        <ele>12</ele>
        <time>2019-07-17T15:41:02Z</time>
      </trkpt>
      <trkpt lat="47.79833" lon="-3.5232">
        <ele>12</ele>
        <time>2019-07-17T15:41:03Z</time>
      </trkpt>
      <trkpt lat="47.79837" lon="-3.52316">
        <ele>12</ele>
        <time>2019-07-17T15:41:04Z</time>
      </trkpt>
      <trkpt lat="47.79838" lon="-3.52314">
        <ele>12</ele>
        <time>2019-07-17T15:41:05Z</time>
      </trkpt>
      <trkpt lat="47.7984" lon="-3.52312">
        <ele>12</ele>
        <time>2019-07-17T15:41:06Z</time>
      </trkpt>
      <trkpt lat="47.7984" lon="-3.52312">
        <ele>12</ele>
        <time>2019-07-17T15:41:07Z</time>
      </trkpt>
      <trkpt lat="47.79842" lon="-3.52308">
        <ele>12</ele>
        <time>2019-07-17T15:41:08Z</time>
      </trkpt>
      <trkpt lat="47.79845" lon="-3.52301">
        <ele>12</ele>
        <time>2019-07-17T15:41:09Z</time>
      </trkpt>
      <trkpt lat="47.79847" lon="-3.523">
        <ele>12</ele>
        <time>2019-07-17T15:41:10Z</time>
      </trkpt>
      <trkpt lat="47.79847" lon="-3.523">
        <ele>12</ele>
        <time>2019-07-17T15:41:11Z</time>
      </trkpt>
      <trkpt lat="47.79849" lon="-3.52297">
        <ele>13</ele>
        <time>2019-07-17T15:41:12Z</time>
      </trkpt>
      <trkpt lat="47.7985" lon="-3.52296">
        <ele>13</ele>
        <time>2019-07-17T15:41:13Z</time>
      </trkpt>
      <trkpt lat="47.79851" lon="-3.52293">
        <ele>13</ele>
        <time>2019-07-17T15:41:14Z</time>
      </trkpt>
      <trkpt lat="47.79853" lon="-3.52289">
        <ele>13</ele>
        <time>2019-07-17T15:41:15Z</time>
      </trkpt>
      <trkpt lat="47.79855" lon="-3.52287">
        <ele>13</ele>
        <time>2019-07-17T15:41:16Z</time>
      </trkpt>
      <trkpt lat="47.79855" lon="-3.52287">
        <ele>13</ele>
        <time>2019-07-17T15:41:17Z</time>
      </trkpt>
      <trkpt lat="47.79858" lon="-3.52285">
        <ele>13</ele>
        <time>2019-07-17T15:41:18Z</time>
      </trkpt>
      <trkpt lat="47.79861" lon="-3.52285">
        <ele>13</ele>
        <time>2019-07-17T15:41:19Z</time>
      </trkpt>
      <trkpt lat="47.79867" lon="-3.52284">
        <ele>13</ele>
        <time>2019-07-17T15:41:20Z</time>
      </trkpt>
      <trkpt lat="47.7987" lon="-3.52284">
        <ele>13</ele>
        <time>2019-07-17T15:41:21Z</time>
      </trkpt>
      <trkpt lat="47.79873" lon="-3.52284">
        <ele>14</ele>
        <time>2019-07-17T15:41:22Z</time>
      </trkpt>
      <trkpt lat="47.79877" lon="-3.52284">
        <ele>14</ele>
        <time>2019-07-17T15:41:23Z</time>
      </trkpt>
      <trkpt lat="47.79877" lon="-3.52284">
        <ele>14</ele>
        <time>2019-07-17T15:41:24Z</time>
      </trkpt>
      <trkpt lat="47.7988" lon="-3.52283">
        <ele>14</ele>
        <time>2019-07-17T15:41:25Z</time>
      </trkpt>
      <trkpt lat="47.79884" lon="-3.52283">
        <ele>14</ele>
        <time>2019-07-17T15:41:26Z</time>
      </trkpt>
      <trkpt lat="47.7989" lon="-3.52283">
        <ele>14</ele>
        <time>2019-07-17T15:41:27Z</time>
      </trkpt>
      <trkpt lat="47.7989" lon="-3.52283">
        <ele>14</ele>
        <time>2019-07-17T15:41:28Z</time>
      </trkpt>
      <trkpt lat="47.79894" lon="-3.52284">
        <ele>14</ele>
        <time>2019-07-17T15:41:29Z</time>
      </trkpt>
      <trkpt lat="47.79897" lon="-3.52284">
        <ele>14</ele>
        <time>2019-07-17T15:41:30Z</time>
      </trkpt>
      <trkpt lat="47.799" lon="-3.52285">
        <ele>14</ele>
        <time>2019-07-17T15:41:31Z</time>
      </trkpt>
      <trkpt lat="47.79904" lon="-3.52285">
        <ele>14</ele>
        <time>2019-07-17T15:41:32Z</time>
      </trkpt>
      <trkpt lat="47.7991" lon="-3.52286">
        <ele>14</ele>
        <time>2019-07-17T15:41:33Z</time>
      </trkpt>
      <trkpt lat="47.7991" lon="-3.52286">
        <ele>14</ele>
        <time>2019-07-17T15:41:34Z</time>
      </trkpt>
      <trkpt lat="47.79917" lon="-3.52288">
        <ele>14</ele>
        <time>2019-07-17T15:41:35Z</time>
      </trkpt>
      <trkpt lat="47.7992" lon="-3.52289">
        <ele>14</ele>
        <time>2019-07-17T15:41:36Z</time>
      </trkpt>
      <trkpt lat="47.79923" lon="-3.52291">
        <ele>14</ele>
        <time>2019-07-17T15:41:37Z</time>
      </trkpt>
      <trkpt lat="47.79923" lon="-3.52291">
        <ele>14</ele>
        <time>2019-07-17T15:41:38Z</time>
      </trkpt>
      <trkpt lat="47.79927" lon="-3.52292">
        <ele>14</ele>
        <time>2019-07-17T15:41:39Z</time>
      </trkpt>
      <trkpt lat="47.7993" lon="-3.52294">
        <ele>15</ele>
        <time>2019-07-17T15:41:40Z</time>
      </trkpt>
      <trkpt lat="47.79933" lon="-3.52295">
        <ele>15</ele>
        <time>2019-07-17T15:41:41Z</time>
      </trkpt>
      <trkpt lat="47.79936" lon="-3.52297">
        <ele>15</ele>
        <time>2019-07-17T15:41:42Z</time>
      </trkpt>
      <trkpt lat="47.79939" lon="-3.52298">
        <ele>15</ele>
        <time>2019-07-17T15:41:43Z</time>
      </trkpt>
      <trkpt lat="47.79942" lon="-3.523">
        <ele>15</ele>
        <time>2019-07-17T15:41:44Z</time>
      </trkpt>
      <trkpt lat="47.79946" lon="-3.52302">
        <ele>15</ele>
        <time>2019-07-17T15:41:45Z</time>
      </trkpt>
      <trkpt lat="47.79949" lon="-3.52304">
        <ele>16</ele>
        <time>2019-07-17T15:41:46Z</time>
      </trkpt>
      <trkpt lat="47.79952" lon="-3.52306">
        <ele>16</ele>
        <time>2019-07-17T15:41:47Z</time>
      </trkpt>
      <trkpt lat="47.79955" lon="-3.52308">
        <ele>16</ele>
        <time>2019-07-17T15:41:48Z</time>
      </trkpt>
      <trkpt lat="47.79959" lon="-3.5231">
        <ele>17</ele>
        <time>2019-07-17T15:41:49Z</time>
      </trkpt>
      <trkpt lat="47.79962" lon="-3.52312">
        <ele>17</ele>
        <time>2019-07-17T15:41:50Z</time>
      </trkpt>
      <trkpt lat="47.79965" lon="-3.52315">
        <ele>17</ele>
        <time>2019-07-17T15:41:51Z</time>
      </trkpt>
      <trkpt lat="47.79968" lon="-3.52317">
        <ele>17</ele>
        <time>2019-07-17T15:41:52Z</time>
      </trkpt>
      <trkpt lat="47.79974" lon="-3.52322">
        <ele>18</ele>
        <time>2019-07-17T15:41:53Z</time>
      </trkpt>
      <trkpt lat="47.79977" lon="-3.52325">
        <ele>18</ele>
        <time>2019-07-17T15:41:54Z</time>
      </trkpt>
      <trkpt lat="47.79977" lon="-3.52325">
        <ele>18</ele>
        <time>2019-07-17T15:41:55Z</time>
      </trkpt>
      <trkpt lat="47.79982" lon="-3.52331">
        <ele>18</ele>
        <time>2019-07-17T15:41:56Z</time>
      </trkpt>
      <trkpt lat="47.79982" lon="-3.52331">
        <ele>18</ele>
        <time>2019-07-17T15:41:57Z</time>
      </trkpt>
      <trkpt lat="47.79985" lon="-3.52334">
        <ele>19</ele>
        <time>2019-07-17T15:41:58Z</time>
      </trkpt>
      <trkpt lat="47.79987" lon="-3.52337">
        <ele>19</ele>
        <time>2019-07-17T15:41:59Z</time>
      </trkpt>
      <trkpt lat="47.7999" lon="-3.5234">
        <ele>19</ele>
        <time>2019-07-17T15:42:00Z</time>
      </trkpt>
      <trkpt lat="47.79993" lon="-3.52344">
        <ele>19</ele>
        <time>2019-07-17T15:42:01Z</time>
      </trkpt>
      <trkpt lat="47.79995" lon="-3.52347">
        <ele>19</ele>
        <time>2019-07-17T15:42:02Z</time>
      </trkpt>
      <trkpt lat="47.79998" lon="-3.5235">
        <ele>20</ele>
        <time>2019-07-17T15:42:03Z</time>
      </trkpt>
      <trkpt lat="47.80003" lon="-3.52357">
        <ele>20</ele>
        <time>2019-07-17T15:42:04Z</time>
      </trkpt>
      <trkpt lat="47.80005" lon="-3.5236">
        <ele>21</ele>
        <time>2019-07-17T15:42:05Z</time>
      </trkpt>
      <trkpt lat="47.80005" lon="-3.5236">
        <ele>21</ele>
        <time>2019-07-17T15:42:06Z</time>
      </trkpt>
      <trkpt lat="47.80009" lon="-3.52368">
        <ele>21</ele>
        <time>2019-07-17T15:42:07Z</time>
      </trkpt>
      <trkpt lat="47.80009" lon="-3.52368">
        <ele>21</ele>
        <time>2019-07-17T15:42:08Z</time>
      </trkpt>
      <trkpt lat="47.80011" lon="-3.52372">
        <ele>21</ele>
        <time>2019-07-17T15:42:09Z</time>
      </trkpt>
      <trkpt lat="47.80014" lon="-3.52376">
        <ele>21</ele>
        <time>2019-07-17T15:42:10Z</time>
      </trkpt>
      <trkpt lat="47.80015" lon="-3.5238">
        <ele>22</ele>
        <time>2019-07-17T15:42:11Z</time>
      </trkpt>
      <trkpt lat="47.80017" lon="-3.52384">
        <ele>22</ele>
        <time>2019-07-17T15:42:12Z</time>
      </trkpt>
      <trkpt lat="47.8002" lon="-3.52388">
        <ele>22</ele>
        <time>2019-07-17T15:42:13Z</time>
      </trkpt>
      <trkpt lat="47.80021" lon="-3.52392">
        <ele>22</ele>
        <time>2019-07-17T15:42:14Z</time>
      </trkpt>
      <trkpt lat="47.80023" lon="-3.52397">
        <ele>23</ele>
        <time>2019-07-17T15:42:15Z</time>
      </trkpt>
      <trkpt lat="47.80025" lon="-3.52401">
        <ele>23</ele>
        <time>2019-07-17T15:42:16Z</time>
      </trkpt>
      <trkpt lat="47.80027" lon="-3.52406">
        <ele>23</ele>
        <time>2019-07-17T15:42:17Z</time>
      </trkpt>
      <trkpt lat="47.80028" lon="-3.52411">
        <ele>23</ele>
        <time>2019-07-17T15:42:18Z</time>
      </trkpt>
      <trkpt lat="47.8003" lon="-3.52416">
        <ele>24</ele>
        <time>2019-07-17T15:42:19Z</time>
      </trkpt>
      <trkpt lat="47.80031" lon="-3.5242">
        <ele>24</ele>
        <time>2019-07-17T15:42:20Z</time>
      </trkpt>
      <trkpt lat="47.80033" lon="-3.52425">
        <ele>24</ele>
        <time>2019-07-17T15:42:21Z</time>
      </trkpt>
      <trkpt lat="47.80034" lon="-3.5243">
        <ele>24</ele>
        <time>2019-07-17T15:42:22Z</time>
      </trkpt>
      <trkpt lat="47.80035" lon="-3.52436">
        <ele>24</ele>
        <time>2019-07-17T15:42:23Z</time>
      </trkpt>
      <trkpt lat="47.80037" lon="-3.52441">
        <ele>24</ele>
        <time>2019-07-17T15:42:24Z</time>
      </trkpt>
      <trkpt lat="47.80037" lon="-3.52446">
        <ele>25</ele>
        <time>2019-07-17T15:42:25Z</time>
      </trkpt>
      <trkpt lat="47.80039" lon="-3.52451">
        <ele>25</ele>
        <time>2019-07-17T15:42:26Z</time>
      </trkpt>
      <trkpt lat="47.8004" lon="-3.52456">
        <ele>25</ele>
        <time>2019-07-17T15:42:27Z</time>
      </trkpt>
      <trkpt lat="47.80041" lon="-3.52461">
        <ele>25</ele>
        <time>2019-07-17T15:42:28Z</time>
      </trkpt>
      <trkpt lat="47.80042" lon="-3.52467">
        <ele>25</ele>
        <time>2019-07-17T15:42:29Z</time>
      </trkpt>
      <trkpt lat="47.80043" lon="-3.52472">
        <ele>26</ele>
        <time>2019-07-17T15:42:30Z</time>
      </trkpt>
      <trkpt lat="47.80044" lon="-3.52484">
        <ele>26</ele>
        <time>2019-07-17T15:42:31Z</time>
      </trkpt>
      <trkpt lat="47.80044" lon="-3.52484">
        <ele>26</ele>
        <time>2019-07-17T15:42:32Z</time>
      </trkpt>
      <trkpt lat="47.80044" lon="-3.5249">
        <ele>26</ele>
        <time>2019-07-17T15:42:33Z</time>
      </trkpt>
      <trkpt lat="47.80045" lon="-3.52496">
        <ele>26</ele>
        <time>2019-07-17T15:42:34Z</time>
      </trkpt>
      <trkpt lat="47.80046" lon="-3.52508">
        <ele>26</ele>
        <time>2019-07-17T15:42:35Z</time>
      </trkpt>
      <trkpt lat="47.80046" lon="-3.52508">
        <ele>26</ele>
        <time>2019-07-17T15:42:36Z</time>
      </trkpt>
      <trkpt lat="47.80046" lon="-3.52514">
        <ele>27</ele>
        <time>2019-07-17T15:42:37Z</time>
      </trkpt>
      <trkpt lat="47.80046" lon="-3.5252">
        <ele>27</ele>
        <time>2019-07-17T15:42:38Z</time>
      </trkpt>
      <trkpt lat="47.80046" lon="-3.52526">
        <ele>27</ele>
        <time>2019-07-17T15:42:39Z</time>
      </trkpt>
      <trkpt lat="47.80046" lon="-3.52532">
        <ele>27</ele>
        <time>2019-07-17T15:42:40Z</time>
      </trkpt>
      <trkpt lat="47.80046" lon="-3.52545">
        <ele>27</ele>
        <time>2019-07-17T15:42:41Z</time>
      </trkpt>
      <trkpt lat="47.80046" lon="-3.52545">
        <ele>27</ele>
        <time>2019-07-17T15:42:42Z</time>
      </trkpt>
      <trkpt lat="47.80046" lon="-3.52558">
        <ele>27</ele>
        <time>2019-07-17T15:42:43Z</time>
      </trkpt>
      <trkpt lat="47.80046" lon="-3.52564">
        <ele>28</ele>
        <time>2019-07-17T15:42:44Z</time>
      </trkpt>
      <trkpt lat="47.80047" lon="-3.52571">
        <ele>28</ele>
        <time>2019-07-17T15:42:45Z</time>
      </trkpt>
      <trkpt lat="47.80047" lon="-3.52571">
        <ele>28</ele>
        <time>2019-07-17T15:42:46Z</time>
      </trkpt>
      <trkpt lat="47.80047" lon="-3.52584">
        <ele>28</ele>
        <time>2019-07-17T15:42:47Z</time>
      </trkpt>
      <trkpt lat="47.80047" lon="-3.52584">
        <ele>28</ele>
        <time>2019-07-17T15:42:48Z</time>
      </trkpt>
      <trkpt lat="47.80047" lon="-3.52591">
        <ele>28</ele>
        <time>2019-07-17T15:42:49Z</time>
      </trkpt>
      <trkpt lat="47.80047" lon="-3.52604">
        <ele>28</ele>
        <time>2019-07-17T15:42:50Z</time>
      </trkpt>
      <trkpt lat="47.80047" lon="-3.52611">
        <ele>28</ele>
        <time>2019-07-17T15:42:51Z</time>
      </trkpt>
      <trkpt lat="47.80047" lon="-3.52611">
        <ele>28</ele>
        <time>2019-07-17T15:42:52Z</time>
      </trkpt>
      <trkpt lat="47.80047" lon="-3.52625">
        <ele>29</ele>
        <time>2019-07-17T15:42:53Z</time>
      </trkpt>
      <trkpt lat="47.80047" lon="-3.52632">
        <ele>29</ele>
        <time>2019-07-17T15:42:54Z</time>
      </trkpt>
      <trkpt lat="47.80047" lon="-3.52638">
        <ele>29</ele>
        <time>2019-07-17T15:42:55Z</time>
      </trkpt>
      <trkpt lat="47.80047" lon="-3.52645">
        <ele>29</ele>
        <time>2019-07-17T15:42:56Z</time>
      </trkpt>
      <trkpt lat="47.80047" lon="-3.52645">
        <ele>29</ele>
        <time>2019-07-17T15:42:57Z</time>
      </trkpt>
      <trkpt lat="47.80047" lon="-3.52658">
        <ele>29</ele>
        <time>2019-07-17T15:42:58Z</time>
      </trkpt>
      <trkpt lat="47.80047" lon="-3.52665">
        <ele>29</ele>
        <time>2019-07-17T15:42:59Z</time>
      </trkpt>
      <trkpt lat="47.80047" lon="-3.52665">
        <ele>29</ele>
        <time>2019-07-17T15:43:00Z</time>
      </trkpt>
      <trkpt lat="47.80047" lon="-3.52672">
        <ele>29</ele>
        <time>2019-07-17T15:43:01Z</time>
      </trkpt>
      <trkpt lat="47.80047" lon="-3.52685">
        <ele>29</ele>
        <time>2019-07-17T15:43:02Z</time>
      </trkpt>
      <trkpt lat="47.80047" lon="-3.52692">
        <ele>29</ele>
        <time>2019-07-17T15:43:03Z</time>
      </trkpt>
      <trkpt lat="47.80047" lon="-3.52698">
        <ele>29</ele>
        <time>2019-07-17T15:43:04Z</time>
      </trkpt>
      <trkpt lat="47.80047" lon="-3.52698">
        <ele>29</ele>
        <time>2019-07-17T15:43:05Z</time>
      </trkpt>
      <trkpt lat="47.80047" lon="-3.52705">
        <ele>29</ele>
        <time>2019-07-17T15:43:06Z</time>
      </trkpt>
      <trkpt lat="47.80047" lon="-3.5271">
        <ele>29</ele>
        <time>2019-07-17T15:43:07Z</time>
      </trkpt>
      <trkpt lat="47.80047" lon="-3.52716">
        <ele>30</ele>
        <time>2019-07-17T15:43:08Z</time>
      </trkpt>
      <trkpt lat="47.80047" lon="-3.52722">
        <ele>30</ele>
        <time>2019-07-17T15:43:09Z</time>
      </trkpt>
      <trkpt lat="47.80047" lon="-3.52728">
        <ele>30</ele>
        <time>2019-07-17T15:43:10Z</time>
      </trkpt>
      <trkpt lat="47.80047" lon="-3.52735">
        <ele>30</ele>
        <time>2019-07-17T15:43:11Z</time>
      </trkpt>
      <trkpt lat="47.80047" lon="-3.52748">
        <ele>30</ele>
        <time>2019-07-17T15:43:12Z</time>
      </trkpt>
      <trkpt lat="47.80047" lon="-3.52754">
        <ele>30</ele>
        <time>2019-07-17T15:43:13Z</time>
      </trkpt>
      <trkpt lat="47.80047" lon="-3.52754">
        <ele>30</ele>
        <time>2019-07-17T15:43:14Z</time>
      </trkpt>
      <trkpt lat="47.80047" lon="-3.52761">
        <ele>30</ele>
        <time>2019-07-17T15:43:15Z</time>
      </trkpt>
      <trkpt lat="47.80047" lon="-3.52768">
        <ele>30</ele>
        <time>2019-07-17T15:43:16Z</time>
      </trkpt>
      <trkpt lat="47.80047" lon="-3.52781">
        <ele>31</ele>
        <time>2019-07-17T15:43:17Z</time>
      </trkpt>
      <trkpt lat="47.80047" lon="-3.52781">
        <ele>31</ele>
        <time>2019-07-17T15:43:18Z</time>
      </trkpt>
      <trkpt lat="47.80047" lon="-3.52795">
        <ele>31</ele>
        <time>2019-07-17T15:43:19Z</time>
      </trkpt>
      <trkpt lat="47.80047" lon="-3.52802">
        <ele>31</ele>
        <time>2019-07-17T15:43:20Z</time>
      </trkpt>
      <trkpt lat="47.80047" lon="-3.52802">
        <ele>31</ele>
        <time>2019-07-17T15:43:21Z</time>
      </trkpt>
      <trkpt lat="47.80047" lon="-3.52809">
        <ele>31</ele>
        <time>2019-07-17T15:43:22Z</time>
      </trkpt>
      <trkpt lat="47.80047" lon="-3.52816">
        <ele>31</ele>
        <time>2019-07-17T15:43:23Z</time>
      </trkpt>
      <trkpt lat="47.80047" lon="-3.52823">
        <ele>31</ele>
        <time>2019-07-17T15:43:24Z</time>
      </trkpt>
      <trkpt lat="47.80047" lon="-3.52836">
        <ele>32</ele>
        <time>2019-07-17T15:43:25Z</time>
      </trkpt>
      <trkpt lat="47.80047" lon="-3.52836">
        <ele>32</ele>
        <time>2019-07-17T15:43:26Z</time>
      </trkpt>
      <trkpt lat="47.80047" lon="-3.5285">
        <ele>32</ele>
        <time>2019-07-17T15:43:27Z</time>
      </trkpt>
      <trkpt lat="47.80047" lon="-3.52857">
        <ele>32</ele>
        <time>2019-07-17T15:43:28Z</time>
      </trkpt>
      <trkpt lat="47.80047" lon="-3.52857">
        <ele>32</ele>
        <time>2019-07-17T15:43:29Z</time>
      </trkpt>
      <trkpt lat="47.80047" lon="-3.52864">
        <ele>32</ele>
        <time>2019-07-17T15:43:30Z</time>
      </trkpt>
      <trkpt lat="47.80047" lon="-3.52878">
        <ele>33</ele>
        <time>2019-07-17T15:43:31Z</time>
      </trkpt>
      <trkpt lat="47.80048" lon="-3.52885">
        <ele>33</ele>
        <time>2019-07-17T15:43:32Z</time>
      </trkpt>
      <trkpt lat="47.80048" lon="-3.52892">
        <ele>33</ele>
        <time>2019-07-17T15:43:33Z</time>
      </trkpt>
      <trkpt lat="47.80048" lon="-3.52892">
        <ele>33</ele>
        <time>2019-07-17T15:43:34Z</time>
      </trkpt>
      <trkpt lat="47.80048" lon="-3.52906">
        <ele>34</ele>
        <time>2019-07-17T15:43:35Z</time>
      </trkpt>
      <trkpt lat="47.80048" lon="-3.52914">
        <ele>34</ele>
        <time>2019-07-17T15:43:36Z</time>
      </trkpt>
      <trkpt lat="47.80048" lon="-3.52914">
        <ele>34</ele>
        <time>2019-07-17T15:43:37Z</time>
      </trkpt>
      <trkpt lat="47.80048" lon="-3.5293">
        <ele>34</ele>
        <time>2019-07-17T15:43:38Z</time>
      </trkpt>
      <trkpt lat="47.80048" lon="-3.5293">
        <ele>34</ele>
        <time>2019-07-17T15:43:39Z</time>
      </trkpt>
      <trkpt lat="47.80048" lon="-3.52947">
        <ele>34</ele>
        <time>2019-07-17T15:43:40Z</time>
      </trkpt>
      <trkpt lat="47.80048" lon="-3.52947">
        <ele>34</ele>
        <time>2019-07-17T15:43:41Z</time>
      </trkpt>
      <trkpt lat="47.80048" lon="-3.52955">
        <ele>34</ele>
        <time>2019-07-17T15:43:42Z</time>
      </trkpt>
      <trkpt lat="47.80048" lon="-3.52972">
        <ele>34</ele>
        <time>2019-07-17T15:43:43Z</time>
      </trkpt>
      <trkpt lat="47.80048" lon="-3.52972">
        <ele>34</ele>
        <time>2019-07-17T15:43:44Z</time>
      </trkpt>
      <trkpt lat="47.80048" lon="-3.52981">
        <ele>34</ele>
        <time>2019-07-17T15:43:45Z</time>
      </trkpt>
      <trkpt lat="47.80048" lon="-3.52989">
        <ele>34</ele>
        <time>2019-07-17T15:43:46Z</time>
      </trkpt>
      <trkpt lat="47.80048" lon="-3.52997">
        <ele>34</ele>
        <time>2019-07-17T15:43:47Z</time>
      </trkpt>
      <trkpt lat="47.80048" lon="-3.53005">
        <ele>34</ele>
        <time>2019-07-17T15:43:48Z</time>
      </trkpt>
      <trkpt lat="47.80048" lon="-3.53013">
        <ele>34</ele>
        <time>2019-07-17T15:43:49Z</time>
      </trkpt>
      <trkpt lat="47.80048" lon="-3.53021">
        <ele>34</ele>
        <time>2019-07-17T15:43:50Z</time>
      </trkpt>
      <trkpt lat="47.80048" lon="-3.53028">
        <ele>34</ele>
        <time>2019-07-17T15:43:51Z</time>
      </trkpt>
      <trkpt lat="47.80051" lon="-3.53034">
        <ele>34</ele>
        <time>2019-07-17T15:43:52Z</time>
      </trkpt>
      <trkpt lat="47.80056" lon="-3.53036">
        <ele>33</ele>
        <time>2019-07-17T15:43:53Z</time>
      </trkpt>
      <trkpt lat="47.80065" lon="-3.53032">
        <ele>33</ele>
        <time>2019-07-17T15:43:54Z</time>
      </trkpt>
      <trkpt lat="47.80065" lon="-3.53032">
        <ele>33</ele>
        <time>2019-07-17T15:43:55Z</time>
      </trkpt>
      <trkpt lat="47.80073" lon="-3.5302">
        <ele>32</ele>
        <time>2019-07-17T15:43:56Z</time>
      </trkpt>
      <trkpt lat="47.80077" lon="-3.53014">
        <ele>32</ele>
        <time>2019-07-17T15:43:57Z</time>
      </trkpt>
      <trkpt lat="47.80079" lon="-3.53007">
        <ele>32</ele>
        <time>2019-07-17T15:43:58Z</time>
      </trkpt>
      <trkpt lat="47.80082" lon="-3.52999">
        <ele>32</ele>
        <time>2019-07-17T15:43:59Z</time>
      </trkpt>
      <trkpt lat="47.80084" lon="-3.5299">
        <ele>32</ele>
        <time>2019-07-17T15:44:00Z</time>
      </trkpt>
      <trkpt lat="47.80087" lon="-3.52981">
        <ele>32</ele>
        <time>2019-07-17T15:44:01Z</time>
      </trkpt>
      <trkpt lat="47.80089" lon="-3.52971">
        <ele>32</ele>
        <time>2019-07-17T15:44:02Z</time>
      </trkpt>
      <trkpt lat="47.80092" lon="-3.52961">
        <ele>32</ele>
        <time>2019-07-17T15:44:03Z</time>
      </trkpt>
      <trkpt lat="47.80094" lon="-3.52952">
        <ele>31</ele>
        <time>2019-07-17T15:44:04Z</time>
      </trkpt>
      <trkpt lat="47.80098" lon="-3.52942">
        <ele>31</ele>
        <time>2019-07-17T15:44:05Z</time>
      </trkpt>
      <trkpt lat="47.80102" lon="-3.52932">
        <ele>31</ele>
        <time>2019-07-17T15:44:06Z</time>
      </trkpt>
      <trkpt lat="47.80107" lon="-3.52923">
        <ele>31</ele>
        <time>2019-07-17T15:44:07Z</time>
      </trkpt>
      <trkpt lat="47.80111" lon="-3.52913">
        <ele>31</ele>
        <time>2019-07-17T15:44:08Z</time>
      </trkpt>
      <trkpt lat="47.80116" lon="-3.52903">
        <ele>31</ele>
        <time>2019-07-17T15:44:09Z</time>
      </trkpt>
      <trkpt lat="47.80123" lon="-3.52893">
        <ele>31</ele>
        <time>2019-07-17T15:44:10Z</time>
      </trkpt>
      <trkpt lat="47.80129" lon="-3.52883">
        <ele>31</ele>
        <time>2019-07-17T15:44:11Z</time>
      </trkpt>
      <trkpt lat="47.80136" lon="-3.52874">
        <ele>31</ele>
        <time>2019-07-17T15:44:12Z</time>
      </trkpt>
      <trkpt lat="47.80136" lon="-3.52874">
        <ele>31</ele>
        <time>2019-07-17T15:44:13Z</time>
      </trkpt>
      <trkpt lat="47.80152" lon="-3.52856">
        <ele>31</ele>
        <time>2019-07-17T15:44:14Z</time>
      </trkpt>
      <trkpt lat="47.80159" lon="-3.52845">
        <ele>31</ele>
        <time>2019-07-17T15:44:15Z</time>
      </trkpt>
      <trkpt lat="47.80166" lon="-3.52835">
        <ele>31</ele>
        <time>2019-07-17T15:44:16Z</time>
      </trkpt>
      <trkpt lat="47.80172" lon="-3.52827">
        <ele>31</ele>
        <time>2019-07-17T15:44:17Z</time>
      </trkpt>
      <trkpt lat="47.80179" lon="-3.5282">
        <ele>31</ele>
        <time>2019-07-17T15:44:18Z</time>
      </trkpt>
      <trkpt lat="47.80185" lon="-3.52813">
        <ele>31</ele>
        <time>2019-07-17T15:44:19Z</time>
      </trkpt>
      <trkpt lat="47.80191" lon="-3.52807">
        <ele>31</ele>
        <time>2019-07-17T15:44:20Z</time>
      </trkpt>
      <trkpt lat="47.80196" lon="-3.52802">
        <ele>31</ele>
        <time>2019-07-17T15:44:21Z</time>
      </trkpt>
      <trkpt lat="47.80202" lon="-3.52799">
        <ele>31</ele>
        <time>2019-07-17T15:44:22Z</time>
      </trkpt>
      <trkpt lat="47.80207" lon="-3.52796">
        <ele>30</ele>
        <time>2019-07-17T15:44:23Z</time>
      </trkpt>
      <trkpt lat="47.80213" lon="-3.52793">
        <ele>30</ele>
        <time>2019-07-17T15:44:24Z</time>
      </trkpt>
      <trkpt lat="47.8022" lon="-3.5279">
        <ele>30</ele>
        <time>2019-07-17T15:44:25Z</time>
      </trkpt>
      <trkpt lat="47.80227" lon="-3.52787">
        <ele>30</ele>
        <time>2019-07-17T15:44:26Z</time>
      </trkpt>
      <trkpt lat="47.80234" lon="-3.52784">
        <ele>29</ele>
        <time>2019-07-17T15:44:27Z</time>
      </trkpt>
      <trkpt lat="47.80241" lon="-3.52781">
        <ele>29</ele>
        <time>2019-07-17T15:44:28Z</time>
      </trkpt>
      <trkpt lat="47.80249" lon="-3.52777">
        <ele>29</ele>
        <time>2019-07-17T15:44:29Z</time>
      </trkpt>
      <trkpt lat="47.80257" lon="-3.52773">
        <ele>29</ele>
        <time>2019-07-17T15:44:30Z</time>
      </trkpt>
      <trkpt lat="47.80264" lon="-3.52769">
        <ele>29</ele>
        <time>2019-07-17T15:44:31Z</time>
      </trkpt>
      <trkpt lat="47.80271" lon="-3.52764">
        <ele>28</ele>
        <time>2019-07-17T15:44:32Z</time>
      </trkpt>
      <trkpt lat="47.80277" lon="-3.52758">
        <ele>28</ele>
        <time>2019-07-17T15:44:33Z</time>
      </trkpt>
      <trkpt lat="47.80283" lon="-3.52752">
        <ele>28</ele>
        <time>2019-07-17T15:44:34Z</time>
      </trkpt>
      <trkpt lat="47.8029" lon="-3.52744">
        <ele>28</ele>
        <time>2019-07-17T15:44:35Z</time>
      </trkpt>
      <trkpt lat="47.80297" lon="-3.52738">
        <ele>28</ele>
        <time>2019-07-17T15:44:36Z</time>
      </trkpt>
      <trkpt lat="47.80304" lon="-3.52732">
        <ele>28</ele>
        <time>2019-07-17T15:44:37Z</time>
      </trkpt>
      <trkpt lat="47.8031" lon="-3.52726">
        <ele>27</ele>
        <time>2019-07-17T15:44:38Z</time>
      </trkpt>
      <trkpt lat="47.80316" lon="-3.52721">
        <ele>27</ele>
        <time>2019-07-17T15:44:39Z</time>
      </trkpt>
      <trkpt lat="47.80323" lon="-3.52717">
        <ele>27</ele>
        <time>2019-07-17T15:44:40Z</time>
      </trkpt>
      <trkpt lat="47.8033" lon="-3.52714">
        <ele>26</ele>
        <time>2019-07-17T15:44:41Z</time>
      </trkpt>
      <trkpt lat="47.80338" lon="-3.52714">
        <ele>26</ele>
        <time>2019-07-17T15:44:42Z</time>
      </trkpt>
      <trkpt lat="47.80345" lon="-3.52714">
        <ele>25</ele>
        <time>2019-07-17T15:44:43Z</time>
      </trkpt>
      <trkpt lat="47.80352" lon="-3.52715">
        <ele>25</ele>
        <time>2019-07-17T15:44:44Z</time>
      </trkpt>
      <trkpt lat="47.80359" lon="-3.52716">
        <ele>24</ele>
        <time>2019-07-17T15:44:45Z</time>
      </trkpt>
      <trkpt lat="47.80359" lon="-3.52716">
        <ele>24</ele>
        <time>2019-07-17T15:44:46Z</time>
      </trkpt>
      <trkpt lat="47.80364" lon="-3.52718">
        <ele>23</ele>
        <time>2019-07-17T15:44:47Z</time>
      </trkpt>
      <trkpt lat="47.80371" lon="-3.52721">
        <ele>22</ele>
        <time>2019-07-17T15:44:48Z</time>
      </trkpt>
      <trkpt lat="47.80377" lon="-3.52723">
        <ele>21</ele>
        <time>2019-07-17T15:44:49Z</time>
      </trkpt>
      <trkpt lat="47.80383" lon="-3.52725">
        <ele>20</ele>
        <time>2019-07-17T15:44:50Z</time>
      </trkpt>
      <trkpt lat="47.80396" lon="-3.52729">
        <ele>17</ele>
        <time>2019-07-17T15:44:51Z</time>
      </trkpt>
      <trkpt lat="47.80402" lon="-3.5273">
        <ele>16</ele>
        <time>2019-07-17T15:44:52Z</time>
      </trkpt>
      <trkpt lat="47.80408" lon="-3.52731">
        <ele>15</ele>
        <time>2019-07-17T15:44:53Z</time>
      </trkpt>
      <trkpt lat="47.80408" lon="-3.52731">
        <ele>15</ele>
        <time>2019-07-17T15:44:54Z</time>
      </trkpt>
      <trkpt lat="47.80415" lon="-3.52731">
        <ele>14</ele>
        <time>2019-07-17T15:44:55Z</time>
      </trkpt>
      <trkpt lat="47.80421" lon="-3.5273">
        <ele>13</ele>
        <time>2019-07-17T15:44:56Z</time>
      </trkpt>
      <trkpt lat="47.80433" lon="-3.52731">
        <ele>11</ele>
        <time>2019-07-17T15:44:57Z</time>
      </trkpt>
      <trkpt lat="47.80433" lon="-3.52731">
        <ele>11</ele>
        <time>2019-07-17T15:44:58Z</time>
      </trkpt>
      <trkpt lat="47.80439" lon="-3.52731">
        <ele>10</ele>
        <time>2019-07-17T15:44:59Z</time>
      </trkpt>
      <trkpt lat="47.80444" lon="-3.52732">
        <ele>10</ele>
        <time>2019-07-17T15:45:00Z</time>
      </trkpt>
      <trkpt lat="47.80455" lon="-3.52732">
        <ele>8</ele>
        <time>2019-07-17T15:45:01Z</time>
      </trkpt>
      <trkpt lat="47.80461" lon="-3.52733">
        <ele>7</ele>
        <time>2019-07-17T15:45:02Z</time>
      </trkpt>
      <trkpt lat="47.80466" lon="-3.52732">
        <ele>7</ele>
        <time>2019-07-17T15:45:03Z</time>
      </trkpt>
      <trkpt lat="47.80466" lon="-3.52732">
        <ele>7</ele>
        <time>2019-07-17T15:45:04Z</time>
      </trkpt>
      <trkpt lat="47.80475" lon="-3.52732">
        <ele>6</ele>
        <time>2019-07-17T15:45:05Z</time>
      </trkpt>
      <trkpt lat="47.8048" lon="-3.52733">
        <ele>5</ele>
        <time>2019-07-17T15:45:06Z</time>
      </trkpt>
      <trkpt lat="47.80484" lon="-3.52733">
        <ele>5</ele>
        <time>2019-07-17T15:45:07Z</time>
      </trkpt>
      <trkpt lat="47.80488" lon="-3.52734">
        <ele>4</ele>
        <time>2019-07-17T15:45:08Z</time>
      </trkpt>
      <trkpt lat="47.80492" lon="-3.52734">
        <ele>4</ele>
        <time>2019-07-17T15:45:09Z</time>
      </trkpt>
      <trkpt lat="47.80497" lon="-3.52734">
        <ele>3</ele>
        <time>2019-07-17T15:45:10Z</time>
      </trkpt>
      <trkpt lat="47.80501" lon="-3.52733">
        <ele>3</ele>
        <time>2019-07-17T15:45:11Z</time>
      </trkpt>
      <trkpt lat="47.80505" lon="-3.52732">
        <ele>3</ele>
        <time>2019-07-17T15:45:12Z</time>
      </trkpt>
      <trkpt lat="47.8051" lon="-3.52732">
        <ele>2</ele>
        <time>2019-07-17T15:45:13Z</time>
      </trkpt>
      <trkpt lat="47.80514" lon="-3.52731">
        <ele>2</ele>
        <time>2019-07-17T15:45:14Z</time>
      </trkpt>
      <trkpt lat="47.80518" lon="-3.52731">
        <ele>2</ele>
        <time>2019-07-17T15:45:15Z</time>
      </trkpt>
      <trkpt lat="47.80522" lon="-3.5273">
        <ele>2</ele>
        <time>2019-07-17T15:45:16Z</time>
      </trkpt>
      <trkpt lat="47.80525" lon="-3.52728">
        <ele>1</ele>
        <time>2019-07-17T15:45:17Z</time>
      </trkpt>
      <trkpt lat="47.80529" lon="-3.52727">
        <ele>1</ele>
        <time>2019-07-17T15:45:18Z</time>
      </trkpt>
      <trkpt lat="47.80533" lon="-3.52725">
        <ele>1</ele>
        <time>2019-07-17T15:45:19Z</time>
      </trkpt>
      <trkpt lat="47.80533" lon="-3.52725">
        <ele>1</ele>
        <time>2019-07-17T15:45:20Z</time>
      </trkpt>
      <trkpt lat="47.80539" lon="-3.52724">
        <ele>1</ele>
        <time>2019-07-17T15:45:21Z</time>
      </trkpt>
      <trkpt lat="47.80541" lon="-3.52724">
        <ele>1</ele>
        <time>2019-07-17T15:45:22Z</time>
      </trkpt>
      <trkpt lat="47.80542" lon="-3.52724">
        <ele>1</ele>
        <time>2019-07-17T15:45:23Z</time>
      </trkpt>
      <trkpt lat="47.80542" lon="-3.52724">
        <ele>1</ele>
        <time>2019-07-17T15:45:24Z</time>
      </trkpt>
      <trkpt lat="47.80545" lon="-3.52723">
        <ele>1</ele>
        <time>2019-07-17T15:45:25Z</time>
      </trkpt>
      <trkpt lat="47.80546" lon="-3.52723">
        <ele>1</ele>
        <time>2019-07-17T15:45:26Z</time>
      </trkpt>
      <trkpt lat="47.80548" lon="-3.52722">
        <ele>2</ele>
        <time>2019-07-17T15:45:27Z</time>
      </trkpt>
      <trkpt lat="47.8055" lon="-3.52722">
        <ele>2</ele>
        <time>2019-07-17T15:45:28Z</time>
      </trkpt>
      <trkpt lat="47.80551" lon="-3.52724">
        <ele>2</ele>
        <time>2019-07-17T15:45:29Z</time>
      </trkpt>
      <trkpt lat="47.80552" lon="-3.52726">
        <ele>2</ele>
        <time>2019-07-17T15:45:30Z</time>
      </trkpt>
      <trkpt lat="47.80552" lon="-3.52726">
        <ele>2</ele>
        <time>2019-07-17T15:45:31Z</time>
      </trkpt>
      <trkpt lat="47.80553" lon="-3.5273">
        <ele>2</ele>
        <time>2019-07-17T15:45:32Z</time>
      </trkpt>
      <trkpt lat="47.80555" lon="-3.52731">
        <ele>3</ele>
        <time>2019-07-17T15:45:33Z</time>
      </trkpt>
      <trkpt lat="47.80555" lon="-3.52731">
        <ele>3</ele>
        <time>2019-07-17T15:45:34Z</time>
      </trkpt>
      <trkpt lat="47.80557" lon="-3.52735">
        <ele>3</ele>
        <time>2019-07-17T15:45:35Z</time>
      </trkpt>
      <trkpt lat="47.80558" lon="-3.52737">
        <ele>3</ele>
        <time>2019-07-17T15:45:36Z</time>
      </trkpt>
      <trkpt lat="47.80559" lon="-3.52739">
        <ele>3</ele>
        <time>2019-07-17T15:45:37Z</time>
      </trkpt>
      <trkpt lat="47.8056" lon="-3.52741">
        <ele>4</ele>
        <time>2019-07-17T15:45:38Z</time>
      </trkpt>
      <trkpt lat="47.80562" lon="-3.52742">
        <ele>4</ele>
        <time>2019-07-17T15:45:39Z</time>
      </trkpt>
      <trkpt lat="47.80562" lon="-3.52742">
        <ele>4</ele>
        <time>2019-07-17T15:45:40Z</time>
      </trkpt>
      <trkpt lat="47.80565" lon="-3.52745">
        <ele>4</ele>
        <time>2019-07-17T15:45:41Z</time>
      </trkpt>
      <trkpt lat="47.80566" lon="-3.52746">
        <ele>4</ele>
        <time>2019-07-17T15:45:42Z</time>
      </trkpt>
      <trkpt lat="47.80566" lon="-3.52747">
        <ele>5</ele>
        <time>2019-07-17T15:45:43Z</time>
      </trkpt>
      <trkpt lat="47.80566" lon="-3.52747">
        <ele>5</ele>
        <time>2019-07-17T15:45:44Z</time>
      </trkpt>
      <trkpt lat="47.80567" lon="-3.52748">
        <ele>5</ele>
        <time>2019-07-17T15:45:45Z</time>
      </trkpt>
      <trkpt lat="47.80569" lon="-3.5275">
        <ele>5</ele>
        <time>2019-07-17T15:45:46Z</time>
      </trkpt>
      <trkpt lat="47.8057" lon="-3.52751">
        <ele>5</ele>
        <time>2019-07-17T15:45:47Z</time>
      </trkpt>
      <trkpt lat="47.8057" lon="-3.52751">
        <ele>5</ele>
        <time>2019-07-17T15:45:48Z</time>
      </trkpt>
      <trkpt lat="47.80573" lon="-3.52754">
        <ele>6</ele>
        <time>2019-07-17T15:45:49Z</time>
      </trkpt>
      <trkpt lat="47.80573" lon="-3.52754">
        <ele>6</ele>
        <time>2019-07-17T15:45:50Z</time>
      </trkpt>
      <trkpt lat="47.80575" lon="-3.52758">
        <ele>6</ele>
        <time>2019-07-17T15:45:51Z</time>
      </trkpt>
      <trkpt lat="47.80575" lon="-3.5276">
        <ele>7</ele>
        <time>2019-07-17T15:45:52Z</time>
      </trkpt>
      <trkpt lat="47.80575" lon="-3.5276">
        <ele>7</ele>
        <time>2019-07-17T15:45:53Z</time>
      </trkpt>
      <trkpt lat="47.80576" lon="-3.52762">
        <ele>7</ele>
        <time>2019-07-17T15:45:54Z</time>
      </trkpt>
      <trkpt lat="47.80576" lon="-3.52764">
        <ele>7</ele>
        <time>2019-07-17T15:45:55Z</time>
      </trkpt>
      <trkpt lat="47.80577" lon="-3.52768">
        <ele>8</ele>
        <time>2019-07-17T15:45:56Z</time>
      </trkpt>
      <trkpt lat="47.80577" lon="-3.5277">
        <ele>8</ele>
        <time>2019-07-17T15:45:57Z</time>
      </trkpt>
      <trkpt lat="47.80577" lon="-3.52772">
        <ele>8</ele>
        <time>2019-07-17T15:45:58Z</time>
      </trkpt>
      <trkpt lat="47.80578" lon="-3.52775">
        <ele>9</ele>
        <time>2019-07-17T15:45:59Z</time>
      </trkpt>
      <trkpt lat="47.80578" lon="-3.52777">
        <ele>9</ele>
        <time>2019-07-17T15:46:00Z</time>
      </trkpt>
      <trkpt lat="47.80578" lon="-3.5278">
        <ele>9</ele>
        <time>2019-07-17T15:46:01Z</time>
      </trkpt>
      <trkpt lat="47.80578" lon="-3.52782">
        <ele>10</ele>
        <time>2019-07-17T15:46:02Z</time>
      </trkpt>
      <trkpt lat="47.80578" lon="-3.52784">
        <ele>10</ele>
        <time>2019-07-17T15:46:03Z</time>
      </trkpt>
      <trkpt lat="47.80579" lon="-3.52786">
        <ele>10</ele>
        <time>2019-07-17T15:46:04Z</time>
      </trkpt>
      <trkpt lat="47.80579" lon="-3.52788">
        <ele>11</ele>
        <time>2019-07-17T15:46:05Z</time>
      </trkpt>
      <trkpt lat="47.80579" lon="-3.52788">
        <ele>11</ele>
        <time>2019-07-17T15:46:06Z</time>
      </trkpt>
      <trkpt lat="47.80581" lon="-3.52791">
        <ele>11</ele>
        <time>2019-07-17T15:46:07Z</time>
      </trkpt>
      <trkpt lat="47.80581" lon="-3.52794">
        <ele>12</ele>
        <time>2019-07-17T15:46:08Z</time>
      </trkpt>
      <trkpt lat="47.80581" lon="-3.52796">
        <ele>12</ele>
        <time>2019-07-17T15:46:09Z</time>
      </trkpt>
      <trkpt lat="47.80581" lon="-3.52796">
        <ele>12</ele>
        <time>2019-07-17T15:46:10Z</time>
      </trkpt>
      <trkpt lat="47.80582" lon="-3.52798">
        <ele>12</ele>
        <time>2019-07-17T15:46:11Z</time>
      </trkpt>
      <trkpt lat="47.80583" lon="-3.528">
        <ele>13</ele>
        <time>2019-07-17T15:46:12Z</time>
      </trkpt>
      <trkpt lat="47.80585" lon="-3.52807">
        <ele>13</ele>
        <time>2019-07-17T15:46:13Z</time>
      </trkpt>
      <trkpt lat="47.80585" lon="-3.52809">
        <ele>14</ele>
        <time>2019-07-17T15:46:14Z</time>
      </trkpt>
      <trkpt lat="47.80585" lon="-3.52809">
        <ele>14</ele>
        <time>2019-07-17T15:46:15Z</time>
      </trkpt>
      <trkpt lat="47.80585" lon="-3.52813">
        <ele>14</ele>
        <time>2019-07-17T15:46:16Z</time>
      </trkpt>
      <trkpt lat="47.80586" lon="-3.52818">
        <ele>15</ele>
        <time>2019-07-17T15:46:17Z</time>
      </trkpt>
      <trkpt lat="47.80587" lon="-3.52823">
        <ele>15</ele>
        <time>2019-07-17T15:46:18Z</time>
      </trkpt>
      <trkpt lat="47.80587" lon="-3.52828">
        <ele>15</ele>
        <time>2019-07-17T15:46:19Z</time>
      </trkpt>
      <trkpt lat="47.80588" lon="-3.52832">
        <ele>16</ele>
        <time>2019-07-17T15:46:20Z</time>
      </trkpt>
      <trkpt lat="47.80589" lon="-3.52837">
        <ele>16</ele>
        <time>2019-07-17T15:46:21Z</time>
      </trkpt>
      <trkpt lat="47.8059" lon="-3.52842">
        <ele>16</ele>
        <time>2019-07-17T15:46:22Z</time>
      </trkpt>
      <trkpt lat="47.80591" lon="-3.52846">
        <ele>17</ele>
        <time>2019-07-17T15:46:23Z</time>
      </trkpt>
      <trkpt lat="47.80592" lon="-3.52855">
        <ele>17</ele>
        <time>2019-07-17T15:46:24Z</time>
      </trkpt>
      <trkpt lat="47.80593" lon="-3.52858">
        <ele>18</ele>
        <time>2019-07-17T15:46:25Z</time>
      </trkpt>
      <trkpt lat="47.80594" lon="-3.52862">
        <ele>18</ele>
        <time>2019-07-17T15:46:26Z</time>
      </trkpt>
      <trkpt lat="47.80595" lon="-3.52866">
        <ele>18</ele>
        <time>2019-07-17T15:46:27Z</time>
      </trkpt>
      <trkpt lat="47.80595" lon="-3.5287">
        <ele>18</ele>
        <time>2019-07-17T15:46:28Z</time>
      </trkpt>
      <trkpt lat="47.80596" lon="-3.52874">
        <ele>18</ele>
        <time>2019-07-17T15:46:29Z</time>
      </trkpt>
      <trkpt lat="47.80597" lon="-3.52879">
        <ele>19</ele>
        <time>2019-07-17T15:46:30Z</time>
      </trkpt>
      <trkpt lat="47.80597" lon="-3.52885">
        <ele>19</ele>
        <time>2019-07-17T15:46:31Z</time>
      </trkpt>
      <trkpt lat="47.80598" lon="-3.52889">
        <ele>19</ele>
        <time>2019-07-17T15:46:32Z</time>
      </trkpt>
      <trkpt lat="47.80597" lon="-3.52893">
        <ele>19</ele>
        <time>2019-07-17T15:46:33Z</time>
      </trkpt>
      <trkpt lat="47.80596" lon="-3.52896">
        <ele>19</ele>
        <time>2019-07-17T15:46:34Z</time>
      </trkpt>
      <trkpt lat="47.80595" lon="-3.52899">
        <ele>19</ele>
        <time>2019-07-17T15:46:35Z</time>
      </trkpt>
      <trkpt lat="47.80595" lon="-3.52899">
        <ele>19</ele>
        <time>2019-07-17T15:46:36Z</time>
      </trkpt>
      <trkpt lat="47.80592" lon="-3.52906">
        <ele>20</ele>
        <time>2019-07-17T15:46:37Z</time>
      </trkpt>
      <trkpt lat="47.80591" lon="-3.52909">
        <ele>20</ele>
        <time>2019-07-17T15:46:38Z</time>
      </trkpt>
      <trkpt lat="47.80591" lon="-3.52914">
        <ele>20</ele>
        <time>2019-07-17T15:46:39Z</time>
      </trkpt>
      <trkpt lat="47.80592" lon="-3.52918">
        <ele>20</ele>
        <time>2019-07-17T15:46:40Z</time>
      </trkpt>
      <trkpt lat="47.80592" lon="-3.52921">
        <ele>20</ele>
        <time>2019-07-17T15:46:41Z</time>
      </trkpt>
      <trkpt lat="47.80591" lon="-3.52923">
        <ele>21</ele>
        <time>2019-07-17T15:46:42Z</time>
      </trkpt>
      <trkpt lat="47.80591" lon="-3.52927">
        <ele>21</ele>
        <time>2019-07-17T15:46:43Z</time>
      </trkpt>
      <trkpt lat="47.8059" lon="-3.5293">
        <ele>21</ele>
        <time>2019-07-17T15:46:44Z</time>
      </trkpt>
      <trkpt lat="47.8059" lon="-3.52933">
        <ele>22</ele>
        <time>2019-07-17T15:46:45Z</time>
      </trkpt>
      <trkpt lat="47.8059" lon="-3.52937">
        <ele>22</ele>
        <time>2019-07-17T15:46:46Z</time>
      </trkpt>
      <trkpt lat="47.8059" lon="-3.52941">
        <ele>22</ele>
        <time>2019-07-17T15:46:47Z</time>
      </trkpt>
      <trkpt lat="47.8059" lon="-3.52946">
        <ele>23</ele>
        <time>2019-07-17T15:46:48Z</time>
      </trkpt>
      <trkpt lat="47.8059" lon="-3.5295">
        <ele>23</ele>
        <time>2019-07-17T15:46:49Z</time>
      </trkpt>
      <trkpt lat="47.8059" lon="-3.5295">
        <ele>23</ele>
        <time>2019-07-17T15:46:50Z</time>
      </trkpt>
      <trkpt lat="47.80589" lon="-3.52954">
        <ele>23</ele>
        <time>2019-07-17T15:46:51Z</time>
      </trkpt>
      <trkpt lat="47.80586" lon="-3.52963">
        <ele>24</ele>
        <time>2019-07-17T15:46:52Z</time>
      </trkpt>
      <trkpt lat="47.80586" lon="-3.52967">
        <ele>24</ele>
        <time>2019-07-17T15:46:53Z</time>
      </trkpt>
      <trkpt lat="47.80585" lon="-3.52971">
        <ele>25</ele>
        <time>2019-07-17T15:46:54Z</time>
      </trkpt>
      <trkpt lat="47.80585" lon="-3.52976">
        <ele>25</ele>
        <time>2019-07-17T15:46:55Z</time>
      </trkpt>
      <trkpt lat="47.80583" lon="-3.52981">
        <ele>25</ele>
        <time>2019-07-17T15:46:56Z</time>
      </trkpt>
      <trkpt lat="47.80583" lon="-3.52985">
        <ele>25</ele>
        <time>2019-07-17T15:46:57Z</time>
      </trkpt>
      <trkpt lat="47.80582" lon="-3.5299">
        <ele>26</ele>
        <time>2019-07-17T15:46:58Z</time>
      </trkpt>
      <trkpt lat="47.80581" lon="-3.52995">
        <ele>26</ele>
        <time>2019-07-17T15:46:59Z</time>
      </trkpt>
      <trkpt lat="47.8058" lon="-3.53">
        <ele>26</ele>
        <time>2019-07-17T15:47:00Z</time>
      </trkpt>
      <trkpt lat="47.8058" lon="-3.53004">
        <ele>26</ele>
        <time>2019-07-17T15:47:01Z</time>
      </trkpt>
      <trkpt lat="47.80579" lon="-3.53009">
        <ele>27</ele>
        <time>2019-07-17T15:47:02Z</time>
      </trkpt>
      <trkpt lat="47.80579" lon="-3.53009">
        <ele>27</ele>
        <time>2019-07-17T15:47:03Z</time>
      </trkpt>
      <trkpt lat="47.80577" lon="-3.53018">
        <ele>27</ele>
        <time>2019-07-17T15:47:04Z</time>
      </trkpt>
      <trkpt lat="47.80576" lon="-3.53022">
        <ele>27</ele>
        <time>2019-07-17T15:47:05Z</time>
      </trkpt>
      <trkpt lat="47.80575" lon="-3.53029">
        <ele>27</ele>
        <time>2019-07-17T15:47:06Z</time>
      </trkpt>
      <trkpt lat="47.80573" lon="-3.53036">
        <ele>27</ele>
        <time>2019-07-17T15:47:07Z</time>
      </trkpt>
      <trkpt lat="47.8057" lon="-3.53043">
        <ele>27</ele>
        <time>2019-07-17T15:47:08Z</time>
      </trkpt>
      <trkpt lat="47.80569" lon="-3.5305">
        <ele>27</ele>
        <time>2019-07-17T15:47:09Z</time>
      </trkpt>
      <trkpt lat="47.80569" lon="-3.5305">
        <ele>27</ele>
        <time>2019-07-17T15:47:10Z</time>
      </trkpt>
      <trkpt lat="47.80568" lon="-3.53056">
        <ele>28</ele>
        <time>2019-07-17T15:47:11Z</time>
      </trkpt>
      <trkpt lat="47.80567" lon="-3.53071">
        <ele>28</ele>
        <time>2019-07-17T15:47:12Z</time>
      </trkpt>
      <trkpt lat="47.80567" lon="-3.53076">
        <ele>28</ele>
        <time>2019-07-17T15:47:13Z</time>
      </trkpt>
      <trkpt lat="47.80567" lon="-3.53076">
        <ele>28</ele>
        <time>2019-07-17T15:47:14Z</time>
      </trkpt>
      <trkpt lat="47.80567" lon="-3.53081">
        <ele>28</ele>
        <time>2019-07-17T15:47:15Z</time>
      </trkpt>
      <trkpt lat="47.80567" lon="-3.53085">
        <ele>28</ele>
        <time>2019-07-17T15:47:16Z</time>
      </trkpt>
      <trkpt lat="47.80568" lon="-3.53088">
        <ele>28</ele>
        <time>2019-07-17T15:47:17Z</time>
      </trkpt>
      <trkpt lat="47.80569" lon="-3.53097">
        <ele>28</ele>
        <time>2019-07-17T15:47:18Z</time>
      </trkpt>
      <trkpt lat="47.8057" lon="-3.53102">
        <ele>28</ele>
        <time>2019-07-17T15:47:19Z</time>
      </trkpt>
      <trkpt lat="47.8057" lon="-3.53106">
        <ele>28</ele>
        <time>2019-07-17T15:47:20Z</time>
      </trkpt>
      <trkpt lat="47.80571" lon="-3.53111">
        <ele>28</ele>
        <time>2019-07-17T15:47:21Z</time>
      </trkpt>
      <trkpt lat="47.80572" lon="-3.53115">
        <ele>28</ele>
        <time>2019-07-17T15:47:22Z</time>
      </trkpt>
      <trkpt lat="47.80572" lon="-3.53115">
        <ele>28</ele>
        <time>2019-07-17T15:47:23Z</time>
      </trkpt>
      <trkpt lat="47.80573" lon="-3.5312">
        <ele>28</ele>
        <time>2019-07-17T15:47:24Z</time>
      </trkpt>
      <trkpt lat="47.80574" lon="-3.53129">
        <ele>28</ele>
        <time>2019-07-17T15:47:25Z</time>
      </trkpt>
      <trkpt lat="47.80574" lon="-3.53134">
        <ele>29</ele>
        <time>2019-07-17T15:47:26Z</time>
      </trkpt>
      <trkpt lat="47.80574" lon="-3.53134">
        <ele>29</ele>
        <time>2019-07-17T15:47:27Z</time>
      </trkpt>
      <trkpt lat="47.80576" lon="-3.53144">
        <ele>29</ele>
        <time>2019-07-17T15:47:28Z</time>
      </trkpt>
      <trkpt lat="47.80576" lon="-3.53148">
        <ele>29</ele>
        <time>2019-07-17T15:47:29Z</time>
      </trkpt>
      <trkpt lat="47.80577" lon="-3.53153">
        <ele>29</ele>
        <time>2019-07-17T15:47:30Z</time>
      </trkpt>
      <trkpt lat="47.80578" lon="-3.53157">
        <ele>30</ele>
        <time>2019-07-17T15:47:31Z</time>
      </trkpt>
      <trkpt lat="47.80578" lon="-3.53157">
        <ele>30</ele>
        <time>2019-07-17T15:47:32Z</time>
      </trkpt>
      <trkpt lat="47.80578" lon="-3.53161">
        <ele>30</ele>
        <time>2019-07-17T15:47:33Z</time>
      </trkpt>
      <trkpt lat="47.80579" lon="-3.53165">
        <ele>30</ele>
        <time>2019-07-17T15:47:34Z</time>
      </trkpt>
      <trkpt lat="47.8058" lon="-3.53168">
        <ele>30</ele>
        <time>2019-07-17T15:47:35Z</time>
      </trkpt>
      <trkpt lat="47.80581" lon="-3.53171">
        <ele>31</ele>
        <time>2019-07-17T15:47:36Z</time>
      </trkpt>
      <trkpt lat="47.80582" lon="-3.53174">
        <ele>31</ele>
        <time>2019-07-17T15:47:37Z</time>
      </trkpt>
      <trkpt lat="47.80584" lon="-3.53176">
        <ele>31</ele>
        <time>2019-07-17T15:47:38Z</time>
      </trkpt>
      <trkpt lat="47.80585" lon="-3.53179">
        <ele>32</ele>
        <time>2019-07-17T15:47:39Z</time>
      </trkpt>
      <trkpt lat="47.80587" lon="-3.53187">
        <ele>32</ele>
        <time>2019-07-17T15:47:40Z</time>
      </trkpt>
      <trkpt lat="47.80587" lon="-3.53187">
        <ele>32</ele>
        <time>2019-07-17T15:47:41Z</time>
      </trkpt>
      <trkpt lat="47.80588" lon="-3.53199">
        <ele>32</ele>
        <time>2019-07-17T15:47:42Z</time>
      </trkpt>
      <trkpt lat="47.80588" lon="-3.53204">
        <ele>33</ele>
        <time>2019-07-17T15:47:43Z</time>
      </trkpt>
      <trkpt lat="47.80588" lon="-3.5321">
        <ele>33</ele>
        <time>2019-07-17T15:47:44Z</time>
      </trkpt>
      <trkpt lat="47.80589" lon="-3.53214">
        <ele>33</ele>
        <time>2019-07-17T15:47:45Z</time>
      </trkpt>
      <trkpt lat="47.80589" lon="-3.53217">
        <ele>33</ele>
        <time>2019-07-17T15:47:46Z</time>
      </trkpt>
      <trkpt lat="47.80589" lon="-3.53217">
        <ele>33</ele>
        <time>2019-07-17T15:47:47Z</time>
      </trkpt>
      <trkpt lat="47.80589" lon="-3.53224">
        <ele>34</ele>
        <time>2019-07-17T15:47:48Z</time>
      </trkpt>
      <trkpt lat="47.80589" lon="-3.53224">
        <ele>34</ele>
        <time>2019-07-17T15:47:49Z</time>
      </trkpt>
      <trkpt lat="47.80591" lon="-3.53231">
        <ele>34</ele>
        <time>2019-07-17T15:47:50Z</time>
      </trkpt>
      <trkpt lat="47.80592" lon="-3.53235">
        <ele>34</ele>
        <time>2019-07-17T15:47:51Z</time>
      </trkpt>
      <trkpt lat="47.80592" lon="-3.53235">
        <ele>34</ele>
        <time>2019-07-17T15:47:52Z</time>
      </trkpt>
      <trkpt lat="47.80592" lon="-3.53239">
        <ele>35</ele>
        <time>2019-07-17T15:47:53Z</time>
      </trkpt>
      <trkpt lat="47.80594" lon="-3.53245">
        <ele>35</ele>
        <time>2019-07-17T15:47:54Z</time>
      </trkpt>
      <trkpt lat="47.80595" lon="-3.53249">
        <ele>35</ele>
        <time>2019-07-17T15:47:55Z</time>
      </trkpt>
      <trkpt lat="47.80596" lon="-3.53253">
        <ele>36</ele>
        <time>2019-07-17T15:47:56Z</time>
      </trkpt>
      <trkpt lat="47.80596" lon="-3.53253">
        <ele>36</ele>
        <time>2019-07-17T15:47:57Z</time>
      </trkpt>
      <trkpt lat="47.80598" lon="-3.53262">
        <ele>36</ele>
        <time>2019-07-17T15:47:58Z</time>
      </trkpt>
      <trkpt lat="47.80598" lon="-3.53262">
        <ele>36</ele>
        <time>2019-07-17T15:47:59Z</time>
      </trkpt>
      <trkpt lat="47.80601" lon="-3.5327">
        <ele>37</ele>
        <time>2019-07-17T15:48:00Z</time>
      </trkpt>
      <trkpt lat="47.80602" lon="-3.53275">
        <ele>37</ele>
        <time>2019-07-17T15:48:01Z</time>
      </trkpt>
      <trkpt lat="47.80603" lon="-3.53279">
        <ele>37</ele>
        <time>2019-07-17T15:48:02Z</time>
      </trkpt>
      <trkpt lat="47.80603" lon="-3.53279">
        <ele>37</ele>
        <time>2019-07-17T15:48:03Z</time>
      </trkpt>
      <trkpt lat="47.80604" lon="-3.53283">
        <ele>37</ele>
        <time>2019-07-17T15:48:04Z</time>
      </trkpt>
      <trkpt lat="47.80604" lon="-3.53292">
        <ele>37</ele>
        <time>2019-07-17T15:48:05Z</time>
      </trkpt>
      <trkpt lat="47.80605" lon="-3.53296">
        <ele>37</ele>
        <time>2019-07-17T15:48:06Z</time>
      </trkpt>
      <trkpt lat="47.80605" lon="-3.53296">
        <ele>37</ele>
        <time>2019-07-17T15:48:07Z</time>
      </trkpt>
      <trkpt lat="47.80605" lon="-3.53303">
        <ele>38</ele>
        <time>2019-07-17T15:48:08Z</time>
      </trkpt>
      <trkpt lat="47.80605" lon="-3.53306">
        <ele>38</ele>
        <time>2019-07-17T15:48:09Z</time>
      </trkpt>
      <trkpt lat="47.80605" lon="-3.53306">
        <ele>38</ele>
        <time>2019-07-17T15:48:10Z</time>
      </trkpt>
      <trkpt lat="47.80608" lon="-3.53314">
        <ele>38</ele>
        <time>2019-07-17T15:48:11Z</time>
      </trkpt>
      <trkpt lat="47.80609" lon="-3.53318">
        <ele>38</ele>
        <time>2019-07-17T15:48:12Z</time>
      </trkpt>
      <trkpt lat="47.80609" lon="-3.53318">
        <ele>38</ele>
        <time>2019-07-17T15:48:13Z</time>
      </trkpt>
      <trkpt lat="47.8061" lon="-3.53322">
        <ele>39</ele>
        <time>2019-07-17T15:48:14Z</time>
      </trkpt>
      <trkpt lat="47.80611" lon="-3.53325">
        <ele>39</ele>
        <time>2019-07-17T15:48:15Z</time>
      </trkpt>
      <trkpt lat="47.80613" lon="-3.53332">
        <ele>39</ele>
        <time>2019-07-17T15:48:16Z</time>
      </trkpt>
      <trkpt lat="47.80613" lon="-3.53332">
        <ele>39</ele>
        <time>2019-07-17T15:48:17Z</time>
      </trkpt>
      <trkpt lat="47.80615" lon="-3.53337">
        <ele>39</ele>
        <time>2019-07-17T15:48:18Z</time>
      </trkpt>
      <trkpt lat="47.80616" lon="-3.53341">
        <ele>39</ele>
        <time>2019-07-17T15:48:19Z</time>
      </trkpt>
      <trkpt lat="47.80617" lon="-3.53345">
        <ele>40</ele>
        <time>2019-07-17T15:48:20Z</time>
      </trkpt>
      <trkpt lat="47.80619" lon="-3.53349">
        <ele>40</ele>
        <time>2019-07-17T15:48:21Z</time>
      </trkpt>
      <trkpt lat="47.8062" lon="-3.53354">
        <ele>40</ele>
        <time>2019-07-17T15:48:22Z</time>
      </trkpt>
      <trkpt lat="47.80624" lon="-3.53362">
        <ele>41</ele>
        <time>2019-07-17T15:48:23Z</time>
      </trkpt>
      <trkpt lat="47.80626" lon="-3.53367">
        <ele>41</ele>
        <time>2019-07-17T15:48:24Z</time>
      </trkpt>
      <trkpt lat="47.80628" lon="-3.53371">
        <ele>41</ele>
        <time>2019-07-17T15:48:25Z</time>
      </trkpt>
      <trkpt lat="47.80631" lon="-3.53374">
        <ele>41</ele>
        <time>2019-07-17T15:48:26Z</time>
      </trkpt>
      <trkpt lat="47.80634" lon="-3.53375">
        <ele>41</ele>
        <time>2019-07-17T15:48:27Z</time>
      </trkpt>
      <trkpt lat="47.80636" lon="-3.53374">
        <ele>41</ele>
        <time>2019-07-17T15:48:28Z</time>
      </trkpt>
      <trkpt lat="47.80637" lon="-3.53373">
        <ele>41</ele>
        <time>2019-07-17T15:48:29Z</time>
      </trkpt>
      <trkpt lat="47.80638" lon="-3.53372">
        <ele>41</ele>
        <time>2019-07-17T15:48:30Z</time>
      </trkpt>
      <trkpt lat="47.8064" lon="-3.53371">
        <ele>41</ele>
        <time>2019-07-17T15:48:31Z</time>
      </trkpt>
      <trkpt lat="47.80641" lon="-3.53369">
        <ele>41</ele>
        <time>2019-07-17T15:48:32Z</time>
      </trkpt>
      <trkpt lat="47.80643" lon="-3.53367">
        <ele>42</ele>
        <time>2019-07-17T15:48:33Z</time>
      </trkpt>
      <trkpt lat="47.80645" lon="-3.53364">
        <ele>42</ele>
        <time>2019-07-17T15:48:34Z</time>
      </trkpt>
      <trkpt lat="47.80646" lon="-3.53362">
        <ele>42</ele>
        <time>2019-07-17T15:48:35Z</time>
      </trkpt>
      <trkpt lat="47.80647" lon="-3.5336">
        <ele>42</ele>
        <time>2019-07-17T15:48:36Z</time>
      </trkpt>
      <trkpt lat="47.80648" lon="-3.53357">
        <ele>42</ele>
        <time>2019-07-17T15:48:37Z</time>
      </trkpt>
      <trkpt lat="47.8065" lon="-3.53355">
        <ele>42</ele>
        <time>2019-07-17T15:48:38Z</time>
      </trkpt>
      <trkpt lat="47.80651" lon="-3.53352">
        <ele>42</ele>
        <time>2019-07-17T15:48:39Z</time>
      </trkpt>
      <trkpt lat="47.80653" lon="-3.53348">
        <ele>42</ele>
        <time>2019-07-17T15:48:40Z</time>
      </trkpt>
      <trkpt lat="47.80655" lon="-3.53345">
        <ele>42</ele>
        <time>2019-07-17T15:48:41Z</time>
      </trkpt>
      <trkpt lat="47.80658" lon="-3.53342">
        <ele>42</ele>
        <time>2019-07-17T15:48:42Z</time>
      </trkpt>
      <trkpt lat="47.8066" lon="-3.53338">
        <ele>42</ele>
        <time>2019-07-17T15:48:43Z</time>
      </trkpt>
      <trkpt lat="47.80663" lon="-3.53334">
        <ele>42</ele>
        <time>2019-07-17T15:48:44Z</time>
      </trkpt>
      <trkpt lat="47.80666" lon="-3.5333">
        <ele>42</ele>
        <time>2019-07-17T15:48:45Z</time>
      </trkpt>
      <trkpt lat="47.80669" lon="-3.53327">
        <ele>42</ele>
        <time>2019-07-17T15:48:46Z</time>
      </trkpt>
      <trkpt lat="47.80672" lon="-3.53325">
        <ele>42</ele>
        <time>2019-07-17T15:48:47Z</time>
      </trkpt>
      <trkpt lat="47.80675" lon="-3.53325">
        <ele>42</ele>
        <time>2019-07-17T15:48:48Z</time>
      </trkpt>
      <trkpt lat="47.80679" lon="-3.53325">
        <ele>42</ele>
        <time>2019-07-17T15:48:49Z</time>
      </trkpt>
      <trkpt lat="47.80683" lon="-3.53328">
        <ele>42</ele>
        <time>2019-07-17T15:48:50Z</time>
      </trkpt>
      <trkpt lat="47.80687" lon="-3.53331">
        <ele>42</ele>
        <time>2019-07-17T15:48:51Z</time>
      </trkpt>
      <trkpt lat="47.80691" lon="-3.53334">
        <ele>42</ele>
        <time>2019-07-17T15:48:52Z</time>
      </trkpt>
      <trkpt lat="47.80695" lon="-3.53337">
        <ele>42</ele>
        <time>2019-07-17T15:48:53Z</time>
      </trkpt>
      <trkpt lat="47.80698" lon="-3.53341">
        <ele>42</ele>
        <time>2019-07-17T15:48:54Z</time>
      </trkpt>
      <trkpt lat="47.80702" lon="-3.53344">
        <ele>42</ele>
        <time>2019-07-17T15:48:55Z</time>
      </trkpt>
      <trkpt lat="47.80705" lon="-3.53348">
        <ele>42</ele>
        <time>2019-07-17T15:48:56Z</time>
      </trkpt>
      <trkpt lat="47.80709" lon="-3.53351">
        <ele>42</ele>
        <time>2019-07-17T15:48:57Z</time>
      </trkpt>
      <trkpt lat="47.80713" lon="-3.53355">
        <ele>42</ele>
        <time>2019-07-17T15:48:58Z</time>
      </trkpt>
      <trkpt lat="47.80717" lon="-3.53358">
        <ele>42</ele>
        <time>2019-07-17T15:48:59Z</time>
      </trkpt>
      <trkpt lat="47.80721" lon="-3.53363">
        <ele>42</ele>
        <time>2019-07-17T15:49:00Z</time>
      </trkpt>
      <trkpt lat="47.80725" lon="-3.53367">
        <ele>42</ele>
        <time>2019-07-17T15:49:01Z</time>
      </trkpt>
      <trkpt lat="47.80728" lon="-3.53371">
        <ele>42</ele>
        <time>2019-07-17T15:49:02Z</time>
      </trkpt>
      <trkpt lat="47.80731" lon="-3.53374">
        <ele>42</ele>
        <time>2019-07-17T15:49:03Z</time>
      </trkpt>
      <trkpt lat="47.80734" lon="-3.53378">
        <ele>42</ele>
        <time>2019-07-17T15:49:04Z</time>
      </trkpt>
      <trkpt lat="47.80737" lon="-3.53382">
        <ele>42</ele>
        <time>2019-07-17T15:49:05Z</time>
      </trkpt>
      <trkpt lat="47.8074" lon="-3.53387">
        <ele>42</ele>
        <time>2019-07-17T15:49:06Z</time>
      </trkpt>
      <trkpt lat="47.80743" lon="-3.53391">
        <ele>42</ele>
        <time>2019-07-17T15:49:07Z</time>
      </trkpt>
      <trkpt lat="47.80746" lon="-3.53395">
        <ele>42</ele>
        <time>2019-07-17T15:49:08Z</time>
      </trkpt>
      <trkpt lat="47.8075" lon="-3.534">
        <ele>42</ele>
        <time>2019-07-17T15:49:09Z</time>
      </trkpt>
      <trkpt lat="47.80753" lon="-3.53405">
        <ele>42</ele>
        <time>2019-07-17T15:49:10Z</time>
      </trkpt>
      <trkpt lat="47.80757" lon="-3.5341">
        <ele>42</ele>
        <time>2019-07-17T15:49:11Z</time>
      </trkpt>
      <trkpt lat="47.80761" lon="-3.53415">
        <ele>42</ele>
        <time>2019-07-17T15:49:12Z</time>
      </trkpt>
      <trkpt lat="47.80764" lon="-3.53421">
        <ele>42</ele>
        <time>2019-07-17T15:49:13Z</time>
      </trkpt>
      <trkpt lat="47.80768" lon="-3.53427">
        <ele>41</ele>
        <time>2019-07-17T15:49:14Z</time>
      </trkpt>
      <trkpt lat="47.80772" lon="-3.53433">
        <ele>41</ele>
        <time>2019-07-17T15:49:15Z</time>
      </trkpt>
      <trkpt lat="47.80775" lon="-3.5344">
        <ele>41</ele>
        <time>2019-07-17T15:49:16Z</time>
      </trkpt>
      <trkpt lat="47.80779" lon="-3.53446">
        <ele>41</ele>
        <time>2019-07-17T15:49:17Z</time>
      </trkpt>
      <trkpt lat="47.80782" lon="-3.53452">
        <ele>41</ele>
        <time>2019-07-17T15:49:18Z</time>
      </trkpt>
      <trkpt lat="47.80786" lon="-3.53459">
        <ele>41</ele>
        <time>2019-07-17T15:49:19Z</time>
      </trkpt>
      <trkpt lat="47.8079" lon="-3.53466">
        <ele>41</ele>
        <time>2019-07-17T15:49:20Z</time>
      </trkpt>
      <trkpt lat="47.80794" lon="-3.53473">
        <ele>41</ele>
        <time>2019-07-17T15:49:21Z</time>
      </trkpt>
      <trkpt lat="47.80798" lon="-3.5348">
        <ele>41</ele>
        <time>2019-07-17T15:49:22Z</time>
      </trkpt>
      <trkpt lat="47.80802" lon="-3.53486">
        <ele>41</ele>
        <time>2019-07-17T15:49:23Z</time>
      </trkpt>
      <trkpt lat="47.80806" lon="-3.53492">
        <ele>41</ele>
        <time>2019-07-17T15:49:24Z</time>
      </trkpt>
      <trkpt lat="47.80809" lon="-3.53498">
        <ele>41</ele>
        <time>2019-07-17T15:49:25Z</time>
      </trkpt>
      <trkpt lat="47.80813" lon="-3.53505">
        <ele>41</ele>
        <time>2019-07-17T15:49:26Z</time>
      </trkpt>
      <trkpt lat="47.80817" lon="-3.53512">
        <ele>41</ele>
        <time>2019-07-17T15:49:27Z</time>
      </trkpt>
      <trkpt lat="47.80821" lon="-3.53518">
        <ele>40</ele>
        <time>2019-07-17T15:49:28Z</time>
      </trkpt>
      <trkpt lat="47.80825" lon="-3.53523">
        <ele>40</ele>
        <time>2019-07-17T15:49:29Z</time>
      </trkpt>
      <trkpt lat="47.80828" lon="-3.53528">
        <ele>40</ele>
        <time>2019-07-17T15:49:30Z</time>
      </trkpt>
      <trkpt lat="47.80832" lon="-3.53533">
        <ele>40</ele>
        <time>2019-07-17T15:49:31Z</time>
      </trkpt>
      <trkpt lat="47.80836" lon="-3.53539">
        <ele>40</ele>
        <time>2019-07-17T15:49:32Z</time>
      </trkpt>
      <trkpt lat="47.80839" lon="-3.53546">
        <ele>40</ele>
        <time>2019-07-17T15:49:33Z</time>
      </trkpt>
      <trkpt lat="47.80842" lon="-3.53552">
        <ele>40</ele>
        <time>2019-07-17T15:49:34Z</time>
      </trkpt>
      <trkpt lat="47.80845" lon="-3.53559">
        <ele>40</ele>
        <time>2019-07-17T15:49:35Z</time>
      </trkpt>
      <trkpt lat="47.80849" lon="-3.53565">
        <ele>40</ele>
        <time>2019-07-17T15:49:36Z</time>
      </trkpt>
      <trkpt lat="47.80853" lon="-3.53571">
        <ele>40</ele>
        <time>2019-07-17T15:49:37Z</time>
      </trkpt>
      <trkpt lat="47.80857" lon="-3.53577">
        <ele>40</ele>
        <time>2019-07-17T15:49:38Z</time>
      </trkpt>
      <trkpt lat="47.80861" lon="-3.53581">
        <ele>40</ele>
        <time>2019-07-17T15:49:39Z</time>
      </trkpt>
      <trkpt lat="47.80865" lon="-3.53587">
        <ele>40</ele>
        <time>2019-07-17T15:49:40Z</time>
      </trkpt>
      <trkpt lat="47.80869" lon="-3.53592">
        <ele>40</ele>
        <time>2019-07-17T15:49:41Z</time>
      </trkpt>
      <trkpt lat="47.80873" lon="-3.53597">
        <ele>40</ele>
        <time>2019-07-17T15:49:42Z</time>
      </trkpt>
      <trkpt lat="47.80876" lon="-3.53602">
        <ele>40</ele>
        <time>2019-07-17T15:49:43Z</time>
      </trkpt>
      <trkpt lat="47.8088" lon="-3.53607">
        <ele>40</ele>
        <time>2019-07-17T15:49:44Z</time>
      </trkpt>
      <trkpt lat="47.80883" lon="-3.53611">
        <ele>40</ele>
        <time>2019-07-17T15:49:45Z</time>
      </trkpt>
      <trkpt lat="47.80887" lon="-3.53616">
        <ele>40</ele>
        <time>2019-07-17T15:49:46Z</time>
      </trkpt>
      <trkpt lat="47.80892" lon="-3.53621">
        <ele>40</ele>
        <time>2019-07-17T15:49:47Z</time>
      </trkpt>
      <trkpt lat="47.80897" lon="-3.53627">
        <ele>40</ele>
        <time>2019-07-17T15:49:48Z</time>
      </trkpt>
      <trkpt lat="47.80901" lon="-3.53632">
        <ele>40</ele>
        <time>2019-07-17T15:49:49Z</time>
      </trkpt>
      <trkpt lat="47.80905" lon="-3.53637">
        <ele>40</ele>
        <time>2019-07-17T15:49:50Z</time>
      </trkpt>
      <trkpt lat="47.8091" lon="-3.53643">
        <ele>40</ele>
        <time>2019-07-17T15:49:51Z</time>
      </trkpt>
      <trkpt lat="47.80914" lon="-3.53648">
        <ele>41</ele>
        <time>2019-07-17T15:49:52Z</time>
      </trkpt>
      <trkpt lat="47.80919" lon="-3.53653">
        <ele>41</ele>
        <time>2019-07-17T15:49:53Z</time>
      </trkpt>
      <trkpt lat="47.80923" lon="-3.53657">
        <ele>41</ele>
        <time>2019-07-17T15:49:54Z</time>
      </trkpt>
      <trkpt lat="47.80928" lon="-3.53662">
        <ele>41</ele>
        <time>2019-07-17T15:49:55Z</time>
      </trkpt>
      <trkpt lat="47.80932" lon="-3.53666">
        <ele>41</ele>
        <time>2019-07-17T15:49:56Z</time>
      </trkpt>
      <trkpt lat="47.80936" lon="-3.53672">
        <ele>41</ele>
        <time>2019-07-17T15:49:57Z</time>
      </trkpt>
      <trkpt lat="47.80941" lon="-3.53677">
        <ele>42</ele>
        <time>2019-07-17T15:49:58Z</time>
      </trkpt>
      <trkpt lat="47.80946" lon="-3.53682">
        <ele>42</ele>
        <time>2019-07-17T15:49:59Z</time>
      </trkpt>
      <trkpt lat="47.8095" lon="-3.53687">
        <ele>42</ele>
        <time>2019-07-17T15:50:00Z</time>
      </trkpt>
      <trkpt lat="47.80954" lon="-3.53691">
        <ele>42</ele>
        <time>2019-07-17T15:50:01Z</time>
      </trkpt>
      <trkpt lat="47.80959" lon="-3.53696">
        <ele>42</ele>
        <time>2019-07-17T15:50:02Z</time>
      </trkpt>
      <trkpt lat="47.80963" lon="-3.53701">
        <ele>42</ele>
        <time>2019-07-17T15:50:03Z</time>
      </trkpt>
      <trkpt lat="47.80967" lon="-3.53706">
        <ele>42</ele>
        <time>2019-07-17T15:50:04Z</time>
      </trkpt>
      <trkpt lat="47.80971" lon="-3.53711">
        <ele>42</ele>
        <time>2019-07-17T15:50:05Z</time>
      </trkpt>
      <trkpt lat="47.80975" lon="-3.53716">
        <ele>42</ele>
        <time>2019-07-17T15:50:06Z</time>
      </trkpt>
      <trkpt lat="47.80979" lon="-3.53721">
        <ele>42</ele>
        <time>2019-07-17T15:50:07Z</time>
      </trkpt>
      <trkpt lat="47.80983" lon="-3.53725">
        <ele>43</ele>
        <time>2019-07-17T15:50:08Z</time>
      </trkpt>
      <trkpt lat="47.80987" lon="-3.53731">
        <ele>43</ele>
        <time>2019-07-17T15:50:09Z</time>
      </trkpt>
      <trkpt lat="47.80991" lon="-3.53736">
        <ele>43</ele>
        <time>2019-07-17T15:50:10Z</time>
      </trkpt>
      <trkpt lat="47.80996" lon="-3.53741">
        <ele>43</ele>
        <time>2019-07-17T15:50:11Z</time>
      </trkpt>
      <trkpt lat="47.81" lon="-3.53745">
        <ele>43</ele>
        <time>2019-07-17T15:50:12Z</time>
      </trkpt>
      <trkpt lat="47.81004" lon="-3.53749">
        <ele>43</ele>
        <time>2019-07-17T15:50:13Z</time>
      </trkpt>
      <trkpt lat="47.81007" lon="-3.53753">
        <ele>43</ele>
        <time>2019-07-17T15:50:14Z</time>
      </trkpt>
      <trkpt lat="47.81011" lon="-3.53758">
        <ele>43</ele>
        <time>2019-07-17T15:50:15Z</time>
      </trkpt>
      <trkpt lat="47.81015" lon="-3.53763">
        <ele>43</ele>
        <time>2019-07-17T15:50:16Z</time>
      </trkpt>
      <trkpt lat="47.81019" lon="-3.53768">
        <ele>44</ele>
        <time>2019-07-17T15:50:17Z</time>
      </trkpt>
      <trkpt lat="47.81023" lon="-3.53773">
        <ele>44</ele>
        <time>2019-07-17T15:50:18Z</time>
      </trkpt>
      <trkpt lat="47.81027" lon="-3.53778">
        <ele>44</ele>
        <time>2019-07-17T15:50:19Z</time>
      </trkpt>
      <trkpt lat="47.81031" lon="-3.53781">
        <ele>44</ele>
        <time>2019-07-17T15:50:20Z</time>
      </trkpt>
      <trkpt lat="47.81034" lon="-3.53785">
        <ele>44</ele>
        <time>2019-07-17T15:50:21Z</time>
      </trkpt>
      <trkpt lat="47.81038" lon="-3.53788">
        <ele>44</ele>
        <time>2019-07-17T15:50:22Z</time>
      </trkpt>
      <trkpt lat="47.81041" lon="-3.53792">
        <ele>44</ele>
        <time>2019-07-17T15:50:23Z</time>
      </trkpt>
      <trkpt lat="47.81045" lon="-3.53797">
        <ele>44</ele>
        <time>2019-07-17T15:50:24Z</time>
      </trkpt>
      <trkpt lat="47.8105" lon="-3.53803">
        <ele>44</ele>
        <time>2019-07-17T15:50:25Z</time>
      </trkpt>
      <trkpt lat="47.81054" lon="-3.53809">
        <ele>44</ele>
        <time>2019-07-17T15:50:26Z</time>
      </trkpt>
      <trkpt lat="47.81058" lon="-3.53815">
        <ele>44</ele>
        <time>2019-07-17T15:50:27Z</time>
      </trkpt>
      <trkpt lat="47.81062" lon="-3.53821">
        <ele>44</ele>
        <time>2019-07-17T15:50:28Z</time>
      </trkpt>
      <trkpt lat="47.81067" lon="-3.53827">
        <ele>44</ele>
        <time>2019-07-17T15:50:29Z</time>
      </trkpt>
      <trkpt lat="47.81072" lon="-3.53833">
        <ele>44</ele>
        <time>2019-07-17T15:50:30Z</time>
      </trkpt>
      <trkpt lat="47.81078" lon="-3.5384">
        <ele>44</ele>
        <time>2019-07-17T15:50:31Z</time>
      </trkpt>
      <trkpt lat="47.81083" lon="-3.53847">
        <ele>44</ele>
        <time>2019-07-17T15:50:32Z</time>
      </trkpt>
      <trkpt lat="47.81088" lon="-3.53853">
        <ele>44</ele>
        <time>2019-07-17T15:50:33Z</time>
      </trkpt>
      <trkpt lat="47.81093" lon="-3.5386">
        <ele>44</ele>
        <time>2019-07-17T15:50:34Z</time>
      </trkpt>
      <trkpt lat="47.81097" lon="-3.53867">
        <ele>44</ele>
        <time>2019-07-17T15:50:35Z</time>
      </trkpt>
      <trkpt lat="47.81103" lon="-3.53873">
        <ele>44</ele>
        <time>2019-07-17T15:50:36Z</time>
      </trkpt>
      <trkpt lat="47.81107" lon="-3.5388">
        <ele>44</ele>
        <time>2019-07-17T15:50:37Z</time>
      </trkpt>
      <trkpt lat="47.81112" lon="-3.53887">
        <ele>44</ele>
        <time>2019-07-17T15:50:38Z</time>
      </trkpt>
      <trkpt lat="47.81116" lon="-3.53893">
        <ele>44</ele>
        <time>2019-07-17T15:50:39Z</time>
      </trkpt>
      <trkpt lat="47.81121" lon="-3.539">
        <ele>44</ele>
        <time>2019-07-17T15:50:40Z</time>
      </trkpt>
      <trkpt lat="47.81126" lon="-3.53907">
        <ele>44</ele>
        <time>2019-07-17T15:50:41Z</time>
      </trkpt>
      <trkpt lat="47.81131" lon="-3.53914">
        <ele>43</ele>
        <time>2019-07-17T15:50:42Z</time>
      </trkpt>
      <trkpt lat="47.81135" lon="-3.53921">
        <ele>43</ele>
        <time>2019-07-17T15:50:43Z</time>
      </trkpt>
      <trkpt lat="47.8114" lon="-3.53927">
        <ele>43</ele>
        <time>2019-07-17T15:50:44Z</time>
      </trkpt>
      <trkpt lat="47.81144" lon="-3.53934">
        <ele>43</ele>
        <time>2019-07-17T15:50:45Z</time>
      </trkpt>
      <trkpt lat="47.81149" lon="-3.53941">
        <ele>43</ele>
        <time>2019-07-17T15:50:46Z</time>
      </trkpt>
      <trkpt lat="47.81154" lon="-3.53948">
        <ele>43</ele>
        <time>2019-07-17T15:50:47Z</time>
      </trkpt>
      <trkpt lat="47.81159" lon="-3.53954">
        <ele>43</ele>
        <time>2019-07-17T15:50:48Z</time>
      </trkpt>
      <trkpt lat="47.81164" lon="-3.5396">
        <ele>43</ele>
        <time>2019-07-17T15:50:49Z</time>
      </trkpt>
      <trkpt lat="47.81169" lon="-3.53967">
        <ele>43</ele>
        <time>2019-07-17T15:50:50Z</time>
      </trkpt>
      <trkpt lat="47.81173" lon="-3.53973">
        <ele>43</ele>
        <time>2019-07-17T15:50:51Z</time>
      </trkpt>
      <trkpt lat="47.81177" lon="-3.53979">
        <ele>43</ele>
        <time>2019-07-17T15:50:52Z</time>
      </trkpt>
      <trkpt lat="47.81182" lon="-3.53984">
        <ele>43</ele>
        <time>2019-07-17T15:50:53Z</time>
      </trkpt>
      <trkpt lat="47.81186" lon="-3.5399">
        <ele>43</ele>
        <time>2019-07-17T15:50:54Z</time>
      </trkpt>
      <trkpt lat="47.81189" lon="-3.53996">
        <ele>43</ele>
        <time>2019-07-17T15:50:55Z</time>
      </trkpt>
      <trkpt lat="47.81192" lon="-3.54002">
        <ele>43</ele>
        <time>2019-07-17T15:50:56Z</time>
      </trkpt>
      <trkpt lat="47.81195" lon="-3.54008">
        <ele>43</ele>
        <time>2019-07-17T15:50:57Z</time>
      </trkpt>
      <trkpt lat="47.81199" lon="-3.54015">
        <ele>43</ele>
        <time>2019-07-17T15:50:58Z</time>
      </trkpt>
      <trkpt lat="47.81203" lon="-3.54022">
        <ele>43</ele>
        <time>2019-07-17T15:50:59Z</time>
      </trkpt>
      <trkpt lat="47.81208" lon="-3.54028">
        <ele>43</ele>
        <time>2019-07-17T15:51:00Z</time>
      </trkpt>
      <trkpt lat="47.81212" lon="-3.54035">
        <ele>43</ele>
        <time>2019-07-17T15:51:01Z</time>
      </trkpt>
      <trkpt lat="47.81217" lon="-3.54041">
        <ele>43</ele>
        <time>2019-07-17T15:51:02Z</time>
      </trkpt>
      <trkpt lat="47.81222" lon="-3.54047">
        <ele>43</ele>
        <time>2019-07-17T15:51:03Z</time>
      </trkpt>
      <trkpt lat="47.81227" lon="-3.54051">
        <ele>43</ele>
        <time>2019-07-17T15:51:04Z</time>
      </trkpt>
      <trkpt lat="47.81232" lon="-3.54057">
        <ele>42</ele>
        <time>2019-07-17T15:51:05Z</time>
      </trkpt>
      <trkpt lat="47.81237" lon="-3.54062">
        <ele>42</ele>
        <time>2019-07-17T15:51:06Z</time>
      </trkpt>
      <trkpt lat="47.81241" lon="-3.54066">
        <ele>42</ele>
        <time>2019-07-17T15:51:07Z</time>
      </trkpt>
      <trkpt lat="47.81245" lon="-3.5407">
        <ele>42</ele>
        <time>2019-07-17T15:51:08Z</time>
      </trkpt>
      <trkpt lat="47.8125" lon="-3.54074">
        <ele>42</ele>
        <time>2019-07-17T15:51:09Z</time>
      </trkpt>
      <trkpt lat="47.81254" lon="-3.54078">
        <ele>42</ele>
        <time>2019-07-17T15:51:10Z</time>
      </trkpt>
      <trkpt lat="47.81258" lon="-3.54083">
        <ele>42</ele>
        <time>2019-07-17T15:51:11Z</time>
      </trkpt>
      <trkpt lat="47.81263" lon="-3.54088">
        <ele>41</ele>
        <time>2019-07-17T15:51:12Z</time>
      </trkpt>
      <trkpt lat="47.81268" lon="-3.54092">
        <ele>41</ele>
        <time>2019-07-17T15:51:13Z</time>
      </trkpt>
      <trkpt lat="47.81272" lon="-3.54097">
        <ele>41</ele>
        <time>2019-07-17T15:51:14Z</time>
      </trkpt>
      <trkpt lat="47.81277" lon="-3.54101">
        <ele>41</ele>
        <time>2019-07-17T15:51:15Z</time>
      </trkpt>
      <trkpt lat="47.81281" lon="-3.54104">
        <ele>41</ele>
        <time>2019-07-17T15:51:16Z</time>
      </trkpt>
      <trkpt lat="47.81285" lon="-3.54106">
        <ele>41</ele>
        <time>2019-07-17T15:51:17Z</time>
      </trkpt>
      <trkpt lat="47.81289" lon="-3.54109">
        <ele>41</ele>
        <time>2019-07-17T15:51:18Z</time>
      </trkpt>
      <trkpt lat="47.81293" lon="-3.54111">
        <ele>41</ele>
        <time>2019-07-17T15:51:19Z</time>
      </trkpt>
      <trkpt lat="47.81297" lon="-3.54115">
        <ele>41</ele>
        <time>2019-07-17T15:51:20Z</time>
      </trkpt>
      <trkpt lat="47.81301" lon="-3.54119">
        <ele>41</ele>
        <time>2019-07-17T15:51:21Z</time>
      </trkpt>
      <trkpt lat="47.81306" lon="-3.54122">
        <ele>42</ele>
        <time>2019-07-17T15:51:22Z</time>
      </trkpt>
      <trkpt lat="47.81311" lon="-3.54125">
        <ele>42</ele>
        <time>2019-07-17T15:51:23Z</time>
      </trkpt>
      <trkpt lat="47.81315" lon="-3.54128">
        <ele>42</ele>
        <time>2019-07-17T15:51:24Z</time>
      </trkpt>
      <trkpt lat="47.81319" lon="-3.5413">
        <ele>42</ele>
        <time>2019-07-17T15:51:25Z</time>
      </trkpt>
      <trkpt lat="47.81324" lon="-3.54133">
        <ele>42</ele>
        <time>2019-07-17T15:51:26Z</time>
      </trkpt>
      <trkpt lat="47.81328" lon="-3.54134">
        <ele>42</ele>
        <time>2019-07-17T15:51:27Z</time>
      </trkpt>
      <trkpt lat="47.81333" lon="-3.54136">
        <ele>43</ele>
        <time>2019-07-17T15:51:28Z</time>
      </trkpt>
      <trkpt lat="47.81337" lon="-3.54138">
        <ele>43</ele>
        <time>2019-07-17T15:51:29Z</time>
      </trkpt>
      <trkpt lat="47.81341" lon="-3.54139">
        <ele>43</ele>
        <time>2019-07-17T15:51:30Z</time>
      </trkpt>
      <trkpt lat="47.81346" lon="-3.54141">
        <ele>43</ele>
        <time>2019-07-17T15:51:31Z</time>
      </trkpt>
      <trkpt lat="47.81351" lon="-3.54142">
        <ele>43</ele>
        <time>2019-07-17T15:51:32Z</time>
      </trkpt>
      <trkpt lat="47.81356" lon="-3.54143">
        <ele>43</ele>
        <time>2019-07-17T15:51:33Z</time>
      </trkpt>
      <trkpt lat="47.81362" lon="-3.54145">
        <ele>44</ele>
        <time>2019-07-17T15:51:34Z</time>
      </trkpt>
      <trkpt lat="47.81368" lon="-3.54146">
        <ele>44</ele>
        <time>2019-07-17T15:51:35Z</time>
      </trkpt>
      <trkpt lat="47.81374" lon="-3.54147">
        <ele>44</ele>
        <time>2019-07-17T15:51:36Z</time>
      </trkpt>
      <trkpt lat="47.81378" lon="-3.54149">
        <ele>44</ele>
        <time>2019-07-17T15:51:37Z</time>
      </trkpt>
      <trkpt lat="47.81382" lon="-3.5415">
        <ele>45</ele>
        <time>2019-07-17T15:51:38Z</time>
      </trkpt>
      <trkpt lat="47.81384" lon="-3.54151">
        <ele>45</ele>
        <time>2019-07-17T15:51:39Z</time>
      </trkpt>
      <trkpt lat="47.81386" lon="-3.54155">
        <ele>45</ele>
        <time>2019-07-17T15:51:40Z</time>
      </trkpt>
      <trkpt lat="47.81387" lon="-3.54158">
        <ele>45</ele>
        <time>2019-07-17T15:51:41Z</time>
      </trkpt>
      <trkpt lat="47.81389" lon="-3.54162">
        <ele>45</ele>
        <time>2019-07-17T15:51:42Z</time>
      </trkpt>
      <trkpt lat="47.81391" lon="-3.54167">
        <ele>45</ele>
        <time>2019-07-17T15:51:43Z</time>
      </trkpt>
      <trkpt lat="47.81393" lon="-3.54172">
        <ele>45</ele>
        <time>2019-07-17T15:51:44Z</time>
      </trkpt>
      <trkpt lat="47.81395" lon="-3.54178">
        <ele>45</ele>
        <time>2019-07-17T15:51:45Z</time>
      </trkpt>
      <trkpt lat="47.81397" lon="-3.54184">
        <ele>45</ele>
        <time>2019-07-17T15:51:46Z</time>
      </trkpt>
      <trkpt lat="47.81399" lon="-3.54191">
        <ele>45</ele>
        <time>2019-07-17T15:51:47Z</time>
      </trkpt>
      <trkpt lat="47.814" lon="-3.54197">
        <ele>45</ele>
        <time>2019-07-17T15:51:48Z</time>
      </trkpt>
      <trkpt lat="47.81402" lon="-3.54205">
        <ele>45</ele>
        <time>2019-07-17T15:51:49Z</time>
      </trkpt>
      <trkpt lat="47.81404" lon="-3.54211">
        <ele>45</ele>
        <time>2019-07-17T15:51:50Z</time>
      </trkpt>
      <trkpt lat="47.81406" lon="-3.54217">
        <ele>45</ele>
        <time>2019-07-17T15:51:51Z</time>
      </trkpt>
      <trkpt lat="47.81409" lon="-3.54223">
        <ele>45</ele>
        <time>2019-07-17T15:51:52Z</time>
      </trkpt>
      <trkpt lat="47.81411" lon="-3.54229">
        <ele>45</ele>
        <time>2019-07-17T15:51:53Z</time>
      </trkpt>
      <trkpt lat="47.81413" lon="-3.54235">
        <ele>45</ele>
        <time>2019-07-17T15:51:54Z</time>
      </trkpt>
      <trkpt lat="47.81415" lon="-3.54243">
        <ele>45</ele>
        <time>2019-07-17T15:51:55Z</time>
      </trkpt>
      <trkpt lat="47.81417" lon="-3.5425">
        <ele>45</ele>
        <time>2019-07-17T15:51:56Z</time>
      </trkpt>
      <trkpt lat="47.81419" lon="-3.54257">
        <ele>45</ele>
        <time>2019-07-17T15:51:57Z</time>
      </trkpt>
      <trkpt lat="47.81421" lon="-3.54264">
        <ele>45</ele>
        <time>2019-07-17T15:51:58Z</time>
      </trkpt>
      <trkpt lat="47.81424" lon="-3.54269">
        <ele>45</ele>
        <time>2019-07-17T15:51:59Z</time>
      </trkpt>
      <trkpt lat="47.81426" lon="-3.54273">
        <ele>45</ele>
        <time>2019-07-17T15:52:00Z</time>
      </trkpt>
      <trkpt lat="47.81428" lon="-3.54278">
        <ele>45</ele>
        <time>2019-07-17T15:52:01Z</time>
      </trkpt>
      <trkpt lat="47.81429" lon="-3.54284">
        <ele>45</ele>
        <time>2019-07-17T15:52:02Z</time>
      </trkpt>
      <trkpt lat="47.81432" lon="-3.5429">
        <ele>45</ele>
        <time>2019-07-17T15:52:03Z</time>
      </trkpt>
      <trkpt lat="47.81436" lon="-3.54295">
        <ele>45</ele>
        <time>2019-07-17T15:52:04Z</time>
      </trkpt>
      <trkpt lat="47.81438" lon="-3.543">
        <ele>45</ele>
        <time>2019-07-17T15:52:05Z</time>
      </trkpt>
      <trkpt lat="47.81441" lon="-3.54306">
        <ele>45</ele>
        <time>2019-07-17T15:52:06Z</time>
      </trkpt>
      <trkpt lat="47.81443" lon="-3.5431">
        <ele>45</ele>
        <time>2019-07-17T15:52:07Z</time>
      </trkpt>
      <trkpt lat="47.81445" lon="-3.54314">
        <ele>45</ele>
        <time>2019-07-17T15:52:08Z</time>
      </trkpt>
      <trkpt lat="47.81447" lon="-3.54318">
        <ele>45</ele>
        <time>2019-07-17T15:52:09Z</time>
      </trkpt>
      <trkpt lat="47.8145" lon="-3.54322">
        <ele>45</ele>
        <time>2019-07-17T15:52:10Z</time>
      </trkpt>
      <trkpt lat="47.81452" lon="-3.54325">
        <ele>45</ele>
        <time>2019-07-17T15:52:11Z</time>
      </trkpt>
      <trkpt lat="47.81455" lon="-3.54328">
        <ele>45</ele>
        <time>2019-07-17T15:52:12Z</time>
      </trkpt>
      <trkpt lat="47.81459" lon="-3.54331">
        <ele>45</ele>
        <time>2019-07-17T15:52:13Z</time>
      </trkpt>
      <trkpt lat="47.81463" lon="-3.54334">
        <ele>45</ele>
        <time>2019-07-17T15:52:14Z</time>
      </trkpt>
      <trkpt lat="47.81466" lon="-3.54336">
        <ele>45</ele>
        <time>2019-07-17T15:52:15Z</time>
      </trkpt>
      <trkpt lat="47.81469" lon="-3.5434">
        <ele>45</ele>
        <time>2019-07-17T15:52:16Z</time>
      </trkpt>
      <trkpt lat="47.81471" lon="-3.54344">
        <ele>45</ele>
        <time>2019-07-17T15:52:17Z</time>
      </trkpt>
      <trkpt lat="47.81474" lon="-3.54349">
        <ele>45</ele>
        <time>2019-07-17T15:52:18Z</time>
      </trkpt>
      <trkpt lat="47.81476" lon="-3.54353">
        <ele>45</ele>
        <time>2019-07-17T15:52:19Z</time>
      </trkpt>
      <trkpt lat="47.81479" lon="-3.54357">
        <ele>45</ele>
        <time>2019-07-17T15:52:20Z</time>
      </trkpt>
      <trkpt lat="47.81481" lon="-3.5436">
        <ele>45</ele>
        <time>2019-07-17T15:52:21Z</time>
      </trkpt>
      <trkpt lat="47.81483" lon="-3.54364">
        <ele>46</ele>
        <time>2019-07-17T15:52:22Z</time>
      </trkpt>
      <trkpt lat="47.81485" lon="-3.54368">
        <ele>46</ele>
        <time>2019-07-17T15:52:23Z</time>
      </trkpt>
      <trkpt lat="47.81487" lon="-3.54373">
        <ele>46</ele>
        <time>2019-07-17T15:52:24Z</time>
      </trkpt>
      <trkpt lat="47.81489" lon="-3.54378">
        <ele>46</ele>
        <time>2019-07-17T15:52:25Z</time>
      </trkpt>
      <trkpt lat="47.81491" lon="-3.54383">
        <ele>46</ele>
        <time>2019-07-17T15:52:26Z</time>
      </trkpt>
      <trkpt lat="47.81493" lon="-3.54388">
        <ele>47</ele>
        <time>2019-07-17T15:52:27Z</time>
      </trkpt>
      <trkpt lat="47.81495" lon="-3.54394">
        <ele>47</ele>
        <time>2019-07-17T15:52:28Z</time>
      </trkpt>
      <trkpt lat="47.81497" lon="-3.544">
        <ele>47</ele>
        <time>2019-07-17T15:52:29Z</time>
      </trkpt>
      <trkpt lat="47.81498" lon="-3.54406">
        <ele>47</ele>
        <time>2019-07-17T15:52:30Z</time>
      </trkpt>
      <trkpt lat="47.815" lon="-3.54413">
        <ele>47</ele>
        <time>2019-07-17T15:52:31Z</time>
      </trkpt>
      <trkpt lat="47.81502" lon="-3.54419">
        <ele>47</ele>
        <time>2019-07-17T15:52:32Z</time>
      </trkpt>
      <trkpt lat="47.81505" lon="-3.54425">
        <ele>47</ele>
        <time>2019-07-17T15:52:33Z</time>
      </trkpt>
      <trkpt lat="47.81507" lon="-3.54431">
        <ele>47</ele>
        <time>2019-07-17T15:52:34Z</time>
      </trkpt>
      <trkpt lat="47.8151" lon="-3.54435">
        <ele>48</ele>
        <time>2019-07-17T15:52:35Z</time>
      </trkpt>
      <trkpt lat="47.81512" lon="-3.5444">
        <ele>48</ele>
        <time>2019-07-17T15:52:36Z</time>
      </trkpt>
      <trkpt lat="47.81514" lon="-3.54445">
        <ele>48</ele>
        <time>2019-07-17T15:52:37Z</time>
      </trkpt>
      <trkpt lat="47.81516" lon="-3.54448">
        <ele>48</ele>
        <time>2019-07-17T15:52:38Z</time>
      </trkpt>
      <trkpt lat="47.81518" lon="-3.5445">
        <ele>48</ele>
        <time>2019-07-17T15:52:39Z</time>
      </trkpt>
      <trkpt lat="47.8152" lon="-3.54452">
        <ele>48</ele>
        <time>2019-07-17T15:52:40Z</time>
      </trkpt>
      <trkpt lat="47.81521" lon="-3.54455">
        <ele>48</ele>
        <time>2019-07-17T15:52:41Z</time>
      </trkpt>
      <trkpt lat="47.81523" lon="-3.54459">
        <ele>49</ele>
        <time>2019-07-17T15:52:42Z</time>
      </trkpt>
      <trkpt lat="47.81526" lon="-3.54462">
        <ele>49</ele>
        <time>2019-07-17T15:52:43Z</time>
      </trkpt>
      <trkpt lat="47.8153" lon="-3.54467">
        <ele>49</ele>
        <time>2019-07-17T15:52:44Z</time>
      </trkpt>
      <trkpt lat="47.81534" lon="-3.54471">
        <ele>49</ele>
        <time>2019-07-17T15:52:45Z</time>
      </trkpt>
      <trkpt lat="47.81539" lon="-3.54475">
        <ele>49</ele>
        <time>2019-07-17T15:52:46Z</time>
      </trkpt>
      <trkpt lat="47.81543" lon="-3.54479">
        <ele>49</ele>
        <time>2019-07-17T15:52:47Z</time>
      </trkpt>
      <trkpt lat="47.81543" lon="-3.54479">
        <ele>49</ele>
        <time>2019-07-17T15:52:48Z</time>
      </trkpt>
      <trkpt lat="47.8155" lon="-3.54486">
        <ele>49</ele>
        <time>2019-07-17T15:52:49Z</time>
      </trkpt>
      <trkpt lat="47.81554" lon="-3.5449">
        <ele>50</ele>
        <time>2019-07-17T15:52:50Z</time>
      </trkpt>
      <trkpt lat="47.81557" lon="-3.54493">
        <ele>50</ele>
        <time>2019-07-17T15:52:51Z</time>
      </trkpt>
      <trkpt lat="47.8156" lon="-3.54496">
        <ele>50</ele>
        <time>2019-07-17T15:52:52Z</time>
      </trkpt>
      <trkpt lat="47.81563" lon="-3.545">
        <ele>50</ele>
        <time>2019-07-17T15:52:53Z</time>
      </trkpt>
      <trkpt lat="47.81566" lon="-3.54504">
        <ele>50</ele>
        <time>2019-07-17T15:52:54Z</time>
      </trkpt>
      <trkpt lat="47.81569" lon="-3.54508">
        <ele>50</ele>
        <time>2019-07-17T15:52:55Z</time>
      </trkpt>
      <trkpt lat="47.81572" lon="-3.54513">
        <ele>50</ele>
        <time>2019-07-17T15:52:56Z</time>
      </trkpt>
      <trkpt lat="47.81576" lon="-3.54518">
        <ele>50</ele>
        <time>2019-07-17T15:52:57Z</time>
      </trkpt>
      <trkpt lat="47.8158" lon="-3.54523">
        <ele>50</ele>
        <time>2019-07-17T15:52:58Z</time>
      </trkpt>
      <trkpt lat="47.81584" lon="-3.54527">
        <ele>50</ele>
        <time>2019-07-17T15:52:59Z</time>
      </trkpt>
      <trkpt lat="47.81587" lon="-3.54533">
        <ele>50</ele>
        <time>2019-07-17T15:53:00Z</time>
      </trkpt>
      <trkpt lat="47.81591" lon="-3.54537">
        <ele>50</ele>
        <time>2019-07-17T15:53:01Z</time>
      </trkpt>
      <trkpt lat="47.81594" lon="-3.54542">
        <ele>50</ele>
        <time>2019-07-17T15:53:02Z</time>
      </trkpt>
      <trkpt lat="47.81598" lon="-3.54547">
        <ele>50</ele>
        <time>2019-07-17T15:53:03Z</time>
      </trkpt>
      <trkpt lat="47.81601" lon="-3.5455">
        <ele>50</ele>
        <time>2019-07-17T15:53:04Z</time>
      </trkpt>
      <trkpt lat="47.81604" lon="-3.54555">
        <ele>50</ele>
        <time>2019-07-17T15:53:05Z</time>
      </trkpt>
      <trkpt lat="47.81606" lon="-3.54559">
        <ele>50</ele>
        <time>2019-07-17T15:53:06Z</time>
      </trkpt>
      <trkpt lat="47.81609" lon="-3.54564">
        <ele>50</ele>
        <time>2019-07-17T15:53:07Z</time>
      </trkpt>
      <trkpt lat="47.81612" lon="-3.54568">
        <ele>50</ele>
        <time>2019-07-17T15:53:08Z</time>
      </trkpt>
      <trkpt lat="47.81615" lon="-3.54572">
        <ele>50</ele>
        <time>2019-07-17T15:53:09Z</time>
      </trkpt>
      <trkpt lat="47.81618" lon="-3.54575">
        <ele>50</ele>
        <time>2019-07-17T15:53:10Z</time>
      </trkpt>
      <trkpt lat="47.81621" lon="-3.54578">
        <ele>50</ele>
        <time>2019-07-17T15:53:11Z</time>
      </trkpt>
      <trkpt lat="47.81624" lon="-3.54581">
        <ele>49</ele>
        <time>2019-07-17T15:53:12Z</time>
      </trkpt>
      <trkpt lat="47.81627" lon="-3.54585">
        <ele>49</ele>
        <time>2019-07-17T15:53:13Z</time>
      </trkpt>
      <trkpt lat="47.81631" lon="-3.5459">
        <ele>49</ele>
        <time>2019-07-17T15:53:14Z</time>
      </trkpt>
      <trkpt lat="47.81634" lon="-3.54598">
        <ele>49</ele>
        <time>2019-07-17T15:53:15Z</time>
      </trkpt>
      <trkpt lat="47.81637" lon="-3.54604">
        <ele>49</ele>
        <time>2019-07-17T15:53:16Z</time>
      </trkpt>
      <trkpt lat="47.8164" lon="-3.54611">
        <ele>49</ele>
        <time>2019-07-17T15:53:17Z</time>
      </trkpt>
      <trkpt lat="47.81644" lon="-3.54617">
        <ele>49</ele>
        <time>2019-07-17T15:53:18Z</time>
      </trkpt>
      <trkpt lat="47.81647" lon="-3.54623">
        <ele>49</ele>
        <time>2019-07-17T15:53:19Z</time>
      </trkpt>
      <trkpt lat="47.81651" lon="-3.54629">
        <ele>49</ele>
        <time>2019-07-17T15:53:20Z</time>
      </trkpt>
      <trkpt lat="47.81653" lon="-3.54635">
        <ele>49</ele>
        <time>2019-07-17T15:53:21Z</time>
      </trkpt>
      <trkpt lat="47.81657" lon="-3.5464">
        <ele>49</ele>
        <time>2019-07-17T15:53:22Z</time>
      </trkpt>
      <trkpt lat="47.8166" lon="-3.54646">
        <ele>49</ele>
        <time>2019-07-17T15:53:23Z</time>
      </trkpt>
      <trkpt lat="47.81664" lon="-3.54653">
        <ele>49</ele>
        <time>2019-07-17T15:53:24Z</time>
      </trkpt>
      <trkpt lat="47.81668" lon="-3.54659">
        <ele>49</ele>
        <time>2019-07-17T15:53:25Z</time>
      </trkpt>
      <trkpt lat="47.81673" lon="-3.54665">
        <ele>49</ele>
        <time>2019-07-17T15:53:26Z</time>
      </trkpt>
      <trkpt lat="47.81678" lon="-3.54671">
        <ele>49</ele>
        <time>2019-07-17T15:53:27Z</time>
      </trkpt>
      <trkpt lat="47.81683" lon="-3.54676">
        <ele>49</ele>
        <time>2019-07-17T15:53:28Z</time>
      </trkpt>
      <trkpt lat="47.81687" lon="-3.54681">
        <ele>49</ele>
        <time>2019-07-17T15:53:29Z</time>
      </trkpt>
      <trkpt lat="47.81692" lon="-3.54686">
        <ele>49</ele>
        <time>2019-07-17T15:53:30Z</time>
      </trkpt>
      <trkpt lat="47.81697" lon="-3.54691">
        <ele>48</ele>
        <time>2019-07-17T15:53:31Z</time>
      </trkpt>
      <trkpt lat="47.81702" lon="-3.54698">
        <ele>48</ele>
        <time>2019-07-17T15:53:32Z</time>
      </trkpt>
      <trkpt lat="47.81705" lon="-3.54706">
        <ele>48</ele>
        <time>2019-07-17T15:53:33Z</time>
      </trkpt>
      <trkpt lat="47.81708" lon="-3.54713">
        <ele>48</ele>
        <time>2019-07-17T15:53:34Z</time>
      </trkpt>
      <trkpt lat="47.81711" lon="-3.54719">
        <ele>47</ele>
        <time>2019-07-17T15:53:35Z</time>
      </trkpt>
      <trkpt lat="47.81715" lon="-3.54723">
        <ele>47</ele>
        <time>2019-07-17T15:53:36Z</time>
      </trkpt>
      <trkpt lat="47.8172" lon="-3.54723">
        <ele>47</ele>
        <time>2019-07-17T15:53:37Z</time>
      </trkpt>
      <trkpt lat="47.81725" lon="-3.54722">
        <ele>47</ele>
        <time>2019-07-17T15:53:38Z</time>
      </trkpt>
      <trkpt lat="47.81729" lon="-3.54721">
        <ele>47</ele>
        <time>2019-07-17T15:53:39Z</time>
      </trkpt>
      <trkpt lat="47.81732" lon="-3.54719">
        <ele>47</ele>
        <time>2019-07-17T15:53:40Z</time>
      </trkpt>
      <trkpt lat="47.81736" lon="-3.54716">
        <ele>47</ele>
        <time>2019-07-17T15:53:41Z</time>
      </trkpt>
      <trkpt lat="47.81738" lon="-3.54713">
        <ele>47</ele>
        <time>2019-07-17T15:53:42Z</time>
      </trkpt>
      <trkpt lat="47.81741" lon="-3.54711">
        <ele>47</ele>
        <time>2019-07-17T15:53:43Z</time>
      </trkpt>
      <trkpt lat="47.81743" lon="-3.54708">
        <ele>47</ele>
        <time>2019-07-17T15:53:44Z</time>
      </trkpt>
      <trkpt lat="47.81746" lon="-3.54706">
        <ele>46</ele>
        <time>2019-07-17T15:53:45Z</time>
      </trkpt>
      <trkpt lat="47.81748" lon="-3.54703">
        <ele>46</ele>
        <time>2019-07-17T15:53:46Z</time>
      </trkpt>
      <trkpt lat="47.81751" lon="-3.54701">
        <ele>46</ele>
        <time>2019-07-17T15:53:47Z</time>
      </trkpt>
      <trkpt lat="47.81754" lon="-3.54698">
        <ele>46</ele>
        <time>2019-07-17T15:53:48Z</time>
      </trkpt>
      <trkpt lat="47.81757" lon="-3.54695">
        <ele>46</ele>
        <time>2019-07-17T15:53:49Z</time>
      </trkpt>
      <trkpt lat="47.8176" lon="-3.54691">
        <ele>46</ele>
        <time>2019-07-17T15:53:50Z</time>
      </trkpt>
      <trkpt lat="47.81763" lon="-3.54687">
        <ele>47</ele>
        <time>2019-07-17T15:53:51Z</time>
      </trkpt>
      <trkpt lat="47.81767" lon="-3.54683">
        <ele>47</ele>
        <time>2019-07-17T15:53:52Z</time>
      </trkpt>
      <trkpt lat="47.81771" lon="-3.54679">
        <ele>47</ele>
        <time>2019-07-17T15:53:53Z</time>
      </trkpt>
      <trkpt lat="47.81775" lon="-3.54675">
        <ele>47</ele>
        <time>2019-07-17T15:53:54Z</time>
      </trkpt>
      <trkpt lat="47.81779" lon="-3.54671">
        <ele>47</ele>
        <time>2019-07-17T15:53:55Z</time>
      </trkpt>
      <trkpt lat="47.81782" lon="-3.54667">
        <ele>47</ele>
        <time>2019-07-17T15:53:56Z</time>
      </trkpt>
      <trkpt lat="47.81786" lon="-3.54661">
        <ele>47</ele>
        <time>2019-07-17T15:53:57Z</time>
      </trkpt>
      <trkpt lat="47.8179" lon="-3.54657">
        <ele>48</ele>
        <time>2019-07-17T15:53:58Z</time>
      </trkpt>
      <trkpt lat="47.81793" lon="-3.54652">
        <ele>48</ele>
        <time>2019-07-17T15:53:59Z</time>
      </trkpt>
      <trkpt lat="47.81797" lon="-3.54648">
        <ele>48</ele>
        <time>2019-07-17T15:54:00Z</time>
      </trkpt>
      <trkpt lat="47.81801" lon="-3.54645">
        <ele>48</ele>
        <time>2019-07-17T15:54:01Z</time>
      </trkpt>
      <trkpt lat="47.81804" lon="-3.54642">
        <ele>48</ele>
        <time>2019-07-17T15:54:02Z</time>
      </trkpt>
      <trkpt lat="47.81807" lon="-3.54639">
        <ele>48</ele>
        <time>2019-07-17T15:54:03Z</time>
      </trkpt>
      <trkpt lat="47.8181" lon="-3.54635">
        <ele>48</ele>
        <time>2019-07-17T15:54:04Z</time>
      </trkpt>
      <trkpt lat="47.81812" lon="-3.54632">
        <ele>48</ele>
        <time>2019-07-17T15:54:05Z</time>
      </trkpt>
      <trkpt lat="47.81814" lon="-3.54628">
        <ele>48</ele>
        <time>2019-07-17T15:54:06Z</time>
      </trkpt>
      <trkpt lat="47.81817" lon="-3.54624">
        <ele>48</ele>
        <time>2019-07-17T15:54:07Z</time>
      </trkpt>
      <trkpt lat="47.81821" lon="-3.54621">
        <ele>48</ele>
        <time>2019-07-17T15:54:08Z</time>
      </trkpt>
      <trkpt lat="47.81825" lon="-3.54618">
        <ele>48</ele>
        <time>2019-07-17T15:54:09Z</time>
      </trkpt>
      <trkpt lat="47.81829" lon="-3.54615">
        <ele>48</ele>
        <time>2019-07-17T15:54:10Z</time>
      </trkpt>
      <trkpt lat="47.81832" lon="-3.54613">
        <ele>47</ele>
        <time>2019-07-17T15:54:11Z</time>
      </trkpt>
      <trkpt lat="47.81836" lon="-3.54611">
        <ele>47</ele>
        <time>2019-07-17T15:54:12Z</time>
      </trkpt>
      <trkpt lat="47.8184" lon="-3.54609">
        <ele>47</ele>
        <time>2019-07-17T15:54:13Z</time>
      </trkpt>
      <trkpt lat="47.81843" lon="-3.54607">
        <ele>47</ele>
        <time>2019-07-17T15:54:14Z</time>
      </trkpt>
      <trkpt lat="47.81846" lon="-3.54604">
        <ele>47</ele>
        <time>2019-07-17T15:54:15Z</time>
      </trkpt>
      <trkpt lat="47.81849" lon="-3.54602">
        <ele>47</ele>
        <time>2019-07-17T15:54:16Z</time>
      </trkpt>
      <trkpt lat="47.81852" lon="-3.54598">
        <ele>47</ele>
        <time>2019-07-17T15:54:17Z</time>
      </trkpt>
      <trkpt lat="47.81855" lon="-3.54593">
        <ele>47</ele>
        <time>2019-07-17T15:54:18Z</time>
      </trkpt>
      <trkpt lat="47.81857" lon="-3.54589">
        <ele>47</ele>
        <time>2019-07-17T15:54:19Z</time>
      </trkpt>
      <trkpt lat="47.8186" lon="-3.54586">
        <ele>47</ele>
        <time>2019-07-17T15:54:20Z</time>
      </trkpt>
      <trkpt lat="47.81863" lon="-3.54583">
        <ele>47</ele>
        <time>2019-07-17T15:54:21Z</time>
      </trkpt>
      <trkpt lat="47.81866" lon="-3.54581">
        <ele>47</ele>
        <time>2019-07-17T15:54:22Z</time>
      </trkpt>
      <trkpt lat="47.81869" lon="-3.54577">
        <ele>47</ele>
        <time>2019-07-17T15:54:23Z</time>
      </trkpt>
      <trkpt lat="47.81871" lon="-3.54573">
        <ele>47</ele>
        <time>2019-07-17T15:54:24Z</time>
      </trkpt>
      <trkpt lat="47.81873" lon="-3.54569">
        <ele>47</ele>
        <time>2019-07-17T15:54:25Z</time>
      </trkpt>
      <trkpt lat="47.81876" lon="-3.54566">
        <ele>47</ele>
        <time>2019-07-17T15:54:26Z</time>
      </trkpt>
      <trkpt lat="47.8188" lon="-3.54563">
        <ele>47</ele>
        <time>2019-07-17T15:54:27Z</time>
      </trkpt>
      <trkpt lat="47.81884" lon="-3.5456">
        <ele>47</ele>
        <time>2019-07-17T15:54:28Z</time>
      </trkpt>
      <trkpt lat="47.81889" lon="-3.54555">
        <ele>46</ele>
        <time>2019-07-17T15:54:29Z</time>
      </trkpt>
      <trkpt lat="47.81894" lon="-3.54549">
        <ele>46</ele>
        <time>2019-07-17T15:54:30Z</time>
      </trkpt>
      <trkpt lat="47.81899" lon="-3.54544">
        <ele>46</ele>
        <time>2019-07-17T15:54:31Z</time>
      </trkpt>
      <trkpt lat="47.81905" lon="-3.54539">
        <ele>46</ele>
        <time>2019-07-17T15:54:32Z</time>
      </trkpt>
      <trkpt lat="47.81911" lon="-3.54534">
        <ele>46</ele>
        <time>2019-07-17T15:54:33Z</time>
      </trkpt>
      <trkpt lat="47.81915" lon="-3.54529">
        <ele>46</ele>
        <time>2019-07-17T15:54:34Z</time>
      </trkpt>
      <trkpt lat="47.81919" lon="-3.54524">
        <ele>46</ele>
        <time>2019-07-17T15:54:35Z</time>
      </trkpt>
      <trkpt lat="47.81923" lon="-3.5452">
        <ele>46</ele>
        <time>2019-07-17T15:54:36Z</time>
      </trkpt>
      <trkpt lat="47.81925" lon="-3.54517">
        <ele>46</ele>
        <time>2019-07-17T15:54:37Z</time>
      </trkpt>
      <trkpt lat="47.81927" lon="-3.54515">
        <ele>45</ele>
        <time>2019-07-17T15:54:38Z</time>
      </trkpt>
      <trkpt lat="47.81928" lon="-3.54513">
        <ele>45</ele>
        <time>2019-07-17T15:54:39Z</time>
      </trkpt>
      <trkpt lat="47.81928" lon="-3.54512">
        <ele>45</ele>
        <time>2019-07-17T15:54:40Z</time>
      </trkpt>
      <trkpt lat="47.81929" lon="-3.54511">
        <ele>45</ele>
        <time>2019-07-17T15:54:41Z</time>
      </trkpt>
      <trkpt lat="47.8193" lon="-3.5451">
        <ele>45</ele>
        <time>2019-07-17T15:54:42Z</time>
      </trkpt>
      <trkpt lat="47.81931" lon="-3.5451">
        <ele>45</ele>
        <time>2019-07-17T15:54:43Z</time>
      </trkpt>
      <trkpt lat="47.81931" lon="-3.54509">
        <ele>44</ele>
        <time>2019-07-17T15:54:44Z</time>
      </trkpt>
      <trkpt lat="47.81932" lon="-3.54508">
        <ele>44</ele>
        <time>2019-07-17T15:54:45Z</time>
      </trkpt>
      <trkpt lat="47.81932" lon="-3.54507">
        <ele>44</ele>
        <time>2019-07-17T15:54:46Z</time>
      </trkpt>
      <trkpt lat="47.81933" lon="-3.54507">
        <ele>44</ele>
        <time>2019-07-17T15:54:47Z</time>
      </trkpt>
      <trkpt lat="47.81934" lon="-3.54506">
        <ele>44</ele>
        <time>2019-07-17T15:54:48Z</time>
      </trkpt>
      <trkpt lat="47.81935" lon="-3.54506">
        <ele>43</ele>
        <time>2019-07-17T15:54:49Z</time>
      </trkpt>
      <trkpt lat="47.81936" lon="-3.54505">
        <ele>43</ele>
        <time>2019-07-17T15:54:50Z</time>
      </trkpt>
      <trkpt lat="47.81937" lon="-3.54505">
        <ele>42</ele>
        <time>2019-07-17T15:54:51Z</time>
      </trkpt>
      <trkpt lat="47.81939" lon="-3.54504">
        <ele>42</ele>
        <time>2019-07-17T15:54:52Z</time>
      </trkpt>
      <trkpt lat="47.81941" lon="-3.54502">
        <ele>42</ele>
        <time>2019-07-17T15:54:53Z</time>
      </trkpt>
      <trkpt lat="47.81942" lon="-3.545">
        <ele>41</ele>
        <time>2019-07-17T15:54:54Z</time>
      </trkpt>
      <trkpt lat="47.81943" lon="-3.54499">
        <ele>41</ele>
        <time>2019-07-17T15:54:55Z</time>
      </trkpt>
      <trkpt lat="47.81944" lon="-3.54498">
        <ele>41</ele>
        <time>2019-07-17T15:54:56Z</time>
      </trkpt>
      <trkpt lat="47.81945" lon="-3.54497">
        <ele>40</ele>
        <time>2019-07-17T15:54:57Z</time>
      </trkpt>
      <trkpt lat="47.81946" lon="-3.54495">
        <ele>40</ele>
        <time>2019-07-17T15:54:58Z</time>
      </trkpt>
      <trkpt lat="47.81948" lon="-3.54493">
        <ele>40</ele>
        <time>2019-07-17T15:54:59Z</time>
      </trkpt>
      <trkpt lat="47.81949" lon="-3.5449">
        <ele>40</ele>
        <time>2019-07-17T15:55:00Z</time>
      </trkpt>
      <trkpt lat="47.81951" lon="-3.54487">
        <ele>39</ele>
        <time>2019-07-17T15:55:01Z</time>
      </trkpt>
      <trkpt lat="47.81953" lon="-3.54482">
        <ele>39</ele>
        <time>2019-07-17T15:55:02Z</time>
      </trkpt>
      <trkpt lat="47.81956" lon="-3.54478">
        <ele>39</ele>
        <time>2019-07-17T15:55:03Z</time>
      </trkpt>
      <trkpt lat="47.81958" lon="-3.54473">
        <ele>39</ele>
        <time>2019-07-17T15:55:04Z</time>
      </trkpt>
      <trkpt lat="47.81961" lon="-3.54468">
        <ele>39</ele>
        <time>2019-07-17T15:55:05Z</time>
      </trkpt>
      <trkpt lat="47.81964" lon="-3.54463">
        <ele>38</ele>
        <time>2019-07-17T15:55:06Z</time>
      </trkpt>
      <trkpt lat="47.81967" lon="-3.54459">
        <ele>38</ele>
        <time>2019-07-17T15:55:07Z</time>
      </trkpt>
      <trkpt lat="47.8197" lon="-3.54455">
        <ele>38</ele>
        <time>2019-07-17T15:55:08Z</time>
      </trkpt>
      <trkpt lat="47.81973" lon="-3.54453">
        <ele>38</ele>
        <time>2019-07-17T15:55:09Z</time>
      </trkpt>
      <trkpt lat="47.81976" lon="-3.54449">
        <ele>37</ele>
        <time>2019-07-17T15:55:10Z</time>
      </trkpt>
      <trkpt lat="47.81979" lon="-3.54446">
        <ele>37</ele>
        <time>2019-07-17T15:55:11Z</time>
      </trkpt>
      <trkpt lat="47.81982" lon="-3.54443">
        <ele>37</ele>
        <time>2019-07-17T15:55:12Z</time>
      </trkpt>
      <trkpt lat="47.81985" lon="-3.54439">
        <ele>37</ele>
        <time>2019-07-17T15:55:13Z</time>
      </trkpt>
      <trkpt lat="47.81988" lon="-3.54435">
        <ele>37</ele>
        <time>2019-07-17T15:55:14Z</time>
      </trkpt>
      <trkpt lat="47.81991" lon="-3.54431">
        <ele>37</ele>
        <time>2019-07-17T15:55:15Z</time>
      </trkpt>
      <trkpt lat="47.81993" lon="-3.54427">
        <ele>36</ele>
        <time>2019-07-17T15:55:16Z</time>
      </trkpt>
      <trkpt lat="47.81995" lon="-3.54423">
        <ele>36</ele>
        <time>2019-07-17T15:55:17Z</time>
      </trkpt>
      <trkpt lat="47.81997" lon="-3.54421">
        <ele>36</ele>
        <time>2019-07-17T15:55:18Z</time>
      </trkpt>
      <trkpt lat="47.81999" lon="-3.54418">
        <ele>36</ele>
        <time>2019-07-17T15:55:19Z</time>
      </trkpt>
      <trkpt lat="47.82001" lon="-3.54414">
        <ele>36</ele>
        <time>2019-07-17T15:55:20Z</time>
      </trkpt>
      <trkpt lat="47.82003" lon="-3.54411">
        <ele>36</ele>
        <time>2019-07-17T15:55:21Z</time>
      </trkpt>
      <trkpt lat="47.82005" lon="-3.54409">
        <ele>35</ele>
        <time>2019-07-17T15:55:22Z</time>
      </trkpt>
      <trkpt lat="47.82009" lon="-3.54407">
        <ele>35</ele>
        <time>2019-07-17T15:55:23Z</time>
      </trkpt>
      <trkpt lat="47.82013" lon="-3.54403">
        <ele>35</ele>
        <time>2019-07-17T15:55:24Z</time>
      </trkpt>
      <trkpt lat="47.82018" lon="-3.54399">
        <ele>35</ele>
        <time>2019-07-17T15:55:25Z</time>
      </trkpt>
      <trkpt lat="47.82023" lon="-3.54394">
        <ele>35</ele>
        <time>2019-07-17T15:55:26Z</time>
      </trkpt>
      <trkpt lat="47.82029" lon="-3.54389">
        <ele>35</ele>
        <time>2019-07-17T15:55:27Z</time>
      </trkpt>
      <trkpt lat="47.82034" lon="-3.54383">
        <ele>35</ele>
        <time>2019-07-17T15:55:28Z</time>
      </trkpt>
      <trkpt lat="47.8204" lon="-3.54379">
        <ele>35</ele>
        <time>2019-07-17T15:55:29Z</time>
      </trkpt>
      <trkpt lat="47.82047" lon="-3.54374">
        <ele>35</ele>
        <time>2019-07-17T15:55:30Z</time>
      </trkpt>
      <trkpt lat="47.82054" lon="-3.54369">
        <ele>35</ele>
        <time>2019-07-17T15:55:31Z</time>
      </trkpt>
      <trkpt lat="47.82062" lon="-3.54365">
        <ele>35</ele>
        <time>2019-07-17T15:55:32Z</time>
      </trkpt>
      <trkpt lat="47.82068" lon="-3.54361">
        <ele>35</ele>
        <time>2019-07-17T15:55:33Z</time>
      </trkpt>
      <trkpt lat="47.82074" lon="-3.54359">
        <ele>35</ele>
        <time>2019-07-17T15:55:34Z</time>
      </trkpt>
      <trkpt lat="47.82079" lon="-3.54356">
        <ele>35</ele>
        <time>2019-07-17T15:55:35Z</time>
      </trkpt>
      <trkpt lat="47.82085" lon="-3.54352">
        <ele>35</ele>
        <time>2019-07-17T15:55:36Z</time>
      </trkpt>
      <trkpt lat="47.8209" lon="-3.54349">
        <ele>35</ele>
        <time>2019-07-17T15:55:37Z</time>
      </trkpt>
      <trkpt lat="47.82095" lon="-3.54346">
        <ele>35</ele>
        <time>2019-07-17T15:55:38Z</time>
      </trkpt>
      <trkpt lat="47.82101" lon="-3.54344">
        <ele>35</ele>
        <time>2019-07-17T15:55:39Z</time>
      </trkpt>
      <trkpt lat="47.82107" lon="-3.54341">
        <ele>34</ele>
        <time>2019-07-17T15:55:40Z</time>
      </trkpt>
      <trkpt lat="47.82113" lon="-3.54337">
        <ele>34</ele>
        <time>2019-07-17T15:55:41Z</time>
      </trkpt>
      <trkpt lat="47.82119" lon="-3.54334">
        <ele>34</ele>
        <time>2019-07-17T15:55:42Z</time>
      </trkpt>
      <trkpt lat="47.82125" lon="-3.54332">
        <ele>34</ele>
        <time>2019-07-17T15:55:43Z</time>
      </trkpt>
      <trkpt lat="47.82131" lon="-3.5433">
        <ele>34</ele>
        <time>2019-07-17T15:55:44Z</time>
      </trkpt>
      <trkpt lat="47.82136" lon="-3.54328">
        <ele>34</ele>
        <time>2019-07-17T15:55:45Z</time>
      </trkpt>
      <trkpt lat="47.82139" lon="-3.54326">
        <ele>33</ele>
        <time>2019-07-17T15:55:46Z</time>
      </trkpt>
      <trkpt lat="47.82141" lon="-3.54325">
        <ele>33</ele>
        <time>2019-07-17T15:55:47Z</time>
      </trkpt>
      <trkpt lat="47.82143" lon="-3.54325">
        <ele>32</ele>
        <time>2019-07-17T15:55:48Z</time>
      </trkpt>
      <trkpt lat="47.82145" lon="-3.54324">
        <ele>32</ele>
        <time>2019-07-17T15:55:49Z</time>
      </trkpt>
      <trkpt lat="47.82148" lon="-3.54323">
        <ele>32</ele>
        <time>2019-07-17T15:55:50Z</time>
      </trkpt>
      <trkpt lat="47.8215" lon="-3.54322">
        <ele>31</ele>
        <time>2019-07-17T15:55:51Z</time>
      </trkpt>
      <trkpt lat="47.82152" lon="-3.54321">
        <ele>31</ele>
        <time>2019-07-17T15:55:52Z</time>
      </trkpt>
      <trkpt lat="47.82155" lon="-3.5432">
        <ele>30</ele>
        <time>2019-07-17T15:55:53Z</time>
      </trkpt>
      <trkpt lat="47.82158" lon="-3.5432">
        <ele>30</ele>
        <time>2019-07-17T15:55:54Z</time>
      </trkpt>
      <trkpt lat="47.82161" lon="-3.5432">
        <ele>29</ele>
        <time>2019-07-17T15:55:55Z</time>
      </trkpt>
      <trkpt lat="47.82163" lon="-3.54321">
        <ele>29</ele>
        <time>2019-07-17T15:55:56Z</time>
      </trkpt>
      <trkpt lat="47.82165" lon="-3.54323">
        <ele>28</ele>
        <time>2019-07-17T15:55:57Z</time>
      </trkpt>
      <trkpt lat="47.82167" lon="-3.54324">
        <ele>28</ele>
        <time>2019-07-17T15:55:58Z</time>
      </trkpt>
      <trkpt lat="47.8217" lon="-3.54325">
        <ele>27</ele>
        <time>2019-07-17T15:55:59Z</time>
      </trkpt>
      <trkpt lat="47.82171" lon="-3.54326">
        <ele>27</ele>
        <time>2019-07-17T15:56:00Z</time>
      </trkpt>
      <trkpt lat="47.82173" lon="-3.54325">
        <ele>27</ele>
        <time>2019-07-17T15:56:01Z</time>
      </trkpt>
      <trkpt lat="47.82175" lon="-3.54325">
        <ele>26</ele>
        <time>2019-07-17T15:56:02Z</time>
      </trkpt>
      <trkpt lat="47.82178" lon="-3.54325">
        <ele>26</ele>
        <time>2019-07-17T15:56:03Z</time>
      </trkpt>
      <trkpt lat="47.8218" lon="-3.54326">
        <ele>26</ele>
        <time>2019-07-17T15:56:04Z</time>
      </trkpt>
      <trkpt lat="47.82183" lon="-3.54327">
        <ele>25</ele>
        <time>2019-07-17T15:56:05Z</time>
      </trkpt>
      <trkpt lat="47.82186" lon="-3.54329">
        <ele>25</ele>
        <time>2019-07-17T15:56:06Z</time>
      </trkpt>
      <trkpt lat="47.82188" lon="-3.54331">
        <ele>25</ele>
        <time>2019-07-17T15:56:07Z</time>
      </trkpt>
      <trkpt lat="47.82191" lon="-3.54332">
        <ele>25</ele>
        <time>2019-07-17T15:56:08Z</time>
      </trkpt>
      <trkpt lat="47.82194" lon="-3.54333">
        <ele>25</ele>
        <time>2019-07-17T15:56:09Z</time>
      </trkpt>
      <trkpt lat="47.82196" lon="-3.54335">
        <ele>24</ele>
        <time>2019-07-17T15:56:10Z</time>
      </trkpt>
      <trkpt lat="47.82199" lon="-3.54337">
        <ele>24</ele>
        <time>2019-07-17T15:56:11Z</time>
      </trkpt>
      <trkpt lat="47.82202" lon="-3.54338">
        <ele>24</ele>
        <time>2019-07-17T15:56:12Z</time>
      </trkpt>
      <trkpt lat="47.82205" lon="-3.54339">
        <ele>24</ele>
        <time>2019-07-17T15:56:13Z</time>
      </trkpt>
      <trkpt lat="47.82207" lon="-3.5434">
        <ele>24</ele>
        <time>2019-07-17T15:56:14Z</time>
      </trkpt>
      <trkpt lat="47.82209" lon="-3.54342">
        <ele>23</ele>
        <time>2019-07-17T15:56:15Z</time>
      </trkpt>
      <trkpt lat="47.82211" lon="-3.54342">
        <ele>23</ele>
        <time>2019-07-17T15:56:16Z</time>
      </trkpt>
      <trkpt lat="47.82212" lon="-3.54343">
        <ele>23</ele>
        <time>2019-07-17T15:56:17Z</time>
      </trkpt>
      <trkpt lat="47.82214" lon="-3.54343">
        <ele>23</ele>
        <time>2019-07-17T15:56:18Z</time>
      </trkpt>
      <trkpt lat="47.82217" lon="-3.54344">
        <ele>23</ele>
        <time>2019-07-17T15:56:19Z</time>
      </trkpt>
      <trkpt lat="47.8222" lon="-3.54345">
        <ele>22</ele>
        <time>2019-07-17T15:56:20Z</time>
      </trkpt>
      <trkpt lat="47.82223" lon="-3.54344">
        <ele>22</ele>
        <time>2019-07-17T15:56:21Z</time>
      </trkpt>
      <trkpt lat="47.82225" lon="-3.54343">
        <ele>22</ele>
        <time>2019-07-17T15:56:22Z</time>
      </trkpt>
      <trkpt lat="47.82227" lon="-3.54343">
        <ele>22</ele>
        <time>2019-07-17T15:56:23Z</time>
      </trkpt>
      <trkpt lat="47.82229" lon="-3.54343">
        <ele>22</ele>
        <time>2019-07-17T15:56:24Z</time>
      </trkpt>
      <trkpt lat="47.8223" lon="-3.54344">
        <ele>21</ele>
        <time>2019-07-17T15:56:25Z</time>
      </trkpt>
      <trkpt lat="47.82233" lon="-3.54346">
        <ele>21</ele>
        <time>2019-07-17T15:56:26Z</time>
      </trkpt>
      <trkpt lat="47.82235" lon="-3.54347">
        <ele>21</ele>
        <time>2019-07-17T15:56:27Z</time>
      </trkpt>
      <trkpt lat="47.82237" lon="-3.54348">
        <ele>21</ele>
        <time>2019-07-17T15:56:28Z</time>
      </trkpt>
      <trkpt lat="47.8224" lon="-3.54349">
        <ele>20</ele>
        <time>2019-07-17T15:56:29Z</time>
      </trkpt>
      <trkpt lat="47.82243" lon="-3.5435">
        <ele>20</ele>
        <time>2019-07-17T15:56:30Z</time>
      </trkpt>
      <trkpt lat="47.82245" lon="-3.54352">
        <ele>20</ele>
        <time>2019-07-17T15:56:31Z</time>
      </trkpt>
      <trkpt lat="47.82247" lon="-3.54353">
        <ele>20</ele>
        <time>2019-07-17T15:56:32Z</time>
      </trkpt>
      <trkpt lat="47.82249" lon="-3.54353">
        <ele>19</ele>
        <time>2019-07-17T15:56:33Z</time>
      </trkpt>
      <trkpt lat="47.82251" lon="-3.54355">
        <ele>19</ele>
        <time>2019-07-17T15:56:34Z</time>
      </trkpt>
      <trkpt lat="47.82253" lon="-3.54356">
        <ele>19</ele>
        <time>2019-07-17T15:56:35Z</time>
      </trkpt>
      <trkpt lat="47.82255" lon="-3.54357">
        <ele>19</ele>
        <time>2019-07-17T15:56:36Z</time>
      </trkpt>
      <trkpt lat="47.82257" lon="-3.54357">
        <ele>18</ele>
        <time>2019-07-17T15:56:37Z</time>
      </trkpt>
      <trkpt lat="47.82258" lon="-3.54358">
        <ele>18</ele>
        <time>2019-07-17T15:56:38Z</time>
      </trkpt>
      <trkpt lat="47.8226" lon="-3.54359">
        <ele>18</ele>
        <time>2019-07-17T15:56:39Z</time>
      </trkpt>
      <trkpt lat="47.82261" lon="-3.54359">
        <ele>18</ele>
        <time>2019-07-17T15:56:40Z</time>
      </trkpt>
      <trkpt lat="47.82263" lon="-3.5436">
        <ele>18</ele>
        <time>2019-07-17T15:56:41Z</time>
      </trkpt>
      <trkpt lat="47.82264" lon="-3.5436">
        <ele>18</ele>
        <time>2019-07-17T15:56:42Z</time>
      </trkpt>
      <trkpt lat="47.82265" lon="-3.5436">
        <ele>18</ele>
        <time>2019-07-17T15:56:43Z</time>
      </trkpt>
      <trkpt lat="47.82266" lon="-3.54361">
        <ele>18</ele>
        <time>2019-07-17T15:56:44Z</time>
      </trkpt>
      <trkpt lat="47.82267" lon="-3.54362">
        <ele>18</ele>
        <time>2019-07-17T15:56:45Z</time>
      </trkpt>
      <trkpt lat="47.82268" lon="-3.54362">
        <ele>17</ele>
        <time>2019-07-17T15:56:46Z</time>
      </trkpt>
      <trkpt lat="47.82269" lon="-3.54362">
        <ele>17</ele>
        <time>2019-07-17T15:56:47Z</time>
      </trkpt>
      <trkpt lat="47.82269" lon="-3.54362">
        <ele>17</ele>
        <time>2019-07-17T15:56:48Z</time>
      </trkpt>
      <trkpt lat="47.82269" lon="-3.54363">
        <ele>17</ele>
        <time>2019-07-17T15:56:49Z</time>
      </trkpt>
      <trkpt lat="47.8228" lon="-3.54369">
        <ele>16</ele>
        <time>2019-07-17T15:56:50Z</time>
      </trkpt>
      <trkpt lat="47.82281" lon="-3.5437">
        <ele>16</ele>
        <time>2019-07-17T15:56:51Z</time>
      </trkpt>
      <trkpt lat="47.82282" lon="-3.5437">
        <ele>16</ele>
        <time>2019-07-17T15:56:52Z</time>
      </trkpt>
      <trkpt lat="47.82283" lon="-3.54371">
        <ele>16</ele>
        <time>2019-07-17T15:56:53Z</time>
      </trkpt>
      <trkpt lat="47.82286" lon="-3.54373">
        <ele>15</ele>
        <time>2019-07-17T15:56:54Z</time>
      </trkpt>
      <trkpt lat="47.82288" lon="-3.54373">
        <ele>15</ele>
        <time>2019-07-17T15:56:55Z</time>
      </trkpt>
      <trkpt lat="47.82288" lon="-3.54374">
        <ele>15</ele>
        <time>2019-07-17T15:56:56Z</time>
      </trkpt>
      <trkpt lat="47.82299" lon="-3.54394">
        <ele>9</ele>
        <time>2019-07-17T15:56:57Z</time>
      </trkpt>
      <trkpt lat="47.82301" lon="-3.54397">
        <ele>9</ele>
        <time>2019-07-17T15:56:58Z</time>
      </trkpt>
      <trkpt lat="47.82302" lon="-3.54399">
        <ele>9</ele>
        <time>2019-07-17T15:56:59Z</time>
      </trkpt>
      <trkpt lat="47.82302" lon="-3.54401">
        <ele>9</ele>
        <time>2019-07-17T15:57:00Z</time>
      </trkpt>
      <trkpt lat="47.82303" lon="-3.54404">
        <ele>9</ele>
        <time>2019-07-17T15:57:01Z</time>
      </trkpt>
      <trkpt lat="47.82305" lon="-3.54407">
        <ele>9</ele>
        <time>2019-07-17T15:57:02Z</time>
      </trkpt>
      <trkpt lat="47.82306" lon="-3.5441">
        <ele>9</ele>
        <time>2019-07-17T15:57:03Z</time>
      </trkpt>
      <trkpt lat="47.82309" lon="-3.54413">
        <ele>9</ele>
        <time>2019-07-17T15:57:04Z</time>
      </trkpt>
      <trkpt lat="47.82311" lon="-3.54418">
        <ele>9</ele>
        <time>2019-07-17T15:57:05Z</time>
      </trkpt>
      <trkpt lat="47.82313" lon="-3.54422">
        <ele>9</ele>
        <time>2019-07-17T15:57:06Z</time>
      </trkpt>
      <trkpt lat="47.82316" lon="-3.54427">
        <ele>9</ele>
        <time>2019-07-17T15:57:07Z</time>
      </trkpt>
      <trkpt lat="47.82319" lon="-3.54431">
        <ele>9</ele>
        <time>2019-07-17T15:57:08Z</time>
      </trkpt>
      <trkpt lat="47.82322" lon="-3.54436">
        <ele>9</ele>
        <time>2019-07-17T15:57:09Z</time>
      </trkpt>
      <trkpt lat="47.82325" lon="-3.54439">
        <ele>9</ele>
        <time>2019-07-17T15:57:10Z</time>
      </trkpt>
      <trkpt lat="47.82326" lon="-3.54443">
        <ele>9</ele>
        <time>2019-07-17T15:57:11Z</time>
      </trkpt>
      <trkpt lat="47.82327" lon="-3.54446">
        <ele>9</ele>
        <time>2019-07-17T15:57:12Z</time>
      </trkpt>
      <trkpt lat="47.82329" lon="-3.54448">
        <ele>9</ele>
        <time>2019-07-17T15:57:13Z</time>
      </trkpt>
      <trkpt lat="47.8233" lon="-3.54452">
        <ele>9</ele>
        <time>2019-07-17T15:57:14Z</time>
      </trkpt>
      <trkpt lat="47.82331" lon="-3.54456">
        <ele>9</ele>
        <time>2019-07-17T15:57:15Z</time>
      </trkpt>
      <trkpt lat="47.82331" lon="-3.5446">
        <ele>9</ele>
        <time>2019-07-17T15:57:16Z</time>
      </trkpt>
      <trkpt lat="47.82331" lon="-3.54464">
        <ele>9</ele>
        <time>2019-07-17T15:57:17Z</time>
      </trkpt>
      <trkpt lat="47.82331" lon="-3.54468">
        <ele>9</ele>
        <time>2019-07-17T15:57:18Z</time>
      </trkpt>
      <trkpt lat="47.82331" lon="-3.54472">
        <ele>10</ele>
        <time>2019-07-17T15:57:19Z</time>
      </trkpt>
      <trkpt lat="47.82333" lon="-3.54477">
        <ele>10</ele>
        <time>2019-07-17T15:57:20Z</time>
      </trkpt>
      <trkpt lat="47.82334" lon="-3.54481">
        <ele>10</ele>
        <time>2019-07-17T15:57:21Z</time>
      </trkpt>
      <trkpt lat="47.82335" lon="-3.54486">
        <ele>10</ele>
        <time>2019-07-17T15:57:22Z</time>
      </trkpt>
      <trkpt lat="47.82336" lon="-3.5449">
        <ele>10</ele>
        <time>2019-07-17T15:57:23Z</time>
      </trkpt>
      <trkpt lat="47.82338" lon="-3.54496">
        <ele>9</ele>
        <time>2019-07-17T15:57:24Z</time>
      </trkpt>
      <trkpt lat="47.82339" lon="-3.54503">
        <ele>9</ele>
        <time>2019-07-17T15:57:25Z</time>
      </trkpt>
      <trkpt lat="47.82339" lon="-3.5451">
        <ele>9</ele>
        <time>2019-07-17T15:57:26Z</time>
      </trkpt>
      <trkpt lat="47.8234" lon="-3.54516">
        <ele>9</ele>
        <time>2019-07-17T15:57:27Z</time>
      </trkpt>
      <trkpt lat="47.8234" lon="-3.54522">
        <ele>9</ele>
        <time>2019-07-17T15:57:28Z</time>
      </trkpt>
      <trkpt lat="47.82341" lon="-3.54528">
        <ele>9</ele>
        <time>2019-07-17T15:57:29Z</time>
      </trkpt>
      <trkpt lat="47.82342" lon="-3.54533">
        <ele>9</ele>
        <time>2019-07-17T15:57:30Z</time>
      </trkpt>
      <trkpt lat="47.82344" lon="-3.54539">
        <ele>9</ele>
        <time>2019-07-17T15:57:31Z</time>
      </trkpt>
      <trkpt lat="47.82345" lon="-3.54544">
        <ele>8</ele>
        <time>2019-07-17T15:57:32Z</time>
      </trkpt>
      <trkpt lat="47.82347" lon="-3.54549">
        <ele>8</ele>
        <time>2019-07-17T15:57:33Z</time>
      </trkpt>
      <trkpt lat="47.82348" lon="-3.54554">
        <ele>8</ele>
        <time>2019-07-17T15:57:34Z</time>
      </trkpt>
      <trkpt lat="47.82348" lon="-3.54559">
        <ele>8</ele>
        <time>2019-07-17T15:57:35Z</time>
      </trkpt>
      <trkpt lat="47.82349" lon="-3.54563">
        <ele>8</ele>
        <time>2019-07-17T15:57:36Z</time>
      </trkpt>
      <trkpt lat="47.82349" lon="-3.54567">
        <ele>8</ele>
        <time>2019-07-17T15:57:37Z</time>
      </trkpt>
      <trkpt lat="47.82349" lon="-3.54571">
        <ele>8</ele>
        <time>2019-07-17T15:57:38Z</time>
      </trkpt>
      <trkpt lat="47.8235" lon="-3.54576">
        <ele>8</ele>
        <time>2019-07-17T15:57:39Z</time>
      </trkpt>
      <trkpt lat="47.8235" lon="-3.5458">
        <ele>8</ele>
        <time>2019-07-17T15:57:40Z</time>
      </trkpt>
      <trkpt lat="47.8235" lon="-3.54585">
        <ele>8</ele>
        <time>2019-07-17T15:57:41Z</time>
      </trkpt>
      <trkpt lat="47.82351" lon="-3.54589">
        <ele>8</ele>
        <time>2019-07-17T15:57:42Z</time>
      </trkpt>
      <trkpt lat="47.82351" lon="-3.54593">
        <ele>9</ele>
        <time>2019-07-17T15:57:43Z</time>
      </trkpt>
      <trkpt lat="47.82351" lon="-3.54598">
        <ele>9</ele>
        <time>2019-07-17T15:57:44Z</time>
      </trkpt>
      <trkpt lat="47.82352" lon="-3.54601">
        <ele>9</ele>
        <time>2019-07-17T15:57:45Z</time>
      </trkpt>
      <trkpt lat="47.82354" lon="-3.54603">
        <ele>9</ele>
        <time>2019-07-17T15:57:46Z</time>
      </trkpt>
      <trkpt lat="47.82355" lon="-3.54605">
        <ele>9</ele>
        <time>2019-07-17T15:57:47Z</time>
      </trkpt>
      <trkpt lat="47.82358" lon="-3.54607">
        <ele>10</ele>
        <time>2019-07-17T15:57:48Z</time>
      </trkpt>
      <trkpt lat="47.8236" lon="-3.54608">
        <ele>10</ele>
        <time>2019-07-17T15:57:49Z</time>
      </trkpt>
      <trkpt lat="47.82364" lon="-3.54609">
        <ele>10</ele>
        <time>2019-07-17T15:57:50Z</time>
      </trkpt>
      <trkpt lat="47.82367" lon="-3.54609">
        <ele>11</ele>
        <time>2019-07-17T15:57:51Z</time>
      </trkpt>
      <trkpt lat="47.8237" lon="-3.54607">
        <ele>11</ele>
        <time>2019-07-17T15:57:52Z</time>
      </trkpt>
      <trkpt lat="47.82373" lon="-3.54606">
        <ele>11</ele>
        <time>2019-07-17T15:57:53Z</time>
      </trkpt>
      <trkpt lat="47.82375" lon="-3.54605">
        <ele>12</ele>
        <time>2019-07-17T15:57:54Z</time>
      </trkpt>
      <trkpt lat="47.82376" lon="-3.54602">
        <ele>12</ele>
        <time>2019-07-17T15:57:55Z</time>
      </trkpt>
      <trkpt lat="47.82377" lon="-3.54601">
        <ele>12</ele>
        <time>2019-07-17T15:57:56Z</time>
      </trkpt>
      <trkpt lat="47.82378" lon="-3.54598">
        <ele>12</ele>
        <time>2019-07-17T15:57:57Z</time>
      </trkpt>
      <trkpt lat="47.8238" lon="-3.54595">
        <ele>12</ele>
        <time>2019-07-17T15:57:58Z</time>
      </trkpt>
      <trkpt lat="47.82381" lon="-3.5459">
        <ele>13</ele>
        <time>2019-07-17T15:57:59Z</time>
      </trkpt>
      <trkpt lat="47.82382" lon="-3.54586">
        <ele>13</ele>
        <time>2019-07-17T15:58:00Z</time>
      </trkpt>
      <trkpt lat="47.82383" lon="-3.54581">
        <ele>13</ele>
        <time>2019-07-17T15:58:01Z</time>
      </trkpt>
      <trkpt lat="47.82385" lon="-3.54576">
        <ele>13</ele>
        <time>2019-07-17T15:58:02Z</time>
      </trkpt>
      <trkpt lat="47.82386" lon="-3.54572">
        <ele>13</ele>
        <time>2019-07-17T15:58:03Z</time>
      </trkpt>
      <trkpt lat="47.82387" lon="-3.54568">
        <ele>13</ele>
        <time>2019-07-17T15:58:04Z</time>
      </trkpt>
      <trkpt lat="47.82388" lon="-3.54564">
        <ele>13</ele>
        <time>2019-07-17T15:58:05Z</time>
      </trkpt>
      <trkpt lat="47.8239" lon="-3.5456">
        <ele>13</ele>
        <time>2019-07-17T15:58:06Z</time>
      </trkpt>
      <trkpt lat="47.82391" lon="-3.54556">
        <ele>13</ele>
        <time>2019-07-17T15:58:07Z</time>
      </trkpt>
      <trkpt lat="47.82393" lon="-3.54551">
        <ele>13</ele>
        <time>2019-07-17T15:58:08Z</time>
      </trkpt>
      <trkpt lat="47.82394" lon="-3.54546">
        <ele>12</ele>
        <time>2019-07-17T15:58:09Z</time>
      </trkpt>
      <trkpt lat="47.82394" lon="-3.54541">
        <ele>12</ele>
        <time>2019-07-17T15:58:10Z</time>
      </trkpt>
      <trkpt lat="47.82395" lon="-3.54535">
        <ele>12</ele>
        <time>2019-07-17T15:58:11Z</time>
      </trkpt>
      <trkpt lat="47.82397" lon="-3.54531">
        <ele>12</ele>
        <time>2019-07-17T15:58:12Z</time>
      </trkpt>
      <trkpt lat="47.82398" lon="-3.54526">
        <ele>12</ele>
        <time>2019-07-17T15:58:13Z</time>
      </trkpt>
      <trkpt lat="47.82399" lon="-3.54521">
        <ele>12</ele>
        <time>2019-07-17T15:58:14Z</time>
      </trkpt>
      <trkpt lat="47.824" lon="-3.54516">
        <ele>12</ele>
        <time>2019-07-17T15:58:15Z</time>
      </trkpt>
      <trkpt lat="47.82401" lon="-3.54512">
        <ele>13</ele>
        <time>2019-07-17T15:58:16Z</time>
      </trkpt>
      <trkpt lat="47.82401" lon="-3.54507">
        <ele>13</ele>
        <time>2019-07-17T15:58:17Z</time>
      </trkpt>
      <trkpt lat="47.82402" lon="-3.54503">
        <ele>13</ele>
        <time>2019-07-17T15:58:18Z</time>
      </trkpt>
      <trkpt lat="47.82403" lon="-3.54498">
        <ele>13</ele>
        <time>2019-07-17T15:58:19Z</time>
      </trkpt>
      <trkpt lat="47.82403" lon="-3.54493">
        <ele>13</ele>
        <time>2019-07-17T15:58:20Z</time>
      </trkpt>
      <trkpt lat="47.82404" lon="-3.54487">
        <ele>14</ele>
        <time>2019-07-17T15:58:21Z</time>
      </trkpt>
      <trkpt lat="47.82405" lon="-3.54482">
        <ele>14</ele>
        <time>2019-07-17T15:58:22Z</time>
      </trkpt>
      <trkpt lat="47.82406" lon="-3.54477">
        <ele>14</ele>
        <time>2019-07-17T15:58:23Z</time>
      </trkpt>
      <trkpt lat="47.82407" lon="-3.54471">
        <ele>14</ele>
        <time>2019-07-17T15:58:24Z</time>
      </trkpt>
      <trkpt lat="47.82407" lon="-3.54467">
        <ele>14</ele>
        <time>2019-07-17T15:58:25Z</time>
      </trkpt>
      <trkpt lat="47.82408" lon="-3.54461">
        <ele>14</ele>
        <time>2019-07-17T15:58:26Z</time>
      </trkpt>
      <trkpt lat="47.82408" lon="-3.54456">
        <ele>15</ele>
        <time>2019-07-17T15:58:27Z</time>
      </trkpt>
      <trkpt lat="47.82409" lon="-3.54452">
        <ele>15</ele>
        <time>2019-07-17T15:58:28Z</time>
      </trkpt>
      <trkpt lat="47.8241" lon="-3.54447">
        <ele>15</ele>
        <time>2019-07-17T15:58:29Z</time>
      </trkpt>
      <trkpt lat="47.82411" lon="-3.54443">
        <ele>15</ele>
        <time>2019-07-17T15:58:30Z</time>
      </trkpt>
      <trkpt lat="47.82412" lon="-3.54438">
        <ele>15</ele>
        <time>2019-07-17T15:58:31Z</time>
      </trkpt>
      <trkpt lat="47.82413" lon="-3.54433">
        <ele>15</ele>
        <time>2019-07-17T15:58:32Z</time>
      </trkpt>
      <trkpt lat="47.82414" lon="-3.54427">
        <ele>16</ele>
        <time>2019-07-17T15:58:33Z</time>
      </trkpt>
      <trkpt lat="47.82414" lon="-3.54422">
        <ele>16</ele>
        <time>2019-07-17T15:58:34Z</time>
      </trkpt>
      <trkpt lat="47.82414" lon="-3.54416">
        <ele>16</ele>
        <time>2019-07-17T15:58:35Z</time>
      </trkpt>
      <trkpt lat="47.82416" lon="-3.5441">
        <ele>16</ele>
        <time>2019-07-17T15:58:36Z</time>
      </trkpt>
      <trkpt lat="47.82416" lon="-3.54404">
        <ele>16</ele>
        <time>2019-07-17T15:58:37Z</time>
      </trkpt>
      <trkpt lat="47.82417" lon="-3.54398">
        <ele>16</ele>
        <time>2019-07-17T15:58:38Z</time>
      </trkpt>
      <trkpt lat="47.82417" lon="-3.54392">
        <ele>16</ele>
        <time>2019-07-17T15:58:39Z</time>
      </trkpt>
      <trkpt lat="47.82418" lon="-3.54386">
        <ele>17</ele>
        <time>2019-07-17T15:58:40Z</time>
      </trkpt>
      <trkpt lat="47.82417" lon="-3.5438">
        <ele>17</ele>
        <time>2019-07-17T15:58:41Z</time>
      </trkpt>
      <trkpt lat="47.82417" lon="-3.54374">
        <ele>17</ele>
        <time>2019-07-17T15:58:42Z</time>
      </trkpt>
      <trkpt lat="47.82417" lon="-3.54369">
        <ele>17</ele>
        <time>2019-07-17T15:58:43Z</time>
      </trkpt>
      <trkpt lat="47.82416" lon="-3.54364">
        <ele>18</ele>
        <time>2019-07-17T15:58:44Z</time>
      </trkpt>
      <trkpt lat="47.82413" lon="-3.54358">
        <ele>18</ele>
        <time>2019-07-17T15:58:45Z</time>
      </trkpt>
      <trkpt lat="47.82411" lon="-3.54353">
        <ele>18</ele>
        <time>2019-07-17T15:58:46Z</time>
      </trkpt>
      <trkpt lat="47.82408" lon="-3.54349">
        <ele>18</ele>
        <time>2019-07-17T15:58:47Z</time>
      </trkpt>
      <trkpt lat="47.82405" lon="-3.54344">
        <ele>19</ele>
        <time>2019-07-17T15:58:48Z</time>
      </trkpt>
      <trkpt lat="47.82402" lon="-3.5434">
        <ele>19</ele>
        <time>2019-07-17T15:58:49Z</time>
      </trkpt>
      <trkpt lat="47.82399" lon="-3.54335">
        <ele>19</ele>
        <time>2019-07-17T15:58:50Z</time>
      </trkpt>
      <trkpt lat="47.82396" lon="-3.5433">
        <ele>19</ele>
        <time>2019-07-17T15:58:51Z</time>
      </trkpt>
      <trkpt lat="47.82393" lon="-3.54325">
        <ele>19</ele>
        <time>2019-07-17T15:58:52Z</time>
      </trkpt>
      <trkpt lat="47.8239" lon="-3.5432">
        <ele>19</ele>
        <time>2019-07-17T15:58:53Z</time>
      </trkpt>
      <trkpt lat="47.82388" lon="-3.54314">
        <ele>20</ele>
        <time>2019-07-17T15:58:54Z</time>
      </trkpt>
      <trkpt lat="47.82387" lon="-3.54309">
        <ele>20</ele>
        <time>2019-07-17T15:58:55Z</time>
      </trkpt>
      <trkpt lat="47.82387" lon="-3.54304">
        <ele>20</ele>
        <time>2019-07-17T15:58:56Z</time>
      </trkpt>
      <trkpt lat="47.82388" lon="-3.54299">
        <ele>20</ele>
        <time>2019-07-17T15:58:57Z</time>
      </trkpt>
      <trkpt lat="47.8239" lon="-3.54295">
        <ele>20</ele>
        <time>2019-07-17T15:58:58Z</time>
      </trkpt>
      <trkpt lat="47.82391" lon="-3.5429">
        <ele>20</ele>
        <time>2019-07-17T15:58:59Z</time>
      </trkpt>
      <trkpt lat="47.82393" lon="-3.54287">
        <ele>20</ele>
        <time>2019-07-17T15:59:00Z</time>
      </trkpt>
      <trkpt lat="47.82395" lon="-3.54284">
        <ele>20</ele>
        <time>2019-07-17T15:59:01Z</time>
      </trkpt>
      <trkpt lat="47.82397" lon="-3.54281">
        <ele>20</ele>
        <time>2019-07-17T15:59:02Z</time>
      </trkpt>
      <trkpt lat="47.82399" lon="-3.54279">
        <ele>20</ele>
        <time>2019-07-17T15:59:03Z</time>
      </trkpt>
      <trkpt lat="47.82401" lon="-3.54277">
        <ele>20</ele>
        <time>2019-07-17T15:59:04Z</time>
      </trkpt>
      <trkpt lat="47.82404" lon="-3.54276">
        <ele>21</ele>
        <time>2019-07-17T15:59:05Z</time>
      </trkpt>
      <trkpt lat="47.82406" lon="-3.54273">
        <ele>21</ele>
        <time>2019-07-17T15:59:06Z</time>
      </trkpt>
      <trkpt lat="47.82409" lon="-3.54271">
        <ele>21</ele>
        <time>2019-07-17T15:59:07Z</time>
      </trkpt>
      <trkpt lat="47.82412" lon="-3.5427">
        <ele>21</ele>
        <time>2019-07-17T15:59:08Z</time>
      </trkpt>
      <trkpt lat="47.82415" lon="-3.54267">
        <ele>21</ele>
        <time>2019-07-17T15:59:09Z</time>
      </trkpt>
      <trkpt lat="47.82417" lon="-3.54265">
        <ele>22</ele>
        <time>2019-07-17T15:59:10Z</time>
      </trkpt>
      <trkpt lat="47.8242" lon="-3.54263">
        <ele>22</ele>
        <time>2019-07-17T15:59:11Z</time>
      </trkpt>
      <trkpt lat="47.82423" lon="-3.54261">
        <ele>22</ele>
        <time>2019-07-17T15:59:12Z</time>
      </trkpt>
      <trkpt lat="47.82425" lon="-3.54259">
        <ele>23</ele>
        <time>2019-07-17T15:59:13Z</time>
      </trkpt>
      <trkpt lat="47.82426" lon="-3.54258">
        <ele>23</ele>
        <time>2019-07-17T15:59:14Z</time>
      </trkpt>
      <trkpt lat="47.82426" lon="-3.54258">
        <ele>23</ele>
        <time>2019-07-17T15:59:15Z</time>
      </trkpt>
      <trkpt lat="47.82426" lon="-3.54257">
        <ele>23</ele>
        <time>2019-07-17T15:59:16Z</time>
      </trkpt>
      <trkpt lat="47.82426" lon="-3.54257">
        <ele>24</ele>
        <time>2019-07-17T15:59:17Z</time>
      </trkpt>
      <trkpt lat="47.82429" lon="-3.54253">
        <ele>25</ele>
        <time>2019-07-17T15:59:18Z</time>
      </trkpt>
      <trkpt lat="47.8243" lon="-3.54252">
        <ele>26</ele>
        <time>2019-07-17T15:59:19Z</time>
      </trkpt>
      <trkpt lat="47.82431" lon="-3.54251">
        <ele>26</ele>
        <time>2019-07-17T15:59:20Z</time>
      </trkpt>
      <trkpt lat="47.82433" lon="-3.54249">
        <ele>26</ele>
        <time>2019-07-17T15:59:21Z</time>
      </trkpt>
      <trkpt lat="47.82434" lon="-3.54248">
        <ele>26</ele>
        <time>2019-07-17T15:59:22Z</time>
      </trkpt>
      <trkpt lat="47.82436" lon="-3.54246">
        <ele>27</ele>
        <time>2019-07-17T15:59:23Z</time>
      </trkpt>
      <trkpt lat="47.82437" lon="-3.54244">
        <ele>27</ele>
        <time>2019-07-17T15:59:24Z</time>
      </trkpt>
      <trkpt lat="47.82439" lon="-3.54243">
        <ele>27</ele>
        <time>2019-07-17T15:59:25Z</time>
      </trkpt>
      <trkpt lat="47.82442" lon="-3.54241">
        <ele>27</ele>
        <time>2019-07-17T15:59:26Z</time>
      </trkpt>
      <trkpt lat="47.82445" lon="-3.54239">
        <ele>27</ele>
        <time>2019-07-17T15:59:27Z</time>
      </trkpt>
      <trkpt lat="47.82448" lon="-3.54237">
        <ele>28</ele>
        <time>2019-07-17T15:59:28Z</time>
      </trkpt>
      <trkpt lat="47.82451" lon="-3.54236">
        <ele>28</ele>
        <time>2019-07-17T15:59:29Z</time>
      </trkpt>
      <trkpt lat="47.82453" lon="-3.54234">
        <ele>28</ele>
        <time>2019-07-17T15:59:30Z</time>
      </trkpt>
      <trkpt lat="47.82456" lon="-3.54233">
        <ele>28</ele>
        <time>2019-07-17T15:59:31Z</time>
      </trkpt>
      <trkpt lat="47.82458" lon="-3.54232">
        <ele>29</ele>
        <time>2019-07-17T15:59:32Z</time>
      </trkpt>
      <trkpt lat="47.8246" lon="-3.5423">
        <ele>29</ele>
        <time>2019-07-17T15:59:33Z</time>
      </trkpt>
      <trkpt lat="47.82463" lon="-3.54229">
        <ele>29</ele>
        <time>2019-07-17T15:59:34Z</time>
      </trkpt>
      <trkpt lat="47.82466" lon="-3.54227">
        <ele>29</ele>
        <time>2019-07-17T15:59:35Z</time>
      </trkpt>
      <trkpt lat="47.82469" lon="-3.54227">
        <ele>30</ele>
        <time>2019-07-17T15:59:36Z</time>
      </trkpt>
      <trkpt lat="47.82473" lon="-3.54226">
        <ele>30</ele>
        <time>2019-07-17T15:59:37Z</time>
      </trkpt>
      <trkpt lat="47.82477" lon="-3.54226">
        <ele>30</ele>
        <time>2019-07-17T15:59:38Z</time>
      </trkpt>
      <trkpt lat="47.82483" lon="-3.54227">
        <ele>30</ele>
        <time>2019-07-17T15:59:39Z</time>
      </trkpt>
      <trkpt lat="47.82487" lon="-3.54228">
        <ele>30</ele>
        <time>2019-07-17T15:59:40Z</time>
      </trkpt>
      <trkpt lat="47.82492" lon="-3.54228">
        <ele>31</ele>
        <time>2019-07-17T15:59:41Z</time>
      </trkpt>
      <trkpt lat="47.82496" lon="-3.54231">
        <ele>31</ele>
        <time>2019-07-17T15:59:42Z</time>
      </trkpt>
      <trkpt lat="47.825" lon="-3.54232">
        <ele>31</ele>
        <time>2019-07-17T15:59:43Z</time>
      </trkpt>
      <trkpt lat="47.82505" lon="-3.54233">
        <ele>31</ele>
        <time>2019-07-17T15:59:44Z</time>
      </trkpt>
      <trkpt lat="47.82509" lon="-3.54235">
        <ele>31</ele>
        <time>2019-07-17T15:59:45Z</time>
      </trkpt>
      <trkpt lat="47.82512" lon="-3.54236">
        <ele>31</ele>
        <time>2019-07-17T15:59:46Z</time>
      </trkpt>
      <trkpt lat="47.82517" lon="-3.54237">
        <ele>31</ele>
        <time>2019-07-17T15:59:47Z</time>
      </trkpt>
      <trkpt lat="47.8252" lon="-3.54238">
        <ele>31</ele>
        <time>2019-07-17T15:59:48Z</time>
      </trkpt>
      <trkpt lat="47.82525" lon="-3.5424">
        <ele>31</ele>
        <time>2019-07-17T15:59:49Z</time>
      </trkpt>
      <trkpt lat="47.82529" lon="-3.54242">
        <ele>31</ele>
        <time>2019-07-17T15:59:50Z</time>
      </trkpt>
      <trkpt lat="47.82533" lon="-3.54245">
        <ele>31</ele>
        <time>2019-07-17T15:59:51Z</time>
      </trkpt>
      <trkpt lat="47.82537" lon="-3.54247">
        <ele>31</ele>
        <time>2019-07-17T15:59:52Z</time>
      </trkpt>
      <trkpt lat="47.8254" lon="-3.54248">
        <ele>31</ele>
        <time>2019-07-17T15:59:53Z</time>
      </trkpt>
      <trkpt lat="47.82544" lon="-3.5425">
        <ele>31</ele>
        <time>2019-07-17T15:59:54Z</time>
      </trkpt>
      <trkpt lat="47.82548" lon="-3.54252">
        <ele>31</ele>
        <time>2019-07-17T15:59:55Z</time>
      </trkpt>
      <trkpt lat="47.82552" lon="-3.54254">
        <ele>31</ele>
        <time>2019-07-17T15:59:56Z</time>
      </trkpt>
      <trkpt lat="47.82557" lon="-3.54256">
        <ele>31</ele>
        <time>2019-07-17T15:59:57Z</time>
      </trkpt>
      <trkpt lat="47.82562" lon="-3.54258">
        <ele>31</ele>
        <time>2019-07-17T15:59:58Z</time>
      </trkpt>
      <trkpt lat="47.82567" lon="-3.54259">
        <ele>31</ele>
        <time>2019-07-17T15:59:59Z</time>
      </trkpt>
      <trkpt lat="47.82571" lon="-3.54261">
        <ele>31</ele>
        <time>2019-07-17T16:00:00Z</time>
      </trkpt>
      <trkpt lat="47.82576" lon="-3.54263">
        <ele>31</ele>
        <time>2019-07-17T16:00:01Z</time>
      </trkpt>
      <trkpt lat="47.82581" lon="-3.54265">
        <ele>31</ele>
        <time>2019-07-17T16:00:02Z</time>
      </trkpt>
      <trkpt lat="47.82584" lon="-3.54267">
        <ele>31</ele>
        <time>2019-07-17T16:00:03Z</time>
      </trkpt>
      <trkpt lat="47.82588" lon="-3.54269">
        <ele>31</ele>
        <time>2019-07-17T16:00:04Z</time>
      </trkpt>
      <trkpt lat="47.82592" lon="-3.5427">
        <ele>31</ele>
        <time>2019-07-17T16:00:05Z</time>
      </trkpt>
      <trkpt lat="47.82596" lon="-3.54271">
        <ele>31</ele>
        <time>2019-07-17T16:00:06Z</time>
      </trkpt>
      <trkpt lat="47.82599" lon="-3.54272">
        <ele>31</ele>
        <time>2019-07-17T16:00:07Z</time>
      </trkpt>
      <trkpt lat="47.82601" lon="-3.54273">
        <ele>31</ele>
        <time>2019-07-17T16:00:08Z</time>
      </trkpt>
      <trkpt lat="47.82603" lon="-3.54274">
        <ele>31</ele>
        <time>2019-07-17T16:00:09Z</time>
      </trkpt>
      <trkpt lat="47.82605" lon="-3.54275">
        <ele>32</ele>
        <time>2019-07-17T16:00:10Z</time>
      </trkpt>
      <trkpt lat="47.82607" lon="-3.54276">
        <ele>32</ele>
        <time>2019-07-17T16:00:11Z</time>
      </trkpt>
      <trkpt lat="47.8261" lon="-3.54277">
        <ele>32</ele>
        <time>2019-07-17T16:00:12Z</time>
      </trkpt>
      <trkpt lat="47.82614" lon="-3.54278">
        <ele>32</ele>
        <time>2019-07-17T16:00:13Z</time>
      </trkpt>
      <trkpt lat="47.82617" lon="-3.54279">
        <ele>32</ele>
        <time>2019-07-17T16:00:14Z</time>
      </trkpt>
      <trkpt lat="47.82621" lon="-3.5428">
        <ele>32</ele>
        <time>2019-07-17T16:00:15Z</time>
      </trkpt>
      <trkpt lat="47.82626" lon="-3.54283">
        <ele>32</ele>
        <time>2019-07-17T16:00:16Z</time>
      </trkpt>
      <trkpt lat="47.8263" lon="-3.54285">
        <ele>32</ele>
        <time>2019-07-17T16:00:17Z</time>
      </trkpt>
      <trkpt lat="47.82635" lon="-3.54287">
        <ele>33</ele>
        <time>2019-07-17T16:00:18Z</time>
      </trkpt>
      <trkpt lat="47.82639" lon="-3.54288">
        <ele>33</ele>
        <time>2019-07-17T16:00:19Z</time>
      </trkpt>
      <trkpt lat="47.82643" lon="-3.54289">
        <ele>33</ele>
        <time>2019-07-17T16:00:20Z</time>
      </trkpt>
      <trkpt lat="47.82647" lon="-3.5429">
        <ele>33</ele>
        <time>2019-07-17T16:00:21Z</time>
      </trkpt>
      <trkpt lat="47.82651" lon="-3.54292">
        <ele>33</ele>
        <time>2019-07-17T16:00:22Z</time>
      </trkpt>
      <trkpt lat="47.82655" lon="-3.54294">
        <ele>34</ele>
        <time>2019-07-17T16:00:23Z</time>
      </trkpt>
      <trkpt lat="47.82659" lon="-3.54295">
        <ele>34</ele>
        <time>2019-07-17T16:00:24Z</time>
      </trkpt>
      <trkpt lat="47.82662" lon="-3.54297">
        <ele>34</ele>
        <time>2019-07-17T16:00:25Z</time>
      </trkpt>
      <trkpt lat="47.82666" lon="-3.54298">
        <ele>34</ele>
        <time>2019-07-17T16:00:26Z</time>
      </trkpt>
      <trkpt lat="47.82669" lon="-3.54299">
        <ele>34</ele>
        <time>2019-07-17T16:00:27Z</time>
      </trkpt>
      <trkpt lat="47.82673" lon="-3.54301">
        <ele>35</ele>
        <time>2019-07-17T16:00:28Z</time>
      </trkpt>
      <trkpt lat="47.82676" lon="-3.54302">
        <ele>35</ele>
        <time>2019-07-17T16:00:29Z</time>
      </trkpt>
      <trkpt lat="47.8268" lon="-3.54303">
        <ele>35</ele>
        <time>2019-07-17T16:00:30Z</time>
      </trkpt>
      <trkpt lat="47.82684" lon="-3.54304">
        <ele>35</ele>
        <time>2019-07-17T16:00:31Z</time>
      </trkpt>
      <trkpt lat="47.82687" lon="-3.54306">
        <ele>36</ele>
        <time>2019-07-17T16:00:32Z</time>
      </trkpt>
      <trkpt lat="47.82691" lon="-3.54308">
        <ele>36</ele>
        <time>2019-07-17T16:00:33Z</time>
      </trkpt>
      <trkpt lat="47.82694" lon="-3.54309">
        <ele>36</ele>
        <time>2019-07-17T16:00:34Z</time>
      </trkpt>
      <trkpt lat="47.82697" lon="-3.5431">
        <ele>36</ele>
        <time>2019-07-17T16:00:35Z</time>
      </trkpt>
      <trkpt lat="47.827" lon="-3.54312">
        <ele>36</ele>
        <time>2019-07-17T16:00:36Z</time>
      </trkpt>
      <trkpt lat="47.82704" lon="-3.54313">
        <ele>36</ele>
        <time>2019-07-17T16:00:37Z</time>
      </trkpt>
      <trkpt lat="47.82708" lon="-3.54314">
        <ele>36</ele>
        <time>2019-07-17T16:00:38Z</time>
      </trkpt>
      <trkpt lat="47.82712" lon="-3.54316">
        <ele>36</ele>
        <time>2019-07-17T16:00:39Z</time>
      </trkpt>
      <trkpt lat="47.82716" lon="-3.54317">
        <ele>36</ele>
        <time>2019-07-17T16:00:40Z</time>
      </trkpt>
      <trkpt lat="47.82719" lon="-3.54318">
        <ele>37</ele>
        <time>2019-07-17T16:00:41Z</time>
      </trkpt>
      <trkpt lat="47.82723" lon="-3.54319">
        <ele>37</ele>
        <time>2019-07-17T16:00:42Z</time>
      </trkpt>
      <trkpt lat="47.82727" lon="-3.5432">
        <ele>37</ele>
        <time>2019-07-17T16:00:43Z</time>
      </trkpt>
      <trkpt lat="47.82731" lon="-3.54321">
        <ele>37</ele>
        <time>2019-07-17T16:00:44Z</time>
      </trkpt>
      <trkpt lat="47.82735" lon="-3.54323">
        <ele>37</ele>
        <time>2019-07-17T16:00:45Z</time>
      </trkpt>
      <trkpt lat="47.82739" lon="-3.54324">
        <ele>37</ele>
        <time>2019-07-17T16:00:46Z</time>
      </trkpt>
      <trkpt lat="47.82743" lon="-3.54326">
        <ele>38</ele>
        <time>2019-07-17T16:00:47Z</time>
      </trkpt>
      <trkpt lat="47.82747" lon="-3.54327">
        <ele>38</ele>
        <time>2019-07-17T16:00:48Z</time>
      </trkpt>
      <trkpt lat="47.82751" lon="-3.54328">
        <ele>38</ele>
        <time>2019-07-17T16:00:49Z</time>
      </trkpt>
      <trkpt lat="47.82755" lon="-3.5433">
        <ele>38</ele>
        <time>2019-07-17T16:00:50Z</time>
      </trkpt>
      <trkpt lat="47.8276" lon="-3.54331">
        <ele>38</ele>
        <time>2019-07-17T16:00:51Z</time>
      </trkpt>
      <trkpt lat="47.82764" lon="-3.54332">
        <ele>39</ele>
        <time>2019-07-17T16:00:52Z</time>
      </trkpt>
      <trkpt lat="47.82768" lon="-3.54333">
        <ele>39</ele>
        <time>2019-07-17T16:00:53Z</time>
      </trkpt>
      <trkpt lat="47.82772" lon="-3.54335">
        <ele>39</ele>
        <time>2019-07-17T16:00:54Z</time>
      </trkpt>
      <trkpt lat="47.82776" lon="-3.54336">
        <ele>39</ele>
        <time>2019-07-17T16:00:55Z</time>
      </trkpt>
      <trkpt lat="47.82779" lon="-3.54337">
        <ele>39</ele>
        <time>2019-07-17T16:00:56Z</time>
      </trkpt>
      <trkpt lat="47.82783" lon="-3.54338">
        <ele>39</ele>
        <time>2019-07-17T16:00:57Z</time>
      </trkpt>
      <trkpt lat="47.82787" lon="-3.5434">
        <ele>40</ele>
        <time>2019-07-17T16:00:58Z</time>
      </trkpt>
      <trkpt lat="47.82791" lon="-3.54341">
        <ele>40</ele>
        <time>2019-07-17T16:00:59Z</time>
      </trkpt>
      <trkpt lat="47.82795" lon="-3.54342">
        <ele>40</ele>
        <time>2019-07-17T16:01:00Z</time>
      </trkpt>
      <trkpt lat="47.828" lon="-3.54343">
        <ele>40</ele>
        <time>2019-07-17T16:01:01Z</time>
      </trkpt>
      <trkpt lat="47.82804" lon="-3.54344">
        <ele>40</ele>
        <time>2019-07-17T16:01:02Z</time>
      </trkpt>
      <trkpt lat="47.82807" lon="-3.54345">
        <ele>40</ele>
        <time>2019-07-17T16:01:03Z</time>
      </trkpt>
      <trkpt lat="47.82811" lon="-3.54347">
        <ele>40</ele>
        <time>2019-07-17T16:01:04Z</time>
      </trkpt>
      <trkpt lat="47.82815" lon="-3.54349">
        <ele>40</ele>
        <time>2019-07-17T16:01:05Z</time>
      </trkpt>
      <trkpt lat="47.82819" lon="-3.5435">
        <ele>40</ele>
        <time>2019-07-17T16:01:06Z</time>
      </trkpt>
      <trkpt lat="47.82823" lon="-3.54351">
        <ele>40</ele>
        <time>2019-07-17T16:01:07Z</time>
      </trkpt>
      <trkpt lat="47.82827" lon="-3.54352">
        <ele>40</ele>
        <time>2019-07-17T16:01:08Z</time>
      </trkpt>
      <trkpt lat="47.82831" lon="-3.54353">
        <ele>40</ele>
        <time>2019-07-17T16:01:09Z</time>
      </trkpt>
      <trkpt lat="47.82835" lon="-3.54354">
        <ele>40</ele>
        <time>2019-07-17T16:01:10Z</time>
      </trkpt>
      <trkpt lat="47.8284" lon="-3.54356">
        <ele>40</ele>
        <time>2019-07-17T16:01:11Z</time>
      </trkpt>
      <trkpt lat="47.82844" lon="-3.54357">
        <ele>40</ele>
        <time>2019-07-17T16:01:12Z</time>
      </trkpt>
      <trkpt lat="47.82847" lon="-3.54357">
        <ele>40</ele>
        <time>2019-07-17T16:01:13Z</time>
      </trkpt>
      <trkpt lat="47.82852" lon="-3.54359">
        <ele>40</ele>
        <time>2019-07-17T16:01:14Z</time>
      </trkpt>
      <trkpt lat="47.82857" lon="-3.5436">
        <ele>40</ele>
        <time>2019-07-17T16:01:15Z</time>
      </trkpt>
      <trkpt lat="47.82862" lon="-3.54362">
        <ele>40</ele>
        <time>2019-07-17T16:01:16Z</time>
      </trkpt>
      <trkpt lat="47.82867" lon="-3.54363">
        <ele>40</ele>
        <time>2019-07-17T16:01:17Z</time>
      </trkpt>
      <trkpt lat="47.82872" lon="-3.54365">
        <ele>40</ele>
        <time>2019-07-17T16:01:18Z</time>
      </trkpt>
      <trkpt lat="47.82875" lon="-3.54367">
        <ele>40</ele>
        <time>2019-07-17T16:01:19Z</time>
      </trkpt>
      <trkpt lat="47.82879" lon="-3.54368">
        <ele>40</ele>
        <time>2019-07-17T16:01:20Z</time>
      </trkpt>
      <trkpt lat="47.82884" lon="-3.5437">
        <ele>40</ele>
        <time>2019-07-17T16:01:21Z</time>
      </trkpt>
      <trkpt lat="47.82889" lon="-3.54372">
        <ele>40</ele>
        <time>2019-07-17T16:01:22Z</time>
      </trkpt>
      <trkpt lat="47.82895" lon="-3.54373">
        <ele>40</ele>
        <time>2019-07-17T16:01:23Z</time>
      </trkpt>
      <trkpt lat="47.82901" lon="-3.54375">
        <ele>40</ele>
        <time>2019-07-17T16:01:24Z</time>
      </trkpt>
      <trkpt lat="47.82906" lon="-3.54376">
        <ele>40</ele>
        <time>2019-07-17T16:01:25Z</time>
      </trkpt>
      <trkpt lat="47.82912" lon="-3.54378">
        <ele>40</ele>
        <time>2019-07-17T16:01:26Z</time>
      </trkpt>
      <trkpt lat="47.82917" lon="-3.5438">
        <ele>40</ele>
        <time>2019-07-17T16:01:27Z</time>
      </trkpt>
      <trkpt lat="47.82922" lon="-3.54382">
        <ele>40</ele>
        <time>2019-07-17T16:01:28Z</time>
      </trkpt>
      <trkpt lat="47.82926" lon="-3.54384">
        <ele>40</ele>
        <time>2019-07-17T16:01:29Z</time>
      </trkpt>
      <trkpt lat="47.82931" lon="-3.54385">
        <ele>40</ele>
        <time>2019-07-17T16:01:30Z</time>
      </trkpt>
      <trkpt lat="47.82936" lon="-3.54386">
        <ele>40</ele>
        <time>2019-07-17T16:01:31Z</time>
      </trkpt>
      <trkpt lat="47.82939" lon="-3.54387">
        <ele>40</ele>
        <time>2019-07-17T16:01:32Z</time>
      </trkpt>
      <trkpt lat="47.82943" lon="-3.54389">
        <ele>40</ele>
        <time>2019-07-17T16:01:33Z</time>
      </trkpt>
      <trkpt lat="47.82948" lon="-3.54391">
        <ele>40</ele>
        <time>2019-07-17T16:01:34Z</time>
      </trkpt>
      <trkpt lat="47.82951" lon="-3.54392">
        <ele>41</ele>
        <time>2019-07-17T16:01:35Z</time>
      </trkpt>
      <trkpt lat="47.82955" lon="-3.54393">
        <ele>41</ele>
        <time>2019-07-17T16:01:36Z</time>
      </trkpt>
      <trkpt lat="47.82958" lon="-3.54393">
        <ele>41</ele>
        <time>2019-07-17T16:01:37Z</time>
      </trkpt>
      <trkpt lat="47.8296" lon="-3.54392">
        <ele>41</ele>
        <time>2019-07-17T16:01:38Z</time>
      </trkpt>
      <trkpt lat="47.82962" lon="-3.54388">
        <ele>41</ele>
        <time>2019-07-17T16:01:39Z</time>
      </trkpt>
      <trkpt lat="47.82963" lon="-3.54385">
        <ele>41</ele>
        <time>2019-07-17T16:01:40Z</time>
      </trkpt>
      <trkpt lat="47.82965" lon="-3.54381">
        <ele>41</ele>
        <time>2019-07-17T16:01:41Z</time>
      </trkpt>
      <trkpt lat="47.82966" lon="-3.54376">
        <ele>41</ele>
        <time>2019-07-17T16:01:42Z</time>
      </trkpt>
      <trkpt lat="47.82968" lon="-3.54371">
        <ele>41</ele>
        <time>2019-07-17T16:01:43Z</time>
      </trkpt>
      <trkpt lat="47.82971" lon="-3.54366">
        <ele>42</ele>
        <time>2019-07-17T16:01:44Z</time>
      </trkpt>
      <trkpt lat="47.82973" lon="-3.54359">
        <ele>42</ele>
        <time>2019-07-17T16:01:45Z</time>
      </trkpt>
      <trkpt lat="47.82975" lon="-3.54353">
        <ele>42</ele>
        <time>2019-07-17T16:01:46Z</time>
      </trkpt>
      <trkpt lat="47.82976" lon="-3.54347">
        <ele>42</ele>
        <time>2019-07-17T16:01:47Z</time>
      </trkpt>
      <trkpt lat="47.82978" lon="-3.54341">
        <ele>42</ele>
        <time>2019-07-17T16:01:48Z</time>
      </trkpt>
      <trkpt lat="47.82979" lon="-3.54336">
        <ele>42</ele>
        <time>2019-07-17T16:01:49Z</time>
      </trkpt>
      <trkpt lat="47.82981" lon="-3.5433">
        <ele>42</ele>
        <time>2019-07-17T16:01:50Z</time>
      </trkpt>
      <trkpt lat="47.82982" lon="-3.54326">
        <ele>43</ele>
        <time>2019-07-17T16:01:51Z</time>
      </trkpt>
      <trkpt lat="47.82984" lon="-3.54321">
        <ele>43</ele>
        <time>2019-07-17T16:01:52Z</time>
      </trkpt>
      <trkpt lat="47.82986" lon="-3.54316">
        <ele>43</ele>
        <time>2019-07-17T16:01:53Z</time>
      </trkpt>
      <trkpt lat="47.82989" lon="-3.54311">
        <ele>43</ele>
        <time>2019-07-17T16:01:54Z</time>
      </trkpt>
      <trkpt lat="47.82992" lon="-3.54306">
        <ele>43</ele>
        <time>2019-07-17T16:01:55Z</time>
      </trkpt>
      <trkpt lat="47.82995" lon="-3.54301">
        <ele>43</ele>
        <time>2019-07-17T16:01:56Z</time>
      </trkpt>
      <trkpt lat="47.82998" lon="-3.54296">
        <ele>43</ele>
        <time>2019-07-17T16:01:57Z</time>
      </trkpt>
      <trkpt lat="47.83001" lon="-3.54292">
        <ele>43</ele>
        <time>2019-07-17T16:01:58Z</time>
      </trkpt>
      <trkpt lat="47.83004" lon="-3.54287">
        <ele>43</ele>
        <time>2019-07-17T16:01:59Z</time>
      </trkpt>
      <trkpt lat="47.83008" lon="-3.54283">
        <ele>43</ele>
        <time>2019-07-17T16:02:00Z</time>
      </trkpt>
      <trkpt lat="47.83012" lon="-3.5428">
        <ele>44</ele>
        <time>2019-07-17T16:02:01Z</time>
      </trkpt>
      <trkpt lat="47.83018" lon="-3.54278">
        <ele>44</ele>
        <time>2019-07-17T16:02:02Z</time>
      </trkpt>
      <trkpt lat="47.83023" lon="-3.54277">
        <ele>43</ele>
        <time>2019-07-17T16:02:03Z</time>
      </trkpt>
      <trkpt lat="47.8303" lon="-3.54275">
        <ele>43</ele>
        <time>2019-07-17T16:02:04Z</time>
      </trkpt>
      <trkpt lat="47.83036" lon="-3.54274">
        <ele>43</ele>
        <time>2019-07-17T16:02:05Z</time>
      </trkpt>
      <trkpt lat="47.83043" lon="-3.54272">
        <ele>43</ele>
        <time>2019-07-17T16:02:06Z</time>
      </trkpt>
      <trkpt lat="47.8305" lon="-3.54271">
        <ele>43</ele>
        <time>2019-07-17T16:02:07Z</time>
      </trkpt>
      <trkpt lat="47.83058" lon="-3.54271">
        <ele>43</ele>
        <time>2019-07-17T16:02:08Z</time>
      </trkpt>
      <trkpt lat="47.83066" lon="-3.5427">
        <ele>43</ele>
        <time>2019-07-17T16:02:09Z</time>
      </trkpt>
      <trkpt lat="47.83074" lon="-3.54269">
        <ele>42</ele>
        <time>2019-07-17T16:02:10Z</time>
      </trkpt>
      <trkpt lat="47.83083" lon="-3.54267">
        <ele>42</ele>
        <time>2019-07-17T16:02:11Z</time>
      </trkpt>
      <trkpt lat="47.83091" lon="-3.54265">
        <ele>42</ele>
        <time>2019-07-17T16:02:12Z</time>
      </trkpt>
      <trkpt lat="47.83099" lon="-3.54265">
        <ele>41</ele>
        <time>2019-07-17T16:02:13Z</time>
      </trkpt>
      <trkpt lat="47.83108" lon="-3.54264">
        <ele>41</ele>
        <time>2019-07-17T16:02:14Z</time>
      </trkpt>
      <trkpt lat="47.83117" lon="-3.54262">
        <ele>40</ele>
        <time>2019-07-17T16:02:15Z</time>
      </trkpt>
      <trkpt lat="47.83126" lon="-3.5426">
        <ele>40</ele>
        <time>2019-07-17T16:02:16Z</time>
      </trkpt>
      <trkpt lat="47.83135" lon="-3.54255">
        <ele>40</ele>
        <time>2019-07-17T16:02:17Z</time>
      </trkpt>
      <trkpt lat="47.83142" lon="-3.54251">
        <ele>39</ele>
        <time>2019-07-17T16:02:18Z</time>
      </trkpt>
      <trkpt lat="47.83149" lon="-3.54247">
        <ele>39</ele>
        <time>2019-07-17T16:02:19Z</time>
      </trkpt>
      <trkpt lat="47.83156" lon="-3.54245">
        <ele>39</ele>
        <time>2019-07-17T16:02:20Z</time>
      </trkpt>
      <trkpt lat="47.83164" lon="-3.54242">
        <ele>39</ele>
        <time>2019-07-17T16:02:21Z</time>
      </trkpt>
      <trkpt lat="47.83171" lon="-3.54239">
        <ele>38</ele>
        <time>2019-07-17T16:02:22Z</time>
      </trkpt>
      <trkpt lat="47.83178" lon="-3.54237">
        <ele>38</ele>
        <time>2019-07-17T16:02:23Z</time>
      </trkpt>
      <trkpt lat="47.83184" lon="-3.54234">
        <ele>38</ele>
        <time>2019-07-17T16:02:24Z</time>
      </trkpt>
      <trkpt lat="47.83189" lon="-3.54232">
        <ele>38</ele>
        <time>2019-07-17T16:02:25Z</time>
      </trkpt>
      <trkpt lat="47.83194" lon="-3.54229">
        <ele>38</ele>
        <time>2019-07-17T16:02:26Z</time>
      </trkpt>
      <trkpt lat="47.83195" lon="-3.54227">
        <ele>38</ele>
        <time>2019-07-17T16:02:27Z</time>
      </trkpt>
      <trkpt lat="47.83196" lon="-3.54224">
        <ele>37</ele>
        <time>2019-07-17T16:02:28Z</time>
      </trkpt>
      <trkpt lat="47.83195" lon="-3.54222">
        <ele>37</ele>
        <time>2019-07-17T16:02:29Z</time>
      </trkpt>
      <trkpt lat="47.83192" lon="-3.54221">
        <ele>37</ele>
        <time>2019-07-17T16:02:30Z</time>
      </trkpt>
      <trkpt lat="47.83189" lon="-3.5422">
        <ele>36</ele>
        <time>2019-07-17T16:02:31Z</time>
      </trkpt>
      <trkpt lat="47.83185" lon="-3.5422">
        <ele>36</ele>
        <time>2019-07-17T16:02:32Z</time>
      </trkpt>
      <trkpt lat="47.83181" lon="-3.54219">
        <ele>35</ele>
        <time>2019-07-17T16:02:33Z</time>
      </trkpt>
      <trkpt lat="47.83178" lon="-3.54219">
        <ele>35</ele>
        <time>2019-07-17T16:02:34Z</time>
      </trkpt>
      <trkpt lat="47.83174" lon="-3.54218">
        <ele>35</ele>
        <time>2019-07-17T16:02:35Z</time>
      </trkpt>
      <trkpt lat="47.83171" lon="-3.54218">
        <ele>35</ele>
        <time>2019-07-17T16:02:36Z</time>
      </trkpt>
      <trkpt lat="47.83168" lon="-3.54217">
        <ele>34</ele>
        <time>2019-07-17T16:02:37Z</time>
      </trkpt>
      <trkpt lat="47.83163" lon="-3.54217">
        <ele>34</ele>
        <time>2019-07-17T16:02:38Z</time>
      </trkpt>
      <trkpt lat="47.8316" lon="-3.54216">
        <ele>34</ele>
        <time>2019-07-17T16:02:39Z</time>
      </trkpt>
      <trkpt lat="47.83155" lon="-3.54215">
        <ele>34</ele>
        <time>2019-07-17T16:02:40Z</time>
      </trkpt>
      <trkpt lat="47.83151" lon="-3.54214">
        <ele>33</ele>
        <time>2019-07-17T16:02:41Z</time>
      </trkpt>
      <trkpt lat="47.83146" lon="-3.54212">
        <ele>33</ele>
        <time>2019-07-17T16:02:42Z</time>
      </trkpt>
      <trkpt lat="47.83141" lon="-3.54211">
        <ele>33</ele>
        <time>2019-07-17T16:02:43Z</time>
      </trkpt>
      <trkpt lat="47.83134" lon="-3.54209">
        <ele>33</ele>
        <time>2019-07-17T16:02:44Z</time>
      </trkpt>
      <trkpt lat="47.83127" lon="-3.54206">
        <ele>32</ele>
        <time>2019-07-17T16:02:45Z</time>
      </trkpt>
      <trkpt lat="47.8312" lon="-3.54203">
        <ele>32</ele>
        <time>2019-07-17T16:02:46Z</time>
      </trkpt>
      <trkpt lat="47.83113" lon="-3.542">
        <ele>31</ele>
        <time>2019-07-17T16:02:47Z</time>
      </trkpt>
      <trkpt lat="47.83105" lon="-3.54196">
        <ele>31</ele>
        <time>2019-07-17T16:02:48Z</time>
      </trkpt>
      <trkpt lat="47.83099" lon="-3.54192">
        <ele>30</ele>
        <time>2019-07-17T16:02:49Z</time>
      </trkpt>
      <trkpt lat="47.83092" lon="-3.54188">
        <ele>29</ele>
        <time>2019-07-17T16:02:50Z</time>
      </trkpt>
      <trkpt lat="47.83085" lon="-3.54183">
        <ele>28</ele>
        <time>2019-07-17T16:02:51Z</time>
      </trkpt>
      <trkpt lat="47.83079" lon="-3.5418">
        <ele>28</ele>
        <time>2019-07-17T16:02:52Z</time>
      </trkpt>
      <trkpt lat="47.83072" lon="-3.54179">
        <ele>27</ele>
        <time>2019-07-17T16:02:53Z</time>
      </trkpt>
      <trkpt lat="47.83068" lon="-3.54178">
        <ele>26</ele>
        <time>2019-07-17T16:02:54Z</time>
      </trkpt>
      <trkpt lat="47.83067" lon="-3.54176">
        <ele>25</ele>
        <time>2019-07-17T16:02:55Z</time>
      </trkpt>
      <trkpt lat="47.83067" lon="-3.54174">
        <ele>25</ele>
        <time>2019-07-17T16:02:56Z</time>
      </trkpt>
      <trkpt lat="47.83069" lon="-3.54173">
        <ele>24</ele>
        <time>2019-07-17T16:02:57Z</time>
      </trkpt>
      <trkpt lat="47.8307" lon="-3.54172">
        <ele>24</ele>
        <time>2019-07-17T16:02:58Z</time>
      </trkpt>
      <trkpt lat="47.83072" lon="-3.54172">
        <ele>24</ele>
        <time>2019-07-17T16:02:59Z</time>
      </trkpt>
      <trkpt lat="47.83075" lon="-3.54173">
        <ele>23</ele>
        <time>2019-07-17T16:03:00Z</time>
      </trkpt>
      <trkpt lat="47.83078" lon="-3.54174">
        <ele>23</ele>
        <time>2019-07-17T16:03:01Z</time>
      </trkpt>
      <trkpt lat="47.83083" lon="-3.54175">
        <ele>23</ele>
        <time>2019-07-17T16:03:02Z</time>
      </trkpt>
      <trkpt lat="47.83088" lon="-3.54175">
        <ele>23</ele>
        <time>2019-07-17T16:03:03Z</time>
      </trkpt>
      <trkpt lat="47.83093" lon="-3.54176">
        <ele>23</ele>
        <time>2019-07-17T16:03:04Z</time>
      </trkpt>
      <trkpt lat="47.83098" lon="-3.54177">
        <ele>23</ele>
        <time>2019-07-17T16:03:05Z</time>
      </trkpt>
      <trkpt lat="47.83103" lon="-3.54177">
        <ele>23</ele>
        <time>2019-07-17T16:03:06Z</time>
      </trkpt>
      <trkpt lat="47.83108" lon="-3.54177">
        <ele>23</ele>
        <time>2019-07-17T16:03:07Z</time>
      </trkpt>
      <trkpt lat="47.83113" lon="-3.54176">
        <ele>22</ele>
        <time>2019-07-17T16:03:08Z</time>
      </trkpt>
      <trkpt lat="47.83119" lon="-3.54176">
        <ele>22</ele>
        <time>2019-07-17T16:03:09Z</time>
      </trkpt>
      <trkpt lat="47.83124" lon="-3.54176">
        <ele>22</ele>
        <time>2019-07-17T16:03:10Z</time>
      </trkpt>
      <trkpt lat="47.8313" lon="-3.54176">
        <ele>22</ele>
        <time>2019-07-17T16:03:11Z</time>
      </trkpt>
      <trkpt lat="47.83135" lon="-3.54175">
        <ele>22</ele>
        <time>2019-07-17T16:03:12Z</time>
      </trkpt>
      <trkpt lat="47.8314" lon="-3.54176">
        <ele>22</ele>
        <time>2019-07-17T16:03:13Z</time>
      </trkpt>
      <trkpt lat="47.83145" lon="-3.54176">
        <ele>22</ele>
        <time>2019-07-17T16:03:14Z</time>
      </trkpt>
      <trkpt lat="47.83149" lon="-3.54176">
        <ele>22</ele>
        <time>2019-07-17T16:03:15Z</time>
      </trkpt>
      <trkpt lat="47.83154" lon="-3.54176">
        <ele>22</ele>
        <time>2019-07-17T16:03:16Z</time>
      </trkpt>
      <trkpt lat="47.83159" lon="-3.54175">
        <ele>22</ele>
        <time>2019-07-17T16:03:17Z</time>
      </trkpt>
      <trkpt lat="47.83164" lon="-3.54175">
        <ele>22</ele>
        <time>2019-07-17T16:03:18Z</time>
      </trkpt>
      <trkpt lat="47.83169" lon="-3.54174">
        <ele>22</ele>
        <time>2019-07-17T16:03:19Z</time>
      </trkpt>
      <trkpt lat="47.83174" lon="-3.54174">
        <ele>22</ele>
        <time>2019-07-17T16:03:20Z</time>
      </trkpt>
      <trkpt lat="47.83179" lon="-3.54173">
        <ele>22</ele>
        <time>2019-07-17T16:03:21Z</time>
      </trkpt>
      <trkpt lat="47.83184" lon="-3.54173">
        <ele>22</ele>
        <time>2019-07-17T16:03:22Z</time>
      </trkpt>
      <trkpt lat="47.83189" lon="-3.54173">
        <ele>22</ele>
        <time>2019-07-17T16:03:23Z</time>
      </trkpt>
      <trkpt lat="47.83193" lon="-3.54174">
        <ele>22</ele>
        <time>2019-07-17T16:03:24Z</time>
      </trkpt>
      <trkpt lat="47.83197" lon="-3.54174">
        <ele>22</ele>
        <time>2019-07-17T16:03:25Z</time>
      </trkpt>
      <trkpt lat="47.83199" lon="-3.54174">
        <ele>22</ele>
        <time>2019-07-17T16:03:26Z</time>
      </trkpt>
      <trkpt lat="47.83201" lon="-3.54173">
        <ele>22</ele>
        <time>2019-07-17T16:03:27Z</time>
      </trkpt>
      <trkpt lat="47.83201" lon="-3.54173">
        <ele>22</ele>
        <time>2019-07-17T16:03:28Z</time>
      </trkpt>
      <trkpt lat="47.83202" lon="-3.54173">
        <ele>22</ele>
        <time>2019-07-17T16:03:29Z</time>
      </trkpt>
      <trkpt lat="47.83202" lon="-3.54173">
        <ele>22</ele>
        <time>2019-07-17T16:03:30Z</time>
      </trkpt>
      <trkpt lat="47.83203" lon="-3.54173">
        <ele>22</ele>
        <time>2019-07-17T16:03:31Z</time>
      </trkpt>
      <trkpt lat="47.83204" lon="-3.54172">
        <ele>22</ele>
        <time>2019-07-17T16:03:32Z</time>
      </trkpt>
      <trkpt lat="47.83206" lon="-3.54171">
        <ele>22</ele>
        <time>2019-07-17T16:03:33Z</time>
      </trkpt>
      <trkpt lat="47.83208" lon="-3.5417">
        <ele>22</ele>
        <time>2019-07-17T16:03:34Z</time>
      </trkpt>
      <trkpt lat="47.8321" lon="-3.5417">
        <ele>22</ele>
        <time>2019-07-17T16:03:35Z</time>
      </trkpt>
      <trkpt lat="47.83214" lon="-3.54169">
        <ele>22</ele>
        <time>2019-07-17T16:03:36Z</time>
      </trkpt>
      <trkpt lat="47.83217" lon="-3.54168">
        <ele>22</ele>
        <time>2019-07-17T16:03:37Z</time>
      </trkpt>
      <trkpt lat="47.8322" lon="-3.54166">
        <ele>22</ele>
        <time>2019-07-17T16:03:38Z</time>
      </trkpt>
      <trkpt lat="47.83224" lon="-3.54165">
        <ele>22</ele>
        <time>2019-07-17T16:03:39Z</time>
      </trkpt>
      <trkpt lat="47.83228" lon="-3.54163">
        <ele>22</ele>
        <time>2019-07-17T16:03:40Z</time>
      </trkpt>
      <trkpt lat="47.83231" lon="-3.54161">
        <ele>22</ele>
        <time>2019-07-17T16:03:41Z</time>
      </trkpt>
      <trkpt lat="47.83234" lon="-3.5416">
        <ele>22</ele>
        <time>2019-07-17T16:03:42Z</time>
      </trkpt>
      <trkpt lat="47.83238" lon="-3.54158">
        <ele>22</ele>
        <time>2019-07-17T16:03:43Z</time>
      </trkpt>
      <trkpt lat="47.83242" lon="-3.54156">
        <ele>22</ele>
        <time>2019-07-17T16:03:44Z</time>
      </trkpt>
      <trkpt lat="47.83245" lon="-3.54153">
        <ele>22</ele>
        <time>2019-07-17T16:03:45Z</time>
      </trkpt>
      <trkpt lat="47.83248" lon="-3.54151">
        <ele>22</ele>
        <time>2019-07-17T16:03:46Z</time>
      </trkpt>
      <trkpt lat="47.83252" lon="-3.54149">
        <ele>22</ele>
        <time>2019-07-17T16:03:47Z</time>
      </trkpt>
      <trkpt lat="47.83256" lon="-3.54147">
        <ele>21</ele>
        <time>2019-07-17T16:03:48Z</time>
      </trkpt>
      <trkpt lat="47.8326" lon="-3.54145">
        <ele>21</ele>
        <time>2019-07-17T16:03:49Z</time>
      </trkpt>
      <trkpt lat="47.83264" lon="-3.54143">
        <ele>21</ele>
        <time>2019-07-17T16:03:50Z</time>
      </trkpt>
      <trkpt lat="47.83268" lon="-3.54141">
        <ele>21</ele>
        <time>2019-07-17T16:03:51Z</time>
      </trkpt>
      <trkpt lat="47.83273" lon="-3.54139">
        <ele>21</ele>
        <time>2019-07-17T16:03:52Z</time>
      </trkpt>
      <trkpt lat="47.83277" lon="-3.54136">
        <ele>21</ele>
        <time>2019-07-17T16:03:53Z</time>
      </trkpt>
      <trkpt lat="47.83281" lon="-3.54133">
        <ele>21</ele>
        <time>2019-07-17T16:03:54Z</time>
      </trkpt>
      <trkpt lat="47.83286" lon="-3.54132">
        <ele>21</ele>
        <time>2019-07-17T16:03:55Z</time>
      </trkpt>
      <trkpt lat="47.8329" lon="-3.5413">
        <ele>21</ele>
        <time>2019-07-17T16:03:56Z</time>
      </trkpt>
      <trkpt lat="47.83294" lon="-3.54128">
        <ele>21</ele>
        <time>2019-07-17T16:03:57Z</time>
      </trkpt>
      <trkpt lat="47.83299" lon="-3.54127">
        <ele>21</ele>
        <time>2019-07-17T16:03:58Z</time>
      </trkpt>
      <trkpt lat="47.83304" lon="-3.54126">
        <ele>21</ele>
        <time>2019-07-17T16:03:59Z</time>
      </trkpt>
      <trkpt lat="47.83309" lon="-3.54124">
        <ele>21</ele>
        <time>2019-07-17T16:04:00Z</time>
      </trkpt>
      <trkpt lat="47.83313" lon="-3.54121">
        <ele>21</ele>
        <time>2019-07-17T16:04:01Z</time>
      </trkpt>
      <trkpt lat="47.83316" lon="-3.54118">
        <ele>21</ele>
        <time>2019-07-17T16:04:02Z</time>
      </trkpt>
      <trkpt lat="47.83321" lon="-3.54115">
        <ele>21</ele>
        <time>2019-07-17T16:04:03Z</time>
      </trkpt>
      <trkpt lat="47.83326" lon="-3.54112">
        <ele>21</ele>
        <time>2019-07-17T16:04:04Z</time>
      </trkpt>
      <trkpt lat="47.83331" lon="-3.5411">
        <ele>21</ele>
        <time>2019-07-17T16:04:05Z</time>
      </trkpt>
      <trkpt lat="47.83337" lon="-3.54108">
        <ele>21</ele>
        <time>2019-07-17T16:04:06Z</time>
      </trkpt>
      <trkpt lat="47.83342" lon="-3.54105">
        <ele>21</ele>
        <time>2019-07-17T16:04:07Z</time>
      </trkpt>
      <trkpt lat="47.83347" lon="-3.54102">
        <ele>21</ele>
        <time>2019-07-17T16:04:08Z</time>
      </trkpt>
      <trkpt lat="47.83352" lon="-3.54099">
        <ele>21</ele>
        <time>2019-07-17T16:04:09Z</time>
      </trkpt>
      <trkpt lat="47.83357" lon="-3.54097">
        <ele>21</ele>
        <time>2019-07-17T16:04:10Z</time>
      </trkpt>
      <trkpt lat="47.83362" lon="-3.54094">
        <ele>21</ele>
        <time>2019-07-17T16:04:11Z</time>
      </trkpt>
      <trkpt lat="47.83367" lon="-3.54092">
        <ele>21</ele>
        <time>2019-07-17T16:04:12Z</time>
      </trkpt>
      <trkpt lat="47.83372" lon="-3.5409">
        <ele>21</ele>
        <time>2019-07-17T16:04:13Z</time>
      </trkpt>
      <trkpt lat="47.83377" lon="-3.54089">
        <ele>21</ele>
        <time>2019-07-17T16:04:14Z</time>
      </trkpt>
      <trkpt lat="47.83381" lon="-3.54088">
        <ele>21</ele>
        <time>2019-07-17T16:04:15Z</time>
      </trkpt>
      <trkpt lat="47.83385" lon="-3.54088">
        <ele>21</ele>
        <time>2019-07-17T16:04:16Z</time>
      </trkpt>
      <trkpt lat="47.8339" lon="-3.54087">
        <ele>21</ele>
        <time>2019-07-17T16:04:17Z</time>
      </trkpt>
      <trkpt lat="47.83395" lon="-3.54087">
        <ele>21</ele>
        <time>2019-07-17T16:04:18Z</time>
      </trkpt>
      <trkpt lat="47.83401" lon="-3.54086">
        <ele>21</ele>
        <time>2019-07-17T16:04:19Z</time>
      </trkpt>
      <trkpt lat="47.83406" lon="-3.54085">
        <ele>21</ele>
        <time>2019-07-17T16:04:20Z</time>
      </trkpt>
      <trkpt lat="47.83411" lon="-3.54084">
        <ele>21</ele>
        <time>2019-07-17T16:04:21Z</time>
      </trkpt>
      <trkpt lat="47.83417" lon="-3.54084">
        <ele>21</ele>
        <time>2019-07-17T16:04:22Z</time>
      </trkpt>
      <trkpt lat="47.83422" lon="-3.54083">
        <ele>21</ele>
        <time>2019-07-17T16:04:23Z</time>
      </trkpt>
      <trkpt lat="47.83427" lon="-3.54081">
        <ele>21</ele>
        <time>2019-07-17T16:04:24Z</time>
      </trkpt>
      <trkpt lat="47.83432" lon="-3.54079">
        <ele>21</ele>
        <time>2019-07-17T16:04:25Z</time>
      </trkpt>
      <trkpt lat="47.83436" lon="-3.54077">
        <ele>22</ele>
        <time>2019-07-17T16:04:26Z</time>
      </trkpt>
      <trkpt lat="47.8344" lon="-3.54077">
        <ele>22</ele>
        <time>2019-07-17T16:04:27Z</time>
      </trkpt>
      <trkpt lat="47.83444" lon="-3.54076">
        <ele>22</ele>
        <time>2019-07-17T16:04:28Z</time>
      </trkpt>
      <trkpt lat="47.83448" lon="-3.54077">
        <ele>22</ele>
        <time>2019-07-17T16:04:29Z</time>
      </trkpt>
      <trkpt lat="47.83452" lon="-3.54077">
        <ele>23</ele>
        <time>2019-07-17T16:04:30Z</time>
      </trkpt>
      <trkpt lat="47.83457" lon="-3.54077">
        <ele>23</ele>
        <time>2019-07-17T16:04:31Z</time>
      </trkpt>
      <trkpt lat="47.83461" lon="-3.54077">
        <ele>23</ele>
        <time>2019-07-17T16:04:32Z</time>
      </trkpt>
      <trkpt lat="47.83465" lon="-3.54077">
        <ele>23</ele>
        <time>2019-07-17T16:04:33Z</time>
      </trkpt>
      <trkpt lat="47.83468" lon="-3.54077">
        <ele>23</ele>
        <time>2019-07-17T16:04:34Z</time>
      </trkpt>
      <trkpt lat="47.83472" lon="-3.54078">
        <ele>23</ele>
        <time>2019-07-17T16:04:35Z</time>
      </trkpt>
      <trkpt lat="47.83475" lon="-3.54078">
        <ele>24</ele>
        <time>2019-07-17T16:04:36Z</time>
      </trkpt>
      <trkpt lat="47.83478" lon="-3.54078">
        <ele>24</ele>
        <time>2019-07-17T16:04:37Z</time>
      </trkpt>
      <trkpt lat="47.83482" lon="-3.54077">
        <ele>24</ele>
        <time>2019-07-17T16:04:38Z</time>
      </trkpt>
      <trkpt lat="47.83486" lon="-3.54077">
        <ele>24</ele>
        <time>2019-07-17T16:04:39Z</time>
      </trkpt>
      <trkpt lat="47.83491" lon="-3.54076">
        <ele>24</ele>
        <time>2019-07-17T16:04:40Z</time>
      </trkpt>
      <trkpt lat="47.83495" lon="-3.54075">
        <ele>24</ele>
        <time>2019-07-17T16:04:41Z</time>
      </trkpt>
      <trkpt lat="47.835" lon="-3.54074">
        <ele>24</ele>
        <time>2019-07-17T16:04:42Z</time>
      </trkpt>
      <trkpt lat="47.83504" lon="-3.54073">
        <ele>24</ele>
        <time>2019-07-17T16:04:43Z</time>
      </trkpt>
      <trkpt lat="47.83508" lon="-3.54072">
        <ele>24</ele>
        <time>2019-07-17T16:04:44Z</time>
      </trkpt>
      <trkpt lat="47.83513" lon="-3.54071">
        <ele>24</ele>
        <time>2019-07-17T16:04:45Z</time>
      </trkpt>
      <trkpt lat="47.83518" lon="-3.5407">
        <ele>24</ele>
        <time>2019-07-17T16:04:46Z</time>
      </trkpt>
      <trkpt lat="47.83523" lon="-3.5407">
        <ele>24</ele>
        <time>2019-07-17T16:04:47Z</time>
      </trkpt>
      <trkpt lat="47.83528" lon="-3.54068">
        <ele>24</ele>
        <time>2019-07-17T16:04:48Z</time>
      </trkpt>
      <trkpt lat="47.83533" lon="-3.54067">
        <ele>24</ele>
        <time>2019-07-17T16:04:49Z</time>
      </trkpt>
      <trkpt lat="47.83538" lon="-3.54064">
        <ele>24</ele>
        <time>2019-07-17T16:04:50Z</time>
      </trkpt>
      <trkpt lat="47.83544" lon="-3.54063">
        <ele>24</ele>
        <time>2019-07-17T16:04:51Z</time>
      </trkpt>
      <trkpt lat="47.83549" lon="-3.54062">
        <ele>24</ele>
        <time>2019-07-17T16:04:52Z</time>
      </trkpt>
      <trkpt lat="47.83554" lon="-3.5406">
        <ele>24</ele>
        <time>2019-07-17T16:04:53Z</time>
      </trkpt>
      <trkpt lat="47.83559" lon="-3.54058">
        <ele>24</ele>
        <time>2019-07-17T16:04:54Z</time>
      </trkpt>
      <trkpt lat="47.83564" lon="-3.54055">
        <ele>24</ele>
        <time>2019-07-17T16:04:55Z</time>
      </trkpt>
      <trkpt lat="47.8357" lon="-3.54053">
        <ele>24</ele>
        <time>2019-07-17T16:04:56Z</time>
      </trkpt>
      <trkpt lat="47.83576" lon="-3.54051">
        <ele>24</ele>
        <time>2019-07-17T16:04:57Z</time>
      </trkpt>
      <trkpt lat="47.83581" lon="-3.54048">
        <ele>24</ele>
        <time>2019-07-17T16:04:58Z</time>
      </trkpt>
      <trkpt lat="47.83586" lon="-3.54044">
        <ele>24</ele>
        <time>2019-07-17T16:04:59Z</time>
      </trkpt>
      <trkpt lat="47.83591" lon="-3.54041">
        <ele>24</ele>
        <time>2019-07-17T16:05:00Z</time>
      </trkpt>
      <trkpt lat="47.83596" lon="-3.54039">
        <ele>24</ele>
        <time>2019-07-17T16:05:01Z</time>
      </trkpt>
      <trkpt lat="47.83601" lon="-3.54036">
        <ele>24</ele>
        <time>2019-07-17T16:05:02Z</time>
      </trkpt>
      <trkpt lat="47.83606" lon="-3.54033">
        <ele>24</ele>
        <time>2019-07-17T16:05:03Z</time>
      </trkpt>
      <trkpt lat="47.83611" lon="-3.5403">
        <ele>24</ele>
        <time>2019-07-17T16:05:04Z</time>
      </trkpt>
      <trkpt lat="47.83615" lon="-3.54029">
        <ele>24</ele>
        <time>2019-07-17T16:05:05Z</time>
      </trkpt>
      <trkpt lat="47.83619" lon="-3.54027">
        <ele>24</ele>
        <time>2019-07-17T16:05:06Z</time>
      </trkpt>
      <trkpt lat="47.83623" lon="-3.54025">
        <ele>24</ele>
        <time>2019-07-17T16:05:07Z</time>
      </trkpt>
      <trkpt lat="47.83627" lon="-3.54023">
        <ele>24</ele>
        <time>2019-07-17T16:05:08Z</time>
      </trkpt>
      <trkpt lat="47.83633" lon="-3.54022">
        <ele>24</ele>
        <time>2019-07-17T16:05:09Z</time>
      </trkpt>
      <trkpt lat="47.83638" lon="-3.5402">
        <ele>24</ele>
        <time>2019-07-17T16:05:10Z</time>
      </trkpt>
      <trkpt lat="47.83643" lon="-3.54018">
        <ele>25</ele>
        <time>2019-07-17T16:05:11Z</time>
      </trkpt>
      <trkpt lat="47.83649" lon="-3.54016">
        <ele>25</ele>
        <time>2019-07-17T16:05:12Z</time>
      </trkpt>
      <trkpt lat="47.83654" lon="-3.54015">
        <ele>25</ele>
        <time>2019-07-17T16:05:13Z</time>
      </trkpt>
      <trkpt lat="47.83658" lon="-3.54013">
        <ele>25</ele>
        <time>2019-07-17T16:05:14Z</time>
      </trkpt>
      <trkpt lat="47.83664" lon="-3.54011">
        <ele>25</ele>
        <time>2019-07-17T16:05:15Z</time>
      </trkpt>
      <trkpt lat="47.83669" lon="-3.54008">
        <ele>25</ele>
        <time>2019-07-17T16:05:16Z</time>
      </trkpt>
      <trkpt lat="47.83674" lon="-3.54006">
        <ele>26</ele>
        <time>2019-07-17T16:05:17Z</time>
      </trkpt>
      <trkpt lat="47.83679" lon="-3.54004">
        <ele>26</ele>
        <time>2019-07-17T16:05:18Z</time>
      </trkpt>
      <trkpt lat="47.83682" lon="-3.54002">
        <ele>26</ele>
        <time>2019-07-17T16:05:19Z</time>
      </trkpt>
      <trkpt lat="47.83684" lon="-3.54001">
        <ele>26</ele>
        <time>2019-07-17T16:05:20Z</time>
      </trkpt>
      <trkpt lat="47.83687" lon="-3.53999">
        <ele>26</ele>
        <time>2019-07-17T16:05:21Z</time>
      </trkpt>
      <trkpt lat="47.8369" lon="-3.53998">
        <ele>26</ele>
        <time>2019-07-17T16:05:22Z</time>
      </trkpt>
      <trkpt lat="47.83693" lon="-3.53996">
        <ele>26</ele>
        <time>2019-07-17T16:05:23Z</time>
      </trkpt>
      <trkpt lat="47.83697" lon="-3.53994">
        <ele>26</ele>
        <time>2019-07-17T16:05:24Z</time>
      </trkpt>
      <trkpt lat="47.837" lon="-3.53992">
        <ele>26</ele>
        <time>2019-07-17T16:05:25Z</time>
      </trkpt>
      <trkpt lat="47.83704" lon="-3.53991">
        <ele>26</ele>
        <time>2019-07-17T16:05:26Z</time>
      </trkpt>
      <trkpt lat="47.83708" lon="-3.53989">
        <ele>26</ele>
        <time>2019-07-17T16:05:27Z</time>
      </trkpt>
      <trkpt lat="47.83712" lon="-3.53987">
        <ele>26</ele>
        <time>2019-07-17T16:05:28Z</time>
      </trkpt>
      <trkpt lat="47.83716" lon="-3.53985">
        <ele>26</ele>
        <time>2019-07-17T16:05:29Z</time>
      </trkpt>
      <trkpt lat="47.8372" lon="-3.53983">
        <ele>26</ele>
        <time>2019-07-17T16:05:30Z</time>
      </trkpt>
      <trkpt lat="47.83724" lon="-3.53979">
        <ele>26</ele>
        <time>2019-07-17T16:05:31Z</time>
      </trkpt>
      <trkpt lat="47.83727" lon="-3.53974">
        <ele>26</ele>
        <time>2019-07-17T16:05:32Z</time>
      </trkpt>
      <trkpt lat="47.8373" lon="-3.53966">
        <ele>26</ele>
        <time>2019-07-17T16:05:33Z</time>
      </trkpt>
      <trkpt lat="47.83733" lon="-3.53958">
        <ele>25</ele>
        <time>2019-07-17T16:05:34Z</time>
      </trkpt>
      <trkpt lat="47.83736" lon="-3.5395">
        <ele>25</ele>
        <time>2019-07-17T16:05:35Z</time>
      </trkpt>
      <trkpt lat="47.83739" lon="-3.53942">
        <ele>25</ele>
        <time>2019-07-17T16:05:36Z</time>
      </trkpt>
      <trkpt lat="47.83743" lon="-3.53934">
        <ele>25</ele>
        <time>2019-07-17T16:05:37Z</time>
      </trkpt>
      <trkpt lat="47.83747" lon="-3.53928">
        <ele>24</ele>
        <time>2019-07-17T16:05:38Z</time>
      </trkpt>
      <trkpt lat="47.83751" lon="-3.53923">
        <ele>24</ele>
        <time>2019-07-17T16:05:39Z</time>
      </trkpt>
      <trkpt lat="47.83754" lon="-3.5392">
        <ele>24</ele>
        <time>2019-07-17T16:05:40Z</time>
      </trkpt>
      <trkpt lat="47.83759" lon="-3.53919">
        <ele>24</ele>
        <time>2019-07-17T16:05:41Z</time>
      </trkpt>
      <trkpt lat="47.83762" lon="-3.53918">
        <ele>23</ele>
        <time>2019-07-17T16:05:42Z</time>
      </trkpt>
      <trkpt lat="47.83766" lon="-3.53917">
        <ele>23</ele>
        <time>2019-07-17T16:05:43Z</time>
      </trkpt>
      <trkpt lat="47.8377" lon="-3.53916">
        <ele>22</ele>
        <time>2019-07-17T16:05:44Z</time>
      </trkpt>
      <trkpt lat="47.83774" lon="-3.53915">
        <ele>22</ele>
        <time>2019-07-17T16:05:45Z</time>
      </trkpt>
      <trkpt lat="47.83779" lon="-3.53915">
        <ele>21</ele>
        <time>2019-07-17T16:05:46Z</time>
      </trkpt>
      <trkpt lat="47.83784" lon="-3.53917">
        <ele>21</ele>
        <time>2019-07-17T16:05:47Z</time>
      </trkpt>
      <trkpt lat="47.83789" lon="-3.5392">
        <ele>20</ele>
        <time>2019-07-17T16:05:48Z</time>
      </trkpt>
      <trkpt lat="47.83792" lon="-3.53923">
        <ele>19</ele>
        <time>2019-07-17T16:05:49Z</time>
      </trkpt>
      <trkpt lat="47.83797" lon="-3.53926">
        <ele>19</ele>
        <time>2019-07-17T16:05:50Z</time>
      </trkpt>
      <trkpt lat="47.83801" lon="-3.53927">
        <ele>18</ele>
        <time>2019-07-17T16:05:51Z</time>
      </trkpt>
      <trkpt lat="47.83805" lon="-3.53928">
        <ele>17</ele>
        <time>2019-07-17T16:05:52Z</time>
      </trkpt>
      <trkpt lat="47.8381" lon="-3.53927">
        <ele>17</ele>
        <time>2019-07-17T16:05:53Z</time>
      </trkpt>
      <trkpt lat="47.83814" lon="-3.53926">
        <ele>17</ele>
        <time>2019-07-17T16:05:54Z</time>
      </trkpt>
      <trkpt lat="47.83817" lon="-3.53923">
        <ele>16</ele>
        <time>2019-07-17T16:05:55Z</time>
      </trkpt>
      <trkpt lat="47.83819" lon="-3.53919">
        <ele>16</ele>
        <time>2019-07-17T16:05:56Z</time>
      </trkpt>
      <trkpt lat="47.83821" lon="-3.53912">
        <ele>15</ele>
        <time>2019-07-17T16:05:57Z</time>
      </trkpt>
      <trkpt lat="47.83823" lon="-3.53906">
        <ele>15</ele>
        <time>2019-07-17T16:05:58Z</time>
      </trkpt>
      <trkpt lat="47.83825" lon="-3.53899">
        <ele>14</ele>
        <time>2019-07-17T16:05:59Z</time>
      </trkpt>
      <trkpt lat="47.83827" lon="-3.53891">
        <ele>14</ele>
        <time>2019-07-17T16:06:00Z</time>
      </trkpt>
      <trkpt lat="47.83829" lon="-3.53882">
        <ele>14</ele>
        <time>2019-07-17T16:06:01Z</time>
      </trkpt>
      <trkpt lat="47.83831" lon="-3.53873">
        <ele>14</ele>
        <time>2019-07-17T16:06:02Z</time>
      </trkpt>
      <trkpt lat="47.83833" lon="-3.53864">
        <ele>13</ele>
        <time>2019-07-17T16:06:03Z</time>
      </trkpt>
      <trkpt lat="47.83835" lon="-3.53856">
        <ele>13</ele>
        <time>2019-07-17T16:06:04Z</time>
      </trkpt>
      <trkpt lat="47.83837" lon="-3.53848">
        <ele>13</ele>
        <time>2019-07-17T16:06:05Z</time>
      </trkpt>
      <trkpt lat="47.83839" lon="-3.5384">
        <ele>13</ele>
        <time>2019-07-17T16:06:06Z</time>
      </trkpt>
      <trkpt lat="47.83841" lon="-3.53833">
        <ele>12</ele>
        <time>2019-07-17T16:06:07Z</time>
      </trkpt>
      <trkpt lat="47.83843" lon="-3.53827">
        <ele>12</ele>
        <time>2019-07-17T16:06:08Z</time>
      </trkpt>
      <trkpt lat="47.83845" lon="-3.5382">
        <ele>12</ele>
        <time>2019-07-17T16:06:09Z</time>
      </trkpt>
      <trkpt lat="47.83847" lon="-3.53813">
        <ele>11</ele>
        <time>2019-07-17T16:06:10Z</time>
      </trkpt>
      <trkpt lat="47.83849" lon="-3.53807">
        <ele>11</ele>
        <time>2019-07-17T16:06:11Z</time>
      </trkpt>
      <trkpt lat="47.83852" lon="-3.538">
        <ele>11</ele>
        <time>2019-07-17T16:06:12Z</time>
      </trkpt>
      <trkpt lat="47.83854" lon="-3.53794">
        <ele>11</ele>
        <time>2019-07-17T16:06:13Z</time>
      </trkpt>
      <trkpt lat="47.83858" lon="-3.53789">
        <ele>11</ele>
        <time>2019-07-17T16:06:14Z</time>
      </trkpt>
      <trkpt lat="47.83861" lon="-3.53785">
        <ele>10</ele>
        <time>2019-07-17T16:06:15Z</time>
      </trkpt>
      <trkpt lat="47.83863" lon="-3.5378">
        <ele>10</ele>
        <time>2019-07-17T16:06:16Z</time>
      </trkpt>
      <trkpt lat="47.83866" lon="-3.53775">
        <ele>10</ele>
        <time>2019-07-17T16:06:17Z</time>
      </trkpt>
      <trkpt lat="47.83868" lon="-3.5377">
        <ele>10</ele>
        <time>2019-07-17T16:06:18Z</time>
      </trkpt>
      <trkpt lat="47.8387" lon="-3.53765">
        <ele>10</ele>
        <time>2019-07-17T16:06:19Z</time>
      </trkpt>
      <trkpt lat="47.83873" lon="-3.53762">
        <ele>10</ele>
        <time>2019-07-17T16:06:20Z</time>
      </trkpt>
      <trkpt lat="47.83875" lon="-3.53758">
        <ele>10</ele>
        <time>2019-07-17T16:06:21Z</time>
      </trkpt>
      <trkpt lat="47.83877" lon="-3.53755">
        <ele>10</ele>
        <time>2019-07-17T16:06:22Z</time>
      </trkpt>
      <trkpt lat="47.8388" lon="-3.53752">
        <ele>10</ele>
        <time>2019-07-17T16:06:23Z</time>
      </trkpt>
      <trkpt lat="47.83882" lon="-3.53749">
        <ele>10</ele>
        <time>2019-07-17T16:06:24Z</time>
      </trkpt>
      <trkpt lat="47.83886" lon="-3.53746">
        <ele>10</ele>
        <time>2019-07-17T16:06:25Z</time>
      </trkpt>
      <trkpt lat="47.83889" lon="-3.53743">
        <ele>10</ele>
        <time>2019-07-17T16:06:26Z</time>
      </trkpt>
      <trkpt lat="47.83892" lon="-3.53739">
        <ele>10</ele>
        <time>2019-07-17T16:06:27Z</time>
      </trkpt>
      <trkpt lat="47.83896" lon="-3.53737">
        <ele>10</ele>
        <time>2019-07-17T16:06:28Z</time>
      </trkpt>
      <trkpt lat="47.839" lon="-3.53734">
        <ele>10</ele>
        <time>2019-07-17T16:06:29Z</time>
      </trkpt>
      <trkpt lat="47.83903" lon="-3.53731">
        <ele>10</ele>
        <time>2019-07-17T16:06:30Z</time>
      </trkpt>
      <trkpt lat="47.83905" lon="-3.53728">
        <ele>10</ele>
        <time>2019-07-17T16:06:31Z</time>
      </trkpt>
      <trkpt lat="47.83908" lon="-3.53725">
        <ele>10</ele>
        <time>2019-07-17T16:06:32Z</time>
      </trkpt>
      <trkpt lat="47.83909" lon="-3.53723">
        <ele>10</ele>
        <time>2019-07-17T16:06:33Z</time>
      </trkpt>
      <trkpt lat="47.8391" lon="-3.53722">
        <ele>10</ele>
        <time>2019-07-17T16:06:34Z</time>
      </trkpt>
      <trkpt lat="47.8391" lon="-3.53721">
        <ele>11</ele>
        <time>2019-07-17T16:06:35Z</time>
      </trkpt>
      <trkpt lat="47.83911" lon="-3.5372">
        <ele>11</ele>
        <time>2019-07-17T16:06:36Z</time>
      </trkpt>
      <trkpt lat="47.83911" lon="-3.53719">
        <ele>11</ele>
        <time>2019-07-17T16:06:37Z</time>
      </trkpt>
      <trkpt lat="47.83917" lon="-3.53702">
        <ele>18</ele>
        <time>2019-07-17T16:06:38Z</time>
      </trkpt>
      <trkpt lat="47.83918" lon="-3.53701">
        <ele>18</ele>
        <time>2019-07-17T16:06:39Z</time>
      </trkpt>
      <trkpt lat="47.83921" lon="-3.53699">
        <ele>18</ele>
        <time>2019-07-17T16:06:40Z</time>
      </trkpt>
      <trkpt lat="47.83922" lon="-3.53699">
        <ele>18</ele>
        <time>2019-07-17T16:06:41Z</time>
      </trkpt>
      <trkpt lat="47.83923" lon="-3.53698">
        <ele>18</ele>
        <time>2019-07-17T16:06:42Z</time>
      </trkpt>
      <trkpt lat="47.83923" lon="-3.53698">
        <ele>18</ele>
        <time>2019-07-17T16:06:43Z</time>
      </trkpt>
      <trkpt lat="47.83927" lon="-3.53697">
        <ele>18</ele>
        <time>2019-07-17T16:06:44Z</time>
      </trkpt>
      <trkpt lat="47.83929" lon="-3.53696">
        <ele>18</ele>
        <time>2019-07-17T16:06:45Z</time>
      </trkpt>
      <trkpt lat="47.83931" lon="-3.53695">
        <ele>18</ele>
        <time>2019-07-17T16:06:46Z</time>
      </trkpt>
      <trkpt lat="47.83934" lon="-3.53694">
        <ele>18</ele>
        <time>2019-07-17T16:06:47Z</time>
      </trkpt>
      <trkpt lat="47.83936" lon="-3.53693">
        <ele>18</ele>
        <time>2019-07-17T16:06:48Z</time>
      </trkpt>
      <trkpt lat="47.83939" lon="-3.53691">
        <ele>18</ele>
        <time>2019-07-17T16:06:49Z</time>
      </trkpt>
      <trkpt lat="47.83941" lon="-3.5369">
        <ele>18</ele>
        <time>2019-07-17T16:06:50Z</time>
      </trkpt>
      <trkpt lat="47.83944" lon="-3.53689">
        <ele>18</ele>
        <time>2019-07-17T16:06:51Z</time>
      </trkpt>
      <trkpt lat="47.83947" lon="-3.53687">
        <ele>18</ele>
        <time>2019-07-17T16:06:52Z</time>
      </trkpt>
      <trkpt lat="47.83949" lon="-3.53686">
        <ele>18</ele>
        <time>2019-07-17T16:06:53Z</time>
      </trkpt>
      <trkpt lat="47.83952" lon="-3.53683">
        <ele>18</ele>
        <time>2019-07-17T16:06:54Z</time>
      </trkpt>
      <trkpt lat="47.83955" lon="-3.5368">
        <ele>18</ele>
        <time>2019-07-17T16:06:55Z</time>
      </trkpt>
      <trkpt lat="47.83959" lon="-3.53677">
        <ele>18</ele>
        <time>2019-07-17T16:06:56Z</time>
      </trkpt>
      <trkpt lat="47.83961" lon="-3.53674">
        <ele>18</ele>
        <time>2019-07-17T16:06:57Z</time>
      </trkpt>
      <trkpt lat="47.83963" lon="-3.5367">
        <ele>18</ele>
        <time>2019-07-17T16:06:58Z</time>
      </trkpt>
      <trkpt lat="47.83964" lon="-3.53665">
        <ele>18</ele>
        <time>2019-07-17T16:06:59Z</time>
      </trkpt>
      <trkpt lat="47.83966" lon="-3.53659">
        <ele>18</ele>
        <time>2019-07-17T16:07:00Z</time>
      </trkpt>
      <trkpt lat="47.83967" lon="-3.53654">
        <ele>18</ele>
        <time>2019-07-17T16:07:01Z</time>
      </trkpt>
      <trkpt lat="47.83968" lon="-3.53648">
        <ele>18</ele>
        <time>2019-07-17T16:07:02Z</time>
      </trkpt>
      <trkpt lat="47.83968" lon="-3.53644">
        <ele>18</ele>
        <time>2019-07-17T16:07:03Z</time>
      </trkpt>
      <trkpt lat="47.83969" lon="-3.53639">
        <ele>18</ele>
        <time>2019-07-17T16:07:04Z</time>
      </trkpt>
      <trkpt lat="47.8397" lon="-3.53634">
        <ele>18</ele>
        <time>2019-07-17T16:07:05Z</time>
      </trkpt>
      <trkpt lat="47.83972" lon="-3.53631">
        <ele>18</ele>
        <time>2019-07-17T16:07:06Z</time>
      </trkpt>
      <trkpt lat="47.83973" lon="-3.53627">
        <ele>18</ele>
        <time>2019-07-17T16:07:07Z</time>
      </trkpt>
      <trkpt lat="47.83974" lon="-3.53624">
        <ele>18</ele>
        <time>2019-07-17T16:07:08Z</time>
      </trkpt>
      <trkpt lat="47.83976" lon="-3.5362">
        <ele>18</ele>
        <time>2019-07-17T16:07:09Z</time>
      </trkpt>
      <trkpt lat="47.83977" lon="-3.53617">
        <ele>18</ele>
        <time>2019-07-17T16:07:10Z</time>
      </trkpt>
      <trkpt lat="47.83979" lon="-3.53614">
        <ele>18</ele>
        <time>2019-07-17T16:07:11Z</time>
      </trkpt>
      <trkpt lat="47.8398" lon="-3.53611">
        <ele>18</ele>
        <time>2019-07-17T16:07:12Z</time>
      </trkpt>
      <trkpt lat="47.83982" lon="-3.53608">
        <ele>18</ele>
        <time>2019-07-17T16:07:13Z</time>
      </trkpt>
      <trkpt lat="47.83984" lon="-3.53604">
        <ele>18</ele>
        <time>2019-07-17T16:07:14Z</time>
      </trkpt>
      <trkpt lat="47.83985" lon="-3.536">
        <ele>18</ele>
        <time>2019-07-17T16:07:15Z</time>
      </trkpt>
      <trkpt lat="47.83987" lon="-3.53596">
        <ele>18</ele>
        <time>2019-07-17T16:07:16Z</time>
      </trkpt>
      <trkpt lat="47.83989" lon="-3.53592">
        <ele>18</ele>
        <time>2019-07-17T16:07:17Z</time>
      </trkpt>
      <trkpt lat="47.8399" lon="-3.53588">
        <ele>18</ele>
        <time>2019-07-17T16:07:18Z</time>
      </trkpt>
      <trkpt lat="47.83993" lon="-3.53585">
        <ele>18</ele>
        <time>2019-07-17T16:07:19Z</time>
      </trkpt>
      <trkpt lat="47.83995" lon="-3.5358">
        <ele>18</ele>
        <time>2019-07-17T16:07:20Z</time>
      </trkpt>
      <trkpt lat="47.83996" lon="-3.53577">
        <ele>18</ele>
        <time>2019-07-17T16:07:21Z</time>
      </trkpt>
      <trkpt lat="47.83999" lon="-3.53575">
        <ele>18</ele>
        <time>2019-07-17T16:07:22Z</time>
      </trkpt>
      <trkpt lat="47.84001" lon="-3.53572">
        <ele>18</ele>
        <time>2019-07-17T16:07:23Z</time>
      </trkpt>
      <trkpt lat="47.84003" lon="-3.53571">
        <ele>18</ele>
        <time>2019-07-17T16:07:24Z</time>
      </trkpt>
      <trkpt lat="47.84006" lon="-3.53568">
        <ele>18</ele>
        <time>2019-07-17T16:07:25Z</time>
      </trkpt>
      <trkpt lat="47.84008" lon="-3.53566">
        <ele>18</ele>
        <time>2019-07-17T16:07:26Z</time>
      </trkpt>
      <trkpt lat="47.8401" lon="-3.53564">
        <ele>18</ele>
        <time>2019-07-17T16:07:27Z</time>
      </trkpt>
      <trkpt lat="47.84012" lon="-3.53562">
        <ele>18</ele>
        <time>2019-07-17T16:07:28Z</time>
      </trkpt>
      <trkpt lat="47.84014" lon="-3.53561">
        <ele>18</ele>
        <time>2019-07-17T16:07:29Z</time>
      </trkpt>
      <trkpt lat="47.84016" lon="-3.53559">
        <ele>18</ele>
        <time>2019-07-17T16:07:30Z</time>
      </trkpt>
      <trkpt lat="47.84018" lon="-3.53557">
        <ele>18</ele>
        <time>2019-07-17T16:07:31Z</time>
      </trkpt>
      <trkpt lat="47.8402" lon="-3.53555">
        <ele>19</ele>
        <time>2019-07-17T16:07:32Z</time>
      </trkpt>
      <trkpt lat="47.84022" lon="-3.53553">
        <ele>19</ele>
        <time>2019-07-17T16:07:33Z</time>
      </trkpt>
      <trkpt lat="47.84024" lon="-3.53551">
        <ele>19</ele>
        <time>2019-07-17T16:07:34Z</time>
      </trkpt>
      <trkpt lat="47.84026" lon="-3.5355">
        <ele>19</ele>
        <time>2019-07-17T16:07:35Z</time>
      </trkpt>
      <trkpt lat="47.84028" lon="-3.53548">
        <ele>19</ele>
        <time>2019-07-17T16:07:36Z</time>
      </trkpt>
      <trkpt lat="47.8403" lon="-3.53547">
        <ele>20</ele>
        <time>2019-07-17T16:07:37Z</time>
      </trkpt>
      <trkpt lat="47.84032" lon="-3.53546">
        <ele>20</ele>
        <time>2019-07-17T16:07:38Z</time>
      </trkpt>
      <trkpt lat="47.84034" lon="-3.53545">
        <ele>20</ele>
        <time>2019-07-17T16:07:39Z</time>
      </trkpt>
      <trkpt lat="47.84036" lon="-3.53544">
        <ele>20</ele>
        <time>2019-07-17T16:07:40Z</time>
      </trkpt>
      <trkpt lat="47.84038" lon="-3.53543">
        <ele>21</ele>
        <time>2019-07-17T16:07:41Z</time>
      </trkpt>
      <trkpt lat="47.8404" lon="-3.53542">
        <ele>21</ele>
        <time>2019-07-17T16:07:42Z</time>
      </trkpt>
      <trkpt lat="47.84042" lon="-3.53541">
        <ele>21</ele>
        <time>2019-07-17T16:07:43Z</time>
      </trkpt>
      <trkpt lat="47.84043" lon="-3.53539">
        <ele>21</ele>
        <time>2019-07-17T16:07:44Z</time>
      </trkpt>
      <trkpt lat="47.84045" lon="-3.53538">
        <ele>21</ele>
        <time>2019-07-17T16:07:45Z</time>
      </trkpt>
      <trkpt lat="47.84047" lon="-3.53535">
        <ele>21</ele>
        <time>2019-07-17T16:07:46Z</time>
      </trkpt>
      <trkpt lat="47.84049" lon="-3.53532">
        <ele>21</ele>
        <time>2019-07-17T16:07:47Z</time>
      </trkpt>
      <trkpt lat="47.84052" lon="-3.53529">
        <ele>22</ele>
        <time>2019-07-17T16:07:48Z</time>
      </trkpt>
      <trkpt lat="47.84055" lon="-3.53527">
        <ele>22</ele>
        <time>2019-07-17T16:07:49Z</time>
      </trkpt>
      <trkpt lat="47.84058" lon="-3.53525">
        <ele>22</ele>
        <time>2019-07-17T16:07:50Z</time>
      </trkpt>
      <trkpt lat="47.84061" lon="-3.53522">
        <ele>22</ele>
        <time>2019-07-17T16:07:51Z</time>
      </trkpt>
      <trkpt lat="47.84063" lon="-3.53518">
        <ele>22</ele>
        <time>2019-07-17T16:07:52Z</time>
      </trkpt>
      <trkpt lat="47.84066" lon="-3.53515">
        <ele>22</ele>
        <time>2019-07-17T16:07:53Z</time>
      </trkpt>
      <trkpt lat="47.84068" lon="-3.53512">
        <ele>23</ele>
        <time>2019-07-17T16:07:54Z</time>
      </trkpt>
      <trkpt lat="47.8407" lon="-3.5351">
        <ele>23</ele>
        <time>2019-07-17T16:07:55Z</time>
      </trkpt>
      <trkpt lat="47.84072" lon="-3.53508">
        <ele>23</ele>
        <time>2019-07-17T16:07:56Z</time>
      </trkpt>
      <trkpt lat="47.84074" lon="-3.53505">
        <ele>23</ele>
        <time>2019-07-17T16:07:57Z</time>
      </trkpt>
      <trkpt lat="47.84076" lon="-3.53502">
        <ele>23</ele>
        <time>2019-07-17T16:07:58Z</time>
      </trkpt>
      <trkpt lat="47.84079" lon="-3.53497">
        <ele>23</ele>
        <time>2019-07-17T16:07:59Z</time>
      </trkpt>
      <trkpt lat="47.84081" lon="-3.53494">
        <ele>23</ele>
        <time>2019-07-17T16:08:00Z</time>
      </trkpt>
      <trkpt lat="47.84083" lon="-3.5349">
        <ele>23</ele>
        <time>2019-07-17T16:08:01Z</time>
      </trkpt>
      <trkpt lat="47.84085" lon="-3.53487">
        <ele>23</ele>
        <time>2019-07-17T16:08:02Z</time>
      </trkpt>
      <trkpt lat="47.84088" lon="-3.53483">
        <ele>23</ele>
        <time>2019-07-17T16:08:03Z</time>
      </trkpt>
      <trkpt lat="47.8409" lon="-3.53479">
        <ele>23</ele>
        <time>2019-07-17T16:08:04Z</time>
      </trkpt>
      <trkpt lat="47.84091" lon="-3.53476">
        <ele>23</ele>
        <time>2019-07-17T16:08:05Z</time>
      </trkpt>
      <trkpt lat="47.84094" lon="-3.53473">
        <ele>23</ele>
        <time>2019-07-17T16:08:06Z</time>
      </trkpt>
      <trkpt lat="47.84096" lon="-3.53472">
        <ele>23</ele>
        <time>2019-07-17T16:08:07Z</time>
      </trkpt>
      <trkpt lat="47.84098" lon="-3.5347">
        <ele>23</ele>
        <time>2019-07-17T16:08:08Z</time>
      </trkpt>
      <trkpt lat="47.841" lon="-3.53469">
        <ele>23</ele>
        <time>2019-07-17T16:08:09Z</time>
      </trkpt>
      <trkpt lat="47.84101" lon="-3.53469">
        <ele>23</ele>
        <time>2019-07-17T16:08:10Z</time>
      </trkpt>
      <trkpt lat="47.84102" lon="-3.53469">
        <ele>23</ele>
        <time>2019-07-17T16:08:11Z</time>
      </trkpt>
      <trkpt lat="47.84104" lon="-3.53468">
        <ele>23</ele>
        <time>2019-07-17T16:08:12Z</time>
      </trkpt>
      <trkpt lat="47.84105" lon="-3.53467">
        <ele>23</ele>
        <time>2019-07-17T16:08:13Z</time>
      </trkpt>
      <trkpt lat="47.84107" lon="-3.53467">
        <ele>24</ele>
        <time>2019-07-17T16:08:14Z</time>
      </trkpt>
      <trkpt lat="47.84109" lon="-3.53467">
        <ele>24</ele>
        <time>2019-07-17T16:08:15Z</time>
      </trkpt>
      <trkpt lat="47.8411" lon="-3.53466">
        <ele>24</ele>
        <time>2019-07-17T16:08:16Z</time>
      </trkpt>
      <trkpt lat="47.84111" lon="-3.53466">
        <ele>24</ele>
        <time>2019-07-17T16:08:17Z</time>
      </trkpt>
      <trkpt lat="47.84113" lon="-3.53466">
        <ele>24</ele>
        <time>2019-07-17T16:08:18Z</time>
      </trkpt>
      <trkpt lat="47.84115" lon="-3.53465">
        <ele>24</ele>
        <time>2019-07-17T16:08:19Z</time>
      </trkpt>
      <trkpt lat="47.84117" lon="-3.53464">
        <ele>24</ele>
        <time>2019-07-17T16:08:20Z</time>
      </trkpt>
      <trkpt lat="47.8412" lon="-3.53464">
        <ele>24</ele>
        <time>2019-07-17T16:08:21Z</time>
      </trkpt>
      <trkpt lat="47.84124" lon="-3.53464">
        <ele>25</ele>
        <time>2019-07-17T16:08:22Z</time>
      </trkpt>
      <trkpt lat="47.84128" lon="-3.53464">
        <ele>25</ele>
        <time>2019-07-17T16:08:23Z</time>
      </trkpt>
      <trkpt lat="47.84131" lon="-3.53464">
        <ele>25</ele>
        <time>2019-07-17T16:08:24Z</time>
      </trkpt>
      <trkpt lat="47.84135" lon="-3.53463">
        <ele>25</ele>
        <time>2019-07-17T16:08:25Z</time>
      </trkpt>
      <trkpt lat="47.84138" lon="-3.53462">
        <ele>25</ele>
        <time>2019-07-17T16:08:26Z</time>
      </trkpt>
      <trkpt lat="47.84143" lon="-3.53462">
        <ele>25</ele>
        <time>2019-07-17T16:08:27Z</time>
      </trkpt>
      <trkpt lat="47.84147" lon="-3.53461">
        <ele>25</ele>
        <time>2019-07-17T16:08:28Z</time>
      </trkpt>
      <trkpt lat="47.84153" lon="-3.5346">
        <ele>25</ele>
        <time>2019-07-17T16:08:29Z</time>
      </trkpt>
      <trkpt lat="47.84159" lon="-3.53457">
        <ele>25</ele>
        <time>2019-07-17T16:08:30Z</time>
      </trkpt>
      <trkpt lat="47.84166" lon="-3.53455">
        <ele>26</ele>
        <time>2019-07-17T16:08:31Z</time>
      </trkpt>
      <trkpt lat="47.84172" lon="-3.53453">
        <ele>26</ele>
        <time>2019-07-17T16:08:32Z</time>
      </trkpt>
      <trkpt lat="47.84179" lon="-3.5345">
        <ele>26</ele>
        <time>2019-07-17T16:08:33Z</time>
      </trkpt>
      <trkpt lat="47.84186" lon="-3.53447">
        <ele>26</ele>
        <time>2019-07-17T16:08:34Z</time>
      </trkpt>
      <trkpt lat="47.84193" lon="-3.53444">
        <ele>26</ele>
        <time>2019-07-17T16:08:35Z</time>
      </trkpt>
      <trkpt lat="47.842" lon="-3.5344">
        <ele>27</ele>
        <time>2019-07-17T16:08:36Z</time>
      </trkpt>
      <trkpt lat="47.84206" lon="-3.53434">
        <ele>27</ele>
        <time>2019-07-17T16:08:37Z</time>
      </trkpt>
      <trkpt lat="47.84212" lon="-3.53429">
        <ele>27</ele>
        <time>2019-07-17T16:08:38Z</time>
      </trkpt>
      <trkpt lat="47.84219" lon="-3.53423">
        <ele>27</ele>
        <time>2019-07-17T16:08:39Z</time>
      </trkpt>
      <trkpt lat="47.84225" lon="-3.53416">
        <ele>27</ele>
        <time>2019-07-17T16:08:40Z</time>
      </trkpt>
      <trkpt lat="47.84232" lon="-3.53409">
        <ele>27</ele>
        <time>2019-07-17T16:08:41Z</time>
      </trkpt>
      <trkpt lat="47.84239" lon="-3.53402">
        <ele>27</ele>
        <time>2019-07-17T16:08:42Z</time>
      </trkpt>
      <trkpt lat="47.84245" lon="-3.53392">
        <ele>27</ele>
        <time>2019-07-17T16:08:43Z</time>
      </trkpt>
      <trkpt lat="47.84251" lon="-3.53381">
        <ele>27</ele>
        <time>2019-07-17T16:08:44Z</time>
      </trkpt>
      <trkpt lat="47.84256" lon="-3.53369">
        <ele>27</ele>
        <time>2019-07-17T16:08:45Z</time>
      </trkpt>
      <trkpt lat="47.84262" lon="-3.53359">
        <ele>27</ele>
        <time>2019-07-17T16:08:46Z</time>
      </trkpt>
      <trkpt lat="47.84269" lon="-3.53349">
        <ele>27</ele>
        <time>2019-07-17T16:08:47Z</time>
      </trkpt>
      <trkpt lat="47.84276" lon="-3.53339">
        <ele>27</ele>
        <time>2019-07-17T16:08:48Z</time>
      </trkpt>
      <trkpt lat="47.84282" lon="-3.53328">
        <ele>27</ele>
        <time>2019-07-17T16:08:49Z</time>
      </trkpt>
      <trkpt lat="47.84289" lon="-3.53318">
        <ele>27</ele>
        <time>2019-07-17T16:08:50Z</time>
      </trkpt>
      <trkpt lat="47.84296" lon="-3.53307">
        <ele>27</ele>
        <time>2019-07-17T16:08:51Z</time>
      </trkpt>
      <trkpt lat="47.84304" lon="-3.53297">
        <ele>27</ele>
        <time>2019-07-17T16:08:52Z</time>
      </trkpt>
      <trkpt lat="47.84313" lon="-3.53288">
        <ele>27</ele>
        <time>2019-07-17T16:08:53Z</time>
      </trkpt>
      <trkpt lat="47.84322" lon="-3.5328">
        <ele>27</ele>
        <time>2019-07-17T16:08:54Z</time>
      </trkpt>
      <trkpt lat="47.8433" lon="-3.53274">
        <ele>26</ele>
        <time>2019-07-17T16:08:55Z</time>
      </trkpt>
      <trkpt lat="47.84338" lon="-3.53267">
        <ele>26</ele>
        <time>2019-07-17T16:08:56Z</time>
      </trkpt>
      <trkpt lat="47.84346" lon="-3.53263">
        <ele>26</ele>
        <time>2019-07-17T16:08:57Z</time>
      </trkpt>
      <trkpt lat="47.84354" lon="-3.53259">
        <ele>26</ele>
        <time>2019-07-17T16:08:58Z</time>
      </trkpt>
      <trkpt lat="47.84362" lon="-3.53255">
        <ele>26</ele>
        <time>2019-07-17T16:08:59Z</time>
      </trkpt>
      <trkpt lat="47.8437" lon="-3.53251">
        <ele>25</ele>
        <time>2019-07-17T16:09:00Z</time>
      </trkpt>
      <trkpt lat="47.84379" lon="-3.53246">
        <ele>25</ele>
        <time>2019-07-17T16:09:01Z</time>
      </trkpt>
      <trkpt lat="47.84387" lon="-3.5324">
        <ele>25</ele>
        <time>2019-07-17T16:09:02Z</time>
      </trkpt>
      <trkpt lat="47.84394" lon="-3.53236">
        <ele>25</ele>
        <time>2019-07-17T16:09:03Z</time>
      </trkpt>
      <trkpt lat="47.84402" lon="-3.53231">
        <ele>24</ele>
        <time>2019-07-17T16:09:04Z</time>
      </trkpt>
      <trkpt lat="47.84408" lon="-3.53228">
        <ele>24</ele>
        <time>2019-07-17T16:09:05Z</time>
      </trkpt>
      <trkpt lat="47.84413" lon="-3.53226">
        <ele>24</ele>
        <time>2019-07-17T16:09:06Z</time>
      </trkpt>
      <trkpt lat="47.84418" lon="-3.53222">
        <ele>24</ele>
        <time>2019-07-17T16:09:07Z</time>
      </trkpt>
      <trkpt lat="47.84421" lon="-3.53217">
        <ele>23</ele>
        <time>2019-07-17T16:09:08Z</time>
      </trkpt>
      <trkpt lat="47.84424" lon="-3.53213">
        <ele>23</ele>
        <time>2019-07-17T16:09:09Z</time>
      </trkpt>
      <trkpt lat="47.84427" lon="-3.53209">
        <ele>22</ele>
        <time>2019-07-17T16:09:10Z</time>
      </trkpt>
      <trkpt lat="47.8443" lon="-3.53204">
        <ele>22</ele>
        <time>2019-07-17T16:09:11Z</time>
      </trkpt>
      <trkpt lat="47.84432" lon="-3.53197">
        <ele>21</ele>
        <time>2019-07-17T16:09:12Z</time>
      </trkpt>
      <trkpt lat="47.84436" lon="-3.53191">
        <ele>20</ele>
        <time>2019-07-17T16:09:13Z</time>
      </trkpt>
      <trkpt lat="47.84438" lon="-3.53185">
        <ele>20</ele>
        <time>2019-07-17T16:09:14Z</time>
      </trkpt>
      <trkpt lat="47.8444" lon="-3.53178">
        <ele>19</ele>
        <time>2019-07-17T16:09:15Z</time>
      </trkpt>
      <trkpt lat="47.84442" lon="-3.53172">
        <ele>19</ele>
        <time>2019-07-17T16:09:16Z</time>
      </trkpt>
      <trkpt lat="47.84443" lon="-3.53167">
        <ele>19</ele>
        <time>2019-07-17T16:09:17Z</time>
      </trkpt>
      <trkpt lat="47.84445" lon="-3.53161">
        <ele>18</ele>
        <time>2019-07-17T16:09:18Z</time>
      </trkpt>
      <trkpt lat="47.84446" lon="-3.53158">
        <ele>18</ele>
        <time>2019-07-17T16:09:19Z</time>
      </trkpt>
      <trkpt lat="47.84447" lon="-3.53155">
        <ele>18</ele>
        <time>2019-07-17T16:09:20Z</time>
      </trkpt>
      <trkpt lat="47.84448" lon="-3.53152">
        <ele>18</ele>
        <time>2019-07-17T16:09:21Z</time>
      </trkpt>
      <trkpt lat="47.84449" lon="-3.53149">
        <ele>17</ele>
        <time>2019-07-17T16:09:22Z</time>
      </trkpt>
      <trkpt lat="47.8445" lon="-3.53146">
        <ele>17</ele>
        <time>2019-07-17T16:09:23Z</time>
      </trkpt>
      <trkpt lat="47.84452" lon="-3.53143">
        <ele>16</ele>
        <time>2019-07-17T16:09:24Z</time>
      </trkpt>
      <trkpt lat="47.84452" lon="-3.5314">
        <ele>16</ele>
        <time>2019-07-17T16:09:25Z</time>
      </trkpt>
      <trkpt lat="47.84453" lon="-3.53137">
        <ele>16</ele>
        <time>2019-07-17T16:09:26Z</time>
      </trkpt>
      <trkpt lat="47.84455" lon="-3.53135">
        <ele>15</ele>
        <time>2019-07-17T16:09:27Z</time>
      </trkpt>
      <trkpt lat="47.84456" lon="-3.53133">
        <ele>15</ele>
        <time>2019-07-17T16:09:28Z</time>
      </trkpt>
      <trkpt lat="47.84457" lon="-3.53131">
        <ele>15</ele>
        <time>2019-07-17T16:09:29Z</time>
      </trkpt>
      <trkpt lat="47.84458" lon="-3.53129">
        <ele>14</ele>
        <time>2019-07-17T16:09:30Z</time>
      </trkpt>
      <trkpt lat="47.84459" lon="-3.53127">
        <ele>14</ele>
        <time>2019-07-17T16:09:31Z</time>
      </trkpt>
      <trkpt lat="47.84461" lon="-3.53124">
        <ele>14</ele>
        <time>2019-07-17T16:09:32Z</time>
      </trkpt>
      <trkpt lat="47.84462" lon="-3.53122">
        <ele>14</ele>
        <time>2019-07-17T16:09:33Z</time>
      </trkpt>
      <trkpt lat="47.84463" lon="-3.53121">
        <ele>14</ele>
        <time>2019-07-17T16:09:34Z</time>
      </trkpt>
      <trkpt lat="47.84464" lon="-3.53119">
        <ele>14</ele>
        <time>2019-07-17T16:09:35Z</time>
      </trkpt>
      <trkpt lat="47.84465" lon="-3.53117">
        <ele>14</ele>
        <time>2019-07-17T16:09:36Z</time>
      </trkpt>
      <trkpt lat="47.84466" lon="-3.53115">
        <ele>14</ele>
        <time>2019-07-17T16:09:37Z</time>
      </trkpt>
      <trkpt lat="47.84467" lon="-3.53113">
        <ele>14</ele>
        <time>2019-07-17T16:09:38Z</time>
      </trkpt>
      <trkpt lat="47.84468" lon="-3.53112">
        <ele>14</ele>
        <time>2019-07-17T16:09:39Z</time>
      </trkpt>
      <trkpt lat="47.84469" lon="-3.53111">
        <ele>14</ele>
        <time>2019-07-17T16:09:40Z</time>
      </trkpt>
      <trkpt lat="47.84471" lon="-3.5311">
        <ele>14</ele>
        <time>2019-07-17T16:09:41Z</time>
      </trkpt>
      <trkpt lat="47.84472" lon="-3.53109">
        <ele>14</ele>
        <time>2019-07-17T16:09:42Z</time>
      </trkpt>
      <trkpt lat="47.84474" lon="-3.53109">
        <ele>14</ele>
        <time>2019-07-17T16:09:43Z</time>
      </trkpt>
      <trkpt lat="47.84476" lon="-3.53109">
        <ele>14</ele>
        <time>2019-07-17T16:09:44Z</time>
      </trkpt>
      <trkpt lat="47.84478" lon="-3.5311">
        <ele>14</ele>
        <time>2019-07-17T16:09:45Z</time>
      </trkpt>
      <trkpt lat="47.8448" lon="-3.53111">
        <ele>14</ele>
        <time>2019-07-17T16:09:46Z</time>
      </trkpt>
      <trkpt lat="47.84482" lon="-3.53111">
        <ele>15</ele>
        <time>2019-07-17T16:09:47Z</time>
      </trkpt>
      <trkpt lat="47.84484" lon="-3.53112">
        <ele>15</ele>
        <time>2019-07-17T16:09:48Z</time>
      </trkpt>
      <trkpt lat="47.84485" lon="-3.53112">
        <ele>15</ele>
        <time>2019-07-17T16:09:49Z</time>
      </trkpt>
      <trkpt lat="47.84487" lon="-3.53112">
        <ele>15</ele>
        <time>2019-07-17T16:09:50Z</time>
      </trkpt>
      <trkpt lat="47.84488" lon="-3.53113">
        <ele>15</ele>
        <time>2019-07-17T16:09:51Z</time>
      </trkpt>
      <trkpt lat="47.84491" lon="-3.53114">
        <ele>15</ele>
        <time>2019-07-17T16:09:52Z</time>
      </trkpt>
      <trkpt lat="47.84492" lon="-3.53115">
        <ele>15</ele>
        <time>2019-07-17T16:09:53Z</time>
      </trkpt>
      <trkpt lat="47.84494" lon="-3.53116">
        <ele>16</ele>
        <time>2019-07-17T16:09:54Z</time>
      </trkpt>
      <trkpt lat="47.84496" lon="-3.53116">
        <ele>16</ele>
        <time>2019-07-17T16:09:55Z</time>
      </trkpt>
      <trkpt lat="47.84497" lon="-3.53117">
        <ele>16</ele>
        <time>2019-07-17T16:09:56Z</time>
      </trkpt>
      <trkpt lat="47.84498" lon="-3.53118">
        <ele>16</ele>
        <time>2019-07-17T16:09:57Z</time>
      </trkpt>
      <trkpt lat="47.84501" lon="-3.53119">
        <ele>16</ele>
        <time>2019-07-17T16:09:58Z</time>
      </trkpt>
      <trkpt lat="47.84504" lon="-3.53121">
        <ele>16</ele>
        <time>2019-07-17T16:09:59Z</time>
      </trkpt>
      <trkpt lat="47.84507" lon="-3.53122">
        <ele>16</ele>
        <time>2019-07-17T16:10:00Z</time>
      </trkpt>
      <trkpt lat="47.8451" lon="-3.53122">
        <ele>17</ele>
        <time>2019-07-17T16:10:01Z</time>
      </trkpt>
      <trkpt lat="47.84512" lon="-3.53124">
        <ele>17</ele>
        <time>2019-07-17T16:10:02Z</time>
      </trkpt>
      <trkpt lat="47.84515" lon="-3.53126">
        <ele>17</ele>
        <time>2019-07-17T16:10:03Z</time>
      </trkpt>
      <trkpt lat="47.84518" lon="-3.53127">
        <ele>17</ele>
        <time>2019-07-17T16:10:04Z</time>
      </trkpt>
      <trkpt lat="47.84522" lon="-3.53129">
        <ele>18</ele>
        <time>2019-07-17T16:10:05Z</time>
      </trkpt>
      <trkpt lat="47.84525" lon="-3.53131">
        <ele>18</ele>
        <time>2019-07-17T16:10:06Z</time>
      </trkpt>
      <trkpt lat="47.84528" lon="-3.53131">
        <ele>18</ele>
        <time>2019-07-17T16:10:07Z</time>
      </trkpt>
      <trkpt lat="47.8453" lon="-3.53132">
        <ele>19</ele>
        <time>2019-07-17T16:10:08Z</time>
      </trkpt>
      <trkpt lat="47.84532" lon="-3.53134">
        <ele>19</ele>
        <time>2019-07-17T16:10:09Z</time>
      </trkpt>
      <trkpt lat="47.84534" lon="-3.53135">
        <ele>20</ele>
        <time>2019-07-17T16:10:10Z</time>
      </trkpt>
      <trkpt lat="47.84537" lon="-3.53137">
        <ele>20</ele>
        <time>2019-07-17T16:10:11Z</time>
      </trkpt>
      <trkpt lat="47.8454" lon="-3.53138">
        <ele>20</ele>
        <time>2019-07-17T16:10:12Z</time>
      </trkpt>
      <trkpt lat="47.84543" lon="-3.53139">
        <ele>21</ele>
        <time>2019-07-17T16:10:13Z</time>
      </trkpt>
      <trkpt lat="47.84546" lon="-3.53141">
        <ele>21</ele>
        <time>2019-07-17T16:10:14Z</time>
      </trkpt>
      <trkpt lat="47.84549" lon="-3.53142">
        <ele>21</ele>
        <time>2019-07-17T16:10:15Z</time>
      </trkpt>
      <trkpt lat="47.84553" lon="-3.53144">
        <ele>21</ele>
        <time>2019-07-17T16:10:16Z</time>
      </trkpt>
      <trkpt lat="47.84557" lon="-3.53145">
        <ele>22</ele>
        <time>2019-07-17T16:10:17Z</time>
      </trkpt>
      <trkpt lat="47.84561" lon="-3.53147">
        <ele>22</ele>
        <time>2019-07-17T16:10:18Z</time>
      </trkpt>
      <trkpt lat="47.84566" lon="-3.53149">
        <ele>22</ele>
        <time>2019-07-17T16:10:19Z</time>
      </trkpt>
      <trkpt lat="47.8457" lon="-3.53151">
        <ele>22</ele>
        <time>2019-07-17T16:10:20Z</time>
      </trkpt>
      <trkpt lat="47.84574" lon="-3.53153">
        <ele>22</ele>
        <time>2019-07-17T16:10:21Z</time>
      </trkpt>
      <trkpt lat="47.84578" lon="-3.53156">
        <ele>22</ele>
        <time>2019-07-17T16:10:22Z</time>
      </trkpt>
      <trkpt lat="47.84582" lon="-3.53158">
        <ele>23</ele>
        <time>2019-07-17T16:10:23Z</time>
      </trkpt>
      <trkpt lat="47.84587" lon="-3.5316">
        <ele>23</ele>
        <time>2019-07-17T16:10:24Z</time>
      </trkpt>
      <trkpt lat="47.84591" lon="-3.53162">
        <ele>23</ele>
        <time>2019-07-17T16:10:25Z</time>
      </trkpt>
      <trkpt lat="47.84595" lon="-3.53163">
        <ele>23</ele>
        <time>2019-07-17T16:10:26Z</time>
      </trkpt>
      <trkpt lat="47.84599" lon="-3.53165">
        <ele>23</ele>
        <time>2019-07-17T16:10:27Z</time>
      </trkpt>
      <trkpt lat="47.84602" lon="-3.53168">
        <ele>23</ele>
        <time>2019-07-17T16:10:28Z</time>
      </trkpt>
      <trkpt lat="47.84605" lon="-3.5317">
        <ele>23</ele>
        <time>2019-07-17T16:10:29Z</time>
      </trkpt>
      <trkpt lat="47.84607" lon="-3.53172">
        <ele>23</ele>
        <time>2019-07-17T16:10:30Z</time>
      </trkpt>
      <trkpt lat="47.8461" lon="-3.53174">
        <ele>23</ele>
        <time>2019-07-17T16:10:31Z</time>
      </trkpt>
      <trkpt lat="47.84614" lon="-3.53176">
        <ele>23</ele>
        <time>2019-07-17T16:10:32Z</time>
      </trkpt>
      <trkpt lat="47.84618" lon="-3.53178">
        <ele>23</ele>
        <time>2019-07-17T16:10:33Z</time>
      </trkpt>
      <trkpt lat="47.84621" lon="-3.5318">
        <ele>23</ele>
        <time>2019-07-17T16:10:34Z</time>
      </trkpt>
      <trkpt lat="47.84625" lon="-3.53181">
        <ele>23</ele>
        <time>2019-07-17T16:10:35Z</time>
      </trkpt>
      <trkpt lat="47.84628" lon="-3.53184">
        <ele>23</ele>
        <time>2019-07-17T16:10:36Z</time>
      </trkpt>
      <trkpt lat="47.84632" lon="-3.53186">
        <ele>23</ele>
        <time>2019-07-17T16:10:37Z</time>
      </trkpt>
      <trkpt lat="47.84636" lon="-3.53188">
        <ele>23</ele>
        <time>2019-07-17T16:10:38Z</time>
      </trkpt>
      <trkpt lat="47.84639" lon="-3.5319">
        <ele>23</ele>
        <time>2019-07-17T16:10:39Z</time>
      </trkpt>
      <trkpt lat="47.84643" lon="-3.53192">
        <ele>23</ele>
        <time>2019-07-17T16:10:40Z</time>
      </trkpt>
      <trkpt lat="47.84646" lon="-3.53195">
        <ele>23</ele>
        <time>2019-07-17T16:10:41Z</time>
      </trkpt>
      <trkpt lat="47.8465" lon="-3.53196">
        <ele>23</ele>
        <time>2019-07-17T16:10:42Z</time>
      </trkpt>
      <trkpt lat="47.84654" lon="-3.53198">
        <ele>23</ele>
        <time>2019-07-17T16:10:43Z</time>
      </trkpt>
      <trkpt lat="47.84659" lon="-3.532">
        <ele>23</ele>
        <time>2019-07-17T16:10:44Z</time>
      </trkpt>
      <trkpt lat="47.84663" lon="-3.53202">
        <ele>23</ele>
        <time>2019-07-17T16:10:45Z</time>
      </trkpt>
      <trkpt lat="47.84666" lon="-3.53203">
        <ele>23</ele>
        <time>2019-07-17T16:10:46Z</time>
      </trkpt>
      <trkpt lat="47.84669" lon="-3.53204">
        <ele>23</ele>
        <time>2019-07-17T16:10:47Z</time>
      </trkpt>
      <trkpt lat="47.84672" lon="-3.53205">
        <ele>23</ele>
        <time>2019-07-17T16:10:48Z</time>
      </trkpt>
      <trkpt lat="47.84675" lon="-3.53206">
        <ele>23</ele>
        <time>2019-07-17T16:10:49Z</time>
      </trkpt>
      <trkpt lat="47.84679" lon="-3.53207">
        <ele>23</ele>
        <time>2019-07-17T16:10:50Z</time>
      </trkpt>
      <trkpt lat="47.84681" lon="-3.53207">
        <ele>23</ele>
        <time>2019-07-17T16:10:51Z</time>
      </trkpt>
      <trkpt lat="47.84682" lon="-3.53208">
        <ele>22</ele>
        <time>2019-07-17T16:10:52Z</time>
      </trkpt>
      <trkpt lat="47.84684" lon="-3.53208">
        <ele>22</ele>
        <time>2019-07-17T16:10:53Z</time>
      </trkpt>
      <trkpt lat="47.84685" lon="-3.53208">
        <ele>22</ele>
        <time>2019-07-17T16:10:54Z</time>
      </trkpt>
      <trkpt lat="47.84685" lon="-3.53208">
        <ele>22</ele>
        <time>2019-07-17T16:10:55Z</time>
      </trkpt>
      <trkpt lat="47.84686" lon="-3.53209">
        <ele>22</ele>
        <time>2019-07-17T16:10:56Z</time>
      </trkpt>
      <trkpt lat="47.84687" lon="-3.53209">
        <ele>22</ele>
        <time>2019-07-17T16:10:57Z</time>
      </trkpt>
      <trkpt lat="47.84688" lon="-3.53209">
        <ele>22</ele>
        <time>2019-07-17T16:10:58Z</time>
      </trkpt>
      <trkpt lat="47.84688" lon="-3.5321">
        <ele>22</ele>
        <time>2019-07-17T16:10:59Z</time>
      </trkpt>
      <trkpt lat="47.84689" lon="-3.5321">
        <ele>22</ele>
        <time>2019-07-17T16:11:00Z</time>
      </trkpt>
      <trkpt lat="47.8469" lon="-3.5321">
        <ele>22</ele>
        <time>2019-07-17T16:11:01Z</time>
      </trkpt>
      <trkpt lat="47.8469" lon="-3.5321">
        <ele>22</ele>
        <time>2019-07-17T16:11:02Z</time>
      </trkpt>
      <trkpt lat="47.84691" lon="-3.5321">
        <ele>22</ele>
        <time>2019-07-17T16:11:03Z</time>
      </trkpt>
      <trkpt lat="47.847" lon="-3.53211">
        <ele>22</ele>
        <time>2019-07-17T16:11:04Z</time>
      </trkpt>
      <trkpt lat="47.84702" lon="-3.53212">
        <ele>22</ele>
        <time>2019-07-17T16:11:05Z</time>
      </trkpt>
      <trkpt lat="47.84703" lon="-3.53212">
        <ele>22</ele>
        <time>2019-07-17T16:11:06Z</time>
      </trkpt>
      <trkpt lat="47.84705" lon="-3.53211">
        <ele>22</ele>
        <time>2019-07-17T16:11:07Z</time>
      </trkpt>
      <trkpt lat="47.84707" lon="-3.53211">
        <ele>22</ele>
        <time>2019-07-17T16:11:08Z</time>
      </trkpt>
      <trkpt lat="47.84709" lon="-3.53211">
        <ele>23</ele>
        <time>2019-07-17T16:11:09Z</time>
      </trkpt>
      <trkpt lat="47.8471" lon="-3.53211">
        <ele>23</ele>
        <time>2019-07-17T16:11:10Z</time>
      </trkpt>
      <trkpt lat="47.84711" lon="-3.53211">
        <ele>23</ele>
        <time>2019-07-17T16:11:11Z</time>
      </trkpt>
      <trkpt lat="47.84712" lon="-3.53211">
        <ele>23</ele>
        <time>2019-07-17T16:11:12Z</time>
      </trkpt>
      <trkpt lat="47.84714" lon="-3.53211">
        <ele>23</ele>
        <time>2019-07-17T16:11:13Z</time>
      </trkpt>
      <trkpt lat="47.84716" lon="-3.53211">
        <ele>23</ele>
        <time>2019-07-17T16:11:14Z</time>
      </trkpt>
      <trkpt lat="47.84718" lon="-3.53211">
        <ele>24</ele>
        <time>2019-07-17T16:11:15Z</time>
      </trkpt>
      <trkpt lat="47.84719" lon="-3.53212">
        <ele>24</ele>
        <time>2019-07-17T16:11:16Z</time>
      </trkpt>
      <trkpt lat="47.84721" lon="-3.53212">
        <ele>24</ele>
        <time>2019-07-17T16:11:17Z</time>
      </trkpt>
      <trkpt lat="47.84722" lon="-3.53212">
        <ele>24</ele>
        <time>2019-07-17T16:11:18Z</time>
      </trkpt>
      <trkpt lat="47.84724" lon="-3.53211">
        <ele>24</ele>
        <time>2019-07-17T16:11:19Z</time>
      </trkpt>
      <trkpt lat="47.84725" lon="-3.5321">
        <ele>24</ele>
        <time>2019-07-17T16:11:20Z</time>
      </trkpt>
      <trkpt lat="47.84728" lon="-3.5321">
        <ele>24</ele>
        <time>2019-07-17T16:11:21Z</time>
      </trkpt>
      <trkpt lat="47.84729" lon="-3.53209">
        <ele>24</ele>
        <time>2019-07-17T16:11:22Z</time>
      </trkpt>
      <trkpt lat="47.8473" lon="-3.53209">
        <ele>24</ele>
        <time>2019-07-17T16:11:23Z</time>
      </trkpt>
      <trkpt lat="47.84731" lon="-3.53209">
        <ele>24</ele>
        <time>2019-07-17T16:11:24Z</time>
      </trkpt>
      <trkpt lat="47.84732" lon="-3.53209">
        <ele>25</ele>
        <time>2019-07-17T16:11:25Z</time>
      </trkpt>
      <trkpt lat="47.84752" lon="-3.5321">
        <ele>27</ele>
        <time>2019-07-17T16:11:26Z</time>
      </trkpt>
      <trkpt lat="47.84754" lon="-3.5321">
        <ele>27</ele>
        <time>2019-07-17T16:11:27Z</time>
      </trkpt>
      <trkpt lat="47.84755" lon="-3.5321">
        <ele>26</ele>
        <time>2019-07-17T16:11:28Z</time>
      </trkpt>
      <trkpt lat="47.84756" lon="-3.5321">
        <ele>26</ele>
        <time>2019-07-17T16:11:29Z</time>
      </trkpt>
      <trkpt lat="47.84757" lon="-3.53211">
        <ele>26</ele>
        <time>2019-07-17T16:11:30Z</time>
      </trkpt>
      <trkpt lat="47.8476" lon="-3.53212">
        <ele>26</ele>
        <time>2019-07-17T16:11:31Z</time>
      </trkpt>
      <trkpt lat="47.84761" lon="-3.53213">
        <ele>26</ele>
        <time>2019-07-17T16:11:32Z</time>
      </trkpt>
      <trkpt lat="47.84764" lon="-3.53214">
        <ele>26</ele>
        <time>2019-07-17T16:11:33Z</time>
      </trkpt>
      <trkpt lat="47.84766" lon="-3.53215">
        <ele>26</ele>
        <time>2019-07-17T16:11:34Z</time>
      </trkpt>
      <trkpt lat="47.84768" lon="-3.53216">
        <ele>26</ele>
        <time>2019-07-17T16:11:35Z</time>
      </trkpt>
      <trkpt lat="47.8477" lon="-3.53217">
        <ele>26</ele>
        <time>2019-07-17T16:11:36Z</time>
      </trkpt>
      <trkpt lat="47.84772" lon="-3.53218">
        <ele>26</ele>
        <time>2019-07-17T16:11:37Z</time>
      </trkpt>
      <trkpt lat="47.84775" lon="-3.5322">
        <ele>26</ele>
        <time>2019-07-17T16:11:38Z</time>
      </trkpt>
      <trkpt lat="47.84778" lon="-3.53221">
        <ele>25</ele>
        <time>2019-07-17T16:11:39Z</time>
      </trkpt>
      <trkpt lat="47.84781" lon="-3.53223">
        <ele>25</ele>
        <time>2019-07-17T16:11:40Z</time>
      </trkpt>
      <trkpt lat="47.84784" lon="-3.53224">
        <ele>25</ele>
        <time>2019-07-17T16:11:41Z</time>
      </trkpt>
      <trkpt lat="47.84786" lon="-3.53226">
        <ele>25</ele>
        <time>2019-07-17T16:11:42Z</time>
      </trkpt>
      <trkpt lat="47.84789" lon="-3.53228">
        <ele>25</ele>
        <time>2019-07-17T16:11:43Z</time>
      </trkpt>
      <trkpt lat="47.84791" lon="-3.53231">
        <ele>25</ele>
        <time>2019-07-17T16:11:44Z</time>
      </trkpt>
      <trkpt lat="47.84793" lon="-3.53233">
        <ele>25</ele>
        <time>2019-07-17T16:11:45Z</time>
      </trkpt>
      <trkpt lat="47.84796" lon="-3.53236">
        <ele>25</ele>
        <time>2019-07-17T16:11:46Z</time>
      </trkpt>
      <trkpt lat="47.84799" lon="-3.53239">
        <ele>25</ele>
        <time>2019-07-17T16:11:47Z</time>
      </trkpt>
      <trkpt lat="47.84801" lon="-3.5324">
        <ele>25</ele>
        <time>2019-07-17T16:11:48Z</time>
      </trkpt>
      <trkpt lat="47.84805" lon="-3.53242">
        <ele>25</ele>
        <time>2019-07-17T16:11:49Z</time>
      </trkpt>
      <trkpt lat="47.84808" lon="-3.53244">
        <ele>25</ele>
        <time>2019-07-17T16:11:50Z</time>
      </trkpt>
      <trkpt lat="47.84811" lon="-3.53246">
        <ele>25</ele>
        <time>2019-07-17T16:11:51Z</time>
      </trkpt>
      <trkpt lat="47.84813" lon="-3.53249">
        <ele>25</ele>
        <time>2019-07-17T16:11:52Z</time>
      </trkpt>
      <trkpt lat="47.84816" lon="-3.53251">
        <ele>25</ele>
        <time>2019-07-17T16:11:53Z</time>
      </trkpt>
      <trkpt lat="47.84818" lon="-3.53253">
        <ele>26</ele>
        <time>2019-07-17T16:11:54Z</time>
      </trkpt>
      <trkpt lat="47.8482" lon="-3.53255">
        <ele>26</ele>
        <time>2019-07-17T16:11:55Z</time>
      </trkpt>
      <trkpt lat="47.84823" lon="-3.53257">
        <ele>26</ele>
        <time>2019-07-17T16:11:56Z</time>
      </trkpt>
      <trkpt lat="47.84826" lon="-3.5326">
        <ele>26</ele>
        <time>2019-07-17T16:11:57Z</time>
      </trkpt>
      <trkpt lat="47.84827" lon="-3.53263">
        <ele>26</ele>
        <time>2019-07-17T16:11:58Z</time>
      </trkpt>
      <trkpt lat="47.84829" lon="-3.53266">
        <ele>26</ele>
        <time>2019-07-17T16:11:59Z</time>
      </trkpt>
      <trkpt lat="47.84831" lon="-3.53269">
        <ele>27</ele>
        <time>2019-07-17T16:12:00Z</time>
      </trkpt>
      <trkpt lat="47.84833" lon="-3.53272">
        <ele>27</ele>
        <time>2019-07-17T16:12:01Z</time>
      </trkpt>
      <trkpt lat="47.84835" lon="-3.53274">
        <ele>27</ele>
        <time>2019-07-17T16:12:02Z</time>
      </trkpt>
      <trkpt lat="47.84837" lon="-3.53276">
        <ele>27</ele>
        <time>2019-07-17T16:12:03Z</time>
      </trkpt>
      <trkpt lat="47.84839" lon="-3.53279">
        <ele>28</ele>
        <time>2019-07-17T16:12:04Z</time>
      </trkpt>
      <trkpt lat="47.84839" lon="-3.53279">
        <ele>28</ele>
        <time>2019-07-17T16:12:06Z</time>
      </trkpt>
      <trkpt lat="47.84839" lon="-3.53279">
        <ele>28</ele>
        <time>2019-07-17T16:12:07Z</time>
      </trkpt>
      <trkpt lat="47.84848" lon="-3.53292">
        <ele>29</ele>
        <time>2019-07-17T16:12:08Z</time>
      </trkpt>
      <trkpt lat="47.84851" lon="-3.53296">
        <ele>29</ele>
        <time>2019-07-17T16:12:09Z</time>
      </trkpt>
      <trkpt lat="47.84853" lon="-3.53299">
        <ele>29</ele>
        <time>2019-07-17T16:12:10Z</time>
      </trkpt>
      <trkpt lat="47.84856" lon="-3.53303">
        <ele>29</ele>
        <time>2019-07-17T16:12:11Z</time>
      </trkpt>
      <trkpt lat="47.84859" lon="-3.53307">
        <ele>29</ele>
        <time>2019-07-17T16:12:12Z</time>
      </trkpt>
      <trkpt lat="47.84862" lon="-3.53311">
        <ele>30</ele>
        <time>2019-07-17T16:12:13Z</time>
      </trkpt>
      <trkpt lat="47.84864" lon="-3.53315">
        <ele>30</ele>
        <time>2019-07-17T16:12:14Z</time>
      </trkpt>
      <trkpt lat="47.84866" lon="-3.53319">
        <ele>30</ele>
        <time>2019-07-17T16:12:15Z</time>
      </trkpt>
      <trkpt lat="47.84868" lon="-3.53323">
        <ele>30</ele>
        <time>2019-07-17T16:12:16Z</time>
      </trkpt>
      <trkpt lat="47.84869" lon="-3.53326">
        <ele>30</ele>
        <time>2019-07-17T16:12:17Z</time>
      </trkpt>
      <trkpt lat="47.84871" lon="-3.53329">
        <ele>31</ele>
        <time>2019-07-17T16:12:18Z</time>
      </trkpt>
      <trkpt lat="47.84872" lon="-3.53332">
        <ele>31</ele>
        <time>2019-07-17T16:12:19Z</time>
      </trkpt>
      <trkpt lat="47.84875" lon="-3.53335">
        <ele>31</ele>
        <time>2019-07-17T16:12:20Z</time>
      </trkpt>
      <trkpt lat="47.84877" lon="-3.53339">
        <ele>32</ele>
        <time>2019-07-17T16:12:21Z</time>
      </trkpt>
      <trkpt lat="47.84878" lon="-3.53342">
        <ele>32</ele>
        <time>2019-07-17T16:12:22Z</time>
      </trkpt>
      <trkpt lat="47.84879" lon="-3.53347">
        <ele>33</ele>
        <time>2019-07-17T16:12:23Z</time>
      </trkpt>
      <trkpt lat="47.8488" lon="-3.53353">
        <ele>33</ele>
        <time>2019-07-17T16:12:24Z</time>
      </trkpt>
      <trkpt lat="47.84881" lon="-3.53358">
        <ele>33</ele>
        <time>2019-07-17T16:12:25Z</time>
      </trkpt>
      <trkpt lat="47.84882" lon="-3.53363">
        <ele>34</ele>
        <time>2019-07-17T16:12:26Z</time>
      </trkpt>
      <trkpt lat="47.84882" lon="-3.53367">
        <ele>35</ele>
        <time>2019-07-17T16:12:27Z</time>
      </trkpt>
      <trkpt lat="47.84882" lon="-3.53372">
        <ele>36</ele>
        <time>2019-07-17T16:12:28Z</time>
      </trkpt>
      <trkpt lat="47.84882" lon="-3.53377">
        <ele>37</ele>
        <time>2019-07-17T16:12:29Z</time>
      </trkpt>
      <trkpt lat="47.84882" lon="-3.53381">
        <ele>38</ele>
        <time>2019-07-17T16:12:30Z</time>
      </trkpt>
      <trkpt lat="47.84882" lon="-3.53384">
        <ele>39</ele>
        <time>2019-07-17T16:12:31Z</time>
      </trkpt>
      <trkpt lat="47.84883" lon="-3.53388">
        <ele>40</ele>
        <time>2019-07-17T16:12:32Z</time>
      </trkpt>
      <trkpt lat="47.84882" lon="-3.53392">
        <ele>40</ele>
        <time>2019-07-17T16:12:33Z</time>
      </trkpt>
      <trkpt lat="47.84882" lon="-3.53395">
        <ele>41</ele>
        <time>2019-07-17T16:12:34Z</time>
      </trkpt>
      <trkpt lat="47.84881" lon="-3.53398">
        <ele>42</ele>
        <time>2019-07-17T16:12:35Z</time>
      </trkpt>
      <trkpt lat="47.8488" lon="-3.53402">
        <ele>43</ele>
        <time>2019-07-17T16:12:36Z</time>
      </trkpt>
      <trkpt lat="47.84879" lon="-3.53407">
        <ele>43</ele>
        <time>2019-07-17T16:12:37Z</time>
      </trkpt>
      <trkpt lat="47.84878" lon="-3.53412">
        <ele>44</ele>
        <time>2019-07-17T16:12:38Z</time>
      </trkpt>
      <trkpt lat="47.84877" lon="-3.53416">
        <ele>45</ele>
        <time>2019-07-17T16:12:39Z</time>
      </trkpt>
      <trkpt lat="47.84875" lon="-3.53421">
        <ele>45</ele>
        <time>2019-07-17T16:12:40Z</time>
      </trkpt>
      <trkpt lat="47.84873" lon="-3.53426">
        <ele>46</ele>
        <time>2019-07-17T16:12:41Z</time>
      </trkpt>
      <trkpt lat="47.84872" lon="-3.53431">
        <ele>46</ele>
        <time>2019-07-17T16:12:42Z</time>
      </trkpt>
      <trkpt lat="47.84872" lon="-3.53435">
        <ele>46</ele>
        <time>2019-07-17T16:12:43Z</time>
      </trkpt>
      <trkpt lat="47.84872" lon="-3.5344">
        <ele>46</ele>
        <time>2019-07-17T16:12:44Z</time>
      </trkpt>
      <trkpt lat="47.84871" lon="-3.53445">
        <ele>46</ele>
        <time>2019-07-17T16:12:45Z</time>
      </trkpt>
      <trkpt lat="47.84871" lon="-3.53449">
        <ele>46</ele>
        <time>2019-07-17T16:12:46Z</time>
      </trkpt>
      <trkpt lat="47.84871" lon="-3.53451">
        <ele>46</ele>
        <time>2019-07-17T16:12:47Z</time>
      </trkpt>
      <trkpt lat="47.84872" lon="-3.53454">
        <ele>47</ele>
        <time>2019-07-17T16:12:48Z</time>
      </trkpt>
      <trkpt lat="47.84872" lon="-3.53456">
        <ele>47</ele>
        <time>2019-07-17T16:12:49Z</time>
      </trkpt>
      <trkpt lat="47.84873" lon="-3.53459">
        <ele>47</ele>
        <time>2019-07-17T16:12:50Z</time>
      </trkpt>
      <trkpt lat="47.84873" lon="-3.53462">
        <ele>47</ele>
        <time>2019-07-17T16:12:51Z</time>
      </trkpt>
      <trkpt lat="47.84874" lon="-3.53464">
        <ele>48</ele>
        <time>2019-07-17T16:12:52Z</time>
      </trkpt>
      <trkpt lat="47.84874" lon="-3.53467">
        <ele>48</ele>
        <time>2019-07-17T16:12:53Z</time>
      </trkpt>
      <trkpt lat="47.84875" lon="-3.5347">
        <ele>48</ele>
        <time>2019-07-17T16:12:54Z</time>
      </trkpt>
      <trkpt lat="47.84876" lon="-3.53473">
        <ele>48</ele>
        <time>2019-07-17T16:12:55Z</time>
      </trkpt>
      <trkpt lat="47.84876" lon="-3.53477">
        <ele>49</ele>
        <time>2019-07-17T16:12:56Z</time>
      </trkpt>
      <trkpt lat="47.84878" lon="-3.53481">
        <ele>49</ele>
        <time>2019-07-17T16:12:57Z</time>
      </trkpt>
      <trkpt lat="47.84879" lon="-3.53486">
        <ele>49</ele>
        <time>2019-07-17T16:12:58Z</time>
      </trkpt>
      <trkpt lat="47.8488" lon="-3.5349">
        <ele>49</ele>
        <time>2019-07-17T16:12:59Z</time>
      </trkpt>
      <trkpt lat="47.84881" lon="-3.53493">
        <ele>50</ele>
        <time>2019-07-17T16:13:00Z</time>
      </trkpt>
      <trkpt lat="47.84882" lon="-3.53498">
        <ele>50</ele>
        <time>2019-07-17T16:13:01Z</time>
      </trkpt>
      <trkpt lat="47.84884" lon="-3.53502">
        <ele>51</ele>
        <time>2019-07-17T16:13:02Z</time>
      </trkpt>
      <trkpt lat="47.84885" lon="-3.53506">
        <ele>51</ele>
        <time>2019-07-17T16:13:03Z</time>
      </trkpt>
      <trkpt lat="47.84887" lon="-3.53511">
        <ele>51</ele>
        <time>2019-07-17T16:13:04Z</time>
      </trkpt>
      <trkpt lat="47.84888" lon="-3.53515">
        <ele>51</ele>
        <time>2019-07-17T16:13:05Z</time>
      </trkpt>
      <trkpt lat="47.84889" lon="-3.53519">
        <ele>52</ele>
        <time>2019-07-17T16:13:06Z</time>
      </trkpt>
      <trkpt lat="47.8489" lon="-3.53523">
        <ele>52</ele>
        <time>2019-07-17T16:13:07Z</time>
      </trkpt>
      <trkpt lat="47.84892" lon="-3.53527">
        <ele>52</ele>
        <time>2019-07-17T16:13:08Z</time>
      </trkpt>
      <trkpt lat="47.84893" lon="-3.53532">
        <ele>52</ele>
        <time>2019-07-17T16:13:09Z</time>
      </trkpt>
      <trkpt lat="47.84894" lon="-3.53536">
        <ele>53</ele>
        <time>2019-07-17T16:13:10Z</time>
      </trkpt>
      <trkpt lat="47.84895" lon="-3.53539">
        <ele>53</ele>
        <time>2019-07-17T16:13:11Z</time>
      </trkpt>
      <trkpt lat="47.84896" lon="-3.53544">
        <ele>53</ele>
        <time>2019-07-17T16:13:12Z</time>
      </trkpt>
      <trkpt lat="47.84898" lon="-3.53548">
        <ele>53</ele>
        <time>2019-07-17T16:13:13Z</time>
      </trkpt>
      <trkpt lat="47.84898" lon="-3.53552">
        <ele>53</ele>
        <time>2019-07-17T16:13:14Z</time>
      </trkpt>
      <trkpt lat="47.849" lon="-3.53558">
        <ele>53</ele>
        <time>2019-07-17T16:13:15Z</time>
      </trkpt>
      <trkpt lat="47.84901" lon="-3.53564">
        <ele>53</ele>
        <time>2019-07-17T16:13:16Z</time>
      </trkpt>
      <trkpt lat="47.84902" lon="-3.53569">
        <ele>53</ele>
        <time>2019-07-17T16:13:17Z</time>
      </trkpt>
      <trkpt lat="47.84903" lon="-3.53575">
        <ele>53</ele>
        <time>2019-07-17T16:13:18Z</time>
      </trkpt>
      <trkpt lat="47.84904" lon="-3.53581">
        <ele>52</ele>
        <time>2019-07-17T16:13:19Z</time>
      </trkpt>
      <trkpt lat="47.84904" lon="-3.53587">
        <ele>52</ele>
        <time>2019-07-17T16:13:20Z</time>
      </trkpt>
      <trkpt lat="47.84904" lon="-3.53592">
        <ele>52</ele>
        <time>2019-07-17T16:13:21Z</time>
      </trkpt>
      <trkpt lat="47.84904" lon="-3.53597">
        <ele>52</ele>
        <time>2019-07-17T16:13:22Z</time>
      </trkpt>
      <trkpt lat="47.84904" lon="-3.53602">
        <ele>52</ele>
        <time>2019-07-17T16:13:23Z</time>
      </trkpt>
      <trkpt lat="47.84904" lon="-3.53607">
        <ele>52</ele>
        <time>2019-07-17T16:13:24Z</time>
      </trkpt>
      <trkpt lat="47.84904" lon="-3.53612">
        <ele>52</ele>
        <time>2019-07-17T16:13:25Z</time>
      </trkpt>
      <trkpt lat="47.84903" lon="-3.53617">
        <ele>53</ele>
        <time>2019-07-17T16:13:26Z</time>
      </trkpt>
      <trkpt lat="47.84902" lon="-3.53621">
        <ele>53</ele>
        <time>2019-07-17T16:13:27Z</time>
      </trkpt>
      <trkpt lat="47.84902" lon="-3.53625">
        <ele>53</ele>
        <time>2019-07-17T16:13:28Z</time>
      </trkpt>
      <trkpt lat="47.84902" lon="-3.53628">
        <ele>53</ele>
        <time>2019-07-17T16:13:29Z</time>
      </trkpt>
      <trkpt lat="47.84901" lon="-3.53632">
        <ele>54</ele>
        <time>2019-07-17T16:13:30Z</time>
      </trkpt>
      <trkpt lat="47.849" lon="-3.53636">
        <ele>54</ele>
        <time>2019-07-17T16:13:31Z</time>
      </trkpt>
      <trkpt lat="47.84898" lon="-3.53641">
        <ele>55</ele>
        <time>2019-07-17T16:13:32Z</time>
      </trkpt>
      <trkpt lat="47.84897" lon="-3.53645">
        <ele>55</ele>
        <time>2019-07-17T16:13:33Z</time>
      </trkpt>
      <trkpt lat="47.84896" lon="-3.5365">
        <ele>55</ele>
        <time>2019-07-17T16:13:34Z</time>
      </trkpt>
      <trkpt lat="47.84895" lon="-3.53654">
        <ele>56</ele>
        <time>2019-07-17T16:13:35Z</time>
      </trkpt>
      <trkpt lat="47.84894" lon="-3.53659">
        <ele>56</ele>
        <time>2019-07-17T16:13:36Z</time>
      </trkpt>
      <trkpt lat="47.84893" lon="-3.53663">
        <ele>56</ele>
        <time>2019-07-17T16:13:37Z</time>
      </trkpt>
      <trkpt lat="47.84892" lon="-3.53667">
        <ele>57</ele>
        <time>2019-07-17T16:13:38Z</time>
      </trkpt>
      <trkpt lat="47.84891" lon="-3.53672">
        <ele>57</ele>
        <time>2019-07-17T16:13:39Z</time>
      </trkpt>
      <trkpt lat="47.8489" lon="-3.53677">
        <ele>57</ele>
        <time>2019-07-17T16:13:40Z</time>
      </trkpt>
      <trkpt lat="47.84889" lon="-3.53681">
        <ele>58</ele>
        <time>2019-07-17T16:13:41Z</time>
      </trkpt>
      <trkpt lat="47.84888" lon="-3.53686">
        <ele>58</ele>
        <time>2019-07-17T16:13:42Z</time>
      </trkpt>
      <trkpt lat="47.84887" lon="-3.5369">
        <ele>58</ele>
        <time>2019-07-17T16:13:43Z</time>
      </trkpt>
      <trkpt lat="47.84886" lon="-3.53695">
        <ele>58</ele>
        <time>2019-07-17T16:13:44Z</time>
      </trkpt>
      <trkpt lat="47.84885" lon="-3.53699">
        <ele>59</ele>
        <time>2019-07-17T16:13:45Z</time>
      </trkpt>
      <trkpt lat="47.84885" lon="-3.53703">
        <ele>59</ele>
        <time>2019-07-17T16:13:46Z</time>
      </trkpt>
      <trkpt lat="47.84884" lon="-3.53707">
        <ele>59</ele>
        <time>2019-07-17T16:13:47Z</time>
      </trkpt>
      <trkpt lat="47.84883" lon="-3.53711">
        <ele>59</ele>
        <time>2019-07-17T16:13:48Z</time>
      </trkpt>
      <trkpt lat="47.84882" lon="-3.53715">
        <ele>60</ele>
        <time>2019-07-17T16:13:49Z</time>
      </trkpt>
      <trkpt lat="47.84882" lon="-3.53719">
        <ele>60</ele>
        <time>2019-07-17T16:13:50Z</time>
      </trkpt>
      <trkpt lat="47.84881" lon="-3.53722">
        <ele>60</ele>
        <time>2019-07-17T16:13:51Z</time>
      </trkpt>
      <trkpt lat="47.8488" lon="-3.53727">
        <ele>60</ele>
        <time>2019-07-17T16:13:52Z</time>
      </trkpt>
      <trkpt lat="47.84879" lon="-3.53732">
        <ele>61</ele>
        <time>2019-07-17T16:13:53Z</time>
      </trkpt>
      <trkpt lat="47.84878" lon="-3.53736">
        <ele>61</ele>
        <time>2019-07-17T16:13:54Z</time>
      </trkpt>
      <trkpt lat="47.84877" lon="-3.53741">
        <ele>61</ele>
        <time>2019-07-17T16:13:55Z</time>
      </trkpt>
      <trkpt lat="47.84876" lon="-3.53745">
        <ele>61</ele>
        <time>2019-07-17T16:13:56Z</time>
      </trkpt>
      <trkpt lat="47.84875" lon="-3.5375">
        <ele>61</ele>
        <time>2019-07-17T16:13:57Z</time>
      </trkpt>
      <trkpt lat="47.84873" lon="-3.53755">
        <ele>61</ele>
        <time>2019-07-17T16:13:58Z</time>
      </trkpt>
      <trkpt lat="47.84872" lon="-3.53761">
        <ele>62</ele>
        <time>2019-07-17T16:13:59Z</time>
      </trkpt>
      <trkpt lat="47.8487" lon="-3.53767">
        <ele>62</ele>
        <time>2019-07-17T16:14:00Z</time>
      </trkpt>
      <trkpt lat="47.84869" lon="-3.53773">
        <ele>62</ele>
        <time>2019-07-17T16:14:01Z</time>
      </trkpt>
      <trkpt lat="47.84867" lon="-3.53779">
        <ele>62</ele>
        <time>2019-07-17T16:14:02Z</time>
      </trkpt>
      <trkpt lat="47.84865" lon="-3.53785">
        <ele>62</ele>
        <time>2019-07-17T16:14:03Z</time>
      </trkpt>
      <trkpt lat="47.84863" lon="-3.53791">
        <ele>62</ele>
        <time>2019-07-17T16:14:04Z</time>
      </trkpt>
      <trkpt lat="47.84862" lon="-3.53796">
        <ele>62</ele>
        <time>2019-07-17T16:14:05Z</time>
      </trkpt>
      <trkpt lat="47.8486" lon="-3.53802">
        <ele>62</ele>
        <time>2019-07-17T16:14:06Z</time>
      </trkpt>
      <trkpt lat="47.8486" lon="-3.53808">
        <ele>62</ele>
        <time>2019-07-17T16:14:07Z</time>
      </trkpt>
      <trkpt lat="47.84859" lon="-3.53814">
        <ele>62</ele>
        <time>2019-07-17T16:14:08Z</time>
      </trkpt>
      <trkpt lat="47.84858" lon="-3.5382">
        <ele>62</ele>
        <time>2019-07-17T16:14:09Z</time>
      </trkpt>
      <trkpt lat="47.84856" lon="-3.53827">
        <ele>62</ele>
        <time>2019-07-17T16:14:10Z</time>
      </trkpt>
      <trkpt lat="47.84853" lon="-3.53833">
        <ele>62</ele>
        <time>2019-07-17T16:14:11Z</time>
      </trkpt>
      <trkpt lat="47.84849" lon="-3.53838">
        <ele>62</ele>
        <time>2019-07-17T16:14:12Z</time>
      </trkpt>
      <trkpt lat="47.84846" lon="-3.53844">
        <ele>62</ele>
        <time>2019-07-17T16:14:13Z</time>
      </trkpt>
      <trkpt lat="47.84842" lon="-3.53848">
        <ele>62</ele>
        <time>2019-07-17T16:14:14Z</time>
      </trkpt>
      <trkpt lat="47.84839" lon="-3.53853">
        <ele>62</ele>
        <time>2019-07-17T16:14:15Z</time>
      </trkpt>
      <trkpt lat="47.84835" lon="-3.53858">
        <ele>62</ele>
        <time>2019-07-17T16:14:16Z</time>
      </trkpt>
      <trkpt lat="47.84831" lon="-3.53863">
        <ele>62</ele>
        <time>2019-07-17T16:14:17Z</time>
      </trkpt>
      <trkpt lat="47.84828" lon="-3.53869">
        <ele>62</ele>
        <time>2019-07-17T16:14:18Z</time>
      </trkpt>
      <trkpt lat="47.84825" lon="-3.53874">
        <ele>62</ele>
        <time>2019-07-17T16:14:19Z</time>
      </trkpt>
      <trkpt lat="47.84822" lon="-3.53878">
        <ele>62</ele>
        <time>2019-07-17T16:14:20Z</time>
      </trkpt>
      <trkpt lat="47.84819" lon="-3.53884">
        <ele>62</ele>
        <time>2019-07-17T16:14:21Z</time>
      </trkpt>
      <trkpt lat="47.84816" lon="-3.5389">
        <ele>62</ele>
        <time>2019-07-17T16:14:22Z</time>
      </trkpt>
      <trkpt lat="47.84813" lon="-3.53896">
        <ele>63</ele>
        <time>2019-07-17T16:14:23Z</time>
      </trkpt>
      <trkpt lat="47.8481" lon="-3.53902">
        <ele>63</ele>
        <time>2019-07-17T16:14:24Z</time>
      </trkpt>
      <trkpt lat="47.84806" lon="-3.53909">
        <ele>63</ele>
        <time>2019-07-17T16:14:25Z</time>
      </trkpt>
      <trkpt lat="47.84804" lon="-3.53916">
        <ele>63</ele>
        <time>2019-07-17T16:14:26Z</time>
      </trkpt>
      <trkpt lat="47.848" lon="-3.53924">
        <ele>64</ele>
        <time>2019-07-17T16:14:27Z</time>
      </trkpt>
      <trkpt lat="47.84798" lon="-3.53931">
        <ele>64</ele>
        <time>2019-07-17T16:14:28Z</time>
      </trkpt>
      <trkpt lat="47.84795" lon="-3.53939">
        <ele>64</ele>
        <time>2019-07-17T16:14:29Z</time>
      </trkpt>
      <trkpt lat="47.84793" lon="-3.53947">
        <ele>64</ele>
        <time>2019-07-17T16:14:30Z</time>
      </trkpt>
      <trkpt lat="47.84791" lon="-3.53954">
        <ele>64</ele>
        <time>2019-07-17T16:14:31Z</time>
      </trkpt>
      <trkpt lat="47.84788" lon="-3.53962">
        <ele>64</ele>
        <time>2019-07-17T16:14:32Z</time>
      </trkpt>
      <trkpt lat="47.84786" lon="-3.53969">
        <ele>64</ele>
        <time>2019-07-17T16:14:33Z</time>
      </trkpt>
      <trkpt lat="47.84784" lon="-3.53976">
        <ele>64</ele>
        <time>2019-07-17T16:14:34Z</time>
      </trkpt>
      <trkpt lat="47.84782" lon="-3.53984">
        <ele>64</ele>
        <time>2019-07-17T16:14:35Z</time>
      </trkpt>
      <trkpt lat="47.84779" lon="-3.53992">
        <ele>65</ele>
        <time>2019-07-17T16:14:36Z</time>
      </trkpt>
      <trkpt lat="47.84777" lon="-3.54">
        <ele>65</ele>
        <time>2019-07-17T16:14:37Z</time>
      </trkpt>
      <trkpt lat="47.84773" lon="-3.54008">
        <ele>65</ele>
        <time>2019-07-17T16:14:38Z</time>
      </trkpt>
      <trkpt lat="47.84771" lon="-3.54015">
        <ele>65</ele>
        <time>2019-07-17T16:14:39Z</time>
      </trkpt>
      <trkpt lat="47.84769" lon="-3.54022">
        <ele>65</ele>
        <time>2019-07-17T16:14:40Z</time>
      </trkpt>
      <trkpt lat="47.84766" lon="-3.54031">
        <ele>65</ele>
        <time>2019-07-17T16:14:41Z</time>
      </trkpt>
      <trkpt lat="47.84764" lon="-3.54039">
        <ele>65</ele>
        <time>2019-07-17T16:14:42Z</time>
      </trkpt>
      <trkpt lat="47.84762" lon="-3.54047">
        <ele>65</ele>
        <time>2019-07-17T16:14:43Z</time>
      </trkpt>
      <trkpt lat="47.8476" lon="-3.54056">
        <ele>65</ele>
        <time>2019-07-17T16:14:44Z</time>
      </trkpt>
      <trkpt lat="47.84758" lon="-3.54065">
        <ele>65</ele>
        <time>2019-07-17T16:14:45Z</time>
      </trkpt>
      <trkpt lat="47.84757" lon="-3.54074">
        <ele>65</ele>
        <time>2019-07-17T16:14:46Z</time>
      </trkpt>
      <trkpt lat="47.84755" lon="-3.54084">
        <ele>65</ele>
        <time>2019-07-17T16:14:47Z</time>
      </trkpt>
      <trkpt lat="47.84753" lon="-3.54094">
        <ele>65</ele>
        <time>2019-07-17T16:14:48Z</time>
      </trkpt>
      <trkpt lat="47.84751" lon="-3.54103">
        <ele>64</ele>
        <time>2019-07-17T16:14:49Z</time>
      </trkpt>
      <trkpt lat="47.84748" lon="-3.54113">
        <ele>64</ele>
        <time>2019-07-17T16:14:50Z</time>
      </trkpt>
      <trkpt lat="47.84746" lon="-3.54123">
        <ele>64</ele>
        <time>2019-07-17T16:14:51Z</time>
      </trkpt>
      <trkpt lat="47.84744" lon="-3.54132">
        <ele>64</ele>
        <time>2019-07-17T16:14:52Z</time>
      </trkpt>
      <trkpt lat="47.84741" lon="-3.54142">
        <ele>63</ele>
        <time>2019-07-17T16:14:53Z</time>
      </trkpt>
      <trkpt lat="47.84739" lon="-3.54151">
        <ele>63</ele>
        <time>2019-07-17T16:14:54Z</time>
      </trkpt>
      <trkpt lat="47.84738" lon="-3.54161">
        <ele>63</ele>
        <time>2019-07-17T16:14:55Z</time>
      </trkpt>
      <trkpt lat="47.84737" lon="-3.54171">
        <ele>63</ele>
        <time>2019-07-17T16:14:56Z</time>
      </trkpt>
      <trkpt lat="47.84735" lon="-3.54181">
        <ele>62</ele>
        <time>2019-07-17T16:14:57Z</time>
      </trkpt>
      <trkpt lat="47.84734" lon="-3.5419">
        <ele>62</ele>
        <time>2019-07-17T16:14:58Z</time>
      </trkpt>
      <trkpt lat="47.84732" lon="-3.54199">
        <ele>62</ele>
        <time>2019-07-17T16:14:59Z</time>
      </trkpt>
      <trkpt lat="47.84731" lon="-3.54208">
        <ele>62</ele>
        <time>2019-07-17T16:15:00Z</time>
      </trkpt>
      <trkpt lat="47.8473" lon="-3.54218">
        <ele>62</ele>
        <time>2019-07-17T16:15:01Z</time>
      </trkpt>
      <trkpt lat="47.84728" lon="-3.54227">
        <ele>62</ele>
        <time>2019-07-17T16:15:02Z</time>
      </trkpt>
      <trkpt lat="47.84727" lon="-3.54235">
        <ele>62</ele>
        <time>2019-07-17T16:15:03Z</time>
      </trkpt>
      <trkpt lat="47.84725" lon="-3.54244">
        <ele>62</ele>
        <time>2019-07-17T16:15:04Z</time>
      </trkpt>
      <trkpt lat="47.84722" lon="-3.54253">
        <ele>62</ele>
        <time>2019-07-17T16:15:05Z</time>
      </trkpt>
      <trkpt lat="47.84719" lon="-3.54261">
        <ele>62</ele>
        <time>2019-07-17T16:15:06Z</time>
      </trkpt>
      <trkpt lat="47.84717" lon="-3.54269">
        <ele>62</ele>
        <time>2019-07-17T16:15:07Z</time>
      </trkpt>
      <trkpt lat="47.84714" lon="-3.54278">
        <ele>62</ele>
        <time>2019-07-17T16:15:08Z</time>
      </trkpt>
      <trkpt lat="47.84711" lon="-3.54286">
        <ele>62</ele>
        <time>2019-07-17T16:15:09Z</time>
      </trkpt>
      <trkpt lat="47.84709" lon="-3.54294">
        <ele>62</ele>
        <time>2019-07-17T16:15:10Z</time>
      </trkpt>
      <trkpt lat="47.84706" lon="-3.54302">
        <ele>63</ele>
        <time>2019-07-17T16:15:11Z</time>
      </trkpt>
      <trkpt lat="47.84703" lon="-3.5431">
        <ele>63</ele>
        <time>2019-07-17T16:15:12Z</time>
      </trkpt>
      <trkpt lat="47.84701" lon="-3.54318">
        <ele>63</ele>
        <time>2019-07-17T16:15:13Z</time>
      </trkpt>
      <trkpt lat="47.84698" lon="-3.54326">
        <ele>63</ele>
        <time>2019-07-17T16:15:14Z</time>
      </trkpt>
      <trkpt lat="47.84695" lon="-3.54335">
        <ele>63</ele>
        <time>2019-07-17T16:15:15Z</time>
      </trkpt>
      <trkpt lat="47.84692" lon="-3.54343">
        <ele>63</ele>
        <time>2019-07-17T16:15:16Z</time>
      </trkpt>
      <trkpt lat="47.84689" lon="-3.54352">
        <ele>63</ele>
        <time>2019-07-17T16:15:17Z</time>
      </trkpt>
      <trkpt lat="47.84687" lon="-3.54361">
        <ele>63</ele>
        <time>2019-07-17T16:15:18Z</time>
      </trkpt>
      <trkpt lat="47.84684" lon="-3.54369">
        <ele>63</ele>
        <time>2019-07-17T16:15:19Z</time>
      </trkpt>
      <trkpt lat="47.84681" lon="-3.54377">
        <ele>63</ele>
        <time>2019-07-17T16:15:20Z</time>
      </trkpt>
      <trkpt lat="47.84679" lon="-3.54386">
        <ele>63</ele>
        <time>2019-07-17T16:15:21Z</time>
      </trkpt>
      <trkpt lat="47.84675" lon="-3.54395">
        <ele>63</ele>
        <time>2019-07-17T16:15:22Z</time>
      </trkpt>
      <trkpt lat="47.84672" lon="-3.54404">
        <ele>63</ele>
        <time>2019-07-17T16:15:23Z</time>
      </trkpt>
      <trkpt lat="47.84669" lon="-3.54413">
        <ele>63</ele>
        <time>2019-07-17T16:15:24Z</time>
      </trkpt>
      <trkpt lat="47.84666" lon="-3.54422">
        <ele>63</ele>
        <time>2019-07-17T16:15:25Z</time>
      </trkpt>
      <trkpt lat="47.84663" lon="-3.54432">
        <ele>62</ele>
        <time>2019-07-17T16:15:26Z</time>
      </trkpt>
      <trkpt lat="47.84659" lon="-3.54442">
        <ele>62</ele>
        <time>2019-07-17T16:15:27Z</time>
      </trkpt>
      <trkpt lat="47.84656" lon="-3.54453">
        <ele>62</ele>
        <time>2019-07-17T16:15:28Z</time>
      </trkpt>
      <trkpt lat="47.84653" lon="-3.54463">
        <ele>62</ele>
        <time>2019-07-17T16:15:29Z</time>
      </trkpt>
      <trkpt lat="47.84649" lon="-3.54474">
        <ele>62</ele>
        <time>2019-07-17T16:15:30Z</time>
      </trkpt>
      <trkpt lat="47.84646" lon="-3.54484">
        <ele>61</ele>
        <time>2019-07-17T16:15:31Z</time>
      </trkpt>
      <trkpt lat="47.84643" lon="-3.54495">
        <ele>61</ele>
        <time>2019-07-17T16:15:32Z</time>
      </trkpt>
      <trkpt lat="47.84641" lon="-3.54506">
        <ele>61</ele>
        <time>2019-07-17T16:15:33Z</time>
      </trkpt>
      <trkpt lat="47.84639" lon="-3.54517">
        <ele>60</ele>
        <time>2019-07-17T16:15:34Z</time>
      </trkpt>
      <trkpt lat="47.84637" lon="-3.54528">
        <ele>60</ele>
        <time>2019-07-17T16:15:35Z</time>
      </trkpt>
      <trkpt lat="47.84635" lon="-3.54538">
        <ele>59</ele>
        <time>2019-07-17T16:15:36Z</time>
      </trkpt>
      <trkpt lat="47.84634" lon="-3.54549">
        <ele>59</ele>
        <time>2019-07-17T16:15:37Z</time>
      </trkpt>
      <trkpt lat="47.84633" lon="-3.54559">
        <ele>58</ele>
        <time>2019-07-17T16:15:38Z</time>
      </trkpt>
      <trkpt lat="47.84631" lon="-3.54569">
        <ele>58</ele>
        <time>2019-07-17T16:15:39Z</time>
      </trkpt>
      <trkpt lat="47.8463" lon="-3.54579">
        <ele>57</ele>
        <time>2019-07-17T16:15:40Z</time>
      </trkpt>
      <trkpt lat="47.84629" lon="-3.54589">
        <ele>57</ele>
        <time>2019-07-17T16:15:41Z</time>
      </trkpt>
      <trkpt lat="47.84629" lon="-3.54599">
        <ele>56</ele>
        <time>2019-07-17T16:15:42Z</time>
      </trkpt>
      <trkpt lat="47.84629" lon="-3.54609">
        <ele>56</ele>
        <time>2019-07-17T16:15:43Z</time>
      </trkpt>
      <trkpt lat="47.84629" lon="-3.54619">
        <ele>55</ele>
        <time>2019-07-17T16:15:44Z</time>
      </trkpt>
      <trkpt lat="47.84629" lon="-3.54629">
        <ele>55</ele>
        <time>2019-07-17T16:15:45Z</time>
      </trkpt>
      <trkpt lat="47.84628" lon="-3.54639">
        <ele>55</ele>
        <time>2019-07-17T16:15:46Z</time>
      </trkpt>
      <trkpt lat="47.84628" lon="-3.54649">
        <ele>54</ele>
        <time>2019-07-17T16:15:47Z</time>
      </trkpt>
      <trkpt lat="47.84628" lon="-3.54658">
        <ele>54</ele>
        <time>2019-07-17T16:15:48Z</time>
      </trkpt>
      <trkpt lat="47.84627" lon="-3.54668">
        <ele>54</ele>
        <time>2019-07-17T16:15:49Z</time>
      </trkpt>
      <trkpt lat="47.84627" lon="-3.54678">
        <ele>54</ele>
        <time>2019-07-17T16:15:50Z</time>
      </trkpt>
      <trkpt lat="47.84627" lon="-3.54688">
        <ele>54</ele>
        <time>2019-07-17T16:15:51Z</time>
      </trkpt>
      <trkpt lat="47.84627" lon="-3.54697">
        <ele>53</ele>
        <time>2019-07-17T16:15:52Z</time>
      </trkpt>
      <trkpt lat="47.84626" lon="-3.54706">
        <ele>53</ele>
        <time>2019-07-17T16:15:53Z</time>
      </trkpt>
      <trkpt lat="47.84626" lon="-3.54716">
        <ele>53</ele>
        <time>2019-07-17T16:15:54Z</time>
      </trkpt>
      <trkpt lat="47.84626" lon="-3.54724">
        <ele>53</ele>
        <time>2019-07-17T16:15:55Z</time>
      </trkpt>
      <trkpt lat="47.84625" lon="-3.54733">
        <ele>53</ele>
        <time>2019-07-17T16:15:56Z</time>
      </trkpt>
      <trkpt lat="47.84624" lon="-3.54741">
        <ele>54</ele>
        <time>2019-07-17T16:15:57Z</time>
      </trkpt>
      <trkpt lat="47.84623" lon="-3.5475">
        <ele>54</ele>
        <time>2019-07-17T16:15:58Z</time>
      </trkpt>
      <trkpt lat="47.84623" lon="-3.54759">
        <ele>54</ele>
        <time>2019-07-17T16:15:59Z</time>
      </trkpt>
      <trkpt lat="47.84622" lon="-3.54767">
        <ele>54</ele>
        <time>2019-07-17T16:16:00Z</time>
      </trkpt>
      <trkpt lat="47.84621" lon="-3.54776">
        <ele>54</ele>
        <time>2019-07-17T16:16:01Z</time>
      </trkpt>
      <trkpt lat="47.8462" lon="-3.54784">
        <ele>54</ele>
        <time>2019-07-17T16:16:02Z</time>
      </trkpt>
      <trkpt lat="47.84619" lon="-3.54791">
        <ele>54</ele>
        <time>2019-07-17T16:16:03Z</time>
      </trkpt>
      <trkpt lat="47.84619" lon="-3.54798">
        <ele>54</ele>
        <time>2019-07-17T16:16:04Z</time>
      </trkpt>
      <trkpt lat="47.84618" lon="-3.54805">
        <ele>55</ele>
        <time>2019-07-17T16:16:05Z</time>
      </trkpt>
      <trkpt lat="47.84618" lon="-3.54811">
        <ele>55</ele>
        <time>2019-07-17T16:16:06Z</time>
      </trkpt>
      <trkpt lat="47.84618" lon="-3.54817">
        <ele>55</ele>
        <time>2019-07-17T16:16:07Z</time>
      </trkpt>
      <trkpt lat="47.84617" lon="-3.54823">
        <ele>55</ele>
        <time>2019-07-17T16:16:08Z</time>
      </trkpt>
      <trkpt lat="47.84615" lon="-3.54828">
        <ele>55</ele>
        <time>2019-07-17T16:16:09Z</time>
      </trkpt>
      <trkpt lat="47.84613" lon="-3.54834">
        <ele>55</ele>
        <time>2019-07-17T16:16:10Z</time>
      </trkpt>
      <trkpt lat="47.84612" lon="-3.54839">
        <ele>55</ele>
        <time>2019-07-17T16:16:11Z</time>
      </trkpt>
      <trkpt lat="47.8461" lon="-3.54844">
        <ele>55</ele>
        <time>2019-07-17T16:16:12Z</time>
      </trkpt>
      <trkpt lat="47.8461" lon="-3.54848">
        <ele>55</ele>
        <time>2019-07-17T16:16:13Z</time>
      </trkpt>
      <trkpt lat="47.84609" lon="-3.54851">
        <ele>55</ele>
        <time>2019-07-17T16:16:14Z</time>
      </trkpt>
      <trkpt lat="47.84608" lon="-3.54853">
        <ele>55</ele>
        <time>2019-07-17T16:16:15Z</time>
      </trkpt>
      <trkpt lat="47.84605" lon="-3.54854">
        <ele>55</ele>
        <time>2019-07-17T16:16:16Z</time>
      </trkpt>
      <trkpt lat="47.84603" lon="-3.54853">
        <ele>55</ele>
        <time>2019-07-17T16:16:17Z</time>
      </trkpt>
      <trkpt lat="47.846" lon="-3.54852">
        <ele>55</ele>
        <time>2019-07-17T16:16:18Z</time>
      </trkpt>
      <trkpt lat="47.84597" lon="-3.54851">
        <ele>55</ele>
        <time>2019-07-17T16:16:19Z</time>
      </trkpt>
      <trkpt lat="47.84595" lon="-3.54849">
        <ele>55</ele>
        <time>2019-07-17T16:16:20Z</time>
      </trkpt>
      <trkpt lat="47.84593" lon="-3.54846">
        <ele>55</ele>
        <time>2019-07-17T16:16:21Z</time>
      </trkpt>
      <trkpt lat="47.84591" lon="-3.54844">
        <ele>55</ele>
        <time>2019-07-17T16:16:22Z</time>
      </trkpt>
      <trkpt lat="47.84589" lon="-3.5484">
        <ele>55</ele>
        <time>2019-07-17T16:16:23Z</time>
      </trkpt>
      <trkpt lat="47.84587" lon="-3.54837">
        <ele>55</ele>
        <time>2019-07-17T16:16:24Z</time>
      </trkpt>
      <trkpt lat="47.84584" lon="-3.54836">
        <ele>55</ele>
        <time>2019-07-17T16:16:25Z</time>
      </trkpt>
      <trkpt lat="47.84581" lon="-3.54835">
        <ele>55</ele>
        <time>2019-07-17T16:16:26Z</time>
      </trkpt>
      <trkpt lat="47.84578" lon="-3.54833">
        <ele>55</ele>
        <time>2019-07-17T16:16:27Z</time>
      </trkpt>
      <trkpt lat="47.84574" lon="-3.54832">
        <ele>55</ele>
        <time>2019-07-17T16:16:28Z</time>
      </trkpt>
      <trkpt lat="47.84569" lon="-3.54831">
        <ele>56</ele>
        <time>2019-07-17T16:16:29Z</time>
      </trkpt>
      <trkpt lat="47.84564" lon="-3.5483">
        <ele>56</ele>
        <time>2019-07-17T16:16:30Z</time>
      </trkpt>
      <trkpt lat="47.84559" lon="-3.54829">
        <ele>56</ele>
        <time>2019-07-17T16:16:31Z</time>
      </trkpt>
      <trkpt lat="47.84554" lon="-3.54828">
        <ele>56</ele>
        <time>2019-07-17T16:16:32Z</time>
      </trkpt>
      <trkpt lat="47.84549" lon="-3.54827">
        <ele>56</ele>
        <time>2019-07-17T16:16:33Z</time>
      </trkpt>
      <trkpt lat="47.84544" lon="-3.54826">
        <ele>56</ele>
        <time>2019-07-17T16:16:34Z</time>
      </trkpt>
      <trkpt lat="47.84538" lon="-3.54826">
        <ele>56</ele>
        <time>2019-07-17T16:16:35Z</time>
      </trkpt>
      <trkpt lat="47.84534" lon="-3.54825">
        <ele>56</ele>
        <time>2019-07-17T16:16:36Z</time>
      </trkpt>
      <trkpt lat="47.84528" lon="-3.54825">
        <ele>57</ele>
        <time>2019-07-17T16:16:37Z</time>
      </trkpt>
      <trkpt lat="47.84523" lon="-3.54825">
        <ele>57</ele>
        <time>2019-07-17T16:16:38Z</time>
      </trkpt>
      <trkpt lat="47.84518" lon="-3.54825">
        <ele>57</ele>
        <time>2019-07-17T16:16:39Z</time>
      </trkpt>
      <trkpt lat="47.84513" lon="-3.54825">
        <ele>57</ele>
        <time>2019-07-17T16:16:40Z</time>
      </trkpt>
      <trkpt lat="47.84508" lon="-3.54824">
        <ele>57</ele>
        <time>2019-07-17T16:16:41Z</time>
      </trkpt>
      <trkpt lat="47.84502" lon="-3.54824">
        <ele>58</ele>
        <time>2019-07-17T16:16:42Z</time>
      </trkpt>
      <trkpt lat="47.84498" lon="-3.54825">
        <ele>58</ele>
        <time>2019-07-17T16:16:43Z</time>
      </trkpt>
      <trkpt lat="47.84492" lon="-3.54825">
        <ele>58</ele>
        <time>2019-07-17T16:16:44Z</time>
      </trkpt>
      <trkpt lat="47.84487" lon="-3.54826">
        <ele>58</ele>
        <time>2019-07-17T16:16:45Z</time>
      </trkpt>
      <trkpt lat="47.84482" lon="-3.54827">
        <ele>59</ele>
        <time>2019-07-17T16:16:46Z</time>
      </trkpt>
      <trkpt lat="47.84477" lon="-3.54829">
        <ele>59</ele>
        <time>2019-07-17T16:16:47Z</time>
      </trkpt>
      <trkpt lat="47.84472" lon="-3.54832">
        <ele>59</ele>
        <time>2019-07-17T16:16:48Z</time>
      </trkpt>
      <trkpt lat="47.84467" lon="-3.54837">
        <ele>60</ele>
        <time>2019-07-17T16:16:49Z</time>
      </trkpt>
      <trkpt lat="47.84463" lon="-3.54842">
        <ele>60</ele>
        <time>2019-07-17T16:16:50Z</time>
      </trkpt>
      <trkpt lat="47.84459" lon="-3.54847">
        <ele>60</ele>
        <time>2019-07-17T16:16:51Z</time>
      </trkpt>
      <trkpt lat="47.84455" lon="-3.54853">
        <ele>61</ele>
        <time>2019-07-17T16:16:52Z</time>
      </trkpt>
      <trkpt lat="47.84451" lon="-3.54858">
        <ele>61</ele>
        <time>2019-07-17T16:16:53Z</time>
      </trkpt>
      <trkpt lat="47.84446" lon="-3.54864">
        <ele>61</ele>
        <time>2019-07-17T16:16:54Z</time>
      </trkpt>
      <trkpt lat="47.84442" lon="-3.54871">
        <ele>61</ele>
        <time>2019-07-17T16:16:55Z</time>
      </trkpt>
      <trkpt lat="47.84438" lon="-3.54877">
        <ele>61</ele>
        <time>2019-07-17T16:16:56Z</time>
      </trkpt>
      <trkpt lat="47.84434" lon="-3.54884">
        <ele>61</ele>
        <time>2019-07-17T16:16:57Z</time>
      </trkpt>
      <trkpt lat="47.8443" lon="-3.5489">
        <ele>61</ele>
        <time>2019-07-17T16:16:58Z</time>
      </trkpt>
      <trkpt lat="47.84427" lon="-3.54896">
        <ele>61</ele>
        <time>2019-07-17T16:16:59Z</time>
      </trkpt>
      <trkpt lat="47.84423" lon="-3.54902">
        <ele>61</ele>
        <time>2019-07-17T16:17:00Z</time>
      </trkpt>
      <trkpt lat="47.84419" lon="-3.54908">
        <ele>62</ele>
        <time>2019-07-17T16:17:01Z</time>
      </trkpt>
      <trkpt lat="47.84415" lon="-3.54915">
        <ele>62</ele>
        <time>2019-07-17T16:17:02Z</time>
      </trkpt>
      <trkpt lat="47.8441" lon="-3.54921">
        <ele>62</ele>
        <time>2019-07-17T16:17:03Z</time>
      </trkpt>
      <trkpt lat="47.84406" lon="-3.54928">
        <ele>62</ele>
        <time>2019-07-17T16:17:04Z</time>
      </trkpt>
      <trkpt lat="47.84402" lon="-3.54934">
        <ele>62</ele>
        <time>2019-07-17T16:17:05Z</time>
      </trkpt>
      <trkpt lat="47.84398" lon="-3.5494">
        <ele>62</ele>
        <time>2019-07-17T16:17:06Z</time>
      </trkpt>
      <trkpt lat="47.84394" lon="-3.54947">
        <ele>62</ele>
        <time>2019-07-17T16:17:07Z</time>
      </trkpt>
      <trkpt lat="47.8439" lon="-3.54953">
        <ele>62</ele>
        <time>2019-07-17T16:17:08Z</time>
      </trkpt>
      <trkpt lat="47.84386" lon="-3.5496">
        <ele>62</ele>
        <time>2019-07-17T16:17:09Z</time>
      </trkpt>
      <trkpt lat="47.84383" lon="-3.54966">
        <ele>62</ele>
        <time>2019-07-17T16:17:10Z</time>
      </trkpt>
      <trkpt lat="47.84379" lon="-3.54972">
        <ele>62</ele>
        <time>2019-07-17T16:17:11Z</time>
      </trkpt>
      <trkpt lat="47.84377" lon="-3.54979">
        <ele>63</ele>
        <time>2019-07-17T16:17:12Z</time>
      </trkpt>
      <trkpt lat="47.84374" lon="-3.54986">
        <ele>63</ele>
        <time>2019-07-17T16:17:13Z</time>
      </trkpt>
      <trkpt lat="47.84371" lon="-3.54993">
        <ele>63</ele>
        <time>2019-07-17T16:17:14Z</time>
      </trkpt>
      <trkpt lat="47.8437" lon="-3.54999">
        <ele>63</ele>
        <time>2019-07-17T16:17:15Z</time>
      </trkpt>
      <trkpt lat="47.84368" lon="-3.55005">
        <ele>63</ele>
        <time>2019-07-17T16:17:16Z</time>
      </trkpt>
      <trkpt lat="47.84367" lon="-3.55012">
        <ele>63</ele>
        <time>2019-07-17T16:17:17Z</time>
      </trkpt>
      <trkpt lat="47.84364" lon="-3.5502">
        <ele>63</ele>
        <time>2019-07-17T16:17:18Z</time>
      </trkpt>
      <trkpt lat="47.84362" lon="-3.55028">
        <ele>63</ele>
        <time>2019-07-17T16:17:19Z</time>
      </trkpt>
      <trkpt lat="47.84361" lon="-3.55034">
        <ele>63</ele>
        <time>2019-07-17T16:17:20Z</time>
      </trkpt>
      <trkpt lat="47.8436" lon="-3.55041">
        <ele>63</ele>
        <time>2019-07-17T16:17:21Z</time>
      </trkpt>
      <trkpt lat="47.8436" lon="-3.55046">
        <ele>63</ele>
        <time>2019-07-17T16:17:22Z</time>
      </trkpt>
      <trkpt lat="47.84361" lon="-3.55053">
        <ele>63</ele>
        <time>2019-07-17T16:17:23Z</time>
      </trkpt>
      <trkpt lat="47.84362" lon="-3.5506">
        <ele>63</ele>
        <time>2019-07-17T16:17:24Z</time>
      </trkpt>
      <trkpt lat="47.84363" lon="-3.55067">
        <ele>63</ele>
        <time>2019-07-17T16:17:25Z</time>
      </trkpt>
      <trkpt lat="47.84366" lon="-3.55075">
        <ele>62</ele>
        <time>2019-07-17T16:17:26Z</time>
      </trkpt>
      <trkpt lat="47.84369" lon="-3.55082">
        <ele>62</ele>
        <time>2019-07-17T16:17:27Z</time>
      </trkpt>
      <trkpt lat="47.84372" lon="-3.55087">
        <ele>62</ele>
        <time>2019-07-17T16:17:28Z</time>
      </trkpt>
      <trkpt lat="47.84375" lon="-3.55091">
        <ele>62</ele>
        <time>2019-07-17T16:17:29Z</time>
      </trkpt>
      <trkpt lat="47.84377" lon="-3.55094">
        <ele>61</ele>
        <time>2019-07-17T16:17:30Z</time>
      </trkpt>
      <trkpt lat="47.84377" lon="-3.55097">
        <ele>61</ele>
        <time>2019-07-17T16:17:31Z</time>
      </trkpt>
      <trkpt lat="47.84377" lon="-3.55099">
        <ele>61</ele>
        <time>2019-07-17T16:17:32Z</time>
      </trkpt>
      <trkpt lat="47.84375" lon="-3.551">
        <ele>61</ele>
        <time>2019-07-17T16:17:33Z</time>
      </trkpt>
      <trkpt lat="47.84372" lon="-3.551">
        <ele>61</ele>
        <time>2019-07-17T16:17:34Z</time>
      </trkpt>
      <trkpt lat="47.84369" lon="-3.55101">
        <ele>62</ele>
        <time>2019-07-17T16:17:35Z</time>
      </trkpt>
      <trkpt lat="47.84364" lon="-3.55101">
        <ele>62</ele>
        <time>2019-07-17T16:17:36Z</time>
      </trkpt>
      <trkpt lat="47.84359" lon="-3.55102">
        <ele>62</ele>
        <time>2019-07-17T16:17:37Z</time>
      </trkpt>
      <trkpt lat="47.84354" lon="-3.55104">
        <ele>62</ele>
        <time>2019-07-17T16:17:38Z</time>
      </trkpt>
      <trkpt lat="47.84349" lon="-3.55108">
        <ele>62</ele>
        <time>2019-07-17T16:17:39Z</time>
      </trkpt>
      <trkpt lat="47.84344" lon="-3.55113">
        <ele>63</ele>
        <time>2019-07-17T16:17:40Z</time>
      </trkpt>
      <trkpt lat="47.84339" lon="-3.55118">
        <ele>63</ele>
        <time>2019-07-17T16:17:41Z</time>
      </trkpt>
      <trkpt lat="47.84334" lon="-3.55123">
        <ele>63</ele>
        <time>2019-07-17T16:17:42Z</time>
      </trkpt>
      <trkpt lat="47.84329" lon="-3.55127">
        <ele>63</ele>
        <time>2019-07-17T16:17:43Z</time>
      </trkpt>
      <trkpt lat="47.84324" lon="-3.55132">
        <ele>62</ele>
        <time>2019-07-17T16:17:44Z</time>
      </trkpt>
      <trkpt lat="47.84319" lon="-3.55137">
        <ele>62</ele>
        <time>2019-07-17T16:17:45Z</time>
      </trkpt>
      <trkpt lat="47.84314" lon="-3.55141">
        <ele>62</ele>
        <time>2019-07-17T16:17:46Z</time>
      </trkpt>
      <trkpt lat="47.84308" lon="-3.55145">
        <ele>62</ele>
        <time>2019-07-17T16:17:47Z</time>
      </trkpt>
      <trkpt lat="47.84303" lon="-3.5515">
        <ele>62</ele>
        <time>2019-07-17T16:17:48Z</time>
      </trkpt>
      <trkpt lat="47.84299" lon="-3.55154">
        <ele>62</ele>
        <time>2019-07-17T16:17:49Z</time>
      </trkpt>
      <trkpt lat="47.84294" lon="-3.5516">
        <ele>62</ele>
        <time>2019-07-17T16:17:50Z</time>
      </trkpt>
      <trkpt lat="47.84289" lon="-3.55164">
        <ele>62</ele>
        <time>2019-07-17T16:17:51Z</time>
      </trkpt>
      <trkpt lat="47.84284" lon="-3.55168">
        <ele>62</ele>
        <time>2019-07-17T16:17:52Z</time>
      </trkpt>
      <trkpt lat="47.84278" lon="-3.55172">
        <ele>62</ele>
        <time>2019-07-17T16:17:53Z</time>
      </trkpt>
      <trkpt lat="47.84273" lon="-3.55176">
        <ele>62</ele>
        <time>2019-07-17T16:17:54Z</time>
      </trkpt>
      <trkpt lat="47.84269" lon="-3.55179">
        <ele>61</ele>
        <time>2019-07-17T16:17:55Z</time>
      </trkpt>
      <trkpt lat="47.84265" lon="-3.55181">
        <ele>61</ele>
        <time>2019-07-17T16:17:56Z</time>
      </trkpt>
      <trkpt lat="47.84263" lon="-3.55184">
        <ele>61</ele>
        <time>2019-07-17T16:17:57Z</time>
      </trkpt>
      <trkpt lat="47.8426" lon="-3.55188">
        <ele>61</ele>
        <time>2019-07-17T16:17:58Z</time>
      </trkpt>
      <trkpt lat="47.84258" lon="-3.55193">
        <ele>61</ele>
        <time>2019-07-17T16:17:59Z</time>
      </trkpt>
      <trkpt lat="47.84254" lon="-3.55197">
        <ele>61</ele>
        <time>2019-07-17T16:18:00Z</time>
      </trkpt>
      <trkpt lat="47.8425" lon="-3.55201">
        <ele>61</ele>
        <time>2019-07-17T16:18:01Z</time>
      </trkpt>
      <trkpt lat="47.84245" lon="-3.55205">
        <ele>61</ele>
        <time>2019-07-17T16:18:02Z</time>
      </trkpt>
      <trkpt lat="47.84241" lon="-3.55209">
        <ele>61</ele>
        <time>2019-07-17T16:18:03Z</time>
      </trkpt>
      <trkpt lat="47.84237" lon="-3.55213">
        <ele>61</ele>
        <time>2019-07-17T16:18:04Z</time>
      </trkpt>
      <trkpt lat="47.84232" lon="-3.55218">
        <ele>60</ele>
        <time>2019-07-17T16:18:05Z</time>
      </trkpt>
      <trkpt lat="47.84227" lon="-3.55223">
        <ele>60</ele>
        <time>2019-07-17T16:18:06Z</time>
      </trkpt>
      <trkpt lat="47.84222" lon="-3.55228">
        <ele>60</ele>
        <time>2019-07-17T16:18:07Z</time>
      </trkpt>
      <trkpt lat="47.84217" lon="-3.55232">
        <ele>60</ele>
        <time>2019-07-17T16:18:08Z</time>
      </trkpt>
      <trkpt lat="47.84212" lon="-3.55237">
        <ele>60</ele>
        <time>2019-07-17T16:18:09Z</time>
      </trkpt>
      <trkpt lat="47.84207" lon="-3.55242">
        <ele>60</ele>
        <time>2019-07-17T16:18:10Z</time>
      </trkpt>
      <trkpt lat="47.84203" lon="-3.55248">
        <ele>60</ele>
        <time>2019-07-17T16:18:11Z</time>
      </trkpt>
      <trkpt lat="47.84198" lon="-3.55252">
        <ele>60</ele>
        <time>2019-07-17T16:18:12Z</time>
      </trkpt>
      <trkpt lat="47.84193" lon="-3.55258">
        <ele>60</ele>
        <time>2019-07-17T16:18:13Z</time>
      </trkpt>
      <trkpt lat="47.84188" lon="-3.55263">
        <ele>60</ele>
        <time>2019-07-17T16:18:14Z</time>
      </trkpt>
      <trkpt lat="47.84183" lon="-3.55268">
        <ele>60</ele>
        <time>2019-07-17T16:18:15Z</time>
      </trkpt>
      <trkpt lat="47.84178" lon="-3.55273">
        <ele>60</ele>
        <time>2019-07-17T16:18:16Z</time>
      </trkpt>
      <trkpt lat="47.84174" lon="-3.55277">
        <ele>60</ele>
        <time>2019-07-17T16:18:17Z</time>
      </trkpt>
      <trkpt lat="47.84169" lon="-3.55282">
        <ele>60</ele>
        <time>2019-07-17T16:18:18Z</time>
      </trkpt>
      <trkpt lat="47.84164" lon="-3.55287">
        <ele>60</ele>
        <time>2019-07-17T16:18:19Z</time>
      </trkpt>
      <trkpt lat="47.84159" lon="-3.55292">
        <ele>60</ele>
        <time>2019-07-17T16:18:20Z</time>
      </trkpt>
      <trkpt lat="47.84154" lon="-3.55297">
        <ele>60</ele>
        <time>2019-07-17T16:18:21Z</time>
      </trkpt>
      <trkpt lat="47.84149" lon="-3.55302">
        <ele>60</ele>
        <time>2019-07-17T16:18:22Z</time>
      </trkpt>
      <trkpt lat="47.84144" lon="-3.55307">
        <ele>60</ele>
        <time>2019-07-17T16:18:23Z</time>
      </trkpt>
      <trkpt lat="47.84138" lon="-3.55313">
        <ele>60</ele>
        <time>2019-07-17T16:18:24Z</time>
      </trkpt>
      <trkpt lat="47.84132" lon="-3.55319">
        <ele>60</ele>
        <time>2019-07-17T16:18:25Z</time>
      </trkpt>
      <trkpt lat="47.84126" lon="-3.55324">
        <ele>60</ele>
        <time>2019-07-17T16:18:26Z</time>
      </trkpt>
      <trkpt lat="47.84121" lon="-3.55329">
        <ele>60</ele>
        <time>2019-07-17T16:18:27Z</time>
      </trkpt>
      <trkpt lat="47.84115" lon="-3.55334">
        <ele>60</ele>
        <time>2019-07-17T16:18:28Z</time>
      </trkpt>
      <trkpt lat="47.84111" lon="-3.55339">
        <ele>60</ele>
        <time>2019-07-17T16:18:29Z</time>
      </trkpt>
      <trkpt lat="47.84105" lon="-3.55345">
        <ele>60</ele>
        <time>2019-07-17T16:18:30Z</time>
      </trkpt>
      <trkpt lat="47.841" lon="-3.5535">
        <ele>60</ele>
        <time>2019-07-17T16:18:31Z</time>
      </trkpt>
      <trkpt lat="47.84095" lon="-3.55355">
        <ele>60</ele>
        <time>2019-07-17T16:18:32Z</time>
      </trkpt>
      <trkpt lat="47.84089" lon="-3.5536">
        <ele>60</ele>
        <time>2019-07-17T16:18:33Z</time>
      </trkpt>
      <trkpt lat="47.84084" lon="-3.55366">
        <ele>60</ele>
        <time>2019-07-17T16:18:34Z</time>
      </trkpt>
      <trkpt lat="47.84078" lon="-3.55371">
        <ele>60</ele>
        <time>2019-07-17T16:18:35Z</time>
      </trkpt>
      <trkpt lat="47.84073" lon="-3.55376">
        <ele>60</ele>
        <time>2019-07-17T16:18:36Z</time>
      </trkpt>
      <trkpt lat="47.84069" lon="-3.55381">
        <ele>60</ele>
        <time>2019-07-17T16:18:37Z</time>
      </trkpt>
      <trkpt lat="47.84064" lon="-3.55386">
        <ele>61</ele>
        <time>2019-07-17T16:18:38Z</time>
      </trkpt>
      <trkpt lat="47.8406" lon="-3.55392">
        <ele>61</ele>
        <time>2019-07-17T16:18:39Z</time>
      </trkpt>
      <trkpt lat="47.84056" lon="-3.55397">
        <ele>61</ele>
        <time>2019-07-17T16:18:40Z</time>
      </trkpt>
      <trkpt lat="47.84051" lon="-3.55403">
        <ele>61</ele>
        <time>2019-07-17T16:18:41Z</time>
      </trkpt>
      <trkpt lat="47.84046" lon="-3.55408">
        <ele>61</ele>
        <time>2019-07-17T16:18:42Z</time>
      </trkpt>
      <trkpt lat="47.84042" lon="-3.55413">
        <ele>61</ele>
        <time>2019-07-17T16:18:43Z</time>
      </trkpt>
      <trkpt lat="47.84037" lon="-3.55417">
        <ele>61</ele>
        <time>2019-07-17T16:18:44Z</time>
      </trkpt>
      <trkpt lat="47.84032" lon="-3.55422">
        <ele>61</ele>
        <time>2019-07-17T16:18:45Z</time>
      </trkpt>
      <trkpt lat="47.84028" lon="-3.55427">
        <ele>61</ele>
        <time>2019-07-17T16:18:46Z</time>
      </trkpt>
      <trkpt lat="47.84023" lon="-3.55431">
        <ele>61</ele>
        <time>2019-07-17T16:18:47Z</time>
      </trkpt>
      <trkpt lat="47.84019" lon="-3.55435">
        <ele>61</ele>
        <time>2019-07-17T16:18:48Z</time>
      </trkpt>
      <trkpt lat="47.84015" lon="-3.55439">
        <ele>62</ele>
        <time>2019-07-17T16:18:49Z</time>
      </trkpt>
      <trkpt lat="47.8401" lon="-3.55443">
        <ele>62</ele>
        <time>2019-07-17T16:18:50Z</time>
      </trkpt>
      <trkpt lat="47.84006" lon="-3.55448">
        <ele>62</ele>
        <time>2019-07-17T16:18:51Z</time>
      </trkpt>
      <trkpt lat="47.84001" lon="-3.55452">
        <ele>62</ele>
        <time>2019-07-17T16:18:52Z</time>
      </trkpt>
      <trkpt lat="47.83997" lon="-3.55456">
        <ele>62</ele>
        <time>2019-07-17T16:18:53Z</time>
      </trkpt>
      <trkpt lat="47.83992" lon="-3.5546">
        <ele>62</ele>
        <time>2019-07-17T16:18:54Z</time>
      </trkpt>
      <trkpt lat="47.83987" lon="-3.55465">
        <ele>62</ele>
        <time>2019-07-17T16:18:55Z</time>
      </trkpt>
      <trkpt lat="47.83982" lon="-3.5547">
        <ele>62</ele>
        <time>2019-07-17T16:18:56Z</time>
      </trkpt>
      <trkpt lat="47.83977" lon="-3.55475">
        <ele>62</ele>
        <time>2019-07-17T16:18:57Z</time>
      </trkpt>
      <trkpt lat="47.83972" lon="-3.5548">
        <ele>62</ele>
        <time>2019-07-17T16:18:58Z</time>
      </trkpt>
      <trkpt lat="47.83966" lon="-3.55485">
        <ele>62</ele>
        <time>2019-07-17T16:18:59Z</time>
      </trkpt>
      <trkpt lat="47.83962" lon="-3.55491">
        <ele>63</ele>
        <time>2019-07-17T16:19:00Z</time>
      </trkpt>
      <trkpt lat="47.83956" lon="-3.55496">
        <ele>63</ele>
        <time>2019-07-17T16:19:01Z</time>
      </trkpt>
      <trkpt lat="47.83951" lon="-3.55501">
        <ele>63</ele>
        <time>2019-07-17T16:19:02Z</time>
      </trkpt>
      <trkpt lat="47.83946" lon="-3.55507">
        <ele>63</ele>
        <time>2019-07-17T16:19:03Z</time>
      </trkpt>
      <trkpt lat="47.8394" lon="-3.55512">
        <ele>63</ele>
        <time>2019-07-17T16:19:04Z</time>
      </trkpt>
      <trkpt lat="47.83934" lon="-3.55517">
        <ele>63</ele>
        <time>2019-07-17T16:19:05Z</time>
      </trkpt>
      <trkpt lat="47.83929" lon="-3.55522">
        <ele>63</ele>
        <time>2019-07-17T16:19:06Z</time>
      </trkpt>
      <trkpt lat="47.83924" lon="-3.55528">
        <ele>63</ele>
        <time>2019-07-17T16:19:07Z</time>
      </trkpt>
      <trkpt lat="47.83918" lon="-3.55533">
        <ele>63</ele>
        <time>2019-07-17T16:19:08Z</time>
      </trkpt>
      <trkpt lat="47.83913" lon="-3.55539">
        <ele>63</ele>
        <time>2019-07-17T16:19:09Z</time>
      </trkpt>
      <trkpt lat="47.83907" lon="-3.55544">
        <ele>63</ele>
        <time>2019-07-17T16:19:10Z</time>
      </trkpt>
      <trkpt lat="47.83901" lon="-3.55549">
        <ele>63</ele>
        <time>2019-07-17T16:19:11Z</time>
      </trkpt>
      <trkpt lat="47.83896" lon="-3.55555">
        <ele>63</ele>
        <time>2019-07-17T16:19:12Z</time>
      </trkpt>
      <trkpt lat="47.8389" lon="-3.5556">
        <ele>63</ele>
        <time>2019-07-17T16:19:13Z</time>
      </trkpt>
      <trkpt lat="47.83884" lon="-3.55566">
        <ele>63</ele>
        <time>2019-07-17T16:19:14Z</time>
      </trkpt>
      <trkpt lat="47.83878" lon="-3.55572">
        <ele>63</ele>
        <time>2019-07-17T16:19:15Z</time>
      </trkpt>
      <trkpt lat="47.83872" lon="-3.55578">
        <ele>63</ele>
        <time>2019-07-17T16:19:16Z</time>
      </trkpt>
      <trkpt lat="47.83866" lon="-3.55584">
        <ele>63</ele>
        <time>2019-07-17T16:19:17Z</time>
      </trkpt>
      <trkpt lat="47.8386" lon="-3.5559">
        <ele>63</ele>
        <time>2019-07-17T16:19:18Z</time>
      </trkpt>
      <trkpt lat="47.83854" lon="-3.55596">
        <ele>63</ele>
        <time>2019-07-17T16:19:19Z</time>
      </trkpt>
      <trkpt lat="47.83849" lon="-3.55601">
        <ele>63</ele>
        <time>2019-07-17T16:19:20Z</time>
      </trkpt>
      <trkpt lat="47.83844" lon="-3.55606">
        <ele>63</ele>
        <time>2019-07-17T16:19:21Z</time>
      </trkpt>
      <trkpt lat="47.83839" lon="-3.5561">
        <ele>63</ele>
        <time>2019-07-17T16:19:22Z</time>
      </trkpt>
      <trkpt lat="47.83835" lon="-3.55614">
        <ele>63</ele>
        <time>2019-07-17T16:19:23Z</time>
      </trkpt>
      <trkpt lat="47.83832" lon="-3.55618">
        <ele>63</ele>
        <time>2019-07-17T16:19:24Z</time>
      </trkpt>
      <trkpt lat="47.83828" lon="-3.55623">
        <ele>63</ele>
        <time>2019-07-17T16:19:25Z</time>
      </trkpt>
      <trkpt lat="47.83823" lon="-3.55628">
        <ele>63</ele>
        <time>2019-07-17T16:19:26Z</time>
      </trkpt>
      <trkpt lat="47.83819" lon="-3.55634">
        <ele>62</ele>
        <time>2019-07-17T16:19:27Z</time>
      </trkpt>
      <trkpt lat="47.83815" lon="-3.55638">
        <ele>62</ele>
        <time>2019-07-17T16:19:28Z</time>
      </trkpt>
      <trkpt lat="47.83812" lon="-3.55642">
        <ele>62</ele>
        <time>2019-07-17T16:19:29Z</time>
      </trkpt>
      <trkpt lat="47.83808" lon="-3.55644">
        <ele>62</ele>
        <time>2019-07-17T16:19:30Z</time>
      </trkpt>
      <trkpt lat="47.83805" lon="-3.55645">
        <ele>62</ele>
        <time>2019-07-17T16:19:31Z</time>
      </trkpt>
      <trkpt lat="47.83803" lon="-3.55646">
        <ele>61</ele>
        <time>2019-07-17T16:19:32Z</time>
      </trkpt>
      <trkpt lat="47.83801" lon="-3.55646">
        <ele>61</ele>
        <time>2019-07-17T16:19:33Z</time>
      </trkpt>
      <trkpt lat="47.83798" lon="-3.55648">
        <ele>61</ele>
        <time>2019-07-17T16:19:34Z</time>
      </trkpt>
      <trkpt lat="47.83796" lon="-3.55649">
        <ele>61</ele>
        <time>2019-07-17T16:19:35Z</time>
      </trkpt>
      <trkpt lat="47.83794" lon="-3.55652">
        <ele>61</ele>
        <time>2019-07-17T16:19:36Z</time>
      </trkpt>
      <trkpt lat="47.83792" lon="-3.55654">
        <ele>60</ele>
        <time>2019-07-17T16:19:37Z</time>
      </trkpt>
      <trkpt lat="47.8379" lon="-3.55655">
        <ele>60</ele>
        <time>2019-07-17T16:19:38Z</time>
      </trkpt>
      <trkpt lat="47.83789" lon="-3.55658">
        <ele>60</ele>
        <time>2019-07-17T16:19:39Z</time>
      </trkpt>
      <trkpt lat="47.83787" lon="-3.5566">
        <ele>60</ele>
        <time>2019-07-17T16:19:40Z</time>
      </trkpt>
      <trkpt lat="47.83784" lon="-3.55663">
        <ele>59</ele>
        <time>2019-07-17T16:19:41Z</time>
      </trkpt>
      <trkpt lat="47.83782" lon="-3.55665">
        <ele>59</ele>
        <time>2019-07-17T16:19:42Z</time>
      </trkpt>
      <trkpt lat="47.83779" lon="-3.55666">
        <ele>59</ele>
        <time>2019-07-17T16:19:43Z</time>
      </trkpt>
      <trkpt lat="47.83778" lon="-3.55666">
        <ele>59</ele>
        <time>2019-07-17T16:19:44Z</time>
      </trkpt>
      <trkpt lat="47.83777" lon="-3.55666">
        <ele>59</ele>
        <time>2019-07-17T16:19:45Z</time>
      </trkpt>
      <trkpt lat="47.83776" lon="-3.55666">
        <ele>58</ele>
        <time>2019-07-17T16:19:46Z</time>
      </trkpt>
      <trkpt lat="47.83776" lon="-3.55666">
        <ele>58</ele>
        <time>2019-07-17T16:19:47Z</time>
      </trkpt>
      <trkpt lat="47.83776" lon="-3.55666">
        <ele>58</ele>
        <time>2019-07-17T16:19:48Z</time>
      </trkpt>
      <trkpt lat="47.83754" lon="-3.55674">
        <ele>58</ele>
        <time>2019-07-17T16:19:49Z</time>
      </trkpt>
      <trkpt lat="47.83753" lon="-3.55675">
        <ele>58</ele>
        <time>2019-07-17T16:19:50Z</time>
      </trkpt>
      <trkpt lat="47.83752" lon="-3.55676">
        <ele>58</ele>
        <time>2019-07-17T16:19:51Z</time>
      </trkpt>
      <trkpt lat="47.8375" lon="-3.55677">
        <ele>58</ele>
        <time>2019-07-17T16:19:52Z</time>
      </trkpt>
      <trkpt lat="47.83748" lon="-3.55678">
        <ele>58</ele>
        <time>2019-07-17T16:19:53Z</time>
      </trkpt>
      <trkpt lat="47.83747" lon="-3.55679">
        <ele>59</ele>
        <time>2019-07-17T16:19:54Z</time>
      </trkpt>
      <trkpt lat="47.83747" lon="-3.55681">
        <ele>59</ele>
        <time>2019-07-17T16:19:55Z</time>
      </trkpt>
      <trkpt lat="47.83746" lon="-3.55682">
        <ele>59</ele>
        <time>2019-07-17T16:19:56Z</time>
      </trkpt>
      <trkpt lat="47.83745" lon="-3.55683">
        <ele>59</ele>
        <time>2019-07-17T16:19:57Z</time>
      </trkpt>
      <trkpt lat="47.83744" lon="-3.55684">
        <ele>59</ele>
        <time>2019-07-17T16:19:58Z</time>
      </trkpt>
      <trkpt lat="47.83744" lon="-3.55684">
        <ele>59</ele>
        <time>2019-07-17T16:19:59Z</time>
      </trkpt>
      <trkpt lat="47.83738" lon="-3.5569">
        <ele>60</ele>
        <time>2019-07-17T16:20:00Z</time>
      </trkpt>
      <trkpt lat="47.83737" lon="-3.55691">
        <ele>60</ele>
        <time>2019-07-17T16:20:01Z</time>
      </trkpt>
      <trkpt lat="47.83736" lon="-3.55691">
        <ele>60</ele>
        <time>2019-07-17T16:20:02Z</time>
      </trkpt>
      <trkpt lat="47.83736" lon="-3.55692">
        <ele>60</ele>
        <time>2019-07-17T16:20:03Z</time>
      </trkpt>
      <trkpt lat="47.83733" lon="-3.55701">
        <ele>59</ele>
        <time>2019-07-17T16:20:04Z</time>
      </trkpt>
      <trkpt lat="47.83733" lon="-3.55702">
        <ele>59</ele>
        <time>2019-07-17T16:20:05Z</time>
      </trkpt>
      <trkpt lat="47.83733" lon="-3.55702">
        <ele>59</ele>
        <time>2019-07-17T16:20:06Z</time>
      </trkpt>
      <trkpt lat="47.83727" lon="-3.55716">
        <ele>62</ele>
        <time>2019-07-17T16:20:07Z</time>
      </trkpt>
      <trkpt lat="47.83727" lon="-3.55716">
        <ele>62</ele>
        <time>2019-07-17T16:20:08Z</time>
      </trkpt>
      <trkpt lat="47.837" lon="-3.55741">
        <ele>67</ele>
        <time>2019-07-17T16:20:09Z</time>
      </trkpt>
      <trkpt lat="47.837" lon="-3.55742">
        <ele>67</ele>
        <time>2019-07-17T16:20:10Z</time>
      </trkpt>
      <trkpt lat="47.83698" lon="-3.55743">
        <ele>67</ele>
        <time>2019-07-17T16:20:11Z</time>
      </trkpt>
      <trkpt lat="47.83697" lon="-3.55744">
        <ele>67</ele>
        <time>2019-07-17T16:20:12Z</time>
      </trkpt>
      <trkpt lat="47.83696" lon="-3.55745">
        <ele>67</ele>
        <time>2019-07-17T16:20:13Z</time>
      </trkpt>
      <trkpt lat="47.83695" lon="-3.55746">
        <ele>67</ele>
        <time>2019-07-17T16:20:14Z</time>
      </trkpt>
      <trkpt lat="47.83694" lon="-3.55747">
        <ele>67</ele>
        <time>2019-07-17T16:20:15Z</time>
      </trkpt>
      <trkpt lat="47.83693" lon="-3.55747">
        <ele>68</ele>
        <time>2019-07-17T16:20:16Z</time>
      </trkpt>
      <trkpt lat="47.83692" lon="-3.55748">
        <ele>68</ele>
        <time>2019-07-17T16:20:17Z</time>
      </trkpt>
      <trkpt lat="47.83691" lon="-3.55748">
        <ele>68</ele>
        <time>2019-07-17T16:20:18Z</time>
      </trkpt>
      <trkpt lat="47.8369" lon="-3.55749">
        <ele>68</ele>
        <time>2019-07-17T16:20:19Z</time>
      </trkpt>
      <trkpt lat="47.83688" lon="-3.5575">
        <ele>68</ele>
        <time>2019-07-17T16:20:20Z</time>
      </trkpt>
      <trkpt lat="47.83687" lon="-3.55751">
        <ele>68</ele>
        <time>2019-07-17T16:20:21Z</time>
      </trkpt>
      <trkpt lat="47.83686" lon="-3.55753">
        <ele>69</ele>
        <time>2019-07-17T16:20:22Z</time>
      </trkpt>
      <trkpt lat="47.83684" lon="-3.55754">
        <ele>69</ele>
        <time>2019-07-17T16:20:23Z</time>
      </trkpt>
      <trkpt lat="47.83683" lon="-3.55756">
        <ele>69</ele>
        <time>2019-07-17T16:20:24Z</time>
      </trkpt>
      <trkpt lat="47.8368" lon="-3.55759">
        <ele>69</ele>
        <time>2019-07-17T16:20:25Z</time>
      </trkpt>
      <trkpt lat="47.83678" lon="-3.55761">
        <ele>69</ele>
        <time>2019-07-17T16:20:26Z</time>
      </trkpt>
      <trkpt lat="47.83677" lon="-3.55764">
        <ele>69</ele>
        <time>2019-07-17T16:20:27Z</time>
      </trkpt>
      <trkpt lat="47.83675" lon="-3.55766">
        <ele>69</ele>
        <time>2019-07-17T16:20:28Z</time>
      </trkpt>
      <trkpt lat="47.83673" lon="-3.55768">
        <ele>70</ele>
        <time>2019-07-17T16:20:29Z</time>
      </trkpt>
      <trkpt lat="47.83671" lon="-3.5577">
        <ele>70</ele>
        <time>2019-07-17T16:20:30Z</time>
      </trkpt>
      <trkpt lat="47.83669" lon="-3.55774">
        <ele>70</ele>
        <time>2019-07-17T16:20:31Z</time>
      </trkpt>
      <trkpt lat="47.83666" lon="-3.55777">
        <ele>70</ele>
        <time>2019-07-17T16:20:32Z</time>
      </trkpt>
      <trkpt lat="47.83663" lon="-3.5578">
        <ele>71</ele>
        <time>2019-07-17T16:20:33Z</time>
      </trkpt>
      <trkpt lat="47.83661" lon="-3.55783">
        <ele>71</ele>
        <time>2019-07-17T16:20:34Z</time>
      </trkpt>
      <trkpt lat="47.83659" lon="-3.55787">
        <ele>71</ele>
        <time>2019-07-17T16:20:35Z</time>
      </trkpt>
      <trkpt lat="47.83655" lon="-3.55789">
        <ele>71</ele>
        <time>2019-07-17T16:20:36Z</time>
      </trkpt>
      <trkpt lat="47.83652" lon="-3.55793">
        <ele>71</ele>
        <time>2019-07-17T16:20:37Z</time>
      </trkpt>
      <trkpt lat="47.83649" lon="-3.55796">
        <ele>72</ele>
        <time>2019-07-17T16:20:38Z</time>
      </trkpt>
      <trkpt lat="47.83646" lon="-3.558">
        <ele>72</ele>
        <time>2019-07-17T16:20:39Z</time>
      </trkpt>
      <trkpt lat="47.83643" lon="-3.55803">
        <ele>72</ele>
        <time>2019-07-17T16:20:40Z</time>
      </trkpt>
      <trkpt lat="47.83639" lon="-3.55806">
        <ele>72</ele>
        <time>2019-07-17T16:20:41Z</time>
      </trkpt>
      <trkpt lat="47.83635" lon="-3.5581">
        <ele>72</ele>
        <time>2019-07-17T16:20:42Z</time>
      </trkpt>
      <trkpt lat="47.83632" lon="-3.55813">
        <ele>72</ele>
        <time>2019-07-17T16:20:43Z</time>
      </trkpt>
      <trkpt lat="47.83629" lon="-3.55815">
        <ele>73</ele>
        <time>2019-07-17T16:20:44Z</time>
      </trkpt>
      <trkpt lat="47.83626" lon="-3.55818">
        <ele>73</ele>
        <time>2019-07-17T16:20:45Z</time>
      </trkpt>
      <trkpt lat="47.83623" lon="-3.55822">
        <ele>73</ele>
        <time>2019-07-17T16:20:46Z</time>
      </trkpt>
      <trkpt lat="47.83619" lon="-3.55825">
        <ele>73</ele>
        <time>2019-07-17T16:20:47Z</time>
      </trkpt>
      <trkpt lat="47.83616" lon="-3.55829">
        <ele>73</ele>
        <time>2019-07-17T16:20:48Z</time>
      </trkpt>
      <trkpt lat="47.83612" lon="-3.55832">
        <ele>73</ele>
        <time>2019-07-17T16:20:49Z</time>
      </trkpt>
      <trkpt lat="47.83608" lon="-3.55835">
        <ele>73</ele>
        <time>2019-07-17T16:20:50Z</time>
      </trkpt>
      <trkpt lat="47.83603" lon="-3.5584">
        <ele>73</ele>
        <time>2019-07-17T16:20:51Z</time>
      </trkpt>
      <trkpt lat="47.83598" lon="-3.55844">
        <ele>73</ele>
        <time>2019-07-17T16:20:52Z</time>
      </trkpt>
      <trkpt lat="47.83593" lon="-3.55849">
        <ele>73</ele>
        <time>2019-07-17T16:20:53Z</time>
      </trkpt>
      <trkpt lat="47.83587" lon="-3.55854">
        <ele>73</ele>
        <time>2019-07-17T16:20:54Z</time>
      </trkpt>
      <trkpt lat="47.83582" lon="-3.55859">
        <ele>73</ele>
        <time>2019-07-17T16:20:55Z</time>
      </trkpt>
      <trkpt lat="47.83576" lon="-3.55864">
        <ele>72</ele>
        <time>2019-07-17T16:20:56Z</time>
      </trkpt>
      <trkpt lat="47.83569" lon="-3.5587">
        <ele>72</ele>
        <time>2019-07-17T16:20:57Z</time>
      </trkpt>
      <trkpt lat="47.83563" lon="-3.55875">
        <ele>72</ele>
        <time>2019-07-17T16:20:58Z</time>
      </trkpt>
      <trkpt lat="47.83557" lon="-3.55881">
        <ele>72</ele>
        <time>2019-07-17T16:20:59Z</time>
      </trkpt>
      <trkpt lat="47.8355" lon="-3.55887">
        <ele>72</ele>
        <time>2019-07-17T16:21:00Z</time>
      </trkpt>
      <trkpt lat="47.83544" lon="-3.55893">
        <ele>72</ele>
        <time>2019-07-17T16:21:01Z</time>
      </trkpt>
      <trkpt lat="47.83538" lon="-3.559">
        <ele>72</ele>
        <time>2019-07-17T16:21:02Z</time>
      </trkpt>
      <trkpt lat="47.83532" lon="-3.55906">
        <ele>72</ele>
        <time>2019-07-17T16:21:03Z</time>
      </trkpt>
      <trkpt lat="47.83526" lon="-3.55912">
        <ele>71</ele>
        <time>2019-07-17T16:21:04Z</time>
      </trkpt>
      <trkpt lat="47.8352" lon="-3.55917">
        <ele>71</ele>
        <time>2019-07-17T16:21:05Z</time>
      </trkpt>
      <trkpt lat="47.83514" lon="-3.55923">
        <ele>71</ele>
        <time>2019-07-17T16:21:06Z</time>
      </trkpt>
      <trkpt lat="47.83508" lon="-3.55928">
        <ele>71</ele>
        <time>2019-07-17T16:21:07Z</time>
      </trkpt>
      <trkpt lat="47.83502" lon="-3.55935">
        <ele>71</ele>
        <time>2019-07-17T16:21:08Z</time>
      </trkpt>
      <trkpt lat="47.83496" lon="-3.55941">
        <ele>70</ele>
        <time>2019-07-17T16:21:09Z</time>
      </trkpt>
      <trkpt lat="47.8349" lon="-3.55947">
        <ele>70</ele>
        <time>2019-07-17T16:21:10Z</time>
      </trkpt>
      <trkpt lat="47.83484" lon="-3.55953">
        <ele>70</ele>
        <time>2019-07-17T16:21:11Z</time>
      </trkpt>
      <trkpt lat="47.83477" lon="-3.55959">
        <ele>70</ele>
        <time>2019-07-17T16:21:12Z</time>
      </trkpt>
      <trkpt lat="47.83471" lon="-3.55965">
        <ele>70</ele>
        <time>2019-07-17T16:21:13Z</time>
      </trkpt>
      <trkpt lat="47.83465" lon="-3.55971">
        <ele>69</ele>
        <time>2019-07-17T16:21:14Z</time>
      </trkpt>
      <trkpt lat="47.83459" lon="-3.55977">
        <ele>69</ele>
        <time>2019-07-17T16:21:15Z</time>
      </trkpt>
      <trkpt lat="47.83453" lon="-3.55983">
        <ele>69</ele>
        <time>2019-07-17T16:21:16Z</time>
      </trkpt>
      <trkpt lat="47.83446" lon="-3.55988">
        <ele>69</ele>
        <time>2019-07-17T16:21:17Z</time>
      </trkpt>
      <trkpt lat="47.8344" lon="-3.55994">
        <ele>69</ele>
        <time>2019-07-17T16:21:18Z</time>
      </trkpt>
      <trkpt lat="47.83435" lon="-3.56">
        <ele>68</ele>
        <time>2019-07-17T16:21:19Z</time>
      </trkpt>
      <trkpt lat="47.83429" lon="-3.56006">
        <ele>68</ele>
        <time>2019-07-17T16:21:20Z</time>
      </trkpt>
      <trkpt lat="47.83423" lon="-3.56012">
        <ele>68</ele>
        <time>2019-07-17T16:21:21Z</time>
      </trkpt>
      <trkpt lat="47.83418" lon="-3.56018">
        <ele>68</ele>
        <time>2019-07-17T16:21:22Z</time>
      </trkpt>
      <trkpt lat="47.83412" lon="-3.56023">
        <ele>68</ele>
        <time>2019-07-17T16:21:23Z</time>
      </trkpt>
      <trkpt lat="47.83406" lon="-3.56029">
        <ele>68</ele>
        <time>2019-07-17T16:21:24Z</time>
      </trkpt>
      <trkpt lat="47.83401" lon="-3.56034">
        <ele>68</ele>
        <time>2019-07-17T16:21:25Z</time>
      </trkpt>
      <trkpt lat="47.83395" lon="-3.56039">
        <ele>67</ele>
        <time>2019-07-17T16:21:26Z</time>
      </trkpt>
      <trkpt lat="47.8339" lon="-3.56044">
        <ele>67</ele>
        <time>2019-07-17T16:21:27Z</time>
      </trkpt>
      <trkpt lat="47.83385" lon="-3.56049">
        <ele>67</ele>
        <time>2019-07-17T16:21:28Z</time>
      </trkpt>
      <trkpt lat="47.83379" lon="-3.56054">
        <ele>67</ele>
        <time>2019-07-17T16:21:29Z</time>
      </trkpt>
      <trkpt lat="47.83373" lon="-3.5606">
        <ele>67</ele>
        <time>2019-07-17T16:21:30Z</time>
      </trkpt>
      <trkpt lat="47.83368" lon="-3.56066">
        <ele>67</ele>
        <time>2019-07-17T16:21:31Z</time>
      </trkpt>
      <trkpt lat="47.83362" lon="-3.56071">
        <ele>67</ele>
        <time>2019-07-17T16:21:32Z</time>
      </trkpt>
      <trkpt lat="47.83358" lon="-3.56076">
        <ele>67</ele>
        <time>2019-07-17T16:21:33Z</time>
      </trkpt>
      <trkpt lat="47.83353" lon="-3.56081">
        <ele>67</ele>
        <time>2019-07-17T16:21:34Z</time>
      </trkpt>
      <trkpt lat="47.83347" lon="-3.56086">
        <ele>67</ele>
        <time>2019-07-17T16:21:35Z</time>
      </trkpt>
      <trkpt lat="47.83342" lon="-3.56091">
        <ele>67</ele>
        <time>2019-07-17T16:21:36Z</time>
      </trkpt>
      <trkpt lat="47.83337" lon="-3.56096">
        <ele>68</ele>
        <time>2019-07-17T16:21:37Z</time>
      </trkpt>
      <trkpt lat="47.83332" lon="-3.561">
        <ele>68</ele>
        <time>2019-07-17T16:21:38Z</time>
      </trkpt>
      <trkpt lat="47.83327" lon="-3.56106">
        <ele>67</ele>
        <time>2019-07-17T16:21:39Z</time>
      </trkpt>
      <trkpt lat="47.83322" lon="-3.56111">
        <ele>67</ele>
        <time>2019-07-17T16:21:40Z</time>
      </trkpt>
      <trkpt lat="47.83316" lon="-3.56116">
        <ele>67</ele>
        <time>2019-07-17T16:21:41Z</time>
      </trkpt>
      <trkpt lat="47.83312" lon="-3.56121">
        <ele>67</ele>
        <time>2019-07-17T16:21:42Z</time>
      </trkpt>
      <trkpt lat="47.83307" lon="-3.56126">
        <ele>67</ele>
        <time>2019-07-17T16:21:43Z</time>
      </trkpt>
      <trkpt lat="47.83302" lon="-3.56131">
        <ele>67</ele>
        <time>2019-07-17T16:21:44Z</time>
      </trkpt>
      <trkpt lat="47.83297" lon="-3.56135">
        <ele>68</ele>
        <time>2019-07-17T16:21:45Z</time>
      </trkpt>
      <trkpt lat="47.83293" lon="-3.56138">
        <ele>68</ele>
        <time>2019-07-17T16:21:46Z</time>
      </trkpt>
      <trkpt lat="47.8329" lon="-3.56142">
        <ele>68</ele>
        <time>2019-07-17T16:21:47Z</time>
      </trkpt>
      <trkpt lat="47.83286" lon="-3.56146">
        <ele>68</ele>
        <time>2019-07-17T16:21:48Z</time>
      </trkpt>
      <trkpt lat="47.83282" lon="-3.5615">
        <ele>68</ele>
        <time>2019-07-17T16:21:49Z</time>
      </trkpt>
      <trkpt lat="47.83278" lon="-3.56155">
        <ele>68</ele>
        <time>2019-07-17T16:21:50Z</time>
      </trkpt>
      <trkpt lat="47.83274" lon="-3.56158">
        <ele>68</ele>
        <time>2019-07-17T16:21:51Z</time>
      </trkpt>
      <trkpt lat="47.83271" lon="-3.56161">
        <ele>68</ele>
        <time>2019-07-17T16:21:52Z</time>
      </trkpt>
      <trkpt lat="47.83267" lon="-3.56165">
        <ele>68</ele>
        <time>2019-07-17T16:21:53Z</time>
      </trkpt>
      <trkpt lat="47.83264" lon="-3.56169">
        <ele>68</ele>
        <time>2019-07-17T16:21:54Z</time>
      </trkpt>
      <trkpt lat="47.8326" lon="-3.56172">
        <ele>68</ele>
        <time>2019-07-17T16:21:55Z</time>
      </trkpt>
      <trkpt lat="47.83256" lon="-3.56176">
        <ele>68</ele>
        <time>2019-07-17T16:21:56Z</time>
      </trkpt>
      <trkpt lat="47.83253" lon="-3.56179">
        <ele>68</ele>
        <time>2019-07-17T16:21:57Z</time>
      </trkpt>
      <trkpt lat="47.8325" lon="-3.56182">
        <ele>69</ele>
        <time>2019-07-17T16:21:58Z</time>
      </trkpt>
      <trkpt lat="47.83246" lon="-3.56185">
        <ele>69</ele>
        <time>2019-07-17T16:21:59Z</time>
      </trkpt>
      <trkpt lat="47.83243" lon="-3.56189">
        <ele>69</ele>
        <time>2019-07-17T16:22:00Z</time>
      </trkpt>
      <trkpt lat="47.83239" lon="-3.56192">
        <ele>69</ele>
        <time>2019-07-17T16:22:01Z</time>
      </trkpt>
      <trkpt lat="47.83236" lon="-3.56195">
        <ele>69</ele>
        <time>2019-07-17T16:22:02Z</time>
      </trkpt>
      <trkpt lat="47.83232" lon="-3.56199">
        <ele>69</ele>
        <time>2019-07-17T16:22:03Z</time>
      </trkpt>
      <trkpt lat="47.83229" lon="-3.56202">
        <ele>69</ele>
        <time>2019-07-17T16:22:04Z</time>
      </trkpt>
      <trkpt lat="47.83225" lon="-3.56205">
        <ele>69</ele>
        <time>2019-07-17T16:22:05Z</time>
      </trkpt>
      <trkpt lat="47.83222" lon="-3.56208">
        <ele>69</ele>
        <time>2019-07-17T16:22:06Z</time>
      </trkpt>
      <trkpt lat="47.83219" lon="-3.56212">
        <ele>70</ele>
        <time>2019-07-17T16:22:07Z</time>
      </trkpt>
      <trkpt lat="47.83215" lon="-3.56215">
        <ele>70</ele>
        <time>2019-07-17T16:22:08Z</time>
      </trkpt>
      <trkpt lat="47.83212" lon="-3.56218">
        <ele>70</ele>
        <time>2019-07-17T16:22:09Z</time>
      </trkpt>
      <trkpt lat="47.83209" lon="-3.56221">
        <ele>70</ele>
        <time>2019-07-17T16:22:10Z</time>
      </trkpt>
      <trkpt lat="47.83207" lon="-3.56224">
        <ele>70</ele>
        <time>2019-07-17T16:22:11Z</time>
      </trkpt>
      <trkpt lat="47.83204" lon="-3.56227">
        <ele>70</ele>
        <time>2019-07-17T16:22:12Z</time>
      </trkpt>
      <trkpt lat="47.83201" lon="-3.5623">
        <ele>70</ele>
        <time>2019-07-17T16:22:13Z</time>
      </trkpt>
      <trkpt lat="47.83198" lon="-3.56233">
        <ele>70</ele>
        <time>2019-07-17T16:22:14Z</time>
      </trkpt>
      <trkpt lat="47.83194" lon="-3.56236">
        <ele>70</ele>
        <time>2019-07-17T16:22:15Z</time>
      </trkpt>
      <trkpt lat="47.83191" lon="-3.56239">
        <ele>70</ele>
        <time>2019-07-17T16:22:16Z</time>
      </trkpt>
      <trkpt lat="47.83186" lon="-3.56243">
        <ele>70</ele>
        <time>2019-07-17T16:22:17Z</time>
      </trkpt>
      <trkpt lat="47.83182" lon="-3.56247">
        <ele>70</ele>
        <time>2019-07-17T16:22:18Z</time>
      </trkpt>
      <trkpt lat="47.83178" lon="-3.56252">
        <ele>70</ele>
        <time>2019-07-17T16:22:19Z</time>
      </trkpt>
      <trkpt lat="47.83173" lon="-3.56256">
        <ele>70</ele>
        <time>2019-07-17T16:22:20Z</time>
      </trkpt>
      <trkpt lat="47.83169" lon="-3.5626">
        <ele>70</ele>
        <time>2019-07-17T16:22:21Z</time>
      </trkpt>
      <trkpt lat="47.83165" lon="-3.56263">
        <ele>71</ele>
        <time>2019-07-17T16:22:22Z</time>
      </trkpt>
      <trkpt lat="47.83161" lon="-3.56267">
        <ele>71</ele>
        <time>2019-07-17T16:22:23Z</time>
      </trkpt>
      <trkpt lat="47.83157" lon="-3.5627">
        <ele>71</ele>
        <time>2019-07-17T16:22:24Z</time>
      </trkpt>
      <trkpt lat="47.83153" lon="-3.56274">
        <ele>71</ele>
        <time>2019-07-17T16:22:25Z</time>
      </trkpt>
      <trkpt lat="47.83149" lon="-3.56278">
        <ele>71</ele>
        <time>2019-07-17T16:22:26Z</time>
      </trkpt>
      <trkpt lat="47.83146" lon="-3.56282">
        <ele>71</ele>
        <time>2019-07-17T16:22:27Z</time>
      </trkpt>
      <trkpt lat="47.83142" lon="-3.56286">
        <ele>71</ele>
        <time>2019-07-17T16:22:28Z</time>
      </trkpt>
      <trkpt lat="47.83137" lon="-3.5629">
        <ele>71</ele>
        <time>2019-07-17T16:22:29Z</time>
      </trkpt>
      <trkpt lat="47.83132" lon="-3.56294">
        <ele>71</ele>
        <time>2019-07-17T16:22:30Z</time>
      </trkpt>
      <trkpt lat="47.83127" lon="-3.56299">
        <ele>71</ele>
        <time>2019-07-17T16:22:31Z</time>
      </trkpt>
      <trkpt lat="47.83123" lon="-3.56304">
        <ele>71</ele>
        <time>2019-07-17T16:22:32Z</time>
      </trkpt>
      <trkpt lat="47.83118" lon="-3.56309">
        <ele>71</ele>
        <time>2019-07-17T16:22:33Z</time>
      </trkpt>
      <trkpt lat="47.83113" lon="-3.56313">
        <ele>71</ele>
        <time>2019-07-17T16:22:34Z</time>
      </trkpt>
      <trkpt lat="47.83108" lon="-3.56318">
        <ele>71</ele>
        <time>2019-07-17T16:22:35Z</time>
      </trkpt>
      <trkpt lat="47.83103" lon="-3.56323">
        <ele>71</ele>
        <time>2019-07-17T16:22:36Z</time>
      </trkpt>
      <trkpt lat="47.83098" lon="-3.56328">
        <ele>71</ele>
        <time>2019-07-17T16:22:37Z</time>
      </trkpt>
      <trkpt lat="47.83093" lon="-3.56332">
        <ele>71</ele>
        <time>2019-07-17T16:22:38Z</time>
      </trkpt>
      <trkpt lat="47.83087" lon="-3.56337">
        <ele>71</ele>
        <time>2019-07-17T16:22:39Z</time>
      </trkpt>
      <trkpt lat="47.83082" lon="-3.56343">
        <ele>71</ele>
        <time>2019-07-17T16:22:40Z</time>
      </trkpt>
      <trkpt lat="47.83077" lon="-3.56348">
        <ele>71</ele>
        <time>2019-07-17T16:22:41Z</time>
      </trkpt>
      <trkpt lat="47.83072" lon="-3.56353">
        <ele>71</ele>
        <time>2019-07-17T16:22:42Z</time>
      </trkpt>
      <trkpt lat="47.83067" lon="-3.56359">
        <ele>71</ele>
        <time>2019-07-17T16:22:43Z</time>
      </trkpt>
      <trkpt lat="47.83061" lon="-3.56364">
        <ele>71</ele>
        <time>2019-07-17T16:22:44Z</time>
      </trkpt>
      <trkpt lat="47.83056" lon="-3.56369">
        <ele>71</ele>
        <time>2019-07-17T16:22:45Z</time>
      </trkpt>
      <trkpt lat="47.8305" lon="-3.56375">
        <ele>71</ele>
        <time>2019-07-17T16:22:46Z</time>
      </trkpt>
      <trkpt lat="47.83045" lon="-3.5638">
        <ele>71</ele>
        <time>2019-07-17T16:22:47Z</time>
      </trkpt>
      <trkpt lat="47.8304" lon="-3.56385">
        <ele>71</ele>
        <time>2019-07-17T16:22:48Z</time>
      </trkpt>
      <trkpt lat="47.83035" lon="-3.56391">
        <ele>71</ele>
        <time>2019-07-17T16:22:49Z</time>
      </trkpt>
      <trkpt lat="47.8303" lon="-3.56396">
        <ele>71</ele>
        <time>2019-07-17T16:22:50Z</time>
      </trkpt>
      <trkpt lat="47.83025" lon="-3.56401">
        <ele>71</ele>
        <time>2019-07-17T16:22:51Z</time>
      </trkpt>
      <trkpt lat="47.8302" lon="-3.56406">
        <ele>71</ele>
        <time>2019-07-17T16:22:52Z</time>
      </trkpt>
      <trkpt lat="47.83015" lon="-3.5641">
        <ele>70</ele>
        <time>2019-07-17T16:22:53Z</time>
      </trkpt>
      <trkpt lat="47.8301" lon="-3.56415">
        <ele>70</ele>
        <time>2019-07-17T16:22:54Z</time>
      </trkpt>
      <trkpt lat="47.83006" lon="-3.5642">
        <ele>70</ele>
        <time>2019-07-17T16:22:55Z</time>
      </trkpt>
      <trkpt lat="47.83001" lon="-3.56424">
        <ele>70</ele>
        <time>2019-07-17T16:22:56Z</time>
      </trkpt>
      <trkpt lat="47.82997" lon="-3.56427">
        <ele>70</ele>
        <time>2019-07-17T16:22:57Z</time>
      </trkpt>
      <trkpt lat="47.82993" lon="-3.56432">
        <ele>70</ele>
        <time>2019-07-17T16:22:58Z</time>
      </trkpt>
      <trkpt lat="47.82988" lon="-3.56436">
        <ele>70</ele>
        <time>2019-07-17T16:22:59Z</time>
      </trkpt>
      <trkpt lat="47.82984" lon="-3.56441">
        <ele>70</ele>
        <time>2019-07-17T16:23:00Z</time>
      </trkpt>
      <trkpt lat="47.8298" lon="-3.56445">
        <ele>69</ele>
        <time>2019-07-17T16:23:01Z</time>
      </trkpt>
      <trkpt lat="47.82975" lon="-3.56449">
        <ele>69</ele>
        <time>2019-07-17T16:23:02Z</time>
      </trkpt>
      <trkpt lat="47.82971" lon="-3.56453">
        <ele>69</ele>
        <time>2019-07-17T16:23:03Z</time>
      </trkpt>
      <trkpt lat="47.82965" lon="-3.56458">
        <ele>69</ele>
        <time>2019-07-17T16:23:04Z</time>
      </trkpt>
      <trkpt lat="47.8296" lon="-3.56462">
        <ele>69</ele>
        <time>2019-07-17T16:23:05Z</time>
      </trkpt>
      <trkpt lat="47.82955" lon="-3.56465">
        <ele>69</ele>
        <time>2019-07-17T16:23:06Z</time>
      </trkpt>
      <trkpt lat="47.82951" lon="-3.56468">
        <ele>69</ele>
        <time>2019-07-17T16:23:07Z</time>
      </trkpt>
      <trkpt lat="47.82946" lon="-3.56472">
        <ele>69</ele>
        <time>2019-07-17T16:23:08Z</time>
      </trkpt>
      <trkpt lat="47.82942" lon="-3.56476">
        <ele>69</ele>
        <time>2019-07-17T16:23:09Z</time>
      </trkpt>
      <trkpt lat="47.82938" lon="-3.5648">
        <ele>69</ele>
        <time>2019-07-17T16:23:10Z</time>
      </trkpt>
      <trkpt lat="47.82935" lon="-3.56483">
        <ele>69</ele>
        <time>2019-07-17T16:23:11Z</time>
      </trkpt>
      <trkpt lat="47.8293" lon="-3.56488">
        <ele>69</ele>
        <time>2019-07-17T16:23:12Z</time>
      </trkpt>
      <trkpt lat="47.82925" lon="-3.56493">
        <ele>69</ele>
        <time>2019-07-17T16:23:13Z</time>
      </trkpt>
      <trkpt lat="47.8292" lon="-3.56497">
        <ele>69</ele>
        <time>2019-07-17T16:23:14Z</time>
      </trkpt>
      <trkpt lat="47.82916" lon="-3.56503">
        <ele>69</ele>
        <time>2019-07-17T16:23:15Z</time>
      </trkpt>
      <trkpt lat="47.82911" lon="-3.56506">
        <ele>69</ele>
        <time>2019-07-17T16:23:16Z</time>
      </trkpt>
      <trkpt lat="47.82906" lon="-3.56511">
        <ele>69</ele>
        <time>2019-07-17T16:23:17Z</time>
      </trkpt>
      <trkpt lat="47.82901" lon="-3.56516">
        <ele>69</ele>
        <time>2019-07-17T16:23:18Z</time>
      </trkpt>
      <trkpt lat="47.82896" lon="-3.56522">
        <ele>69</ele>
        <time>2019-07-17T16:23:19Z</time>
      </trkpt>
      <trkpt lat="47.8289" lon="-3.56528">
        <ele>69</ele>
        <time>2019-07-17T16:23:20Z</time>
      </trkpt>
      <trkpt lat="47.82885" lon="-3.56534">
        <ele>70</ele>
        <time>2019-07-17T16:23:21Z</time>
      </trkpt>
      <trkpt lat="47.82879" lon="-3.5654">
        <ele>70</ele>
        <time>2019-07-17T16:23:22Z</time>
      </trkpt>
      <trkpt lat="47.82874" lon="-3.56545">
        <ele>70</ele>
        <time>2019-07-17T16:23:23Z</time>
      </trkpt>
      <trkpt lat="47.82868" lon="-3.56551">
        <ele>70</ele>
        <time>2019-07-17T16:23:24Z</time>
      </trkpt>
      <trkpt lat="47.82863" lon="-3.56556">
        <ele>70</ele>
        <time>2019-07-17T16:23:25Z</time>
      </trkpt>
      <trkpt lat="47.82857" lon="-3.56562">
        <ele>70</ele>
        <time>2019-07-17T16:23:26Z</time>
      </trkpt>
      <trkpt lat="47.82852" lon="-3.56567">
        <ele>70</ele>
        <time>2019-07-17T16:23:27Z</time>
      </trkpt>
      <trkpt lat="47.82847" lon="-3.5657">
        <ele>69</ele>
        <time>2019-07-17T16:23:28Z</time>
      </trkpt>
      <trkpt lat="47.82843" lon="-3.56572">
        <ele>69</ele>
        <time>2019-07-17T16:23:29Z</time>
      </trkpt>
      <trkpt lat="47.82839" lon="-3.56571">
        <ele>69</ele>
        <time>2019-07-17T16:23:30Z</time>
      </trkpt>
      <trkpt lat="47.82836" lon="-3.56569">
        <ele>69</ele>
        <time>2019-07-17T16:23:31Z</time>
      </trkpt>
      <trkpt lat="47.82833" lon="-3.56565">
        <ele>68</ele>
        <time>2019-07-17T16:23:32Z</time>
      </trkpt>
      <trkpt lat="47.8283" lon="-3.56562">
        <ele>68</ele>
        <time>2019-07-17T16:23:33Z</time>
      </trkpt>
      <trkpt lat="47.82826" lon="-3.56558">
        <ele>68</ele>
        <time>2019-07-17T16:23:34Z</time>
      </trkpt>
      <trkpt lat="47.82822" lon="-3.56555">
        <ele>67</ele>
        <time>2019-07-17T16:23:35Z</time>
      </trkpt>
      <trkpt lat="47.82818" lon="-3.56554">
        <ele>67</ele>
        <time>2019-07-17T16:23:36Z</time>
      </trkpt>
      <trkpt lat="47.82813" lon="-3.56555">
        <ele>66</ele>
        <time>2019-07-17T16:23:37Z</time>
      </trkpt>
      <trkpt lat="47.8281" lon="-3.56555">
        <ele>66</ele>
        <time>2019-07-17T16:23:38Z</time>
      </trkpt>
      <trkpt lat="47.82805" lon="-3.56555">
        <ele>66</ele>
        <time>2019-07-17T16:23:39Z</time>
      </trkpt>
      <trkpt lat="47.82801" lon="-3.56556">
        <ele>66</ele>
        <time>2019-07-17T16:23:40Z</time>
      </trkpt>
      <trkpt lat="47.82795" lon="-3.56556">
        <ele>66</ele>
        <time>2019-07-17T16:23:41Z</time>
      </trkpt>
      <trkpt lat="47.8279" lon="-3.56556">
        <ele>65</ele>
        <time>2019-07-17T16:23:42Z</time>
      </trkpt>
      <trkpt lat="47.82784" lon="-3.56555">
        <ele>65</ele>
        <time>2019-07-17T16:23:43Z</time>
      </trkpt>
      <trkpt lat="47.82778" lon="-3.56555">
        <ele>65</ele>
        <time>2019-07-17T16:23:44Z</time>
      </trkpt>
      <trkpt lat="47.82772" lon="-3.56554">
        <ele>65</ele>
        <time>2019-07-17T16:23:45Z</time>
      </trkpt>
      <trkpt lat="47.82766" lon="-3.56552">
        <ele>64</ele>
        <time>2019-07-17T16:23:46Z</time>
      </trkpt>
      <trkpt lat="47.82761" lon="-3.56549">
        <ele>64</ele>
        <time>2019-07-17T16:23:47Z</time>
      </trkpt>
      <trkpt lat="47.82757" lon="-3.56543">
        <ele>64</ele>
        <time>2019-07-17T16:23:48Z</time>
      </trkpt>
      <trkpt lat="47.82753" lon="-3.56537">
        <ele>63</ele>
        <time>2019-07-17T16:23:49Z</time>
      </trkpt>
      <trkpt lat="47.82751" lon="-3.5653">
        <ele>63</ele>
        <time>2019-07-17T16:23:50Z</time>
      </trkpt>
      <trkpt lat="47.8275" lon="-3.56523">
        <ele>62</ele>
        <time>2019-07-17T16:23:51Z</time>
      </trkpt>
      <trkpt lat="47.82748" lon="-3.56516">
        <ele>62</ele>
        <time>2019-07-17T16:23:52Z</time>
      </trkpt>
      <trkpt lat="47.82746" lon="-3.5651">
        <ele>62</ele>
        <time>2019-07-17T16:23:53Z</time>
      </trkpt>
      <trkpt lat="47.82744" lon="-3.56503">
        <ele>62</ele>
        <time>2019-07-17T16:23:54Z</time>
      </trkpt>
      <trkpt lat="47.82741" lon="-3.56497">
        <ele>61</ele>
        <time>2019-07-17T16:23:55Z</time>
      </trkpt>
      <trkpt lat="47.82737" lon="-3.5649">
        <ele>61</ele>
        <time>2019-07-17T16:23:56Z</time>
      </trkpt>
      <trkpt lat="47.82735" lon="-3.56484">
        <ele>61</ele>
        <time>2019-07-17T16:23:57Z</time>
      </trkpt>
      <trkpt lat="47.82731" lon="-3.56479">
        <ele>61</ele>
        <time>2019-07-17T16:23:58Z</time>
      </trkpt>
      <trkpt lat="47.82729" lon="-3.56472">
        <ele>61</ele>
        <time>2019-07-17T16:23:59Z</time>
      </trkpt>
      <trkpt lat="47.82727" lon="-3.56465">
        <ele>61</ele>
        <time>2019-07-17T16:24:00Z</time>
      </trkpt>
      <trkpt lat="47.82726" lon="-3.56458">
        <ele>60</ele>
        <time>2019-07-17T16:24:01Z</time>
      </trkpt>
      <trkpt lat="47.82726" lon="-3.56451">
        <ele>60</ele>
        <time>2019-07-17T16:24:02Z</time>
      </trkpt>
      <trkpt lat="47.82726" lon="-3.56443">
        <ele>60</ele>
        <time>2019-07-17T16:24:03Z</time>
      </trkpt>
      <trkpt lat="47.82725" lon="-3.56435">
        <ele>60</ele>
        <time>2019-07-17T16:24:04Z</time>
      </trkpt>
      <trkpt lat="47.82726" lon="-3.56428">
        <ele>60</ele>
        <time>2019-07-17T16:24:05Z</time>
      </trkpt>
      <trkpt lat="47.82726" lon="-3.56423">
        <ele>60</ele>
        <time>2019-07-17T16:24:06Z</time>
      </trkpt>
      <trkpt lat="47.82728" lon="-3.56419">
        <ele>60</ele>
        <time>2019-07-17T16:24:07Z</time>
      </trkpt>
      <trkpt lat="47.82729" lon="-3.56416">
        <ele>60</ele>
        <time>2019-07-17T16:24:08Z</time>
      </trkpt>
      <trkpt lat="47.82732" lon="-3.56414">
        <ele>59</ele>
        <time>2019-07-17T16:24:09Z</time>
      </trkpt>
      <trkpt lat="47.82734" lon="-3.5641">
        <ele>59</ele>
        <time>2019-07-17T16:24:10Z</time>
      </trkpt>
      <trkpt lat="47.82735" lon="-3.56407">
        <ele>59</ele>
        <time>2019-07-17T16:24:11Z</time>
      </trkpt>
      <trkpt lat="47.82736" lon="-3.56402">
        <ele>59</ele>
        <time>2019-07-17T16:24:12Z</time>
      </trkpt>
      <trkpt lat="47.82736" lon="-3.56395">
        <ele>59</ele>
        <time>2019-07-17T16:24:13Z</time>
      </trkpt>
      <trkpt lat="47.82736" lon="-3.56388">
        <ele>59</ele>
        <time>2019-07-17T16:24:14Z</time>
      </trkpt>
      <trkpt lat="47.82736" lon="-3.56382">
        <ele>59</ele>
        <time>2019-07-17T16:24:15Z</time>
      </trkpt>
      <trkpt lat="47.82736" lon="-3.56377">
        <ele>59</ele>
        <time>2019-07-17T16:24:16Z</time>
      </trkpt>
      <trkpt lat="47.82734" lon="-3.56372">
        <ele>59</ele>
        <time>2019-07-17T16:24:17Z</time>
      </trkpt>
      <trkpt lat="47.82732" lon="-3.56368">
        <ele>59</ele>
        <time>2019-07-17T16:24:18Z</time>
      </trkpt>
      <trkpt lat="47.82729" lon="-3.56364">
        <ele>59</ele>
        <time>2019-07-17T16:24:19Z</time>
      </trkpt>
      <trkpt lat="47.82725" lon="-3.56362">
        <ele>59</ele>
        <time>2019-07-17T16:24:20Z</time>
      </trkpt>
      <trkpt lat="47.8272" lon="-3.56362">
        <ele>59</ele>
        <time>2019-07-17T16:24:21Z</time>
      </trkpt>
      <trkpt lat="47.82717" lon="-3.56362">
        <ele>59</ele>
        <time>2019-07-17T16:24:22Z</time>
      </trkpt>
      <trkpt lat="47.82715" lon="-3.56362">
        <ele>59</ele>
        <time>2019-07-17T16:24:23Z</time>
      </trkpt>
      <trkpt lat="47.82713" lon="-3.56362">
        <ele>59</ele>
        <time>2019-07-17T16:24:24Z</time>
      </trkpt>
      <trkpt lat="47.82712" lon="-3.56362">
        <ele>59</ele>
        <time>2019-07-17T16:24:25Z</time>
      </trkpt>
      <trkpt lat="47.82711" lon="-3.5636">
        <ele>59</ele>
        <time>2019-07-17T16:24:26Z</time>
      </trkpt>
      <trkpt lat="47.8271" lon="-3.56359">
        <ele>59</ele>
        <time>2019-07-17T16:24:27Z</time>
      </trkpt>
      <trkpt lat="47.82707" lon="-3.56358">
        <ele>59</ele>
        <time>2019-07-17T16:24:28Z</time>
      </trkpt>
      <trkpt lat="47.82705" lon="-3.56356">
        <ele>59</ele>
        <time>2019-07-17T16:24:29Z</time>
      </trkpt>
      <trkpt lat="47.82703" lon="-3.56355">
        <ele>59</ele>
        <time>2019-07-17T16:24:30Z</time>
      </trkpt>
      <trkpt lat="47.827" lon="-3.56353">
        <ele>59</ele>
        <time>2019-07-17T16:24:31Z</time>
      </trkpt>
      <trkpt lat="47.82699" lon="-3.56351">
        <ele>59</ele>
        <time>2019-07-17T16:24:32Z</time>
      </trkpt>
      <trkpt lat="47.82697" lon="-3.56348">
        <ele>59</ele>
        <time>2019-07-17T16:24:33Z</time>
      </trkpt>
      <trkpt lat="47.82695" lon="-3.56344">
        <ele>59</ele>
        <time>2019-07-17T16:24:34Z</time>
      </trkpt>
      <trkpt lat="47.82693" lon="-3.56339">
        <ele>59</ele>
        <time>2019-07-17T16:24:35Z</time>
      </trkpt>
      <trkpt lat="47.82691" lon="-3.56334">
        <ele>59</ele>
        <time>2019-07-17T16:24:36Z</time>
      </trkpt>
      <trkpt lat="47.82689" lon="-3.56327">
        <ele>59</ele>
        <time>2019-07-17T16:24:37Z</time>
      </trkpt>
      <trkpt lat="47.82687" lon="-3.56322">
        <ele>59</ele>
        <time>2019-07-17T16:24:38Z</time>
      </trkpt>
      <trkpt lat="47.82686" lon="-3.56316">
        <ele>58</ele>
        <time>2019-07-17T16:24:39Z</time>
      </trkpt>
      <trkpt lat="47.82686" lon="-3.56311">
        <ele>58</ele>
        <time>2019-07-17T16:24:40Z</time>
      </trkpt>
      <trkpt lat="47.82686" lon="-3.56307">
        <ele>58</ele>
        <time>2019-07-17T16:24:41Z</time>
      </trkpt>
      <trkpt lat="47.82686" lon="-3.56302">
        <ele>58</ele>
        <time>2019-07-17T16:24:42Z</time>
      </trkpt>
      <trkpt lat="47.82685" lon="-3.56297">
        <ele>58</ele>
        <time>2019-07-17T16:24:43Z</time>
      </trkpt>
      <trkpt lat="47.82686" lon="-3.56293">
        <ele>58</ele>
        <time>2019-07-17T16:24:44Z</time>
      </trkpt>
      <trkpt lat="47.82686" lon="-3.56289">
        <ele>58</ele>
        <time>2019-07-17T16:24:45Z</time>
      </trkpt>
      <trkpt lat="47.82687" lon="-3.56284">
        <ele>58</ele>
        <time>2019-07-17T16:24:46Z</time>
      </trkpt>
      <trkpt lat="47.82687" lon="-3.56279">
        <ele>58</ele>
        <time>2019-07-17T16:24:47Z</time>
      </trkpt>
      <trkpt lat="47.82688" lon="-3.56275">
        <ele>58</ele>
        <time>2019-07-17T16:24:48Z</time>
      </trkpt>
      <trkpt lat="47.82688" lon="-3.5627">
        <ele>58</ele>
        <time>2019-07-17T16:24:49Z</time>
      </trkpt>
      <trkpt lat="47.82688" lon="-3.56263">
        <ele>58</ele>
        <time>2019-07-17T16:24:50Z</time>
      </trkpt>
      <trkpt lat="47.82687" lon="-3.56256">
        <ele>58</ele>
        <time>2019-07-17T16:24:51Z</time>
      </trkpt>
      <trkpt lat="47.82686" lon="-3.56249">
        <ele>58</ele>
        <time>2019-07-17T16:24:52Z</time>
      </trkpt>
      <trkpt lat="47.82684" lon="-3.56241">
        <ele>58</ele>
        <time>2019-07-17T16:24:53Z</time>
      </trkpt>
      <trkpt lat="47.82682" lon="-3.56235">
        <ele>58</ele>
        <time>2019-07-17T16:24:54Z</time>
      </trkpt>
      <trkpt lat="47.82679" lon="-3.5623">
        <ele>58</ele>
        <time>2019-07-17T16:24:55Z</time>
      </trkpt>
      <trkpt lat="47.82675" lon="-3.56225">
        <ele>58</ele>
        <time>2019-07-17T16:24:56Z</time>
      </trkpt>
      <trkpt lat="47.8267" lon="-3.5622">
        <ele>58</ele>
        <time>2019-07-17T16:24:57Z</time>
      </trkpt>
      <trkpt lat="47.82666" lon="-3.56217">
        <ele>58</ele>
        <time>2019-07-17T16:24:58Z</time>
      </trkpt>
      <trkpt lat="47.82662" lon="-3.56217">
        <ele>58</ele>
        <time>2019-07-17T16:24:59Z</time>
      </trkpt>
      <trkpt lat="47.82658" lon="-3.56217">
        <ele>58</ele>
        <time>2019-07-17T16:25:00Z</time>
      </trkpt>
      <trkpt lat="47.82655" lon="-3.56219">
        <ele>58</ele>
        <time>2019-07-17T16:25:01Z</time>
      </trkpt>
      <trkpt lat="47.8265" lon="-3.56222">
        <ele>58</ele>
        <time>2019-07-17T16:25:02Z</time>
      </trkpt>
      <trkpt lat="47.82646" lon="-3.56224">
        <ele>58</ele>
        <time>2019-07-17T16:25:03Z</time>
      </trkpt>
      <trkpt lat="47.82641" lon="-3.56227">
        <ele>59</ele>
        <time>2019-07-17T16:25:04Z</time>
      </trkpt>
      <trkpt lat="47.82638" lon="-3.5623">
        <ele>59</ele>
        <time>2019-07-17T16:25:05Z</time>
      </trkpt>
      <trkpt lat="47.82635" lon="-3.56233">
        <ele>59</ele>
        <time>2019-07-17T16:25:06Z</time>
      </trkpt>
      <trkpt lat="47.82631" lon="-3.56236">
        <ele>59</ele>
        <time>2019-07-17T16:25:07Z</time>
      </trkpt>
      <trkpt lat="47.82628" lon="-3.56239">
        <ele>60</ele>
        <time>2019-07-17T16:25:08Z</time>
      </trkpt>
      <trkpt lat="47.82625" lon="-3.56242">
        <ele>60</ele>
        <time>2019-07-17T16:25:09Z</time>
      </trkpt>
      <trkpt lat="47.82623" lon="-3.56244">
        <ele>60</ele>
        <time>2019-07-17T16:25:10Z</time>
      </trkpt>
      <trkpt lat="47.8262" lon="-3.56246">
        <ele>61</ele>
        <time>2019-07-17T16:25:11Z</time>
      </trkpt>
      <trkpt lat="47.82617" lon="-3.56247">
        <ele>61</ele>
        <time>2019-07-17T16:25:12Z</time>
      </trkpt>
      <trkpt lat="47.82615" lon="-3.56247">
        <ele>61</ele>
        <time>2019-07-17T16:25:13Z</time>
      </trkpt>
      <trkpt lat="47.82612" lon="-3.56249">
        <ele>61</ele>
        <time>2019-07-17T16:25:14Z</time>
      </trkpt>
      <trkpt lat="47.8261" lon="-3.56249">
        <ele>61</ele>
        <time>2019-07-17T16:25:15Z</time>
      </trkpt>
      <trkpt lat="47.82607" lon="-3.56249">
        <ele>62</ele>
        <time>2019-07-17T16:25:16Z</time>
      </trkpt>
      <trkpt lat="47.82605" lon="-3.56249">
        <ele>62</ele>
        <time>2019-07-17T16:25:17Z</time>
      </trkpt>
      <trkpt lat="47.82603" lon="-3.5625">
        <ele>62</ele>
        <time>2019-07-17T16:25:18Z</time>
      </trkpt>
      <trkpt lat="47.82601" lon="-3.56252">
        <ele>62</ele>
        <time>2019-07-17T16:25:19Z</time>
      </trkpt>
      <trkpt lat="47.82599" lon="-3.56253">
        <ele>63</ele>
        <time>2019-07-17T16:25:20Z</time>
      </trkpt>
      <trkpt lat="47.82597" lon="-3.56256">
        <ele>63</ele>
        <time>2019-07-17T16:25:21Z</time>
      </trkpt>
      <trkpt lat="47.82595" lon="-3.56258">
        <ele>63</ele>
        <time>2019-07-17T16:25:22Z</time>
      </trkpt>
      <trkpt lat="47.82594" lon="-3.5626">
        <ele>64</ele>
        <time>2019-07-17T16:25:23Z</time>
      </trkpt>
      <trkpt lat="47.82592" lon="-3.56262">
        <ele>64</ele>
        <time>2019-07-17T16:25:24Z</time>
      </trkpt>
      <trkpt lat="47.8259" lon="-3.56264">
        <ele>64</ele>
        <time>2019-07-17T16:25:25Z</time>
      </trkpt>
      <trkpt lat="47.82589" lon="-3.56266">
        <ele>64</ele>
        <time>2019-07-17T16:25:26Z</time>
      </trkpt>
      <trkpt lat="47.82588" lon="-3.56268">
        <ele>65</ele>
        <time>2019-07-17T16:25:27Z</time>
      </trkpt>
      <trkpt lat="47.82586" lon="-3.5627">
        <ele>65</ele>
        <time>2019-07-17T16:25:28Z</time>
      </trkpt>
      <trkpt lat="47.82585" lon="-3.56273">
        <ele>65</ele>
        <time>2019-07-17T16:25:29Z</time>
      </trkpt>
      <trkpt lat="47.82585" lon="-3.56275">
        <ele>65</ele>
        <time>2019-07-17T16:25:30Z</time>
      </trkpt>
      <trkpt lat="47.82584" lon="-3.56278">
        <ele>65</ele>
        <time>2019-07-17T16:25:31Z</time>
      </trkpt>
      <trkpt lat="47.82584" lon="-3.56281">
        <ele>65</ele>
        <time>2019-07-17T16:25:32Z</time>
      </trkpt>
      <trkpt lat="47.82583" lon="-3.56285">
        <ele>65</ele>
        <time>2019-07-17T16:25:33Z</time>
      </trkpt>
      <trkpt lat="47.82583" lon="-3.56288">
        <ele>65</ele>
        <time>2019-07-17T16:25:34Z</time>
      </trkpt>
      <trkpt lat="47.82583" lon="-3.56292">
        <ele>65</ele>
        <time>2019-07-17T16:25:35Z</time>
      </trkpt>
      <trkpt lat="47.82582" lon="-3.56296">
        <ele>65</ele>
        <time>2019-07-17T16:25:36Z</time>
      </trkpt>
      <trkpt lat="47.82582" lon="-3.56299">
        <ele>65</ele>
        <time>2019-07-17T16:25:37Z</time>
      </trkpt>
      <trkpt lat="47.82582" lon="-3.56302">
        <ele>65</ele>
        <time>2019-07-17T16:25:38Z</time>
      </trkpt>
      <trkpt lat="47.82582" lon="-3.56305">
        <ele>65</ele>
        <time>2019-07-17T16:25:39Z</time>
      </trkpt>
      <trkpt lat="47.82582" lon="-3.56308">
        <ele>65</ele>
        <time>2019-07-17T16:25:40Z</time>
      </trkpt>
      <trkpt lat="47.82582" lon="-3.56311">
        <ele>65</ele>
        <time>2019-07-17T16:25:41Z</time>
      </trkpt>
      <trkpt lat="47.82582" lon="-3.56315">
        <ele>65</ele>
        <time>2019-07-17T16:25:42Z</time>
      </trkpt>
      <trkpt lat="47.82582" lon="-3.56318">
        <ele>65</ele>
        <time>2019-07-17T16:25:43Z</time>
      </trkpt>
      <trkpt lat="47.82582" lon="-3.56322">
        <ele>65</ele>
        <time>2019-07-17T16:25:44Z</time>
      </trkpt>
      <trkpt lat="47.82582" lon="-3.56326">
        <ele>65</ele>
        <time>2019-07-17T16:25:45Z</time>
      </trkpt>
      <trkpt lat="47.82582" lon="-3.56329">
        <ele>65</ele>
        <time>2019-07-17T16:25:46Z</time>
      </trkpt>
      <trkpt lat="47.82582" lon="-3.56333">
        <ele>65</ele>
        <time>2019-07-17T16:25:47Z</time>
      </trkpt>
      <trkpt lat="47.82582" lon="-3.56337">
        <ele>65</ele>
        <time>2019-07-17T16:25:48Z</time>
      </trkpt>
      <trkpt lat="47.82582" lon="-3.56341">
        <ele>65</ele>
        <time>2019-07-17T16:25:49Z</time>
      </trkpt>
      <trkpt lat="47.82582" lon="-3.56345">
        <ele>65</ele>
        <time>2019-07-17T16:25:50Z</time>
      </trkpt>
      <trkpt lat="47.82582" lon="-3.56349">
        <ele>65</ele>
        <time>2019-07-17T16:25:51Z</time>
      </trkpt>
      <trkpt lat="47.82582" lon="-3.56354">
        <ele>65</ele>
        <time>2019-07-17T16:25:52Z</time>
      </trkpt>
      <trkpt lat="47.82581" lon="-3.56359">
        <ele>66</ele>
        <time>2019-07-17T16:25:53Z</time>
      </trkpt>
      <trkpt lat="47.82581" lon="-3.56364">
        <ele>66</ele>
        <time>2019-07-17T16:25:54Z</time>
      </trkpt>
      <trkpt lat="47.82582" lon="-3.56369">
        <ele>66</ele>
        <time>2019-07-17T16:25:55Z</time>
      </trkpt>
      <trkpt lat="47.82582" lon="-3.56373">
        <ele>66</ele>
        <time>2019-07-17T16:25:56Z</time>
      </trkpt>
      <trkpt lat="47.82582" lon="-3.56378">
        <ele>66</ele>
        <time>2019-07-17T16:25:57Z</time>
      </trkpt>
      <trkpt lat="47.82582" lon="-3.56383">
        <ele>66</ele>
        <time>2019-07-17T16:25:58Z</time>
      </trkpt>
      <trkpt lat="47.82582" lon="-3.56388">
        <ele>66</ele>
        <time>2019-07-17T16:25:59Z</time>
      </trkpt>
      <trkpt lat="47.82582" lon="-3.56392">
        <ele>66</ele>
        <time>2019-07-17T16:26:00Z</time>
      </trkpt>
      <trkpt lat="47.82583" lon="-3.56398">
        <ele>66</ele>
        <time>2019-07-17T16:26:01Z</time>
      </trkpt>
      <trkpt lat="47.82582" lon="-3.56404">
        <ele>66</ele>
        <time>2019-07-17T16:26:02Z</time>
      </trkpt>
      <trkpt lat="47.82582" lon="-3.5641">
        <ele>66</ele>
        <time>2019-07-17T16:26:03Z</time>
      </trkpt>
      <trkpt lat="47.82582" lon="-3.56417">
        <ele>66</ele>
        <time>2019-07-17T16:26:04Z</time>
      </trkpt>
      <trkpt lat="47.82582" lon="-3.56422">
        <ele>66</ele>
        <time>2019-07-17T16:26:05Z</time>
      </trkpt>
      <trkpt lat="47.82582" lon="-3.56428">
        <ele>66</ele>
        <time>2019-07-17T16:26:06Z</time>
      </trkpt>
      <trkpt lat="47.82582" lon="-3.56434">
        <ele>66</ele>
        <time>2019-07-17T16:26:07Z</time>
      </trkpt>
      <trkpt lat="47.82581" lon="-3.5644">
        <ele>66</ele>
        <time>2019-07-17T16:26:08Z</time>
      </trkpt>
      <trkpt lat="47.8258" lon="-3.56447">
        <ele>66</ele>
        <time>2019-07-17T16:26:09Z</time>
      </trkpt>
      <trkpt lat="47.82579" lon="-3.56454">
        <ele>67</ele>
        <time>2019-07-17T16:26:10Z</time>
      </trkpt>
      <trkpt lat="47.82579" lon="-3.5646">
        <ele>67</ele>
        <time>2019-07-17T16:26:11Z</time>
      </trkpt>
      <trkpt lat="47.82578" lon="-3.56466">
        <ele>67</ele>
        <time>2019-07-17T16:26:12Z</time>
      </trkpt>
      <trkpt lat="47.82577" lon="-3.56471">
        <ele>67</ele>
        <time>2019-07-17T16:26:13Z</time>
      </trkpt>
      <trkpt lat="47.82577" lon="-3.56475">
        <ele>67</ele>
        <time>2019-07-17T16:26:14Z</time>
      </trkpt>
      <trkpt lat="47.82576" lon="-3.5648">
        <ele>67</ele>
        <time>2019-07-17T16:26:15Z</time>
      </trkpt>
      <trkpt lat="47.82575" lon="-3.56485">
        <ele>68</ele>
        <time>2019-07-17T16:26:16Z</time>
      </trkpt>
      <trkpt lat="47.82574" lon="-3.56491">
        <ele>68</ele>
        <time>2019-07-17T16:26:17Z</time>
      </trkpt>
      <trkpt lat="47.82574" lon="-3.56498">
        <ele>68</ele>
        <time>2019-07-17T16:26:18Z</time>
      </trkpt>
      <trkpt lat="47.82573" lon="-3.56505">
        <ele>68</ele>
        <time>2019-07-17T16:26:19Z</time>
      </trkpt>
      <trkpt lat="47.82572" lon="-3.56512">
        <ele>68</ele>
        <time>2019-07-17T16:26:20Z</time>
      </trkpt>
      <trkpt lat="47.82571" lon="-3.56519">
        <ele>68</ele>
        <time>2019-07-17T16:26:21Z</time>
      </trkpt>
      <trkpt lat="47.8257" lon="-3.56526">
        <ele>68</ele>
        <time>2019-07-17T16:26:22Z</time>
      </trkpt>
      <trkpt lat="47.82569" lon="-3.56534">
        <ele>68</ele>
        <time>2019-07-17T16:26:23Z</time>
      </trkpt>
      <trkpt lat="47.82568" lon="-3.56541">
        <ele>68</ele>
        <time>2019-07-17T16:26:24Z</time>
      </trkpt>
      <trkpt lat="47.82567" lon="-3.56549">
        <ele>69</ele>
        <time>2019-07-17T16:26:25Z</time>
      </trkpt>
      <trkpt lat="47.82565" lon="-3.56556">
        <ele>69</ele>
        <time>2019-07-17T16:26:26Z</time>
      </trkpt>
      <trkpt lat="47.82563" lon="-3.56563">
        <ele>69</ele>
        <time>2019-07-17T16:26:27Z</time>
      </trkpt>
      <trkpt lat="47.8256" lon="-3.56569">
        <ele>69</ele>
        <time>2019-07-17T16:26:28Z</time>
      </trkpt>
      <trkpt lat="47.82557" lon="-3.56574">
        <ele>69</ele>
        <time>2019-07-17T16:26:29Z</time>
      </trkpt>
      <trkpt lat="47.82555" lon="-3.56579">
        <ele>69</ele>
        <time>2019-07-17T16:26:30Z</time>
      </trkpt>
      <trkpt lat="47.82553" lon="-3.56585">
        <ele>69</ele>
        <time>2019-07-17T16:26:31Z</time>
      </trkpt>
      <trkpt lat="47.82552" lon="-3.5659">
        <ele>69</ele>
        <time>2019-07-17T16:26:32Z</time>
      </trkpt>
      <trkpt lat="47.82552" lon="-3.56595">
        <ele>70</ele>
        <time>2019-07-17T16:26:33Z</time>
      </trkpt>
      <trkpt lat="47.82551" lon="-3.566">
        <ele>70</ele>
        <time>2019-07-17T16:26:34Z</time>
      </trkpt>
      <trkpt lat="47.8255" lon="-3.56605">
        <ele>70</ele>
        <time>2019-07-17T16:26:35Z</time>
      </trkpt>
      <trkpt lat="47.82549" lon="-3.56611">
        <ele>70</ele>
        <time>2019-07-17T16:26:36Z</time>
      </trkpt>
      <trkpt lat="47.82549" lon="-3.56617">
        <ele>70</ele>
        <time>2019-07-17T16:26:37Z</time>
      </trkpt>
      <trkpt lat="47.82547" lon="-3.56622">
        <ele>70</ele>
        <time>2019-07-17T16:26:38Z</time>
      </trkpt>
      <trkpt lat="47.82546" lon="-3.56627">
        <ele>70</ele>
        <time>2019-07-17T16:26:39Z</time>
      </trkpt>
      <trkpt lat="47.82545" lon="-3.56631">
        <ele>71</ele>
        <time>2019-07-17T16:26:40Z</time>
      </trkpt>
      <trkpt lat="47.82544" lon="-3.56637">
        <ele>71</ele>
        <time>2019-07-17T16:26:41Z</time>
      </trkpt>
      <trkpt lat="47.82542" lon="-3.56643">
        <ele>71</ele>
        <time>2019-07-17T16:26:42Z</time>
      </trkpt>
      <trkpt lat="47.82539" lon="-3.56647">
        <ele>71</ele>
        <time>2019-07-17T16:26:43Z</time>
      </trkpt>
      <trkpt lat="47.82537" lon="-3.56653">
        <ele>71</ele>
        <time>2019-07-17T16:26:44Z</time>
      </trkpt>
      <trkpt lat="47.82535" lon="-3.56658">
        <ele>71</ele>
        <time>2019-07-17T16:26:45Z</time>
      </trkpt>
      <trkpt lat="47.82533" lon="-3.56665">
        <ele>72</ele>
        <time>2019-07-17T16:26:46Z</time>
      </trkpt>
      <trkpt lat="47.82531" lon="-3.56669">
        <ele>72</ele>
        <time>2019-07-17T16:26:47Z</time>
      </trkpt>
      <trkpt lat="47.82529" lon="-3.56674">
        <ele>72</ele>
        <time>2019-07-17T16:26:48Z</time>
      </trkpt>
      <trkpt lat="47.82528" lon="-3.56679">
        <ele>72</ele>
        <time>2019-07-17T16:26:49Z</time>
      </trkpt>
      <trkpt lat="47.82526" lon="-3.56686">
        <ele>73</ele>
        <time>2019-07-17T16:26:50Z</time>
      </trkpt>
      <trkpt lat="47.82524" lon="-3.56692">
        <ele>73</ele>
        <time>2019-07-17T16:26:51Z</time>
      </trkpt>
      <trkpt lat="47.82523" lon="-3.56698">
        <ele>73</ele>
        <time>2019-07-17T16:26:52Z</time>
      </trkpt>
      <trkpt lat="47.82522" lon="-3.56704">
        <ele>73</ele>
        <time>2019-07-17T16:26:53Z</time>
      </trkpt>
      <trkpt lat="47.8252" lon="-3.56709">
        <ele>73</ele>
        <time>2019-07-17T16:26:54Z</time>
      </trkpt>
      <trkpt lat="47.82519" lon="-3.56714">
        <ele>73</ele>
        <time>2019-07-17T16:26:55Z</time>
      </trkpt>
      <trkpt lat="47.82516" lon="-3.56718">
        <ele>73</ele>
        <time>2019-07-17T16:26:56Z</time>
      </trkpt>
      <trkpt lat="47.82514" lon="-3.5672">
        <ele>73</ele>
        <time>2019-07-17T16:26:57Z</time>
      </trkpt>
      <trkpt lat="47.82512" lon="-3.56722">
        <ele>73</ele>
        <time>2019-07-17T16:26:58Z</time>
      </trkpt>
      <trkpt lat="47.8251" lon="-3.56722">
        <ele>74</ele>
        <time>2019-07-17T16:26:59Z</time>
      </trkpt>
      <trkpt lat="47.82509" lon="-3.56723">
        <ele>74</ele>
        <time>2019-07-17T16:27:00Z</time>
      </trkpt>
      <trkpt lat="47.82509" lon="-3.56723">
        <ele>74</ele>
        <time>2019-07-17T16:27:01Z</time>
      </trkpt>
      <trkpt lat="47.82509" lon="-3.56724">
        <ele>74</ele>
        <time>2019-07-17T16:27:02Z</time>
      </trkpt>
      <trkpt lat="47.82504" lon="-3.56723">
        <ele>74</ele>
        <time>2019-07-17T16:27:03Z</time>
      </trkpt>
      <trkpt lat="47.82502" lon="-3.56723">
        <ele>73</ele>
        <time>2019-07-17T16:27:04Z</time>
      </trkpt>
      <trkpt lat="47.82499" lon="-3.56722">
        <ele>73</ele>
        <time>2019-07-17T16:27:05Z</time>
      </trkpt>
      <trkpt lat="47.82495" lon="-3.56722">
        <ele>73</ele>
        <time>2019-07-17T16:27:06Z</time>
      </trkpt>
      <trkpt lat="47.82492" lon="-3.56721">
        <ele>73</ele>
        <time>2019-07-17T16:27:07Z</time>
      </trkpt>
      <trkpt lat="47.82488" lon="-3.5672">
        <ele>73</ele>
        <time>2019-07-17T16:27:08Z</time>
      </trkpt>
      <trkpt lat="47.82483" lon="-3.56719">
        <ele>73</ele>
        <time>2019-07-17T16:27:09Z</time>
      </trkpt>
      <trkpt lat="47.8248" lon="-3.56717">
        <ele>73</ele>
        <time>2019-07-17T16:27:10Z</time>
      </trkpt>
      <trkpt lat="47.82476" lon="-3.56716">
        <ele>73</ele>
        <time>2019-07-17T16:27:11Z</time>
      </trkpt>
      <trkpt lat="47.82472" lon="-3.56715">
        <ele>73</ele>
        <time>2019-07-17T16:27:12Z</time>
      </trkpt>
      <trkpt lat="47.82469" lon="-3.56714">
        <ele>73</ele>
        <time>2019-07-17T16:27:13Z</time>
      </trkpt>
      <trkpt lat="47.82464" lon="-3.56712">
        <ele>73</ele>
        <time>2019-07-17T16:27:14Z</time>
      </trkpt>
      <trkpt lat="47.8246" lon="-3.56711">
        <ele>73</ele>
        <time>2019-07-17T16:27:15Z</time>
      </trkpt>
      <trkpt lat="47.82456" lon="-3.56709">
        <ele>73</ele>
        <time>2019-07-17T16:27:16Z</time>
      </trkpt>
      <trkpt lat="47.82452" lon="-3.56709">
        <ele>73</ele>
        <time>2019-07-17T16:27:17Z</time>
      </trkpt>
      <trkpt lat="47.82447" lon="-3.56709">
        <ele>73</ele>
        <time>2019-07-17T16:27:18Z</time>
      </trkpt>
      <trkpt lat="47.82443" lon="-3.56708">
        <ele>73</ele>
        <time>2019-07-17T16:27:19Z</time>
      </trkpt>
      <trkpt lat="47.8244" lon="-3.56708">
        <ele>73</ele>
        <time>2019-07-17T16:27:20Z</time>
      </trkpt>
      <trkpt lat="47.82436" lon="-3.56706">
        <ele>73</ele>
        <time>2019-07-17T16:27:21Z</time>
      </trkpt>
      <trkpt lat="47.82432" lon="-3.56705">
        <ele>73</ele>
        <time>2019-07-17T16:27:22Z</time>
      </trkpt>
      <trkpt lat="47.82428" lon="-3.56703">
        <ele>73</ele>
        <time>2019-07-17T16:27:23Z</time>
      </trkpt>
      <trkpt lat="47.82424" lon="-3.56703">
        <ele>73</ele>
        <time>2019-07-17T16:27:24Z</time>
      </trkpt>
      <trkpt lat="47.82419" lon="-3.56704">
        <ele>73</ele>
        <time>2019-07-17T16:27:25Z</time>
      </trkpt>
      <trkpt lat="47.82415" lon="-3.56706">
        <ele>73</ele>
        <time>2019-07-17T16:27:26Z</time>
      </trkpt>
      <trkpt lat="47.8241" lon="-3.56708">
        <ele>73</ele>
        <time>2019-07-17T16:27:27Z</time>
      </trkpt>
      <trkpt lat="47.82406" lon="-3.56711">
        <ele>73</ele>
        <time>2019-07-17T16:27:28Z</time>
      </trkpt>
      <trkpt lat="47.82402" lon="-3.56712">
        <ele>73</ele>
        <time>2019-07-17T16:27:29Z</time>
      </trkpt>
      <trkpt lat="47.82398" lon="-3.56712">
        <ele>73</ele>
        <time>2019-07-17T16:27:30Z</time>
      </trkpt>
      <trkpt lat="47.82395" lon="-3.56711">
        <ele>73</ele>
        <time>2019-07-17T16:27:31Z</time>
      </trkpt>
      <trkpt lat="47.82391" lon="-3.5671">
        <ele>73</ele>
        <time>2019-07-17T16:27:32Z</time>
      </trkpt>
      <trkpt lat="47.82386" lon="-3.56709">
        <ele>73</ele>
        <time>2019-07-17T16:27:33Z</time>
      </trkpt>
      <trkpt lat="47.82381" lon="-3.56709">
        <ele>73</ele>
        <time>2019-07-17T16:27:34Z</time>
      </trkpt>
      <trkpt lat="47.82376" lon="-3.56707">
        <ele>73</ele>
        <time>2019-07-17T16:27:35Z</time>
      </trkpt>
      <trkpt lat="47.82371" lon="-3.56705">
        <ele>73</ele>
        <time>2019-07-17T16:27:36Z</time>
      </trkpt>
      <trkpt lat="47.82366" lon="-3.56705">
        <ele>73</ele>
        <time>2019-07-17T16:27:37Z</time>
      </trkpt>
      <trkpt lat="47.82363" lon="-3.56707">
        <ele>73</ele>
        <time>2019-07-17T16:27:38Z</time>
      </trkpt>
      <trkpt lat="47.8236" lon="-3.5671">
        <ele>73</ele>
        <time>2019-07-17T16:27:39Z</time>
      </trkpt>
      <trkpt lat="47.82357" lon="-3.56711">
        <ele>73</ele>
        <time>2019-07-17T16:27:40Z</time>
      </trkpt>
      <trkpt lat="47.82353" lon="-3.56713">
        <ele>73</ele>
        <time>2019-07-17T16:27:41Z</time>
      </trkpt>
      <trkpt lat="47.82349" lon="-3.56716">
        <ele>73</ele>
        <time>2019-07-17T16:27:42Z</time>
      </trkpt>
      <trkpt lat="47.82344" lon="-3.56718">
        <ele>73</ele>
        <time>2019-07-17T16:27:43Z</time>
      </trkpt>
      <trkpt lat="47.8234" lon="-3.5672">
        <ele>73</ele>
        <time>2019-07-17T16:27:44Z</time>
      </trkpt>
      <trkpt lat="47.82337" lon="-3.56723">
        <ele>73</ele>
        <time>2019-07-17T16:27:45Z</time>
      </trkpt>
      <trkpt lat="47.82335" lon="-3.56727">
        <ele>73</ele>
        <time>2019-07-17T16:27:46Z</time>
      </trkpt>
      <trkpt lat="47.82332" lon="-3.56731">
        <ele>73</ele>
        <time>2019-07-17T16:27:47Z</time>
      </trkpt>
      <trkpt lat="47.82329" lon="-3.56735">
        <ele>73</ele>
        <time>2019-07-17T16:27:48Z</time>
      </trkpt>
      <trkpt lat="47.82325" lon="-3.56739">
        <ele>73</ele>
        <time>2019-07-17T16:27:49Z</time>
      </trkpt>
      <trkpt lat="47.82322" lon="-3.56744">
        <ele>73</ele>
        <time>2019-07-17T16:27:50Z</time>
      </trkpt>
      <trkpt lat="47.82318" lon="-3.5675">
        <ele>73</ele>
        <time>2019-07-17T16:27:51Z</time>
      </trkpt>
      <trkpt lat="47.82315" lon="-3.56757">
        <ele>73</ele>
        <time>2019-07-17T16:27:52Z</time>
      </trkpt>
      <trkpt lat="47.82313" lon="-3.56764">
        <ele>73</ele>
        <time>2019-07-17T16:27:53Z</time>
      </trkpt>
      <trkpt lat="47.82311" lon="-3.56771">
        <ele>73</ele>
        <time>2019-07-17T16:27:54Z</time>
      </trkpt>
      <trkpt lat="47.8231" lon="-3.56779">
        <ele>73</ele>
        <time>2019-07-17T16:27:55Z</time>
      </trkpt>
      <trkpt lat="47.82309" lon="-3.56785">
        <ele>73</ele>
        <time>2019-07-17T16:27:56Z</time>
      </trkpt>
      <trkpt lat="47.82308" lon="-3.56789">
        <ele>73</ele>
        <time>2019-07-17T16:27:57Z</time>
      </trkpt>
      <trkpt lat="47.82308" lon="-3.56792">
        <ele>73</ele>
        <time>2019-07-17T16:27:58Z</time>
      </trkpt>
      <trkpt lat="47.82308" lon="-3.56794">
        <ele>73</ele>
        <time>2019-07-17T16:27:59Z</time>
      </trkpt>
      <trkpt lat="47.82308" lon="-3.56794">
        <ele>72</ele>
        <time>2019-07-17T16:28:00Z</time>
      </trkpt>
      <trkpt lat="47.82308" lon="-3.56795">
        <ele>72</ele>
        <time>2019-07-17T16:28:01Z</time>
      </trkpt>
      <trkpt lat="47.82308" lon="-3.56795">
        <ele>72</ele>
        <time>2019-07-17T16:28:02Z</time>
      </trkpt>
      <trkpt lat="47.82308" lon="-3.5679">
        <ele>71</ele>
        <time>2019-07-17T16:28:03Z</time>
      </trkpt>
      <trkpt lat="47.82308" lon="-3.56785">
        <ele>71</ele>
        <time>2019-07-17T16:28:04Z</time>
      </trkpt>
      <trkpt lat="47.82306" lon="-3.56782">
        <ele>71</ele>
        <time>2019-07-17T16:28:05Z</time>
      </trkpt>
      <trkpt lat="47.82305" lon="-3.56779">
        <ele>71</ele>
        <time>2019-07-17T16:28:06Z</time>
      </trkpt>
      <trkpt lat="47.82302" lon="-3.56777">
        <ele>71</ele>
        <time>2019-07-17T16:28:07Z</time>
      </trkpt>
      <trkpt lat="47.823" lon="-3.56775">
        <ele>71</ele>
        <time>2019-07-17T16:28:08Z</time>
      </trkpt>
      <trkpt lat="47.82297" lon="-3.56774">
        <ele>71</ele>
        <time>2019-07-17T16:28:09Z</time>
      </trkpt>
      <trkpt lat="47.82294" lon="-3.56772">
        <ele>70</ele>
        <time>2019-07-17T16:28:10Z</time>
      </trkpt>
      <trkpt lat="47.82291" lon="-3.56771">
        <ele>70</ele>
        <time>2019-07-17T16:28:11Z</time>
      </trkpt>
      <trkpt lat="47.82288" lon="-3.56769">
        <ele>70</ele>
        <time>2019-07-17T16:28:12Z</time>
      </trkpt>
      <trkpt lat="47.82284" lon="-3.56768">
        <ele>70</ele>
        <time>2019-07-17T16:28:13Z</time>
      </trkpt>
      <trkpt lat="47.82279" lon="-3.56766">
        <ele>70</ele>
        <time>2019-07-17T16:28:14Z</time>
      </trkpt>
      <trkpt lat="47.82275" lon="-3.56764">
        <ele>70</ele>
        <time>2019-07-17T16:28:15Z</time>
      </trkpt>
      <trkpt lat="47.8227" lon="-3.56762">
        <ele>70</ele>
        <time>2019-07-17T16:28:16Z</time>
      </trkpt>
      <trkpt lat="47.82266" lon="-3.56761">
        <ele>69</ele>
        <time>2019-07-17T16:28:17Z</time>
      </trkpt>
      <trkpt lat="47.82262" lon="-3.56759">
        <ele>69</ele>
        <time>2019-07-17T16:28:18Z</time>
      </trkpt>
      <trkpt lat="47.82257" lon="-3.56758">
        <ele>69</ele>
        <time>2019-07-17T16:28:19Z</time>
      </trkpt>
      <trkpt lat="47.82253" lon="-3.56757">
        <ele>69</ele>
        <time>2019-07-17T16:28:20Z</time>
      </trkpt>
      <trkpt lat="47.82249" lon="-3.56755">
        <ele>69</ele>
        <time>2019-07-17T16:28:21Z</time>
      </trkpt>
      <trkpt lat="47.82245" lon="-3.56755">
        <ele>69</ele>
        <time>2019-07-17T16:28:22Z</time>
      </trkpt>
      <trkpt lat="47.82241" lon="-3.56756">
        <ele>69</ele>
        <time>2019-07-17T16:28:23Z</time>
      </trkpt>
      <trkpt lat="47.82238" lon="-3.56758">
        <ele>69</ele>
        <time>2019-07-17T16:28:24Z</time>
      </trkpt>
      <trkpt lat="47.82236" lon="-3.56761">
        <ele>69</ele>
        <time>2019-07-17T16:28:25Z</time>
      </trkpt>
      <trkpt lat="47.82234" lon="-3.56764">
        <ele>69</ele>
        <time>2019-07-17T16:28:26Z</time>
      </trkpt>
      <trkpt lat="47.82232" lon="-3.56769">
        <ele>69</ele>
        <time>2019-07-17T16:28:27Z</time>
      </trkpt>
      <trkpt lat="47.82231" lon="-3.56774">
        <ele>68</ele>
        <time>2019-07-17T16:28:28Z</time>
      </trkpt>
      <trkpt lat="47.8223" lon="-3.5678">
        <ele>68</ele>
        <time>2019-07-17T16:28:29Z</time>
      </trkpt>
      <trkpt lat="47.82228" lon="-3.56784">
        <ele>68</ele>
        <time>2019-07-17T16:28:30Z</time>
      </trkpt>
      <trkpt lat="47.82227" lon="-3.56789">
        <ele>68</ele>
        <time>2019-07-17T16:28:31Z</time>
      </trkpt>
      <trkpt lat="47.82225" lon="-3.56794">
        <ele>68</ele>
        <time>2019-07-17T16:28:32Z</time>
      </trkpt>
      <trkpt lat="47.82223" lon="-3.56798">
        <ele>68</ele>
        <time>2019-07-17T16:28:33Z</time>
      </trkpt>
      <trkpt lat="47.82221" lon="-3.56802">
        <ele>68</ele>
        <time>2019-07-17T16:28:34Z</time>
      </trkpt>
      <trkpt lat="47.82218" lon="-3.56804">
        <ele>67</ele>
        <time>2019-07-17T16:28:35Z</time>
      </trkpt>
      <trkpt lat="47.82214" lon="-3.56805">
        <ele>67</ele>
        <time>2019-07-17T16:28:36Z</time>
      </trkpt>
      <trkpt lat="47.82211" lon="-3.56804">
        <ele>67</ele>
        <time>2019-07-17T16:28:37Z</time>
      </trkpt>
      <trkpt lat="47.82208" lon="-3.56804">
        <ele>67</ele>
        <time>2019-07-17T16:28:38Z</time>
      </trkpt>
      <trkpt lat="47.82205" lon="-3.56804">
        <ele>67</ele>
        <time>2019-07-17T16:28:39Z</time>
      </trkpt>
      <trkpt lat="47.82202" lon="-3.56804">
        <ele>66</ele>
        <time>2019-07-17T16:28:40Z</time>
      </trkpt>
      <trkpt lat="47.82199" lon="-3.56803">
        <ele>66</ele>
        <time>2019-07-17T16:28:41Z</time>
      </trkpt>
      <trkpt lat="47.82196" lon="-3.56803">
        <ele>66</ele>
        <time>2019-07-17T16:28:42Z</time>
      </trkpt>
      <trkpt lat="47.82192" lon="-3.56803">
        <ele>66</ele>
        <time>2019-07-17T16:28:43Z</time>
      </trkpt>
      <trkpt lat="47.82188" lon="-3.56802">
        <ele>66</ele>
        <time>2019-07-17T16:28:44Z</time>
      </trkpt>
      <trkpt lat="47.82184" lon="-3.56802">
        <ele>66</ele>
        <time>2019-07-17T16:28:45Z</time>
      </trkpt>
      <trkpt lat="47.8218" lon="-3.56801">
        <ele>66</ele>
        <time>2019-07-17T16:28:46Z</time>
      </trkpt>
      <trkpt lat="47.82177" lon="-3.568">
        <ele>66</ele>
        <time>2019-07-17T16:28:47Z</time>
      </trkpt>
      <trkpt lat="47.82172" lon="-3.56799">
        <ele>66</ele>
        <time>2019-07-17T16:28:48Z</time>
      </trkpt>
      <trkpt lat="47.82167" lon="-3.56798">
        <ele>66</ele>
        <time>2019-07-17T16:28:49Z</time>
      </trkpt>
      <trkpt lat="47.82164" lon="-3.56797">
        <ele>65</ele>
        <time>2019-07-17T16:28:50Z</time>
      </trkpt>
      <trkpt lat="47.8216" lon="-3.56795">
        <ele>65</ele>
        <time>2019-07-17T16:28:51Z</time>
      </trkpt>
      <trkpt lat="47.82156" lon="-3.56794">
        <ele>65</ele>
        <time>2019-07-17T16:28:52Z</time>
      </trkpt>
      <trkpt lat="47.82152" lon="-3.56793">
        <ele>65</ele>
        <time>2019-07-17T16:28:53Z</time>
      </trkpt>
      <trkpt lat="47.82147" lon="-3.56792">
        <ele>65</ele>
        <time>2019-07-17T16:28:54Z</time>
      </trkpt>
      <trkpt lat="47.82142" lon="-3.56791">
        <ele>65</ele>
        <time>2019-07-17T16:28:55Z</time>
      </trkpt>
      <trkpt lat="47.82137" lon="-3.5679">
        <ele>65</ele>
        <time>2019-07-17T16:28:56Z</time>
      </trkpt>
      <trkpt lat="47.82132" lon="-3.56788">
        <ele>65</ele>
        <time>2019-07-17T16:28:57Z</time>
      </trkpt>
      <trkpt lat="47.82127" lon="-3.56787">
        <ele>65</ele>
        <time>2019-07-17T16:28:58Z</time>
      </trkpt>
      <trkpt lat="47.82122" lon="-3.56785">
        <ele>65</ele>
        <time>2019-07-17T16:28:59Z</time>
      </trkpt>
      <trkpt lat="47.82116" lon="-3.56783">
        <ele>65</ele>
        <time>2019-07-17T16:29:00Z</time>
      </trkpt>
      <trkpt lat="47.82112" lon="-3.56781">
        <ele>65</ele>
        <time>2019-07-17T16:29:01Z</time>
      </trkpt>
      <trkpt lat="47.82107" lon="-3.5678">
        <ele>65</ele>
        <time>2019-07-17T16:29:02Z</time>
      </trkpt>
      <trkpt lat="47.82103" lon="-3.56778">
        <ele>65</ele>
        <time>2019-07-17T16:29:03Z</time>
      </trkpt>
      <trkpt lat="47.82099" lon="-3.56777">
        <ele>65</ele>
        <time>2019-07-17T16:29:04Z</time>
      </trkpt>
      <trkpt lat="47.82094" lon="-3.56775">
        <ele>64</ele>
        <time>2019-07-17T16:29:05Z</time>
      </trkpt>
      <trkpt lat="47.82089" lon="-3.56776">
        <ele>64</ele>
        <time>2019-07-17T16:29:06Z</time>
      </trkpt>
      <trkpt lat="47.82084" lon="-3.56779">
        <ele>64</ele>
        <time>2019-07-17T16:29:07Z</time>
      </trkpt>
      <trkpt lat="47.82079" lon="-3.56782">
        <ele>64</ele>
        <time>2019-07-17T16:29:08Z</time>
      </trkpt>
      <trkpt lat="47.82075" lon="-3.56786">
        <ele>63</ele>
        <time>2019-07-17T16:29:09Z</time>
      </trkpt>
      <trkpt lat="47.8207" lon="-3.56789">
        <ele>63</ele>
        <time>2019-07-17T16:29:10Z</time>
      </trkpt>
      <trkpt lat="47.82065" lon="-3.56793">
        <ele>63</ele>
        <time>2019-07-17T16:29:11Z</time>
      </trkpt>
      <trkpt lat="47.8206" lon="-3.56798">
        <ele>63</ele>
        <time>2019-07-17T16:29:12Z</time>
      </trkpt>
      <trkpt lat="47.82055" lon="-3.56802">
        <ele>63</ele>
        <time>2019-07-17T16:29:13Z</time>
      </trkpt>
      <trkpt lat="47.82051" lon="-3.56805">
        <ele>62</ele>
        <time>2019-07-17T16:29:14Z</time>
      </trkpt>
      <trkpt lat="47.82048" lon="-3.56809">
        <ele>62</ele>
        <time>2019-07-17T16:29:15Z</time>
      </trkpt>
      <trkpt lat="47.82046" lon="-3.56811">
        <ele>62</ele>
        <time>2019-07-17T16:29:16Z</time>
      </trkpt>
      <trkpt lat="47.82043" lon="-3.56814">
        <ele>62</ele>
        <time>2019-07-17T16:29:17Z</time>
      </trkpt>
      <trkpt lat="47.82041" lon="-3.56817">
        <ele>62</ele>
        <time>2019-07-17T16:29:18Z</time>
      </trkpt>
      <trkpt lat="47.82039" lon="-3.56819">
        <ele>62</ele>
        <time>2019-07-17T16:29:19Z</time>
      </trkpt>
      <trkpt lat="47.82035" lon="-3.56821">
        <ele>61</ele>
        <time>2019-07-17T16:29:20Z</time>
      </trkpt>
      <trkpt lat="47.82031" lon="-3.56824">
        <ele>61</ele>
        <time>2019-07-17T16:29:21Z</time>
      </trkpt>
      <trkpt lat="47.82027" lon="-3.56827">
        <ele>61</ele>
        <time>2019-07-17T16:29:22Z</time>
      </trkpt>
      <trkpt lat="47.82023" lon="-3.56829">
        <ele>61</ele>
        <time>2019-07-17T16:29:23Z</time>
      </trkpt>
      <trkpt lat="47.82019" lon="-3.56831">
        <ele>61</ele>
        <time>2019-07-17T16:29:24Z</time>
      </trkpt>
      <trkpt lat="47.82015" lon="-3.56832">
        <ele>61</ele>
        <time>2019-07-17T16:29:25Z</time>
      </trkpt>
      <trkpt lat="47.82011" lon="-3.56833">
        <ele>61</ele>
        <time>2019-07-17T16:29:26Z</time>
      </trkpt>
      <trkpt lat="47.82007" lon="-3.56834">
        <ele>61</ele>
        <time>2019-07-17T16:29:27Z</time>
      </trkpt>
      <trkpt lat="47.82003" lon="-3.56836">
        <ele>60</ele>
        <time>2019-07-17T16:29:28Z</time>
      </trkpt>
      <trkpt lat="47.81999" lon="-3.56838">
        <ele>60</ele>
        <time>2019-07-17T16:29:29Z</time>
      </trkpt>
      <trkpt lat="47.81996" lon="-3.5684">
        <ele>60</ele>
        <time>2019-07-17T16:29:30Z</time>
      </trkpt>
      <trkpt lat="47.81993" lon="-3.56842">
        <ele>60</ele>
        <time>2019-07-17T16:29:31Z</time>
      </trkpt>
      <trkpt lat="47.81989" lon="-3.56844">
        <ele>60</ele>
        <time>2019-07-17T16:29:32Z</time>
      </trkpt>
      <trkpt lat="47.81985" lon="-3.56846">
        <ele>60</ele>
        <time>2019-07-17T16:29:33Z</time>
      </trkpt>
      <trkpt lat="47.81981" lon="-3.56847">
        <ele>60</ele>
        <time>2019-07-17T16:29:34Z</time>
      </trkpt>
      <trkpt lat="47.81976" lon="-3.56848">
        <ele>60</ele>
        <time>2019-07-17T16:29:35Z</time>
      </trkpt>
      <trkpt lat="47.81972" lon="-3.56848">
        <ele>60</ele>
        <time>2019-07-17T16:29:36Z</time>
      </trkpt>
      <trkpt lat="47.81968" lon="-3.56849">
        <ele>60</ele>
        <time>2019-07-17T16:29:37Z</time>
      </trkpt>
      <trkpt lat="47.81963" lon="-3.5685">
        <ele>60</ele>
        <time>2019-07-17T16:29:38Z</time>
      </trkpt>
      <trkpt lat="47.81959" lon="-3.56852">
        <ele>60</ele>
        <time>2019-07-17T16:29:39Z</time>
      </trkpt>
      <trkpt lat="47.81956" lon="-3.56853">
        <ele>60</ele>
        <time>2019-07-17T16:29:40Z</time>
      </trkpt>
      <trkpt lat="47.81952" lon="-3.56854">
        <ele>60</ele>
        <time>2019-07-17T16:29:41Z</time>
      </trkpt>
      <trkpt lat="47.81948" lon="-3.56857">
        <ele>60</ele>
        <time>2019-07-17T16:29:42Z</time>
      </trkpt>
      <trkpt lat="47.81944" lon="-3.56858">
        <ele>60</ele>
        <time>2019-07-17T16:29:43Z</time>
      </trkpt>
      <trkpt lat="47.8194" lon="-3.56858">
        <ele>60</ele>
        <time>2019-07-17T16:29:44Z</time>
      </trkpt>
      <trkpt lat="47.81936" lon="-3.5686">
        <ele>60</ele>
        <time>2019-07-17T16:29:45Z</time>
      </trkpt>
      <trkpt lat="47.81931" lon="-3.56863">
        <ele>60</ele>
        <time>2019-07-17T16:29:46Z</time>
      </trkpt>
      <trkpt lat="47.81927" lon="-3.56866">
        <ele>60</ele>
        <time>2019-07-17T16:29:47Z</time>
      </trkpt>
      <trkpt lat="47.81922" lon="-3.56868">
        <ele>60</ele>
        <time>2019-07-17T16:29:48Z</time>
      </trkpt>
      <trkpt lat="47.81917" lon="-3.56871">
        <ele>60</ele>
        <time>2019-07-17T16:29:49Z</time>
      </trkpt>
      <trkpt lat="47.81913" lon="-3.56873">
        <ele>60</ele>
        <time>2019-07-17T16:29:50Z</time>
      </trkpt>
      <trkpt lat="47.81908" lon="-3.56875">
        <ele>60</ele>
        <time>2019-07-17T16:29:51Z</time>
      </trkpt>
      <trkpt lat="47.81903" lon="-3.56877">
        <ele>60</ele>
        <time>2019-07-17T16:29:52Z</time>
      </trkpt>
      <trkpt lat="47.81898" lon="-3.56879">
        <ele>60</ele>
        <time>2019-07-17T16:29:53Z</time>
      </trkpt>
      <trkpt lat="47.81892" lon="-3.56881">
        <ele>60</ele>
        <time>2019-07-17T16:29:54Z</time>
      </trkpt>
      <trkpt lat="47.81887" lon="-3.56883">
        <ele>60</ele>
        <time>2019-07-17T16:29:55Z</time>
      </trkpt>
      <trkpt lat="47.81882" lon="-3.56887">
        <ele>60</ele>
        <time>2019-07-17T16:29:56Z</time>
      </trkpt>
      <trkpt lat="47.81878" lon="-3.56889">
        <ele>60</ele>
        <time>2019-07-17T16:29:57Z</time>
      </trkpt>
      <trkpt lat="47.81872" lon="-3.56893">
        <ele>60</ele>
        <time>2019-07-17T16:29:58Z</time>
      </trkpt>
      <trkpt lat="47.81868" lon="-3.56898">
        <ele>60</ele>
        <time>2019-07-17T16:29:59Z</time>
      </trkpt>
      <trkpt lat="47.81864" lon="-3.56903">
        <ele>60</ele>
        <time>2019-07-17T16:30:00Z</time>
      </trkpt>
      <trkpt lat="47.81861" lon="-3.5691">
        <ele>60</ele>
        <time>2019-07-17T16:30:01Z</time>
      </trkpt>
      <trkpt lat="47.81858" lon="-3.56917">
        <ele>60</ele>
        <time>2019-07-17T16:30:02Z</time>
      </trkpt>
      <trkpt lat="47.81854" lon="-3.56923">
        <ele>60</ele>
        <time>2019-07-17T16:30:03Z</time>
      </trkpt>
      <trkpt lat="47.81851" lon="-3.56929">
        <ele>60</ele>
        <time>2019-07-17T16:30:04Z</time>
      </trkpt>
      <trkpt lat="47.81847" lon="-3.56935">
        <ele>60</ele>
        <time>2019-07-17T16:30:05Z</time>
      </trkpt>
      <trkpt lat="47.81843" lon="-3.56941">
        <ele>61</ele>
        <time>2019-07-17T16:30:06Z</time>
      </trkpt>
      <trkpt lat="47.81839" lon="-3.56945">
        <ele>61</ele>
        <time>2019-07-17T16:30:07Z</time>
      </trkpt>
      <trkpt lat="47.81834" lon="-3.56949">
        <ele>61</ele>
        <time>2019-07-17T16:30:08Z</time>
      </trkpt>
      <trkpt lat="47.81828" lon="-3.5695">
        <ele>61</ele>
        <time>2019-07-17T16:30:09Z</time>
      </trkpt>
      <trkpt lat="47.81822" lon="-3.5695">
        <ele>60</ele>
        <time>2019-07-17T16:30:10Z</time>
      </trkpt>
      <trkpt lat="47.81816" lon="-3.56951">
        <ele>60</ele>
        <time>2019-07-17T16:30:11Z</time>
      </trkpt>
      <trkpt lat="47.81811" lon="-3.56952">
        <ele>60</ele>
        <time>2019-07-17T16:30:12Z</time>
      </trkpt>
      <trkpt lat="47.81805" lon="-3.56952">
        <ele>60</ele>
        <time>2019-07-17T16:30:13Z</time>
      </trkpt>
      <trkpt lat="47.818" lon="-3.56952">
        <ele>60</ele>
        <time>2019-07-17T16:30:14Z</time>
      </trkpt>
      <trkpt lat="47.81794" lon="-3.56952">
        <ele>60</ele>
        <time>2019-07-17T16:30:15Z</time>
      </trkpt>
      <trkpt lat="47.81788" lon="-3.56953">
        <ele>60</ele>
        <time>2019-07-17T16:30:16Z</time>
      </trkpt>
      <trkpt lat="47.81782" lon="-3.56956">
        <ele>60</ele>
        <time>2019-07-17T16:30:17Z</time>
      </trkpt>
      <trkpt lat="47.81777" lon="-3.56959">
        <ele>59</ele>
        <time>2019-07-17T16:30:18Z</time>
      </trkpt>
      <trkpt lat="47.81772" lon="-3.5696">
        <ele>59</ele>
        <time>2019-07-17T16:30:19Z</time>
      </trkpt>
      <trkpt lat="47.81767" lon="-3.56961">
        <ele>59</ele>
        <time>2019-07-17T16:30:20Z</time>
      </trkpt>
      <trkpt lat="47.81761" lon="-3.56963">
        <ele>59</ele>
        <time>2019-07-17T16:30:21Z</time>
      </trkpt>
      <trkpt lat="47.81755" lon="-3.56965">
        <ele>59</ele>
        <time>2019-07-17T16:30:22Z</time>
      </trkpt>
      <trkpt lat="47.8175" lon="-3.56968">
        <ele>59</ele>
        <time>2019-07-17T16:30:23Z</time>
      </trkpt>
      <trkpt lat="47.81746" lon="-3.56972">
        <ele>59</ele>
        <time>2019-07-17T16:30:24Z</time>
      </trkpt>
      <trkpt lat="47.81743" lon="-3.56976">
        <ele>59</ele>
        <time>2019-07-17T16:30:25Z</time>
      </trkpt>
      <trkpt lat="47.81741" lon="-3.5698">
        <ele>59</ele>
        <time>2019-07-17T16:30:26Z</time>
      </trkpt>
      <trkpt lat="47.8174" lon="-3.56983">
        <ele>59</ele>
        <time>2019-07-17T16:30:27Z</time>
      </trkpt>
      <trkpt lat="47.8174" lon="-3.56985">
        <ele>59</ele>
        <time>2019-07-17T16:30:28Z</time>
      </trkpt>
      <trkpt lat="47.8174" lon="-3.56988">
        <ele>59</ele>
        <time>2019-07-17T16:30:29Z</time>
      </trkpt>
      <trkpt lat="47.8174" lon="-3.56992">
        <ele>59</ele>
        <time>2019-07-17T16:30:30Z</time>
      </trkpt>
      <trkpt lat="47.81741" lon="-3.56996">
        <ele>59</ele>
        <time>2019-07-17T16:30:31Z</time>
      </trkpt>
      <trkpt lat="47.81741" lon="-3.57">
        <ele>59</ele>
        <time>2019-07-17T16:30:32Z</time>
      </trkpt>
      <trkpt lat="47.81742" lon="-3.57005">
        <ele>59</ele>
        <time>2019-07-17T16:30:33Z</time>
      </trkpt>
      <trkpt lat="47.81742" lon="-3.57009">
        <ele>59</ele>
        <time>2019-07-17T16:30:34Z</time>
      </trkpt>
      <trkpt lat="47.81742" lon="-3.57015">
        <ele>58</ele>
        <time>2019-07-17T16:30:35Z</time>
      </trkpt>
      <trkpt lat="47.81742" lon="-3.57021">
        <ele>58</ele>
        <time>2019-07-17T16:30:36Z</time>
      </trkpt>
      <trkpt lat="47.81741" lon="-3.57027">
        <ele>58</ele>
        <time>2019-07-17T16:30:37Z</time>
      </trkpt>
      <trkpt lat="47.81741" lon="-3.57033">
        <ele>58</ele>
        <time>2019-07-17T16:30:38Z</time>
      </trkpt>
      <trkpt lat="47.8174" lon="-3.57039">
        <ele>58</ele>
        <time>2019-07-17T16:30:39Z</time>
      </trkpt>
      <trkpt lat="47.8174" lon="-3.57046">
        <ele>58</ele>
        <time>2019-07-17T16:30:40Z</time>
      </trkpt>
      <trkpt lat="47.81739" lon="-3.57052">
        <ele>58</ele>
        <time>2019-07-17T16:30:41Z</time>
      </trkpt>
      <trkpt lat="47.81739" lon="-3.57058">
        <ele>58</ele>
        <time>2019-07-17T16:30:42Z</time>
      </trkpt>
      <trkpt lat="47.81738" lon="-3.57064">
        <ele>58</ele>
        <time>2019-07-17T16:30:43Z</time>
      </trkpt>
      <trkpt lat="47.81738" lon="-3.5707">
        <ele>58</ele>
        <time>2019-07-17T16:30:44Z</time>
      </trkpt>
      <trkpt lat="47.81737" lon="-3.57074">
        <ele>58</ele>
        <time>2019-07-17T16:30:45Z</time>
      </trkpt>
      <trkpt lat="47.81735" lon="-3.57077">
        <ele>58</ele>
        <time>2019-07-17T16:30:46Z</time>
      </trkpt>
      <trkpt lat="47.81732" lon="-3.57078">
        <ele>58</ele>
        <time>2019-07-17T16:30:47Z</time>
      </trkpt>
      <trkpt lat="47.81729" lon="-3.5708">
        <ele>58</ele>
        <time>2019-07-17T16:30:48Z</time>
      </trkpt>
      <trkpt lat="47.81726" lon="-3.57083">
        <ele>58</ele>
        <time>2019-07-17T16:30:49Z</time>
      </trkpt>
      <trkpt lat="47.81723" lon="-3.57084">
        <ele>58</ele>
        <time>2019-07-17T16:30:50Z</time>
      </trkpt>
      <trkpt lat="47.81719" lon="-3.57086">
        <ele>58</ele>
        <time>2019-07-17T16:30:51Z</time>
      </trkpt>
      <trkpt lat="47.81715" lon="-3.57087">
        <ele>58</ele>
        <time>2019-07-17T16:30:52Z</time>
      </trkpt>
      <trkpt lat="47.81711" lon="-3.57088">
        <ele>58</ele>
        <time>2019-07-17T16:30:53Z</time>
      </trkpt>
      <trkpt lat="47.81707" lon="-3.5709">
        <ele>58</ele>
        <time>2019-07-17T16:30:54Z</time>
      </trkpt>
      <trkpt lat="47.81704" lon="-3.57091">
        <ele>58</ele>
        <time>2019-07-17T16:30:55Z</time>
      </trkpt>
      <trkpt lat="47.81699" lon="-3.57093">
        <ele>58</ele>
        <time>2019-07-17T16:30:56Z</time>
      </trkpt>
      <trkpt lat="47.81695" lon="-3.57096">
        <ele>58</ele>
        <time>2019-07-17T16:30:57Z</time>
      </trkpt>
      <trkpt lat="47.81691" lon="-3.57098">
        <ele>58</ele>
        <time>2019-07-17T16:30:58Z</time>
      </trkpt>
      <trkpt lat="47.81687" lon="-3.571">
        <ele>58</ele>
        <time>2019-07-17T16:30:59Z</time>
      </trkpt>
      <trkpt lat="47.81682" lon="-3.57102">
        <ele>58</ele>
        <time>2019-07-17T16:31:00Z</time>
      </trkpt>
      <trkpt lat="47.81678" lon="-3.57103">
        <ele>58</ele>
        <time>2019-07-17T16:31:01Z</time>
      </trkpt>
      <trkpt lat="47.81674" lon="-3.57105">
        <ele>58</ele>
        <time>2019-07-17T16:31:02Z</time>
      </trkpt>
      <trkpt lat="47.81669" lon="-3.57107">
        <ele>58</ele>
        <time>2019-07-17T16:31:03Z</time>
      </trkpt>
      <trkpt lat="47.81665" lon="-3.57109">
        <ele>58</ele>
        <time>2019-07-17T16:31:04Z</time>
      </trkpt>
      <trkpt lat="47.81661" lon="-3.57112">
        <ele>58</ele>
        <time>2019-07-17T16:31:05Z</time>
      </trkpt>
      <trkpt lat="47.81656" lon="-3.57116">
        <ele>58</ele>
        <time>2019-07-17T16:31:06Z</time>
      </trkpt>
      <trkpt lat="47.81652" lon="-3.57119">
        <ele>58</ele>
        <time>2019-07-17T16:31:07Z</time>
      </trkpt>
      <trkpt lat="47.81648" lon="-3.57123">
        <ele>58</ele>
        <time>2019-07-17T16:31:08Z</time>
      </trkpt>
      <trkpt lat="47.81643" lon="-3.57125">
        <ele>58</ele>
        <time>2019-07-17T16:31:09Z</time>
      </trkpt>
      <trkpt lat="47.81639" lon="-3.57127">
        <ele>58</ele>
        <time>2019-07-17T16:31:10Z</time>
      </trkpt>
      <trkpt lat="47.81635" lon="-3.57129">
        <ele>59</ele>
        <time>2019-07-17T16:31:11Z</time>
      </trkpt>
      <trkpt lat="47.81631" lon="-3.5713">
        <ele>59</ele>
        <time>2019-07-17T16:31:12Z</time>
      </trkpt>
      <trkpt lat="47.81627" lon="-3.57133">
        <ele>59</ele>
        <time>2019-07-17T16:31:13Z</time>
      </trkpt>
      <trkpt lat="47.81622" lon="-3.57136">
        <ele>59</ele>
        <time>2019-07-17T16:31:14Z</time>
      </trkpt>
      <trkpt lat="47.81617" lon="-3.57138">
        <ele>59</ele>
        <time>2019-07-17T16:31:15Z</time>
      </trkpt>
      <trkpt lat="47.81612" lon="-3.5714">
        <ele>59</ele>
        <time>2019-07-17T16:31:16Z</time>
      </trkpt>
      <trkpt lat="47.81608" lon="-3.57143">
        <ele>59</ele>
        <time>2019-07-17T16:31:17Z</time>
      </trkpt>
      <trkpt lat="47.81603" lon="-3.57145">
        <ele>59</ele>
        <time>2019-07-17T16:31:18Z</time>
      </trkpt>
      <trkpt lat="47.81599" lon="-3.57147">
        <ele>60</ele>
        <time>2019-07-17T16:31:19Z</time>
      </trkpt>
      <trkpt lat="47.81595" lon="-3.57149">
        <ele>60</ele>
        <time>2019-07-17T16:31:20Z</time>
      </trkpt>
      <trkpt lat="47.81591" lon="-3.57152">
        <ele>60</ele>
        <time>2019-07-17T16:31:21Z</time>
      </trkpt>
      <trkpt lat="47.81587" lon="-3.57155">
        <ele>60</ele>
        <time>2019-07-17T16:31:22Z</time>
      </trkpt>
      <trkpt lat="47.81582" lon="-3.57158">
        <ele>60</ele>
        <time>2019-07-17T16:31:23Z</time>
      </trkpt>
      <trkpt lat="47.81578" lon="-3.57161">
        <ele>60</ele>
        <time>2019-07-17T16:31:24Z</time>
      </trkpt>
      <trkpt lat="47.81573" lon="-3.57163">
        <ele>60</ele>
        <time>2019-07-17T16:31:25Z</time>
      </trkpt>
      <trkpt lat="47.81569" lon="-3.57166">
        <ele>61</ele>
        <time>2019-07-17T16:31:26Z</time>
      </trkpt>
      <trkpt lat="47.81563" lon="-3.57169">
        <ele>61</ele>
        <time>2019-07-17T16:31:27Z</time>
      </trkpt>
      <trkpt lat="47.81558" lon="-3.57172">
        <ele>61</ele>
        <time>2019-07-17T16:31:28Z</time>
      </trkpt>
      <trkpt lat="47.81553" lon="-3.57175">
        <ele>61</ele>
        <time>2019-07-17T16:31:29Z</time>
      </trkpt>
      <trkpt lat="47.81548" lon="-3.57178">
        <ele>61</ele>
        <time>2019-07-17T16:31:30Z</time>
      </trkpt>
      <trkpt lat="47.81543" lon="-3.57182">
        <ele>61</ele>
        <time>2019-07-17T16:31:31Z</time>
      </trkpt>
      <trkpt lat="47.81538" lon="-3.57185">
        <ele>61</ele>
        <time>2019-07-17T16:31:32Z</time>
      </trkpt>
      <trkpt lat="47.81533" lon="-3.57187">
        <ele>61</ele>
        <time>2019-07-17T16:31:33Z</time>
      </trkpt>
      <trkpt lat="47.81527" lon="-3.5719">
        <ele>62</ele>
        <time>2019-07-17T16:31:34Z</time>
      </trkpt>
      <trkpt lat="47.81522" lon="-3.57193">
        <ele>62</ele>
        <time>2019-07-17T16:31:35Z</time>
      </trkpt>
      <trkpt lat="47.81517" lon="-3.57195">
        <ele>62</ele>
        <time>2019-07-17T16:31:36Z</time>
      </trkpt>
      <trkpt lat="47.81511" lon="-3.57196">
        <ele>62</ele>
        <time>2019-07-17T16:31:37Z</time>
      </trkpt>
      <trkpt lat="47.81505" lon="-3.57195">
        <ele>62</ele>
        <time>2019-07-17T16:31:38Z</time>
      </trkpt>
      <trkpt lat="47.81501" lon="-3.57192">
        <ele>62</ele>
        <time>2019-07-17T16:31:39Z</time>
      </trkpt>
      <trkpt lat="47.81497" lon="-3.57188">
        <ele>62</ele>
        <time>2019-07-17T16:31:40Z</time>
      </trkpt>
      <trkpt lat="47.81494" lon="-3.57181">
        <ele>62</ele>
        <time>2019-07-17T16:31:41Z</time>
      </trkpt>
      <trkpt lat="47.81491" lon="-3.57175">
        <ele>62</ele>
        <time>2019-07-17T16:31:42Z</time>
      </trkpt>
      <trkpt lat="47.81489" lon="-3.57168">
        <ele>62</ele>
        <time>2019-07-17T16:31:43Z</time>
      </trkpt>
      <trkpt lat="47.81487" lon="-3.57162">
        <ele>62</ele>
        <time>2019-07-17T16:31:44Z</time>
      </trkpt>
      <trkpt lat="47.81485" lon="-3.57155">
        <ele>62</ele>
        <time>2019-07-17T16:31:45Z</time>
      </trkpt>
      <trkpt lat="47.81483" lon="-3.57149">
        <ele>61</ele>
        <time>2019-07-17T16:31:46Z</time>
      </trkpt>
      <trkpt lat="47.81481" lon="-3.57142">
        <ele>61</ele>
        <time>2019-07-17T16:31:47Z</time>
      </trkpt>
      <trkpt lat="47.81479" lon="-3.57135">
        <ele>61</ele>
        <time>2019-07-17T16:31:48Z</time>
      </trkpt>
      <trkpt lat="47.81477" lon="-3.57128">
        <ele>61</ele>
        <time>2019-07-17T16:31:49Z</time>
      </trkpt>
      <trkpt lat="47.81474" lon="-3.5712">
        <ele>61</ele>
        <time>2019-07-17T16:31:50Z</time>
      </trkpt>
      <trkpt lat="47.81472" lon="-3.57113">
        <ele>61</ele>
        <time>2019-07-17T16:31:51Z</time>
      </trkpt>
      <trkpt lat="47.81469" lon="-3.57105">
        <ele>61</ele>
        <time>2019-07-17T16:31:52Z</time>
      </trkpt>
      <trkpt lat="47.81467" lon="-3.57097">
        <ele>61</ele>
        <time>2019-07-17T16:31:53Z</time>
      </trkpt>
      <trkpt lat="47.81464" lon="-3.57089">
        <ele>61</ele>
        <time>2019-07-17T16:31:54Z</time>
      </trkpt>
      <trkpt lat="47.81462" lon="-3.57081">
        <ele>61</ele>
        <time>2019-07-17T16:31:55Z</time>
      </trkpt>
      <trkpt lat="47.8146" lon="-3.57072">
        <ele>61</ele>
        <time>2019-07-17T16:31:56Z</time>
      </trkpt>
      <trkpt lat="47.81459" lon="-3.57063">
        <ele>61</ele>
        <time>2019-07-17T16:31:57Z</time>
      </trkpt>
      <trkpt lat="47.81457" lon="-3.57054">
        <ele>61</ele>
        <time>2019-07-17T16:31:58Z</time>
      </trkpt>
      <trkpt lat="47.81455" lon="-3.57044">
        <ele>61</ele>
        <time>2019-07-17T16:31:59Z</time>
      </trkpt>
      <trkpt lat="47.81453" lon="-3.57034">
        <ele>60</ele>
        <time>2019-07-17T16:32:00Z</time>
      </trkpt>
      <trkpt lat="47.81452" lon="-3.57025">
        <ele>60</ele>
        <time>2019-07-17T16:32:01Z</time>
      </trkpt>
      <trkpt lat="47.8145" lon="-3.57016">
        <ele>60</ele>
        <time>2019-07-17T16:32:02Z</time>
      </trkpt>
      <trkpt lat="47.81449" lon="-3.57006">
        <ele>59</ele>
        <time>2019-07-17T16:32:03Z</time>
      </trkpt>
      <trkpt lat="47.81447" lon="-3.56996">
        <ele>59</ele>
        <time>2019-07-17T16:32:04Z</time>
      </trkpt>
      <trkpt lat="47.81445" lon="-3.56986">
        <ele>59</ele>
        <time>2019-07-17T16:32:05Z</time>
      </trkpt>
      <trkpt lat="47.81444" lon="-3.56977">
        <ele>59</ele>
        <time>2019-07-17T16:32:06Z</time>
      </trkpt>
      <trkpt lat="47.81442" lon="-3.56968">
        <ele>58</ele>
        <time>2019-07-17T16:32:07Z</time>
      </trkpt>
      <trkpt lat="47.8144" lon="-3.56959">
        <ele>58</ele>
        <time>2019-07-17T16:32:08Z</time>
      </trkpt>
      <trkpt lat="47.81439" lon="-3.56949">
        <ele>58</ele>
        <time>2019-07-17T16:32:09Z</time>
      </trkpt>
      <trkpt lat="47.81438" lon="-3.5694">
        <ele>58</ele>
        <time>2019-07-17T16:32:10Z</time>
      </trkpt>
      <trkpt lat="47.81436" lon="-3.56931">
        <ele>58</ele>
        <time>2019-07-17T16:32:11Z</time>
      </trkpt>
      <trkpt lat="47.81434" lon="-3.56922">
        <ele>57</ele>
        <time>2019-07-17T16:32:12Z</time>
      </trkpt>
      <trkpt lat="47.81432" lon="-3.56913">
        <ele>57</ele>
        <time>2019-07-17T16:32:13Z</time>
      </trkpt>
      <trkpt lat="47.81431" lon="-3.56903">
        <ele>57</ele>
        <time>2019-07-17T16:32:14Z</time>
      </trkpt>
      <trkpt lat="47.8143" lon="-3.56893">
        <ele>57</ele>
        <time>2019-07-17T16:32:15Z</time>
      </trkpt>
      <trkpt lat="47.81429" lon="-3.56884">
        <ele>57</ele>
        <time>2019-07-17T16:32:16Z</time>
      </trkpt>
      <trkpt lat="47.81426" lon="-3.56875">
        <ele>57</ele>
        <time>2019-07-17T16:32:17Z</time>
      </trkpt>
      <trkpt lat="47.81423" lon="-3.56867">
        <ele>57</ele>
        <time>2019-07-17T16:32:18Z</time>
      </trkpt>
      <trkpt lat="47.81419" lon="-3.5686">
        <ele>57</ele>
        <time>2019-07-17T16:32:19Z</time>
      </trkpt>
      <trkpt lat="47.81416" lon="-3.56853">
        <ele>57</ele>
        <time>2019-07-17T16:32:20Z</time>
      </trkpt>
      <trkpt lat="47.81412" lon="-3.56846">
        <ele>57</ele>
        <time>2019-07-17T16:32:21Z</time>
      </trkpt>
      <trkpt lat="47.8141" lon="-3.56839">
        <ele>57</ele>
        <time>2019-07-17T16:32:22Z</time>
      </trkpt>
      <trkpt lat="47.81406" lon="-3.56832">
        <ele>57</ele>
        <time>2019-07-17T16:32:23Z</time>
      </trkpt>
      <trkpt lat="47.81403" lon="-3.56824">
        <ele>57</ele>
        <time>2019-07-17T16:32:24Z</time>
      </trkpt>
      <trkpt lat="47.814" lon="-3.56815">
        <ele>57</ele>
        <time>2019-07-17T16:32:25Z</time>
      </trkpt>
      <trkpt lat="47.81396" lon="-3.56807">
        <ele>57</ele>
        <time>2019-07-17T16:32:26Z</time>
      </trkpt>
      <trkpt lat="47.81393" lon="-3.56798">
        <ele>57</ele>
        <time>2019-07-17T16:32:27Z</time>
      </trkpt>
      <trkpt lat="47.8139" lon="-3.5679">
        <ele>57</ele>
        <time>2019-07-17T16:32:28Z</time>
      </trkpt>
      <trkpt lat="47.81386" lon="-3.56783">
        <ele>57</ele>
        <time>2019-07-17T16:32:29Z</time>
      </trkpt>
      <trkpt lat="47.81383" lon="-3.56775">
        <ele>57</ele>
        <time>2019-07-17T16:32:30Z</time>
      </trkpt>
      <trkpt lat="47.8138" lon="-3.56767">
        <ele>57</ele>
        <time>2019-07-17T16:32:31Z</time>
      </trkpt>
      <trkpt lat="47.81377" lon="-3.56759">
        <ele>57</ele>
        <time>2019-07-17T16:32:32Z</time>
      </trkpt>
      <trkpt lat="47.81374" lon="-3.5675">
        <ele>57</ele>
        <time>2019-07-17T16:32:33Z</time>
      </trkpt>
      <trkpt lat="47.81372" lon="-3.56742">
        <ele>58</ele>
        <time>2019-07-17T16:32:34Z</time>
      </trkpt>
      <trkpt lat="47.81369" lon="-3.56733">
        <ele>58</ele>
        <time>2019-07-17T16:32:35Z</time>
      </trkpt>
      <trkpt lat="47.81366" lon="-3.56726">
        <ele>58</ele>
        <time>2019-07-17T16:32:36Z</time>
      </trkpt>
      <trkpt lat="47.81363" lon="-3.56717">
        <ele>58</ele>
        <time>2019-07-17T16:32:37Z</time>
      </trkpt>
      <trkpt lat="47.81361" lon="-3.56709">
        <ele>58</ele>
        <time>2019-07-17T16:32:38Z</time>
      </trkpt>
      <trkpt lat="47.81358" lon="-3.56702">
        <ele>58</ele>
        <time>2019-07-17T16:32:39Z</time>
      </trkpt>
      <trkpt lat="47.81356" lon="-3.56694">
        <ele>58</ele>
        <time>2019-07-17T16:32:40Z</time>
      </trkpt>
      <trkpt lat="47.81354" lon="-3.56686">
        <ele>58</ele>
        <time>2019-07-17T16:32:41Z</time>
      </trkpt>
      <trkpt lat="47.81353" lon="-3.56677">
        <ele>58</ele>
        <time>2019-07-17T16:32:42Z</time>
      </trkpt>
      <trkpt lat="47.81351" lon="-3.5667">
        <ele>58</ele>
        <time>2019-07-17T16:32:43Z</time>
      </trkpt>
      <trkpt lat="47.8135" lon="-3.56663">
        <ele>58</ele>
        <time>2019-07-17T16:32:44Z</time>
      </trkpt>
      <trkpt lat="47.81347" lon="-3.56657">
        <ele>58</ele>
        <time>2019-07-17T16:32:45Z</time>
      </trkpt>
      <trkpt lat="47.81346" lon="-3.56651">
        <ele>58</ele>
        <time>2019-07-17T16:32:46Z</time>
      </trkpt>
      <trkpt lat="47.81344" lon="-3.56647">
        <ele>57</ele>
        <time>2019-07-17T16:32:47Z</time>
      </trkpt>
      <trkpt lat="47.81343" lon="-3.56644">
        <ele>57</ele>
        <time>2019-07-17T16:32:48Z</time>
      </trkpt>
      <trkpt lat="47.81341" lon="-3.56643">
        <ele>57</ele>
        <time>2019-07-17T16:32:49Z</time>
      </trkpt>
      <trkpt lat="47.8134" lon="-3.56641">
        <ele>57</ele>
        <time>2019-07-17T16:32:50Z</time>
      </trkpt>
      <trkpt lat="47.8134" lon="-3.56641">
        <ele>56</ele>
        <time>2019-07-17T16:32:51Z</time>
      </trkpt>
      <trkpt lat="47.8134" lon="-3.56641">
        <ele>56</ele>
        <time>2019-07-17T16:32:52Z</time>
      </trkpt>
      <trkpt lat="47.8134" lon="-3.56642">
        <ele>56</ele>
        <time>2019-07-17T16:32:53Z</time>
      </trkpt>
      <trkpt lat="47.81337" lon="-3.56638">
        <ele>55</ele>
        <time>2019-07-17T16:32:54Z</time>
      </trkpt>
      <trkpt lat="47.81337" lon="-3.56637">
        <ele>55</ele>
        <time>2019-07-17T16:32:55Z</time>
      </trkpt>
      <trkpt lat="47.81337" lon="-3.56636">
        <ele>55</ele>
        <time>2019-07-17T16:32:56Z</time>
      </trkpt>
      <trkpt lat="47.81338" lon="-3.56631">
        <ele>54</ele>
        <time>2019-07-17T16:32:57Z</time>
      </trkpt>
      <trkpt lat="47.8134" lon="-3.56629">
        <ele>54</ele>
        <time>2019-07-17T16:32:58Z</time>
      </trkpt>
      <trkpt lat="47.81341" lon="-3.56627">
        <ele>54</ele>
        <time>2019-07-17T16:32:59Z</time>
      </trkpt>
      <trkpt lat="47.81343" lon="-3.56624">
        <ele>54</ele>
        <time>2019-07-17T16:33:00Z</time>
      </trkpt>
      <trkpt lat="47.81345" lon="-3.5662">
        <ele>55</ele>
        <time>2019-07-17T16:33:01Z</time>
      </trkpt>
      <trkpt lat="47.81347" lon="-3.56616">
        <ele>55</ele>
        <time>2019-07-17T16:33:02Z</time>
      </trkpt>
      <trkpt lat="47.8135" lon="-3.56612">
        <ele>55</ele>
        <time>2019-07-17T16:33:03Z</time>
      </trkpt>
      <trkpt lat="47.81352" lon="-3.56608">
        <ele>55</ele>
        <time>2019-07-17T16:33:04Z</time>
      </trkpt>
      <trkpt lat="47.81354" lon="-3.56604">
        <ele>55</ele>
        <time>2019-07-17T16:33:05Z</time>
      </trkpt>
      <trkpt lat="47.81357" lon="-3.566">
        <ele>55</ele>
        <time>2019-07-17T16:33:06Z</time>
      </trkpt>
      <trkpt lat="47.8136" lon="-3.56596">
        <ele>55</ele>
        <time>2019-07-17T16:33:07Z</time>
      </trkpt>
      <trkpt lat="47.81363" lon="-3.56592">
        <ele>55</ele>
        <time>2019-07-17T16:33:08Z</time>
      </trkpt>
      <trkpt lat="47.81366" lon="-3.56588">
        <ele>55</ele>
        <time>2019-07-17T16:33:09Z</time>
      </trkpt>
      <trkpt lat="47.81369" lon="-3.56583">
        <ele>55</ele>
        <time>2019-07-17T16:33:10Z</time>
      </trkpt>
      <trkpt lat="47.81372" lon="-3.56577">
        <ele>55</ele>
        <time>2019-07-17T16:33:11Z</time>
      </trkpt>
      <trkpt lat="47.81375" lon="-3.56572">
        <ele>55</ele>
        <time>2019-07-17T16:33:12Z</time>
      </trkpt>
      <trkpt lat="47.81378" lon="-3.56566">
        <ele>56</ele>
        <time>2019-07-17T16:33:13Z</time>
      </trkpt>
      <trkpt lat="47.81382" lon="-3.5656">
        <ele>56</ele>
        <time>2019-07-17T16:33:14Z</time>
      </trkpt>
      <trkpt lat="47.81386" lon="-3.56555">
        <ele>56</ele>
        <time>2019-07-17T16:33:15Z</time>
      </trkpt>
      <trkpt lat="47.8139" lon="-3.5655">
        <ele>56</ele>
        <time>2019-07-17T16:33:16Z</time>
      </trkpt>
      <trkpt lat="47.81394" lon="-3.56545">
        <ele>56</ele>
        <time>2019-07-17T16:33:17Z</time>
      </trkpt>
      <trkpt lat="47.81398" lon="-3.56539">
        <ele>56</ele>
        <time>2019-07-17T16:33:18Z</time>
      </trkpt>
      <trkpt lat="47.81402" lon="-3.56534">
        <ele>56</ele>
        <time>2019-07-17T16:33:19Z</time>
      </trkpt>
      <trkpt lat="47.81406" lon="-3.56528">
        <ele>57</ele>
        <time>2019-07-17T16:33:20Z</time>
      </trkpt>
      <trkpt lat="47.81409" lon="-3.56523">
        <ele>57</ele>
        <time>2019-07-17T16:33:21Z</time>
      </trkpt>
      <trkpt lat="47.81413" lon="-3.56518">
        <ele>57</ele>
        <time>2019-07-17T16:33:22Z</time>
      </trkpt>
      <trkpt lat="47.81417" lon="-3.56512">
        <ele>57</ele>
        <time>2019-07-17T16:33:23Z</time>
      </trkpt>
      <trkpt lat="47.8142" lon="-3.56506">
        <ele>57</ele>
        <time>2019-07-17T16:33:24Z</time>
      </trkpt>
      <trkpt lat="47.81424" lon="-3.56499">
        <ele>57</ele>
        <time>2019-07-17T16:33:25Z</time>
      </trkpt>
      <trkpt lat="47.81428" lon="-3.56493">
        <ele>58</ele>
        <time>2019-07-17T16:33:26Z</time>
      </trkpt>
      <trkpt lat="47.81432" lon="-3.56486">
        <ele>58</ele>
        <time>2019-07-17T16:33:27Z</time>
      </trkpt>
      <trkpt lat="47.81436" lon="-3.5648">
        <ele>58</ele>
        <time>2019-07-17T16:33:28Z</time>
      </trkpt>
      <trkpt lat="47.8144" lon="-3.56473">
        <ele>58</ele>
        <time>2019-07-17T16:33:29Z</time>
      </trkpt>
      <trkpt lat="47.81444" lon="-3.56466">
        <ele>58</ele>
        <time>2019-07-17T16:33:30Z</time>
      </trkpt>
      <trkpt lat="47.81448" lon="-3.5646">
        <ele>58</ele>
        <time>2019-07-17T16:33:31Z</time>
      </trkpt>
      <trkpt lat="47.81452" lon="-3.56453">
        <ele>58</ele>
        <time>2019-07-17T16:33:32Z</time>
      </trkpt>
      <trkpt lat="47.81456" lon="-3.56447">
        <ele>58</ele>
        <time>2019-07-17T16:33:33Z</time>
      </trkpt>
      <trkpt lat="47.8146" lon="-3.5644">
        <ele>58</ele>
        <time>2019-07-17T16:33:34Z</time>
      </trkpt>
      <trkpt lat="47.81464" lon="-3.56433">
        <ele>58</ele>
        <time>2019-07-17T16:33:35Z</time>
      </trkpt>
      <trkpt lat="47.81468" lon="-3.56427">
        <ele>58</ele>
        <time>2019-07-17T16:33:36Z</time>
      </trkpt>
      <trkpt lat="47.81472" lon="-3.5642">
        <ele>59</ele>
        <time>2019-07-17T16:33:37Z</time>
      </trkpt>
      <trkpt lat="47.81476" lon="-3.56413">
        <ele>59</ele>
        <time>2019-07-17T16:33:38Z</time>
      </trkpt>
      <trkpt lat="47.8148" lon="-3.56406">
        <ele>59</ele>
        <time>2019-07-17T16:33:39Z</time>
      </trkpt>
      <trkpt lat="47.81484" lon="-3.564">
        <ele>59</ele>
        <time>2019-07-17T16:33:40Z</time>
      </trkpt>
      <trkpt lat="47.81488" lon="-3.56393">
        <ele>59</ele>
        <time>2019-07-17T16:33:41Z</time>
      </trkpt>
      <trkpt lat="47.81492" lon="-3.56387">
        <ele>59</ele>
        <time>2019-07-17T16:33:42Z</time>
      </trkpt>
      <trkpt lat="47.81496" lon="-3.5638">
        <ele>59</ele>
        <time>2019-07-17T16:33:43Z</time>
      </trkpt>
      <trkpt lat="47.815" lon="-3.56372">
        <ele>59</ele>
        <time>2019-07-17T16:33:44Z</time>
      </trkpt>
      <trkpt lat="47.81504" lon="-3.56365">
        <ele>59</ele>
        <time>2019-07-17T16:33:45Z</time>
      </trkpt>
      <trkpt lat="47.81508" lon="-3.56358">
        <ele>59</ele>
        <time>2019-07-17T16:33:46Z</time>
      </trkpt>
      <trkpt lat="47.81512" lon="-3.56351">
        <ele>60</ele>
        <time>2019-07-17T16:33:47Z</time>
      </trkpt>
      <trkpt lat="47.81517" lon="-3.56344">
        <ele>60</ele>
        <time>2019-07-17T16:33:48Z</time>
      </trkpt>
      <trkpt lat="47.81521" lon="-3.56338">
        <ele>60</ele>
        <time>2019-07-17T16:33:49Z</time>
      </trkpt>
      <trkpt lat="47.81525" lon="-3.5633">
        <ele>60</ele>
        <time>2019-07-17T16:33:50Z</time>
      </trkpt>
      <trkpt lat="47.81527" lon="-3.56322">
        <ele>60</ele>
        <time>2019-07-17T16:33:51Z</time>
      </trkpt>
      <trkpt lat="47.81527" lon="-3.56314">
        <ele>59</ele>
        <time>2019-07-17T16:33:52Z</time>
      </trkpt>
      <trkpt lat="47.81524" lon="-3.56306">
        <ele>59</ele>
        <time>2019-07-17T16:33:53Z</time>
      </trkpt>
      <trkpt lat="47.8152" lon="-3.56301">
        <ele>59</ele>
        <time>2019-07-17T16:33:54Z</time>
      </trkpt>
      <trkpt lat="47.81515" lon="-3.56298">
        <ele>59</ele>
        <time>2019-07-17T16:33:55Z</time>
      </trkpt>
      <trkpt lat="47.8151" lon="-3.56295">
        <ele>59</ele>
        <time>2019-07-17T16:33:56Z</time>
      </trkpt>
      <trkpt lat="47.81505" lon="-3.56291">
        <ele>59</ele>
        <time>2019-07-17T16:33:57Z</time>
      </trkpt>
      <trkpt lat="47.81501" lon="-3.56287">
        <ele>59</ele>
        <time>2019-07-17T16:33:58Z</time>
      </trkpt>
      <trkpt lat="47.81495" lon="-3.56283">
        <ele>59</ele>
        <time>2019-07-17T16:33:59Z</time>
      </trkpt>
      <trkpt lat="47.81491" lon="-3.56279">
        <ele>59</ele>
        <time>2019-07-17T16:34:00Z</time>
      </trkpt>
      <trkpt lat="47.81485" lon="-3.56276">
        <ele>59</ele>
        <time>2019-07-17T16:34:01Z</time>
      </trkpt>
      <trkpt lat="47.81481" lon="-3.56272">
        <ele>59</ele>
        <time>2019-07-17T16:34:02Z</time>
      </trkpt>
      <trkpt lat="47.81476" lon="-3.56268">
        <ele>59</ele>
        <time>2019-07-17T16:34:03Z</time>
      </trkpt>
      <trkpt lat="47.81471" lon="-3.56264">
        <ele>59</ele>
        <time>2019-07-17T16:34:04Z</time>
      </trkpt>
      <trkpt lat="47.81466" lon="-3.5626">
        <ele>59</ele>
        <time>2019-07-17T16:34:05Z</time>
      </trkpt>
      <trkpt lat="47.81461" lon="-3.56256">
        <ele>59</ele>
        <time>2019-07-17T16:34:06Z</time>
      </trkpt>
      <trkpt lat="47.81456" lon="-3.56252">
        <ele>59</ele>
        <time>2019-07-17T16:34:07Z</time>
      </trkpt>
      <trkpt lat="47.81451" lon="-3.56248">
        <ele>59</ele>
        <time>2019-07-17T16:34:08Z</time>
      </trkpt>
      <trkpt lat="47.81446" lon="-3.56244">
        <ele>59</ele>
        <time>2019-07-17T16:34:09Z</time>
      </trkpt>
      <trkpt lat="47.81441" lon="-3.5624">
        <ele>59</ele>
        <time>2019-07-17T16:34:10Z</time>
      </trkpt>
      <trkpt lat="47.81435" lon="-3.56236">
        <ele>59</ele>
        <time>2019-07-17T16:34:11Z</time>
      </trkpt>
      <trkpt lat="47.8143" lon="-3.56232">
        <ele>59</ele>
        <time>2019-07-17T16:34:12Z</time>
      </trkpt>
      <trkpt lat="47.81425" lon="-3.56228">
        <ele>59</ele>
        <time>2019-07-17T16:34:13Z</time>
      </trkpt>
      <trkpt lat="47.81419" lon="-3.56223">
        <ele>59</ele>
        <time>2019-07-17T16:34:14Z</time>
      </trkpt>
      <trkpt lat="47.81414" lon="-3.56218">
        <ele>59</ele>
        <time>2019-07-17T16:34:15Z</time>
      </trkpt>
      <trkpt lat="47.81409" lon="-3.56214">
        <ele>59</ele>
        <time>2019-07-17T16:34:16Z</time>
      </trkpt>
      <trkpt lat="47.81403" lon="-3.56209">
        <ele>59</ele>
        <time>2019-07-17T16:34:17Z</time>
      </trkpt>
      <trkpt lat="47.81398" lon="-3.56204">
        <ele>59</ele>
        <time>2019-07-17T16:34:18Z</time>
      </trkpt>
      <trkpt lat="47.81393" lon="-3.562">
        <ele>59</ele>
        <time>2019-07-17T16:34:19Z</time>
      </trkpt>
      <trkpt lat="47.81389" lon="-3.56195">
        <ele>59</ele>
        <time>2019-07-17T16:34:20Z</time>
      </trkpt>
      <trkpt lat="47.81384" lon="-3.5619">
        <ele>59</ele>
        <time>2019-07-17T16:34:21Z</time>
      </trkpt>
      <trkpt lat="47.81379" lon="-3.56186">
        <ele>59</ele>
        <time>2019-07-17T16:34:22Z</time>
      </trkpt>
      <trkpt lat="47.81375" lon="-3.56182">
        <ele>59</ele>
        <time>2019-07-17T16:34:23Z</time>
      </trkpt>
      <trkpt lat="47.81371" lon="-3.56178">
        <ele>59</ele>
        <time>2019-07-17T16:34:24Z</time>
      </trkpt>
      <trkpt lat="47.81367" lon="-3.56174">
        <ele>59</ele>
        <time>2019-07-17T16:34:25Z</time>
      </trkpt>
      <trkpt lat="47.81363" lon="-3.56169">
        <ele>60</ele>
        <time>2019-07-17T16:34:26Z</time>
      </trkpt>
      <trkpt lat="47.81358" lon="-3.56165">
        <ele>60</ele>
        <time>2019-07-17T16:34:27Z</time>
      </trkpt>
      <trkpt lat="47.81354" lon="-3.56161">
        <ele>60</ele>
        <time>2019-07-17T16:34:28Z</time>
      </trkpt>
      <trkpt lat="47.81349" lon="-3.56157">
        <ele>59</ele>
        <time>2019-07-17T16:34:29Z</time>
      </trkpt>
      <trkpt lat="47.81344" lon="-3.56153">
        <ele>59</ele>
        <time>2019-07-17T16:34:30Z</time>
      </trkpt>
      <trkpt lat="47.81339" lon="-3.56148">
        <ele>59</ele>
        <time>2019-07-17T16:34:31Z</time>
      </trkpt>
      <trkpt lat="47.81334" lon="-3.56144">
        <ele>59</ele>
        <time>2019-07-17T16:34:32Z</time>
      </trkpt>
      <trkpt lat="47.81329" lon="-3.5614">
        <ele>59</ele>
        <time>2019-07-17T16:34:33Z</time>
      </trkpt>
      <trkpt lat="47.81324" lon="-3.56135">
        <ele>59</ele>
        <time>2019-07-17T16:34:34Z</time>
      </trkpt>
      <trkpt lat="47.81319" lon="-3.5613">
        <ele>59</ele>
        <time>2019-07-17T16:34:35Z</time>
      </trkpt>
      <trkpt lat="47.81314" lon="-3.56126">
        <ele>59</ele>
        <time>2019-07-17T16:34:36Z</time>
      </trkpt>
      <trkpt lat="47.81309" lon="-3.56121">
        <ele>59</ele>
        <time>2019-07-17T16:34:37Z</time>
      </trkpt>
      <trkpt lat="47.81304" lon="-3.56116">
        <ele>59</ele>
        <time>2019-07-17T16:34:38Z</time>
      </trkpt>
      <trkpt lat="47.81299" lon="-3.56112">
        <ele>59</ele>
        <time>2019-07-17T16:34:39Z</time>
      </trkpt>
      <trkpt lat="47.81294" lon="-3.56107">
        <ele>59</ele>
        <time>2019-07-17T16:34:40Z</time>
      </trkpt>
      <trkpt lat="47.81288" lon="-3.56102">
        <ele>59</ele>
        <time>2019-07-17T16:34:41Z</time>
      </trkpt>
      <trkpt lat="47.81283" lon="-3.56098">
        <ele>59</ele>
        <time>2019-07-17T16:34:42Z</time>
      </trkpt>
      <trkpt lat="47.81278" lon="-3.56092">
        <ele>59</ele>
        <time>2019-07-17T16:34:43Z</time>
      </trkpt>
      <trkpt lat="47.81272" lon="-3.56088">
        <ele>59</ele>
        <time>2019-07-17T16:34:44Z</time>
      </trkpt>
      <trkpt lat="47.81267" lon="-3.56082">
        <ele>59</ele>
        <time>2019-07-17T16:34:45Z</time>
      </trkpt>
      <trkpt lat="47.81261" lon="-3.56077">
        <ele>59</ele>
        <time>2019-07-17T16:34:46Z</time>
      </trkpt>
      <trkpt lat="47.81256" lon="-3.56072">
        <ele>59</ele>
        <time>2019-07-17T16:34:47Z</time>
      </trkpt>
      <trkpt lat="47.8125" lon="-3.56067">
        <ele>59</ele>
        <time>2019-07-17T16:34:48Z</time>
      </trkpt>
      <trkpt lat="47.81245" lon="-3.56062">
        <ele>59</ele>
        <time>2019-07-17T16:34:49Z</time>
      </trkpt>
      <trkpt lat="47.81239" lon="-3.56057">
        <ele>59</ele>
        <time>2019-07-17T16:34:50Z</time>
      </trkpt>
      <trkpt lat="47.81234" lon="-3.56052">
        <ele>58</ele>
        <time>2019-07-17T16:34:51Z</time>
      </trkpt>
      <trkpt lat="47.81229" lon="-3.56048">
        <ele>58</ele>
        <time>2019-07-17T16:34:52Z</time>
      </trkpt>
      <trkpt lat="47.81226" lon="-3.56047">
        <ele>58</ele>
        <time>2019-07-17T16:34:53Z</time>
      </trkpt>
      <trkpt lat="47.81224" lon="-3.56048">
        <ele>58</ele>
        <time>2019-07-17T16:34:54Z</time>
      </trkpt>
      <trkpt lat="47.81222" lon="-3.56052">
        <ele>58</ele>
        <time>2019-07-17T16:34:55Z</time>
      </trkpt>
      <trkpt lat="47.8122" lon="-3.56056">
        <ele>58</ele>
        <time>2019-07-17T16:34:56Z</time>
      </trkpt>
      <trkpt lat="47.81218" lon="-3.5606">
        <ele>58</ele>
        <time>2019-07-17T16:34:57Z</time>
      </trkpt>
      <trkpt lat="47.81216" lon="-3.56063">
        <ele>58</ele>
        <time>2019-07-17T16:34:58Z</time>
      </trkpt>
      <trkpt lat="47.81213" lon="-3.56068">
        <ele>58</ele>
        <time>2019-07-17T16:34:59Z</time>
      </trkpt>
      <trkpt lat="47.8121" lon="-3.56072">
        <ele>58</ele>
        <time>2019-07-17T16:35:00Z</time>
      </trkpt>
      <trkpt lat="47.81207" lon="-3.56077">
        <ele>58</ele>
        <time>2019-07-17T16:35:01Z</time>
      </trkpt>
      <trkpt lat="47.81205" lon="-3.56083">
        <ele>58</ele>
        <time>2019-07-17T16:35:02Z</time>
      </trkpt>
      <trkpt lat="47.81202" lon="-3.56089">
        <ele>58</ele>
        <time>2019-07-17T16:35:03Z</time>
      </trkpt>
      <trkpt lat="47.81199" lon="-3.56096">
        <ele>58</ele>
        <time>2019-07-17T16:35:04Z</time>
      </trkpt>
      <trkpt lat="47.81196" lon="-3.56103">
        <ele>58</ele>
        <time>2019-07-17T16:35:05Z</time>
      </trkpt>
      <trkpt lat="47.81194" lon="-3.5611">
        <ele>58</ele>
        <time>2019-07-17T16:35:06Z</time>
      </trkpt>
      <trkpt lat="47.81191" lon="-3.56116">
        <ele>58</ele>
        <time>2019-07-17T16:35:07Z</time>
      </trkpt>
      <trkpt lat="47.81189" lon="-3.56123">
        <ele>58</ele>
        <time>2019-07-17T16:35:08Z</time>
      </trkpt>
      <trkpt lat="47.81186" lon="-3.56129">
        <ele>58</ele>
        <time>2019-07-17T16:35:09Z</time>
      </trkpt>
      <trkpt lat="47.81184" lon="-3.56135">
        <ele>58</ele>
        <time>2019-07-17T16:35:10Z</time>
      </trkpt>
      <trkpt lat="47.81182" lon="-3.56142">
        <ele>58</ele>
        <time>2019-07-17T16:35:11Z</time>
      </trkpt>
      <trkpt lat="47.81179" lon="-3.56148">
        <ele>58</ele>
        <time>2019-07-17T16:35:12Z</time>
      </trkpt>
      <trkpt lat="47.81176" lon="-3.56154">
        <ele>58</ele>
        <time>2019-07-17T16:35:13Z</time>
      </trkpt>
      <trkpt lat="47.81174" lon="-3.56161">
        <ele>58</ele>
        <time>2019-07-17T16:35:14Z</time>
      </trkpt>
      <trkpt lat="47.81172" lon="-3.56167">
        <ele>58</ele>
        <time>2019-07-17T16:35:15Z</time>
      </trkpt>
      <trkpt lat="47.81169" lon="-3.56174">
        <ele>57</ele>
        <time>2019-07-17T16:35:16Z</time>
      </trkpt>
      <trkpt lat="47.81167" lon="-3.56181">
        <ele>58</ele>
        <time>2019-07-17T16:35:17Z</time>
      </trkpt>
      <trkpt lat="47.81165" lon="-3.56188">
        <ele>57</ele>
        <time>2019-07-17T16:35:18Z</time>
      </trkpt>
      <trkpt lat="47.81163" lon="-3.56195">
        <ele>57</ele>
        <time>2019-07-17T16:35:19Z</time>
      </trkpt>
      <trkpt lat="47.81161" lon="-3.56203">
        <ele>57</ele>
        <time>2019-07-17T16:35:20Z</time>
      </trkpt>
      <trkpt lat="47.81159" lon="-3.5621">
        <ele>57</ele>
        <time>2019-07-17T16:35:21Z</time>
      </trkpt>
      <trkpt lat="47.81157" lon="-3.56218">
        <ele>57</ele>
        <time>2019-07-17T16:35:22Z</time>
      </trkpt>
      <trkpt lat="47.81155" lon="-3.56226">
        <ele>57</ele>
        <time>2019-07-17T16:35:23Z</time>
      </trkpt>
      <trkpt lat="47.81153" lon="-3.56233">
        <ele>57</ele>
        <time>2019-07-17T16:35:24Z</time>
      </trkpt>
      <trkpt lat="47.81151" lon="-3.56241">
        <ele>57</ele>
        <time>2019-07-17T16:35:25Z</time>
      </trkpt>
      <trkpt lat="47.81148" lon="-3.56247">
        <ele>57</ele>
        <time>2019-07-17T16:35:26Z</time>
      </trkpt>
      <trkpt lat="47.81145" lon="-3.56253">
        <ele>57</ele>
        <time>2019-07-17T16:35:27Z</time>
      </trkpt>
      <trkpt lat="47.81141" lon="-3.56257">
        <ele>57</ele>
        <time>2019-07-17T16:35:28Z</time>
      </trkpt>
      <trkpt lat="47.81137" lon="-3.56262">
        <ele>57</ele>
        <time>2019-07-17T16:35:29Z</time>
      </trkpt>
      <trkpt lat="47.81133" lon="-3.56266">
        <ele>57</ele>
        <time>2019-07-17T16:35:30Z</time>
      </trkpt>
      <trkpt lat="47.81129" lon="-3.56269">
        <ele>57</ele>
        <time>2019-07-17T16:35:31Z</time>
      </trkpt>
      <trkpt lat="47.81124" lon="-3.56273">
        <ele>57</ele>
        <time>2019-07-17T16:35:32Z</time>
      </trkpt>
      <trkpt lat="47.8112" lon="-3.56278">
        <ele>57</ele>
        <time>2019-07-17T16:35:33Z</time>
      </trkpt>
      <trkpt lat="47.81116" lon="-3.56282">
        <ele>57</ele>
        <time>2019-07-17T16:35:34Z</time>
      </trkpt>
      <trkpt lat="47.81112" lon="-3.56285">
        <ele>58</ele>
        <time>2019-07-17T16:35:35Z</time>
      </trkpt>
      <trkpt lat="47.81107" lon="-3.5629">
        <ele>58</ele>
        <time>2019-07-17T16:35:36Z</time>
      </trkpt>
      <trkpt lat="47.81103" lon="-3.56294">
        <ele>58</ele>
        <time>2019-07-17T16:35:37Z</time>
      </trkpt>
      <trkpt lat="47.81098" lon="-3.56298">
        <ele>58</ele>
        <time>2019-07-17T16:35:38Z</time>
      </trkpt>
      <trkpt lat="47.81093" lon="-3.56302">
        <ele>58</ele>
        <time>2019-07-17T16:35:39Z</time>
      </trkpt>
      <trkpt lat="47.81088" lon="-3.56305">
        <ele>58</ele>
        <time>2019-07-17T16:35:40Z</time>
      </trkpt>
      <trkpt lat="47.81083" lon="-3.56306">
        <ele>58</ele>
        <time>2019-07-17T16:35:41Z</time>
      </trkpt>
      <trkpt lat="47.81078" lon="-3.56307">
        <ele>58</ele>
        <time>2019-07-17T16:35:42Z</time>
      </trkpt>
      <trkpt lat="47.81074" lon="-3.56308">
        <ele>58</ele>
        <time>2019-07-17T16:35:43Z</time>
      </trkpt>
      <trkpt lat="47.81069" lon="-3.5631">
        <ele>58</ele>
        <time>2019-07-17T16:35:44Z</time>
      </trkpt>
      <trkpt lat="47.81065" lon="-3.56311">
        <ele>59</ele>
        <time>2019-07-17T16:35:45Z</time>
      </trkpt>
      <trkpt lat="47.8106" lon="-3.56312">
        <ele>59</ele>
        <time>2019-07-17T16:35:46Z</time>
      </trkpt>
      <trkpt lat="47.81055" lon="-3.56312">
        <ele>59</ele>
        <time>2019-07-17T16:35:47Z</time>
      </trkpt>
      <trkpt lat="47.81051" lon="-3.56313">
        <ele>59</ele>
        <time>2019-07-17T16:35:48Z</time>
      </trkpt>
      <trkpt lat="47.81046" lon="-3.56313">
        <ele>59</ele>
        <time>2019-07-17T16:35:49Z</time>
      </trkpt>
      <trkpt lat="47.8104" lon="-3.56314">
        <ele>60</ele>
        <time>2019-07-17T16:35:50Z</time>
      </trkpt>
      <trkpt lat="47.81035" lon="-3.56315">
        <ele>60</ele>
        <time>2019-07-17T16:35:51Z</time>
      </trkpt>
      <trkpt lat="47.8103" lon="-3.56315">
        <ele>60</ele>
        <time>2019-07-17T16:35:52Z</time>
      </trkpt>
      <trkpt lat="47.81025" lon="-3.56315">
        <ele>60</ele>
        <time>2019-07-17T16:35:53Z</time>
      </trkpt>
      <trkpt lat="47.8102" lon="-3.56315">
        <ele>60</ele>
        <time>2019-07-17T16:35:54Z</time>
      </trkpt>
      <trkpt lat="47.81015" lon="-3.56314">
        <ele>60</ele>
        <time>2019-07-17T16:35:55Z</time>
      </trkpt>
      <trkpt lat="47.8101" lon="-3.56312">
        <ele>60</ele>
        <time>2019-07-17T16:35:56Z</time>
      </trkpt>
      <trkpt lat="47.81005" lon="-3.56309">
        <ele>60</ele>
        <time>2019-07-17T16:35:57Z</time>
      </trkpt>
      <trkpt lat="47.80999" lon="-3.56307">
        <ele>60</ele>
        <time>2019-07-17T16:35:58Z</time>
      </trkpt>
      <trkpt lat="47.80993" lon="-3.56305">
        <ele>60</ele>
        <time>2019-07-17T16:35:59Z</time>
      </trkpt>
      <trkpt lat="47.80988" lon="-3.56302">
        <ele>60</ele>
        <time>2019-07-17T16:36:00Z</time>
      </trkpt>
      <trkpt lat="47.80982" lon="-3.563">
        <ele>60</ele>
        <time>2019-07-17T16:36:01Z</time>
      </trkpt>
      <trkpt lat="47.80977" lon="-3.56299">
        <ele>59</ele>
        <time>2019-07-17T16:36:02Z</time>
      </trkpt>
      <trkpt lat="47.80972" lon="-3.56298">
        <ele>59</ele>
        <time>2019-07-17T16:36:03Z</time>
      </trkpt>
      <trkpt lat="47.80966" lon="-3.56297">
        <ele>59</ele>
        <time>2019-07-17T16:36:04Z</time>
      </trkpt>
      <trkpt lat="47.8096" lon="-3.56297">
        <ele>59</ele>
        <time>2019-07-17T16:36:05Z</time>
      </trkpt>
      <trkpt lat="47.80955" lon="-3.56297">
        <ele>59</ele>
        <time>2019-07-17T16:36:06Z</time>
      </trkpt>
      <trkpt lat="47.80949" lon="-3.56297">
        <ele>59</ele>
        <time>2019-07-17T16:36:07Z</time>
      </trkpt>
      <trkpt lat="47.80943" lon="-3.56297">
        <ele>59</ele>
        <time>2019-07-17T16:36:08Z</time>
      </trkpt>
      <trkpt lat="47.80937" lon="-3.56297">
        <ele>59</ele>
        <time>2019-07-17T16:36:09Z</time>
      </trkpt>
      <trkpt lat="47.80931" lon="-3.56298">
        <ele>59</ele>
        <time>2019-07-17T16:36:10Z</time>
      </trkpt>
      <trkpt lat="47.80924" lon="-3.56299">
        <ele>59</ele>
        <time>2019-07-17T16:36:11Z</time>
      </trkpt>
      <trkpt lat="47.80919" lon="-3.56301">
        <ele>59</ele>
        <time>2019-07-17T16:36:12Z</time>
      </trkpt>
      <trkpt lat="47.80913" lon="-3.56303">
        <ele>59</ele>
        <time>2019-07-17T16:36:13Z</time>
      </trkpt>
      <trkpt lat="47.80907" lon="-3.56305">
        <ele>59</ele>
        <time>2019-07-17T16:36:14Z</time>
      </trkpt>
      <trkpt lat="47.80902" lon="-3.56307">
        <ele>59</ele>
        <time>2019-07-17T16:36:15Z</time>
      </trkpt>
      <trkpt lat="47.80896" lon="-3.56309">
        <ele>59</ele>
        <time>2019-07-17T16:36:16Z</time>
      </trkpt>
      <trkpt lat="47.80891" lon="-3.56312">
        <ele>59</ele>
        <time>2019-07-17T16:36:17Z</time>
      </trkpt>
      <trkpt lat="47.80885" lon="-3.56313">
        <ele>59</ele>
        <time>2019-07-17T16:36:18Z</time>
      </trkpt>
      <trkpt lat="47.8088" lon="-3.56315">
        <ele>59</ele>
        <time>2019-07-17T16:36:19Z</time>
      </trkpt>
      <trkpt lat="47.80874" lon="-3.56316">
        <ele>59</ele>
        <time>2019-07-17T16:36:20Z</time>
      </trkpt>
      <trkpt lat="47.80869" lon="-3.56318">
        <ele>59</ele>
        <time>2019-07-17T16:36:21Z</time>
      </trkpt>
      <trkpt lat="47.80863" lon="-3.56321">
        <ele>59</ele>
        <time>2019-07-17T16:36:22Z</time>
      </trkpt>
      <trkpt lat="47.80857" lon="-3.56323">
        <ele>59</ele>
        <time>2019-07-17T16:36:23Z</time>
      </trkpt>
      <trkpt lat="47.80851" lon="-3.56325">
        <ele>59</ele>
        <time>2019-07-17T16:36:24Z</time>
      </trkpt>
      <trkpt lat="47.80845" lon="-3.56327">
        <ele>59</ele>
        <time>2019-07-17T16:36:25Z</time>
      </trkpt>
      <trkpt lat="47.80839" lon="-3.56328">
        <ele>59</ele>
        <time>2019-07-17T16:36:26Z</time>
      </trkpt>
      <trkpt lat="47.80833" lon="-3.56331">
        <ele>59</ele>
        <time>2019-07-17T16:36:27Z</time>
      </trkpt>
      <trkpt lat="47.80827" lon="-3.56333">
        <ele>59</ele>
        <time>2019-07-17T16:36:28Z</time>
      </trkpt>
      <trkpt lat="47.80822" lon="-3.56337">
        <ele>60</ele>
        <time>2019-07-17T16:36:29Z</time>
      </trkpt>
      <trkpt lat="47.80816" lon="-3.56341">
        <ele>60</ele>
        <time>2019-07-17T16:36:30Z</time>
      </trkpt>
      <trkpt lat="47.80812" lon="-3.56345">
        <ele>60</ele>
        <time>2019-07-17T16:36:31Z</time>
      </trkpt>
      <trkpt lat="47.80807" lon="-3.56349">
        <ele>60</ele>
        <time>2019-07-17T16:36:32Z</time>
      </trkpt>
      <trkpt lat="47.80802" lon="-3.56353">
        <ele>60</ele>
        <time>2019-07-17T16:36:33Z</time>
      </trkpt>
      <trkpt lat="47.80797" lon="-3.56357">
        <ele>60</ele>
        <time>2019-07-17T16:36:34Z</time>
      </trkpt>
      <trkpt lat="47.80792" lon="-3.56361">
        <ele>60</ele>
        <time>2019-07-17T16:36:35Z</time>
      </trkpt>
      <trkpt lat="47.80787" lon="-3.56365">
        <ele>60</ele>
        <time>2019-07-17T16:36:36Z</time>
      </trkpt>
      <trkpt lat="47.80782" lon="-3.56368">
        <ele>60</ele>
        <time>2019-07-17T16:36:37Z</time>
      </trkpt>
      <trkpt lat="47.80777" lon="-3.56372">
        <ele>60</ele>
        <time>2019-07-17T16:36:38Z</time>
      </trkpt>
      <trkpt lat="47.80772" lon="-3.56377">
        <ele>60</ele>
        <time>2019-07-17T16:36:39Z</time>
      </trkpt>
      <trkpt lat="47.80767" lon="-3.56381">
        <ele>60</ele>
        <time>2019-07-17T16:36:40Z</time>
      </trkpt>
      <trkpt lat="47.80763" lon="-3.56385">
        <ele>61</ele>
        <time>2019-07-17T16:36:41Z</time>
      </trkpt>
      <trkpt lat="47.80758" lon="-3.5639">
        <ele>61</ele>
        <time>2019-07-17T16:36:42Z</time>
      </trkpt>
      <trkpt lat="47.80753" lon="-3.56394">
        <ele>61</ele>
        <time>2019-07-17T16:36:43Z</time>
      </trkpt>
      <trkpt lat="47.80748" lon="-3.56399">
        <ele>61</ele>
        <time>2019-07-17T16:36:44Z</time>
      </trkpt>
      <trkpt lat="47.80743" lon="-3.56403">
        <ele>61</ele>
        <time>2019-07-17T16:36:45Z</time>
      </trkpt>
      <trkpt lat="47.80737" lon="-3.56408">
        <ele>61</ele>
        <time>2019-07-17T16:36:46Z</time>
      </trkpt>
      <trkpt lat="47.80733" lon="-3.56413">
        <ele>61</ele>
        <time>2019-07-17T16:36:47Z</time>
      </trkpt>
      <trkpt lat="47.80727" lon="-3.56417">
        <ele>61</ele>
        <time>2019-07-17T16:36:48Z</time>
      </trkpt>
      <trkpt lat="47.80722" lon="-3.56421">
        <ele>61</ele>
        <time>2019-07-17T16:36:49Z</time>
      </trkpt>
      <trkpt lat="47.80717" lon="-3.56426">
        <ele>61</ele>
        <time>2019-07-17T16:36:50Z</time>
      </trkpt>
      <trkpt lat="47.80711" lon="-3.56431">
        <ele>61</ele>
        <time>2019-07-17T16:36:51Z</time>
      </trkpt>
      <trkpt lat="47.80705" lon="-3.56437">
        <ele>61</ele>
        <time>2019-07-17T16:36:52Z</time>
      </trkpt>
      <trkpt lat="47.80699" lon="-3.56443">
        <ele>61</ele>
        <time>2019-07-17T16:36:53Z</time>
      </trkpt>
      <trkpt lat="47.80694" lon="-3.56447">
        <ele>62</ele>
        <time>2019-07-17T16:36:54Z</time>
      </trkpt>
      <trkpt lat="47.80688" lon="-3.56452">
        <ele>62</ele>
        <time>2019-07-17T16:36:55Z</time>
      </trkpt>
      <trkpt lat="47.80683" lon="-3.56458">
        <ele>62</ele>
        <time>2019-07-17T16:36:56Z</time>
      </trkpt>
      <trkpt lat="47.80678" lon="-3.56463">
        <ele>62</ele>
        <time>2019-07-17T16:36:57Z</time>
      </trkpt>
      <trkpt lat="47.80674" lon="-3.5647">
        <ele>62</ele>
        <time>2019-07-17T16:36:58Z</time>
      </trkpt>
      <trkpt lat="47.8067" lon="-3.56477">
        <ele>62</ele>
        <time>2019-07-17T16:36:59Z</time>
      </trkpt>
      <trkpt lat="47.80665" lon="-3.56484">
        <ele>63</ele>
        <time>2019-07-17T16:37:00Z</time>
      </trkpt>
      <trkpt lat="47.80661" lon="-3.56491">
        <ele>63</ele>
        <time>2019-07-17T16:37:01Z</time>
      </trkpt>
      <trkpt lat="47.80656" lon="-3.56499">
        <ele>63</ele>
        <time>2019-07-17T16:37:02Z</time>
      </trkpt>
      <trkpt lat="47.80651" lon="-3.56506">
        <ele>63</ele>
        <time>2019-07-17T16:37:03Z</time>
      </trkpt>
      <trkpt lat="47.80646" lon="-3.56513">
        <ele>63</ele>
        <time>2019-07-17T16:37:04Z</time>
      </trkpt>
      <trkpt lat="47.80641" lon="-3.56519">
        <ele>63</ele>
        <time>2019-07-17T16:37:05Z</time>
      </trkpt>
      <trkpt lat="47.80637" lon="-3.56527">
        <ele>63</ele>
        <time>2019-07-17T16:37:06Z</time>
      </trkpt>
      <trkpt lat="47.80632" lon="-3.56534">
        <ele>63</ele>
        <time>2019-07-17T16:37:07Z</time>
      </trkpt>
      <trkpt lat="47.80628" lon="-3.56541">
        <ele>63</ele>
        <time>2019-07-17T16:37:08Z</time>
      </trkpt>
      <trkpt lat="47.80624" lon="-3.56548">
        <ele>63</ele>
        <time>2019-07-17T16:37:09Z</time>
      </trkpt>
      <trkpt lat="47.80619" lon="-3.56554">
        <ele>64</ele>
        <time>2019-07-17T16:37:10Z</time>
      </trkpt>
      <trkpt lat="47.80615" lon="-3.56561">
        <ele>64</ele>
        <time>2019-07-17T16:37:11Z</time>
      </trkpt>
      <trkpt lat="47.80611" lon="-3.56567">
        <ele>63</ele>
        <time>2019-07-17T16:37:12Z</time>
      </trkpt>
      <trkpt lat="47.80606" lon="-3.56572">
        <ele>63</ele>
        <time>2019-07-17T16:37:13Z</time>
      </trkpt>
      <trkpt lat="47.80602" lon="-3.56575">
        <ele>63</ele>
        <time>2019-07-17T16:37:14Z</time>
      </trkpt>
      <trkpt lat="47.80596" lon="-3.56576">
        <ele>63</ele>
        <time>2019-07-17T16:37:15Z</time>
      </trkpt>
      <trkpt lat="47.8059" lon="-3.56578">
        <ele>63</ele>
        <time>2019-07-17T16:37:16Z</time>
      </trkpt>
      <trkpt lat="47.80584" lon="-3.56579">
        <ele>62</ele>
        <time>2019-07-17T16:37:17Z</time>
      </trkpt>
      <trkpt lat="47.80578" lon="-3.56581">
        <ele>62</ele>
        <time>2019-07-17T16:37:18Z</time>
      </trkpt>
      <trkpt lat="47.80572" lon="-3.56583">
        <ele>62</ele>
        <time>2019-07-17T16:37:19Z</time>
      </trkpt>
      <trkpt lat="47.80565" lon="-3.56585">
        <ele>61</ele>
        <time>2019-07-17T16:37:20Z</time>
      </trkpt>
      <trkpt lat="47.80559" lon="-3.56587">
        <ele>61</ele>
        <time>2019-07-17T16:37:21Z</time>
      </trkpt>
      <trkpt lat="47.80552" lon="-3.56588">
        <ele>60</ele>
        <time>2019-07-17T16:37:22Z</time>
      </trkpt>
      <trkpt lat="47.80545" lon="-3.5659">
        <ele>60</ele>
        <time>2019-07-17T16:37:23Z</time>
      </trkpt>
      <trkpt lat="47.80539" lon="-3.56592">
        <ele>60</ele>
        <time>2019-07-17T16:37:24Z</time>
      </trkpt>
      <trkpt lat="47.80532" lon="-3.56594">
        <ele>59</ele>
        <time>2019-07-17T16:37:25Z</time>
      </trkpt>
      <trkpt lat="47.80526" lon="-3.56596">
        <ele>59</ele>
        <time>2019-07-17T16:37:26Z</time>
      </trkpt>
      <trkpt lat="47.80519" lon="-3.56598">
        <ele>59</ele>
        <time>2019-07-17T16:37:27Z</time>
      </trkpt>
      <trkpt lat="47.80512" lon="-3.566">
        <ele>58</ele>
        <time>2019-07-17T16:37:28Z</time>
      </trkpt>
      <trkpt lat="47.80505" lon="-3.56601">
        <ele>58</ele>
        <time>2019-07-17T16:37:29Z</time>
      </trkpt>
      <trkpt lat="47.80498" lon="-3.56603">
        <ele>58</ele>
        <time>2019-07-17T16:37:30Z</time>
      </trkpt>
      <trkpt lat="47.80491" lon="-3.56604">
        <ele>57</ele>
        <time>2019-07-17T16:37:31Z</time>
      </trkpt>
      <trkpt lat="47.80483" lon="-3.56606">
        <ele>57</ele>
        <time>2019-07-17T16:37:32Z</time>
      </trkpt>
      <trkpt lat="47.80476" lon="-3.56608">
        <ele>57</ele>
        <time>2019-07-17T16:37:33Z</time>
      </trkpt>
      <trkpt lat="47.80468" lon="-3.5661">
        <ele>56</ele>
        <time>2019-07-17T16:37:34Z</time>
      </trkpt>
      <trkpt lat="47.80461" lon="-3.56611">
        <ele>56</ele>
        <time>2019-07-17T16:37:35Z</time>
      </trkpt>
      <trkpt lat="47.80454" lon="-3.56613">
        <ele>56</ele>
        <time>2019-07-17T16:37:36Z</time>
      </trkpt>
      <trkpt lat="47.80447" lon="-3.56615">
        <ele>56</ele>
        <time>2019-07-17T16:37:37Z</time>
      </trkpt>
      <trkpt lat="47.80441" lon="-3.56616">
        <ele>56</ele>
        <time>2019-07-17T16:37:38Z</time>
      </trkpt>
      <trkpt lat="47.80436" lon="-3.56616">
        <ele>56</ele>
        <time>2019-07-17T16:37:39Z</time>
      </trkpt>
      <trkpt lat="47.80432" lon="-3.56615">
        <ele>56</ele>
        <time>2019-07-17T16:37:40Z</time>
      </trkpt>
      <trkpt lat="47.80428" lon="-3.56611">
        <ele>56</ele>
        <time>2019-07-17T16:37:41Z</time>
      </trkpt>
      <trkpt lat="47.80426" lon="-3.56605">
        <ele>56</ele>
        <time>2019-07-17T16:37:42Z</time>
      </trkpt>
      <trkpt lat="47.80422" lon="-3.56599">
        <ele>56</ele>
        <time>2019-07-17T16:37:43Z</time>
      </trkpt>
      <trkpt lat="47.80417" lon="-3.56595">
        <ele>56</ele>
        <time>2019-07-17T16:37:44Z</time>
      </trkpt>
      <trkpt lat="47.80411" lon="-3.56594">
        <ele>55</ele>
        <time>2019-07-17T16:37:45Z</time>
      </trkpt>
      <trkpt lat="47.80405" lon="-3.56593">
        <ele>55</ele>
        <time>2019-07-17T16:37:46Z</time>
      </trkpt>
      <trkpt lat="47.80399" lon="-3.56592">
        <ele>55</ele>
        <time>2019-07-17T16:37:47Z</time>
      </trkpt>
      <trkpt lat="47.80393" lon="-3.56592">
        <ele>55</ele>
        <time>2019-07-17T16:37:48Z</time>
      </trkpt>
      <trkpt lat="47.80388" lon="-3.56591">
        <ele>55</ele>
        <time>2019-07-17T16:37:49Z</time>
      </trkpt>
      <trkpt lat="47.80382" lon="-3.56589">
        <ele>55</ele>
        <time>2019-07-17T16:37:50Z</time>
      </trkpt>
      <trkpt lat="47.80376" lon="-3.56588">
        <ele>55</ele>
        <time>2019-07-17T16:37:51Z</time>
      </trkpt>
      <trkpt lat="47.80371" lon="-3.56586">
        <ele>55</ele>
        <time>2019-07-17T16:37:52Z</time>
      </trkpt>
      <trkpt lat="47.80365" lon="-3.56582">
        <ele>55</ele>
        <time>2019-07-17T16:37:53Z</time>
      </trkpt>
      <trkpt lat="47.8036" lon="-3.5658">
        <ele>55</ele>
        <time>2019-07-17T16:37:54Z</time>
      </trkpt>
      <trkpt lat="47.80355" lon="-3.56577">
        <ele>55</ele>
        <time>2019-07-17T16:37:55Z</time>
      </trkpt>
      <trkpt lat="47.8035" lon="-3.56576">
        <ele>55</ele>
        <time>2019-07-17T16:37:56Z</time>
      </trkpt>
      <trkpt lat="47.80345" lon="-3.56575">
        <ele>55</ele>
        <time>2019-07-17T16:37:57Z</time>
      </trkpt>
      <trkpt lat="47.8034" lon="-3.56574">
        <ele>55</ele>
        <time>2019-07-17T16:37:58Z</time>
      </trkpt>
      <trkpt lat="47.80335" lon="-3.56572">
        <ele>55</ele>
        <time>2019-07-17T16:37:59Z</time>
      </trkpt>
      <trkpt lat="47.8033" lon="-3.56571">
        <ele>55</ele>
        <time>2019-07-17T16:38:00Z</time>
      </trkpt>
      <trkpt lat="47.80325" lon="-3.56569">
        <ele>55</ele>
        <time>2019-07-17T16:38:01Z</time>
      </trkpt>
      <trkpt lat="47.80321" lon="-3.56568">
        <ele>55</ele>
        <time>2019-07-17T16:38:02Z</time>
      </trkpt>
      <trkpt lat="47.80316" lon="-3.56566">
        <ele>54</ele>
        <time>2019-07-17T16:38:03Z</time>
      </trkpt>
      <trkpt lat="47.8031" lon="-3.56565">
        <ele>54</ele>
        <time>2019-07-17T16:38:04Z</time>
      </trkpt>
      <trkpt lat="47.80306" lon="-3.56565">
        <ele>54</ele>
        <time>2019-07-17T16:38:05Z</time>
      </trkpt>
      <trkpt lat="47.80301" lon="-3.56564">
        <ele>55</ele>
        <time>2019-07-17T16:38:06Z</time>
      </trkpt>
      <trkpt lat="47.80296" lon="-3.56564">
        <ele>55</ele>
        <time>2019-07-17T16:38:07Z</time>
      </trkpt>
      <trkpt lat="47.8029" lon="-3.56563">
        <ele>55</ele>
        <time>2019-07-17T16:38:08Z</time>
      </trkpt>
      <trkpt lat="47.80285" lon="-3.56562">
        <ele>55</ele>
        <time>2019-07-17T16:38:09Z</time>
      </trkpt>
      <trkpt lat="47.80279" lon="-3.5656">
        <ele>55</ele>
        <time>2019-07-17T16:38:10Z</time>
      </trkpt>
      <trkpt lat="47.80274" lon="-3.56558">
        <ele>55</ele>
        <time>2019-07-17T16:38:11Z</time>
      </trkpt>
      <trkpt lat="47.80268" lon="-3.56557">
        <ele>54</ele>
        <time>2019-07-17T16:38:12Z</time>
      </trkpt>
      <trkpt lat="47.80263" lon="-3.56555">
        <ele>54</ele>
        <time>2019-07-17T16:38:13Z</time>
      </trkpt>
      <trkpt lat="47.80257" lon="-3.56552">
        <ele>54</ele>
        <time>2019-07-17T16:38:14Z</time>
      </trkpt>
      <trkpt lat="47.80252" lon="-3.5655">
        <ele>54</ele>
        <time>2019-07-17T16:38:15Z</time>
      </trkpt>
      <trkpt lat="47.80247" lon="-3.56549">
        <ele>54</ele>
        <time>2019-07-17T16:38:16Z</time>
      </trkpt>
      <trkpt lat="47.80241" lon="-3.56546">
        <ele>54</ele>
        <time>2019-07-17T16:38:17Z</time>
      </trkpt>
      <trkpt lat="47.80237" lon="-3.56545">
        <ele>54</ele>
        <time>2019-07-17T16:38:18Z</time>
      </trkpt>
      <trkpt lat="47.80232" lon="-3.56542">
        <ele>54</ele>
        <time>2019-07-17T16:38:19Z</time>
      </trkpt>
      <trkpt lat="47.80228" lon="-3.5654">
        <ele>54</ele>
        <time>2019-07-17T16:38:20Z</time>
      </trkpt>
      <trkpt lat="47.80224" lon="-3.56537">
        <ele>54</ele>
        <time>2019-07-17T16:38:21Z</time>
      </trkpt>
      <trkpt lat="47.80221" lon="-3.56535">
        <ele>54</ele>
        <time>2019-07-17T16:38:22Z</time>
      </trkpt>
      <trkpt lat="47.80219" lon="-3.56535">
        <ele>54</ele>
        <time>2019-07-17T16:38:23Z</time>
      </trkpt>
      <trkpt lat="47.80217" lon="-3.56536">
        <ele>54</ele>
        <time>2019-07-17T16:38:24Z</time>
      </trkpt>
      <trkpt lat="47.80216" lon="-3.56537">
        <ele>54</ele>
        <time>2019-07-17T16:38:25Z</time>
      </trkpt>
      <trkpt lat="47.80215" lon="-3.56538">
        <ele>54</ele>
        <time>2019-07-17T16:38:26Z</time>
      </trkpt>
      <trkpt lat="47.80214" lon="-3.56539">
        <ele>54</ele>
        <time>2019-07-17T16:38:27Z</time>
      </trkpt>
      <trkpt lat="47.80212" lon="-3.56539">
        <ele>54</ele>
        <time>2019-07-17T16:38:28Z</time>
      </trkpt>
      <trkpt lat="47.8021" lon="-3.56536">
        <ele>54</ele>
        <time>2019-07-17T16:38:29Z</time>
      </trkpt>
      <trkpt lat="47.80208" lon="-3.56533">
        <ele>54</ele>
        <time>2019-07-17T16:38:30Z</time>
      </trkpt>
      <trkpt lat="47.80205" lon="-3.5653">
        <ele>54</ele>
        <time>2019-07-17T16:38:31Z</time>
      </trkpt>
      <trkpt lat="47.80201" lon="-3.56528">
        <ele>54</ele>
        <time>2019-07-17T16:38:32Z</time>
      </trkpt>
      <trkpt lat="47.80197" lon="-3.56525">
        <ele>54</ele>
        <time>2019-07-17T16:38:33Z</time>
      </trkpt>
      <trkpt lat="47.80192" lon="-3.56523">
        <ele>54</ele>
        <time>2019-07-17T16:38:34Z</time>
      </trkpt>
      <trkpt lat="47.80188" lon="-3.56521">
        <ele>54</ele>
        <time>2019-07-17T16:38:35Z</time>
      </trkpt>
      <trkpt lat="47.80182" lon="-3.56519">
        <ele>53</ele>
        <time>2019-07-17T16:38:36Z</time>
      </trkpt>
      <trkpt lat="47.80177" lon="-3.56517">
        <ele>53</ele>
        <time>2019-07-17T16:38:37Z</time>
      </trkpt>
      <trkpt lat="47.80172" lon="-3.56515">
        <ele>53</ele>
        <time>2019-07-17T16:38:38Z</time>
      </trkpt>
      <trkpt lat="47.80165" lon="-3.56513">
        <ele>53</ele>
        <time>2019-07-17T16:38:39Z</time>
      </trkpt>
      <trkpt lat="47.80159" lon="-3.56513">
        <ele>53</ele>
        <time>2019-07-17T16:38:40Z</time>
      </trkpt>
      <trkpt lat="47.80153" lon="-3.56512">
        <ele>53</ele>
        <time>2019-07-17T16:38:41Z</time>
      </trkpt>
      <trkpt lat="47.80147" lon="-3.56512">
        <ele>53</ele>
        <time>2019-07-17T16:38:42Z</time>
      </trkpt>
      <trkpt lat="47.8014" lon="-3.56511">
        <ele>53</ele>
        <time>2019-07-17T16:38:43Z</time>
      </trkpt>
      <trkpt lat="47.80134" lon="-3.56511">
        <ele>53</ele>
        <time>2019-07-17T16:38:44Z</time>
      </trkpt>
      <trkpt lat="47.80129" lon="-3.56509">
        <ele>53</ele>
        <time>2019-07-17T16:38:45Z</time>
      </trkpt>
      <trkpt lat="47.80123" lon="-3.56506">
        <ele>53</ele>
        <time>2019-07-17T16:38:46Z</time>
      </trkpt>
      <trkpt lat="47.80117" lon="-3.56503">
        <ele>53</ele>
        <time>2019-07-17T16:38:47Z</time>
      </trkpt>
      <trkpt lat="47.80112" lon="-3.56499">
        <ele>53</ele>
        <time>2019-07-17T16:38:48Z</time>
      </trkpt>
      <trkpt lat="47.80106" lon="-3.56495">
        <ele>53</ele>
        <time>2019-07-17T16:38:49Z</time>
      </trkpt>
      <trkpt lat="47.80101" lon="-3.56491">
        <ele>53</ele>
        <time>2019-07-17T16:38:50Z</time>
      </trkpt>
      <trkpt lat="47.80096" lon="-3.56487">
        <ele>53</ele>
        <time>2019-07-17T16:38:51Z</time>
      </trkpt>
      <trkpt lat="47.8009" lon="-3.56483">
        <ele>53</ele>
        <time>2019-07-17T16:38:52Z</time>
      </trkpt>
      <trkpt lat="47.80085" lon="-3.5648">
        <ele>53</ele>
        <time>2019-07-17T16:38:53Z</time>
      </trkpt>
      <trkpt lat="47.80079" lon="-3.56476">
        <ele>53</ele>
        <time>2019-07-17T16:38:54Z</time>
      </trkpt>
      <trkpt lat="47.80073" lon="-3.56472">
        <ele>53</ele>
        <time>2019-07-17T16:38:55Z</time>
      </trkpt>
      <trkpt lat="47.80067" lon="-3.56468">
        <ele>53</ele>
        <time>2019-07-17T16:38:56Z</time>
      </trkpt>
      <trkpt lat="47.80062" lon="-3.56464">
        <ele>53</ele>
        <time>2019-07-17T16:38:57Z</time>
      </trkpt>
      <trkpt lat="47.80056" lon="-3.56461">
        <ele>53</ele>
        <time>2019-07-17T16:38:58Z</time>
      </trkpt>
      <trkpt lat="47.8005" lon="-3.56457">
        <ele>53</ele>
        <time>2019-07-17T16:38:59Z</time>
      </trkpt>
      <trkpt lat="47.80044" lon="-3.56454">
        <ele>53</ele>
        <time>2019-07-17T16:39:00Z</time>
      </trkpt>
      <trkpt lat="47.80039" lon="-3.5645">
        <ele>53</ele>
        <time>2019-07-17T16:39:01Z</time>
      </trkpt>
      <trkpt lat="47.80033" lon="-3.56448">
        <ele>53</ele>
        <time>2019-07-17T16:39:02Z</time>
      </trkpt>
      <trkpt lat="47.80027" lon="-3.56446">
        <ele>53</ele>
        <time>2019-07-17T16:39:03Z</time>
      </trkpt>
      <trkpt lat="47.80021" lon="-3.56445">
        <ele>53</ele>
        <time>2019-07-17T16:39:04Z</time>
      </trkpt>
      <trkpt lat="47.80014" lon="-3.56444">
        <ele>53</ele>
        <time>2019-07-17T16:39:05Z</time>
      </trkpt>
      <trkpt lat="47.80008" lon="-3.56444">
        <ele>53</ele>
        <time>2019-07-17T16:39:06Z</time>
      </trkpt>
      <trkpt lat="47.80002" lon="-3.56444">
        <ele>53</ele>
        <time>2019-07-17T16:39:07Z</time>
      </trkpt>
      <trkpt lat="47.79996" lon="-3.56445">
        <ele>53</ele>
        <time>2019-07-17T16:39:08Z</time>
      </trkpt>
      <trkpt lat="47.7999" lon="-3.56446">
        <ele>53</ele>
        <time>2019-07-17T16:39:09Z</time>
      </trkpt>
      <trkpt lat="47.79984" lon="-3.56447">
        <ele>53</ele>
        <time>2019-07-17T16:39:10Z</time>
      </trkpt>
      <trkpt lat="47.79978" lon="-3.56445">
        <ele>53</ele>
        <time>2019-07-17T16:39:11Z</time>
      </trkpt>
      <trkpt lat="47.79972" lon="-3.56442">
        <ele>53</ele>
        <time>2019-07-17T16:39:12Z</time>
      </trkpt>
      <trkpt lat="47.79966" lon="-3.56438">
        <ele>53</ele>
        <time>2019-07-17T16:39:13Z</time>
      </trkpt>
      <trkpt lat="47.7996" lon="-3.56434">
        <ele>52</ele>
        <time>2019-07-17T16:39:14Z</time>
      </trkpt>
      <trkpt lat="47.79954" lon="-3.56431">
        <ele>52</ele>
        <time>2019-07-17T16:39:15Z</time>
      </trkpt>
      <trkpt lat="47.79947" lon="-3.56429">
        <ele>52</ele>
        <time>2019-07-17T16:39:16Z</time>
      </trkpt>
      <trkpt lat="47.7994" lon="-3.56427">
        <ele>51</ele>
        <time>2019-07-17T16:39:17Z</time>
      </trkpt>
      <trkpt lat="47.79933" lon="-3.56426">
        <ele>51</ele>
        <time>2019-07-17T16:39:18Z</time>
      </trkpt>
      <trkpt lat="47.79926" lon="-3.56425">
        <ele>50</ele>
        <time>2019-07-17T16:39:19Z</time>
      </trkpt>
      <trkpt lat="47.79919" lon="-3.56423">
        <ele>50</ele>
        <time>2019-07-17T16:39:20Z</time>
      </trkpt>
      <trkpt lat="47.79912" lon="-3.56421">
        <ele>50</ele>
        <time>2019-07-17T16:39:21Z</time>
      </trkpt>
      <trkpt lat="47.79905" lon="-3.56419">
        <ele>49</ele>
        <time>2019-07-17T16:39:22Z</time>
      </trkpt>
      <trkpt lat="47.79898" lon="-3.56417">
        <ele>49</ele>
        <time>2019-07-17T16:39:23Z</time>
      </trkpt>
      <trkpt lat="47.79891" lon="-3.56415">
        <ele>49</ele>
        <time>2019-07-17T16:39:24Z</time>
      </trkpt>
      <trkpt lat="47.79884" lon="-3.56413">
        <ele>49</ele>
        <time>2019-07-17T16:39:25Z</time>
      </trkpt>
      <trkpt lat="47.79877" lon="-3.5641">
        <ele>48</ele>
        <time>2019-07-17T16:39:26Z</time>
      </trkpt>
      <trkpt lat="47.7987" lon="-3.56407">
        <ele>48</ele>
        <time>2019-07-17T16:39:27Z</time>
      </trkpt>
      <trkpt lat="47.79863" lon="-3.56404">
        <ele>48</ele>
        <time>2019-07-17T16:39:28Z</time>
      </trkpt>
      <trkpt lat="47.79857" lon="-3.56401">
        <ele>48</ele>
        <time>2019-07-17T16:39:29Z</time>
      </trkpt>
      <trkpt lat="47.7985" lon="-3.56398">
        <ele>48</ele>
        <time>2019-07-17T16:39:30Z</time>
      </trkpt>
      <trkpt lat="47.79843" lon="-3.56395">
        <ele>47</ele>
        <time>2019-07-17T16:39:31Z</time>
      </trkpt>
      <trkpt lat="47.79836" lon="-3.56392">
        <ele>47</ele>
        <time>2019-07-17T16:39:32Z</time>
      </trkpt>
      <trkpt lat="47.79829" lon="-3.5639">
        <ele>47</ele>
        <time>2019-07-17T16:39:33Z</time>
      </trkpt>
      <trkpt lat="47.79821" lon="-3.56388">
        <ele>47</ele>
        <time>2019-07-17T16:39:34Z</time>
      </trkpt>
      <trkpt lat="47.79814" lon="-3.56386">
        <ele>47</ele>
        <time>2019-07-17T16:39:35Z</time>
      </trkpt>
      <trkpt lat="47.79805" lon="-3.56383">
        <ele>47</ele>
        <time>2019-07-17T16:39:36Z</time>
      </trkpt>
      <trkpt lat="47.79797" lon="-3.5638">
        <ele>47</ele>
        <time>2019-07-17T16:39:37Z</time>
      </trkpt>
      <trkpt lat="47.7979" lon="-3.56378">
        <ele>47</ele>
        <time>2019-07-17T16:39:38Z</time>
      </trkpt>
      <trkpt lat="47.79782" lon="-3.56376">
        <ele>46</ele>
        <time>2019-07-17T16:39:39Z</time>
      </trkpt>
      <trkpt lat="47.79775" lon="-3.56375">
        <ele>46</ele>
        <time>2019-07-17T16:39:40Z</time>
      </trkpt>
      <trkpt lat="47.79768" lon="-3.56373">
        <ele>46</ele>
        <time>2019-07-17T16:39:41Z</time>
      </trkpt>
      <trkpt lat="47.79761" lon="-3.56371">
        <ele>46</ele>
        <time>2019-07-17T16:39:42Z</time>
      </trkpt>
      <trkpt lat="47.79755" lon="-3.5637">
        <ele>45</ele>
        <time>2019-07-17T16:39:43Z</time>
      </trkpt>
      <trkpt lat="47.79749" lon="-3.56368">
        <ele>45</ele>
        <time>2019-07-17T16:39:44Z</time>
      </trkpt>
      <trkpt lat="47.79744" lon="-3.56366">
        <ele>45</ele>
        <time>2019-07-17T16:39:45Z</time>
      </trkpt>
      <trkpt lat="47.79738" lon="-3.56364">
        <ele>45</ele>
        <time>2019-07-17T16:39:46Z</time>
      </trkpt>
      <trkpt lat="47.79732" lon="-3.56362">
        <ele>45</ele>
        <time>2019-07-17T16:39:47Z</time>
      </trkpt>
      <trkpt lat="47.79727" lon="-3.5636">
        <ele>45</ele>
        <time>2019-07-17T16:39:48Z</time>
      </trkpt>
      <trkpt lat="47.79722" lon="-3.56358">
        <ele>45</ele>
        <time>2019-07-17T16:39:49Z</time>
      </trkpt>
      <trkpt lat="47.79717" lon="-3.56356">
        <ele>45</ele>
        <time>2019-07-17T16:39:50Z</time>
      </trkpt>
      <trkpt lat="47.79712" lon="-3.56355">
        <ele>45</ele>
        <time>2019-07-17T16:39:51Z</time>
      </trkpt>
      <trkpt lat="47.79708" lon="-3.56354">
        <ele>45</ele>
        <time>2019-07-17T16:39:52Z</time>
      </trkpt>
      <trkpt lat="47.79703" lon="-3.56353">
        <ele>45</ele>
        <time>2019-07-17T16:39:53Z</time>
      </trkpt>
      <trkpt lat="47.79699" lon="-3.56352">
        <ele>45</ele>
        <time>2019-07-17T16:39:54Z</time>
      </trkpt>
      <trkpt lat="47.79694" lon="-3.56351">
        <ele>45</ele>
        <time>2019-07-17T16:39:55Z</time>
      </trkpt>
      <trkpt lat="47.7969" lon="-3.56349">
        <ele>45</ele>
        <time>2019-07-17T16:39:56Z</time>
      </trkpt>
      <trkpt lat="47.79686" lon="-3.56348">
        <ele>45</ele>
        <time>2019-07-17T16:39:57Z</time>
      </trkpt>
      <trkpt lat="47.79681" lon="-3.56346">
        <ele>45</ele>
        <time>2019-07-17T16:39:58Z</time>
      </trkpt>
      <trkpt lat="47.79678" lon="-3.56344">
        <ele>45</ele>
        <time>2019-07-17T16:39:59Z</time>
      </trkpt>
      <trkpt lat="47.79674" lon="-3.56343">
        <ele>45</ele>
        <time>2019-07-17T16:40:00Z</time>
      </trkpt>
      <trkpt lat="47.7967" lon="-3.56342">
        <ele>45</ele>
        <time>2019-07-17T16:40:01Z</time>
      </trkpt>
      <trkpt lat="47.79667" lon="-3.56341">
        <ele>45</ele>
        <time>2019-07-17T16:40:02Z</time>
      </trkpt>
      <trkpt lat="47.79663" lon="-3.56339">
        <ele>45</ele>
        <time>2019-07-17T16:40:03Z</time>
      </trkpt>
      <trkpt lat="47.79659" lon="-3.56338">
        <ele>45</ele>
        <time>2019-07-17T16:40:04Z</time>
      </trkpt>
      <trkpt lat="47.79655" lon="-3.56338">
        <ele>45</ele>
        <time>2019-07-17T16:40:05Z</time>
      </trkpt>
      <trkpt lat="47.79652" lon="-3.56336">
        <ele>46</ele>
        <time>2019-07-17T16:40:06Z</time>
      </trkpt>
      <trkpt lat="47.79648" lon="-3.56335">
        <ele>46</ele>
        <time>2019-07-17T16:40:07Z</time>
      </trkpt>
      <trkpt lat="47.79644" lon="-3.56335">
        <ele>46</ele>
        <time>2019-07-17T16:40:08Z</time>
      </trkpt>
      <trkpt lat="47.79641" lon="-3.56333">
        <ele>46</ele>
        <time>2019-07-17T16:40:09Z</time>
      </trkpt>
      <trkpt lat="47.79637" lon="-3.56332">
        <ele>46</ele>
        <time>2019-07-17T16:40:10Z</time>
      </trkpt>
      <trkpt lat="47.79633" lon="-3.56329">
        <ele>46</ele>
        <time>2019-07-17T16:40:11Z</time>
      </trkpt>
      <trkpt lat="47.7963" lon="-3.56327">
        <ele>47</ele>
        <time>2019-07-17T16:40:12Z</time>
      </trkpt>
      <trkpt lat="47.79626" lon="-3.56325">
        <ele>47</ele>
        <time>2019-07-17T16:40:13Z</time>
      </trkpt>
      <trkpt lat="47.79622" lon="-3.56322">
        <ele>47</ele>
        <time>2019-07-17T16:40:14Z</time>
      </trkpt>
      <trkpt lat="47.79618" lon="-3.5632">
        <ele>47</ele>
        <time>2019-07-17T16:40:15Z</time>
      </trkpt>
      <trkpt lat="47.79615" lon="-3.56317">
        <ele>48</ele>
        <time>2019-07-17T16:40:16Z</time>
      </trkpt>
      <trkpt lat="47.79611" lon="-3.56314">
        <ele>48</ele>
        <time>2019-07-17T16:40:17Z</time>
      </trkpt>
      <trkpt lat="47.79608" lon="-3.56312">
        <ele>48</ele>
        <time>2019-07-17T16:40:18Z</time>
      </trkpt>
      <trkpt lat="47.79604" lon="-3.56309">
        <ele>48</ele>
        <time>2019-07-17T16:40:19Z</time>
      </trkpt>
      <trkpt lat="47.79601" lon="-3.56306">
        <ele>48</ele>
        <time>2019-07-17T16:40:20Z</time>
      </trkpt>
      <trkpt lat="47.79597" lon="-3.56303">
        <ele>48</ele>
        <time>2019-07-17T16:40:21Z</time>
      </trkpt>
      <trkpt lat="47.79593" lon="-3.56301">
        <ele>48</ele>
        <time>2019-07-17T16:40:22Z</time>
      </trkpt>
      <trkpt lat="47.79589" lon="-3.56299">
        <ele>48</ele>
        <time>2019-07-17T16:40:23Z</time>
      </trkpt>
      <trkpt lat="47.79585" lon="-3.56297">
        <ele>48</ele>
        <time>2019-07-17T16:40:24Z</time>
      </trkpt>
      <trkpt lat="47.79581" lon="-3.56295">
        <ele>49</ele>
        <time>2019-07-17T16:40:25Z</time>
      </trkpt>
      <trkpt lat="47.79578" lon="-3.56293">
        <ele>49</ele>
        <time>2019-07-17T16:40:26Z</time>
      </trkpt>
      <trkpt lat="47.79574" lon="-3.56289">
        <ele>49</ele>
        <time>2019-07-17T16:40:27Z</time>
      </trkpt>
      <trkpt lat="47.7957" lon="-3.56285">
        <ele>49</ele>
        <time>2019-07-17T16:40:28Z</time>
      </trkpt>
      <trkpt lat="47.79566" lon="-3.56281">
        <ele>49</ele>
        <time>2019-07-17T16:40:29Z</time>
      </trkpt>
      <trkpt lat="47.79562" lon="-3.56277">
        <ele>49</ele>
        <time>2019-07-17T16:40:30Z</time>
      </trkpt>
      <trkpt lat="47.79558" lon="-3.56273">
        <ele>49</ele>
        <time>2019-07-17T16:40:31Z</time>
      </trkpt>
      <trkpt lat="47.79554" lon="-3.56269">
        <ele>49</ele>
        <time>2019-07-17T16:40:32Z</time>
      </trkpt>
      <trkpt lat="47.7955" lon="-3.56265">
        <ele>50</ele>
        <time>2019-07-17T16:40:33Z</time>
      </trkpt>
      <trkpt lat="47.79546" lon="-3.56262">
        <ele>50</ele>
        <time>2019-07-17T16:40:34Z</time>
      </trkpt>
      <trkpt lat="47.79541" lon="-3.56259">
        <ele>50</ele>
        <time>2019-07-17T16:40:35Z</time>
      </trkpt>
      <trkpt lat="47.79537" lon="-3.56256">
        <ele>50</ele>
        <time>2019-07-17T16:40:36Z</time>
      </trkpt>
      <trkpt lat="47.79532" lon="-3.56253">
        <ele>50</ele>
        <time>2019-07-17T16:40:37Z</time>
      </trkpt>
      <trkpt lat="47.79527" lon="-3.5625">
        <ele>50</ele>
        <time>2019-07-17T16:40:38Z</time>
      </trkpt>
      <trkpt lat="47.79522" lon="-3.56247">
        <ele>50</ele>
        <time>2019-07-17T16:40:39Z</time>
      </trkpt>
      <trkpt lat="47.79517" lon="-3.56244">
        <ele>50</ele>
        <time>2019-07-17T16:40:40Z</time>
      </trkpt>
      <trkpt lat="47.79512" lon="-3.56241">
        <ele>50</ele>
        <time>2019-07-17T16:40:41Z</time>
      </trkpt>
      <trkpt lat="47.79506" lon="-3.56239">
        <ele>50</ele>
        <time>2019-07-17T16:40:42Z</time>
      </trkpt>
      <trkpt lat="47.79501" lon="-3.56236">
        <ele>50</ele>
        <time>2019-07-17T16:40:43Z</time>
      </trkpt>
      <trkpt lat="47.79496" lon="-3.56233">
        <ele>50</ele>
        <time>2019-07-17T16:40:44Z</time>
      </trkpt>
      <trkpt lat="47.7949" lon="-3.56231">
        <ele>50</ele>
        <time>2019-07-17T16:40:45Z</time>
      </trkpt>
      <trkpt lat="47.79484" lon="-3.56228">
        <ele>50</ele>
        <time>2019-07-17T16:40:46Z</time>
      </trkpt>
      <trkpt lat="47.79479" lon="-3.56226">
        <ele>50</ele>
        <time>2019-07-17T16:40:47Z</time>
      </trkpt>
      <trkpt lat="47.79473" lon="-3.56225">
        <ele>51</ele>
        <time>2019-07-17T16:40:48Z</time>
      </trkpt>
      <trkpt lat="47.79468" lon="-3.56225">
        <ele>51</ele>
        <time>2019-07-17T16:40:49Z</time>
      </trkpt>
      <trkpt lat="47.79463" lon="-3.56225">
        <ele>51</ele>
        <time>2019-07-17T16:40:50Z</time>
      </trkpt>
      <trkpt lat="47.79458" lon="-3.56226">
        <ele>51</ele>
        <time>2019-07-17T16:40:51Z</time>
      </trkpt>
      <trkpt lat="47.79452" lon="-3.56225">
        <ele>51</ele>
        <time>2019-07-17T16:40:52Z</time>
      </trkpt>
      <trkpt lat="47.79447" lon="-3.56224">
        <ele>51</ele>
        <time>2019-07-17T16:40:53Z</time>
      </trkpt>
      <trkpt lat="47.79441" lon="-3.56223">
        <ele>51</ele>
        <time>2019-07-17T16:40:54Z</time>
      </trkpt>
      <trkpt lat="47.79436" lon="-3.5622">
        <ele>51</ele>
        <time>2019-07-17T16:40:55Z</time>
      </trkpt>
      <trkpt lat="47.7943" lon="-3.56218">
        <ele>51</ele>
        <time>2019-07-17T16:40:56Z</time>
      </trkpt>
      <trkpt lat="47.79424" lon="-3.56215">
        <ele>51</ele>
        <time>2019-07-17T16:40:57Z</time>
      </trkpt>
      <trkpt lat="47.79419" lon="-3.56212">
        <ele>51</ele>
        <time>2019-07-17T16:40:58Z</time>
      </trkpt>
      <trkpt lat="47.79413" lon="-3.56209">
        <ele>51</ele>
        <time>2019-07-17T16:40:59Z</time>
      </trkpt>
      <trkpt lat="47.79407" lon="-3.56206">
        <ele>51</ele>
        <time>2019-07-17T16:41:00Z</time>
      </trkpt>
      <trkpt lat="47.79401" lon="-3.56202">
        <ele>51</ele>
        <time>2019-07-17T16:41:01Z</time>
      </trkpt>
      <trkpt lat="47.79396" lon="-3.56197">
        <ele>51</ele>
        <time>2019-07-17T16:41:02Z</time>
      </trkpt>
      <trkpt lat="47.7939" lon="-3.56193">
        <ele>51</ele>
        <time>2019-07-17T16:41:03Z</time>
      </trkpt>
      <trkpt lat="47.79384" lon="-3.56188">
        <ele>51</ele>
        <time>2019-07-17T16:41:04Z</time>
      </trkpt>
      <trkpt lat="47.79379" lon="-3.56183">
        <ele>51</ele>
        <time>2019-07-17T16:41:05Z</time>
      </trkpt>
      <trkpt lat="47.79373" lon="-3.56178">
        <ele>51</ele>
        <time>2019-07-17T16:41:06Z</time>
      </trkpt>
      <trkpt lat="47.79367" lon="-3.56173">
        <ele>51</ele>
        <time>2019-07-17T16:41:07Z</time>
      </trkpt>
      <trkpt lat="47.79362" lon="-3.56168">
        <ele>51</ele>
        <time>2019-07-17T16:41:08Z</time>
      </trkpt>
      <trkpt lat="47.79356" lon="-3.56164">
        <ele>51</ele>
        <time>2019-07-17T16:41:09Z</time>
      </trkpt>
      <trkpt lat="47.79351" lon="-3.56158">
        <ele>50</ele>
        <time>2019-07-17T16:41:10Z</time>
      </trkpt>
      <trkpt lat="47.79345" lon="-3.56153">
        <ele>50</ele>
        <time>2019-07-17T16:41:11Z</time>
      </trkpt>
      <trkpt lat="47.79339" lon="-3.56147">
        <ele>50</ele>
        <time>2019-07-17T16:41:12Z</time>
      </trkpt>
      <trkpt lat="47.79333" lon="-3.56142">
        <ele>49</ele>
        <time>2019-07-17T16:41:13Z</time>
      </trkpt>
      <trkpt lat="47.79327" lon="-3.56136">
        <ele>49</ele>
        <time>2019-07-17T16:41:14Z</time>
      </trkpt>
      <trkpt lat="47.79321" lon="-3.56131">
        <ele>48</ele>
        <time>2019-07-17T16:41:15Z</time>
      </trkpt>
      <trkpt lat="47.79314" lon="-3.56126">
        <ele>48</ele>
        <time>2019-07-17T16:41:16Z</time>
      </trkpt>
      <trkpt lat="47.79307" lon="-3.56121">
        <ele>47</ele>
        <time>2019-07-17T16:41:17Z</time>
      </trkpt>
      <trkpt lat="47.79299" lon="-3.56116">
        <ele>47</ele>
        <time>2019-07-17T16:41:18Z</time>
      </trkpt>
      <trkpt lat="47.79291" lon="-3.56112">
        <ele>46</ele>
        <time>2019-07-17T16:41:19Z</time>
      </trkpt>
      <trkpt lat="47.79283" lon="-3.56108">
        <ele>45</ele>
        <time>2019-07-17T16:41:20Z</time>
      </trkpt>
      <trkpt lat="47.79274" lon="-3.56103">
        <ele>44</ele>
        <time>2019-07-17T16:41:21Z</time>
      </trkpt>
      <trkpt lat="47.79265" lon="-3.561">
        <ele>44</ele>
        <time>2019-07-17T16:41:22Z</time>
      </trkpt>
      <trkpt lat="47.79256" lon="-3.56097">
        <ele>43</ele>
        <time>2019-07-17T16:41:23Z</time>
      </trkpt>
      <trkpt lat="47.79246" lon="-3.56094">
        <ele>42</ele>
        <time>2019-07-17T16:41:24Z</time>
      </trkpt>
      <trkpt lat="47.79236" lon="-3.56092">
        <ele>41</ele>
        <time>2019-07-17T16:41:25Z</time>
      </trkpt>
      <trkpt lat="47.79226" lon="-3.56089">
        <ele>40</ele>
        <time>2019-07-17T16:41:26Z</time>
      </trkpt>
      <trkpt lat="47.79215" lon="-3.56088">
        <ele>40</ele>
        <time>2019-07-17T16:41:27Z</time>
      </trkpt>
      <trkpt lat="47.79205" lon="-3.56088">
        <ele>39</ele>
        <time>2019-07-17T16:41:28Z</time>
      </trkpt>
      <trkpt lat="47.79195" lon="-3.56088">
        <ele>38</ele>
        <time>2019-07-17T16:41:29Z</time>
      </trkpt>
      <trkpt lat="47.79186" lon="-3.5609">
        <ele>38</ele>
        <time>2019-07-17T16:41:30Z</time>
      </trkpt>
      <trkpt lat="47.79177" lon="-3.5609">
        <ele>38</ele>
        <time>2019-07-17T16:41:31Z</time>
      </trkpt>
      <trkpt lat="47.7917" lon="-3.56089">
        <ele>37</ele>
        <time>2019-07-17T16:41:32Z</time>
      </trkpt>
      <trkpt lat="47.79162" lon="-3.56089">
        <ele>37</ele>
        <time>2019-07-17T16:41:33Z</time>
      </trkpt>
      <trkpt lat="47.79155" lon="-3.56085">
        <ele>37</ele>
        <time>2019-07-17T16:41:34Z</time>
      </trkpt>
      <trkpt lat="47.79149" lon="-3.56079">
        <ele>37</ele>
        <time>2019-07-17T16:41:35Z</time>
      </trkpt>
      <trkpt lat="47.79143" lon="-3.56072">
        <ele>37</ele>
        <time>2019-07-17T16:41:36Z</time>
      </trkpt>
      <trkpt lat="47.79137" lon="-3.56066">
        <ele>37</ele>
        <time>2019-07-17T16:41:37Z</time>
      </trkpt>
      <trkpt lat="47.79131" lon="-3.5606">
        <ele>37</ele>
        <time>2019-07-17T16:41:38Z</time>
      </trkpt>
      <trkpt lat="47.79125" lon="-3.56056">
        <ele>38</ele>
        <time>2019-07-17T16:41:39Z</time>
      </trkpt>
      <trkpt lat="47.79119" lon="-3.56051">
        <ele>38</ele>
        <time>2019-07-17T16:41:40Z</time>
      </trkpt>
      <trkpt lat="47.79113" lon="-3.56046">
        <ele>38</ele>
        <time>2019-07-17T16:41:41Z</time>
      </trkpt>
      <trkpt lat="47.79107" lon="-3.56042">
        <ele>38</ele>
        <time>2019-07-17T16:41:42Z</time>
      </trkpt>
      <trkpt lat="47.79101" lon="-3.56037">
        <ele>38</ele>
        <time>2019-07-17T16:41:43Z</time>
      </trkpt>
      <trkpt lat="47.79095" lon="-3.56032">
        <ele>38</ele>
        <time>2019-07-17T16:41:44Z</time>
      </trkpt>
      <trkpt lat="47.79089" lon="-3.56027">
        <ele>38</ele>
        <time>2019-07-17T16:41:45Z</time>
      </trkpt>
      <trkpt lat="47.79083" lon="-3.56022">
        <ele>38</ele>
        <time>2019-07-17T16:41:46Z</time>
      </trkpt>
      <trkpt lat="47.79077" lon="-3.56017">
        <ele>38</ele>
        <time>2019-07-17T16:41:47Z</time>
      </trkpt>
      <trkpt lat="47.79071" lon="-3.56013">
        <ele>38</ele>
        <time>2019-07-17T16:41:48Z</time>
      </trkpt>
      <trkpt lat="47.79065" lon="-3.56009">
        <ele>38</ele>
        <time>2019-07-17T16:41:49Z</time>
      </trkpt>
      <trkpt lat="47.79058" lon="-3.56006">
        <ele>38</ele>
        <time>2019-07-17T16:41:50Z</time>
      </trkpt>
      <trkpt lat="47.79052" lon="-3.56003">
        <ele>38</ele>
        <time>2019-07-17T16:41:51Z</time>
      </trkpt>
      <trkpt lat="47.79045" lon="-3.56">
        <ele>38</ele>
        <time>2019-07-17T16:41:52Z</time>
      </trkpt>
      <trkpt lat="47.79038" lon="-3.55997">
        <ele>38</ele>
        <time>2019-07-17T16:41:53Z</time>
      </trkpt>
      <trkpt lat="47.79031" lon="-3.55996">
        <ele>37</ele>
        <time>2019-07-17T16:41:54Z</time>
      </trkpt>
      <trkpt lat="47.79023" lon="-3.55995">
        <ele>37</ele>
        <time>2019-07-17T16:41:55Z</time>
      </trkpt>
      <trkpt lat="47.79016" lon="-3.55994">
        <ele>37</ele>
        <time>2019-07-17T16:41:56Z</time>
      </trkpt>
      <trkpt lat="47.79008" lon="-3.55992">
        <ele>37</ele>
        <time>2019-07-17T16:41:57Z</time>
      </trkpt>
      <trkpt lat="47.79" lon="-3.55991">
        <ele>36</ele>
        <time>2019-07-17T16:41:58Z</time>
      </trkpt>
      <trkpt lat="47.78992" lon="-3.5599">
        <ele>36</ele>
        <time>2019-07-17T16:41:59Z</time>
      </trkpt>
      <trkpt lat="47.78983" lon="-3.55988">
        <ele>35</ele>
        <time>2019-07-17T16:42:00Z</time>
      </trkpt>
      <trkpt lat="47.78975" lon="-3.55987">
        <ele>35</ele>
        <time>2019-07-17T16:42:01Z</time>
      </trkpt>
      <trkpt lat="47.78966" lon="-3.55984">
        <ele>34</ele>
        <time>2019-07-17T16:42:02Z</time>
      </trkpt>
      <trkpt lat="47.78957" lon="-3.55981">
        <ele>34</ele>
        <time>2019-07-17T16:42:03Z</time>
      </trkpt>
      <trkpt lat="47.78948" lon="-3.55978">
        <ele>33</ele>
        <time>2019-07-17T16:42:04Z</time>
      </trkpt>
      <trkpt lat="47.7894" lon="-3.55975">
        <ele>33</ele>
        <time>2019-07-17T16:42:05Z</time>
      </trkpt>
      <trkpt lat="47.78931" lon="-3.55971">
        <ele>32</ele>
        <time>2019-07-17T16:42:06Z</time>
      </trkpt>
      <trkpt lat="47.78922" lon="-3.55968">
        <ele>32</ele>
        <time>2019-07-17T16:42:07Z</time>
      </trkpt>
      <trkpt lat="47.78913" lon="-3.55965">
        <ele>32</ele>
        <time>2019-07-17T16:42:08Z</time>
      </trkpt>
      <trkpt lat="47.78905" lon="-3.55961">
        <ele>32</ele>
        <time>2019-07-17T16:42:09Z</time>
      </trkpt>
      <trkpt lat="47.78898" lon="-3.55958">
        <ele>32</ele>
        <time>2019-07-17T16:42:10Z</time>
      </trkpt>
      <trkpt lat="47.7889" lon="-3.55955">
        <ele>32</ele>
        <time>2019-07-17T16:42:11Z</time>
      </trkpt>
      <trkpt lat="47.78883" lon="-3.55952">
        <ele>32</ele>
        <time>2019-07-17T16:42:12Z</time>
      </trkpt>
      <trkpt lat="47.78876" lon="-3.55948">
        <ele>32</ele>
        <time>2019-07-17T16:42:13Z</time>
      </trkpt>
      <trkpt lat="47.7887" lon="-3.55945">
        <ele>33</ele>
        <time>2019-07-17T16:42:14Z</time>
      </trkpt>
      <trkpt lat="47.78864" lon="-3.55941">
        <ele>33</ele>
        <time>2019-07-17T16:42:15Z</time>
      </trkpt>
      <trkpt lat="47.78858" lon="-3.55937">
        <ele>33</ele>
        <time>2019-07-17T16:42:16Z</time>
      </trkpt>
      <trkpt lat="47.78852" lon="-3.55932">
        <ele>33</ele>
        <time>2019-07-17T16:42:17Z</time>
      </trkpt>
      <trkpt lat="47.78846" lon="-3.55926">
        <ele>33</ele>
        <time>2019-07-17T16:42:18Z</time>
      </trkpt>
      <trkpt lat="47.78841" lon="-3.5592">
        <ele>33</ele>
        <time>2019-07-17T16:42:19Z</time>
      </trkpt>
      <trkpt lat="47.78836" lon="-3.55914">
        <ele>33</ele>
        <time>2019-07-17T16:42:20Z</time>
      </trkpt>
      <trkpt lat="47.78831" lon="-3.55907">
        <ele>33</ele>
        <time>2019-07-17T16:42:21Z</time>
      </trkpt>
      <trkpt lat="47.78826" lon="-3.559">
        <ele>33</ele>
        <time>2019-07-17T16:42:22Z</time>
      </trkpt>
      <trkpt lat="47.78822" lon="-3.55892">
        <ele>33</ele>
        <time>2019-07-17T16:42:23Z</time>
      </trkpt>
      <trkpt lat="47.78817" lon="-3.55885">
        <ele>34</ele>
        <time>2019-07-17T16:42:24Z</time>
      </trkpt>
      <trkpt lat="47.78813" lon="-3.55877">
        <ele>34</ele>
        <time>2019-07-17T16:42:25Z</time>
      </trkpt>
      <trkpt lat="47.78809" lon="-3.55869">
        <ele>34</ele>
        <time>2019-07-17T16:42:26Z</time>
      </trkpt>
      <trkpt lat="47.78806" lon="-3.55861">
        <ele>34</ele>
        <time>2019-07-17T16:42:27Z</time>
      </trkpt>
      <trkpt lat="47.78803" lon="-3.55853">
        <ele>33</ele>
        <time>2019-07-17T16:42:28Z</time>
      </trkpt>
      <trkpt lat="47.788" lon="-3.55844">
        <ele>33</ele>
        <time>2019-07-17T16:42:29Z</time>
      </trkpt>
      <trkpt lat="47.78798" lon="-3.55835">
        <ele>33</ele>
        <time>2019-07-17T16:42:30Z</time>
      </trkpt>
      <trkpt lat="47.78796" lon="-3.55826">
        <ele>33</ele>
        <time>2019-07-17T16:42:31Z</time>
      </trkpt>
      <trkpt lat="47.78793" lon="-3.55817">
        <ele>33</ele>
        <time>2019-07-17T16:42:32Z</time>
      </trkpt>
      <trkpt lat="47.78791" lon="-3.55808">
        <ele>33</ele>
        <time>2019-07-17T16:42:33Z</time>
      </trkpt>
      <trkpt lat="47.78789" lon="-3.55799">
        <ele>32</ele>
        <time>2019-07-17T16:42:34Z</time>
      </trkpt>
      <trkpt lat="47.78787" lon="-3.5579">
        <ele>32</ele>
        <time>2019-07-17T16:42:35Z</time>
      </trkpt>
      <trkpt lat="47.78785" lon="-3.5578">
        <ele>32</ele>
        <time>2019-07-17T16:42:36Z</time>
      </trkpt>
      <trkpt lat="47.78783" lon="-3.55771">
        <ele>32</ele>
        <time>2019-07-17T16:42:37Z</time>
      </trkpt>
      <trkpt lat="47.78781" lon="-3.55762">
        <ele>31</ele>
        <time>2019-07-17T16:42:38Z</time>
      </trkpt>
      <trkpt lat="47.7878" lon="-3.55752">
        <ele>31</ele>
        <time>2019-07-17T16:42:39Z</time>
      </trkpt>
      <trkpt lat="47.78777" lon="-3.55742">
        <ele>31</ele>
        <time>2019-07-17T16:42:40Z</time>
      </trkpt>
      <trkpt lat="47.78775" lon="-3.55731">
        <ele>30</ele>
        <time>2019-07-17T16:42:41Z</time>
      </trkpt>
      <trkpt lat="47.78773" lon="-3.55721">
        <ele>30</ele>
        <time>2019-07-17T16:42:42Z</time>
      </trkpt>
      <trkpt lat="47.78772" lon="-3.5571">
        <ele>30</ele>
        <time>2019-07-17T16:42:43Z</time>
      </trkpt>
      <trkpt lat="47.78771" lon="-3.557">
        <ele>29</ele>
        <time>2019-07-17T16:42:44Z</time>
      </trkpt>
      <trkpt lat="47.7877" lon="-3.55689">
        <ele>29</ele>
        <time>2019-07-17T16:42:45Z</time>
      </trkpt>
      <trkpt lat="47.78769" lon="-3.55678">
        <ele>28</ele>
        <time>2019-07-17T16:42:46Z</time>
      </trkpt>
      <trkpt lat="47.78769" lon="-3.55666">
        <ele>28</ele>
        <time>2019-07-17T16:42:47Z</time>
      </trkpt>
      <trkpt lat="47.78768" lon="-3.55654">
        <ele>27</ele>
        <time>2019-07-17T16:42:48Z</time>
      </trkpt>
      <trkpt lat="47.78768" lon="-3.55642">
        <ele>27</ele>
        <time>2019-07-17T16:42:49Z</time>
      </trkpt>
      <trkpt lat="47.78768" lon="-3.5563">
        <ele>26</ele>
        <time>2019-07-17T16:42:50Z</time>
      </trkpt>
      <trkpt lat="47.78769" lon="-3.55618">
        <ele>25</ele>
        <time>2019-07-17T16:42:51Z</time>
      </trkpt>
      <trkpt lat="47.78769" lon="-3.55607">
        <ele>25</ele>
        <time>2019-07-17T16:42:52Z</time>
      </trkpt>
      <trkpt lat="47.7877" lon="-3.55597">
        <ele>24</ele>
        <time>2019-07-17T16:42:53Z</time>
      </trkpt>
      <trkpt lat="47.78771" lon="-3.55588">
        <ele>24</ele>
        <time>2019-07-17T16:42:54Z</time>
      </trkpt>
      <trkpt lat="47.78773" lon="-3.55578">
        <ele>23</ele>
        <time>2019-07-17T16:42:55Z</time>
      </trkpt>
      <trkpt lat="47.78776" lon="-3.55568">
        <ele>22</ele>
        <time>2019-07-17T16:42:56Z</time>
      </trkpt>
      <trkpt lat="47.78778" lon="-3.55557">
        <ele>22</ele>
        <time>2019-07-17T16:42:57Z</time>
      </trkpt>
      <trkpt lat="47.78781" lon="-3.55545">
        <ele>21</ele>
        <time>2019-07-17T16:42:58Z</time>
      </trkpt>
      <trkpt lat="47.78783" lon="-3.55533">
        <ele>20</ele>
        <time>2019-07-17T16:42:59Z</time>
      </trkpt>
      <trkpt lat="47.78785" lon="-3.55521">
        <ele>20</ele>
        <time>2019-07-17T16:43:00Z</time>
      </trkpt>
      <trkpt lat="47.78787" lon="-3.55508">
        <ele>19</ele>
        <time>2019-07-17T16:43:01Z</time>
      </trkpt>
      <trkpt lat="47.7879" lon="-3.55496">
        <ele>18</ele>
        <time>2019-07-17T16:43:02Z</time>
      </trkpt>
      <trkpt lat="47.78792" lon="-3.55485">
        <ele>18</ele>
        <time>2019-07-17T16:43:03Z</time>
      </trkpt>
      <trkpt lat="47.78794" lon="-3.55475">
        <ele>17</ele>
        <time>2019-07-17T16:43:04Z</time>
      </trkpt>
      <trkpt lat="47.78796" lon="-3.55466">
        <ele>17</ele>
        <time>2019-07-17T16:43:05Z</time>
      </trkpt>
      <trkpt lat="47.78798" lon="-3.55458">
        <ele>16</ele>
        <time>2019-07-17T16:43:06Z</time>
      </trkpt>
      <trkpt lat="47.78799" lon="-3.5545">
        <ele>16</ele>
        <time>2019-07-17T16:43:07Z</time>
      </trkpt>
      <trkpt lat="47.78801" lon="-3.55443">
        <ele>15</ele>
        <time>2019-07-17T16:43:08Z</time>
      </trkpt>
      <trkpt lat="47.78802" lon="-3.55437">
        <ele>15</ele>
        <time>2019-07-17T16:43:09Z</time>
      </trkpt>
      <trkpt lat="47.78804" lon="-3.55431">
        <ele>15</ele>
        <time>2019-07-17T16:43:10Z</time>
      </trkpt>
      <trkpt lat="47.78805" lon="-3.55426">
        <ele>15</ele>
        <time>2019-07-17T16:43:11Z</time>
      </trkpt>
      <trkpt lat="47.78807" lon="-3.55421">
        <ele>15</ele>
        <time>2019-07-17T16:43:12Z</time>
      </trkpt>
      <trkpt lat="47.78809" lon="-3.55417">
        <ele>14</ele>
        <time>2019-07-17T16:43:13Z</time>
      </trkpt>
      <trkpt lat="47.7881" lon="-3.55414">
        <ele>14</ele>
        <time>2019-07-17T16:43:14Z</time>
      </trkpt>
      <trkpt lat="47.7881" lon="-3.55414">
        <ele>14</ele>
        <time>2019-07-17T16:43:15Z</time>
      </trkpt>
      <trkpt lat="47.7881" lon="-3.55414">
        <ele>14</ele>
        <time>2019-07-17T16:43:16Z</time>
      </trkpt>
      <trkpt lat="47.7881" lon="-3.55414">
        <ele>14</ele>
        <time>2019-07-17T16:43:17Z</time>
      </trkpt>
      <trkpt lat="47.78813" lon="-3.5541">
        <ele>14</ele>
        <time>2019-07-17T16:43:18Z</time>
      </trkpt>
      <trkpt lat="47.78812" lon="-3.55407">
        <ele>14</ele>
        <time>2019-07-17T16:43:19Z</time>
      </trkpt>
      <trkpt lat="47.78811" lon="-3.55407">
        <ele>14</ele>
        <time>2019-07-17T16:43:20Z</time>
      </trkpt>
      <trkpt lat="47.78809" lon="-3.55407">
        <ele>14</ele>
        <time>2019-07-17T16:43:21Z</time>
      </trkpt>
      <trkpt lat="47.78807" lon="-3.55407">
        <ele>14</ele>
        <time>2019-07-17T16:43:22Z</time>
      </trkpt>
      <trkpt lat="47.78803" lon="-3.55408">
        <ele>14</ele>
        <time>2019-07-17T16:43:23Z</time>
      </trkpt>
      <trkpt lat="47.788" lon="-3.5541">
        <ele>13</ele>
        <time>2019-07-17T16:43:24Z</time>
      </trkpt>
      <trkpt lat="47.78795" lon="-3.55414">
        <ele>13</ele>
        <time>2019-07-17T16:43:25Z</time>
      </trkpt>
      <trkpt lat="47.78791" lon="-3.55419">
        <ele>13</ele>
        <time>2019-07-17T16:43:26Z</time>
      </trkpt>
      <trkpt lat="47.78787" lon="-3.55425">
        <ele>13</ele>
        <time>2019-07-17T16:43:27Z</time>
      </trkpt>
      <trkpt lat="47.78783" lon="-3.55432">
        <ele>13</ele>
        <time>2019-07-17T16:43:28Z</time>
      </trkpt>
      <trkpt lat="47.78779" lon="-3.55439">
        <ele>13</ele>
        <time>2019-07-17T16:43:29Z</time>
      </trkpt>
      <trkpt lat="47.78775" lon="-3.55446">
        <ele>13</ele>
        <time>2019-07-17T16:43:30Z</time>
      </trkpt>
      <trkpt lat="47.78771" lon="-3.55452">
        <ele>13</ele>
        <time>2019-07-17T16:43:31Z</time>
      </trkpt>
      <trkpt lat="47.78767" lon="-3.55459">
        <ele>13</ele>
        <time>2019-07-17T16:43:32Z</time>
      </trkpt>
      <trkpt lat="47.78764" lon="-3.55465">
        <ele>13</ele>
        <time>2019-07-17T16:43:33Z</time>
      </trkpt>
      <trkpt lat="47.78761" lon="-3.55472">
        <ele>13</ele>
        <time>2019-07-17T16:43:34Z</time>
      </trkpt>
      <trkpt lat="47.78758" lon="-3.55478">
        <ele>13</ele>
        <time>2019-07-17T16:43:35Z</time>
      </trkpt>
      <trkpt lat="47.78754" lon="-3.55483">
        <ele>13</ele>
        <time>2019-07-17T16:43:36Z</time>
      </trkpt>
      <trkpt lat="47.7875" lon="-3.55488">
        <ele>13</ele>
        <time>2019-07-17T16:43:37Z</time>
      </trkpt>
      <trkpt lat="47.78747" lon="-3.55492">
        <ele>13</ele>
        <time>2019-07-17T16:43:38Z</time>
      </trkpt>
      <trkpt lat="47.78743" lon="-3.55495">
        <ele>13</ele>
        <time>2019-07-17T16:43:39Z</time>
      </trkpt>
      <trkpt lat="47.78741" lon="-3.55498">
        <ele>13</ele>
        <time>2019-07-17T16:43:40Z</time>
      </trkpt>
      <trkpt lat="47.78739" lon="-3.555">
        <ele>13</ele>
        <time>2019-07-17T16:43:41Z</time>
      </trkpt>
      <trkpt lat="47.78738" lon="-3.55501">
        <ele>13</ele>
        <time>2019-07-17T16:43:42Z</time>
      </trkpt>
      <trkpt lat="47.78738" lon="-3.55501">
        <ele>14</ele>
        <time>2019-07-17T16:43:43Z</time>
      </trkpt>
      <trkpt lat="47.78737" lon="-3.55501">
        <ele>14</ele>
        <time>2019-07-17T16:43:44Z</time>
      </trkpt>
      <trkpt lat="47.78732" lon="-3.55507">
        <ele>14</ele>
        <time>2019-07-17T16:43:45Z</time>
      </trkpt>
      <trkpt lat="47.7873" lon="-3.55509">
        <ele>14</ele>
        <time>2019-07-17T16:43:46Z</time>
      </trkpt>
      <trkpt lat="47.78728" lon="-3.55511">
        <ele>14</ele>
        <time>2019-07-17T16:43:47Z</time>
      </trkpt>
      <trkpt lat="47.78725" lon="-3.55514">
        <ele>14</ele>
        <time>2019-07-17T16:43:48Z</time>
      </trkpt>
      <trkpt lat="47.78721" lon="-3.55518">
        <ele>13</ele>
        <time>2019-07-17T16:43:49Z</time>
      </trkpt>
      <trkpt lat="47.78718" lon="-3.5552">
        <ele>13</ele>
        <time>2019-07-17T16:43:50Z</time>
      </trkpt>
      <trkpt lat="47.78715" lon="-3.55522">
        <ele>13</ele>
        <time>2019-07-17T16:43:51Z</time>
      </trkpt>
      <trkpt lat="47.78713" lon="-3.55524">
        <ele>13</ele>
        <time>2019-07-17T16:43:52Z</time>
      </trkpt>
      <trkpt lat="47.7871" lon="-3.55526">
        <ele>13</ele>
        <time>2019-07-17T16:43:53Z</time>
      </trkpt>
      <trkpt lat="47.78707" lon="-3.55528">
        <ele>13</ele>
        <time>2019-07-17T16:43:54Z</time>
      </trkpt>
      <trkpt lat="47.78703" lon="-3.55531">
        <ele>13</ele>
        <time>2019-07-17T16:43:55Z</time>
      </trkpt>
      <trkpt lat="47.787" lon="-3.55533">
        <ele>13</ele>
        <time>2019-07-17T16:43:56Z</time>
      </trkpt>
      <trkpt lat="47.78696" lon="-3.55536">
        <ele>13</ele>
        <time>2019-07-17T16:43:57Z</time>
      </trkpt>
      <trkpt lat="47.78692" lon="-3.55538">
        <ele>13</ele>
        <time>2019-07-17T16:43:58Z</time>
      </trkpt>
      <trkpt lat="47.78688" lon="-3.5554">
        <ele>13</ele>
        <time>2019-07-17T16:43:59Z</time>
      </trkpt>
      <trkpt lat="47.78685" lon="-3.55543">
        <ele>13</ele>
        <time>2019-07-17T16:44:00Z</time>
      </trkpt>
      <trkpt lat="47.78681" lon="-3.55546">
        <ele>13</ele>
        <time>2019-07-17T16:44:01Z</time>
      </trkpt>
      <trkpt lat="47.78679" lon="-3.55548">
        <ele>13</ele>
        <time>2019-07-17T16:44:02Z</time>
      </trkpt>
      <trkpt lat="47.78678" lon="-3.55551">
        <ele>13</ele>
        <time>2019-07-17T16:44:03Z</time>
      </trkpt>
      <trkpt lat="47.78676" lon="-3.55552">
        <ele>14</ele>
        <time>2019-07-17T16:44:04Z</time>
      </trkpt>
      <trkpt lat="47.78674" lon="-3.55553">
        <ele>14</ele>
        <time>2019-07-17T16:44:05Z</time>
      </trkpt>
      <trkpt lat="47.78671" lon="-3.55554">
        <ele>14</ele>
        <time>2019-07-17T16:44:06Z</time>
      </trkpt>
      <trkpt lat="47.78669" lon="-3.55556">
        <ele>14</ele>
        <time>2019-07-17T16:44:07Z</time>
      </trkpt>
      <trkpt lat="47.78666" lon="-3.55557">
        <ele>14</ele>
        <time>2019-07-17T16:44:08Z</time>
      </trkpt>
      <trkpt lat="47.78664" lon="-3.55558">
        <ele>14</ele>
        <time>2019-07-17T16:44:09Z</time>
      </trkpt>
      <trkpt lat="47.78661" lon="-3.55559">
        <ele>15</ele>
        <time>2019-07-17T16:44:10Z</time>
      </trkpt>
      <trkpt lat="47.78659" lon="-3.55561">
        <ele>15</ele>
        <time>2019-07-17T16:44:11Z</time>
      </trkpt>
      <trkpt lat="47.78657" lon="-3.55563">
        <ele>15</ele>
        <time>2019-07-17T16:44:12Z</time>
      </trkpt>
      <trkpt lat="47.78656" lon="-3.55566">
        <ele>15</ele>
        <time>2019-07-17T16:44:13Z</time>
      </trkpt>
      <trkpt lat="47.78654" lon="-3.55568">
        <ele>16</ele>
        <time>2019-07-17T16:44:14Z</time>
      </trkpt>
      <trkpt lat="47.78652" lon="-3.5557">
        <ele>16</ele>
        <time>2019-07-17T16:44:15Z</time>
      </trkpt>
      <trkpt lat="47.78651" lon="-3.55572">
        <ele>16</ele>
        <time>2019-07-17T16:44:16Z</time>
      </trkpt>
      <trkpt lat="47.7865" lon="-3.55573">
        <ele>17</ele>
        <time>2019-07-17T16:44:17Z</time>
      </trkpt>
      <trkpt lat="47.78649" lon="-3.55575">
        <ele>17</ele>
        <time>2019-07-17T16:44:18Z</time>
      </trkpt>
      <trkpt lat="47.78648" lon="-3.55578">
        <ele>17</ele>
        <time>2019-07-17T16:44:19Z</time>
      </trkpt>
      <trkpt lat="47.78647" lon="-3.55581">
        <ele>18</ele>
        <time>2019-07-17T16:44:20Z</time>
      </trkpt>
      <trkpt lat="47.78647" lon="-3.55584">
        <ele>18</ele>
        <time>2019-07-17T16:44:21Z</time>
      </trkpt>
      <trkpt lat="47.78648" lon="-3.55588">
        <ele>18</ele>
        <time>2019-07-17T16:44:22Z</time>
      </trkpt>
      <trkpt lat="47.78648" lon="-3.55592">
        <ele>19</ele>
        <time>2019-07-17T16:44:23Z</time>
      </trkpt>
      <trkpt lat="47.78647" lon="-3.55596">
        <ele>19</ele>
        <time>2019-07-17T16:44:24Z</time>
      </trkpt>
      <trkpt lat="47.78648" lon="-3.556">
        <ele>19</ele>
        <time>2019-07-17T16:44:25Z</time>
      </trkpt>
      <trkpt lat="47.78647" lon="-3.55603">
        <ele>20</ele>
        <time>2019-07-17T16:44:26Z</time>
      </trkpt>
      <trkpt lat="47.78646" lon="-3.55608">
        <ele>20</ele>
        <time>2019-07-17T16:44:27Z</time>
      </trkpt>
      <trkpt lat="47.78646" lon="-3.55612">
        <ele>20</ele>
        <time>2019-07-17T16:44:28Z</time>
      </trkpt>
      <trkpt lat="47.78646" lon="-3.55616">
        <ele>20</ele>
        <time>2019-07-17T16:44:29Z</time>
      </trkpt>
      <trkpt lat="47.78646" lon="-3.5562">
        <ele>21</ele>
        <time>2019-07-17T16:44:30Z</time>
      </trkpt>
      <trkpt lat="47.78645" lon="-3.55625">
        <ele>21</ele>
        <time>2019-07-17T16:44:31Z</time>
      </trkpt>
      <trkpt lat="47.78644" lon="-3.55631">
        <ele>21</ele>
        <time>2019-07-17T16:44:32Z</time>
      </trkpt>
      <trkpt lat="47.78643" lon="-3.55636">
        <ele>21</ele>
        <time>2019-07-17T16:44:33Z</time>
      </trkpt>
      <trkpt lat="47.78643" lon="-3.55642">
        <ele>22</ele>
        <time>2019-07-17T16:44:34Z</time>
      </trkpt>
      <trkpt lat="47.78643" lon="-3.55647">
        <ele>22</ele>
        <time>2019-07-17T16:44:35Z</time>
      </trkpt>
      <trkpt lat="47.78643" lon="-3.55653">
        <ele>22</ele>
        <time>2019-07-17T16:44:36Z</time>
      </trkpt>
      <trkpt lat="47.78643" lon="-3.55659">
        <ele>22</ele>
        <time>2019-07-17T16:44:37Z</time>
      </trkpt>
      <trkpt lat="47.78643" lon="-3.55663">
        <ele>22</ele>
        <time>2019-07-17T16:44:38Z</time>
      </trkpt>
      <trkpt lat="47.78643" lon="-3.55669">
        <ele>23</ele>
        <time>2019-07-17T16:44:39Z</time>
      </trkpt>
      <trkpt lat="47.78644" lon="-3.55674">
        <ele>23</ele>
        <time>2019-07-17T16:44:40Z</time>
      </trkpt>
      <trkpt lat="47.78643" lon="-3.5568">
        <ele>23</ele>
        <time>2019-07-17T16:44:41Z</time>
      </trkpt>
      <trkpt lat="47.78643" lon="-3.55687">
        <ele>23</ele>
        <time>2019-07-17T16:44:42Z</time>
      </trkpt>
      <trkpt lat="47.78642" lon="-3.55694">
        <ele>23</ele>
        <time>2019-07-17T16:44:43Z</time>
      </trkpt>
      <trkpt lat="47.78641" lon="-3.557">
        <ele>23</ele>
        <time>2019-07-17T16:44:44Z</time>
      </trkpt>
      <trkpt lat="47.78639" lon="-3.55707">
        <ele>24</ele>
        <time>2019-07-17T16:44:45Z</time>
      </trkpt>
      <trkpt lat="47.78638" lon="-3.55714">
        <ele>24</ele>
        <time>2019-07-17T16:44:46Z</time>
      </trkpt>
      <trkpt lat="47.78636" lon="-3.55721">
        <ele>24</ele>
        <time>2019-07-17T16:44:47Z</time>
      </trkpt>
      <trkpt lat="47.78635" lon="-3.55726">
        <ele>24</ele>
        <time>2019-07-17T16:44:48Z</time>
      </trkpt>
      <trkpt lat="47.78634" lon="-3.55731">
        <ele>24</ele>
        <time>2019-07-17T16:44:49Z</time>
      </trkpt>
      <trkpt lat="47.78632" lon="-3.55736">
        <ele>25</ele>
        <time>2019-07-17T16:44:50Z</time>
      </trkpt>
      <trkpt lat="47.7863" lon="-3.55743">
        <ele>25</ele>
        <time>2019-07-17T16:44:51Z</time>
      </trkpt>
      <trkpt lat="47.78628" lon="-3.55751">
        <ele>25</ele>
        <time>2019-07-17T16:44:52Z</time>
      </trkpt>
      <trkpt lat="47.78626" lon="-3.55758">
        <ele>25</ele>
        <time>2019-07-17T16:44:53Z</time>
      </trkpt>
      <trkpt lat="47.78625" lon="-3.55765">
        <ele>25</ele>
        <time>2019-07-17T16:44:54Z</time>
      </trkpt>
      <trkpt lat="47.78623" lon="-3.5577">
        <ele>26</ele>
        <time>2019-07-17T16:44:55Z</time>
      </trkpt>
      <trkpt lat="47.78621" lon="-3.55773">
        <ele>26</ele>
        <time>2019-07-17T16:44:56Z</time>
      </trkpt>
      <trkpt lat="47.78618" lon="-3.55777">
        <ele>26</ele>
        <time>2019-07-17T16:44:57Z</time>
      </trkpt>
      <trkpt lat="47.78614" lon="-3.55782">
        <ele>26</ele>
        <time>2019-07-17T16:44:58Z</time>
      </trkpt>
      <trkpt lat="47.78611" lon="-3.55789">
        <ele>26</ele>
        <time>2019-07-17T16:44:59Z</time>
      </trkpt>
      <trkpt lat="47.78607" lon="-3.55795">
        <ele>26</ele>
        <time>2019-07-17T16:45:00Z</time>
      </trkpt>
      <trkpt lat="47.78604" lon="-3.55801">
        <ele>26</ele>
        <time>2019-07-17T16:45:01Z</time>
      </trkpt>
      <trkpt lat="47.78603" lon="-3.55809">
        <ele>26</ele>
        <time>2019-07-17T16:45:02Z</time>
      </trkpt>
      <trkpt lat="47.78601" lon="-3.55817">
        <ele>27</ele>
        <time>2019-07-17T16:45:03Z</time>
      </trkpt>
      <trkpt lat="47.786" lon="-3.55825">
        <ele>27</ele>
        <time>2019-07-17T16:45:04Z</time>
      </trkpt>
      <trkpt lat="47.78598" lon="-3.55833">
        <ele>27</ele>
        <time>2019-07-17T16:45:05Z</time>
      </trkpt>
      <trkpt lat="47.78598" lon="-3.5584">
        <ele>27</ele>
        <time>2019-07-17T16:45:06Z</time>
      </trkpt>
      <trkpt lat="47.78598" lon="-3.55847">
        <ele>27</ele>
        <time>2019-07-17T16:45:07Z</time>
      </trkpt>
      <trkpt lat="47.78598" lon="-3.55853">
        <ele>27</ele>
        <time>2019-07-17T16:45:08Z</time>
      </trkpt>
      <trkpt lat="47.78598" lon="-3.55858">
        <ele>27</ele>
        <time>2019-07-17T16:45:09Z</time>
      </trkpt>
      <trkpt lat="47.78599" lon="-3.55863">
        <ele>27</ele>
        <time>2019-07-17T16:45:10Z</time>
      </trkpt>
      <trkpt lat="47.786" lon="-3.55869">
        <ele>27</ele>
        <time>2019-07-17T16:45:11Z</time>
      </trkpt>
      <trkpt lat="47.78602" lon="-3.55874">
        <ele>27</ele>
        <time>2019-07-17T16:45:12Z</time>
      </trkpt>
      <trkpt lat="47.78602" lon="-3.55879">
        <ele>27</ele>
        <time>2019-07-17T16:45:13Z</time>
      </trkpt>
      <trkpt lat="47.78602" lon="-3.55881">
        <ele>26</ele>
        <time>2019-07-17T16:45:14Z</time>
      </trkpt>
      <trkpt lat="47.78601" lon="-3.55883">
        <ele>26</ele>
        <time>2019-07-17T16:45:15Z</time>
      </trkpt>
      <trkpt lat="47.786" lon="-3.55884">
        <ele>26</ele>
        <time>2019-07-17T16:45:16Z</time>
      </trkpt>
      <trkpt lat="47.78597" lon="-3.55886">
        <ele>26</ele>
        <time>2019-07-17T16:45:17Z</time>
      </trkpt>
      <trkpt lat="47.78596" lon="-3.55888">
        <ele>26</ele>
        <time>2019-07-17T16:45:18Z</time>
      </trkpt>
      <trkpt lat="47.78594" lon="-3.5589">
        <ele>26</ele>
        <time>2019-07-17T16:45:19Z</time>
      </trkpt>
      <trkpt lat="47.78593" lon="-3.55892">
        <ele>26</ele>
        <time>2019-07-17T16:45:20Z</time>
      </trkpt>
      <trkpt lat="47.78593" lon="-3.55893">
        <ele>25</ele>
        <time>2019-07-17T16:45:21Z</time>
      </trkpt>
      <trkpt lat="47.78592" lon="-3.55895">
        <ele>25</ele>
        <time>2019-07-17T16:45:22Z</time>
      </trkpt>
      <trkpt lat="47.78592" lon="-3.55898">
        <ele>25</ele>
        <time>2019-07-17T16:45:23Z</time>
      </trkpt>
      <trkpt lat="47.78591" lon="-3.559">
        <ele>25</ele>
        <time>2019-07-17T16:45:24Z</time>
      </trkpt>
      <trkpt lat="47.7859" lon="-3.55903">
        <ele>25</ele>
        <time>2019-07-17T16:45:25Z</time>
      </trkpt>
      <trkpt lat="47.78589" lon="-3.55905">
        <ele>24</ele>
        <time>2019-07-17T16:45:26Z</time>
      </trkpt>
      <trkpt lat="47.78587" lon="-3.55908">
        <ele>24</ele>
        <time>2019-07-17T16:45:27Z</time>
      </trkpt>
      <trkpt lat="47.78586" lon="-3.55909">
        <ele>24</ele>
        <time>2019-07-17T16:45:28Z</time>
      </trkpt>
      <trkpt lat="47.78585" lon="-3.5591">
        <ele>24</ele>
        <time>2019-07-17T16:45:29Z</time>
      </trkpt>
      <trkpt lat="47.78583" lon="-3.55911">
        <ele>24</ele>
        <time>2019-07-17T16:45:30Z</time>
      </trkpt>
      <trkpt lat="47.78583" lon="-3.55912">
        <ele>24</ele>
        <time>2019-07-17T16:45:31Z</time>
      </trkpt>
      <trkpt lat="47.78581" lon="-3.55914">
        <ele>24</ele>
        <time>2019-07-17T16:45:32Z</time>
      </trkpt>
      <trkpt lat="47.7858" lon="-3.55914">
        <ele>24</ele>
        <time>2019-07-17T16:45:33Z</time>
      </trkpt>
      <trkpt lat="47.78579" lon="-3.55915">
        <ele>24</ele>
        <time>2019-07-17T16:45:34Z</time>
      </trkpt>
      <trkpt lat="47.78578" lon="-3.55917">
        <ele>24</ele>
        <time>2019-07-17T16:45:35Z</time>
      </trkpt>
      <trkpt lat="47.78577" lon="-3.55919">
        <ele>24</ele>
        <time>2019-07-17T16:45:36Z</time>
      </trkpt>
      <trkpt lat="47.78576" lon="-3.55921">
        <ele>23</ele>
        <time>2019-07-17T16:45:37Z</time>
      </trkpt>
      <trkpt lat="47.78575" lon="-3.55923">
        <ele>23</ele>
        <time>2019-07-17T16:45:38Z</time>
      </trkpt>
      <trkpt lat="47.78573" lon="-3.55925">
        <ele>23</ele>
        <time>2019-07-17T16:45:39Z</time>
      </trkpt>
      <trkpt lat="47.7857" lon="-3.55928">
        <ele>23</ele>
        <time>2019-07-17T16:45:40Z</time>
      </trkpt>
      <trkpt lat="47.78568" lon="-3.55929">
        <ele>23</ele>
        <time>2019-07-17T16:45:41Z</time>
      </trkpt>
      <trkpt lat="47.78566" lon="-3.55932">
        <ele>23</ele>
        <time>2019-07-17T16:45:42Z</time>
      </trkpt>
      <trkpt lat="47.78563" lon="-3.55935">
        <ele>23</ele>
        <time>2019-07-17T16:45:43Z</time>
      </trkpt>
      <trkpt lat="47.78561" lon="-3.55938">
        <ele>23</ele>
        <time>2019-07-17T16:45:44Z</time>
      </trkpt>
      <trkpt lat="47.78558" lon="-3.55941">
        <ele>23</ele>
        <time>2019-07-17T16:45:45Z</time>
      </trkpt>
      <trkpt lat="47.78556" lon="-3.55945">
        <ele>23</ele>
        <time>2019-07-17T16:45:46Z</time>
      </trkpt>
      <trkpt lat="47.78554" lon="-3.55948">
        <ele>23</ele>
        <time>2019-07-17T16:45:47Z</time>
      </trkpt>
      <trkpt lat="47.78552" lon="-3.55951">
        <ele>23</ele>
        <time>2019-07-17T16:45:48Z</time>
      </trkpt>
      <trkpt lat="47.7855" lon="-3.55954">
        <ele>23</ele>
        <time>2019-07-17T16:45:49Z</time>
      </trkpt>
      <trkpt lat="47.78548" lon="-3.55957">
        <ele>23</ele>
        <time>2019-07-17T16:45:50Z</time>
      </trkpt>
      <trkpt lat="47.78546" lon="-3.55961">
        <ele>23</ele>
        <time>2019-07-17T16:45:51Z</time>
      </trkpt>
      <trkpt lat="47.78545" lon="-3.55966">
        <ele>24</ele>
        <time>2019-07-17T16:45:52Z</time>
      </trkpt>
      <trkpt lat="47.78544" lon="-3.5597">
        <ele>24</ele>
        <time>2019-07-17T16:45:53Z</time>
      </trkpt>
      <trkpt lat="47.78543" lon="-3.55972">
        <ele>24</ele>
        <time>2019-07-17T16:45:54Z</time>
      </trkpt>
      <trkpt lat="47.78542" lon="-3.55975">
        <ele>24</ele>
        <time>2019-07-17T16:45:55Z</time>
      </trkpt>
      <trkpt lat="47.7854" lon="-3.55979">
        <ele>24</ele>
        <time>2019-07-17T16:45:56Z</time>
      </trkpt>
      <trkpt lat="47.78538" lon="-3.55983">
        <ele>25</ele>
        <time>2019-07-17T16:45:57Z</time>
      </trkpt>
      <trkpt lat="47.78536" lon="-3.55988">
        <ele>25</ele>
        <time>2019-07-17T16:45:58Z</time>
      </trkpt>
      <trkpt lat="47.78533" lon="-3.55992">
        <ele>25</ele>
        <time>2019-07-17T16:45:59Z</time>
      </trkpt>
      <trkpt lat="47.78531" lon="-3.55996">
        <ele>25</ele>
        <time>2019-07-17T16:46:00Z</time>
      </trkpt>
      <trkpt lat="47.78529" lon="-3.56">
        <ele>25</ele>
        <time>2019-07-17T16:46:01Z</time>
      </trkpt>
      <trkpt lat="47.78527" lon="-3.56003">
        <ele>25</ele>
        <time>2019-07-17T16:46:02Z</time>
      </trkpt>
      <trkpt lat="47.78525" lon="-3.56007">
        <ele>25</ele>
        <time>2019-07-17T16:46:03Z</time>
      </trkpt>
      <trkpt lat="47.78523" lon="-3.56011">
        <ele>26</ele>
        <time>2019-07-17T16:46:04Z</time>
      </trkpt>
      <trkpt lat="47.78522" lon="-3.56015">
        <ele>26</ele>
        <time>2019-07-17T16:46:05Z</time>
      </trkpt>
      <trkpt lat="47.7852" lon="-3.56018">
        <ele>26</ele>
        <time>2019-07-17T16:46:06Z</time>
      </trkpt>
      <trkpt lat="47.78518" lon="-3.56022">
        <ele>26</ele>
        <time>2019-07-17T16:46:07Z</time>
      </trkpt>
      <trkpt lat="47.78517" lon="-3.56025">
        <ele>26</ele>
        <time>2019-07-17T16:46:08Z</time>
      </trkpt>
      <trkpt lat="47.78516" lon="-3.56028">
        <ele>26</ele>
        <time>2019-07-17T16:46:09Z</time>
      </trkpt>
      <trkpt lat="47.78514" lon="-3.56032">
        <ele>26</ele>
        <time>2019-07-17T16:46:10Z</time>
      </trkpt>
      <trkpt lat="47.78513" lon="-3.56035">
        <ele>26</ele>
        <time>2019-07-17T16:46:11Z</time>
      </trkpt>
      <trkpt lat="47.78511" lon="-3.56039">
        <ele>26</ele>
        <time>2019-07-17T16:46:12Z</time>
      </trkpt>
      <trkpt lat="47.78509" lon="-3.56041">
        <ele>26</ele>
        <time>2019-07-17T16:46:13Z</time>
      </trkpt>
      <trkpt lat="47.78507" lon="-3.56044">
        <ele>26</ele>
        <time>2019-07-17T16:46:14Z</time>
      </trkpt>
      <trkpt lat="47.78506" lon="-3.56047">
        <ele>26</ele>
        <time>2019-07-17T16:46:15Z</time>
      </trkpt>
      <trkpt lat="47.78503" lon="-3.5605">
        <ele>27</ele>
        <time>2019-07-17T16:46:16Z</time>
      </trkpt>
      <trkpt lat="47.78501" lon="-3.56054">
        <ele>27</ele>
        <time>2019-07-17T16:46:17Z</time>
      </trkpt>
      <trkpt lat="47.78499" lon="-3.56057">
        <ele>27</ele>
        <time>2019-07-17T16:46:18Z</time>
      </trkpt>
      <trkpt lat="47.78497" lon="-3.56059">
        <ele>27</ele>
        <time>2019-07-17T16:46:19Z</time>
      </trkpt>
      <trkpt lat="47.78494" lon="-3.56063">
        <ele>28</ele>
        <time>2019-07-17T16:46:20Z</time>
      </trkpt>
      <trkpt lat="47.78491" lon="-3.56066">
        <ele>28</ele>
        <time>2019-07-17T16:46:21Z</time>
      </trkpt>
      <trkpt lat="47.78488" lon="-3.56068">
        <ele>28</ele>
        <time>2019-07-17T16:46:22Z</time>
      </trkpt>
      <trkpt lat="47.78486" lon="-3.56072">
        <ele>29</ele>
        <time>2019-07-17T16:46:23Z</time>
      </trkpt>
      <trkpt lat="47.78483" lon="-3.56076">
        <ele>29</ele>
        <time>2019-07-17T16:46:24Z</time>
      </trkpt>
      <trkpt lat="47.78481" lon="-3.5608">
        <ele>29</ele>
        <time>2019-07-17T16:46:25Z</time>
      </trkpt>
      <trkpt lat="47.78478" lon="-3.56083">
        <ele>29</ele>
        <time>2019-07-17T16:46:26Z</time>
      </trkpt>
      <trkpt lat="47.78476" lon="-3.56086">
        <ele>29</ele>
        <time>2019-07-17T16:46:27Z</time>
      </trkpt>
      <trkpt lat="47.78472" lon="-3.56089">
        <ele>30</ele>
        <time>2019-07-17T16:46:28Z</time>
      </trkpt>
      <trkpt lat="47.78469" lon="-3.56093">
        <ele>30</ele>
        <time>2019-07-17T16:46:29Z</time>
      </trkpt>
      <trkpt lat="47.78466" lon="-3.56095">
        <ele>30</ele>
        <time>2019-07-17T16:46:30Z</time>
      </trkpt>
      <trkpt lat="47.78463" lon="-3.56098">
        <ele>30</ele>
        <time>2019-07-17T16:46:31Z</time>
      </trkpt>
      <trkpt lat="47.7846" lon="-3.56101">
        <ele>30</ele>
        <time>2019-07-17T16:46:32Z</time>
      </trkpt>
      <trkpt lat="47.78456" lon="-3.56105">
        <ele>31</ele>
        <time>2019-07-17T16:46:33Z</time>
      </trkpt>
      <trkpt lat="47.78452" lon="-3.56107">
        <ele>31</ele>
        <time>2019-07-17T16:46:34Z</time>
      </trkpt>
      <trkpt lat="47.78448" lon="-3.56109">
        <ele>31</ele>
        <time>2019-07-17T16:46:35Z</time>
      </trkpt>
      <trkpt lat="47.78444" lon="-3.5611">
        <ele>31</ele>
        <time>2019-07-17T16:46:36Z</time>
      </trkpt>
      <trkpt lat="47.78441" lon="-3.56111">
        <ele>32</ele>
        <time>2019-07-17T16:46:37Z</time>
      </trkpt>
      <trkpt lat="47.78437" lon="-3.56112">
        <ele>32</ele>
        <time>2019-07-17T16:46:38Z</time>
      </trkpt>
      <trkpt lat="47.78433" lon="-3.56114">
        <ele>32</ele>
        <time>2019-07-17T16:46:39Z</time>
      </trkpt>
      <trkpt lat="47.78431" lon="-3.56116">
        <ele>32</ele>
        <time>2019-07-17T16:46:40Z</time>
      </trkpt>
      <trkpt lat="47.78428" lon="-3.56119">
        <ele>32</ele>
        <time>2019-07-17T16:46:41Z</time>
      </trkpt>
      <trkpt lat="47.78426" lon="-3.56123">
        <ele>32</ele>
        <time>2019-07-17T16:46:42Z</time>
      </trkpt>
      <trkpt lat="47.78424" lon="-3.56127">
        <ele>32</ele>
        <time>2019-07-17T16:46:43Z</time>
      </trkpt>
      <trkpt lat="47.78423" lon="-3.56132">
        <ele>32</ele>
        <time>2019-07-17T16:46:44Z</time>
      </trkpt>
      <trkpt lat="47.78422" lon="-3.56137">
        <ele>32</ele>
        <time>2019-07-17T16:46:45Z</time>
      </trkpt>
      <trkpt lat="47.78421" lon="-3.56142">
        <ele>32</ele>
        <time>2019-07-17T16:46:46Z</time>
      </trkpt>
      <trkpt lat="47.78419" lon="-3.56147">
        <ele>32</ele>
        <time>2019-07-17T16:46:47Z</time>
      </trkpt>
      <trkpt lat="47.78418" lon="-3.56151">
        <ele>32</ele>
        <time>2019-07-17T16:46:48Z</time>
      </trkpt>
      <trkpt lat="47.78417" lon="-3.56155">
        <ele>32</ele>
        <time>2019-07-17T16:46:49Z</time>
      </trkpt>
      <trkpt lat="47.78416" lon="-3.56161">
        <ele>32</ele>
        <time>2019-07-17T16:46:50Z</time>
      </trkpt>
      <trkpt lat="47.78414" lon="-3.56166">
        <ele>32</ele>
        <time>2019-07-17T16:46:51Z</time>
      </trkpt>
      <trkpt lat="47.78413" lon="-3.56171">
        <ele>32</ele>
        <time>2019-07-17T16:46:52Z</time>
      </trkpt>
      <trkpt lat="47.78412" lon="-3.56175">
        <ele>32</ele>
        <time>2019-07-17T16:46:53Z</time>
      </trkpt>
      <trkpt lat="47.78411" lon="-3.5618">
        <ele>32</ele>
        <time>2019-07-17T16:46:54Z</time>
      </trkpt>
      <trkpt lat="47.7841" lon="-3.56183">
        <ele>32</ele>
        <time>2019-07-17T16:46:55Z</time>
      </trkpt>
      <trkpt lat="47.78409" lon="-3.56187">
        <ele>32</ele>
        <time>2019-07-17T16:46:56Z</time>
      </trkpt>
      <trkpt lat="47.78407" lon="-3.5619">
        <ele>33</ele>
        <time>2019-07-17T16:46:57Z</time>
      </trkpt>
      <trkpt lat="47.78405" lon="-3.56192">
        <ele>33</ele>
        <time>2019-07-17T16:46:58Z</time>
      </trkpt>
      <trkpt lat="47.78403" lon="-3.56194">
        <ele>33</ele>
        <time>2019-07-17T16:46:59Z</time>
      </trkpt>
      <trkpt lat="47.78402" lon="-3.56197">
        <ele>33</ele>
        <time>2019-07-17T16:47:00Z</time>
      </trkpt>
      <trkpt lat="47.78399" lon="-3.56199">
        <ele>33</ele>
        <time>2019-07-17T16:47:01Z</time>
      </trkpt>
      <trkpt lat="47.78398" lon="-3.56201">
        <ele>33</ele>
        <time>2019-07-17T16:47:02Z</time>
      </trkpt>
      <trkpt lat="47.78396" lon="-3.56203">
        <ele>34</ele>
        <time>2019-07-17T16:47:03Z</time>
      </trkpt>
      <trkpt lat="47.78394" lon="-3.56205">
        <ele>34</ele>
        <time>2019-07-17T16:47:04Z</time>
      </trkpt>
      <trkpt lat="47.78392" lon="-3.56207">
        <ele>34</ele>
        <time>2019-07-17T16:47:05Z</time>
      </trkpt>
      <trkpt lat="47.7839" lon="-3.56208">
        <ele>34</ele>
        <time>2019-07-17T16:47:06Z</time>
      </trkpt>
      <trkpt lat="47.78389" lon="-3.56209">
        <ele>34</ele>
        <time>2019-07-17T16:47:07Z</time>
      </trkpt>
      <trkpt lat="47.78387" lon="-3.56211">
        <ele>34</ele>
        <time>2019-07-17T16:47:08Z</time>
      </trkpt>
      <trkpt lat="47.78386" lon="-3.56213">
        <ele>35</ele>
        <time>2019-07-17T16:47:09Z</time>
      </trkpt>
      <trkpt lat="47.78384" lon="-3.56214">
        <ele>35</ele>
        <time>2019-07-17T16:47:10Z</time>
      </trkpt>
      <trkpt lat="47.78382" lon="-3.56216">
        <ele>35</ele>
        <time>2019-07-17T16:47:11Z</time>
      </trkpt>
      <trkpt lat="47.7838" lon="-3.56218">
        <ele>35</ele>
        <time>2019-07-17T16:47:12Z</time>
      </trkpt>
      <trkpt lat="47.78379" lon="-3.5622">
        <ele>35</ele>
        <time>2019-07-17T16:47:13Z</time>
      </trkpt>
      <trkpt lat="47.78377" lon="-3.56223">
        <ele>36</ele>
        <time>2019-07-17T16:47:14Z</time>
      </trkpt>
      <trkpt lat="47.78376" lon="-3.56225">
        <ele>36</ele>
        <time>2019-07-17T16:47:15Z</time>
      </trkpt>
      <trkpt lat="47.78375" lon="-3.56226">
        <ele>36</ele>
        <time>2019-07-17T16:47:16Z</time>
      </trkpt>
      <trkpt lat="47.78374" lon="-3.56228">
        <ele>36</ele>
        <time>2019-07-17T16:47:17Z</time>
      </trkpt>
      <trkpt lat="47.78373" lon="-3.56229">
        <ele>36</ele>
        <time>2019-07-17T16:47:18Z</time>
      </trkpt>
      <trkpt lat="47.78372" lon="-3.56231">
        <ele>37</ele>
        <time>2019-07-17T16:47:19Z</time>
      </trkpt>
      <trkpt lat="47.7837" lon="-3.56233">
        <ele>37</ele>
        <time>2019-07-17T16:47:20Z</time>
      </trkpt>
      <trkpt lat="47.78368" lon="-3.56236">
        <ele>37</ele>
        <time>2019-07-17T16:47:21Z</time>
      </trkpt>
      <trkpt lat="47.78366" lon="-3.56238">
        <ele>37</ele>
        <time>2019-07-17T16:47:22Z</time>
      </trkpt>
      <trkpt lat="47.78364" lon="-3.56241">
        <ele>37</ele>
        <time>2019-07-17T16:47:23Z</time>
      </trkpt>
      <trkpt lat="47.78362" lon="-3.56243">
        <ele>37</ele>
        <time>2019-07-17T16:47:24Z</time>
      </trkpt>
      <trkpt lat="47.7836" lon="-3.56246">
        <ele>37</ele>
        <time>2019-07-17T16:47:25Z</time>
      </trkpt>
      <trkpt lat="47.78358" lon="-3.56248">
        <ele>37</ele>
        <time>2019-07-17T16:47:26Z</time>
      </trkpt>
      <trkpt lat="47.78356" lon="-3.56251">
        <ele>38</ele>
        <time>2019-07-17T16:47:27Z</time>
      </trkpt>
      <trkpt lat="47.78355" lon="-3.56253">
        <ele>38</ele>
        <time>2019-07-17T16:47:28Z</time>
      </trkpt>
      <trkpt lat="47.78353" lon="-3.56255">
        <ele>38</ele>
        <time>2019-07-17T16:47:29Z</time>
      </trkpt>
      <trkpt lat="47.78352" lon="-3.56257">
        <ele>38</ele>
        <time>2019-07-17T16:47:30Z</time>
      </trkpt>
      <trkpt lat="47.7835" lon="-3.56259">
        <ele>38</ele>
        <time>2019-07-17T16:47:31Z</time>
      </trkpt>
      <trkpt lat="47.78349" lon="-3.56262">
        <ele>38</ele>
        <time>2019-07-17T16:47:32Z</time>
      </trkpt>
      <trkpt lat="47.78347" lon="-3.56264">
        <ele>39</ele>
        <time>2019-07-17T16:47:33Z</time>
      </trkpt>
      <trkpt lat="47.78346" lon="-3.56267">
        <ele>39</ele>
        <time>2019-07-17T16:47:34Z</time>
      </trkpt>
      <trkpt lat="47.78344" lon="-3.5627">
        <ele>39</ele>
        <time>2019-07-17T16:47:35Z</time>
      </trkpt>
      <trkpt lat="47.78342" lon="-3.56273">
        <ele>39</ele>
        <time>2019-07-17T16:47:36Z</time>
      </trkpt>
      <trkpt lat="47.7834" lon="-3.56276">
        <ele>40</ele>
        <time>2019-07-17T16:47:37Z</time>
      </trkpt>
      <trkpt lat="47.78338" lon="-3.56279">
        <ele>40</ele>
        <time>2019-07-17T16:47:38Z</time>
      </trkpt>
      <trkpt lat="47.78337" lon="-3.56282">
        <ele>40</ele>
        <time>2019-07-17T16:47:39Z</time>
      </trkpt>
      <trkpt lat="47.78334" lon="-3.56284">
        <ele>40</ele>
        <time>2019-07-17T16:47:40Z</time>
      </trkpt>
      <trkpt lat="47.78333" lon="-3.56287">
        <ele>40</ele>
        <time>2019-07-17T16:47:41Z</time>
      </trkpt>
      <trkpt lat="47.78331" lon="-3.5629">
        <ele>40</ele>
        <time>2019-07-17T16:47:42Z</time>
      </trkpt>
      <trkpt lat="47.78329" lon="-3.56293">
        <ele>41</ele>
        <time>2019-07-17T16:47:43Z</time>
      </trkpt>
      <trkpt lat="47.78328" lon="-3.56296">
        <ele>41</ele>
        <time>2019-07-17T16:47:44Z</time>
      </trkpt>
      <trkpt lat="47.78327" lon="-3.56299">
        <ele>41</ele>
        <time>2019-07-17T16:47:45Z</time>
      </trkpt>
      <trkpt lat="47.78326" lon="-3.56302">
        <ele>41</ele>
        <time>2019-07-17T16:47:46Z</time>
      </trkpt>
      <trkpt lat="47.78324" lon="-3.56306">
        <ele>41</ele>
        <time>2019-07-17T16:47:47Z</time>
      </trkpt>
      <trkpt lat="47.78323" lon="-3.56309">
        <ele>41</ele>
        <time>2019-07-17T16:47:48Z</time>
      </trkpt>
      <trkpt lat="47.78321" lon="-3.56312">
        <ele>41</ele>
        <time>2019-07-17T16:47:49Z</time>
      </trkpt>
      <trkpt lat="47.78319" lon="-3.56315">
        <ele>42</ele>
        <time>2019-07-17T16:47:50Z</time>
      </trkpt>
      <trkpt lat="47.78318" lon="-3.56318">
        <ele>42</ele>
        <time>2019-07-17T16:47:51Z</time>
      </trkpt>
      <trkpt lat="47.78316" lon="-3.56321">
        <ele>42</ele>
        <time>2019-07-17T16:47:52Z</time>
      </trkpt>
      <trkpt lat="47.78314" lon="-3.56322">
        <ele>42</ele>
        <time>2019-07-17T16:47:53Z</time>
      </trkpt>
      <trkpt lat="47.78312" lon="-3.56323">
        <ele>42</ele>
        <time>2019-07-17T16:47:54Z</time>
      </trkpt>
      <trkpt lat="47.78311" lon="-3.56324">
        <ele>42</ele>
        <time>2019-07-17T16:47:55Z</time>
      </trkpt>
      <trkpt lat="47.7831" lon="-3.56325">
        <ele>42</ele>
        <time>2019-07-17T16:47:56Z</time>
      </trkpt>
      <trkpt lat="47.7831" lon="-3.56325">
        <ele>43</ele>
        <time>2019-07-17T16:47:57Z</time>
      </trkpt>
      <trkpt lat="47.7831" lon="-3.56326">
        <ele>43</ele>
        <time>2019-07-17T16:47:58Z</time>
      </trkpt>
      <trkpt lat="47.7831" lon="-3.56326">
        <ele>43</ele>
        <time>2019-07-17T16:47:59Z</time>
      </trkpt>
      <trkpt lat="47.78304" lon="-3.56325">
        <ele>44</ele>
        <time>2019-07-17T16:48:00Z</time>
      </trkpt>
      <trkpt lat="47.78303" lon="-3.56325">
        <ele>44</ele>
        <time>2019-07-17T16:48:01Z</time>
      </trkpt>
      <trkpt lat="47.78301" lon="-3.56324">
        <ele>44</ele>
        <time>2019-07-17T16:48:02Z</time>
      </trkpt>
      <trkpt lat="47.78298" lon="-3.56323">
        <ele>44</ele>
        <time>2019-07-17T16:48:03Z</time>
      </trkpt>
      <trkpt lat="47.78295" lon="-3.56323">
        <ele>44</ele>
        <time>2019-07-17T16:48:04Z</time>
      </trkpt>
      <trkpt lat="47.78293" lon="-3.56323">
        <ele>45</ele>
        <time>2019-07-17T16:48:05Z</time>
      </trkpt>
      <trkpt lat="47.7829" lon="-3.56322">
        <ele>45</ele>
        <time>2019-07-17T16:48:06Z</time>
      </trkpt>
      <trkpt lat="47.78287" lon="-3.56322">
        <ele>45</ele>
        <time>2019-07-17T16:48:07Z</time>
      </trkpt>
      <trkpt lat="47.78284" lon="-3.56322">
        <ele>45</ele>
        <time>2019-07-17T16:48:08Z</time>
      </trkpt>
      <trkpt lat="47.78282" lon="-3.56322">
        <ele>46</ele>
        <time>2019-07-17T16:48:09Z</time>
      </trkpt>
      <trkpt lat="47.78281" lon="-3.56323">
        <ele>46</ele>
        <time>2019-07-17T16:48:10Z</time>
      </trkpt>
      <trkpt lat="47.7828" lon="-3.56326">
        <ele>46</ele>
        <time>2019-07-17T16:48:11Z</time>
      </trkpt>
      <trkpt lat="47.78279" lon="-3.56331">
        <ele>46</ele>
        <time>2019-07-17T16:48:12Z</time>
      </trkpt>
      <trkpt lat="47.78278" lon="-3.56335">
        <ele>46</ele>
        <time>2019-07-17T16:48:13Z</time>
      </trkpt>
      <trkpt lat="47.78277" lon="-3.56339">
        <ele>47</ele>
        <time>2019-07-17T16:48:14Z</time>
      </trkpt>
      <trkpt lat="47.78276" lon="-3.56344">
        <ele>47</ele>
        <time>2019-07-17T16:48:15Z</time>
      </trkpt>
      <trkpt lat="47.78274" lon="-3.56349">
        <ele>47</ele>
        <time>2019-07-17T16:48:16Z</time>
      </trkpt>
      <trkpt lat="47.78273" lon="-3.56355">
        <ele>47</ele>
        <time>2019-07-17T16:48:17Z</time>
      </trkpt>
      <trkpt lat="47.78271" lon="-3.56361">
        <ele>47</ele>
        <time>2019-07-17T16:48:18Z</time>
      </trkpt>
      <trkpt lat="47.78268" lon="-3.56367">
        <ele>47</ele>
        <time>2019-07-17T16:48:19Z</time>
      </trkpt>
      <trkpt lat="47.78266" lon="-3.56372">
        <ele>47</ele>
        <time>2019-07-17T16:48:20Z</time>
      </trkpt>
      <trkpt lat="47.78264" lon="-3.56378">
        <ele>47</ele>
        <time>2019-07-17T16:48:21Z</time>
      </trkpt>
      <trkpt lat="47.78261" lon="-3.56385">
        <ele>47</ele>
        <time>2019-07-17T16:48:22Z</time>
      </trkpt>
      <trkpt lat="47.78259" lon="-3.56391">
        <ele>47</ele>
        <time>2019-07-17T16:48:23Z</time>
      </trkpt>
      <trkpt lat="47.78257" lon="-3.56398">
        <ele>48</ele>
        <time>2019-07-17T16:48:24Z</time>
      </trkpt>
      <trkpt lat="47.78254" lon="-3.56405">
        <ele>48</ele>
        <time>2019-07-17T16:48:25Z</time>
      </trkpt>
      <trkpt lat="47.78251" lon="-3.56412">
        <ele>48</ele>
        <time>2019-07-17T16:48:26Z</time>
      </trkpt>
      <trkpt lat="47.78248" lon="-3.56419">
        <ele>48</ele>
        <time>2019-07-17T16:48:27Z</time>
      </trkpt>
      <trkpt lat="47.78246" lon="-3.56426">
        <ele>48</ele>
        <time>2019-07-17T16:48:28Z</time>
      </trkpt>
      <trkpt lat="47.78244" lon="-3.56434">
        <ele>48</ele>
        <time>2019-07-17T16:48:29Z</time>
      </trkpt>
      <trkpt lat="47.78242" lon="-3.56441">
        <ele>48</ele>
        <time>2019-07-17T16:48:30Z</time>
      </trkpt>
      <trkpt lat="47.7824" lon="-3.56449">
        <ele>47</ele>
        <time>2019-07-17T16:48:31Z</time>
      </trkpt>
      <trkpt lat="47.78239" lon="-3.56456">
        <ele>47</ele>
        <time>2019-07-17T16:48:32Z</time>
      </trkpt>
      <trkpt lat="47.78237" lon="-3.56461">
        <ele>47</ele>
        <time>2019-07-17T16:48:33Z</time>
      </trkpt>
      <trkpt lat="47.78235" lon="-3.56466">
        <ele>47</ele>
        <time>2019-07-17T16:48:34Z</time>
      </trkpt>
      <trkpt lat="47.78233" lon="-3.56471">
        <ele>47</ele>
        <time>2019-07-17T16:48:35Z</time>
      </trkpt>
      <trkpt lat="47.7823" lon="-3.56477">
        <ele>47</ele>
        <time>2019-07-17T16:48:36Z</time>
      </trkpt>
      <trkpt lat="47.78227" lon="-3.56483">
        <ele>47</ele>
        <time>2019-07-17T16:48:37Z</time>
      </trkpt>
      <trkpt lat="47.78225" lon="-3.5649">
        <ele>47</ele>
        <time>2019-07-17T16:48:38Z</time>
      </trkpt>
      <trkpt lat="47.78223" lon="-3.56496">
        <ele>47</ele>
        <time>2019-07-17T16:48:39Z</time>
      </trkpt>
      <trkpt lat="47.78221" lon="-3.56504">
        <ele>47</ele>
        <time>2019-07-17T16:48:40Z</time>
      </trkpt>
      <trkpt lat="47.78219" lon="-3.56512">
        <ele>47</ele>
        <time>2019-07-17T16:48:41Z</time>
      </trkpt>
      <trkpt lat="47.78216" lon="-3.56519">
        <ele>47</ele>
        <time>2019-07-17T16:48:42Z</time>
      </trkpt>
      <trkpt lat="47.78214" lon="-3.56528">
        <ele>47</ele>
        <time>2019-07-17T16:48:43Z</time>
      </trkpt>
      <trkpt lat="47.78211" lon="-3.56535">
        <ele>47</ele>
        <time>2019-07-17T16:48:44Z</time>
      </trkpt>
      <trkpt lat="47.78209" lon="-3.56543">
        <ele>47</ele>
        <time>2019-07-17T16:48:45Z</time>
      </trkpt>
      <trkpt lat="47.78206" lon="-3.56551">
        <ele>47</ele>
        <time>2019-07-17T16:48:46Z</time>
      </trkpt>
      <trkpt lat="47.78205" lon="-3.56558">
        <ele>47</ele>
        <time>2019-07-17T16:48:47Z</time>
      </trkpt>
      <trkpt lat="47.78204" lon="-3.56566">
        <ele>47</ele>
        <time>2019-07-17T16:48:48Z</time>
      </trkpt>
      <trkpt lat="47.78203" lon="-3.56574">
        <ele>47</ele>
        <time>2019-07-17T16:48:49Z</time>
      </trkpt>
      <trkpt lat="47.78202" lon="-3.56582">
        <ele>47</ele>
        <time>2019-07-17T16:48:50Z</time>
      </trkpt>
      <trkpt lat="47.78202" lon="-3.5659">
        <ele>46</ele>
        <time>2019-07-17T16:48:51Z</time>
      </trkpt>
      <trkpt lat="47.78202" lon="-3.56598">
        <ele>46</ele>
        <time>2019-07-17T16:48:52Z</time>
      </trkpt>
      <trkpt lat="47.78202" lon="-3.56606">
        <ele>46</ele>
        <time>2019-07-17T16:48:53Z</time>
      </trkpt>
      <trkpt lat="47.78202" lon="-3.56613">
        <ele>46</ele>
        <time>2019-07-17T16:48:54Z</time>
      </trkpt>
      <trkpt lat="47.78202" lon="-3.56619">
        <ele>46</ele>
        <time>2019-07-17T16:48:55Z</time>
      </trkpt>
      <trkpt lat="47.78202" lon="-3.56626">
        <ele>46</ele>
        <time>2019-07-17T16:48:56Z</time>
      </trkpt>
      <trkpt lat="47.78203" lon="-3.56631">
        <ele>46</ele>
        <time>2019-07-17T16:48:57Z</time>
      </trkpt>
      <trkpt lat="47.78203" lon="-3.56637">
        <ele>46</ele>
        <time>2019-07-17T16:48:58Z</time>
      </trkpt>
      <trkpt lat="47.78202" lon="-3.56643">
        <ele>46</ele>
        <time>2019-07-17T16:48:59Z</time>
      </trkpt>
      <trkpt lat="47.78201" lon="-3.56649">
        <ele>46</ele>
        <time>2019-07-17T16:49:00Z</time>
      </trkpt>
      <trkpt lat="47.782" lon="-3.56656">
        <ele>46</ele>
        <time>2019-07-17T16:49:01Z</time>
      </trkpt>
      <trkpt lat="47.78199" lon="-3.56662">
        <ele>45</ele>
        <time>2019-07-17T16:49:02Z</time>
      </trkpt>
      <trkpt lat="47.78198" lon="-3.56668">
        <ele>45</ele>
        <time>2019-07-17T16:49:03Z</time>
      </trkpt>
      <trkpt lat="47.78197" lon="-3.56674">
        <ele>45</ele>
        <time>2019-07-17T16:49:04Z</time>
      </trkpt>
      <trkpt lat="47.78196" lon="-3.56681">
        <ele>45</ele>
        <time>2019-07-17T16:49:05Z</time>
      </trkpt>
      <trkpt lat="47.78195" lon="-3.56687">
        <ele>45</ele>
        <time>2019-07-17T16:49:06Z</time>
      </trkpt>
      <trkpt lat="47.78193" lon="-3.56694">
        <ele>45</ele>
        <time>2019-07-17T16:49:07Z</time>
      </trkpt>
      <trkpt lat="47.78192" lon="-3.567">
        <ele>45</ele>
        <time>2019-07-17T16:49:08Z</time>
      </trkpt>
      <trkpt lat="47.78191" lon="-3.56706">
        <ele>45</ele>
        <time>2019-07-17T16:49:09Z</time>
      </trkpt>
      <trkpt lat="47.78191" lon="-3.56713">
        <ele>45</ele>
        <time>2019-07-17T16:49:10Z</time>
      </trkpt>
      <trkpt lat="47.7819" lon="-3.56719">
        <ele>45</ele>
        <time>2019-07-17T16:49:11Z</time>
      </trkpt>
      <trkpt lat="47.78189" lon="-3.56725">
        <ele>45</ele>
        <time>2019-07-17T16:49:12Z</time>
      </trkpt>
      <trkpt lat="47.78188" lon="-3.56732">
        <ele>45</ele>
        <time>2019-07-17T16:49:13Z</time>
      </trkpt>
      <trkpt lat="47.78186" lon="-3.56738">
        <ele>45</ele>
        <time>2019-07-17T16:49:14Z</time>
      </trkpt>
      <trkpt lat="47.78186" lon="-3.56744">
        <ele>45</ele>
        <time>2019-07-17T16:49:15Z</time>
      </trkpt>
      <trkpt lat="47.78185" lon="-3.56751">
        <ele>45</ele>
        <time>2019-07-17T16:49:16Z</time>
      </trkpt>
      <trkpt lat="47.78184" lon="-3.56757">
        <ele>46</ele>
        <time>2019-07-17T16:49:17Z</time>
      </trkpt>
      <trkpt lat="47.78183" lon="-3.56763">
        <ele>46</ele>
        <time>2019-07-17T16:49:18Z</time>
      </trkpt>
      <trkpt lat="47.78181" lon="-3.56769">
        <ele>46</ele>
        <time>2019-07-17T16:49:19Z</time>
      </trkpt>
      <trkpt lat="47.78179" lon="-3.56775">
        <ele>46</ele>
        <time>2019-07-17T16:49:20Z</time>
      </trkpt>
      <trkpt lat="47.78177" lon="-3.56781">
        <ele>46</ele>
        <time>2019-07-17T16:49:21Z</time>
      </trkpt>
      <trkpt lat="47.78176" lon="-3.56787">
        <ele>46</ele>
        <time>2019-07-17T16:49:22Z</time>
      </trkpt>
      <trkpt lat="47.78174" lon="-3.56792">
        <ele>46</ele>
        <time>2019-07-17T16:49:23Z</time>
      </trkpt>
      <trkpt lat="47.78172" lon="-3.56797">
        <ele>47</ele>
        <time>2019-07-17T16:49:24Z</time>
      </trkpt>
      <trkpt lat="47.7817" lon="-3.56801">
        <ele>47</ele>
        <time>2019-07-17T16:49:25Z</time>
      </trkpt>
      <trkpt lat="47.78168" lon="-3.56807">
        <ele>47</ele>
        <time>2019-07-17T16:49:26Z</time>
      </trkpt>
      <trkpt lat="47.78167" lon="-3.56811">
        <ele>47</ele>
        <time>2019-07-17T16:49:27Z</time>
      </trkpt>
      <trkpt lat="47.78165" lon="-3.56813">
        <ele>47</ele>
        <time>2019-07-17T16:49:28Z</time>
      </trkpt>
      <trkpt lat="47.78164" lon="-3.56814">
        <ele>47</ele>
        <time>2019-07-17T16:49:29Z</time>
      </trkpt>
      <trkpt lat="47.78163" lon="-3.56814">
        <ele>47</ele>
        <time>2019-07-17T16:49:30Z</time>
      </trkpt>
      <trkpt lat="47.7816" lon="-3.56814">
        <ele>47</ele>
        <time>2019-07-17T16:49:31Z</time>
      </trkpt>
      <trkpt lat="47.78158" lon="-3.56813">
        <ele>47</ele>
        <time>2019-07-17T16:49:32Z</time>
      </trkpt>
      <trkpt lat="47.78156" lon="-3.56811">
        <ele>48</ele>
        <time>2019-07-17T16:49:33Z</time>
      </trkpt>
      <trkpt lat="47.78153" lon="-3.56807">
        <ele>48</ele>
        <time>2019-07-17T16:49:34Z</time>
      </trkpt>
      <trkpt lat="47.7815" lon="-3.56803">
        <ele>48</ele>
        <time>2019-07-17T16:49:35Z</time>
      </trkpt>
      <trkpt lat="47.78148" lon="-3.56799">
        <ele>48</ele>
        <time>2019-07-17T16:49:36Z</time>
      </trkpt>
      <trkpt lat="47.78145" lon="-3.56795">
        <ele>48</ele>
        <time>2019-07-17T16:49:37Z</time>
      </trkpt>
      <trkpt lat="47.78143" lon="-3.56791">
        <ele>48</ele>
        <time>2019-07-17T16:49:38Z</time>
      </trkpt>
      <trkpt lat="47.78141" lon="-3.56786">
        <ele>48</ele>
        <time>2019-07-17T16:49:39Z</time>
      </trkpt>
      <trkpt lat="47.7814" lon="-3.56782">
        <ele>48</ele>
        <time>2019-07-17T16:49:40Z</time>
      </trkpt>
      <trkpt lat="47.78138" lon="-3.56778">
        <ele>48</ele>
        <time>2019-07-17T16:49:41Z</time>
      </trkpt>
      <trkpt lat="47.78136" lon="-3.56775">
        <ele>49</ele>
        <time>2019-07-17T16:49:42Z</time>
      </trkpt>
      <trkpt lat="47.78134" lon="-3.5677">
        <ele>49</ele>
        <time>2019-07-17T16:49:43Z</time>
      </trkpt>
      <trkpt lat="47.78131" lon="-3.56765">
        <ele>49</ele>
        <time>2019-07-17T16:49:44Z</time>
      </trkpt>
      <trkpt lat="47.78129" lon="-3.5676">
        <ele>49</ele>
        <time>2019-07-17T16:49:45Z</time>
      </trkpt>
      <trkpt lat="47.78127" lon="-3.56754">
        <ele>49</ele>
        <time>2019-07-17T16:49:46Z</time>
      </trkpt>
      <trkpt lat="47.78124" lon="-3.56748">
        <ele>49</ele>
        <time>2019-07-17T16:49:47Z</time>
      </trkpt>
      <trkpt lat="47.78121" lon="-3.56741">
        <ele>49</ele>
        <time>2019-07-17T16:49:48Z</time>
      </trkpt>
      <trkpt lat="47.78119" lon="-3.56734">
        <ele>49</ele>
        <time>2019-07-17T16:49:49Z</time>
      </trkpt>
      <trkpt lat="47.78117" lon="-3.56726">
        <ele>49</ele>
        <time>2019-07-17T16:49:50Z</time>
      </trkpt>
      <trkpt lat="47.78114" lon="-3.56719">
        <ele>49</ele>
        <time>2019-07-17T16:49:51Z</time>
      </trkpt>
      <trkpt lat="47.78112" lon="-3.56712">
        <ele>48</ele>
        <time>2019-07-17T16:49:52Z</time>
      </trkpt>
      <trkpt lat="47.7811" lon="-3.56705">
        <ele>48</ele>
        <time>2019-07-17T16:49:53Z</time>
      </trkpt>
      <trkpt lat="47.78108" lon="-3.56697">
        <ele>48</ele>
        <time>2019-07-17T16:49:54Z</time>
      </trkpt>
      <trkpt lat="47.78106" lon="-3.56689">
        <ele>48</ele>
        <time>2019-07-17T16:49:55Z</time>
      </trkpt>
      <trkpt lat="47.78104" lon="-3.56681">
        <ele>48</ele>
        <time>2019-07-17T16:49:56Z</time>
      </trkpt>
      <trkpt lat="47.78102" lon="-3.56672">
        <ele>48</ele>
        <time>2019-07-17T16:49:57Z</time>
      </trkpt>
      <trkpt lat="47.781" lon="-3.56663">
        <ele>48</ele>
        <time>2019-07-17T16:49:58Z</time>
      </trkpt>
      <trkpt lat="47.78098" lon="-3.56654">
        <ele>48</ele>
        <time>2019-07-17T16:49:59Z</time>
      </trkpt>
      <trkpt lat="47.78097" lon="-3.56646">
        <ele>48</ele>
        <time>2019-07-17T16:50:00Z</time>
      </trkpt>
      <trkpt lat="47.78094" lon="-3.56637">
        <ele>47</ele>
        <time>2019-07-17T16:50:01Z</time>
      </trkpt>
      <trkpt lat="47.78093" lon="-3.56628">
        <ele>47</ele>
        <time>2019-07-17T16:50:02Z</time>
      </trkpt>
      <trkpt lat="47.78091" lon="-3.5662">
        <ele>47</ele>
        <time>2019-07-17T16:50:03Z</time>
      </trkpt>
      <trkpt lat="47.78088" lon="-3.56611">
        <ele>47</ele>
        <time>2019-07-17T16:50:04Z</time>
      </trkpt>
      <trkpt lat="47.78087" lon="-3.56603">
        <ele>47</ele>
        <time>2019-07-17T16:50:05Z</time>
      </trkpt>
      <trkpt lat="47.78085" lon="-3.56594">
        <ele>47</ele>
        <time>2019-07-17T16:50:06Z</time>
      </trkpt>
      <trkpt lat="47.78083" lon="-3.56585">
        <ele>47</ele>
        <time>2019-07-17T16:50:07Z</time>
      </trkpt>
      <trkpt lat="47.78081" lon="-3.56576">
        <ele>46</ele>
        <time>2019-07-17T16:50:08Z</time>
      </trkpt>
      <trkpt lat="47.7808" lon="-3.56567">
        <ele>46</ele>
        <time>2019-07-17T16:50:09Z</time>
      </trkpt>
      <trkpt lat="47.78078" lon="-3.56558">
        <ele>46</ele>
        <time>2019-07-17T16:50:10Z</time>
      </trkpt>
      <trkpt lat="47.78076" lon="-3.5655">
        <ele>46</ele>
        <time>2019-07-17T16:50:11Z</time>
      </trkpt>
      <trkpt lat="47.78074" lon="-3.56541">
        <ele>46</ele>
        <time>2019-07-17T16:50:12Z</time>
      </trkpt>
      <trkpt lat="47.78071" lon="-3.56532">
        <ele>46</ele>
        <time>2019-07-17T16:50:13Z</time>
      </trkpt>
      <trkpt lat="47.78069" lon="-3.56522">
        <ele>46</ele>
        <time>2019-07-17T16:50:14Z</time>
      </trkpt>
      <trkpt lat="47.78067" lon="-3.56512">
        <ele>46</ele>
        <time>2019-07-17T16:50:15Z</time>
      </trkpt>
      <trkpt lat="47.78065" lon="-3.56501">
        <ele>46</ele>
        <time>2019-07-17T16:50:16Z</time>
      </trkpt>
      <trkpt lat="47.78063" lon="-3.56491">
        <ele>45</ele>
        <time>2019-07-17T16:50:17Z</time>
      </trkpt>
      <trkpt lat="47.78061" lon="-3.56481">
        <ele>45</ele>
        <time>2019-07-17T16:50:18Z</time>
      </trkpt>
      <trkpt lat="47.78059" lon="-3.56471">
        <ele>45</ele>
        <time>2019-07-17T16:50:19Z</time>
      </trkpt>
      <trkpt lat="47.78057" lon="-3.5646">
        <ele>45</ele>
        <time>2019-07-17T16:50:20Z</time>
      </trkpt>
      <trkpt lat="47.78055" lon="-3.5645">
        <ele>45</ele>
        <time>2019-07-17T16:50:21Z</time>
      </trkpt>
      <trkpt lat="47.78052" lon="-3.56439">
        <ele>45</ele>
        <time>2019-07-17T16:50:22Z</time>
      </trkpt>
      <trkpt lat="47.78051" lon="-3.56428">
        <ele>44</ele>
        <time>2019-07-17T16:50:23Z</time>
      </trkpt>
      <trkpt lat="47.78048" lon="-3.56416">
        <ele>44</ele>
        <time>2019-07-17T16:50:24Z</time>
      </trkpt>
      <trkpt lat="47.78047" lon="-3.56404">
        <ele>44</ele>
        <time>2019-07-17T16:50:25Z</time>
      </trkpt>
      <trkpt lat="47.78045" lon="-3.56392">
        <ele>44</ele>
        <time>2019-07-17T16:50:26Z</time>
      </trkpt>
      <trkpt lat="47.78044" lon="-3.5638">
        <ele>43</ele>
        <time>2019-07-17T16:50:27Z</time>
      </trkpt>
      <trkpt lat="47.78042" lon="-3.56367">
        <ele>43</ele>
        <time>2019-07-17T16:50:28Z</time>
      </trkpt>
      <trkpt lat="47.78041" lon="-3.56354">
        <ele>43</ele>
        <time>2019-07-17T16:50:29Z</time>
      </trkpt>
      <trkpt lat="47.78039" lon="-3.56341">
        <ele>43</ele>
        <time>2019-07-17T16:50:30Z</time>
      </trkpt>
      <trkpt lat="47.78037" lon="-3.56327">
        <ele>43</ele>
        <time>2019-07-17T16:50:31Z</time>
      </trkpt>
      <trkpt lat="47.78035" lon="-3.56314">
        <ele>42</ele>
        <time>2019-07-17T16:50:32Z</time>
      </trkpt>
      <trkpt lat="47.78033" lon="-3.563">
        <ele>42</ele>
        <time>2019-07-17T16:50:33Z</time>
      </trkpt>
      <trkpt lat="47.78031" lon="-3.56287">
        <ele>42</ele>
        <time>2019-07-17T16:50:34Z</time>
      </trkpt>
      <trkpt lat="47.78029" lon="-3.56274">
        <ele>42</ele>
        <time>2019-07-17T16:50:35Z</time>
      </trkpt>
      <trkpt lat="47.78027" lon="-3.56262">
        <ele>41</ele>
        <time>2019-07-17T16:50:36Z</time>
      </trkpt>
      <trkpt lat="47.78024" lon="-3.56249">
        <ele>41</ele>
        <time>2019-07-17T16:50:37Z</time>
      </trkpt>
      <trkpt lat="47.78022" lon="-3.56236">
        <ele>40</ele>
        <time>2019-07-17T16:50:38Z</time>
      </trkpt>
      <trkpt lat="47.78019" lon="-3.56224">
        <ele>40</ele>
        <time>2019-07-17T16:50:39Z</time>
      </trkpt>
      <trkpt lat="47.78016" lon="-3.56212">
        <ele>39</ele>
        <time>2019-07-17T16:50:40Z</time>
      </trkpt>
      <trkpt lat="47.78013" lon="-3.56201">
        <ele>39</ele>
        <time>2019-07-17T16:50:41Z</time>
      </trkpt>
      <trkpt lat="47.7801" lon="-3.56189">
        <ele>38</ele>
        <time>2019-07-17T16:50:42Z</time>
      </trkpt>
      <trkpt lat="47.78007" lon="-3.56178">
        <ele>38</ele>
        <time>2019-07-17T16:50:43Z</time>
      </trkpt>
      <trkpt lat="47.78004" lon="-3.56167">
        <ele>37</ele>
        <time>2019-07-17T16:50:44Z</time>
      </trkpt>
      <trkpt lat="47.78001" lon="-3.56155">
        <ele>37</ele>
        <time>2019-07-17T16:50:45Z</time>
      </trkpt>
      <trkpt lat="47.77998" lon="-3.56144">
        <ele>37</ele>
        <time>2019-07-17T16:50:46Z</time>
      </trkpt>
      <trkpt lat="47.77995" lon="-3.56132">
        <ele>36</ele>
        <time>2019-07-17T16:50:47Z</time>
      </trkpt>
      <trkpt lat="47.77992" lon="-3.5612">
        <ele>36</ele>
        <time>2019-07-17T16:50:48Z</time>
      </trkpt>
      <trkpt lat="47.77989" lon="-3.56108">
        <ele>36</ele>
        <time>2019-07-17T16:50:49Z</time>
      </trkpt>
      <trkpt lat="47.77986" lon="-3.56096">
        <ele>35</ele>
        <time>2019-07-17T16:50:50Z</time>
      </trkpt>
      <trkpt lat="47.77983" lon="-3.56084">
        <ele>35</ele>
        <time>2019-07-17T16:50:51Z</time>
      </trkpt>
      <trkpt lat="47.7798" lon="-3.56072">
        <ele>35</ele>
        <time>2019-07-17T16:50:52Z</time>
      </trkpt>
      <trkpt lat="47.77976" lon="-3.56059">
        <ele>35</ele>
        <time>2019-07-17T16:50:53Z</time>
      </trkpt>
      <trkpt lat="47.77973" lon="-3.56047">
        <ele>35</ele>
        <time>2019-07-17T16:50:54Z</time>
      </trkpt>
      <trkpt lat="47.77971" lon="-3.56034">
        <ele>34</ele>
        <time>2019-07-17T16:50:55Z</time>
      </trkpt>
      <trkpt lat="47.77968" lon="-3.56021">
        <ele>34</ele>
        <time>2019-07-17T16:50:56Z</time>
      </trkpt>
      <trkpt lat="47.77965" lon="-3.56008">
        <ele>34</ele>
        <time>2019-07-17T16:50:57Z</time>
      </trkpt>
      <trkpt lat="47.77962" lon="-3.55996">
        <ele>34</ele>
        <time>2019-07-17T16:50:58Z</time>
      </trkpt>
      <trkpt lat="47.77959" lon="-3.55983">
        <ele>34</ele>
        <time>2019-07-17T16:50:59Z</time>
      </trkpt>
      <trkpt lat="47.77956" lon="-3.5597">
        <ele>34</ele>
        <time>2019-07-17T16:51:00Z</time>
      </trkpt>
      <trkpt lat="47.77952" lon="-3.55958">
        <ele>34</ele>
        <time>2019-07-17T16:51:01Z</time>
      </trkpt>
      <trkpt lat="47.77949" lon="-3.55945">
        <ele>34</ele>
        <time>2019-07-17T16:51:02Z</time>
      </trkpt>
      <trkpt lat="47.77946" lon="-3.55933">
        <ele>34</ele>
        <time>2019-07-17T16:51:03Z</time>
      </trkpt>
      <trkpt lat="47.77942" lon="-3.55921">
        <ele>34</ele>
        <time>2019-07-17T16:51:04Z</time>
      </trkpt>
      <trkpt lat="47.77937" lon="-3.55909">
        <ele>34</ele>
        <time>2019-07-17T16:51:05Z</time>
      </trkpt>
      <trkpt lat="47.77932" lon="-3.55896">
        <ele>34</ele>
        <time>2019-07-17T16:51:06Z</time>
      </trkpt>
      <trkpt lat="47.77927" lon="-3.55884">
        <ele>34</ele>
        <time>2019-07-17T16:51:07Z</time>
      </trkpt>
      <trkpt lat="47.77923" lon="-3.55872">
        <ele>33</ele>
        <time>2019-07-17T16:51:08Z</time>
      </trkpt>
      <trkpt lat="47.77917" lon="-3.5586">
        <ele>33</ele>
        <time>2019-07-17T16:51:09Z</time>
      </trkpt>
      <trkpt lat="47.77913" lon="-3.55848">
        <ele>33</ele>
        <time>2019-07-17T16:51:10Z</time>
      </trkpt>
      <trkpt lat="47.77907" lon="-3.55836">
        <ele>33</ele>
        <time>2019-07-17T16:51:11Z</time>
      </trkpt>
      <trkpt lat="47.77902" lon="-3.55824">
        <ele>33</ele>
        <time>2019-07-17T16:51:12Z</time>
      </trkpt>
      <trkpt lat="47.77897" lon="-3.55812">
        <ele>33</ele>
        <time>2019-07-17T16:51:13Z</time>
      </trkpt>
      <trkpt lat="47.77892" lon="-3.558">
        <ele>32</ele>
        <time>2019-07-17T16:51:14Z</time>
      </trkpt>
      <trkpt lat="47.77886" lon="-3.55789">
        <ele>32</ele>
        <time>2019-07-17T16:51:15Z</time>
      </trkpt>
      <trkpt lat="47.77881" lon="-3.55777">
        <ele>32</ele>
        <time>2019-07-17T16:51:16Z</time>
      </trkpt>
      <trkpt lat="47.77876" lon="-3.55767">
        <ele>32</ele>
        <time>2019-07-17T16:51:17Z</time>
      </trkpt>
      <trkpt lat="47.77872" lon="-3.55756">
        <ele>32</ele>
        <time>2019-07-17T16:51:18Z</time>
      </trkpt>
      <trkpt lat="47.77867" lon="-3.55745">
        <ele>31</ele>
        <time>2019-07-17T16:51:19Z</time>
      </trkpt>
      <trkpt lat="47.77863" lon="-3.55736">
        <ele>31</ele>
        <time>2019-07-17T16:51:20Z</time>
      </trkpt>
      <trkpt lat="47.77858" lon="-3.55726">
        <ele>31</ele>
        <time>2019-07-17T16:51:21Z</time>
      </trkpt>
      <trkpt lat="47.77854" lon="-3.55716">
        <ele>31</ele>
        <time>2019-07-17T16:51:22Z</time>
      </trkpt>
      <trkpt lat="47.7785" lon="-3.55707">
        <ele>31</ele>
        <time>2019-07-17T16:51:23Z</time>
      </trkpt>
      <trkpt lat="47.77845" lon="-3.55697">
        <ele>31</ele>
        <time>2019-07-17T16:51:24Z</time>
      </trkpt>
      <trkpt lat="47.77841" lon="-3.55688">
        <ele>31</ele>
        <time>2019-07-17T16:51:25Z</time>
      </trkpt>
      <trkpt lat="47.77838" lon="-3.55678">
        <ele>31</ele>
        <time>2019-07-17T16:51:26Z</time>
      </trkpt>
      <trkpt lat="47.77834" lon="-3.55669">
        <ele>31</ele>
        <time>2019-07-17T16:51:27Z</time>
      </trkpt>
      <trkpt lat="47.7783" lon="-3.5566">
        <ele>31</ele>
        <time>2019-07-17T16:51:28Z</time>
      </trkpt>
      <trkpt lat="47.77827" lon="-3.55651">
        <ele>31</ele>
        <time>2019-07-17T16:51:29Z</time>
      </trkpt>
      <trkpt lat="47.77823" lon="-3.55643">
        <ele>31</ele>
        <time>2019-07-17T16:51:30Z</time>
      </trkpt>
      <trkpt lat="47.77819" lon="-3.55635">
        <ele>31</ele>
        <time>2019-07-17T16:51:31Z</time>
      </trkpt>
      <trkpt lat="47.77815" lon="-3.55627">
        <ele>31</ele>
        <time>2019-07-17T16:51:32Z</time>
      </trkpt>
      <trkpt lat="47.77812" lon="-3.55618">
        <ele>31</ele>
        <time>2019-07-17T16:51:33Z</time>
      </trkpt>
      <trkpt lat="47.77808" lon="-3.55609">
        <ele>31</ele>
        <time>2019-07-17T16:51:34Z</time>
      </trkpt>
      <trkpt lat="47.77804" lon="-3.556">
        <ele>30</ele>
        <time>2019-07-17T16:51:35Z</time>
      </trkpt>
      <trkpt lat="47.778" lon="-3.55591">
        <ele>30</ele>
        <time>2019-07-17T16:51:36Z</time>
      </trkpt>
      <trkpt lat="47.77796" lon="-3.55582">
        <ele>30</ele>
        <time>2019-07-17T16:51:37Z</time>
      </trkpt>
      <trkpt lat="47.77792" lon="-3.55573">
        <ele>30</ele>
        <time>2019-07-17T16:51:38Z</time>
      </trkpt>
      <trkpt lat="47.77787" lon="-3.55564">
        <ele>30</ele>
        <time>2019-07-17T16:51:39Z</time>
      </trkpt>
      <trkpt lat="47.77783" lon="-3.55555">
        <ele>30</ele>
        <time>2019-07-17T16:51:40Z</time>
      </trkpt>
      <trkpt lat="47.77778" lon="-3.55546">
        <ele>29</ele>
        <time>2019-07-17T16:51:41Z</time>
      </trkpt>
      <trkpt lat="47.77773" lon="-3.55538">
        <ele>29</ele>
        <time>2019-07-17T16:51:42Z</time>
      </trkpt>
      <trkpt lat="47.77769" lon="-3.55529">
        <ele>29</ele>
        <time>2019-07-17T16:51:43Z</time>
      </trkpt>
      <trkpt lat="47.77763" lon="-3.55521">
        <ele>29</ele>
        <time>2019-07-17T16:51:44Z</time>
      </trkpt>
      <trkpt lat="47.77757" lon="-3.55514">
        <ele>29</ele>
        <time>2019-07-17T16:51:45Z</time>
      </trkpt>
      <trkpt lat="47.77752" lon="-3.55507">
        <ele>29</ele>
        <time>2019-07-17T16:51:46Z</time>
      </trkpt>
      <trkpt lat="47.77746" lon="-3.55499">
        <ele>28</ele>
        <time>2019-07-17T16:51:47Z</time>
      </trkpt>
      <trkpt lat="47.77741" lon="-3.55491">
        <ele>28</ele>
        <time>2019-07-17T16:51:48Z</time>
      </trkpt>
      <trkpt lat="47.77735" lon="-3.55484">
        <ele>28</ele>
        <time>2019-07-17T16:51:49Z</time>
      </trkpt>
      <trkpt lat="47.7773" lon="-3.55476">
        <ele>28</ele>
        <time>2019-07-17T16:51:50Z</time>
      </trkpt>
      <trkpt lat="47.77724" lon="-3.55468">
        <ele>28</ele>
        <time>2019-07-17T16:51:51Z</time>
      </trkpt>
      <trkpt lat="47.77719" lon="-3.5546">
        <ele>28</ele>
        <time>2019-07-17T16:51:52Z</time>
      </trkpt>
      <trkpt lat="47.77714" lon="-3.55452">
        <ele>28</ele>
        <time>2019-07-17T16:51:53Z</time>
      </trkpt>
      <trkpt lat="47.7771" lon="-3.55444">
        <ele>28</ele>
        <time>2019-07-17T16:51:54Z</time>
      </trkpt>
      <trkpt lat="47.77706" lon="-3.55436">
        <ele>28</ele>
        <time>2019-07-17T16:51:55Z</time>
      </trkpt>
      <trkpt lat="47.77702" lon="-3.55427">
        <ele>28</ele>
        <time>2019-07-17T16:51:56Z</time>
      </trkpt>
      <trkpt lat="47.77699" lon="-3.55418">
        <ele>28</ele>
        <time>2019-07-17T16:51:57Z</time>
      </trkpt>
      <trkpt lat="47.77695" lon="-3.5541">
        <ele>28</ele>
        <time>2019-07-17T16:51:58Z</time>
      </trkpt>
      <trkpt lat="47.77692" lon="-3.55402">
        <ele>28</ele>
        <time>2019-07-17T16:51:59Z</time>
      </trkpt>
      <trkpt lat="47.77688" lon="-3.55393">
        <ele>28</ele>
        <time>2019-07-17T16:52:00Z</time>
      </trkpt>
      <trkpt lat="47.77685" lon="-3.55386">
        <ele>28</ele>
        <time>2019-07-17T16:52:01Z</time>
      </trkpt>
      <trkpt lat="47.77682" lon="-3.55377">
        <ele>28</ele>
        <time>2019-07-17T16:52:02Z</time>
      </trkpt>
      <trkpt lat="47.77679" lon="-3.5537">
        <ele>28</ele>
        <time>2019-07-17T16:52:03Z</time>
      </trkpt>
      <trkpt lat="47.77676" lon="-3.55362">
        <ele>29</ele>
        <time>2019-07-17T16:52:04Z</time>
      </trkpt>
      <trkpt lat="47.77671" lon="-3.55357">
        <ele>29</ele>
        <time>2019-07-17T16:52:05Z</time>
      </trkpt>
      <trkpt lat="47.77666" lon="-3.55353">
        <ele>29</ele>
        <time>2019-07-17T16:52:06Z</time>
      </trkpt>
      <trkpt lat="47.77661" lon="-3.5535">
        <ele>29</ele>
        <time>2019-07-17T16:52:07Z</time>
      </trkpt>
      <trkpt lat="47.77656" lon="-3.55348">
        <ele>29</ele>
        <time>2019-07-17T16:52:08Z</time>
      </trkpt>
      <trkpt lat="47.77651" lon="-3.55347">
        <ele>30</ele>
        <time>2019-07-17T16:52:09Z</time>
      </trkpt>
      <trkpt lat="47.77646" lon="-3.55347">
        <ele>30</ele>
        <time>2019-07-17T16:52:10Z</time>
      </trkpt>
      <trkpt lat="47.77642" lon="-3.55348">
        <ele>30</ele>
        <time>2019-07-17T16:52:11Z</time>
      </trkpt>
      <trkpt lat="47.77639" lon="-3.55349">
        <ele>31</ele>
        <time>2019-07-17T16:52:12Z</time>
      </trkpt>
      <trkpt lat="47.77636" lon="-3.5535">
        <ele>31</ele>
        <time>2019-07-17T16:52:13Z</time>
      </trkpt>
      <trkpt lat="47.77633" lon="-3.55351">
        <ele>31</ele>
        <time>2019-07-17T16:52:14Z</time>
      </trkpt>
      <trkpt lat="47.7763" lon="-3.55353">
        <ele>31</ele>
        <time>2019-07-17T16:52:15Z</time>
      </trkpt>
      <trkpt lat="47.77627" lon="-3.55354">
        <ele>32</ele>
        <time>2019-07-17T16:52:16Z</time>
      </trkpt>
      <trkpt lat="47.77624" lon="-3.55355">
        <ele>32</ele>
        <time>2019-07-17T16:52:17Z</time>
      </trkpt>
      <trkpt lat="47.77621" lon="-3.55356">
        <ele>32</ele>
        <time>2019-07-17T16:52:18Z</time>
      </trkpt>
      <trkpt lat="47.77618" lon="-3.55356">
        <ele>32</ele>
        <time>2019-07-17T16:52:19Z</time>
      </trkpt>
      <trkpt lat="47.77615" lon="-3.55357">
        <ele>32</ele>
        <time>2019-07-17T16:52:20Z</time>
      </trkpt>
      <trkpt lat="47.77611" lon="-3.55358">
        <ele>33</ele>
        <time>2019-07-17T16:52:21Z</time>
      </trkpt>
      <trkpt lat="47.77607" lon="-3.55359">
        <ele>33</ele>
        <time>2019-07-17T16:52:22Z</time>
      </trkpt>
      <trkpt lat="47.77603" lon="-3.5536">
        <ele>33</ele>
        <time>2019-07-17T16:52:23Z</time>
      </trkpt>
      <trkpt lat="47.77598" lon="-3.55362">
        <ele>33</ele>
        <time>2019-07-17T16:52:24Z</time>
      </trkpt>
      <trkpt lat="47.77594" lon="-3.55363">
        <ele>34</ele>
        <time>2019-07-17T16:52:25Z</time>
      </trkpt>
      <trkpt lat="47.77589" lon="-3.55364">
        <ele>34</ele>
        <time>2019-07-17T16:52:26Z</time>
      </trkpt>
      <trkpt lat="47.77584" lon="-3.55365">
        <ele>34</ele>
        <time>2019-07-17T16:52:27Z</time>
      </trkpt>
      <trkpt lat="47.77579" lon="-3.55365">
        <ele>34</ele>
        <time>2019-07-17T16:52:28Z</time>
      </trkpt>
      <trkpt lat="47.77574" lon="-3.55365">
        <ele>34</ele>
        <time>2019-07-17T16:52:29Z</time>
      </trkpt>
      <trkpt lat="47.77569" lon="-3.55365">
        <ele>35</ele>
        <time>2019-07-17T16:52:30Z</time>
      </trkpt>
      <trkpt lat="47.77564" lon="-3.55366">
        <ele>35</ele>
        <time>2019-07-17T16:52:31Z</time>
      </trkpt>
      <trkpt lat="47.77559" lon="-3.55366">
        <ele>35</ele>
        <time>2019-07-17T16:52:32Z</time>
      </trkpt>
      <trkpt lat="47.77554" lon="-3.55366">
        <ele>35</ele>
        <time>2019-07-17T16:52:33Z</time>
      </trkpt>
      <trkpt lat="47.77549" lon="-3.55368">
        <ele>36</ele>
        <time>2019-07-17T16:52:34Z</time>
      </trkpt>
      <trkpt lat="47.77543" lon="-3.55369">
        <ele>36</ele>
        <time>2019-07-17T16:52:35Z</time>
      </trkpt>
      <trkpt lat="47.77537" lon="-3.55369">
        <ele>36</ele>
        <time>2019-07-17T16:52:36Z</time>
      </trkpt>
      <trkpt lat="47.77531" lon="-3.5537">
        <ele>36</ele>
        <time>2019-07-17T16:52:37Z</time>
      </trkpt>
      <trkpt lat="47.77525" lon="-3.55371">
        <ele>36</ele>
        <time>2019-07-17T16:52:38Z</time>
      </trkpt>
      <trkpt lat="47.7752" lon="-3.55371">
        <ele>37</ele>
        <time>2019-07-17T16:52:39Z</time>
      </trkpt>
      <trkpt lat="47.77515" lon="-3.5537">
        <ele>37</ele>
        <time>2019-07-17T16:52:40Z</time>
      </trkpt>
      <trkpt lat="47.7751" lon="-3.55367">
        <ele>37</ele>
        <time>2019-07-17T16:52:41Z</time>
      </trkpt>
      <trkpt lat="47.77505" lon="-3.55364">
        <ele>37</ele>
        <time>2019-07-17T16:52:42Z</time>
      </trkpt>
      <trkpt lat="47.77501" lon="-3.5536">
        <ele>37</ele>
        <time>2019-07-17T16:52:43Z</time>
      </trkpt>
      <trkpt lat="47.77496" lon="-3.55356">
        <ele>38</ele>
        <time>2019-07-17T16:52:44Z</time>
      </trkpt>
      <trkpt lat="47.77491" lon="-3.55351">
        <ele>38</ele>
        <time>2019-07-17T16:52:45Z</time>
      </trkpt>
      <trkpt lat="47.77486" lon="-3.55347">
        <ele>38</ele>
        <time>2019-07-17T16:52:46Z</time>
      </trkpt>
      <trkpt lat="47.77481" lon="-3.55342">
        <ele>38</ele>
        <time>2019-07-17T16:52:47Z</time>
      </trkpt>
      <trkpt lat="47.77477" lon="-3.55338">
        <ele>38</ele>
        <time>2019-07-17T16:52:48Z</time>
      </trkpt>
      <trkpt lat="47.77472" lon="-3.55333">
        <ele>38</ele>
        <time>2019-07-17T16:52:49Z</time>
      </trkpt>
      <trkpt lat="47.77467" lon="-3.55329">
        <ele>38</ele>
        <time>2019-07-17T16:52:50Z</time>
      </trkpt>
      <trkpt lat="47.77461" lon="-3.55325">
        <ele>38</ele>
        <time>2019-07-17T16:52:51Z</time>
      </trkpt>
      <trkpt lat="47.77455" lon="-3.55321">
        <ele>38</ele>
        <time>2019-07-17T16:52:52Z</time>
      </trkpt>
      <trkpt lat="47.7745" lon="-3.55316">
        <ele>38</ele>
        <time>2019-07-17T16:52:53Z</time>
      </trkpt>
      <trkpt lat="47.77444" lon="-3.55311">
        <ele>38</ele>
        <time>2019-07-17T16:52:54Z</time>
      </trkpt>
      <trkpt lat="47.77439" lon="-3.55306">
        <ele>38</ele>
        <time>2019-07-17T16:52:55Z</time>
      </trkpt>
      <trkpt lat="47.77433" lon="-3.55301">
        <ele>38</ele>
        <time>2019-07-17T16:52:56Z</time>
      </trkpt>
      <trkpt lat="47.77427" lon="-3.55296">
        <ele>38</ele>
        <time>2019-07-17T16:52:57Z</time>
      </trkpt>
      <trkpt lat="47.77422" lon="-3.55291">
        <ele>38</ele>
        <time>2019-07-17T16:52:58Z</time>
      </trkpt>
      <trkpt lat="47.77417" lon="-3.55286">
        <ele>37</ele>
        <time>2019-07-17T16:52:59Z</time>
      </trkpt>
      <trkpt lat="47.77411" lon="-3.55282">
        <ele>37</ele>
        <time>2019-07-17T16:53:00Z</time>
      </trkpt>
      <trkpt lat="47.77406" lon="-3.55277">
        <ele>37</ele>
        <time>2019-07-17T16:53:01Z</time>
      </trkpt>
      <trkpt lat="47.774" lon="-3.55272">
        <ele>37</ele>
        <time>2019-07-17T16:53:02Z</time>
      </trkpt>
      <trkpt lat="47.77394" lon="-3.55266">
        <ele>38</ele>
        <time>2019-07-17T16:53:03Z</time>
      </trkpt>
      <trkpt lat="47.77388" lon="-3.55261">
        <ele>38</ele>
        <time>2019-07-17T16:53:04Z</time>
      </trkpt>
      <trkpt lat="47.77382" lon="-3.55255">
        <ele>38</ele>
        <time>2019-07-17T16:53:05Z</time>
      </trkpt>
      <trkpt lat="47.77376" lon="-3.5525">
        <ele>38</ele>
        <time>2019-07-17T16:53:06Z</time>
      </trkpt>
      <trkpt lat="47.77371" lon="-3.55245">
        <ele>38</ele>
        <time>2019-07-17T16:53:07Z</time>
      </trkpt>
      <trkpt lat="47.77365" lon="-3.55239">
        <ele>38</ele>
        <time>2019-07-17T16:53:08Z</time>
      </trkpt>
      <trkpt lat="47.7736" lon="-3.55233">
        <ele>38</ele>
        <time>2019-07-17T16:53:09Z</time>
      </trkpt>
      <trkpt lat="47.77354" lon="-3.55229">
        <ele>38</ele>
        <time>2019-07-17T16:53:10Z</time>
      </trkpt>
      <trkpt lat="47.77348" lon="-3.55224">
        <ele>38</ele>
        <time>2019-07-17T16:53:11Z</time>
      </trkpt>
      <trkpt lat="47.77342" lon="-3.5522">
        <ele>38</ele>
        <time>2019-07-17T16:53:12Z</time>
      </trkpt>
      <trkpt lat="47.77336" lon="-3.55215">
        <ele>38</ele>
        <time>2019-07-17T16:53:13Z</time>
      </trkpt>
      <trkpt lat="47.77331" lon="-3.55211">
        <ele>38</ele>
        <time>2019-07-17T16:53:14Z</time>
      </trkpt>
      <trkpt lat="47.77325" lon="-3.55207">
        <ele>38</ele>
        <time>2019-07-17T16:53:15Z</time>
      </trkpt>
      <trkpt lat="47.7732" lon="-3.55204">
        <ele>38</ele>
        <time>2019-07-17T16:53:16Z</time>
      </trkpt>
      <trkpt lat="47.77314" lon="-3.55201">
        <ele>38</ele>
        <time>2019-07-17T16:53:17Z</time>
      </trkpt>
      <trkpt lat="47.77309" lon="-3.55197">
        <ele>38</ele>
        <time>2019-07-17T16:53:18Z</time>
      </trkpt>
      <trkpt lat="47.77303" lon="-3.55194">
        <ele>38</ele>
        <time>2019-07-17T16:53:19Z</time>
      </trkpt>
      <trkpt lat="47.77298" lon="-3.5519">
        <ele>38</ele>
        <time>2019-07-17T16:53:20Z</time>
      </trkpt>
      <trkpt lat="47.77292" lon="-3.55188">
        <ele>38</ele>
        <time>2019-07-17T16:53:21Z</time>
      </trkpt>
      <trkpt lat="47.77287" lon="-3.55184">
        <ele>38</ele>
        <time>2019-07-17T16:53:22Z</time>
      </trkpt>
      <trkpt lat="47.77283" lon="-3.55182">
        <ele>38</ele>
        <time>2019-07-17T16:53:23Z</time>
      </trkpt>
      <trkpt lat="47.7728" lon="-3.55179">
        <ele>38</ele>
        <time>2019-07-17T16:53:24Z</time>
      </trkpt>
      <trkpt lat="47.77279" lon="-3.55177">
        <ele>38</ele>
        <time>2019-07-17T16:53:25Z</time>
      </trkpt>
      <trkpt lat="47.77279" lon="-3.55174">
        <ele>38</ele>
        <time>2019-07-17T16:53:26Z</time>
      </trkpt>
      <trkpt lat="47.77279" lon="-3.55172">
        <ele>38</ele>
        <time>2019-07-17T16:53:27Z</time>
      </trkpt>
      <trkpt lat="47.77278" lon="-3.5517">
        <ele>37</ele>
        <time>2019-07-17T16:53:28Z</time>
      </trkpt>
      <trkpt lat="47.77279" lon="-3.55167">
        <ele>37</ele>
        <time>2019-07-17T16:53:29Z</time>
      </trkpt>
      <trkpt lat="47.77279" lon="-3.55163">
        <ele>37</ele>
        <time>2019-07-17T16:53:30Z</time>
      </trkpt>
      <trkpt lat="47.77279" lon="-3.55158">
        <ele>37</ele>
        <time>2019-07-17T16:53:31Z</time>
      </trkpt>
      <trkpt lat="47.77279" lon="-3.55153">
        <ele>37</ele>
        <time>2019-07-17T16:53:32Z</time>
      </trkpt>
      <trkpt lat="47.77279" lon="-3.55147">
        <ele>36</ele>
        <time>2019-07-17T16:53:33Z</time>
      </trkpt>
      <trkpt lat="47.77279" lon="-3.5514">
        <ele>36</ele>
        <time>2019-07-17T16:53:34Z</time>
      </trkpt>
      <trkpt lat="47.77279" lon="-3.55133">
        <ele>36</ele>
        <time>2019-07-17T16:53:35Z</time>
      </trkpt>
      <trkpt lat="47.77279" lon="-3.55125">
        <ele>36</ele>
        <time>2019-07-17T16:53:36Z</time>
      </trkpt>
      <trkpt lat="47.7728" lon="-3.55118">
        <ele>36</ele>
        <time>2019-07-17T16:53:37Z</time>
      </trkpt>
      <trkpt lat="47.7728" lon="-3.5511">
        <ele>35</ele>
        <time>2019-07-17T16:53:38Z</time>
      </trkpt>
      <trkpt lat="47.7728" lon="-3.55101">
        <ele>35</ele>
        <time>2019-07-17T16:53:39Z</time>
      </trkpt>
      <trkpt lat="47.77282" lon="-3.55094">
        <ele>35</ele>
        <time>2019-07-17T16:53:40Z</time>
      </trkpt>
      <trkpt lat="47.77282" lon="-3.55088">
        <ele>35</ele>
        <time>2019-07-17T16:53:41Z</time>
      </trkpt>
      <trkpt lat="47.77282" lon="-3.55085">
        <ele>34</ele>
        <time>2019-07-17T16:53:42Z</time>
      </trkpt>
      <trkpt lat="47.7728" lon="-3.55085">
        <ele>34</ele>
        <time>2019-07-17T16:53:43Z</time>
      </trkpt>
      <trkpt lat="47.77278" lon="-3.55087">
        <ele>34</ele>
        <time>2019-07-17T16:53:44Z</time>
      </trkpt>
      <trkpt lat="47.77277" lon="-3.55091">
        <ele>34</ele>
        <time>2019-07-17T16:53:45Z</time>
      </trkpt>
      <trkpt lat="47.77277" lon="-3.55095">
        <ele>34</ele>
        <time>2019-07-17T16:53:46Z</time>
      </trkpt>
      <trkpt lat="47.77277" lon="-3.551">
        <ele>34</ele>
        <time>2019-07-17T16:53:47Z</time>
      </trkpt>
      <trkpt lat="47.77276" lon="-3.55103">
        <ele>34</ele>
        <time>2019-07-17T16:53:48Z</time>
      </trkpt>
      <trkpt lat="47.77274" lon="-3.55104">
        <ele>34</ele>
        <time>2019-07-17T16:53:49Z</time>
      </trkpt>
      <trkpt lat="47.77272" lon="-3.55104">
        <ele>34</ele>
        <time>2019-07-17T16:53:50Z</time>
      </trkpt>
      <trkpt lat="47.77271" lon="-3.55104">
        <ele>34</ele>
        <time>2019-07-17T16:53:51Z</time>
      </trkpt>
      <trkpt lat="47.7727" lon="-3.55104">
        <ele>34</ele>
        <time>2019-07-17T16:53:52Z</time>
      </trkpt>
      <trkpt lat="47.7727" lon="-3.55104">
        <ele>34</ele>
        <time>2019-07-17T16:53:53Z</time>
      </trkpt>
    </trkseg>
  </trk>
  <trk>
    <name><![CDATA[LE SCORFF]]></name>
    <trkseg>
      <trkpt lat="47.77289" lon="-3.55085">
        <ele>33.31640625</ele>
      </trkpt>
      <trkpt lat="47.77282" lon="-3.55082">
        <ele>33.08984375</ele>
      </trkpt>
      <trkpt lat="47.77285" lon="-3.55028">
        <ele>30.76953125</ele>
      </trkpt>
      <trkpt lat="47.77302" lon="-3.54961">
        <ele>28.484375</ele>
      </trkpt>
      <trkpt lat="47.77317" lon="-3.54959">
        <ele>28.73046875</ele>
      </trkpt>
      <trkpt lat="47.77325" lon="-3.54925">
        <ele>28.921875</ele>
      </trkpt>
      <trkpt lat="47.77317" lon="-3.54912">
        <ele>28.80078125</ele>
      </trkpt>
      <trkpt lat="47.77315" lon="-3.54901">
        <ele>28.828125</ele>
      </trkpt>
      <trkpt lat="47.77328" lon="-3.54882">
        <ele>29.42578125</ele>
      </trkpt>
      <trkpt lat="47.77336" lon="-3.54818">
        <ele>30.484375</ele>
      </trkpt>
      <trkpt lat="47.77328" lon="-3.54788">
        <ele>30.53515625</ele>
      </trkpt>
      <trkpt lat="47.77295" lon="-3.5474">
        <ele>30.21484375</ele>
      </trkpt>
      <trkpt lat="47.77285" lon="-3.54708">
        <ele>30.5390625</ele>
      </trkpt>
      <trkpt lat="47.77287" lon="-3.54678">
        <ele>31.81640625</ele>
      </trkpt>
      <trkpt lat="47.77289" lon="-3.54631">
        <ele>34.13671875</ele>
      </trkpt>
      <trkpt lat="47.77302" lon="-3.54646">
        <ele>33.72265625</ele>
      </trkpt>
      <trkpt lat="47.77336" lon="-3.54652">
        <ele>34.23828125</ele>
      </trkpt>
      <trkpt lat="47.77366" lon="-3.54637">
        <ele>34.8671875</ele>
      </trkpt>
      <trkpt lat="47.77446" lon="-3.54575">
        <ele>36.0078125</ele>
      </trkpt>
      <trkpt lat="47.77456" lon="-3.54612">
        <ele>35.484375</ele>
      </trkpt>
      <trkpt lat="47.77484" lon="-3.54753">
        <ele>32.0390625</ele>
      </trkpt>
      <trkpt lat="47.77491" lon="-3.54783">
        <ele>31.64453125</ele>
      </trkpt>
      <trkpt lat="47.77516" lon="-3.54912">
        <ele>30.91015625</ele>
      </trkpt>
      <trkpt lat="47.77531" lon="-3.54976">
        <ele>31.4453125</ele>
      </trkpt>
      <trkpt lat="47.77553" lon="-3.55039">
        <ele>32.80078125</ele>
      </trkpt>
      <trkpt lat="47.77583" lon="-3.55124">
        <ele>34.17578125</ele>
      </trkpt>
      <trkpt lat="47.77613" lon="-3.55208">
        <ele>35.421875</ele>
      </trkpt>
      <trkpt lat="47.77667" lon="-3.55348">
        <ele>36.12109375</ele>
      </trkpt>
      <trkpt lat="47.77671" lon="-3.55358">
        <ele>36.03515625</ele>
      </trkpt>
      <trkpt lat="47.77735" lon="-3.55345">
        <ele>36.94921875</ele>
      </trkpt>
      <trkpt lat="47.77746" lon="-3.5533">
        <ele>37.26953125</ele>
      </trkpt>
      <trkpt lat="47.77763" lon="-3.55318">
        <ele>37.80859375</ele>
      </trkpt>
      <trkpt lat="47.77793" lon="-3.55315">
        <ele>38.69140625</ele>
      </trkpt>
      <trkpt lat="47.77802" lon="-3.55335">
        <ele>38.83203125</ele>
      </trkpt>
      <trkpt lat="47.77838" lon="-3.55334">
        <ele>39.96875</ele>
      </trkpt>
      <trkpt lat="47.77864" lon="-3.55333">
        <ele>39.875</ele>
      </trkpt>
      <trkpt lat="47.77909" lon="-3.55333">
        <ele>39.65234375</ele>
      </trkpt>
      <trkpt lat="47.77918" lon="-3.5533">
        <ele>39.5859375</ele>
      </trkpt>
      <trkpt lat="47.77928" lon="-3.55328">
        <ele>39.61328125</ele>
      </trkpt>
      <trkpt lat="47.77956" lon="-3.55328">
        <ele>39.9453125</ele>
      </trkpt>
      <trkpt lat="47.78001" lon="-3.55333">
        <ele>40.5390625</ele>
      </trkpt>
      <trkpt lat="47.78081" lon="-3.55322">
        <ele>39.140625</ele>
      </trkpt>
      <trkpt lat="47.78143" lon="-3.55296">
        <ele>35.74609375</ele>
      </trkpt>
      <trkpt lat="47.78212" lon="-3.55247">
        <ele>32.8046875</ele>
      </trkpt>
      <trkpt lat="47.78272" lon="-3.55195">
        <ele>30.08203125</ele>
      </trkpt>
      <trkpt lat="47.7833" lon="-3.55139">
        <ele>27.84765625</ele>
      </trkpt>
      <trkpt lat="47.78358" lon="-3.55099">
        <ele>28.72265625</ele>
      </trkpt>
      <trkpt lat="47.78375" lon="-3.5507">
        <ele>29.6875</ele>
      </trkpt>
      <trkpt lat="47.78418" lon="-3.54998">
        <ele>33.11328125</ele>
      </trkpt>
      <trkpt lat="47.78437" lon="-3.54944">
        <ele>35.40625</ele>
      </trkpt>
      <trkpt lat="47.78441" lon="-3.54912">
        <ele>35.7109375</ele>
      </trkpt>
      <trkpt lat="47.78466" lon="-3.54819">
        <ele>35.42578125</ele>
      </trkpt>
      <trkpt lat="47.78469" lon="-3.54821">
        <ele>35.4453125</ele>
      </trkpt>
      <trkpt lat="47.78466" lon="-3.54819">
        <ele>35.42578125</ele>
      </trkpt>
      <trkpt lat="47.78478" lon="-3.54775">
        <ele>35.03515625</ele>
      </trkpt>
      <trkpt lat="47.78488" lon="-3.54768">
        <ele>35.0390625</ele>
      </trkpt>
      <trkpt lat="47.78508" lon="-3.54667">
        <ele>35.734375</ele>
      </trkpt>
      <trkpt lat="47.78501" lon="-3.54665">
        <ele>35.9140625</ele>
      </trkpt>
      <trkpt lat="47.78491" lon="-3.54659">
        <ele>36.265625</ele>
      </trkpt>
      <trkpt lat="47.78482" lon="-3.54652">
        <ele>36.59765625</ele>
      </trkpt>
      <trkpt lat="47.78394" lon="-3.54625">
        <ele>38.796875</ele>
      </trkpt>
      <trkpt lat="47.78392" lon="-3.5457">
        <ele>39.77734375</ele>
      </trkpt>
      <trkpt lat="47.7839" lon="-3.54491">
        <ele>40.58203125</ele>
      </trkpt>
      <trkpt lat="47.78385" lon="-3.54427">
        <ele>41.3203125</ele>
      </trkpt>
      <trkpt lat="47.78385" lon="-3.54406">
        <ele>41.72265625</ele>
      </trkpt>
      <trkpt lat="47.7839" lon="-3.54365">
        <ele>42.35546875</ele>
      </trkpt>
      <trkpt lat="47.78392" lon="-3.54361">
        <ele>42.27734375</ele>
      </trkpt>
      <trkpt lat="47.78398" lon="-3.54346">
        <ele>42.01953125</ele>
      </trkpt>
      <trkpt lat="47.78422" lon="-3.54294">
        <ele>41.12109375</ele>
      </trkpt>
      <trkpt lat="47.78491" lon="-3.54167">
        <ele>35.39453125</ele>
      </trkpt>
      <trkpt lat="47.78508" lon="-3.5414">
        <ele>33.69921875</ele>
      </trkpt>
      <trkpt lat="47.78533" lon="-3.5411">
        <ele>31.98046875</ele>
      </trkpt>
      <trkpt lat="47.78576" lon="-3.54062">
        <ele>30.43359375</ele>
      </trkpt>
      <trkpt lat="47.78615" lon="-3.54026">
        <ele>30.171875</ele>
      </trkpt>
      <trkpt lat="47.78617" lon="-3.5397">
        <ele>31.27734375</ele>
      </trkpt>
      <trkpt lat="47.7862" lon="-3.53929">
        <ele>32.30078125</ele>
      </trkpt>
      <trkpt lat="47.78621" lon="-3.53916">
        <ele>32.6875</ele>
      </trkpt>
      <trkpt lat="47.78628" lon="-3.53861">
        <ele>34.390625</ele>
      </trkpt>
      <trkpt lat="47.78639" lon="-3.53807">
        <ele>36.86328125</ele>
      </trkpt>
      <trkpt lat="47.78669" lon="-3.53773">
        <ele>38.5546875</ele>
      </trkpt>
      <trkpt lat="47.78703" lon="-3.53779">
        <ele>36.8046875</ele>
      </trkpt>
      <trkpt lat="47.78737" lon="-3.53743">
        <ele>37.65234375</ele>
      </trkpt>
      <trkpt lat="47.78752" lon="-3.53745">
        <ele>36.95703125</ele>
      </trkpt>
      <trkpt lat="47.78782" lon="-3.5376">
        <ele>33.90234375</ele>
      </trkpt>
      <trkpt lat="47.78789" lon="-3.53762">
        <ele>33.296875</ele>
      </trkpt>
      <trkpt lat="47.78864" lon="-3.53702">
        <ele>32.484375</ele>
      </trkpt>
      <trkpt lat="47.78883" lon="-3.53695">
        <ele>31.2421875</ele>
      </trkpt>
      <trkpt lat="47.78928" lon="-3.53693">
        <ele>27.04296875</ele>
      </trkpt>
      <trkpt lat="47.78965" lon="-3.53698">
        <ele>22.18359375</ele>
      </trkpt>
      <trkpt lat="47.78978" lon="-3.53687">
        <ele>21.703125</ele>
      </trkpt>
      <trkpt lat="47.78991" lon="-3.53631">
        <ele>25.60546875</ele>
      </trkpt>
      <trkpt lat="47.78991" lon="-3.53571">
        <ele>29.51953125</ele>
      </trkpt>
      <trkpt lat="47.78999" lon="-3.53492">
        <ele>30.6015625</ele>
      </trkpt>
      <trkpt lat="47.79003" lon="-3.53455">
        <ele>30.16015625</ele>
      </trkpt>
      <trkpt lat="47.78999" lon="-3.53436">
        <ele>30.421875</ele>
      </trkpt>
      <trkpt lat="47.79003" lon="-3.53369">
        <ele>29.15625</ele>
      </trkpt>
      <trkpt lat="47.79029" lon="-3.53232">
        <ele>15.49609375</ele>
      </trkpt>
      <trkpt lat="47.79031" lon="-3.5321">
        <ele>13.53515625</ele>
      </trkpt>
      <trkpt lat="47.79042" lon="-3.532">
        <ele>11.03125</ele>
      </trkpt>
      <trkpt lat="47.79046" lon="-3.532">
        <ele>10.375</ele>
      </trkpt>
      <trkpt lat="47.79136" lon="-3.53153">
        <ele>7.12109375</ele>
      </trkpt>
      <trkpt lat="47.79147" lon="-3.53142">
        <ele>7.7265625</ele>
      </trkpt>
      <trkpt lat="47.79145" lon="-3.53105">
        <ele>6.57421875</ele>
      </trkpt>
      <trkpt lat="47.79136" lon="-3.53062">
        <ele>5.10546875</ele>
      </trkpt>
      <trkpt lat="47.79142" lon="-3.5305">
        <ele>5.421875</ele>
      </trkpt>
      <trkpt lat="47.79149" lon="-3.53034">
        <ele>5.87890625</ele>
      </trkpt>
      <trkpt lat="47.79181" lon="-3.53019">
        <ele>8.45703125</ele>
      </trkpt>
      <trkpt lat="47.79194" lon="-3.52996">
        <ele>8.77734375</ele>
      </trkpt>
      <trkpt lat="47.79205" lon="-3.52942">
        <ele>8.1484375</ele>
      </trkpt>
      <trkpt lat="47.79229" lon="-3.52904">
        <ele>6.8359375</ele>
      </trkpt>
      <trkpt lat="47.79252" lon="-3.52871">
        <ele>6.92578125</ele>
      </trkpt>
      <trkpt lat="47.79269" lon="-3.52865">
        <ele>7.484375</ele>
      </trkpt>
      <trkpt lat="47.79295" lon="-3.52856">
        <ele>8.01953125</ele>
      </trkpt>
      <trkpt lat="47.79308" lon="-3.52848">
        <ele>7.859375</ele>
      </trkpt>
      <trkpt lat="47.79319" lon="-3.52839">
        <ele>7.5234375</ele>
      </trkpt>
      <trkpt lat="47.7936" lon="-3.5282">
        <ele>7.578125</ele>
      </trkpt>
      <trkpt lat="47.79375" lon="-3.52803">
        <ele>7.05859375</ele>
      </trkpt>
      <trkpt lat="47.79413" lon="-3.52771">
        <ele>7.09765625</ele>
      </trkpt>
      <trkpt lat="47.7943" lon="-3.52798">
        <ele>9.65625</ele>
      </trkpt>
      <trkpt lat="47.79448" lon="-3.5282">
        <ele>10.9921875</ele>
      </trkpt>
      <trkpt lat="47.79469" lon="-3.5282">
        <ele>10.90625</ele>
      </trkpt>
      <trkpt lat="47.7949" lon="-3.52846">
        <ele>13.3984375</ele>
      </trkpt>
      <trkpt lat="47.79505" lon="-3.5285">
        <ele>14.0859375</ele>
      </trkpt>
      <trkpt lat="47.79514" lon="-3.52867">
        <ele>16.55859375</ele>
      </trkpt>
      <trkpt lat="47.79536" lon="-3.52884">
        <ele>19.4296875</ele>
      </trkpt>
      <trkpt lat="47.79551" lon="-3.52882">
        <ele>20.29296875</ele>
      </trkpt>
      <trkpt lat="47.7957" lon="-3.52906">
        <ele>23.14453125</ele>
      </trkpt>
      <trkpt lat="47.79576" lon="-3.52901">
        <ele>23.26953125</ele>
      </trkpt>
      <trkpt lat="47.79578" lon="-3.5288">
        <ele>22.0546875</ele>
      </trkpt>
      <trkpt lat="47.79574" lon="-3.52854">
        <ele>19.77734375</ele>
      </trkpt>
      <trkpt lat="47.79604" lon="-3.52813">
        <ele>18.765625</ele>
      </trkpt>
      <trkpt lat="47.79645" lon="-3.52787">
        <ele>19.94921875</ele>
      </trkpt>
      <trkpt lat="47.79654" lon="-3.52781">
        <ele>20.0625</ele>
      </trkpt>
      <trkpt lat="47.79714" lon="-3.52771">
        <ele>27.49609375</ele>
      </trkpt>
      <trkpt lat="47.79724" lon="-3.52775">
        <ele>29.8046875</ele>
      </trkpt>
      <trkpt lat="47.79733" lon="-3.52775">
        <ele>31.26171875</ele>
      </trkpt>
      <trkpt lat="47.79742" lon="-3.52773">
        <ele>32.48046875</ele>
      </trkpt>
      <trkpt lat="47.79748" lon="-3.52766">
        <ele>32.87109375</ele>
      </trkpt>
      <trkpt lat="47.79754" lon="-3.52753">
        <ele>32.578125</ele>
      </trkpt>
      <trkpt lat="47.79765" lon="-3.52741">
        <ele>32.8828125</ele>
      </trkpt>
      <trkpt lat="47.79763" lon="-3.5273">
        <ele>31.4375</ele>
      </trkpt>
      <trkpt lat="47.79767" lon="-3.527">
        <ele>29.1328125</ele>
      </trkpt>
      <trkpt lat="47.79774" lon="-3.52685">
        <ele>28.9375</ele>
      </trkpt>
      <trkpt lat="47.79804" lon="-3.52633">
        <ele>30.28125</ele>
      </trkpt>
      <trkpt lat="47.79819" lon="-3.52616">
        <ele>32.0390625</ele>
      </trkpt>
      <trkpt lat="47.79832" lon="-3.52588">
        <ele>33.625</ele>
      </trkpt>
      <trkpt lat="47.79836" lon="-3.52577">
        <ele>34.14453125</ele>
      </trkpt>
      <trkpt lat="47.79836" lon="-3.5252">
        <ele>31.65234375</ele>
      </trkpt>
      <trkpt lat="47.79842" lon="-3.52468">
        <ele>29.4296875</ele>
      </trkpt>
      <trkpt lat="47.79849" lon="-3.52438">
        <ele>27.6171875</ele>
      </trkpt>
      <trkpt lat="47.79853" lon="-3.52427">
        <ele>26.921875</ele>
      </trkpt>
      <trkpt lat="47.79853" lon="-3.52421">
        <ele>26.20703125</ele>
      </trkpt>
      <trkpt lat="47.7986" lon="-3.52401">
        <ele>24.94140625</ele>
      </trkpt>
      <trkpt lat="47.79877" lon="-3.5238">
        <ele>25.203125</ele>
      </trkpt>
      <trkpt lat="47.79885" lon="-3.52378">
        <ele>26.2890625</ele>
      </trkpt>
      <trkpt lat="47.79898" lon="-3.52374">
        <ele>27.86328125</ele>
      </trkpt>
      <trkpt lat="47.79913" lon="-3.52374">
        <ele>30.1640625</ele>
      </trkpt>
      <trkpt lat="47.79928" lon="-3.52371">
        <ele>30.9453125</ele>
      </trkpt>
      <trkpt lat="47.79939" lon="-3.52367">
        <ele>30.1484375</ele>
      </trkpt>
      <trkpt lat="47.79948" lon="-3.52365">
        <ele>29.55078125</ele>
      </trkpt>
      <trkpt lat="47.79954" lon="-3.52361">
        <ele>28.74609375</ele>
      </trkpt>
      <trkpt lat="47.7996" lon="-3.52354">
        <ele>27.67578125</ele>
      </trkpt>
      <trkpt lat="47.79967" lon="-3.52344">
        <ele>26.06640625</ele>
      </trkpt>
      <trkpt lat="47.79971" lon="-3.52326">
        <ele>23.71875</ele>
      </trkpt>
      <trkpt lat="47.79958" lon="-3.52316">
        <ele>22.59375</ele>
      </trkpt>
      <trkpt lat="47.79924" lon="-3.52296">
        <ele>20.5390625</ele>
      </trkpt>
      <trkpt lat="47.79907" lon="-3.5229">
        <ele>17.921875</ele>
      </trkpt>
      <trkpt lat="47.79864" lon="-3.52288">
        <ele>12.4296875</ele>
      </trkpt>
      <trkpt lat="47.7984" lon="-3.52294">
        <ele>10.2734375</ele>
      </trkpt>
      <trkpt lat="47.79812" lon="-3.52307">
        <ele>6.59765625</ele>
      </trkpt>
      <trkpt lat="47.7972" lon="-3.52339">
        <ele>-2.54296875</ele>
      </trkpt>
      <trkpt lat="47.79626" lon="-3.52374">
        <ele>10.89453125</ele>
      </trkpt>
      <trkpt lat="47.79591" lon="-3.52382">
        <ele>19.76171875</ele>
      </trkpt>
      <trkpt lat="47.79568" lon="-3.52391">
        <ele>22.03125</ele>
      </trkpt>
      <trkpt lat="47.79497" lon="-3.52417">
        <ele>25.61328125</ele>
      </trkpt>
      <trkpt lat="47.79437" lon="-3.52432">
        <ele>27.6171875</ele>
      </trkpt>
      <trkpt lat="47.79415" lon="-3.52436">
        <ele>28.2109375</ele>
      </trkpt>
      <trkpt lat="47.79398" lon="-3.52436">
        <ele>28.45703125</ele>
      </trkpt>
      <trkpt lat="47.79353" lon="-3.52427">
        <ele>30.3203125</ele>
      </trkpt>
      <trkpt lat="47.79334" lon="-3.52419">
        <ele>31.8125</ele>
      </trkpt>
      <trkpt lat="47.79308" lon="-3.52404">
        <ele>33.84375</ele>
      </trkpt>
      <trkpt lat="47.79291" lon="-3.52389">
        <ele>35.53125</ele>
      </trkpt>
      <trkpt lat="47.79265" lon="-3.52356">
        <ele>37.3046875</ele>
      </trkpt>
      <trkpt lat="47.79237" lon="-3.52307">
        <ele>35.32421875</ele>
      </trkpt>
      <trkpt lat="47.79231" lon="-3.5229">
        <ele>34.70703125</ele>
      </trkpt>
      <trkpt lat="47.79224" lon="-3.52271">
        <ele>33.9765625</ele>
      </trkpt>
      <trkpt lat="47.79216" lon="-3.52234">
        <ele>32.9375</ele>
      </trkpt>
      <trkpt lat="47.79212" lon="-3.52204">
        <ele>32.3828125</ele>
      </trkpt>
      <trkpt lat="47.79209" lon="-3.52174">
        <ele>32.89453125</ele>
      </trkpt>
      <trkpt lat="47.79209" lon="-3.52118">
        <ele>34.2890625</ele>
      </trkpt>
      <trkpt lat="47.79212" lon="-3.51998">
        <ele>36.1640625</ele>
      </trkpt>
      <trkpt lat="47.79212" lon="-3.51974">
        <ele>36.2890625</ele>
      </trkpt>
      <trkpt lat="47.79209" lon="-3.5197">
        <ele>36.19921875</ele>
      </trkpt>
      <trkpt lat="47.79212" lon="-3.51874">
        <ele>35.4296875</ele>
      </trkpt>
      <trkpt lat="47.79203" lon="-3.51833">
        <ele>33.9453125</ele>
      </trkpt>
      <trkpt lat="47.79201" lon="-3.51803">
        <ele>33.16015625</ele>
      </trkpt>
      <trkpt lat="47.79201" lon="-3.51768">
        <ele>31.9375</ele>
      </trkpt>
      <trkpt lat="47.79207" lon="-3.51743">
        <ele>31.3046875</ele>
      </trkpt>
      <trkpt lat="47.79216" lon="-3.51693">
        <ele>30.1640625</ele>
      </trkpt>
      <trkpt lat="47.79216" lon="-3.51674">
        <ele>29.80859375</ele>
      </trkpt>
      <trkpt lat="47.79214" lon="-3.5164">
        <ele>28.9375</ele>
      </trkpt>
      <trkpt lat="47.79205" lon="-3.51612">
        <ele>28.26171875</ele>
      </trkpt>
      <trkpt lat="47.79192" lon="-3.51603">
        <ele>27.81640625</ele>
      </trkpt>
      <trkpt lat="47.79182" lon="-3.51602">
        <ele>27.05859375</ele>
      </trkpt>
      <trkpt lat="47.79068" lon="-3.51584">
        <ele>23.66015625</ele>
      </trkpt>
      <trkpt lat="47.7901" lon="-3.51582">
        <ele>23.328125</ele>
      </trkpt>
      <trkpt lat="47.78928" lon="-3.51601">
        <ele>18.703125</ele>
      </trkpt>
      <trkpt lat="47.7889" lon="-3.51595">
        <ele>16.9921875</ele>
      </trkpt>
      <trkpt lat="47.78778" lon="-3.5153">
        <ele>15.5390625</ele>
      </trkpt>
      <trkpt lat="47.78759" lon="-3.51528">
        <ele>14.06640625</ele>
      </trkpt>
      <trkpt lat="47.7872" lon="-3.51513">
        <ele>13.46484375</ele>
      </trkpt>
      <trkpt lat="47.78703" lon="-3.51505">
        <ele>13.19140625</ele>
      </trkpt>
      <trkpt lat="47.7863" lon="-3.51477">
        <ele>17.05859375</ele>
      </trkpt>
      <trkpt lat="47.78632" lon="-3.51344">
        <ele>29.23046875</ele>
      </trkpt>
      <trkpt lat="47.78628" lon="-3.51305">
        <ele>32.1484375</ele>
      </trkpt>
      <trkpt lat="47.78625" lon="-3.51214">
        <ele>37.2109375</ele>
      </trkpt>
      <trkpt lat="47.78619" lon="-3.5099">
        <ele>43.66796875</ele>
      </trkpt>
      <trkpt lat="47.78615" lon="-3.50955">
        <ele>43.92578125</ele>
      </trkpt>
      <trkpt lat="47.78574" lon="-3.50899">
        <ele>42.7890625</ele>
      </trkpt>
      <trkpt lat="47.78551" lon="-3.50799">
        <ele>42.58203125</ele>
      </trkpt>
      <trkpt lat="47.78583" lon="-3.50779">
        <ele>44.6796875</ele>
      </trkpt>
      <trkpt lat="47.78596" lon="-3.50773">
        <ele>45.26171875</ele>
      </trkpt>
      <trkpt lat="47.78602" lon="-3.50773">
        <ele>45.4921875</ele>
      </trkpt>
      <trkpt lat="47.78604" lon="-3.50764">
        <ele>45.5703125</ele>
      </trkpt>
      <trkpt lat="47.78615" lon="-3.50739">
        <ele>45.95703125</ele>
      </trkpt>
      <trkpt lat="47.78626" lon="-3.50726">
        <ele>46.34375</ele>
      </trkpt>
      <trkpt lat="47.78636" lon="-3.50715">
        <ele>46.73046875</ele>
      </trkpt>
      <trkpt lat="47.78651" lon="-3.50678">
        <ele>47.046875</ele>
      </trkpt>
      <trkpt lat="47.78643" lon="-3.50623">
        <ele>46.33203125</ele>
      </trkpt>
      <trkpt lat="47.78626" lon="-3.50584">
        <ele>43.22265625</ele>
      </trkpt>
      <trkpt lat="47.78596" lon="-3.50554">
        <ele>41.67578125</ele>
      </trkpt>
      <trkpt lat="47.78589" lon="-3.50554">
        <ele>41.82421875</ele>
      </trkpt>
      <trkpt lat="47.78568" lon="-3.5055">
        <ele>41.84765625</ele>
      </trkpt>
      <trkpt lat="47.78529" lon="-3.50524">
        <ele>40.2578125</ele>
      </trkpt>
      <trkpt lat="47.78484" lon="-3.5052">
        <ele>38.015625</ele>
      </trkpt>
      <trkpt lat="47.78497" lon="-3.50481">
        <ele>34.85546875</ele>
      </trkpt>
      <trkpt lat="47.78499" lon="-3.5047">
        <ele>33.70703125</ele>
      </trkpt>
      <trkpt lat="47.78514" lon="-3.50404">
        <ele>28.31640625</ele>
      </trkpt>
      <trkpt lat="47.78521" lon="-3.50339">
        <ele>25.12890625</ele>
      </trkpt>
      <trkpt lat="47.78572" lon="-3.50322">
        <ele>22.90234375</ele>
      </trkpt>
      <trkpt lat="47.78609" lon="-3.5026">
        <ele>20.8359375</ele>
      </trkpt>
      <trkpt lat="47.78679" lon="-3.50183">
        <ele>20.68359375</ele>
      </trkpt>
      <trkpt lat="47.78699" lon="-3.50148">
        <ele>20.23046875</ele>
      </trkpt>
      <trkpt lat="47.78705" lon="-3.50101">
        <ele>19.55078125</ele>
      </trkpt>
      <trkpt lat="47.78686" lon="-3.50075">
        <ele>18.9296875</ele>
      </trkpt>
      <trkpt lat="47.78647" lon="-3.50013">
        <ele>18.58984375</ele>
      </trkpt>
      <trkpt lat="47.7863" lon="-3.49981">
        <ele>19</ele>
      </trkpt>
      <trkpt lat="47.78604" lon="-3.49932">
        <ele>19.19921875</ele>
      </trkpt>
      <trkpt lat="47.78591" lon="-3.49835">
        <ele>17.609375</ele>
      </trkpt>
      <trkpt lat="47.78581" lon="-3.49792">
        <ele>17.3671875</ele>
      </trkpt>
      <trkpt lat="47.78553" lon="-3.4973">
        <ele>18.08984375</ele>
      </trkpt>
      <trkpt lat="47.7857" lon="-3.49704">
        <ele>17.99609375</ele>
      </trkpt>
      <trkpt lat="47.78576" lon="-3.49689">
        <ele>18.41796875</ele>
      </trkpt>
      <trkpt lat="47.78576" lon="-3.49653">
        <ele>19.4765625</ele>
      </trkpt>
      <trkpt lat="47.78589" lon="-3.49595">
        <ele>22.90234375</ele>
      </trkpt>
      <trkpt lat="47.78587" lon="-3.49586">
        <ele>23.37109375</ele>
      </trkpt>
      <trkpt lat="47.78574" lon="-3.49578">
        <ele>23.12890625</ele>
      </trkpt>
      <trkpt lat="47.78568" lon="-3.49569">
        <ele>23.2421875</ele>
      </trkpt>
      <trkpt lat="47.78536" lon="-3.4955">
        <ele>21.93359375</ele>
      </trkpt>
      <trkpt lat="47.78514" lon="-3.49507">
        <ele>22.9296875</ele>
      </trkpt>
      <trkpt lat="47.78497" lon="-3.49477">
        <ele>23.73046875</ele>
      </trkpt>
      <trkpt lat="47.78503" lon="-3.49464">
        <ele>25.125</ele>
      </trkpt>
      <trkpt lat="47.78499" lon="-3.4946">
        <ele>25.08203125</ele>
      </trkpt>
      <trkpt lat="47.78495" lon="-3.49455">
        <ele>25.0234375</ele>
      </trkpt>
      <trkpt lat="47.78493" lon="-3.49449">
        <ele>25.25</ele>
      </trkpt>
      <trkpt lat="47.78467" lon="-3.49442">
        <ele>23.52734375</ele>
      </trkpt>
      <trkpt lat="47.78439" lon="-3.4943">
        <ele>22.12109375</ele>
      </trkpt>
      <trkpt lat="47.78426" lon="-3.49423">
        <ele>21.54296875</ele>
      </trkpt>
      <trkpt lat="47.78418" lon="-3.49421">
        <ele>21.140625</ele>
      </trkpt>
      <trkpt lat="47.78409" lon="-3.49421">
        <ele>20.7109375</ele>
      </trkpt>
      <trkpt lat="47.78381" lon="-3.4943">
        <ele>18.84375</ele>
      </trkpt>
      <trkpt lat="47.78409" lon="-3.49376">
        <ele>23.70703125</ele>
      </trkpt>
      <trkpt lat="47.78413" lon="-3.49342">
        <ele>26.97265625</ele>
      </trkpt>
      <trkpt lat="47.78405" lon="-3.49309">
        <ele>28.87109375</ele>
      </trkpt>
      <trkpt lat="47.78396" lon="-3.49282">
        <ele>29.87109375</ele>
      </trkpt>
      <trkpt lat="47.78405" lon="-3.49174">
        <ele>35.02734375</ele>
      </trkpt>
      <trkpt lat="47.78409" lon="-3.49168">
        <ele>35.56640625</ele>
      </trkpt>
      <trkpt lat="47.78411" lon="-3.49159">
        <ele>35.859375</ele>
      </trkpt>
      <trkpt lat="47.78418" lon="-3.4914">
        <ele>36.58984375</ele>
      </trkpt>
      <trkpt lat="47.78418" lon="-3.49133">
        <ele>36.609375</ele>
      </trkpt>
      <trkpt lat="47.78413" lon="-3.49112">
        <ele>36.30078125</ele>
      </trkpt>
      <trkpt lat="47.78413" lon="-3.49101">
        <ele>36.328125</ele>
      </trkpt>
      <trkpt lat="47.78422" lon="-3.49052">
        <ele>37</ele>
      </trkpt>
      <trkpt lat="47.78439" lon="-3.48927">
        <ele>36.40234375</ele>
      </trkpt>
      <trkpt lat="47.78418" lon="-3.48921">
        <ele>35.85546875</ele>
      </trkpt>
      <trkpt lat="47.78411" lon="-3.48919">
        <ele>35.6328125</ele>
      </trkpt>
      <trkpt lat="47.78407" lon="-3.48917">
        <ele>35.4765625</ele>
      </trkpt>
      <trkpt lat="47.784" lon="-3.4891">
        <ele>35.21484375</ele>
      </trkpt>
      <trkpt lat="47.78396" lon="-3.48904">
        <ele>35.0078125</ele>
      </trkpt>
      <trkpt lat="47.78392" lon="-3.48891">
        <ele>34.734375</ele>
      </trkpt>
      <trkpt lat="47.78388" lon="-3.48876">
        <ele>34.40234375</ele>
      </trkpt>
      <trkpt lat="47.78381" lon="-3.48848">
        <ele>34.32421875</ele>
      </trkpt>
      <trkpt lat="47.78351" lon="-3.48767">
        <ele>32.44921875</ele>
      </trkpt>
      <trkpt lat="47.78336" lon="-3.48713">
        <ele>31.78125</ele>
      </trkpt>
      <trkpt lat="47.78278" lon="-3.48558">
        <ele>30.53125</ele>
      </trkpt>
      <trkpt lat="47.783" lon="-3.48541">
        <ele>32.62890625</ele>
      </trkpt>
      <trkpt lat="47.78325" lon="-3.48513">
        <ele>35.0234375</ele>
      </trkpt>
      <trkpt lat="47.78355" lon="-3.48466">
        <ele>36.171875</ele>
      </trkpt>
      <trkpt lat="47.78368" lon="-3.48438">
        <ele>36.66015625</ele>
      </trkpt>
      <trkpt lat="47.78403" lon="-3.48402">
        <ele>36.72265625</ele>
      </trkpt>
      <trkpt lat="47.78463" lon="-3.4837">
        <ele>37.46875</ele>
      </trkpt>
      <trkpt lat="47.78525" lon="-3.48342">
        <ele>38.3984375</ele>
      </trkpt>
      <trkpt lat="47.78555" lon="-3.48329">
        <ele>37.58203125</ele>
      </trkpt>
      <trkpt lat="47.78626" lon="-3.48327">
        <ele>35.734375</ele>
      </trkpt>
      <trkpt lat="47.78645" lon="-3.48363">
        <ele>37.1953125</ele>
      </trkpt>
      <trkpt lat="47.78656" lon="-3.48348">
        <ele>36.05859375</ele>
      </trkpt>
      <trkpt lat="47.78671" lon="-3.48333">
        <ele>34.75</ele>
      </trkpt>
      <trkpt lat="47.78682" lon="-3.48329">
        <ele>34.2890625</ele>
      </trkpt>
      <trkpt lat="47.78694" lon="-3.48329">
        <ele>34.0625</ele>
      </trkpt>
      <trkpt lat="47.78729" lon="-3.48333">
        <ele>33.60546875</ele>
      </trkpt>
      <trkpt lat="47.78772" lon="-3.48333">
        <ele>33.578125</ele>
      </trkpt>
      <trkpt lat="47.78776" lon="-3.48127">
        <ele>33.4140625</ele>
      </trkpt>
      <trkpt lat="47.78789" lon="-3.48056">
        <ele>34.10546875</ele>
      </trkpt>
      <trkpt lat="47.7881" lon="-3.48018">
        <ele>33.4296875</ele>
      </trkpt>
      <trkpt lat="47.78806" lon="-3.47988">
        <ele>33.171875</ele>
      </trkpt>
      <trkpt lat="47.78797" lon="-3.47953">
        <ele>32.96484375</ele>
      </trkpt>
      <trkpt lat="47.78789" lon="-3.47943">
        <ele>33.04296875</ele>
      </trkpt>
      <trkpt lat="47.78778" lon="-3.4793">
        <ele>33.1484375</ele>
      </trkpt>
      <trkpt lat="47.78769" lon="-3.47925">
        <ele>33.30078125</ele>
      </trkpt>
      <trkpt lat="47.78729" lon="-3.4791">
        <ele>35.9921875</ele>
      </trkpt>
      <trkpt lat="47.78701" lon="-3.47872">
        <ele>38.2109375</ele>
      </trkpt>
      <trkpt lat="47.78666" lon="-3.4781">
        <ele>41.421875</ele>
      </trkpt>
      <trkpt lat="47.78651" lon="-3.47769">
        <ele>42.30078125</ele>
      </trkpt>
      <trkpt lat="47.78636" lon="-3.47747">
        <ele>42.8515625</ele>
      </trkpt>
      <trkpt lat="47.78594" lon="-3.47672">
        <ele>41.82421875</ele>
      </trkpt>
      <trkpt lat="47.78555" lon="-3.47642">
        <ele>41.44921875</ele>
      </trkpt>
      <trkpt lat="47.78525" lon="-3.47623">
        <ele>42.0859375</ele>
      </trkpt>
      <trkpt lat="47.78497" lon="-3.47597">
        <ele>44.05078125</ele>
      </trkpt>
      <trkpt lat="47.78478" lon="-3.47569">
        <ele>46.0625</ele>
      </trkpt>
      <trkpt lat="47.78439" lon="-3.47456">
        <ele>47.19140625</ele>
      </trkpt>
      <trkpt lat="47.78437" lon="-3.4744">
        <ele>46.64453125</ele>
      </trkpt>
      <trkpt lat="47.78435" lon="-3.47374">
        <ele>43.79296875</ele>
      </trkpt>
      <trkpt lat="47.7843" lon="-3.47333">
        <ele>41.9921875</ele>
      </trkpt>
      <trkpt lat="47.78418" lon="-3.47215">
        <ele>37.3671875</ele>
      </trkpt>
      <trkpt lat="47.78409" lon="-3.47121">
        <ele>35.1640625</ele>
      </trkpt>
      <trkpt lat="47.78362" lon="-3.46958">
        <ele>34.30859375</ele>
      </trkpt>
      <trkpt lat="47.78332" lon="-3.46868">
        <ele>33.04296875</ele>
      </trkpt>
      <trkpt lat="47.78323" lon="-3.46842">
        <ele>33.0234375</ele>
      </trkpt>
      <trkpt lat="47.78398" lon="-3.46702">
        <ele>32.60546875</ele>
      </trkpt>
      <trkpt lat="47.78445" lon="-3.46595">
        <ele>33.609375</ele>
      </trkpt>
      <trkpt lat="47.78499" lon="-3.46398">
        <ele>34.83984375</ele>
      </trkpt>
      <trkpt lat="47.78531" lon="-3.46297">
        <ele>36.6171875</ele>
      </trkpt>
      <trkpt lat="47.78572" lon="-3.46187">
        <ele>38.140625</ele>
      </trkpt>
      <trkpt lat="47.78613" lon="-3.46022">
        <ele>46.765625</ele>
      </trkpt>
      <trkpt lat="47.78617" lon="-3.46016">
        <ele>47.171875</ele>
      </trkpt>
      <trkpt lat="47.78615" lon="-3.45915">
        <ele>51.09375</ele>
      </trkpt>
      <trkpt lat="47.78624" lon="-3.45816">
        <ele>51.66796875</ele>
      </trkpt>
      <trkpt lat="47.78621" lon="-3.45679">
        <ele>55.49609375</ele>
      </trkpt>
      <trkpt lat="47.78632" lon="-3.45563">
        <ele>59.9765625</ele>
      </trkpt>
      <trkpt lat="47.78705" lon="-3.45602">
        <ele>60.453125</ele>
      </trkpt>
      <trkpt lat="47.78712" lon="-3.45565">
        <ele>60.5078125</ele>
      </trkpt>
      <trkpt lat="47.78727" lon="-3.45548">
        <ele>60.375</ele>
      </trkpt>
      <trkpt lat="47.78776" lon="-3.45526">
        <ele>58.81640625</ele>
      </trkpt>
      <trkpt lat="47.78804" lon="-3.45511">
        <ele>57.4296875</ele>
      </trkpt>
      <trkpt lat="47.78842" lon="-3.45507">
        <ele>56</ele>
      </trkpt>
      <trkpt lat="47.78849" lon="-3.45477">
        <ele>55.12109375</ele>
      </trkpt>
      <trkpt lat="47.78864" lon="-3.45441">
        <ele>54.0703125</ele>
      </trkpt>
      <trkpt lat="47.78845" lon="-3.45415">
        <ele>53.89453125</ele>
      </trkpt>
      <trkpt lat="47.78574" lon="-3.45097">
        <ele>60.93359375</ele>
      </trkpt>
      <trkpt lat="47.78439" lon="-3.44928">
        <ele>61.7265625</ele>
      </trkpt>
      <trkpt lat="47.78426" lon="-3.44902">
        <ele>61.37890625</ele>
      </trkpt>
      <trkpt lat="47.78491" lon="-3.44825">
        <ele>61.99609375</ele>
      </trkpt>
      <trkpt lat="47.7851" lon="-3.4481">
        <ele>62.79296875</ele>
      </trkpt>
      <trkpt lat="47.78538" lon="-3.44803">
        <ele>63.10546875</ele>
      </trkpt>
      <trkpt lat="47.78581" lon="-3.4479">
        <ele>63.88671875</ele>
      </trkpt>
      <trkpt lat="47.78613" lon="-3.44773">
        <ele>63.05078125</ele>
      </trkpt>
      <trkpt lat="47.78639" lon="-3.44733">
        <ele>63.19921875</ele>
      </trkpt>
      <trkpt lat="47.78658" lon="-3.44713">
        <ele>63.20703125</ele>
      </trkpt>
      <trkpt lat="47.78739" lon="-3.44715">
        <ele>55.43359375</ele>
      </trkpt>
      <trkpt lat="47.78744" lon="-3.44563">
        <ele>54.33984375</ele>
      </trkpt>
      <trkpt lat="47.78746" lon="-3.44546">
        <ele>53.70703125</ele>
      </trkpt>
      <trkpt lat="47.78767" lon="-3.44481">
        <ele>52.4609375</ele>
      </trkpt>
      <trkpt lat="47.78793" lon="-3.44428">
        <ele>52.78515625</ele>
      </trkpt>
      <trkpt lat="47.7881" lon="-3.44396">
        <ele>52.6015625</ele>
      </trkpt>
      <trkpt lat="47.78817" lon="-3.44374">
        <ele>52.26953125</ele>
      </trkpt>
      <trkpt lat="47.788" lon="-3.44346">
        <ele>52.1171875</ele>
      </trkpt>
      <trkpt lat="47.78774" lon="-3.4431">
        <ele>52.4296875</ele>
      </trkpt>
      <trkpt lat="47.7875" lon="-3.44284">
        <ele>52.74609375</ele>
      </trkpt>
      <trkpt lat="47.78739" lon="-3.4426">
        <ele>52.046875</ele>
      </trkpt>
      <trkpt lat="47.78737" lon="-3.44245">
        <ele>51.7265625</ele>
      </trkpt>
      <trkpt lat="47.78731" lon="-3.4422">
        <ele>51.21875</ele>
      </trkpt>
      <trkpt lat="47.78727" lon="-3.44177">
        <ele>51.24609375</ele>
      </trkpt>
      <trkpt lat="47.7872" lon="-3.4416">
        <ele>51.4765625</ele>
      </trkpt>
      <trkpt lat="47.78705" lon="-3.44138">
        <ele>51.98828125</ele>
      </trkpt>
      <trkpt lat="47.78677" lon="-3.44125">
        <ele>52.83203125</ele>
      </trkpt>
      <trkpt lat="47.78664" lon="-3.44112">
        <ele>53.125</ele>
      </trkpt>
      <trkpt lat="47.7866" lon="-3.44087">
        <ele>53.3828125</ele>
      </trkpt>
      <trkpt lat="47.78662" lon="-3.44035">
        <ele>53.88671875</ele>
      </trkpt>
      <trkpt lat="47.7866" lon="-3.44014">
        <ele>53.859375</ele>
      </trkpt>
      <trkpt lat="47.7866" lon="-3.43988">
        <ele>53.859375</ele>
      </trkpt>
      <trkpt lat="47.78664" lon="-3.43964">
        <ele>53.91015625</ele>
      </trkpt>
      <trkpt lat="47.78679" lon="-3.43906">
        <ele>54.71875</ele>
      </trkpt>
      <trkpt lat="47.78716" lon="-3.43739">
        <ele>62.49609375</ele>
      </trkpt>
      <trkpt lat="47.78722" lon="-3.43694">
        <ele>64.28515625</ele>
      </trkpt>
      <trkpt lat="47.78735" lon="-3.43632">
        <ele>65.33984375</ele>
      </trkpt>
      <trkpt lat="47.78748" lon="-3.43563">
        <ele>63.890625</ele>
      </trkpt>
      <trkpt lat="47.78752" lon="-3.43533">
        <ele>62.875</ele>
      </trkpt>
      <trkpt lat="47.78763" lon="-3.43522">
        <ele>62.05859375</ele>
      </trkpt>
      <trkpt lat="47.78806" lon="-3.43484">
        <ele>60.59375</ele>
      </trkpt>
      <trkpt lat="47.78812" lon="-3.43473">
        <ele>60.60546875</ele>
      </trkpt>
      <trkpt lat="47.78815" lon="-3.43462">
        <ele>60.68359375</ele>
      </trkpt>
      <trkpt lat="47.78812" lon="-3.43449">
        <ele>60.6640625</ele>
      </trkpt>
      <trkpt lat="47.78757" lon="-3.43368">
        <ele>57.09765625</ele>
      </trkpt>
      <trkpt lat="47.78746" lon="-3.43327">
        <ele>56.546875</ele>
      </trkpt>
      <trkpt lat="47.78735" lon="-3.43273">
        <ele>55.80859375</ele>
      </trkpt>
      <trkpt lat="47.78731" lon="-3.43239">
        <ele>55.55078125</ele>
      </trkpt>
      <trkpt lat="47.78724" lon="-3.43168">
        <ele>55.4609375</ele>
      </trkpt>
      <trkpt lat="47.78716" lon="-3.43134">
        <ele>55.1171875</ele>
      </trkpt>
      <trkpt lat="47.78675" lon="-3.43012">
        <ele>54.01171875</ele>
      </trkpt>
      <trkpt lat="47.78666" lon="-3.42964">
        <ele>54.4765625</ele>
      </trkpt>
      <trkpt lat="47.7866" lon="-3.42926">
        <ele>55.1484375</ele>
      </trkpt>
      <trkpt lat="47.78656" lon="-3.42894">
        <ele>55.71875</ele>
      </trkpt>
      <trkpt lat="47.7866" lon="-3.42818">
        <ele>56.83203125</ele>
      </trkpt>
      <trkpt lat="47.78662" lon="-3.42806">
        <ele>57.06640625</ele>
      </trkpt>
      <trkpt lat="47.78688" lon="-3.42572">
        <ele>51.9765625</ele>
      </trkpt>
      <trkpt lat="47.78686" lon="-3.42488">
        <ele>50.59765625</ele>
      </trkpt>
      <trkpt lat="47.78688" lon="-3.42473">
        <ele>50.2890625</ele>
      </trkpt>
      <trkpt lat="47.78692" lon="-3.42464">
        <ele>50.1171875</ele>
      </trkpt>
      <trkpt lat="47.78701" lon="-3.42449">
        <ele>50.06640625</ele>
      </trkpt>
      <trkpt lat="47.7872" lon="-3.42424">
        <ele>50.171875</ele>
      </trkpt>
      <trkpt lat="47.78722" lon="-3.42419">
        <ele>50.18359375</ele>
      </trkpt>
      <trkpt lat="47.78733" lon="-3.42402">
        <ele>50.17578125</ele>
      </trkpt>
      <trkpt lat="47.78739" lon="-3.42396">
        <ele>50.140625</ele>
      </trkpt>
      <trkpt lat="47.7875" lon="-3.42383">
        <ele>50.05078125</ele>
      </trkpt>
      <trkpt lat="47.78761" lon="-3.42368">
        <ele>50.02734375</ele>
      </trkpt>
      <trkpt lat="47.78769" lon="-3.42291">
        <ele>52.31640625</ele>
      </trkpt>
      <trkpt lat="47.78778" lon="-3.42231">
        <ele>53.02734375</ele>
      </trkpt>
      <trkpt lat="47.78785" lon="-3.42205">
        <ele>53.265625</ele>
      </trkpt>
      <trkpt lat="47.788" lon="-3.42128">
        <ele>52.48046875</ele>
      </trkpt>
      <trkpt lat="47.78819" lon="-3.42007">
        <ele>51</ele>
      </trkpt>
      <trkpt lat="47.78825" lon="-3.41984">
        <ele>51</ele>
      </trkpt>
      <trkpt lat="47.78834" lon="-3.41969">
        <ele>51</ele>
      </trkpt>
      <trkpt lat="47.7884" lon="-3.4196">
        <ele>50.9765625</ele>
      </trkpt>
      <trkpt lat="47.78845" lon="-3.41861">
        <ele>51.3125</ele>
      </trkpt>
      <trkpt lat="47.78849" lon="-3.41806">
        <ele>52.55859375</ele>
      </trkpt>
      <trkpt lat="47.78851" lon="-3.41786">
        <ele>52.84765625</ele>
      </trkpt>
      <trkpt lat="47.78866" lon="-3.41694">
        <ele>52.49609375</ele>
      </trkpt>
      <trkpt lat="47.78868" lon="-3.41675">
        <ele>52.23828125</ele>
      </trkpt>
      <trkpt lat="47.78872" lon="-3.41649">
        <ele>51.875</ele>
      </trkpt>
      <trkpt lat="47.78872" lon="-3.41608">
        <ele>51.5078125</ele>
      </trkpt>
      <trkpt lat="47.78875" lon="-3.41552">
        <ele>51.18359375</ele>
      </trkpt>
      <trkpt lat="47.78875" lon="-3.41529">
        <ele>50.94921875</ele>
      </trkpt>
      <trkpt lat="47.78872" lon="-3.41428">
        <ele>49.3515625</ele>
      </trkpt>
      <trkpt lat="47.78872" lon="-3.41372">
        <ele>48.203125</ele>
      </trkpt>
      <trkpt lat="47.7887" lon="-3.41321">
        <ele>47.6484375</ele>
      </trkpt>
      <trkpt lat="47.78872" lon="-3.41291">
        <ele>47.3671875</ele>
      </trkpt>
      <trkpt lat="47.78875" lon="-3.41276">
        <ele>46.953125</ele>
      </trkpt>
      <trkpt lat="47.78877" lon="-3.41261">
        <ele>46.5078125</ele>
      </trkpt>
      <trkpt lat="47.78885" lon="-3.41233">
        <ele>45.83203125</ele>
      </trkpt>
      <trkpt lat="47.78911" lon="-3.41156">
        <ele>43.91015625</ele>
      </trkpt>
      <trkpt lat="47.78915" lon="-3.41012">
        <ele>41.90234375</ele>
      </trkpt>
      <trkpt lat="47.78918" lon="-3.40995">
        <ele>41.28515625</ele>
      </trkpt>
      <trkpt lat="47.78926" lon="-3.40973">
        <ele>40.59375</ele>
      </trkpt>
      <trkpt lat="47.78937" lon="-3.40937">
        <ele>39.39453125</ele>
      </trkpt>
      <trkpt lat="47.78939" lon="-3.40911">
        <ele>38.35546875</ele>
      </trkpt>
      <trkpt lat="47.78939" lon="-3.40904">
        <ele>38.078125</ele>
      </trkpt>
      <trkpt lat="47.78935" lon="-3.40864">
        <ele>36.34375</ele>
      </trkpt>
      <trkpt lat="47.78926" lon="-3.40864">
        <ele>35.93359375</ele>
      </trkpt>
      <trkpt lat="47.78918" lon="-3.40868">
        <ele>35.81640625</ele>
      </trkpt>
      <trkpt lat="47.78907" lon="-3.40844">
        <ele>35.25</ele>
      </trkpt>
      <trkpt lat="47.78896" lon="-3.40851">
        <ele>35.40234375</ele>
      </trkpt>
      <trkpt lat="47.78888" lon="-3.40853">
        <ele>35.45703125</ele>
      </trkpt>
      <trkpt lat="47.78856" lon="-3.40843">
        <ele>35.21875</ele>
      </trkpt>
      <trkpt lat="47.78847" lon="-3.4084">
        <ele>35.1484375</ele>
      </trkpt>
      <trkpt lat="47.78834" lon="-3.40842">
        <ele>35.55859375</ele>
      </trkpt>
      <trkpt lat="47.78825" lon="-3.40838">
        <ele>36.1328125</ele>
      </trkpt>
      <trkpt lat="47.78815" lon="-3.40829">
        <ele>36.6953125</ele>
      </trkpt>
      <trkpt lat="47.78808" lon="-3.40821">
        <ele>36.8671875</ele>
      </trkpt>
      <trkpt lat="47.78797" lon="-3.40816">
        <ele>37.4609375</ele>
      </trkpt>
      <trkpt lat="47.78785" lon="-3.40814">
        <ele>38.26953125</ele>
      </trkpt>
      <trkpt lat="47.78767" lon="-3.40801">
        <ele>38.7578125</ele>
      </trkpt>
      <trkpt lat="47.78759" lon="-3.40799">
        <ele>39.18359375</ele>
      </trkpt>
      <trkpt lat="47.78742" lon="-3.40797">
        <ele>40.890625</ele>
      </trkpt>
      <trkpt lat="47.78718" lon="-3.40782">
        <ele>42.6015625</ele>
      </trkpt>
      <trkpt lat="47.78697" lon="-3.40774">
        <ele>44.3515625</ele>
      </trkpt>
      <trkpt lat="47.78641" lon="-3.40735">
        <ele>42.51171875</ele>
      </trkpt>
      <trkpt lat="47.78635" lon="-3.40729">
        <ele>41.83203125</ele>
      </trkpt>
      <trkpt lat="47.78639" lon="-3.40722">
        <ele>41.328125</ele>
      </trkpt>
      <trkpt lat="47.78635" lon="-3.40729">
        <ele>41.83203125</ele>
      </trkpt>
      <trkpt lat="47.78583" lon="-3.40673">
        <ele>37.24609375</ele>
      </trkpt>
      <trkpt lat="47.78594" lon="-3.40653">
        <ele>36.328125</ele>
      </trkpt>
      <trkpt lat="47.78596" lon="-3.40608">
        <ele>34.51171875</ele>
      </trkpt>
      <trkpt lat="47.78621" lon="-3.40565">
        <ele>33.44140625</ele>
      </trkpt>
      <trkpt lat="47.7863" lon="-3.40553">
        <ele>33.1796875</ele>
      </trkpt>
      <trkpt lat="47.78643" lon="-3.40559">
        <ele>33.265625</ele>
      </trkpt>
      <trkpt lat="47.78658" lon="-3.40542">
        <ele>33.015625</ele>
      </trkpt>
      <trkpt lat="47.78673" lon="-3.4054">
        <ele>33.0546875</ele>
      </trkpt>
      <trkpt lat="47.78682" lon="-3.40518">
        <ele>33.46484375</ele>
      </trkpt>
      <trkpt lat="47.78694" lon="-3.40492">
        <ele>33.9296875</ele>
      </trkpt>
      <trkpt lat="47.78688" lon="-3.40473">
        <ele>34.46875</ele>
      </trkpt>
      <trkpt lat="47.78684" lon="-3.40443">
        <ele>34.94140625</ele>
      </trkpt>
      <trkpt lat="47.78677" lon="-3.40402">
        <ele>35.0703125</ele>
      </trkpt>
      <trkpt lat="47.78671" lon="-3.40357">
        <ele>35.46875</ele>
      </trkpt>
      <trkpt lat="47.78645" lon="-3.40211">
        <ele>37.640625</ele>
      </trkpt>
      <trkpt lat="47.78643" lon="-3.40186">
        <ele>37.69140625</ele>
      </trkpt>
      <trkpt lat="47.78602" lon="-3.40053">
        <ele>38.3671875</ele>
      </trkpt>
      <trkpt lat="47.78583" lon="-3.40044">
        <ele>38.21484375</ele>
      </trkpt>
      <trkpt lat="47.78572" lon="-3.40038">
        <ele>38.3125</ele>
      </trkpt>
      <trkpt lat="47.78561" lon="-3.40033">
        <ele>38.4453125</ele>
      </trkpt>
      <trkpt lat="47.78553" lon="-3.39941">
        <ele>34.109375</ele>
      </trkpt>
      <trkpt lat="47.78555" lon="-3.39855">
        <ele>33.203125</ele>
      </trkpt>
      <trkpt lat="47.78559" lon="-3.3984">
        <ele>33.3046875</ele>
      </trkpt>
      <trkpt lat="47.78495" lon="-3.39823">
        <ele>35.19140625</ele>
      </trkpt>
      <trkpt lat="47.78454" lon="-3.39832">
        <ele>38.65234375</ele>
      </trkpt>
      <trkpt lat="47.784" lon="-3.39782">
        <ele>43.25390625</ele>
      </trkpt>
      <trkpt lat="47.78411" lon="-3.39784">
        <ele>42.5546875</ele>
      </trkpt>
      <trkpt lat="47.78426" lon="-3.39795">
        <ele>41.61328125</ele>
      </trkpt>
      <trkpt lat="47.78454" lon="-3.39812">
        <ele>38.97265625</ele>
      </trkpt>
      <trkpt lat="47.78471" lon="-3.39814">
        <ele>37.44140625</ele>
      </trkpt>
      <trkpt lat="47.78482" lon="-3.39808">
        <ele>36.640625</ele>
      </trkpt>
      <trkpt lat="47.78508" lon="-3.39797">
        <ele>34.83984375</ele>
      </trkpt>
      <trkpt lat="47.78523" lon="-3.39799">
        <ele>34.45703125</ele>
      </trkpt>
      <trkpt lat="47.78542" lon="-3.39806">
        <ele>33.94140625</ele>
      </trkpt>
      <trkpt lat="47.78561" lon="-3.39802">
        <ele>33.58203125</ele>
      </trkpt>
      <trkpt lat="47.7857" lon="-3.39772">
        <ele>33.64453125</ele>
      </trkpt>
      <trkpt lat="47.78561" lon="-3.39718">
        <ele>34.2578125</ele>
      </trkpt>
      <trkpt lat="47.78529" lon="-3.39656">
        <ele>35.171875</ele>
      </trkpt>
      <trkpt lat="47.78529" lon="-3.3963">
        <ele>35.39453125</ele>
      </trkpt>
      <trkpt lat="47.78531" lon="-3.39613">
        <ele>35.37109375</ele>
      </trkpt>
      <trkpt lat="47.78531" lon="-3.396">
        <ele>35.37109375</ele>
      </trkpt>
      <trkpt lat="47.78527" lon="-3.39581">
        <ele>35.4765625</ele>
      </trkpt>
      <trkpt lat="47.78516" lon="-3.3955">
        <ele>35.734375</ele>
      </trkpt>
      <trkpt lat="47.78478" lon="-3.3951">
        <ele>36.578125</ele>
      </trkpt>
      <trkpt lat="47.78495" lon="-3.39514">
        <ele>35.61328125</ele>
      </trkpt>
      <trkpt lat="47.78518" lon="-3.39531">
        <ele>35.34375</ele>
      </trkpt>
      <trkpt lat="47.78529" lon="-3.39542">
        <ele>35.3984375</ele>
      </trkpt>
      <trkpt lat="47.78533" lon="-3.39533">
        <ele>35.12890625</ele>
      </trkpt>
      <trkpt lat="47.78538" lon="-3.39535">
        <ele>35.0859375</ele>
      </trkpt>
      <trkpt lat="47.78542" lon="-3.39531">
        <ele>34.9375</ele>
      </trkpt>
      <trkpt lat="47.78551" lon="-3.3952">
        <ele>34.6875</ele>
      </trkpt>
      <trkpt lat="47.78574" lon="-3.39523">
        <ele>34.41796875</ele>
      </trkpt>
      <trkpt lat="47.78591" lon="-3.39501">
        <ele>34.64453125</ele>
      </trkpt>
      <trkpt lat="47.78574" lon="-3.39482">
        <ele>34.57421875</ele>
      </trkpt>
      <trkpt lat="47.78557" lon="-3.3946">
        <ele>34.25</ele>
      </trkpt>
      <trkpt lat="47.78506" lon="-3.39379">
        <ele>33.0234375</ele>
      </trkpt>
      <trkpt lat="47.78488" lon="-3.3936">
        <ele>33.64453125</ele>
      </trkpt>
      <trkpt lat="47.78476" lon="-3.3931">
        <ele>33.73046875</ele>
      </trkpt>
      <trkpt lat="47.78473" lon="-3.39278">
        <ele>33.63671875</ele>
      </trkpt>
      <trkpt lat="47.78463" lon="-3.39257">
        <ele>33.24609375</ele>
      </trkpt>
      <trkpt lat="47.7845" lon="-3.39233">
        <ele>32.375</ele>
      </trkpt>
      <trkpt lat="47.78407" lon="-3.39179">
        <ele>29.94140625</ele>
      </trkpt>
      <trkpt lat="47.78398" lon="-3.39126">
        <ele>28.3125</ele>
      </trkpt>
      <trkpt lat="47.78398" lon="-3.3907">
        <ele>28.890625</ele>
      </trkpt>
      <trkpt lat="47.78405" lon="-3.39044">
        <ele>29.9296875</ele>
      </trkpt>
      <trkpt lat="47.78411" lon="-3.39012">
        <ele>31.23828125</ele>
      </trkpt>
      <trkpt lat="47.78415" lon="-3.38999">
        <ele>31.8828125</ele>
      </trkpt>
      <trkpt lat="47.7843" lon="-3.38956">
        <ele>33.5546875</ele>
      </trkpt>
      <trkpt lat="47.78422" lon="-3.38913">
        <ele>32.4375</ele>
      </trkpt>
      <trkpt lat="47.78424" lon="-3.38817">
        <ele>31.31640625</ele>
      </trkpt>
      <trkpt lat="47.78413" lon="-3.38767">
        <ele>29.1953125</ele>
      </trkpt>
      <trkpt lat="47.78411" lon="-3.38726">
        <ele>27.4296875</ele>
      </trkpt>
      <trkpt lat="47.78407" lon="-3.38654">
        <ele>21.296875</ele>
      </trkpt>
      <trkpt lat="47.7845" lon="-3.38643">
        <ele>22.734375</ele>
      </trkpt>
      <trkpt lat="47.78484" lon="-3.38643">
        <ele>24.2265625</ele>
      </trkpt>
      <trkpt lat="47.78508" lon="-3.38651">
        <ele>25.671875</ele>
      </trkpt>
      <trkpt lat="47.78527" lon="-3.38666">
        <ele>26.2890625</ele>
      </trkpt>
      <trkpt lat="47.78594" lon="-3.38737">
        <ele>32.0390625</ele>
      </trkpt>
      <trkpt lat="47.78673" lon="-3.38782">
        <ele>32.875</ele>
      </trkpt>
      <trkpt lat="47.78686" lon="-3.38784">
        <ele>32.63671875</ele>
      </trkpt>
      <trkpt lat="47.78688" lon="-3.38795">
        <ele>33.49609375</ele>
      </trkpt>
      <trkpt lat="47.78694" lon="-3.38772">
        <ele>31.14453125</ele>
      </trkpt>
      <trkpt lat="47.78697" lon="-3.38724">
        <ele>26.70703125</ele>
      </trkpt>
      <trkpt lat="47.78703" lon="-3.38673">
        <ele>21.87890625</ele>
      </trkpt>
      <trkpt lat="47.78705" lon="-3.38669">
        <ele>21.4921875</ele>
      </trkpt>
      <trkpt lat="47.78709" lon="-3.38606">
        <ele>17.13671875</ele>
      </trkpt>
      <trkpt lat="47.78699" lon="-3.38514">
        <ele>13.8359375</ele>
      </trkpt>
      <trkpt lat="47.7869" lon="-3.38409">
        <ele>9.5625</ele>
      </trkpt>
      <trkpt lat="47.78688" lon="-3.38403">
        <ele>9.09765625</ele>
      </trkpt>
      <trkpt lat="47.78675" lon="-3.38392">
        <ele>8.12109375</ele>
      </trkpt>
      <trkpt lat="47.78677" lon="-3.38385">
        <ele>7.70703125</ele>
      </trkpt>
      <trkpt lat="47.78694" lon="-3.38396">
        <ele>8.78125</ele>
      </trkpt>
      <trkpt lat="47.78705" lon="-3.38396">
        <ele>8.98046875</ele>
      </trkpt>
      <trkpt lat="47.78714" lon="-3.384">
        <ele>9.3984375</ele>
      </trkpt>
      <trkpt lat="47.7872" lon="-3.38407">
        <ele>9.8828125</ele>
      </trkpt>
      <trkpt lat="47.78727" lon="-3.38411">
        <ele>10.2265625</ele>
      </trkpt>
      <trkpt lat="47.78727" lon="-3.38439">
        <ele>11.79296875</ele>
      </trkpt>
      <trkpt lat="47.78733" lon="-3.38458">
        <ele>12.8828125</ele>
      </trkpt>
      <trkpt lat="47.78761" lon="-3.38458">
        <ele>13.11328125</ele>
      </trkpt>
      <trkpt lat="47.78774" lon="-3.38454">
        <ele>13.41796875</ele>
      </trkpt>
      <trkpt lat="47.78787" lon="-3.38445">
        <ele>13.625</ele>
      </trkpt>
      <trkpt lat="47.788" lon="-3.38413">
        <ele>13.24609375</ele>
      </trkpt>
      <trkpt lat="47.78838" lon="-3.38332">
        <ele>14.4453125</ele>
      </trkpt>
      <trkpt lat="47.78842" lon="-3.3833">
        <ele>14.8984375</ele>
      </trkpt>
      <trkpt lat="47.7889" lon="-3.38375">
        <ele>21.1171875</ele>
      </trkpt>
      <trkpt lat="47.78911" lon="-3.38407">
        <ele>23.7890625</ele>
      </trkpt>
      <trkpt lat="47.78995" lon="-3.38471">
        <ele>30.80078125</ele>
      </trkpt>
      <trkpt lat="47.79006" lon="-3.38471">
        <ele>31.65234375</ele>
      </trkpt>
      <trkpt lat="47.79023" lon="-3.38458">
        <ele>33.109375</ele>
      </trkpt>
      <trkpt lat="47.79031" lon="-3.38456">
        <ele>33.671875</ele>
      </trkpt>
      <trkpt lat="47.79044" lon="-3.38454">
        <ele>34.5078125</ele>
      </trkpt>
      <trkpt lat="47.79081" lon="-3.38463">
        <ele>36.42578125</ele>
      </trkpt>
      <trkpt lat="47.79106" lon="-3.38465">
        <ele>36.3046875</ele>
      </trkpt>
      <trkpt lat="47.79128" lon="-3.38463">
        <ele>35.91796875</ele>
      </trkpt>
      <trkpt lat="47.79143" lon="-3.38454">
        <ele>35.96875</ele>
      </trkpt>
      <trkpt lat="47.79151" lon="-3.38448">
        <ele>36.0625</ele>
      </trkpt>
      <trkpt lat="47.7916" lon="-3.38456">
        <ele>35.47265625</ele>
      </trkpt>
      <trkpt lat="47.79209" lon="-3.38441">
        <ele>34.8046875</ele>
      </trkpt>
      <trkpt lat="47.79295" lon="-3.3845">
        <ele>32.64453125</ele>
      </trkpt>
      <trkpt lat="47.79387" lon="-3.3845">
        <ele>31.5390625</ele>
      </trkpt>
      <trkpt lat="47.79458" lon="-3.38439">
        <ele>22.296875</ele>
      </trkpt>
      <trkpt lat="47.79463" lon="-3.3845">
        <ele>22.95703125</ele>
      </trkpt>
      <trkpt lat="47.79495" lon="-3.38493">
        <ele>24.7890625</ele>
      </trkpt>
      <trkpt lat="47.79538" lon="-3.38544">
        <ele>25.29296875</ele>
      </trkpt>
      <trkpt lat="47.79585" lon="-3.38617">
        <ele>27.34765625</ele>
      </trkpt>
      <trkpt lat="47.79611" lon="-3.38671">
        <ele>28.2265625</ele>
      </trkpt>
      <trkpt lat="47.79649" lon="-3.38772">
        <ele>27.8515625</ele>
      </trkpt>
      <trkpt lat="47.79679" lon="-3.3883">
        <ele>27.2109375</ele>
      </trkpt>
      <trkpt lat="47.79694" lon="-3.38866">
        <ele>27.69140625</ele>
      </trkpt>
      <trkpt lat="47.79707" lon="-3.38883">
        <ele>26.9921875</ele>
      </trkpt>
      <trkpt lat="47.79722" lon="-3.38896">
        <ele>25.6171875</ele>
      </trkpt>
      <trkpt lat="47.79746" lon="-3.38909">
        <ele>23.4609375</ele>
      </trkpt>
      <trkpt lat="47.79763" lon="-3.38924">
        <ele>23.09765625</ele>
      </trkpt>
      <trkpt lat="47.79782" lon="-3.38943">
        <ele>23.28125</ele>
      </trkpt>
      <trkpt lat="47.79808" lon="-3.38963">
        <ele>22.890625</ele>
      </trkpt>
      <trkpt lat="47.79838" lon="-3.3898">
        <ele>22.51171875</ele>
      </trkpt>
      <trkpt lat="47.7987" lon="-3.3899">
        <ele>22.78515625</ele>
      </trkpt>
      <trkpt lat="47.79898" lon="-3.39014">
        <ele>23.75390625</ele>
      </trkpt>
      <trkpt lat="47.79902" lon="-3.39027">
        <ele>24.63671875</ele>
      </trkpt>
      <trkpt lat="47.79917" lon="-3.39025">
        <ele>22.9921875</ele>
      </trkpt>
      <trkpt lat="47.79945" lon="-3.38999">
        <ele>18.203125</ele>
      </trkpt>
      <trkpt lat="47.79965" lon="-3.38999">
        <ele>16.1484375</ele>
      </trkpt>
      <trkpt lat="47.79973" lon="-3.3899">
        <ele>14.875</ele>
      </trkpt>
      <trkpt lat="47.7998" lon="-3.38988">
        <ele>14.13671875</ele>
      </trkpt>
      <trkpt lat="47.79984" lon="-3.3898">
        <ele>13.40234375</ele>
      </trkpt>
      <trkpt lat="47.7999" lon="-3.38969">
        <ele>12.4453125</ele>
      </trkpt>
      <trkpt lat="47.8001" lon="-3.3896">
        <ele>10.67578125</ele>
      </trkpt>
      <trkpt lat="47.80016" lon="-3.38952">
        <ele>9.828125</ele>
      </trkpt>
      <trkpt lat="47.80018" lon="-3.38945">
        <ele>9.359375</ele>
      </trkpt>
      <trkpt lat="47.80025" lon="-3.38943">
        <ele>8.90234375</ele>
      </trkpt>
      <trkpt lat="47.80027" lon="-3.38937">
        <ele>8.46875</ele>
      </trkpt>
      <trkpt lat="47.80035" lon="-3.38939">
        <ele>8.13671875</ele>
      </trkpt>
      <trkpt lat="47.80042" lon="-3.38943">
        <ele>8</ele>
      </trkpt>
      <trkpt lat="47.80051" lon="-3.3896">
        <ele>8.234375</ele>
      </trkpt>
      <trkpt lat="47.80059" lon="-3.38971">
        <ele>8.3203125</ele>
      </trkpt>
      <trkpt lat="47.80068" lon="-3.38978">
        <ele>8.25</ele>
      </trkpt>
      <trkpt lat="47.80074" lon="-3.3898">
        <ele>8.0625</ele>
      </trkpt>
      <trkpt lat="47.80083" lon="-3.38978">
        <ele>7.49609375</ele>
      </trkpt>
      <trkpt lat="47.80141" lon="-3.38956">
        <ele>8.421875</ele>
      </trkpt>
      <trkpt lat="47.80156" lon="-3.3893">
        <ele>8.265625</ele>
      </trkpt>
      <trkpt lat="47.80177" lon="-3.38883">
        <ele>7.97265625</ele>
      </trkpt>
      <trkpt lat="47.80181" lon="-3.38939">
        <ele>10.3203125</ele>
      </trkpt>
      <trkpt lat="47.80194" lon="-3.39014">
        <ele>13.1015625</ele>
      </trkpt>
      <trkpt lat="47.80216" lon="-3.39059">
        <ele>14.05078125</ele>
      </trkpt>
      <trkpt lat="47.80235" lon="-3.39096">
        <ele>13.86328125</ele>
      </trkpt>
      <trkpt lat="47.80257" lon="-3.39162">
        <ele>13.2109375</ele>
      </trkpt>
      <trkpt lat="47.80295" lon="-3.39156">
        <ele>16.75</ele>
      </trkpt>
      <trkpt lat="47.80312" lon="-3.39164">
        <ele>18.03125</ele>
      </trkpt>
      <trkpt lat="47.80334" lon="-3.39169">
        <ele>19.6875</ele>
      </trkpt>
      <trkpt lat="47.80349" lon="-3.39179">
        <ele>17.5078125</ele>
      </trkpt>
      <trkpt lat="47.80344" lon="-3.39199">
        <ele>17.33984375</ele>
      </trkpt>
      <trkpt lat="47.80342" lon="-3.39203">
        <ele>17.50390625</ele>
      </trkpt>
      <trkpt lat="47.80338" lon="-3.39207">
        <ele>18.0234375</ele>
      </trkpt>
      <trkpt lat="47.80334" lon="-3.39226">
        <ele>18.56640625</ele>
      </trkpt>
      <trkpt lat="47.80329" lon="-3.39239">
        <ele>18.90234375</ele>
      </trkpt>
      <trkpt lat="47.80327" lon="-3.39252">
        <ele>19.36328125</ele>
      </trkpt>
      <trkpt lat="47.80327" lon="-3.39278">
        <ele>20.5625</ele>
      </trkpt>
      <trkpt lat="47.80344" lon="-3.39302">
        <ele>21.5390625</ele>
      </trkpt>
      <trkpt lat="47.80355" lon="-3.39321">
        <ele>21.6328125</ele>
      </trkpt>
      <trkpt lat="47.80377" lon="-3.39357">
        <ele>22.6640625</ele>
      </trkpt>
      <trkpt lat="47.80387" lon="-3.39368">
        <ele>22.8203125</ele>
      </trkpt>
      <trkpt lat="47.80393" lon="-3.39377">
        <ele>23.34765625</ele>
      </trkpt>
      <trkpt lat="47.80398" lon="-3.39385">
        <ele>23.94140625</ele>
      </trkpt>
      <trkpt lat="47.8042" lon="-3.39394">
        <ele>23.76171875</ele>
      </trkpt>
      <trkpt lat="47.80437" lon="-3.39405">
        <ele>24.28515625</ele>
      </trkpt>
      <trkpt lat="47.80465" lon="-3.39426">
        <ele>26.6953125</ele>
      </trkpt>
      <trkpt lat="47.80475" lon="-3.3943">
        <ele>27.109375</ele>
      </trkpt>
      <trkpt lat="47.80486" lon="-3.39437">
        <ele>28.08984375</ele>
      </trkpt>
      <trkpt lat="47.8051" lon="-3.39445">
        <ele>28.85546875</ele>
      </trkpt>
      <trkpt lat="47.80533" lon="-3.39456">
        <ele>28.60546875</ele>
      </trkpt>
      <trkpt lat="47.80546" lon="-3.3946">
        <ele>28.01953125</ele>
      </trkpt>
      <trkpt lat="47.80563" lon="-3.39473">
        <ele>28.3046875</ele>
      </trkpt>
      <trkpt lat="47.80596" lon="-3.39505">
        <ele>30.19921875</ele>
      </trkpt>
      <trkpt lat="47.80636" lon="-3.39535">
        <ele>27.67578125</ele>
      </trkpt>
      <trkpt lat="47.80656" lon="-3.39557">
        <ele>25.7890625</ele>
      </trkpt>
      <trkpt lat="47.80664" lon="-3.39581">
        <ele>25.1875</ele>
      </trkpt>
      <trkpt lat="47.80666" lon="-3.39598">
        <ele>25.56640625</ele>
      </trkpt>
      <trkpt lat="47.80664" lon="-3.39621">
        <ele>27.25390625</ele>
      </trkpt>
      <trkpt lat="47.80656" lon="-3.39675">
        <ele>26.765625</ele>
      </trkpt>
      <trkpt lat="47.80649" lon="-3.39699">
        <ele>27.01171875</ele>
      </trkpt>
      <trkpt lat="47.80645" lon="-3.39729">
        <ele>26.83203125</ele>
      </trkpt>
      <trkpt lat="47.80647" lon="-3.39733">
        <ele>26.2109375</ele>
      </trkpt>
      <trkpt lat="47.80649" lon="-3.39746">
        <ele>25.37890625</ele>
      </trkpt>
      <trkpt lat="47.80656" lon="-3.39761">
        <ele>23.765625</ele>
      </trkpt>
      <trkpt lat="47.80666" lon="-3.39767">
        <ele>21.73828125</ele>
      </trkpt>
      <trkpt lat="47.80651" lon="-3.39787">
        <ele>23.921875</ele>
      </trkpt>
      <trkpt lat="47.80677" lon="-3.39829">
        <ele>23.55859375</ele>
      </trkpt>
      <trkpt lat="47.80692" lon="-3.39868">
        <ele>25.1015625</ele>
      </trkpt>
      <trkpt lat="47.80716" lon="-3.39911">
        <ele>27.21875</ele>
      </trkpt>
      <trkpt lat="47.80763" lon="-3.39954">
        <ele>30.1015625</ele>
      </trkpt>
      <trkpt lat="47.80804" lon="-3.39971">
        <ele>28.953125</ele>
      </trkpt>
      <trkpt lat="47.80851" lon="-3.40023">
        <ele>30.265625</ele>
      </trkpt>
      <trkpt lat="47.80859" lon="-3.40153">
        <ele>32.578125</ele>
      </trkpt>
      <trkpt lat="47.80849" lon="-3.40218">
        <ele>32.93359375</ele>
      </trkpt>
      <trkpt lat="47.80797" lon="-3.40362">
        <ele>27.01953125</ele>
      </trkpt>
      <trkpt lat="47.80789" lon="-3.4043">
        <ele>21.34765625</ele>
      </trkpt>
      <trkpt lat="47.80806" lon="-3.40443">
        <ele>17.52734375</ele>
      </trkpt>
      <trkpt lat="47.80827" lon="-3.40452">
        <ele>13.80859375</ele>
      </trkpt>
      <trkpt lat="47.8084" lon="-3.40456">
        <ele>12.47265625</ele>
      </trkpt>
      <trkpt lat="47.80881" lon="-3.40462">
        <ele>16.296875</ele>
      </trkpt>
      <trkpt lat="47.80896" lon="-3.4046">
        <ele>17.6953125</ele>
      </trkpt>
      <trkpt lat="47.80911" lon="-3.40447">
        <ele>18.171875</ele>
      </trkpt>
      <trkpt lat="47.80945" lon="-3.40394">
        <ele>18.44140625</ele>
      </trkpt>
      <trkpt lat="47.8098" lon="-3.40344">
        <ele>19.23046875</ele>
      </trkpt>
      <trkpt lat="47.8102" lon="-3.40304">
        <ele>18.9453125</ele>
      </trkpt>
      <trkpt lat="47.81059" lon="-3.4025">
        <ele>19.0546875</ele>
      </trkpt>
      <trkpt lat="47.81057" lon="-3.40239">
        <ele>17.72265625</ele>
      </trkpt>
      <trkpt lat="47.81106" lon="-3.40183">
        <ele>22.53125</ele>
      </trkpt>
      <trkpt lat="47.81121" lon="-3.40179">
        <ele>25.49609375</ele>
      </trkpt>
      <trkpt lat="47.81115" lon="-3.40166">
        <ele>23.45703125</ele>
      </trkpt>
      <trkpt lat="47.81115" lon="-3.3999">
        <ele>20.875</ele>
      </trkpt>
      <trkpt lat="47.811" lon="-3.39937">
        <ele>18.19921875</ele>
      </trkpt>
      <trkpt lat="47.81042" lon="-3.39784">
        <ele>15.09765625</ele>
      </trkpt>
      <trkpt lat="47.80993" lon="-3.39626">
        <ele>9.78125</ele>
      </trkpt>
      <trkpt lat="47.8096" lon="-3.39561">
        <ele>5.9765625</ele>
      </trkpt>
      <trkpt lat="47.8095" lon="-3.39529">
        <ele>5.3359375</ele>
      </trkpt>
      <trkpt lat="47.80926" lon="-3.3948">
        <ele>4.21875</ele>
      </trkpt>
      <trkpt lat="47.80881" lon="-3.39465">
        <ele>2.5234375</ele>
      </trkpt>
      <trkpt lat="47.80862" lon="-3.39452">
        <ele>2.0390625</ele>
      </trkpt>
      <trkpt lat="47.80864" lon="-3.39413">
        <ele>2.8828125</ele>
      </trkpt>
      <trkpt lat="47.80885" lon="-3.3934">
        <ele>5.328125</ele>
      </trkpt>
      <trkpt lat="47.8095" lon="-3.39239">
        <ele>10.79296875</ele>
      </trkpt>
      <trkpt lat="47.8096" lon="-3.39206">
        <ele>11.5703125</ele>
      </trkpt>
      <trkpt lat="47.8099" lon="-3.39113">
        <ele>11.1875</ele>
      </trkpt>
      <trkpt lat="47.81023" lon="-3.39051">
        <ele>11.7109375</ele>
      </trkpt>
      <trkpt lat="47.81063" lon="-3.39001">
        <ele>13.09375</ele>
      </trkpt>
      <trkpt lat="47.81123" lon="-3.38935">
        <ele>12.08203125</ele>
      </trkpt>
      <trkpt lat="47.8116" lon="-3.38913">
        <ele>12.375</ele>
      </trkpt>
      <trkpt lat="47.81201" lon="-3.38877">
        <ele>9.55078125</ele>
      </trkpt>
      <trkpt lat="47.81239" lon="-3.38849">
        <ele>9.62109375</ele>
      </trkpt>
      <trkpt lat="47.81308" lon="-3.38814">
        <ele>8.21484375</ele>
      </trkpt>
      <trkpt lat="47.81471" lon="-3.38763">
        <ele>10.8984375</ele>
      </trkpt>
      <trkpt lat="47.81486" lon="-3.38757">
        <ele>10.58984375</ele>
      </trkpt>
      <trkpt lat="47.81514" lon="-3.38752">
        <ele>10.2734375</ele>
      </trkpt>
      <trkpt lat="47.81544" lon="-3.38737">
        <ele>8.2890625</ele>
      </trkpt>
      <trkpt lat="47.81553" lon="-3.38735">
        <ele>7.90234375</ele>
      </trkpt>
      <trkpt lat="47.81587" lon="-3.38754">
        <ele>8.70703125</ele>
      </trkpt>
      <trkpt lat="47.81598" lon="-3.38759">
        <ele>9.015625</ele>
      </trkpt>
      <trkpt lat="47.8161" lon="-3.38769">
        <ele>9.88671875</ele>
      </trkpt>
      <trkpt lat="47.81621" lon="-3.38782">
        <ele>10.99609375</ele>
      </trkpt>
      <trkpt lat="47.81626" lon="-3.38795">
        <ele>12.16796875</ele>
      </trkpt>
      <trkpt lat="47.81628" lon="-3.38808">
        <ele>13.55078125</ele>
      </trkpt>
      <trkpt lat="47.81636" lon="-3.38812">
        <ele>14.24609375</ele>
      </trkpt>
      <trkpt lat="47.81643" lon="-3.38819">
        <ele>15.25</ele>
      </trkpt>
      <trkpt lat="47.81647" lon="-3.38819">
        <ele>15.40625</ele>
      </trkpt>
      <trkpt lat="47.81683" lon="-3.38819">
        <ele>16.08984375</ele>
      </trkpt>
      <trkpt lat="47.81696" lon="-3.38817">
        <ele>15.61328125</ele>
      </trkpt>
      <trkpt lat="47.81737" lon="-3.38836">
        <ele>17.890625</ele>
      </trkpt>
      <trkpt lat="47.81776" lon="-3.38868">
        <ele>18.88671875</ele>
      </trkpt>
      <trkpt lat="47.81814" lon="-3.38887">
        <ele>15.640625</ele>
      </trkpt>
      <trkpt lat="47.81847" lon="-3.38915">
        <ele>16.421875</ele>
      </trkpt>
      <trkpt lat="47.81864" lon="-3.38941">
        <ele>19.0390625</ele>
      </trkpt>
      <trkpt lat="47.81883" lon="-3.38954">
        <ele>19.29296875</ele>
      </trkpt>
      <trkpt lat="47.81911" lon="-3.38963">
        <ele>18.1875</ele>
      </trkpt>
      <trkpt lat="47.81932" lon="-3.38999">
        <ele>22.390625</ele>
      </trkpt>
      <trkpt lat="47.81926" lon="-3.39012">
        <ele>25.8359375</ele>
      </trkpt>
      <trkpt lat="47.81945" lon="-3.39044">
        <ele>27.5859375</ele>
      </trkpt>
      <trkpt lat="47.81956" lon="-3.39068">
        <ele>28.8125</ele>
      </trkpt>
      <trkpt lat="47.81952" lon="-3.39091">
        <ele>33.0390625</ele>
      </trkpt>
      <trkpt lat="47.81945" lon="-3.39111">
        <ele>36.7265625</ele>
      </trkpt>
      <trkpt lat="47.8195" lon="-3.39145">
        <ele>39.91015625</ele>
      </trkpt>
      <trkpt lat="47.81962" lon="-3.39179">
        <ele>41.65234375</ele>
      </trkpt>
      <trkpt lat="47.81982" lon="-3.39179">
        <ele>40.06640625</ele>
      </trkpt>
      <trkpt lat="47.8199" lon="-3.39179">
        <ele>39.359375</ele>
      </trkpt>
      <trkpt lat="47.81997" lon="-3.39192">
        <ele>40.31640625</ele>
      </trkpt>
      <trkpt lat="47.82025" lon="-3.39239">
        <ele>35.015625</ele>
      </trkpt>
      <trkpt lat="47.82059" lon="-3.39237">
        <ele>23.85546875</ele>
      </trkpt>
      <trkpt lat="47.82078" lon="-3.39231">
        <ele>17.3828125</ele>
      </trkpt>
      <trkpt lat="47.821" lon="-3.39235">
        <ele>13.29296875</ele>
      </trkpt>
      <trkpt lat="47.82104" lon="-3.39231">
        <ele>12.625</ele>
      </trkpt>
      <trkpt lat="47.82121" lon="-3.39239">
        <ele>10.87109375</ele>
      </trkpt>
      <trkpt lat="47.82132" lon="-3.39231">
        <ele>9.2734375</ele>
      </trkpt>
      <trkpt lat="47.82168" lon="-3.39229">
        <ele>4.81640625</ele>
      </trkpt>
      <trkpt lat="47.82228" lon="-3.39209">
        <ele>2.57421875</ele>
      </trkpt>
      <trkpt lat="47.82246" lon="-3.39209">
        <ele>2.1640625</ele>
      </trkpt>
      <trkpt lat="47.82256" lon="-3.39211">
        <ele>1.9921875</ele>
      </trkpt>
      <trkpt lat="47.82282" lon="-3.39194">
        <ele>1.52734375</ele>
      </trkpt>
      <trkpt lat="47.82306" lon="-3.39196">
        <ele>1.3046875</ele>
      </trkpt>
      <trkpt lat="47.824" lon="-3.39194">
        <ele>2.24609375</ele>
      </trkpt>
      <trkpt lat="47.82482" lon="-3.39184">
        <ele>5.390625</ele>
      </trkpt>
      <trkpt lat="47.82488" lon="-3.39181">
        <ele>5.58984375</ele>
      </trkpt>
      <trkpt lat="47.8248" lon="-3.39128">
        <ele>2.49609375</ele>
      </trkpt>
      <trkpt lat="47.82482" lon="-3.39108">
        <ele>2.16796875</ele>
      </trkpt>
      <trkpt lat="47.82533" lon="-3.39076">
        <ele>3.90625</ele>
      </trkpt>
      <trkpt lat="47.82555" lon="-3.39063">
        <ele>4.89453125</ele>
      </trkpt>
      <trkpt lat="47.82561" lon="-3.39059">
        <ele>5.14453125</ele>
      </trkpt>
      <trkpt lat="47.82565" lon="-3.39076">
        <ele>6.140625</ele>
      </trkpt>
      <trkpt lat="47.8258" lon="-3.39166">
        <ele>11.46484375</ele>
      </trkpt>
      <trkpt lat="47.82591" lon="-3.39179">
        <ele>12.87109375</ele>
      </trkpt>
      <trkpt lat="47.8261" lon="-3.39177">
        <ele>14.06640625</ele>
      </trkpt>
      <trkpt lat="47.82619" lon="-3.39179">
        <ele>14.75390625</ele>
      </trkpt>
      <trkpt lat="47.82655" lon="-3.39102">
        <ele>11.99609375</ele>
      </trkpt>
      <trkpt lat="47.82677" lon="-3.39066">
        <ele>9.76171875</ele>
      </trkpt>
      <trkpt lat="47.82716" lon="-3.39053">
        <ele>12.0859375</ele>
      </trkpt>
      <trkpt lat="47.82737" lon="-3.39038">
        <ele>13.00390625</ele>
      </trkpt>
      <trkpt lat="47.82741" lon="-3.39025">
        <ele>12.25</ele>
      </trkpt>
      <trkpt lat="47.82743" lon="-3.39016">
        <ele>11.65234375</ele>
      </trkpt>
      <trkpt lat="47.82752" lon="-3.38995">
        <ele>10.2890625</ele>
      </trkpt>
      <trkpt lat="47.82765" lon="-3.38986">
        <ele>10.38671875</ele>
      </trkpt>
      <trkpt lat="47.82771" lon="-3.38984">
        <ele>10.64453125</ele>
      </trkpt>
      <trkpt lat="47.82786" lon="-3.38986">
        <ele>11.93359375</ele>
      </trkpt>
      <trkpt lat="47.82799" lon="-3.3898">
        <ele>12.2421875</ele>
      </trkpt>
      <trkpt lat="47.8281" lon="-3.38973">
        <ele>12.3984375</ele>
      </trkpt>
      <trkpt lat="47.82843" lon="-3.38964">
        <ele>14.0390625</ele>
      </trkpt>
      <trkpt lat="47.82849" lon="-3.38963">
        <ele>14.4609375</ele>
      </trkpt>
      <trkpt lat="47.82887" lon="-3.38965">
        <ele>18.40625</ele>
      </trkpt>
      <trkpt lat="47.82907" lon="-3.3896">
        <ele>19.81640625</ele>
      </trkpt>
      <trkpt lat="47.82919" lon="-3.38952">
        <ele>20.12109375</ele>
      </trkpt>
      <trkpt lat="47.82962" lon="-3.38945">
        <ele>22.484375</ele>
      </trkpt>
      <trkpt lat="47.83007" lon="-3.3893">
        <ele>22.32421875</ele>
      </trkpt>
      <trkpt lat="47.83031" lon="-3.38933">
        <ele>21.1953125</ele>
      </trkpt>
      <trkpt lat="47.83052" lon="-3.38924">
        <ele>18.3984375</ele>
      </trkpt>
      <trkpt lat="47.83059" lon="-3.38905">
        <ele>14.8359375</ele>
      </trkpt>
      <trkpt lat="47.83074" lon="-3.38879">
        <ele>9.88671875</ele>
      </trkpt>
      <trkpt lat="47.83087" lon="-3.3886">
        <ele>9.16015625</ele>
      </trkpt>
      <trkpt lat="47.83123" lon="-3.38787">
        <ele>8.00390625</ele>
      </trkpt>
      <trkpt lat="47.8314" lon="-3.38767">
        <ele>8.7890625</ele>
      </trkpt>
      <trkpt lat="47.83158" lon="-3.38757">
        <ele>8.76171875</ele>
      </trkpt>
      <trkpt lat="47.83175" lon="-3.38754">
        <ele>8.9140625</ele>
      </trkpt>
      <trkpt lat="47.83188" lon="-3.38769">
        <ele>8.66015625</ele>
      </trkpt>
      <trkpt lat="47.83209" lon="-3.38802">
        <ele>7.671875</ele>
      </trkpt>
      <trkpt lat="47.83233" lon="-3.38851">
        <ele>7.28125</ele>
      </trkpt>
      <trkpt lat="47.83288" lon="-3.3895">
        <ele>7.1015625</ele>
      </trkpt>
      <trkpt lat="47.83306" lon="-3.38999">
        <ele>8.9375</ele>
      </trkpt>
      <trkpt lat="47.8334" lon="-3.39081">
        <ele>13.53515625</ele>
      </trkpt>
      <trkpt lat="47.83353" lon="-3.39113">
        <ele>14.8984375</ele>
      </trkpt>
      <trkpt lat="47.8337" lon="-3.39147">
        <ele>14.859375</ele>
      </trkpt>
      <trkpt lat="47.83381" lon="-3.39181">
        <ele>15.58984375</ele>
      </trkpt>
      <trkpt lat="47.83424" lon="-3.39274">
        <ele>13.3984375</ele>
      </trkpt>
      <trkpt lat="47.83428" lon="-3.39288">
        <ele>13.765625</ele>
      </trkpt>
      <trkpt lat="47.83434" lon="-3.3931">
        <ele>13.40625</ele>
      </trkpt>
      <trkpt lat="47.83441" lon="-3.39336">
        <ele>12.73046875</ele>
      </trkpt>
      <trkpt lat="47.83432" lon="-3.3934">
        <ele>13.84375</ele>
      </trkpt>
      <trkpt lat="47.83424" lon="-3.39349">
        <ele>15.02734375</ele>
      </trkpt>
      <trkpt lat="47.83424" lon="-3.39392">
        <ele>16.04296875</ele>
      </trkpt>
      <trkpt lat="47.83426" lon="-3.39415">
        <ele>16.89453125</ele>
      </trkpt>
      <trkpt lat="47.83434" lon="-3.39424">
        <ele>16.13671875</ele>
      </trkpt>
      <trkpt lat="47.83426" lon="-3.39478">
        <ele>20.63671875</ele>
      </trkpt>
      <trkpt lat="47.83409" lon="-3.39512">
        <ele>25.58203125</ele>
      </trkpt>
      <trkpt lat="47.83424" lon="-3.39501">
        <ele>22.94921875</ele>
      </trkpt>
      <trkpt lat="47.83441" lon="-3.39495">
        <ele>20.46875</ele>
      </trkpt>
      <trkpt lat="47.83449" lon="-3.39499">
        <ele>19.94140625</ele>
      </trkpt>
      <trkpt lat="47.83452" lon="-3.39508">
        <ele>20.58984375</ele>
      </trkpt>
      <trkpt lat="47.83447" lon="-3.39523">
        <ele>22.55078125</ele>
      </trkpt>
      <trkpt lat="47.83447" lon="-3.39546">
        <ele>24.74609375</ele>
      </trkpt>
      <trkpt lat="47.83452" lon="-3.39572">
        <ele>25.62109375</ele>
      </trkpt>
      <trkpt lat="47.83452" lon="-3.39591">
        <ele>26.54296875</ele>
      </trkpt>
      <trkpt lat="47.83454" lon="-3.39617">
        <ele>27.703125</ele>
      </trkpt>
      <trkpt lat="47.83462" lon="-3.39641">
        <ele>28.65234375</ele>
      </trkpt>
      <trkpt lat="47.83486" lon="-3.39669">
        <ele>30.03125</ele>
      </trkpt>
      <trkpt lat="47.83497" lon="-3.39679">
        <ele>30.76953125</ele>
      </trkpt>
      <trkpt lat="47.83514" lon="-3.39694">
        <ele>31.73828125</ele>
      </trkpt>
      <trkpt lat="47.8352" lon="-3.39711">
        <ele>32.6171875</ele>
      </trkpt>
      <trkpt lat="47.8352" lon="-3.39744">
        <ele>33.609375</ele>
      </trkpt>
      <trkpt lat="47.83533" lon="-3.39802">
        <ele>34.61328125</ele>
      </trkpt>
      <trkpt lat="47.83537" lon="-3.39842">
        <ele>34.92578125</ele>
      </trkpt>
      <trkpt lat="47.83537" lon="-3.39849">
        <ele>34.9765625</ele>
      </trkpt>
      <trkpt lat="47.83555" lon="-3.39898">
        <ele>34.31640625</ele>
      </trkpt>
      <trkpt lat="47.83576" lon="-3.39917">
        <ele>33.01171875</ele>
      </trkpt>
      <trkpt lat="47.83589" lon="-3.39898">
        <ele>32.8203125</ele>
      </trkpt>
      <trkpt lat="47.83597" lon="-3.39883">
        <ele>33.20703125</ele>
      </trkpt>
      <trkpt lat="47.836" lon="-3.39862">
        <ele>33.31640625</ele>
      </trkpt>
      <trkpt lat="47.83597" lon="-3.39834">
        <ele>33.1484375</ele>
      </trkpt>
      <trkpt lat="47.83582" lon="-3.39746">
        <ele>31.53515625</ele>
      </trkpt>
      <trkpt lat="47.83563" lon="-3.39626">
        <ele>29.13671875</ele>
      </trkpt>
      <trkpt lat="47.8356" lon="-3.39585">
        <ele>25.8984375</ele>
      </trkpt>
      <trkpt lat="47.83557" lon="-3.3955">
        <ele>23.18359375</ele>
      </trkpt>
      <trkpt lat="47.83561" lon="-3.39531">
        <ele>21.046875</ele>
      </trkpt>
      <trkpt lat="47.83574" lon="-3.39516">
        <ele>19.328125</ele>
      </trkpt>
      <trkpt lat="47.83623" lon="-3.39499">
        <ele>20.44921875</ele>
      </trkpt>
      <trkpt lat="47.83645" lon="-3.39484">
        <ele>19.359375</ele>
      </trkpt>
      <trkpt lat="47.83653" lon="-3.39469">
        <ele>16.9453125</ele>
      </trkpt>
      <trkpt lat="47.83658" lon="-3.39439">
        <ele>13.171875</ele>
      </trkpt>
      <trkpt lat="47.83655" lon="-3.39417">
        <ele>10.8671875</ele>
      </trkpt>
      <trkpt lat="47.83645" lon="-3.39368">
        <ele>6.7265625</ele>
      </trkpt>
      <trkpt lat="47.8364" lon="-3.3934">
        <ele>7.62890625</ele>
      </trkpt>
      <trkpt lat="47.83645" lon="-3.39338">
        <ele>7.80859375</ele>
      </trkpt>
      <trkpt lat="47.83679" lon="-3.39306">
        <ele>9.390625</ele>
      </trkpt>
      <trkpt lat="47.8371" lon="-3.3926">
        <ele>12.00390625</ele>
      </trkpt>
      <trkpt lat="47.8372" lon="-3.39246">
        <ele>13.37109375</ele>
      </trkpt>
      <trkpt lat="47.83735" lon="-3.39226">
        <ele>15.60546875</ele>
      </trkpt>
      <trkpt lat="47.83758" lon="-3.39209">
        <ele>17.8515625</ele>
      </trkpt>
      <trkpt lat="47.83791" lon="-3.3919">
        <ele>19.67578125</ele>
      </trkpt>
      <trkpt lat="47.83801" lon="-3.39186">
        <ele>20.171875</ele>
      </trkpt>
      <trkpt lat="47.83846" lon="-3.39173">
        <ele>21.8828125</ele>
      </trkpt>
      <trkpt lat="47.83861" lon="-3.39164">
        <ele>23.125</ele>
      </trkpt>
      <trkpt lat="47.83881" lon="-3.39143">
        <ele>26.48046875</ele>
      </trkpt>
      <trkpt lat="47.83894" lon="-3.39139">
        <ele>26.828125</ele>
      </trkpt>
      <trkpt lat="47.83904" lon="-3.39139">
        <ele>26.48046875</ele>
      </trkpt>
      <trkpt lat="47.83932" lon="-3.39128">
        <ele>27.65625</ele>
      </trkpt>
      <trkpt lat="47.83956" lon="-3.39115">
        <ele>29.39453125</ele>
      </trkpt>
      <trkpt lat="47.84003" lon="-3.39102">
        <ele>30.87109375</ele>
      </trkpt>
      <trkpt lat="47.84029" lon="-3.39081">
        <ele>34.09765625</ele>
      </trkpt>
      <trkpt lat="47.84037" lon="-3.39048">
        <ele>38.09765625</ele>
      </trkpt>
      <trkpt lat="47.84035" lon="-3.39029">
        <ele>39.28125</ele>
      </trkpt>
      <trkpt lat="47.84033" lon="-3.38999">
        <ele>40.33984375</ele>
      </trkpt>
      <trkpt lat="47.84035" lon="-3.38984">
        <ele>40.796875</ele>
      </trkpt>
      <trkpt lat="47.84039" lon="-3.38969">
        <ele>41.23828125</ele>
      </trkpt>
      <trkpt lat="47.84072" lon="-3.38924">
        <ele>42.76171875</ele>
      </trkpt>
      <trkpt lat="47.841" lon="-3.38978">
        <ele>40.859375</ele>
      </trkpt>
      <trkpt lat="47.84121" lon="-3.38995">
        <ele>41.0625</ele>
      </trkpt>
      <trkpt lat="47.84142" lon="-3.39005">
        <ele>41.578125</ele>
      </trkpt>
      <trkpt lat="47.84181" lon="-3.39009">
        <ele>42.62109375</ele>
      </trkpt>
      <trkpt lat="47.84194" lon="-3.3901">
        <ele>42.5</ele>
      </trkpt>
      <trkpt lat="47.84256" lon="-3.39025">
        <ele>40.64453125</ele>
      </trkpt>
      <trkpt lat="47.84338" lon="-3.39031">
        <ele>37.57421875</ele>
      </trkpt>
      <trkpt lat="47.84398" lon="-3.39033">
        <ele>34.01171875</ele>
      </trkpt>
      <trkpt lat="47.84436" lon="-3.39018">
        <ele>30.69140625</ele>
      </trkpt>
      <trkpt lat="47.84445" lon="-3.39023">
        <ele>28.59375</ele>
      </trkpt>
      <trkpt lat="47.84449" lon="-3.39036">
        <ele>26.22265625</ele>
      </trkpt>
      <trkpt lat="47.84464" lon="-3.39025">
        <ele>24.5859375</ele>
      </trkpt>
      <trkpt lat="47.84464" lon="-3.39014">
        <ele>26.05859375</ele>
      </trkpt>
      <trkpt lat="47.84477" lon="-3.39003">
        <ele>25.34765625</ele>
      </trkpt>
      <trkpt lat="47.84499" lon="-3.38999">
        <ele>22.4609375</ele>
      </trkpt>
      <trkpt lat="47.84516" lon="-3.39003">
        <ele>19.3515625</ele>
      </trkpt>
      <trkpt lat="47.84527" lon="-3.39008">
        <ele>17.3046875</ele>
      </trkpt>
      <trkpt lat="47.84497" lon="-3.39025">
        <ele>18.32421875</ele>
      </trkpt>
      <trkpt lat="47.84484" lon="-3.39042">
        <ele>18.08984375</ele>
      </trkpt>
      <trkpt lat="47.84482" lon="-3.39057">
        <ele>17.2265625</ele>
      </trkpt>
      <trkpt lat="47.84482" lon="-3.39061">
        <ele>16.87890625</ele>
      </trkpt>
      <trkpt lat="47.84492" lon="-3.39078">
        <ele>13.3359375</ele>
      </trkpt>
      <trkpt lat="47.84497" lon="-3.39089">
        <ele>11.6796875</ele>
      </trkpt>
      <trkpt lat="47.84501" lon="-3.39102">
        <ele>9.90625</ele>
      </trkpt>
      <trkpt lat="47.84514" lon="-3.39145">
        <ele>8.296875</ele>
      </trkpt>
      <trkpt lat="47.84527" lon="-3.39188">
        <ele>9.98046875</ele>
      </trkpt>
      <trkpt lat="47.84621" lon="-3.39269">
        <ele>20.55078125</ele>
      </trkpt>
      <trkpt lat="47.8463" lon="-3.39293">
        <ele>23.58203125</ele>
      </trkpt>
      <trkpt lat="47.84668" lon="-3.39323">
        <ele>28.5546875</ele>
      </trkpt>
      <trkpt lat="47.84683" lon="-3.39398">
        <ele>33.7890625</ele>
      </trkpt>
      <trkpt lat="47.84694" lon="-3.39426">
        <ele>34.23828125</ele>
      </trkpt>
      <trkpt lat="47.84718" lon="-3.39488">
        <ele>36.86328125</ele>
      </trkpt>
      <trkpt lat="47.84754" lon="-3.39538">
        <ele>38.703125</ele>
      </trkpt>
      <trkpt lat="47.8481" lon="-3.39686">
        <ele>36.6875</ele>
      </trkpt>
      <trkpt lat="47.84812" lon="-3.39772">
        <ele>42.34765625</ele>
      </trkpt>
      <trkpt lat="47.84823" lon="-3.3984">
        <ele>44.17578125</ele>
      </trkpt>
      <trkpt lat="47.84853" lon="-3.39859">
        <ele>42.7265625</ele>
      </trkpt>
      <trkpt lat="47.84859" lon="-3.39913">
        <ele>43.27734375</ele>
      </trkpt>
      <trkpt lat="47.84883" lon="-3.39945">
        <ele>43</ele>
      </trkpt>
      <trkpt lat="47.84941" lon="-3.39842">
        <ele>28.8359375</ele>
      </trkpt>
      <trkpt lat="47.84956" lon="-3.39829">
        <ele>24.0078125</ele>
      </trkpt>
      <trkpt lat="47.84986" lon="-3.39851">
        <ele>19.72265625</ele>
      </trkpt>
      <trkpt lat="47.85003" lon="-3.39868">
        <ele>17.94921875</ele>
      </trkpt>
      <trkpt lat="47.85009" lon="-3.39879">
        <ele>18.5546875</ele>
      </trkpt>
      <trkpt lat="47.85078" lon="-3.39984">
        <ele>22.75390625</ele>
      </trkpt>
      <trkpt lat="47.85183" lon="-3.40073">
        <ele>19.29296875</ele>
      </trkpt>
      <trkpt lat="47.8526" lon="-3.40138">
        <ele>21.0390625</ele>
      </trkpt>
      <trkpt lat="47.85318" lon="-3.40173">
        <ele>22.42578125</ele>
      </trkpt>
      <trkpt lat="47.85368" lon="-3.40186">
        <ele>20.515625</ele>
      </trkpt>
      <trkpt lat="47.85451" lon="-3.4019">
        <ele>15.60546875</ele>
      </trkpt>
      <trkpt lat="47.85531" lon="-3.40196">
        <ele>17.453125</ele>
      </trkpt>
      <trkpt lat="47.85602" lon="-3.40199">
        <ele>22.03125</ele>
      </trkpt>
      <trkpt lat="47.85638" lon="-3.4019">
        <ele>21.5078125</ele>
      </trkpt>
      <trkpt lat="47.85645" lon="-3.4019">
        <ele>21.60546875</ele>
      </trkpt>
      <trkpt lat="47.85752" lon="-3.40194">
        <ele>24.8359375</ele>
      </trkpt>
      <trkpt lat="47.85765" lon="-3.40183">
        <ele>23.44921875</ele>
      </trkpt>
      <trkpt lat="47.85857" lon="-3.40162">
        <ele>21.57421875</ele>
      </trkpt>
      <trkpt lat="47.85878" lon="-3.40166">
        <ele>23.37890625</ele>
      </trkpt>
      <trkpt lat="47.85898" lon="-3.4016">
        <ele>23.1484375</ele>
      </trkpt>
      <trkpt lat="47.8593" lon="-3.40126">
        <ele>19.03125</ele>
      </trkpt>
      <trkpt lat="47.85954" lon="-3.4007">
        <ele>17.75</ele>
      </trkpt>
      <trkpt lat="47.85981" lon="-3.39988">
        <ele>16.98828125</ele>
      </trkpt>
      <trkpt lat="47.86016" lon="-3.39937">
        <ele>15.4140625</ele>
      </trkpt>
      <trkpt lat="47.86035" lon="-3.39917">
        <ele>15.8984375</ele>
      </trkpt>
      <trkpt lat="47.86114" lon="-3.39834">
        <ele>12.625</ele>
      </trkpt>
      <trkpt lat="47.86151" lon="-3.39823">
        <ele>11.96875</ele>
      </trkpt>
      <trkpt lat="47.86175" lon="-3.39847">
        <ele>12.3828125</ele>
      </trkpt>
      <trkpt lat="47.86181" lon="-3.39851">
        <ele>12.54296875</ele>
      </trkpt>
      <trkpt lat="47.86192" lon="-3.39855">
        <ele>12.71875</ele>
      </trkpt>
      <trkpt lat="47.86215" lon="-3.39834">
        <ele>12.86328125</ele>
      </trkpt>
      <trkpt lat="47.86247" lon="-3.3981">
        <ele>13.7109375</ele>
      </trkpt>
      <trkpt lat="47.86265" lon="-3.39791">
        <ele>14.3515625</ele>
      </trkpt>
      <trkpt lat="47.86275" lon="-3.39795">
        <ele>14.54296875</ele>
      </trkpt>
      <trkpt lat="47.86301" lon="-3.3981">
        <ele>14.5078125</ele>
      </trkpt>
      <trkpt lat="47.86314" lon="-3.39827">
        <ele>13.85546875</ele>
      </trkpt>
      <trkpt lat="47.86318" lon="-3.39836">
        <ele>13.43359375</ele>
      </trkpt>
      <trkpt lat="47.86366" lon="-3.39917">
        <ele>13.1171875</ele>
      </trkpt>
      <trkpt lat="47.86411" lon="-3.40033">
        <ele>14.85546875</ele>
      </trkpt>
      <trkpt lat="47.86426" lon="-3.40121">
        <ele>21.5703125</ele>
      </trkpt>
      <trkpt lat="47.86447" lon="-3.40175">
        <ele>22.11328125</ele>
      </trkpt>
      <trkpt lat="47.86486" lon="-3.4025">
        <ele>24.41796875</ele>
      </trkpt>
      <trkpt lat="47.86584" lon="-3.40383">
        <ele>30.25390625</ele>
      </trkpt>
      <trkpt lat="47.86644" lon="-3.40437">
        <ele>29.96484375</ele>
      </trkpt>
      <trkpt lat="47.86674" lon="-3.40432">
        <ele>24.6171875</ele>
      </trkpt>
      <trkpt lat="47.86786" lon="-3.40424">
        <ele>14.8828125</ele>
      </trkpt>
      <trkpt lat="47.86865" lon="-3.40381">
        <ele>13.6328125</ele>
      </trkpt>
      <trkpt lat="47.86888" lon="-3.40383">
        <ele>13.5</ele>
      </trkpt>
      <trkpt lat="47.86893" lon="-3.40383">
        <ele>13.4765625</ele>
      </trkpt>
      <trkpt lat="47.87127" lon="-3.40332">
        <ele>11.5</ele>
      </trkpt>
      <trkpt lat="47.87125" lon="-3.4031">
        <ele>11.5</ele>
      </trkpt>
      <trkpt lat="47.87213" lon="-3.4025">
        <ele>14.49609375</ele>
      </trkpt>
      <trkpt lat="47.87267" lon="-3.40233">
        <ele>14.4296875</ele>
      </trkpt>
      <trkpt lat="47.87327" lon="-3.40171">
        <ele>17.0859375</ele>
      </trkpt>
      <trkpt lat="47.87363" lon="-3.40164">
        <ele>15.90234375</ele>
      </trkpt>
      <trkpt lat="47.87395" lon="-3.40181">
        <ele>14.41796875</ele>
      </trkpt>
      <trkpt lat="47.87413" lon="-3.40194">
        <ele>14.453125</ele>
      </trkpt>
      <trkpt lat="47.87468" lon="-3.40218">
        <ele>15.515625</ele>
      </trkpt>
      <trkpt lat="47.87475" lon="-3.40201">
        <ele>13.8359375</ele>
      </trkpt>
      <trkpt lat="47.87589" lon="-3.40216">
        <ele>13.4296875</ele>
      </trkpt>
      <trkpt lat="47.8758" lon="-3.40269">
        <ele>18.203125</ele>
      </trkpt>
      <trkpt lat="47.87669" lon="-3.40297">
        <ele>25.43359375</ele>
      </trkpt>
      <trkpt lat="47.87735" lon="-3.40317">
        <ele>26.1015625</ele>
      </trkpt>
      <trkpt lat="47.87956" lon="-3.40389">
        <ele>29.9921875</ele>
      </trkpt>
      <trkpt lat="47.88035" lon="-3.40409">
        <ele>33.42578125</ele>
      </trkpt>
      <trkpt lat="47.88144" lon="-3.40402">
        <ele>30.15625</ele>
      </trkpt>
      <trkpt lat="47.88183" lon="-3.40385">
        <ele>24.1015625</ele>
      </trkpt>
      <trkpt lat="47.8823" lon="-3.40312">
        <ele>20.703125</ele>
      </trkpt>
      <trkpt lat="47.88331" lon="-3.40252">
        <ele>22.9609375</ele>
      </trkpt>
      <trkpt lat="47.88415" lon="-3.40263">
        <ele>18.546875</ele>
      </trkpt>
      <trkpt lat="47.88428" lon="-3.40286">
        <ele>16.35546875</ele>
      </trkpt>
      <trkpt lat="47.88453" lon="-3.40282">
        <ele>16.31640625</ele>
      </trkpt>
      <trkpt lat="47.88483" lon="-3.40248">
        <ele>18.08203125</ele>
      </trkpt>
      <trkpt lat="47.88526" lon="-3.40261">
        <ele>17.16796875</ele>
      </trkpt>
      <trkpt lat="47.88616" lon="-3.40269">
        <ele>18.171875</ele>
      </trkpt>
      <trkpt lat="47.88629" lon="-3.4028">
        <ele>17.21875</ele>
      </trkpt>
      <trkpt lat="47.88644" lon="-3.40282">
        <ele>17.27734375</ele>
      </trkpt>
      <trkpt lat="47.88657" lon="-3.40271">
        <ele>19.28125</ele>
      </trkpt>
      <trkpt lat="47.88685" lon="-3.40276">
        <ele>19.40234375</ele>
      </trkpt>
      <trkpt lat="47.88795" lon="-3.40308">
        <ele>20.63671875</ele>
      </trkpt>
      <trkpt lat="47.88994" lon="-3.40385">
        <ele>20.9296875</ele>
      </trkpt>
      <trkpt lat="47.89112" lon="-3.40477">
        <ele>27.83203125</ele>
      </trkpt>
      <trkpt lat="47.89157" lon="-3.40505">
        <ele>31.55078125</ele>
      </trkpt>
      <trkpt lat="47.89191" lon="-3.40518">
        <ele>31.04296875</ele>
      </trkpt>
      <trkpt lat="47.89243" lon="-3.40542">
        <ele>26.6875</ele>
      </trkpt>
      <trkpt lat="47.89297" lon="-3.40557">
        <ele>25.85546875</ele>
      </trkpt>
      <trkpt lat="47.89322" lon="-3.40559">
        <ele>24.57421875</ele>
      </trkpt>
      <trkpt lat="47.89352" lon="-3.40555">
        <ele>22.68359375</ele>
      </trkpt>
      <trkpt lat="47.89436" lon="-3.40617">
        <ele>21.40625</ele>
      </trkpt>
      <trkpt lat="47.89456" lon="-3.40646">
        <ele>21.63671875</ele>
      </trkpt>
      <trkpt lat="47.89464" lon="-3.40635">
        <ele>20.63671875</ele>
      </trkpt>
      <trkpt lat="47.89456" lon="-3.40646">
        <ele>21.63671875</ele>
      </trkpt>
      <trkpt lat="47.89475" lon="-3.40673">
        <ele>21.05859375</ele>
      </trkpt>
      <trkpt lat="47.89455" lon="-3.40722">
        <ele>26.41796875</ele>
      </trkpt>
      <trkpt lat="47.89494" lon="-3.40769">
        <ele>23.19921875</ele>
      </trkpt>
      <trkpt lat="47.89505" lon="-3.40808">
        <ele>24.3984375</ele>
      </trkpt>
      <trkpt lat="47.89518" lon="-3.40855">
        <ele>27.07421875</ele>
      </trkpt>
      <trkpt lat="47.89513" lon="-3.40874">
        <ele>28.00390625</ele>
      </trkpt>
      <trkpt lat="47.89507" lon="-3.40896">
        <ele>28.2421875</ele>
      </trkpt>
      <trkpt lat="47.89496" lon="-3.40917">
        <ele>28.46875</ele>
      </trkpt>
      <trkpt lat="47.89443" lon="-3.40999">
        <ele>37.1328125</ele>
      </trkpt>
      <trkpt lat="47.89434" lon="-3.4102">
        <ele>36.953125</ele>
      </trkpt>
      <trkpt lat="47.89428" lon="-3.41042">
        <ele>36.13671875</ele>
      </trkpt>
      <trkpt lat="47.89423" lon="-3.41063">
        <ele>36.03515625</ele>
      </trkpt>
      <trkpt lat="47.89417" lon="-3.41106">
        <ele>35.421875</ele>
      </trkpt>
      <trkpt lat="47.89416" lon="-3.41188">
        <ele>37.9765625</ele>
      </trkpt>
      <trkpt lat="47.89415" lon="-3.41355">
        <ele>44.59375</ele>
      </trkpt>
      <trkpt lat="47.89412" lon="-3.41385">
        <ele>45.37890625</ele>
      </trkpt>
      <trkpt lat="47.8941" lon="-3.41404">
        <ele>45.65625</ele>
      </trkpt>
      <trkpt lat="47.89402" lon="-3.41432">
        <ele>46.7109375</ele>
      </trkpt>
      <trkpt lat="47.89389" lon="-3.41458">
        <ele>48.16015625</ele>
      </trkpt>
      <trkpt lat="47.8938" lon="-3.41471">
        <ele>49.1484375</ele>
      </trkpt>
      <trkpt lat="47.89333" lon="-3.4154">
        <ele>52.953125</ele>
      </trkpt>
      <trkpt lat="47.89198" lon="-3.41746">
        <ele>53.3671875</ele>
      </trkpt>
      <trkpt lat="47.89365" lon="-3.42018">
        <ele>56.38671875</ele>
      </trkpt>
      <trkpt lat="47.89385" lon="-3.42063">
        <ele>58.26171875</ele>
      </trkpt>
      <trkpt lat="47.894" lon="-3.42117">
        <ele>59.9453125</ele>
      </trkpt>
      <trkpt lat="47.89404" lon="-3.42158">
        <ele>61.05078125</ele>
      </trkpt>
      <trkpt lat="47.8941" lon="-3.42376">
        <ele>62.69140625</ele>
      </trkpt>
      <trkpt lat="47.8943" lon="-3.42505">
        <ele>65.13671875</ele>
      </trkpt>
      <trkpt lat="47.89449" lon="-3.42613">
        <ele>69.390625</ele>
      </trkpt>
      <trkpt lat="47.8944" lon="-3.42615">
        <ele>69.0078125</ele>
      </trkpt>
      <trkpt lat="47.89415" lon="-3.4261">
        <ele>67.65625</ele>
      </trkpt>
      <trkpt lat="47.89382" lon="-3.42602">
        <ele>67.59765625</ele>
      </trkpt>
      <trkpt lat="47.89112" lon="-3.42516">
        <ele>59.63671875</ele>
      </trkpt>
      <trkpt lat="47.89084" lon="-3.4251">
        <ele>57.19140625</ele>
      </trkpt>
      <trkpt lat="47.89063" lon="-3.42507">
        <ele>55.1015625</ele>
      </trkpt>
      <trkpt lat="47.89058" lon="-3.42503">
        <ele>54.7109375</ele>
      </trkpt>
      <trkpt lat="47.89033" lon="-3.42447">
        <ele>52.72265625</ele>
      </trkpt>
      <trkpt lat="47.89022" lon="-3.42426">
        <ele>51.5625</ele>
      </trkpt>
      <trkpt lat="47.89009" lon="-3.42409">
        <ele>50.27734375</ele>
      </trkpt>
      <trkpt lat="47.88994" lon="-3.42391">
        <ele>48.86328125</ele>
      </trkpt>
      <trkpt lat="47.88979" lon="-3.42379">
        <ele>47.625</ele>
      </trkpt>
      <trkpt lat="47.88968" lon="-3.42372">
        <ele>46.81640625</ele>
      </trkpt>
      <trkpt lat="47.8896" lon="-3.42368">
        <ele>46.2265625</ele>
      </trkpt>
      <trkpt lat="47.8882" lon="-3.42306">
        <ele>40.02734375</ele>
      </trkpt>
      <trkpt lat="47.88758" lon="-3.42282">
        <ele>39.109375</ele>
      </trkpt>
      <trkpt lat="47.88703" lon="-3.42263">
        <ele>37.89453125</ele>
      </trkpt>
      <trkpt lat="47.88677" lon="-3.42254">
        <ele>37.26171875</ele>
      </trkpt>
      <trkpt lat="47.88655" lon="-3.42246">
        <ele>36.88671875</ele>
      </trkpt>
      <trkpt lat="47.88638" lon="-3.42233">
        <ele>36.8046875</ele>
      </trkpt>
      <trkpt lat="47.88625" lon="-3.42222">
        <ele>36.83984375</ele>
      </trkpt>
      <trkpt lat="47.88608" lon="-3.42203">
        <ele>37.02734375</ele>
      </trkpt>
      <trkpt lat="47.88586" lon="-3.42185">
        <ele>37.24609375</ele>
      </trkpt>
      <trkpt lat="47.88561" lon="-3.42168">
        <ele>38</ele>
      </trkpt>
      <trkpt lat="47.88415" lon="-3.42076">
        <ele>40.3125</ele>
      </trkpt>
      <trkpt lat="47.88389" lon="-3.4217">
        <ele>47.296875</ele>
      </trkpt>
      <trkpt lat="47.88359" lon="-3.42188">
        <ele>52.01953125</ele>
      </trkpt>
      <trkpt lat="47.88322" lon="-3.42188">
        <ele>55.39453125</ele>
      </trkpt>
      <trkpt lat="47.88301" lon="-3.42529">
        <ele>70.90625</ele>
      </trkpt>
      <trkpt lat="47.88277" lon="-3.4263">
        <ele>70.94140625</ele>
      </trkpt>
      <trkpt lat="47.88276" lon="-3.4274">
        <ele>70.4921875</ele>
      </trkpt>
      <trkpt lat="47.88275" lon="-3.42866">
        <ele>74.88671875</ele>
      </trkpt>
      <trkpt lat="47.88219" lon="-3.42896">
        <ele>73.9921875</ele>
      </trkpt>
      <trkpt lat="47.88162" lon="-3.42915">
        <ele>71.22265625</ele>
      </trkpt>
      <trkpt lat="47.88114" lon="-3.42906">
        <ele>68.140625</ele>
      </trkpt>
      <trkpt lat="47.88061" lon="-3.4296">
        <ele>66.4140625</ele>
      </trkpt>
      <trkpt lat="47.88054" lon="-3.43119">
        <ele>67.20703125</ele>
      </trkpt>
      <trkpt lat="47.88046" lon="-3.43138">
        <ele>66.9453125</ele>
      </trkpt>
      <trkpt lat="47.87981" lon="-3.43173">
        <ele>66.0546875</ele>
      </trkpt>
      <trkpt lat="47.87966" lon="-3.43181">
        <ele>67.33984375</ele>
      </trkpt>
      <trkpt lat="47.8793" lon="-3.43185">
        <ele>70.36328125</ele>
      </trkpt>
      <trkpt lat="47.87891" lon="-3.43185">
        <ele>72.2890625</ele>
      </trkpt>
      <trkpt lat="47.87889" lon="-3.4323">
        <ele>73.25</ele>
      </trkpt>
      <trkpt lat="47.87915" lon="-3.43235">
        <ele>72.375</ele>
      </trkpt>
      <trkpt lat="47.87919" lon="-3.43282">
        <ele>72.67578125</ele>
      </trkpt>
      <trkpt lat="47.87917" lon="-3.43331">
        <ele>73.4375</ele>
      </trkpt>
      <trkpt lat="47.87913" lon="-3.43344">
        <ele>73.73828125</ele>
      </trkpt>
      <trkpt lat="47.87893" lon="-3.4334">
        <ele>74.25</ele>
      </trkpt>
      <trkpt lat="47.8787" lon="-3.43333">
        <ele>74.8984375</ele>
      </trkpt>
      <trkpt lat="47.87838" lon="-3.43301">
        <ele>75.83984375</ele>
      </trkpt>
      <trkpt lat="47.8782" lon="-3.43286">
        <ele>75.796875</ele>
      </trkpt>
      <trkpt lat="47.87769" lon="-3.43396">
        <ele>75.23046875</ele>
      </trkpt>
      <trkpt lat="47.87738" lon="-3.43507">
        <ele>73.87890625</ele>
      </trkpt>
      <trkpt lat="47.877" lon="-3.43645">
        <ele>72.203125</ele>
      </trkpt>
      <trkpt lat="47.87683" lon="-3.43696">
        <ele>72.34765625</ele>
      </trkpt>
      <trkpt lat="47.87666" lon="-3.43668">
        <ele>71.98046875</ele>
      </trkpt>
      <trkpt lat="47.87659" lon="-3.43651">
        <ele>71.64453125</ele>
      </trkpt>
      <trkpt lat="47.87642" lon="-3.43602">
        <ele>70.3671875</ele>
      </trkpt>
      <trkpt lat="47.87636" lon="-3.43574">
        <ele>69.7890625</ele>
      </trkpt>
      <trkpt lat="47.87632" lon="-3.43539">
        <ele>69.328125</ele>
      </trkpt>
      <trkpt lat="47.87629" lon="-3.43424">
        <ele>68.52734375</ele>
      </trkpt>
      <trkpt lat="47.87625" lon="-3.43316">
        <ele>67.5234375</ele>
      </trkpt>
      <trkpt lat="47.87619" lon="-3.4307">
        <ele>62.7734375</ele>
      </trkpt>
      <trkpt lat="47.87612" lon="-3.43003">
        <ele>62.34765625</ele>
      </trkpt>
      <trkpt lat="47.87599" lon="-3.42941">
        <ele>62.921875</ele>
      </trkpt>
      <trkpt lat="47.87574" lon="-3.42859">
        <ele>64.59765625</ele>
      </trkpt>
      <trkpt lat="47.87546" lon="-3.42765">
        <ele>63.140625</ele>
      </trkpt>
      <trkpt lat="47.87535" lon="-3.42703">
        <ele>62.25390625</ele>
      </trkpt>
      <trkpt lat="47.8752" lon="-3.42595">
        <ele>65.1328125</ele>
      </trkpt>
      <trkpt lat="47.87492" lon="-3.42591">
        <ele>64.51953125</ele>
      </trkpt>
      <trkpt lat="47.87408" lon="-3.4257">
        <ele>64.03125</ele>
      </trkpt>
      <trkpt lat="47.87378" lon="-3.4257">
        <ele>61.75</ele>
      </trkpt>
      <trkpt lat="47.87372" lon="-3.42574">
        <ele>61.109375</ele>
      </trkpt>
      <trkpt lat="47.87368" lon="-3.4258">
        <ele>60.5703125</ele>
      </trkpt>
      <trkpt lat="47.87355" lon="-3.42602">
        <ele>58.984375</ele>
      </trkpt>
      <trkpt lat="47.87348" lon="-3.42606">
        <ele>58.43359375</ele>
      </trkpt>
      <trkpt lat="47.8734" lon="-3.42606">
        <ele>57.875</ele>
      </trkpt>
      <trkpt lat="47.87327" lon="-3.42604">
        <ele>56.47265625</ele>
      </trkpt>
      <trkpt lat="47.87308" lon="-3.42595">
        <ele>53.61328125</ele>
      </trkpt>
      <trkpt lat="47.87271" lon="-3.42587">
        <ele>48.1484375</ele>
      </trkpt>
      <trkpt lat="47.87237" lon="-3.42576">
        <ele>44.19921875</ele>
      </trkpt>
      <trkpt lat="47.87205" lon="-3.4257">
        <ele>41.65625</ele>
      </trkpt>
      <trkpt lat="47.87198" lon="-3.42572">
        <ele>41.01953125</ele>
      </trkpt>
      <trkpt lat="47.87194" lon="-3.42574">
        <ele>40.578125</ele>
      </trkpt>
      <trkpt lat="47.87187" lon="-3.42578">
        <ele>39.890625</ele>
      </trkpt>
      <trkpt lat="47.87184" lon="-3.42598">
        <ele>39.0234375</ele>
      </trkpt>
      <trkpt lat="47.87172" lon="-3.42668">
        <ele>36.85546875</ele>
      </trkpt>
      <trkpt lat="47.8717" lon="-3.4269">
        <ele>36.4453125</ele>
      </trkpt>
      <trkpt lat="47.8717" lon="-3.42718">
        <ele>36.4609375</ele>
      </trkpt>
      <trkpt lat="47.87168" lon="-3.42733">
        <ele>36.6953125</ele>
      </trkpt>
      <trkpt lat="47.87112" lon="-3.42816">
        <ele>38.1953125</ele>
      </trkpt>
      <trkpt lat="47.87108" lon="-3.42844">
        <ele>39.8515625</ele>
      </trkpt>
      <trkpt lat="47.87104" lon="-3.42887">
        <ele>42.640625</ele>
      </trkpt>
      <trkpt lat="47.87099" lon="-3.4302">
        <ele>49.65625</ele>
      </trkpt>
      <trkpt lat="47.87095" lon="-3.43057">
        <ele>50.8046875</ele>
      </trkpt>
      <trkpt lat="47.87091" lon="-3.43082">
        <ele>51.5078125</ele>
      </trkpt>
      <trkpt lat="47.87086" lon="-3.43185">
        <ele>51.05859375</ele>
      </trkpt>
      <trkpt lat="47.87082" lon="-3.43222">
        <ele>50.8984375</ele>
      </trkpt>
      <trkpt lat="47.87071" lon="-3.43286">
        <ele>51.03125</ele>
      </trkpt>
      <trkpt lat="47.87067" lon="-3.43389">
        <ele>54.453125</ele>
      </trkpt>
      <trkpt lat="47.87065" lon="-3.43409">
        <ele>54.9609375</ele>
      </trkpt>
      <trkpt lat="47.87059" lon="-3.43432">
        <ele>55.7578125</ele>
      </trkpt>
      <trkpt lat="47.87052" lon="-3.43447">
        <ele>56.33984375</ele>
      </trkpt>
      <trkpt lat="47.87039" lon="-3.43473">
        <ele>57.30078125</ele>
      </trkpt>
      <trkpt lat="47.86784" lon="-3.43919">
        <ele>73.4140625</ele>
      </trkpt>
      <trkpt lat="47.86773" lon="-3.43943">
        <ele>72.58984375</ele>
      </trkpt>
      <trkpt lat="47.86767" lon="-3.43962">
        <ele>72.015625</ele>
      </trkpt>
      <trkpt lat="47.86731" lon="-3.44174">
        <ele>68.76953125</ele>
      </trkpt>
      <trkpt lat="47.86717" lon="-3.44254">
        <ele>69.39453125</ele>
      </trkpt>
      <trkpt lat="47.86687" lon="-3.44458">
        <ele>69.7421875</ele>
      </trkpt>
      <trkpt lat="47.86679" lon="-3.44505">
        <ele>69.27734375</ele>
      </trkpt>
      <trkpt lat="47.86666" lon="-3.44499">
        <ele>69.4765625</ele>
      </trkpt>
      <trkpt lat="47.86643" lon="-3.44593">
        <ele>68.43359375</ele>
      </trkpt>
      <trkpt lat="47.86623" lon="-3.44677">
        <ele>68.28515625</ele>
      </trkpt>
      <trkpt lat="47.8661" lon="-3.44707">
        <ele>68.31640625</ele>
      </trkpt>
      <trkpt lat="47.86597" lon="-3.44722">
        <ele>67.98046875</ele>
      </trkpt>
      <trkpt lat="47.86565" lon="-3.44745">
        <ele>66.62890625</ele>
      </trkpt>
      <trkpt lat="47.86552" lon="-3.44758">
        <ele>65.96484375</ele>
      </trkpt>
      <trkpt lat="47.8655" lon="-3.44763">
        <ele>65.85546875</ele>
      </trkpt>
      <trkpt lat="47.86546" lon="-3.44769">
        <ele>65.66015625</ele>
      </trkpt>
      <trkpt lat="47.86541" lon="-3.44778">
        <ele>65.48046875</ele>
      </trkpt>
      <trkpt lat="47.86535" lon="-3.44793">
        <ele>65.2890625</ele>
      </trkpt>
      <trkpt lat="47.86531" lon="-3.44814">
        <ele>65.46484375</ele>
      </trkpt>
      <trkpt lat="47.86529" lon="-3.44836">
        <ele>65.7421875</ele>
      </trkpt>
      <trkpt lat="47.8652" lon="-3.4493">
        <ele>66.59375</ele>
      </trkpt>
      <trkpt lat="47.86516" lon="-3.44956">
        <ele>66.80859375</ele>
      </trkpt>
      <trkpt lat="47.86507" lon="-3.44975">
        <ele>66.91796875</ele>
      </trkpt>
      <trkpt lat="47.86496" lon="-3.44992">
        <ele>66.83984375</ele>
      </trkpt>
      <trkpt lat="47.86484" lon="-3.45009">
        <ele>66.26953125</ele>
      </trkpt>
      <trkpt lat="47.86466" lon="-3.45022">
        <ele>65.45703125</ele>
      </trkpt>
      <trkpt lat="47.8646" lon="-3.45026">
        <ele>65.13671875</ele>
      </trkpt>
      <trkpt lat="47.86453" lon="-3.45029">
        <ele>64.828125</ele>
      </trkpt>
      <trkpt lat="47.86443" lon="-3.45031">
        <ele>64.3125</ele>
      </trkpt>
      <trkpt lat="47.86421" lon="-3.45031">
        <ele>63.30859375</ele>
      </trkpt>
      <trkpt lat="47.86398" lon="-3.45037">
        <ele>62.328125</ele>
      </trkpt>
      <trkpt lat="47.86387" lon="-3.45046">
        <ele>61.7734375</ele>
      </trkpt>
      <trkpt lat="47.86378" lon="-3.45054">
        <ele>61.2578125</ele>
      </trkpt>
      <trkpt lat="47.86372" lon="-3.45065">
        <ele>60.76953125</ele>
      </trkpt>
      <trkpt lat="47.8632" lon="-3.45181">
        <ele>56.2421875</ele>
      </trkpt>
      <trkpt lat="47.86293" lon="-3.45211">
        <ele>55.0390625</ele>
      </trkpt>
      <trkpt lat="47.8626" lon="-3.45252">
        <ele>55.13671875</ele>
      </trkpt>
      <trkpt lat="47.862" lon="-3.45398">
        <ele>57.52734375</ele>
      </trkpt>
      <trkpt lat="47.86196" lon="-3.45413">
        <ele>57.78125</ele>
      </trkpt>
      <trkpt lat="47.86155" lon="-3.45537">
        <ele>61.4140625</ele>
      </trkpt>
      <trkpt lat="47.86142" lon="-3.45576">
        <ele>63.390625</ele>
      </trkpt>
      <trkpt lat="47.86125" lon="-3.45625">
        <ele>64.99609375</ele>
      </trkpt>
      <trkpt lat="47.86121" lon="-3.45644">
        <ele>65.015625</ele>
      </trkpt>
      <trkpt lat="47.86121" lon="-3.45705">
        <ele>64.1328125</ele>
      </trkpt>
      <trkpt lat="47.86117" lon="-3.45745">
        <ele>64.02734375</ele>
      </trkpt>
      <trkpt lat="47.86112" lon="-3.45775">
        <ele>64.03125</ele>
      </trkpt>
      <trkpt lat="47.86104" lon="-3.45825">
        <ele>64.38671875</ele>
      </trkpt>
      <trkpt lat="47.86091" lon="-3.45855">
        <ele>64.81640625</ele>
      </trkpt>
      <trkpt lat="47.86067" lon="-3.459">
        <ele>66.05859375</ele>
      </trkpt>
      <trkpt lat="47.86048" lon="-3.45926">
        <ele>67.0859375</ele>
      </trkpt>
      <trkpt lat="47.86041" lon="-3.45941">
        <ele>67.4375</ele>
      </trkpt>
      <trkpt lat="47.86039" lon="-3.45949">
        <ele>67.56640625</ele>
      </trkpt>
      <trkpt lat="47.86037" lon="-3.4596">
        <ele>67.80078125</ele>
      </trkpt>
      <trkpt lat="47.86033" lon="-3.45975">
        <ele>68.3828125</ele>
      </trkpt>
      <trkpt lat="47.86009" lon="-3.46048">
        <ele>70.80078125</ele>
      </trkpt>
      <trkpt lat="47.86001" lon="-3.46069">
        <ele>70.99609375</ele>
      </trkpt>
      <trkpt lat="47.85999" lon="-3.46078">
        <ele>70.92578125</ele>
      </trkpt>
      <trkpt lat="47.85996" lon="-3.46104">
        <ele>70.8515625</ele>
      </trkpt>
      <trkpt lat="47.85996" lon="-3.46144">
        <ele>70.5859375</ele>
      </trkpt>
      <trkpt lat="47.85994" lon="-3.46157">
        <ele>70.35546875</ele>
      </trkpt>
      <trkpt lat="47.8599" lon="-3.46172">
        <ele>70.01953125</ele>
      </trkpt>
      <trkpt lat="47.85984" lon="-3.46189">
        <ele>69.58203125</ele>
      </trkpt>
      <trkpt lat="47.85971" lon="-3.46198">
        <ele>69.015625</ele>
      </trkpt>
      <trkpt lat="47.85943" lon="-3.4622">
        <ele>67.81640625</ele>
      </trkpt>
      <trkpt lat="47.85928" lon="-3.4623">
        <ele>67.3046875</ele>
      </trkpt>
      <trkpt lat="47.85902" lon="-3.46239">
        <ele>66.19140625</ele>
      </trkpt>
      <trkpt lat="47.85885" lon="-3.46243">
        <ele>65.265625</ele>
      </trkpt>
      <trkpt lat="47.8587" lon="-3.46241">
        <ele>64.4765625</ele>
      </trkpt>
      <trkpt lat="47.85812" lon="-3.46228">
        <ele>60.9921875</ele>
      </trkpt>
      <trkpt lat="47.85752" lon="-3.46235">
        <ele>56.046875</ele>
      </trkpt>
      <trkpt lat="47.85737" lon="-3.46243">
        <ele>54.73828125</ele>
      </trkpt>
      <trkpt lat="47.85715" lon="-3.46252">
        <ele>52.984375</ele>
      </trkpt>
      <trkpt lat="47.85645" lon="-3.46316">
        <ele>46.43359375</ele>
      </trkpt>
      <trkpt lat="47.85636" lon="-3.46324">
        <ele>45.84765625</ele>
      </trkpt>
      <trkpt lat="47.85537" lon="-3.46417">
        <ele>41.765625</ele>
      </trkpt>
      <trkpt lat="47.85494" lon="-3.46447">
        <ele>42.1640625</ele>
      </trkpt>
      <trkpt lat="47.85441" lon="-3.46466">
        <ele>43.28125</ele>
      </trkpt>
      <trkpt lat="47.8531" lon="-3.46488">
        <ele>48.7265625</ele>
      </trkpt>
      <trkpt lat="47.8519" lon="-3.46541">
        <ele>47.53125</ele>
      </trkpt>
      <trkpt lat="47.85142" lon="-3.46554">
        <ele>47.12890625</ele>
      </trkpt>
      <trkpt lat="47.85091" lon="-3.46556">
        <ele>47.015625</ele>
      </trkpt>
      <trkpt lat="47.85074" lon="-3.46546">
        <ele>46.625</ele>
      </trkpt>
      <trkpt lat="47.85061" lon="-3.4655">
        <ele>46.1875</ele>
      </trkpt>
      <trkpt lat="47.85054" lon="-3.46556">
        <ele>45.9921875</ele>
      </trkpt>
      <trkpt lat="47.85033" lon="-3.46565">
        <ele>45.33984375</ele>
      </trkpt>
      <trkpt lat="47.85029" lon="-3.46569">
        <ele>45.234375</ele>
      </trkpt>
      <trkpt lat="47.85027" lon="-3.46576">
        <ele>45.22265625</ele>
      </trkpt>
      <trkpt lat="47.85029" lon="-3.46589">
        <ele>45.390625</ele>
      </trkpt>
      <trkpt lat="47.85027" lon="-3.46593">
        <ele>45.36328125</ele>
      </trkpt>
      <trkpt lat="47.85022" lon="-3.46593">
        <ele>45.2421875</ele>
      </trkpt>
      <trkpt lat="47.85009" lon="-3.46593">
        <ele>44.87890625</ele>
      </trkpt>
      <trkpt lat="47.8499" lon="-3.46593">
        <ele>44.16015625</ele>
      </trkpt>
      <trkpt lat="47.84943" lon="-3.46578">
        <ele>42.0390625</ele>
      </trkpt>
      <trkpt lat="47.84928" lon="-3.46571">
        <ele>41.40234375</ele>
      </trkpt>
      <trkpt lat="47.84909" lon="-3.46569">
        <ele>40.05859375</ele>
      </trkpt>
      <trkpt lat="47.84821" lon="-3.46595">
        <ele>31.8125</ele>
      </trkpt>
      <trkpt lat="47.84801" lon="-3.46604">
        <ele>30.88671875</ele>
      </trkpt>
      <trkpt lat="47.84784" lon="-3.46614">
        <ele>29.8359375</ele>
      </trkpt>
      <trkpt lat="47.84773" lon="-3.46627">
        <ele>29.0234375</ele>
      </trkpt>
      <trkpt lat="47.8476" lon="-3.46644">
        <ele>28.37890625</ele>
      </trkpt>
      <trkpt lat="47.84748" lon="-3.46662">
        <ele>28.046875</ele>
      </trkpt>
      <trkpt lat="47.8469" lon="-3.46735">
        <ele>30.48828125</ele>
      </trkpt>
      <trkpt lat="47.84668" lon="-3.46758">
        <ele>32.1640625</ele>
      </trkpt>
      <trkpt lat="47.84612" lon="-3.46833">
        <ele>32.70703125</ele>
      </trkpt>
      <trkpt lat="47.846" lon="-3.46857">
        <ele>32.49609375</ele>
      </trkpt>
      <trkpt lat="47.84582" lon="-3.46891">
        <ele>32.37890625</ele>
      </trkpt>
      <trkpt lat="47.84561" lon="-3.46962">
        <ele>33.5859375</ele>
      </trkpt>
      <trkpt lat="47.84554" lon="-3.46977">
        <ele>33.79296875</ele>
      </trkpt>
      <trkpt lat="47.84535" lon="-3.47005">
        <ele>34</ele>
      </trkpt>
      <trkpt lat="47.84516" lon="-3.4702">
        <ele>33.8984375</ele>
      </trkpt>
      <trkpt lat="47.84499" lon="-3.47026">
        <ele>33.5703125</ele>
      </trkpt>
      <trkpt lat="47.84494" lon="-3.47026">
        <ele>33.3671875</ele>
      </trkpt>
      <trkpt lat="47.84486" lon="-3.47028">
        <ele>33.00390625</ele>
      </trkpt>
      <trkpt lat="47.84447" lon="-3.47026">
        <ele>31.09765625</ele>
      </trkpt>
      <trkpt lat="47.84441" lon="-3.47026">
        <ele>30.7890625</ele>
      </trkpt>
      <trkpt lat="47.84434" lon="-3.47028">
        <ele>30.53125</ele>
      </trkpt>
      <trkpt lat="47.84419" lon="-3.47044">
        <ele>30.2890625</ele>
      </trkpt>
      <trkpt lat="47.84376" lon="-3.47101">
        <ele>35.7890625</ele>
      </trkpt>
      <trkpt lat="47.84374" lon="-3.47108">
        <ele>36.3203125</ele>
      </trkpt>
      <trkpt lat="47.8437" lon="-3.47121">
        <ele>37.41015625</ele>
      </trkpt>
      <trkpt lat="47.84379" lon="-3.47211">
        <ele>41.48828125</ele>
      </trkpt>
      <trkpt lat="47.84387" lon="-3.47277">
        <ele>42.30859375</ele>
      </trkpt>
      <trkpt lat="47.84398" lon="-3.47372">
        <ele>42.46484375</ele>
      </trkpt>
      <trkpt lat="47.84404" lon="-3.47415">
        <ele>40.1953125</ele>
      </trkpt>
      <trkpt lat="47.84406" lon="-3.47436">
        <ele>39.08203125</ele>
      </trkpt>
      <trkpt lat="47.84406" lon="-3.47451">
        <ele>38.4375</ele>
      </trkpt>
      <trkpt lat="47.84409" lon="-3.4746">
        <ele>37.81640625</ele>
      </trkpt>
      <trkpt lat="47.84409" lon="-3.47471">
        <ele>37.31640625</ele>
      </trkpt>
      <trkpt lat="47.84404" lon="-3.47483">
        <ele>37.19921875</ele>
      </trkpt>
      <trkpt lat="47.84394" lon="-3.47507">
        <ele>37.3515625</ele>
      </trkpt>
      <trkpt lat="47.84387" lon="-3.4752">
        <ele>37.53515625</ele>
      </trkpt>
      <trkpt lat="47.84364" lon="-3.47556">
        <ele>39.140625</ele>
      </trkpt>
      <trkpt lat="47.84348" lon="-3.47582">
        <ele>40.05078125</ele>
      </trkpt>
      <trkpt lat="47.84344" lon="-3.47593">
        <ele>40.140625</ele>
      </trkpt>
      <trkpt lat="47.84336" lon="-3.47616">
        <ele>40.125</ele>
      </trkpt>
      <trkpt lat="47.84321" lon="-3.47674">
        <ele>38.20703125</ele>
      </trkpt>
      <trkpt lat="47.84314" lon="-3.47689">
        <ele>37.921875</ele>
      </trkpt>
      <trkpt lat="47.84295" lon="-3.47717">
        <ele>38.265625</ele>
      </trkpt>
      <trkpt lat="47.84254" lon="-3.47771">
        <ele>38.09765625</ele>
      </trkpt>
      <trkpt lat="47.84243" lon="-3.47786">
        <ele>37.75</ele>
      </trkpt>
      <trkpt lat="47.84235" lon="-3.47803">
        <ele>37.78515625</ele>
      </trkpt>
      <trkpt lat="47.84218" lon="-3.4785">
        <ele>37.34765625</ele>
      </trkpt>
      <trkpt lat="47.84205" lon="-3.47893">
        <ele>37.07421875</ele>
      </trkpt>
      <trkpt lat="47.84082" lon="-3.48264">
        <ele>39.4609375</ele>
      </trkpt>
      <trkpt lat="47.84012" lon="-3.4847">
        <ele>47.82421875</ele>
      </trkpt>
      <trkpt lat="47.83999" lon="-3.48505">
        <ele>46.59375</ele>
      </trkpt>
      <trkpt lat="47.83986" lon="-3.48535">
        <ele>45.140625</ele>
      </trkpt>
      <trkpt lat="47.83979" lon="-3.48546">
        <ele>44.62109375</ele>
      </trkpt>
      <trkpt lat="47.8396" lon="-3.4858">
        <ele>42.97265625</ele>
      </trkpt>
      <trkpt lat="47.83919" lon="-3.48625">
        <ele>40.85546875</ele>
      </trkpt>
      <trkpt lat="47.83887" lon="-3.48649">
        <ele>41.13671875</ele>
      </trkpt>
      <trkpt lat="47.83836" lon="-3.4867">
        <ele>42.21875</ele>
      </trkpt>
      <trkpt lat="47.83786" lon="-3.48685">
        <ele>41.23828125</ele>
      </trkpt>
      <trkpt lat="47.83718" lon="-3.487">
        <ele>41.765625</ele>
      </trkpt>
      <trkpt lat="47.83691" lon="-3.48701">
        <ele>42.94140625</ele>
      </trkpt>
      <trkpt lat="47.83638" lon="-3.48704">
        <ele>43.265625</ele>
      </trkpt>
      <trkpt lat="47.83589" lon="-3.48713">
        <ele>41.9765625</ele>
      </trkpt>
      <trkpt lat="47.83565" lon="-3.48722">
        <ele>41.5</ele>
      </trkpt>
      <trkpt lat="47.83475" lon="-3.48752">
        <ele>40.37109375</ele>
      </trkpt>
      <trkpt lat="47.83374" lon="-3.4879">
        <ele>42.62109375</ele>
      </trkpt>
      <trkpt lat="47.83284" lon="-3.48822">
        <ele>45.03515625</ele>
      </trkpt>
      <trkpt lat="47.83278" lon="-3.48827">
        <ele>45.1640625</ele>
      </trkpt>
      <trkpt lat="47.83119" lon="-3.48885">
        <ele>46.03515625</ele>
      </trkpt>
      <trkpt lat="47.82924" lon="-3.48955">
        <ele>45.984375</ele>
      </trkpt>
      <trkpt lat="47.82896" lon="-3.48964">
        <ele>46.16015625</ele>
      </trkpt>
      <trkpt lat="47.82799" lon="-3.48981">
        <ele>48.28125</ele>
      </trkpt>
      <trkpt lat="47.82771" lon="-3.48985">
        <ele>49.53125</ele>
      </trkpt>
      <trkpt lat="47.8261" lon="-3.49013">
        <ele>50.5</ele>
      </trkpt>
      <trkpt lat="47.82557" lon="-3.49024">
        <ele>49.35546875</ele>
      </trkpt>
      <trkpt lat="47.82529" lon="-3.49037">
        <ele>48.6328125</ele>
      </trkpt>
      <trkpt lat="47.8249" lon="-3.49061">
        <ele>47.421875</ele>
      </trkpt>
      <trkpt lat="47.82473" lon="-3.49078">
        <ele>46.8046875</ele>
      </trkpt>
      <trkpt lat="47.82456" lon="-3.49101">
        <ele>46.109375</ele>
      </trkpt>
      <trkpt lat="47.82443" lon="-3.49125">
        <ele>45.53125</ele>
      </trkpt>
      <trkpt lat="47.82434" lon="-3.49155">
        <ele>45.0234375</ele>
      </trkpt>
      <trkpt lat="47.82426" lon="-3.49215">
        <ele>43.9453125</ele>
      </trkpt>
      <trkpt lat="47.82447" lon="-3.49224">
        <ele>44.37109375</ele>
      </trkpt>
      <trkpt lat="47.82466" lon="-3.49232">
        <ele>44.62109375</ele>
      </trkpt>
      <trkpt lat="47.82471" lon="-3.49234">
        <ele>44.671875</ele>
      </trkpt>
      <trkpt lat="47.82499" lon="-3.49256">
        <ele>44.42578125</ele>
      </trkpt>
      <trkpt lat="47.8252" lon="-3.49277">
        <ele>44.69140625</ele>
      </trkpt>
      <trkpt lat="47.82632" lon="-3.49408">
        <ele>48</ele>
      </trkpt>
      <trkpt lat="47.82647" lon="-3.49421">
        <ele>48.76171875</ele>
      </trkpt>
      <trkpt lat="47.82703" lon="-3.49468">
        <ele>49.51171875</ele>
      </trkpt>
      <trkpt lat="47.82667" lon="-3.49544">
        <ele>47.3984375</ele>
      </trkpt>
      <trkpt lat="47.82563" lon="-3.49766">
        <ele>41.60546875</ele>
      </trkpt>
      <trkpt lat="47.82555" lon="-3.49794">
        <ele>42.7265625</ele>
      </trkpt>
      <trkpt lat="47.8255" lon="-3.49857">
        <ele>45.5390625</ele>
      </trkpt>
      <trkpt lat="47.8255" lon="-3.49887">
        <ele>46.171875</ele>
      </trkpt>
      <trkpt lat="47.82559" lon="-3.49953">
        <ele>46.69921875</ele>
      </trkpt>
      <trkpt lat="47.82565" lon="-3.50005">
        <ele>45.46875</ele>
      </trkpt>
      <trkpt lat="47.82563" lon="-3.50018">
        <ele>45.015625</ele>
      </trkpt>
      <trkpt lat="47.82557" lon="-3.50024">
        <ele>44.6484375</ele>
      </trkpt>
      <trkpt lat="47.82555" lon="-3.5003">
        <ele>44.41796875</ele>
      </trkpt>
      <trkpt lat="47.82548" lon="-3.50043">
        <ele>43.92578125</ele>
      </trkpt>
      <trkpt lat="47.82512" lon="-3.50026">
        <ele>43.37109375</ele>
      </trkpt>
      <trkpt lat="47.82505" lon="-3.50028">
        <ele>43.16796875</ele>
      </trkpt>
      <trkpt lat="47.82484" lon="-3.50037">
        <ele>42.76953125</ele>
      </trkpt>
      <trkpt lat="47.82398" lon="-3.50073">
        <ele>41.55859375</ele>
      </trkpt>
      <trkpt lat="47.82121" lon="-3.50019">
        <ele>33.98046875</ele>
      </trkpt>
      <trkpt lat="47.8199" lon="-3.49994">
        <ele>34.921875</ele>
      </trkpt>
      <trkpt lat="47.81947" lon="-3.5">
        <ele>36.0234375</ele>
      </trkpt>
      <trkpt lat="47.81877" lon="-3.50003">
        <ele>37.94921875</ele>
      </trkpt>
      <trkpt lat="47.81868" lon="-3.50048">
        <ele>37.81640625</ele>
      </trkpt>
      <trkpt lat="47.81838" lon="-3.50095">
        <ele>38.93359375</ele>
      </trkpt>
      <trkpt lat="47.81804" lon="-3.50127">
        <ele>41.0390625</ele>
      </trkpt>
      <trkpt lat="47.81767" lon="-3.50138">
        <ele>43.05859375</ele>
      </trkpt>
      <trkpt lat="47.81746" lon="-3.5017">
        <ele>43.9765625</ele>
      </trkpt>
      <trkpt lat="47.81731" lon="-3.50228">
        <ele>44.59765625</ele>
      </trkpt>
      <trkpt lat="47.81726" lon="-3.50243">
        <ele>44.796875</ele>
      </trkpt>
      <trkpt lat="47.81666" lon="-3.50442">
        <ele>42.08203125</ele>
      </trkpt>
      <trkpt lat="47.8166" lon="-3.50479">
        <ele>40.390625</ele>
      </trkpt>
      <trkpt lat="47.81655" lon="-3.50499">
        <ele>39.39453125</ele>
      </trkpt>
      <trkpt lat="47.81651" lon="-3.50513">
        <ele>38.703125</ele>
      </trkpt>
      <trkpt lat="47.81623" lon="-3.50668">
        <ele>34.66015625</ele>
      </trkpt>
      <trkpt lat="47.81608" lon="-3.50717">
        <ele>33.66015625</ele>
      </trkpt>
      <trkpt lat="47.81559" lon="-3.50796">
        <ele>31.75390625</ele>
      </trkpt>
      <trkpt lat="47.81507" lon="-3.50859">
        <ele>31.87109375</ele>
      </trkpt>
      <trkpt lat="47.81484" lon="-3.50872">
        <ele>32.21875</ele>
      </trkpt>
      <trkpt lat="47.81458" lon="-3.50876">
        <ele>32.55078125</ele>
      </trkpt>
      <trkpt lat="47.81387" lon="-3.50848">
        <ele>33.0546875</ele>
      </trkpt>
      <trkpt lat="47.81274" lon="-3.50724">
        <ele>31.796875</ele>
      </trkpt>
      <trkpt lat="47.81217" lon="-3.50661">
        <ele>30.55859375</ele>
      </trkpt>
      <trkpt lat="47.81147" lon="-3.50584">
        <ele>30.5859375</ele>
      </trkpt>
      <trkpt lat="47.81119" lon="-3.50558">
        <ele>30.8984375</ele>
      </trkpt>
      <trkpt lat="47.8096" lon="-3.50466">
        <ele>36.296875</ele>
      </trkpt>
      <trkpt lat="47.80932" lon="-3.50453">
        <ele>36.85546875</ele>
      </trkpt>
      <trkpt lat="47.80915" lon="-3.50449">
        <ele>37</ele>
      </trkpt>
      <trkpt lat="47.80902" lon="-3.50445">
        <ele>37</ele>
      </trkpt>
      <trkpt lat="47.80892" lon="-3.50434">
        <ele>37</ele>
      </trkpt>
      <trkpt lat="47.80887" lon="-3.50427">
        <ele>37</ele>
      </trkpt>
      <trkpt lat="47.80881" lon="-3.50408">
        <ele>37</ele>
      </trkpt>
      <trkpt lat="47.80836" lon="-3.5029">
        <ele>36.0703125</ele>
      </trkpt>
      <trkpt lat="47.80825" lon="-3.50269">
        <ele>36.28515625</ele>
      </trkpt>
      <trkpt lat="47.80812" lon="-3.50249">
        <ele>36.59765625</ele>
      </trkpt>
      <trkpt lat="47.80793" lon="-3.5023">
        <ele>37.05859375</ele>
      </trkpt>
      <trkpt lat="47.8078" lon="-3.50221">
        <ele>37.3671875</ele>
      </trkpt>
      <trkpt lat="47.80778" lon="-3.50241">
        <ele>37.421875</ele>
      </trkpt>
      <trkpt lat="47.80776" lon="-3.50264">
        <ele>37.47265625</ele>
      </trkpt>
      <trkpt lat="47.80771" lon="-3.50316">
        <ele>37.09765625</ele>
      </trkpt>
      <trkpt lat="47.80759" lon="-3.50361">
        <ele>36.25390625</ele>
      </trkpt>
      <trkpt lat="47.80746" lon="-3.50393">
        <ele>36.30078125</ele>
      </trkpt>
      <trkpt lat="47.80729" lon="-3.50419">
        <ele>37.140625</ele>
      </trkpt>
      <trkpt lat="47.80691" lon="-3.5046">
        <ele>38.31640625</ele>
      </trkpt>
      <trkpt lat="47.80641" lon="-3.50515">
        <ele>38.8671875</ele>
      </trkpt>
      <trkpt lat="47.80608" lon="-3.5055">
        <ele>39.984375</ele>
      </trkpt>
      <trkpt lat="47.80593" lon="-3.50571">
        <ele>40.4140625</ele>
      </trkpt>
      <trkpt lat="47.80585" lon="-3.50599">
        <ele>39.9453125</ele>
      </trkpt>
      <trkpt lat="47.80578" lon="-3.5067">
        <ele>39.6796875</ele>
      </trkpt>
      <trkpt lat="47.80589" lon="-3.50764">
        <ele>37.58203125</ele>
      </trkpt>
      <trkpt lat="47.80589" lon="-3.50794">
        <ele>36.78125</ele>
      </trkpt>
      <trkpt lat="47.80589" lon="-3.50816">
        <ele>36.01953125</ele>
      </trkpt>
      <trkpt lat="47.80572" lon="-3.5088">
        <ele>35.03125</ele>
      </trkpt>
      <trkpt lat="47.8057" lon="-3.50884">
        <ele>35.109375</ele>
      </trkpt>
      <trkpt lat="47.80516" lon="-3.50921">
        <ele>38.7421875</ele>
      </trkpt>
      <trkpt lat="47.80512" lon="-3.50942">
        <ele>38.5859375</ele>
      </trkpt>
      <trkpt lat="47.80486" lon="-3.50981">
        <ele>39.0390625</ele>
      </trkpt>
      <trkpt lat="47.80497" lon="-3.50996">
        <ele>38.26171875</ele>
      </trkpt>
      <trkpt lat="47.80503" lon="-3.51086">
        <ele>35.82421875</ele>
      </trkpt>
      <trkpt lat="47.80475" lon="-3.51151">
        <ele>37.03125</ele>
      </trkpt>
      <trkpt lat="47.80486" lon="-3.51213">
        <ele>38.234375</ele>
      </trkpt>
      <trkpt lat="47.80486" lon="-3.51262">
        <ele>39.0390625</ele>
      </trkpt>
      <trkpt lat="47.80465" lon="-3.51387">
        <ele>39.1875</ele>
      </trkpt>
      <trkpt lat="47.8042" lon="-3.51522">
        <ele>40.57421875</ele>
      </trkpt>
      <trkpt lat="47.80409" lon="-3.5156">
        <ele>41.08984375</ele>
      </trkpt>
      <trkpt lat="47.80398" lon="-3.51663">
        <ele>40.4921875</ele>
      </trkpt>
      <trkpt lat="47.80377" lon="-3.51693">
        <ele>41.15234375</ele>
      </trkpt>
      <trkpt lat="47.80317" lon="-3.51711">
        <ele>40.859375</ele>
      </trkpt>
      <trkpt lat="47.80306" lon="-3.51702">
        <ele>42.66796875</ele>
      </trkpt>
      <trkpt lat="47.80254" lon="-3.5169">
        <ele>43.47265625</ele>
      </trkpt>
      <trkpt lat="47.80248" lon="-3.51689">
        <ele>43.91796875</ele>
      </trkpt>
      <trkpt lat="47.80171" lon="-3.517">
        <ele>47.17578125</ele>
      </trkpt>
      <trkpt lat="47.80138" lon="-3.51676">
        <ele>46.3359375</ele>
      </trkpt>
      <trkpt lat="47.80128" lon="-3.51693">
        <ele>44.78515625</ele>
      </trkpt>
      <trkpt lat="47.80126" lon="-3.51717">
        <ele>43.6953125</ele>
      </trkpt>
      <trkpt lat="47.80113" lon="-3.51747">
        <ele>41.953125</ele>
      </trkpt>
      <trkpt lat="47.80093" lon="-3.5179">
        <ele>39.57421875</ele>
      </trkpt>
      <trkpt lat="47.80044" lon="-3.51814">
        <ele>35.7890625</ele>
      </trkpt>
      <trkpt lat="47.79982" lon="-3.51794">
        <ele>40.296875</ele>
      </trkpt>
      <trkpt lat="47.79924" lon="-3.51792">
        <ele>43.46875</ele>
      </trkpt>
      <trkpt lat="47.79864" lon="-3.51816">
        <ele>44.35546875</ele>
      </trkpt>
      <trkpt lat="47.79812" lon="-3.51859">
        <ele>44.421875</ele>
      </trkpt>
      <trkpt lat="47.79789" lon="-3.51874">
        <ele>45.60546875</ele>
      </trkpt>
      <trkpt lat="47.79761" lon="-3.51887">
        <ele>47.1484375</ele>
      </trkpt>
      <trkpt lat="47.79735" lon="-3.51897">
        <ele>47.72265625</ele>
      </trkpt>
      <trkpt lat="47.79718" lon="-3.51914">
        <ele>46.78125</ele>
      </trkpt>
      <trkpt lat="47.7969" lon="-3.51944">
        <ele>46.3046875</ele>
      </trkpt>
      <trkpt lat="47.79681" lon="-3.51964">
        <ele>44.90625</ele>
      </trkpt>
      <trkpt lat="47.79649" lon="-3.51985">
        <ele>42.8203125</ele>
      </trkpt>
      <trkpt lat="47.79626" lon="-3.52017">
        <ele>38.98828125</ele>
      </trkpt>
      <trkpt lat="47.79591" lon="-3.52144">
        <ele>33.9296875</ele>
      </trkpt>
      <trkpt lat="47.796" lon="-3.52241">
        <ele>28.296875</ele>
      </trkpt>
      <trkpt lat="47.79604" lon="-3.52271">
        <ele>25.2734375</ele>
      </trkpt>
      <trkpt lat="47.796" lon="-3.52303">
        <ele>24.0546875</ele>
      </trkpt>
      <trkpt lat="47.79602" lon="-3.52359">
        <ele>18.75</ele>
      </trkpt>
      <trkpt lat="47.79591" lon="-3.52382">
        <ele>19.76171875</ele>
      </trkpt>
      <trkpt lat="47.79626" lon="-3.52374">
        <ele>10.89453125</ele>
      </trkpt>
      <trkpt lat="47.7972" lon="-3.52339">
        <ele>-2.54296875</ele>
      </trkpt>
      <trkpt lat="47.79812" lon="-3.52307">
        <ele>6.59765625</ele>
      </trkpt>
      <trkpt lat="47.7984" lon="-3.52294">
        <ele>10.2734375</ele>
      </trkpt>
      <trkpt lat="47.79864" lon="-3.52288">
        <ele>12.4296875</ele>
      </trkpt>
      <trkpt lat="47.79907" lon="-3.5229">
        <ele>17.921875</ele>
      </trkpt>
      <trkpt lat="47.79924" lon="-3.52296">
        <ele>20.5390625</ele>
      </trkpt>
      <trkpt lat="47.79958" lon="-3.52316">
        <ele>22.59375</ele>
      </trkpt>
      <trkpt lat="47.79971" lon="-3.52326">
        <ele>23.71875</ele>
      </trkpt>
      <trkpt lat="47.79967" lon="-3.52344">
        <ele>26.06640625</ele>
      </trkpt>
      <trkpt lat="47.7996" lon="-3.52354">
        <ele>27.67578125</ele>
      </trkpt>
      <trkpt lat="47.79954" lon="-3.52361">
        <ele>28.74609375</ele>
      </trkpt>
      <trkpt lat="47.79948" lon="-3.52365">
        <ele>29.55078125</ele>
      </trkpt>
      <trkpt lat="47.79939" lon="-3.52367">
        <ele>30.1484375</ele>
      </trkpt>
      <trkpt lat="47.79928" lon="-3.52371">
        <ele>30.9453125</ele>
      </trkpt>
      <trkpt lat="47.79913" lon="-3.52374">
        <ele>30.1640625</ele>
      </trkpt>
      <trkpt lat="47.79898" lon="-3.52374">
        <ele>27.86328125</ele>
      </trkpt>
      <trkpt lat="47.79885" lon="-3.52378">
        <ele>26.2890625</ele>
      </trkpt>
      <trkpt lat="47.79877" lon="-3.5238">
        <ele>25.203125</ele>
      </trkpt>
      <trkpt lat="47.7986" lon="-3.52401">
        <ele>24.94140625</ele>
      </trkpt>
      <trkpt lat="47.79853" lon="-3.52421">
        <ele>26.20703125</ele>
      </trkpt>
      <trkpt lat="47.79853" lon="-3.52427">
        <ele>26.921875</ele>
      </trkpt>
      <trkpt lat="47.79849" lon="-3.52438">
        <ele>27.6171875</ele>
      </trkpt>
      <trkpt lat="47.79842" lon="-3.52468">
        <ele>29.4296875</ele>
      </trkpt>
      <trkpt lat="47.79836" lon="-3.5252">
        <ele>31.65234375</ele>
      </trkpt>
      <trkpt lat="47.79836" lon="-3.52577">
        <ele>34.14453125</ele>
      </trkpt>
      <trkpt lat="47.79832" lon="-3.52588">
        <ele>33.625</ele>
      </trkpt>
      <trkpt lat="47.79819" lon="-3.52616">
        <ele>32.0390625</ele>
      </trkpt>
      <trkpt lat="47.79804" lon="-3.52633">
        <ele>30.28125</ele>
      </trkpt>
      <trkpt lat="47.79774" lon="-3.52685">
        <ele>28.9375</ele>
      </trkpt>
      <trkpt lat="47.79767" lon="-3.527">
        <ele>29.1328125</ele>
      </trkpt>
      <trkpt lat="47.79763" lon="-3.5273">
        <ele>31.4375</ele>
      </trkpt>
      <trkpt lat="47.79765" lon="-3.52741">
        <ele>32.8828125</ele>
      </trkpt>
      <trkpt lat="47.79754" lon="-3.52753">
        <ele>32.578125</ele>
      </trkpt>
      <trkpt lat="47.79748" lon="-3.52766">
        <ele>32.87109375</ele>
      </trkpt>
      <trkpt lat="47.79742" lon="-3.52773">
        <ele>32.48046875</ele>
      </trkpt>
      <trkpt lat="47.79733" lon="-3.52775">
        <ele>31.26171875</ele>
      </trkpt>
      <trkpt lat="47.79724" lon="-3.52775">
        <ele>29.8046875</ele>
      </trkpt>
      <trkpt lat="47.79714" lon="-3.52771">
        <ele>27.49609375</ele>
      </trkpt>
      <trkpt lat="47.79654" lon="-3.52781">
        <ele>20.0625</ele>
      </trkpt>
      <trkpt lat="47.79604" lon="-3.52813">
        <ele>18.765625</ele>
      </trkpt>
      <trkpt lat="47.79574" lon="-3.52854">
        <ele>19.77734375</ele>
      </trkpt>
      <trkpt lat="47.79578" lon="-3.5288">
        <ele>22.0546875</ele>
      </trkpt>
      <trkpt lat="47.79576" lon="-3.52901">
        <ele>23.26953125</ele>
      </trkpt>
      <trkpt lat="47.7957" lon="-3.52906">
        <ele>23.14453125</ele>
      </trkpt>
      <trkpt lat="47.79551" lon="-3.52882">
        <ele>20.29296875</ele>
      </trkpt>
      <trkpt lat="47.79536" lon="-3.52884">
        <ele>19.4296875</ele>
      </trkpt>
      <trkpt lat="47.79514" lon="-3.52867">
        <ele>16.55859375</ele>
      </trkpt>
      <trkpt lat="47.79505" lon="-3.5285">
        <ele>14.0859375</ele>
      </trkpt>
      <trkpt lat="47.7949" lon="-3.52846">
        <ele>13.3984375</ele>
      </trkpt>
      <trkpt lat="47.79469" lon="-3.5282">
        <ele>10.90625</ele>
      </trkpt>
      <trkpt lat="47.79448" lon="-3.5282">
        <ele>10.9921875</ele>
      </trkpt>
      <trkpt lat="47.7943" lon="-3.52798">
        <ele>9.65625</ele>
      </trkpt>
      <trkpt lat="47.79413" lon="-3.52771">
        <ele>7.09765625</ele>
      </trkpt>
      <trkpt lat="47.79375" lon="-3.52803">
        <ele>7.05859375</ele>
      </trkpt>
      <trkpt lat="47.7936" lon="-3.5282">
        <ele>7.578125</ele>
      </trkpt>
      <trkpt lat="47.79319" lon="-3.52839">
        <ele>7.5234375</ele>
      </trkpt>
      <trkpt lat="47.79308" lon="-3.52848">
        <ele>7.859375</ele>
      </trkpt>
      <trkpt lat="47.79295" lon="-3.52856">
        <ele>8.01953125</ele>
      </trkpt>
      <trkpt lat="47.79269" lon="-3.52865">
        <ele>7.484375</ele>
      </trkpt>
      <trkpt lat="47.79252" lon="-3.52871">
        <ele>6.92578125</ele>
      </trkpt>
      <trkpt lat="47.79229" lon="-3.52904">
        <ele>6.8359375</ele>
      </trkpt>
      <trkpt lat="47.79219" lon="-3.5292">
        <ele>7.2265625</ele>
      </trkpt>
      <trkpt lat="47.79205" lon="-3.52942">
        <ele>8.1484375</ele>
      </trkpt>
      <trkpt lat="47.79194" lon="-3.52996">
        <ele>8.77734375</ele>
      </trkpt>
      <trkpt lat="47.79181" lon="-3.53019">
        <ele>8.45703125</ele>
      </trkpt>
      <trkpt lat="47.79149" lon="-3.53034">
        <ele>5.87890625</ele>
      </trkpt>
      <trkpt lat="47.79136" lon="-3.53062">
        <ele>5.10546875</ele>
      </trkpt>
      <trkpt lat="47.79145" lon="-3.53105">
        <ele>6.57421875</ele>
      </trkpt>
      <trkpt lat="47.79147" lon="-3.53142">
        <ele>7.7265625</ele>
      </trkpt>
      <trkpt lat="47.79136" lon="-3.53153">
        <ele>7.12109375</ele>
      </trkpt>
      <trkpt lat="47.79046" lon="-3.532">
        <ele>10.375</ele>
      </trkpt>
      <trkpt lat="47.79042" lon="-3.532">
        <ele>11.03125</ele>
      </trkpt>
      <trkpt lat="47.79031" lon="-3.5321">
        <ele>13.53515625</ele>
      </trkpt>
      <trkpt lat="47.79029" lon="-3.53232">
        <ele>15.49609375</ele>
      </trkpt>
      <trkpt lat="47.79003" lon="-3.53369">
        <ele>29.15625</ele>
      </trkpt>
      <trkpt lat="47.78999" lon="-3.53436">
        <ele>30.421875</ele>
      </trkpt>
      <trkpt lat="47.79003" lon="-3.53455">
        <ele>30.16015625</ele>
      </trkpt>
      <trkpt lat="47.78991" lon="-3.53571">
        <ele>29.51953125</ele>
      </trkpt>
      <trkpt lat="47.78991" lon="-3.53631">
        <ele>25.60546875</ele>
      </trkpt>
      <trkpt lat="47.78978" lon="-3.53687">
        <ele>21.703125</ele>
      </trkpt>
      <trkpt lat="47.78965" lon="-3.53698">
        <ele>22.18359375</ele>
      </trkpt>
      <trkpt lat="47.78928" lon="-3.53693">
        <ele>27.04296875</ele>
      </trkpt>
      <trkpt lat="47.78883" lon="-3.53695">
        <ele>31.2421875</ele>
      </trkpt>
      <trkpt lat="47.78864" lon="-3.53702">
        <ele>32.484375</ele>
      </trkpt>
      <trkpt lat="47.78789" lon="-3.53762">
        <ele>33.296875</ele>
      </trkpt>
      <trkpt lat="47.78782" lon="-3.5376">
        <ele>33.90234375</ele>
      </trkpt>
      <trkpt lat="47.78763" lon="-3.53822">
        <ele>31.703125</ele>
      </trkpt>
      <trkpt lat="47.7875" lon="-3.53837">
        <ele>31.671875</ele>
      </trkpt>
      <trkpt lat="47.78746" lon="-3.53861">
        <ele>30.6796875</ele>
      </trkpt>
      <trkpt lat="47.78752" lon="-3.53979">
        <ele>30.98828125</ele>
      </trkpt>
      <trkpt lat="47.78767" lon="-3.53998">
        <ele>30.640625</ele>
      </trkpt>
      <trkpt lat="47.78746" lon="-3.53998">
        <ele>30.9375</ele>
      </trkpt>
      <trkpt lat="47.78729" lon="-3.54004">
        <ele>30.796875</ele>
      </trkpt>
      <trkpt lat="47.78716" lon="-3.54015">
        <ele>30.63671875</ele>
      </trkpt>
      <trkpt lat="47.78677" lon="-3.54004">
        <ele>30.40234375</ele>
      </trkpt>
      <trkpt lat="47.78662" lon="-3.54004">
        <ele>30.3984375</ele>
      </trkpt>
      <trkpt lat="47.78615" lon="-3.54026">
        <ele>30.171875</ele>
      </trkpt>
      <trkpt lat="47.78576" lon="-3.54062">
        <ele>30.43359375</ele>
      </trkpt>
      <trkpt lat="47.78533" lon="-3.5411">
        <ele>31.98046875</ele>
      </trkpt>
      <trkpt lat="47.78508" lon="-3.5414">
        <ele>33.69921875</ele>
      </trkpt>
      <trkpt lat="47.78501" lon="-3.5415">
        <ele>34.35546875</ele>
      </trkpt>
      <trkpt lat="47.78491" lon="-3.54167">
        <ele>35.39453125</ele>
      </trkpt>
      <trkpt lat="47.78422" lon="-3.54294">
        <ele>41.12109375</ele>
      </trkpt>
      <trkpt lat="47.78398" lon="-3.54346">
        <ele>42.01953125</ele>
      </trkpt>
      <trkpt lat="47.78392" lon="-3.54361">
        <ele>42.27734375</ele>
      </trkpt>
      <trkpt lat="47.78379" lon="-3.54352">
        <ele>42.33203125</ele>
      </trkpt>
      <trkpt lat="47.7837" lon="-3.54341">
        <ele>42.3046875</ele>
      </trkpt>
      <trkpt lat="47.78362" lon="-3.54324">
        <ele>42.203125</ele>
      </trkpt>
      <trkpt lat="47.7834" lon="-3.54298">
        <ele>42.1484375</ele>
      </trkpt>
      <trkpt lat="47.78327" lon="-3.54285">
        <ele>42.1484375</ele>
      </trkpt>
      <trkpt lat="47.78306" lon="-3.54273">
        <ele>42.11328125</ele>
      </trkpt>
      <trkpt lat="47.78295" lon="-3.54268">
        <ele>42.1328125</ele>
      </trkpt>
      <trkpt lat="47.78291" lon="-3.54266">
        <ele>42.140625</ele>
      </trkpt>
      <trkpt lat="47.78265" lon="-3.54251">
        <ele>42.08984375</ele>
      </trkpt>
      <trkpt lat="47.78248" lon="-3.54247">
        <ele>41.7578125</ele>
      </trkpt>
      <trkpt lat="47.78239" lon="-3.54243">
        <ele>41.2421875</ele>
      </trkpt>
      <trkpt lat="47.78237" lon="-3.5426">
        <ele>41.55078125</ele>
      </trkpt>
      <trkpt lat="47.78224" lon="-3.54318">
        <ele>42.0703125</ele>
      </trkpt>
      <trkpt lat="47.78207" lon="-3.54376">
        <ele>42.26953125</ele>
      </trkpt>
      <trkpt lat="47.78192" lon="-3.54425">
        <ele>41.73046875</ele>
      </trkpt>
      <trkpt lat="47.78152" lon="-3.54597">
        <ele>38.6953125</ele>
      </trkpt>
      <trkpt lat="47.78115" lon="-3.54588">
        <ele>37.7421875</ele>
      </trkpt>
      <trkpt lat="47.78104" lon="-3.54584">
        <ele>37.44921875</ele>
      </trkpt>
      <trkpt lat="47.78089" lon="-3.54577">
        <ele>37.015625</ele>
      </trkpt>
      <trkpt lat="47.77997" lon="-3.54509">
        <ele>33.5234375</ele>
      </trkpt>
      <trkpt lat="47.77954" lon="-3.5448">
        <ele>32.51171875</ele>
      </trkpt>
      <trkpt lat="47.77948" lon="-3.54476">
        <ele>32.40234375</ele>
      </trkpt>
      <trkpt lat="47.77898" lon="-3.54457">
        <ele>31.47265625</ele>
      </trkpt>
      <trkpt lat="47.77851" lon="-3.54451">
        <ele>30.29296875</ele>
      </trkpt>
      <trkpt lat="47.77815" lon="-3.54442">
        <ele>28.69921875</ele>
      </trkpt>
      <trkpt lat="47.77804" lon="-3.54438">
        <ele>28.09765625</ele>
      </trkpt>
      <trkpt lat="47.77793" lon="-3.54431">
        <ele>27.4453125</ele>
      </trkpt>
      <trkpt lat="47.77772" lon="-3.54414">
        <ele>25.98046875</ele>
      </trkpt>
      <trkpt lat="47.77716" lon="-3.54352">
        <ele>23.7265625</ele>
      </trkpt>
      <trkpt lat="47.77697" lon="-3.54333">
        <ele>23.2890625</ele>
      </trkpt>
      <trkpt lat="47.77669" lon="-3.54311">
        <ele>22.796875</ele>
      </trkpt>
      <trkpt lat="47.77626" lon="-3.543">
        <ele>24.1796875</ele>
      </trkpt>
      <trkpt lat="47.77452" lon="-3.54283">
        <ele>33.2109375</ele>
      </trkpt>
      <trkpt lat="47.77405" lon="-3.54279">
        <ele>35.92578125</ele>
      </trkpt>
      <trkpt lat="47.77351" lon="-3.54277">
        <ele>39.03515625</ele>
      </trkpt>
      <trkpt lat="47.7733" lon="-3.54283">
        <ele>39.97265625</ele>
      </trkpt>
      <trkpt lat="47.7731" lon="-3.5429">
        <ele>40.04296875</ele>
      </trkpt>
      <trkpt lat="47.77291" lon="-3.54294">
        <ele>40.05078125</ele>
      </trkpt>
      <trkpt lat="47.77293" lon="-3.54298">
        <ele>40.078125</ele>
      </trkpt>
      <trkpt lat="47.77293" lon="-3.54303">
        <ele>40.09765625</ele>
      </trkpt>
      <trkpt lat="47.77289" lon="-3.54311">
        <ele>40.12890625</ele>
      </trkpt>
      <trkpt lat="47.77295" lon="-3.54326">
        <ele>40.23828125</ele>
      </trkpt>
      <trkpt lat="47.7734" lon="-3.54382">
        <ele>40.7734375</ele>
      </trkpt>
      <trkpt lat="47.77394" lon="-3.54459">
        <ele>38.61328125</ele>
      </trkpt>
      <trkpt lat="47.77422" lon="-3.54515">
        <ele>37.24609375</ele>
      </trkpt>
      <trkpt lat="47.77446" lon="-3.54575">
        <ele>36.0078125</ele>
      </trkpt>
      <trkpt lat="47.77366" lon="-3.54637">
        <ele>34.8671875</ele>
      </trkpt>
      <trkpt lat="47.77336" lon="-3.54652">
        <ele>34.23828125</ele>
      </trkpt>
      <trkpt lat="47.77302" lon="-3.54646">
        <ele>33.72265625</ele>
      </trkpt>
      <trkpt lat="47.77289" lon="-3.54631">
        <ele>34.13671875</ele>
      </trkpt>
      <trkpt lat="47.77287" lon="-3.54678">
        <ele>31.81640625</ele>
      </trkpt>
      <trkpt lat="47.77285" lon="-3.54708">
        <ele>30.5390625</ele>
      </trkpt>
      <trkpt lat="47.77295" lon="-3.5474">
        <ele>30.21484375</ele>
      </trkpt>
      <trkpt lat="47.77328" lon="-3.54788">
        <ele>30.53515625</ele>
      </trkpt>
      <trkpt lat="47.77336" lon="-3.54818">
        <ele>30.484375</ele>
      </trkpt>
      <trkpt lat="47.77328" lon="-3.54882">
        <ele>29.42578125</ele>
      </trkpt>
      <trkpt lat="47.77315" lon="-3.54901">
        <ele>28.828125</ele>
      </trkpt>
      <trkpt lat="47.77317" lon="-3.54912">
        <ele>28.80078125</ele>
      </trkpt>
      <trkpt lat="47.77325" lon="-3.54925">
        <ele>28.921875</ele>
      </trkpt>
      <trkpt lat="47.77317" lon="-3.54959">
        <ele>28.73046875</ele>
      </trkpt>
      <trkpt lat="47.77302" lon="-3.54961">
        <ele>28.484375</ele>
      </trkpt>
      <trkpt lat="47.77285" lon="-3.55028">
        <ele>30.76953125</ele>
      </trkpt>
      <trkpt lat="47.77282" lon="-3.55082">
        <ele>33.08984375</ele>
      </trkpt>
      <trkpt lat="47.77289" lon="-3.55085">
        <ele>33.33203125</ele>
      </trkpt>
      <trkpt lat="47.77289" lon="-3.55085">
        <ele>33.31640625</ele>
      </trkpt>
    </trkseg>
  </trk>
</gpx>